<?xml version="1.0" encoding="UTF-8" standalone="no" ?>
<gpx xmlns="http://www.topografix.com/GPX/1/1" xmlns:xsi="http://www.w3.org/2001/XMLSchema-instance" xsi:schemaLocation="http://www.topografix.com/GPX/1/1 http://www.topografix.com/GPX/1/1/gpx.xsd" version="1.1" creator="VisuGPX - https://www.visugpx.com">
  <metadata>
    <name>Col du Soufre 2758m - (Vanoise)</name>
    <desc><![CDATA[Départ : Pralognan la Vanoise - Les Prioux (1710m)
Balade en A/R

On passe le Pont de la Pêche (1767m), le refuge du Roc de la Pêche (1900m) et on remonte le long vallon jusqu'au refuge de Péclet Polset (2474m). On longe le Lac Blanc et enfin la dernière partie jusqu'au col du Soufre (2817m).

NB : A cause de l'enneigement encore présent, je me suis arrêté un peu avant le col.

Les photos sont là : http://cyclo-rando.over-blog.com/2018/07/col-du-soufre-2758m-vanoise.html]]></desc>
  </metadata>
  <trk>
    <name><![CDATA[Col du Soufre  2758m - (Vanoise)]]></name>
    <trkseg>
      <trkpt lat="45.3432" lon="6.69822">
        <ele>1734.7</ele>
        <time>2018-07-01T06:32:55Z</time>
      </trkpt>
      <trkpt lat="45.34321" lon="6.69818">
        <ele>1735.3</ele>
        <time>2018-07-01T06:32:59Z</time>
      </trkpt>
      <trkpt lat="45.34321" lon="6.69813">
        <ele>1736</ele>
        <time>2018-07-01T06:33:01Z</time>
      </trkpt>
      <trkpt lat="45.34319" lon="6.69811">
        <ele>1735.8</ele>
        <time>2018-07-01T06:33:06Z</time>
      </trkpt>
      <trkpt lat="45.3432" lon="6.69809">
        <ele>1735.8</ele>
        <time>2018-07-01T06:33:31Z</time>
      </trkpt>
      <trkpt lat="45.34323" lon="6.69811">
        <ele>1735.8</ele>
        <time>2018-07-01T06:33:39Z</time>
      </trkpt>
      <trkpt lat="45.34322" lon="6.69816">
        <ele>1735.7</ele>
        <time>2018-07-01T06:33:43Z</time>
      </trkpt>
      <trkpt lat="45.34326" lon="6.69824">
        <ele>1735.6</ele>
        <time>2018-07-01T06:35:00Z</time>
      </trkpt>
      <trkpt lat="45.34334" lon="6.69818">
        <ele>1735.5</ele>
        <time>2018-07-01T06:35:13Z</time>
      </trkpt>
      <trkpt lat="45.34331" lon="6.69814">
        <ele>1735.6</ele>
        <time>2018-07-01T06:35:16Z</time>
      </trkpt>
      <trkpt lat="45.34329" lon="6.6981">
        <ele>1735.7</ele>
        <time>2018-07-01T06:35:19Z</time>
      </trkpt>
      <trkpt lat="45.34326" lon="6.69806">
        <ele>1735.8</ele>
        <time>2018-07-01T06:35:22Z</time>
      </trkpt>
      <trkpt lat="45.34324" lon="6.69802">
        <ele>1735.9</ele>
        <time>2018-07-01T06:35:25Z</time>
      </trkpt>
      <trkpt lat="45.34321" lon="6.69801">
        <ele>1735.9</ele>
        <time>2018-07-01T06:35:28Z</time>
      </trkpt>
      <trkpt lat="45.34319" lon="6.698">
        <ele>1736</ele>
        <time>2018-07-01T06:35:30Z</time>
      </trkpt>
      <trkpt lat="45.34318" lon="6.69796">
        <ele>1736.1</ele>
        <time>2018-07-01T06:35:32Z</time>
      </trkpt>
      <trkpt lat="45.34315" lon="6.69792">
        <ele>1736.2</ele>
        <time>2018-07-01T06:35:35Z</time>
      </trkpt>
      <trkpt lat="45.34313" lon="6.69787">
        <ele>1736.3</ele>
        <time>2018-07-01T06:35:38Z</time>
      </trkpt>
      <trkpt lat="45.34311" lon="6.69784">
        <ele>1736.5</ele>
        <time>2018-07-01T06:35:40Z</time>
      </trkpt>
      <trkpt lat="45.34308" lon="6.69781">
        <ele>1736.6</ele>
        <time>2018-07-01T06:35:43Z</time>
      </trkpt>
      <trkpt lat="45.34306" lon="6.69777">
        <ele>1736.8</ele>
        <time>2018-07-01T06:35:46Z</time>
      </trkpt>
      <trkpt lat="45.34304" lon="6.69774">
        <ele>1737</ele>
        <time>2018-07-01T06:35:48Z</time>
      </trkpt>
      <trkpt lat="45.34303" lon="6.69768">
        <ele>1737.2</ele>
        <time>2018-07-01T06:35:51Z</time>
      </trkpt>
      <trkpt lat="45.34303" lon="6.69764">
        <ele>1737.4</ele>
        <time>2018-07-01T06:35:53Z</time>
      </trkpt>
      <trkpt lat="45.34303" lon="6.6976">
        <ele>1737.6</ele>
        <time>2018-07-01T06:35:55Z</time>
      </trkpt>
      <trkpt lat="45.34302" lon="6.69755">
        <ele>1737.9</ele>
        <time>2018-07-01T06:35:58Z</time>
      </trkpt>
      <trkpt lat="45.34299" lon="6.69752">
        <ele>1738.1</ele>
        <time>2018-07-01T06:36:02Z</time>
      </trkpt>
      <trkpt lat="45.34298" lon="6.69748">
        <ele>1738.4</ele>
        <time>2018-07-01T06:36:04Z</time>
      </trkpt>
      <trkpt lat="45.34296" lon="6.69745">
        <ele>1738.7</ele>
        <time>2018-07-01T06:36:06Z</time>
      </trkpt>
      <trkpt lat="45.34293" lon="6.69742">
        <ele>1739</ele>
        <time>2018-07-01T06:36:08Z</time>
      </trkpt>
      <trkpt lat="45.34294" lon="6.69738">
        <ele>1739.3</ele>
        <time>2018-07-01T06:36:12Z</time>
      </trkpt>
      <trkpt lat="45.34293" lon="6.69733">
        <ele>1739.6</ele>
        <time>2018-07-01T06:36:15Z</time>
      </trkpt>
      <trkpt lat="45.34291" lon="6.6973">
        <ele>1739.8</ele>
        <time>2018-07-01T06:36:19Z</time>
      </trkpt>
      <trkpt lat="45.34289" lon="6.69724">
        <ele>1740.2</ele>
        <time>2018-07-01T06:36:23Z</time>
      </trkpt>
      <trkpt lat="45.34287" lon="6.6972">
        <ele>1740.5</ele>
        <time>2018-07-01T06:36:25Z</time>
      </trkpt>
      <trkpt lat="45.34287" lon="6.69716">
        <ele>1740.7</ele>
        <time>2018-07-01T06:36:27Z</time>
      </trkpt>
      <trkpt lat="45.34287" lon="6.69711">
        <ele>1741</ele>
        <time>2018-07-01T06:36:29Z</time>
      </trkpt>
      <trkpt lat="45.34286" lon="6.69707">
        <ele>1741.2</ele>
        <time>2018-07-01T06:36:31Z</time>
      </trkpt>
      <trkpt lat="45.34285" lon="6.69702">
        <ele>1741.5</ele>
        <time>2018-07-01T06:36:33Z</time>
      </trkpt>
      <trkpt lat="45.34284" lon="6.69698">
        <ele>1741.7</ele>
        <time>2018-07-01T06:36:35Z</time>
      </trkpt>
      <trkpt lat="45.34282" lon="6.69694">
        <ele>1741.9</ele>
        <time>2018-07-01T06:36:37Z</time>
      </trkpt>
      <trkpt lat="45.34282" lon="6.6969">
        <ele>1742.1</ele>
        <time>2018-07-01T06:36:39Z</time>
      </trkpt>
      <trkpt lat="45.34279" lon="6.69686">
        <ele>1742.4</ele>
        <time>2018-07-01T06:36:42Z</time>
      </trkpt>
      <trkpt lat="45.34277" lon="6.69682">
        <ele>1742.6</ele>
        <time>2018-07-01T06:36:45Z</time>
      </trkpt>
      <trkpt lat="45.34276" lon="6.69677">
        <ele>1742.9</ele>
        <time>2018-07-01T06:36:47Z</time>
      </trkpt>
      <trkpt lat="45.34274" lon="6.69671">
        <ele>1743.1</ele>
        <time>2018-07-01T06:36:49Z</time>
      </trkpt>
      <trkpt lat="45.34274" lon="6.69667">
        <ele>1743.3</ele>
        <time>2018-07-01T06:36:50Z</time>
      </trkpt>
      <trkpt lat="45.34272" lon="6.69662">
        <ele>1743.5</ele>
        <time>2018-07-01T06:36:53Z</time>
      </trkpt>
      <trkpt lat="45.3427" lon="6.69659">
        <ele>1743.7</ele>
        <time>2018-07-01T06:36:55Z</time>
      </trkpt>
      <trkpt lat="45.34267" lon="6.69657">
        <ele>1743.9</ele>
        <time>2018-07-01T06:36:57Z</time>
      </trkpt>
      <trkpt lat="45.34265" lon="6.69655">
        <ele>1744</ele>
        <time>2018-07-01T06:36:59Z</time>
      </trkpt>
      <trkpt lat="45.34261" lon="6.69653">
        <ele>1744.2</ele>
        <time>2018-07-01T06:37:02Z</time>
      </trkpt>
      <trkpt lat="45.34259" lon="6.6965">
        <ele>1744.3</ele>
        <time>2018-07-01T06:37:04Z</time>
      </trkpt>
      <trkpt lat="45.34257" lon="6.69647">
        <ele>1744.4</ele>
        <time>2018-07-01T06:37:06Z</time>
      </trkpt>
      <trkpt lat="45.34255" lon="6.69643">
        <ele>1744.6</ele>
        <time>2018-07-01T06:37:08Z</time>
      </trkpt>
      <trkpt lat="45.34253" lon="6.69641">
        <ele>1744.7</ele>
        <time>2018-07-01T06:37:10Z</time>
      </trkpt>
      <trkpt lat="45.3425" lon="6.6964">
        <ele>1744.8</ele>
        <time>2018-07-01T06:37:12Z</time>
      </trkpt>
      <trkpt lat="45.34245" lon="6.69639">
        <ele>1745</ele>
        <time>2018-07-01T06:37:15Z</time>
      </trkpt>
      <trkpt lat="45.34243" lon="6.69638">
        <ele>1745.1</ele>
        <time>2018-07-01T06:37:17Z</time>
      </trkpt>
      <trkpt lat="45.3424" lon="6.69638">
        <ele>1745.3</ele>
        <time>2018-07-01T06:37:19Z</time>
      </trkpt>
      <trkpt lat="45.34237" lon="6.69638">
        <ele>1745.5</ele>
        <time>2018-07-01T06:37:21Z</time>
      </trkpt>
      <trkpt lat="45.34234" lon="6.69638">
        <ele>1745.7</ele>
        <time>2018-07-01T06:37:23Z</time>
      </trkpt>
      <trkpt lat="45.34231" lon="6.69638">
        <ele>1745.8</ele>
        <time>2018-07-01T06:37:25Z</time>
      </trkpt>
      <trkpt lat="45.34228" lon="6.69638">
        <ele>1746</ele>
        <time>2018-07-01T06:37:27Z</time>
      </trkpt>
      <trkpt lat="45.34225" lon="6.69638">
        <ele>1746.3</ele>
        <time>2018-07-01T06:37:29Z</time>
      </trkpt>
      <trkpt lat="45.34222" lon="6.69638">
        <ele>1746.5</ele>
        <time>2018-07-01T06:37:31Z</time>
      </trkpt>
      <trkpt lat="45.34219" lon="6.69638">
        <ele>1746.7</ele>
        <time>2018-07-01T06:37:33Z</time>
      </trkpt>
      <trkpt lat="45.34215" lon="6.69638">
        <ele>1747</ele>
        <time>2018-07-01T06:37:35Z</time>
      </trkpt>
      <trkpt lat="45.34212" lon="6.69637">
        <ele>1747.2</ele>
        <time>2018-07-01T06:37:37Z</time>
      </trkpt>
      <trkpt lat="45.34209" lon="6.69635">
        <ele>1747.4</ele>
        <time>2018-07-01T06:37:39Z</time>
      </trkpt>
      <trkpt lat="45.34207" lon="6.69634">
        <ele>1747.6</ele>
        <time>2018-07-01T06:37:41Z</time>
      </trkpt>
      <trkpt lat="45.34204" lon="6.69631">
        <ele>1747.9</ele>
        <time>2018-07-01T06:37:43Z</time>
      </trkpt>
      <trkpt lat="45.34202" lon="6.6963">
        <ele>1748</ele>
        <time>2018-07-01T06:37:45Z</time>
      </trkpt>
      <trkpt lat="45.34198" lon="6.69629">
        <ele>1748.3</ele>
        <time>2018-07-01T06:37:48Z</time>
      </trkpt>
      <trkpt lat="45.34194" lon="6.69631">
        <ele>1748.6</ele>
        <time>2018-07-01T06:37:50Z</time>
      </trkpt>
      <trkpt lat="45.34191" lon="6.69631">
        <ele>1748.8</ele>
        <time>2018-07-01T06:37:52Z</time>
      </trkpt>
      <trkpt lat="45.34189" lon="6.69629">
        <ele>1749</ele>
        <time>2018-07-01T06:37:54Z</time>
      </trkpt>
      <trkpt lat="45.34187" lon="6.69626">
        <ele>1749.2</ele>
        <time>2018-07-01T06:37:56Z</time>
      </trkpt>
      <trkpt lat="45.34184" lon="6.69624">
        <ele>1749.5</ele>
        <time>2018-07-01T06:37:59Z</time>
      </trkpt>
      <trkpt lat="45.34181" lon="6.69624">
        <ele>1749.7</ele>
        <time>2018-07-01T06:38:01Z</time>
      </trkpt>
      <trkpt lat="45.34178" lon="6.69622">
        <ele>1749.8</ele>
        <time>2018-07-01T06:38:03Z</time>
      </trkpt>
      <trkpt lat="45.34176" lon="6.6962">
        <ele>1750</ele>
        <time>2018-07-01T06:38:05Z</time>
      </trkpt>
      <trkpt lat="45.34172" lon="6.69618">
        <ele>1750.2</ele>
        <time>2018-07-01T06:38:08Z</time>
      </trkpt>
      <trkpt lat="45.34169" lon="6.69615">
        <ele>1750.5</ele>
        <time>2018-07-01T06:38:11Z</time>
      </trkpt>
      <trkpt lat="45.34167" lon="6.69612">
        <ele>1750.6</ele>
        <time>2018-07-01T06:38:13Z</time>
      </trkpt>
      <trkpt lat="45.34166" lon="6.69608">
        <ele>1750.7</ele>
        <time>2018-07-01T06:38:15Z</time>
      </trkpt>
      <trkpt lat="45.34164" lon="6.69605">
        <ele>1750.8</ele>
        <time>2018-07-01T06:38:17Z</time>
      </trkpt>
      <trkpt lat="45.34162" lon="6.69601">
        <ele>1751</ele>
        <time>2018-07-01T06:38:20Z</time>
      </trkpt>
      <trkpt lat="45.3416" lon="6.69597">
        <ele>1751.1</ele>
        <time>2018-07-01T06:38:22Z</time>
      </trkpt>
      <trkpt lat="45.34158" lon="6.69595">
        <ele>1751.2</ele>
        <time>2018-07-01T06:38:24Z</time>
      </trkpt>
      <trkpt lat="45.34154" lon="6.69593">
        <ele>1751.3</ele>
        <time>2018-07-01T06:38:27Z</time>
      </trkpt>
      <trkpt lat="45.34151" lon="6.69591">
        <ele>1751.4</ele>
        <time>2018-07-01T06:38:30Z</time>
      </trkpt>
      <trkpt lat="45.34147" lon="6.69589">
        <ele>1751.6</ele>
        <time>2018-07-01T06:38:33Z</time>
      </trkpt>
      <trkpt lat="45.34145" lon="6.69588">
        <ele>1751.7</ele>
        <time>2018-07-01T06:38:35Z</time>
      </trkpt>
      <trkpt lat="45.34141" lon="6.69587">
        <ele>1751.8</ele>
        <time>2018-07-01T06:38:37Z</time>
      </trkpt>
      <trkpt lat="45.34139" lon="6.69584">
        <ele>1751.9</ele>
        <time>2018-07-01T06:38:39Z</time>
      </trkpt>
      <trkpt lat="45.34136" lon="6.69583">
        <ele>1752</ele>
        <time>2018-07-01T06:38:41Z</time>
      </trkpt>
      <trkpt lat="45.34132" lon="6.69583">
        <ele>1752.1</ele>
        <time>2018-07-01T06:38:43Z</time>
      </trkpt>
      <trkpt lat="45.34129" lon="6.69581">
        <ele>1752.3</ele>
        <time>2018-07-01T06:38:45Z</time>
      </trkpt>
      <trkpt lat="45.34126" lon="6.6958">
        <ele>1752.5</ele>
        <time>2018-07-01T06:38:47Z</time>
      </trkpt>
      <trkpt lat="45.34123" lon="6.69577">
        <ele>1752.7</ele>
        <time>2018-07-01T06:38:50Z</time>
      </trkpt>
      <trkpt lat="45.34119" lon="6.69576">
        <ele>1752.9</ele>
        <time>2018-07-01T06:38:53Z</time>
      </trkpt>
      <trkpt lat="45.34117" lon="6.69576">
        <ele>1753</ele>
        <time>2018-07-01T06:38:55Z</time>
      </trkpt>
      <trkpt lat="45.34112" lon="6.69575">
        <ele>1753.3</ele>
        <time>2018-07-01T06:38:58Z</time>
      </trkpt>
      <trkpt lat="45.3411" lon="6.69574">
        <ele>1753.4</ele>
        <time>2018-07-01T06:39:00Z</time>
      </trkpt>
      <trkpt lat="45.34107" lon="6.69574">
        <ele>1753.6</ele>
        <time>2018-07-01T06:39:02Z</time>
      </trkpt>
      <trkpt lat="45.34104" lon="6.69572">
        <ele>1753.8</ele>
        <time>2018-07-01T06:39:04Z</time>
      </trkpt>
      <trkpt lat="45.341" lon="6.69572">
        <ele>1754</ele>
        <time>2018-07-01T06:39:07Z</time>
      </trkpt>
      <trkpt lat="45.34097" lon="6.69573">
        <ele>1754.2</ele>
        <time>2018-07-01T06:39:09Z</time>
      </trkpt>
      <trkpt lat="45.34094" lon="6.69573">
        <ele>1754.4</ele>
        <time>2018-07-01T06:39:12Z</time>
      </trkpt>
      <trkpt lat="45.3409" lon="6.69573">
        <ele>1754.6</ele>
        <time>2018-07-01T06:39:15Z</time>
      </trkpt>
      <trkpt lat="45.34086" lon="6.69572">
        <ele>1754.8</ele>
        <time>2018-07-01T06:39:18Z</time>
      </trkpt>
      <trkpt lat="45.34082" lon="6.69572">
        <ele>1754.9</ele>
        <time>2018-07-01T06:39:21Z</time>
      </trkpt>
      <trkpt lat="45.34079" lon="6.69572">
        <ele>1755.1</ele>
        <time>2018-07-01T06:39:23Z</time>
      </trkpt>
      <trkpt lat="45.34076" lon="6.69573">
        <ele>1755.2</ele>
        <time>2018-07-01T06:39:26Z</time>
      </trkpt>
      <trkpt lat="45.34072" lon="6.69575">
        <ele>1755.5</ele>
        <time>2018-07-01T06:39:29Z</time>
      </trkpt>
      <trkpt lat="45.34069" lon="6.69577">
        <ele>1755.7</ele>
        <time>2018-07-01T06:39:32Z</time>
      </trkpt>
      <trkpt lat="45.34065" lon="6.69579">
        <ele>1756</ele>
        <time>2018-07-01T06:39:34Z</time>
      </trkpt>
      <trkpt lat="45.34061" lon="6.69577">
        <ele>1756.2</ele>
        <time>2018-07-01T06:39:37Z</time>
      </trkpt>
      <trkpt lat="45.34057" lon="6.69578">
        <ele>1756.5</ele>
        <time>2018-07-01T06:39:40Z</time>
      </trkpt>
      <trkpt lat="45.34054" lon="6.69577">
        <ele>1756.8</ele>
        <time>2018-07-01T06:39:43Z</time>
      </trkpt>
      <trkpt lat="45.3405" lon="6.69576">
        <ele>1757.1</ele>
        <time>2018-07-01T06:39:46Z</time>
      </trkpt>
      <trkpt lat="45.34047" lon="6.69577">
        <ele>1757.3</ele>
        <time>2018-07-01T06:39:48Z</time>
      </trkpt>
      <trkpt lat="45.34044" lon="6.69576">
        <ele>1757.6</ele>
        <time>2018-07-01T06:39:50Z</time>
      </trkpt>
      <trkpt lat="45.3404" lon="6.69575">
        <ele>1757.9</ele>
        <time>2018-07-01T06:39:53Z</time>
      </trkpt>
      <trkpt lat="45.34038" lon="6.69571">
        <ele>1758.2</ele>
        <time>2018-07-01T06:39:55Z</time>
      </trkpt>
      <trkpt lat="45.34035" lon="6.6957">
        <ele>1758.4</ele>
        <time>2018-07-01T06:39:57Z</time>
      </trkpt>
      <trkpt lat="45.34032" lon="6.69569">
        <ele>1758.6</ele>
        <time>2018-07-01T06:39:59Z</time>
      </trkpt>
      <trkpt lat="45.3403" lon="6.69566">
        <ele>1758.9</ele>
        <time>2018-07-01T06:40:01Z</time>
      </trkpt>
      <trkpt lat="45.34025" lon="6.69563">
        <ele>1759.4</ele>
        <time>2018-07-01T06:40:04Z</time>
      </trkpt>
      <trkpt lat="45.34022" lon="6.69558">
        <ele>1759.8</ele>
        <time>2018-07-01T06:40:05Z</time>
      </trkpt>
      <trkpt lat="45.34023" lon="6.69554">
        <ele>1760.1</ele>
        <time>2018-07-01T06:40:06Z</time>
      </trkpt>
      <trkpt lat="45.3402" lon="6.69557">
        <ele>1760.4</ele>
        <time>2018-07-01T06:40:07Z</time>
      </trkpt>
      <trkpt lat="45.34017" lon="6.69555">
        <ele>1760.8</ele>
        <time>2018-07-01T06:40:10Z</time>
      </trkpt>
      <trkpt lat="45.34014" lon="6.69553">
        <ele>1761.1</ele>
        <time>2018-07-01T06:40:13Z</time>
      </trkpt>
      <trkpt lat="45.3401" lon="6.69553">
        <ele>1761.4</ele>
        <time>2018-07-01T06:40:16Z</time>
      </trkpt>
      <trkpt lat="45.34006" lon="6.69553">
        <ele>1761.8</ele>
        <time>2018-07-01T06:40:19Z</time>
      </trkpt>
      <trkpt lat="45.34003" lon="6.69553">
        <ele>1762.1</ele>
        <time>2018-07-01T06:40:21Z</time>
      </trkpt>
      <trkpt lat="45.33999" lon="6.69551">
        <ele>1762.5</ele>
        <time>2018-07-01T06:40:24Z</time>
      </trkpt>
      <trkpt lat="45.33996" lon="6.6955">
        <ele>1762.8</ele>
        <time>2018-07-01T06:40:27Z</time>
      </trkpt>
      <trkpt lat="45.33994" lon="6.69548">
        <ele>1763.1</ele>
        <time>2018-07-01T06:40:30Z</time>
      </trkpt>
      <trkpt lat="45.33991" lon="6.69546">
        <ele>1763.4</ele>
        <time>2018-07-01T06:40:33Z</time>
      </trkpt>
      <trkpt lat="45.33987" lon="6.69543">
        <ele>1763.7</ele>
        <time>2018-07-01T06:40:37Z</time>
      </trkpt>
      <trkpt lat="45.33984" lon="6.69541">
        <ele>1764</ele>
        <time>2018-07-01T06:40:40Z</time>
      </trkpt>
      <trkpt lat="45.33981" lon="6.69537">
        <ele>1764.2</ele>
        <time>2018-07-01T06:40:43Z</time>
      </trkpt>
      <trkpt lat="45.33978" lon="6.69533">
        <ele>1764.4</ele>
        <time>2018-07-01T06:40:46Z</time>
      </trkpt>
      <trkpt lat="45.33974" lon="6.69531">
        <ele>1764.6</ele>
        <time>2018-07-01T06:40:49Z</time>
      </trkpt>
      <trkpt lat="45.3397" lon="6.6953">
        <ele>1764.7</ele>
        <time>2018-07-01T06:40:51Z</time>
      </trkpt>
      <trkpt lat="45.33967" lon="6.6953">
        <ele>1764.8</ele>
        <time>2018-07-01T06:40:53Z</time>
      </trkpt>
      <trkpt lat="45.33964" lon="6.69529">
        <ele>1765</ele>
        <time>2018-07-01T06:40:56Z</time>
      </trkpt>
      <trkpt lat="45.33962" lon="6.6953">
        <ele>1765.2</ele>
        <time>2018-07-01T06:40:58Z</time>
      </trkpt>
      <trkpt lat="45.33958" lon="6.69529">
        <ele>1765.5</ele>
        <time>2018-07-01T06:41:01Z</time>
      </trkpt>
      <trkpt lat="45.33956" lon="6.69526">
        <ele>1765.7</ele>
        <time>2018-07-01T06:41:04Z</time>
      </trkpt>
      <trkpt lat="45.33952" lon="6.69529">
        <ele>1766.1</ele>
        <time>2018-07-01T06:41:07Z</time>
      </trkpt>
      <trkpt lat="45.33949" lon="6.69527">
        <ele>1766.3</ele>
        <time>2018-07-01T06:41:09Z</time>
      </trkpt>
      <trkpt lat="45.33946" lon="6.69525">
        <ele>1766.6</ele>
        <time>2018-07-01T06:41:11Z</time>
      </trkpt>
      <trkpt lat="45.33943" lon="6.69522">
        <ele>1766.9</ele>
        <time>2018-07-01T06:41:14Z</time>
      </trkpt>
      <trkpt lat="45.3394" lon="6.69519">
        <ele>1767.1</ele>
        <time>2018-07-01T06:41:17Z</time>
      </trkpt>
      <trkpt lat="45.33937" lon="6.69517">
        <ele>1767.4</ele>
        <time>2018-07-01T06:41:19Z</time>
      </trkpt>
      <trkpt lat="45.33935" lon="6.69514">
        <ele>1767.6</ele>
        <time>2018-07-01T06:41:21Z</time>
      </trkpt>
      <trkpt lat="45.33932" lon="6.69511">
        <ele>1767.8</ele>
        <time>2018-07-01T06:41:24Z</time>
      </trkpt>
      <trkpt lat="45.33928" lon="6.69509">
        <ele>1768.2</ele>
        <time>2018-07-01T06:41:27Z</time>
      </trkpt>
      <trkpt lat="45.33924" lon="6.69509">
        <ele>1768.6</ele>
        <time>2018-07-01T06:41:30Z</time>
      </trkpt>
      <trkpt lat="45.33922" lon="6.69508">
        <ele>1768.9</ele>
        <time>2018-07-01T06:41:32Z</time>
      </trkpt>
      <trkpt lat="45.33919" lon="6.69507">
        <ele>1769.2</ele>
        <time>2018-07-01T06:41:35Z</time>
      </trkpt>
      <trkpt lat="45.33916" lon="6.69506">
        <ele>1769.6</ele>
        <time>2018-07-01T06:41:38Z</time>
      </trkpt>
      <trkpt lat="45.33913" lon="6.69505">
        <ele>1769.9</ele>
        <time>2018-07-01T06:41:40Z</time>
      </trkpt>
      <trkpt lat="45.3391" lon="6.69504">
        <ele>1770.3</ele>
        <time>2018-07-01T06:41:43Z</time>
      </trkpt>
      <trkpt lat="45.33907" lon="6.69504">
        <ele>1770.8</ele>
        <time>2018-07-01T06:41:46Z</time>
      </trkpt>
      <trkpt lat="45.33904" lon="6.69504">
        <ele>1771</ele>
        <time>2018-07-01T06:41:48Z</time>
      </trkpt>
      <trkpt lat="45.339" lon="6.69502">
        <ele>1771</ele>
        <time>2018-07-01T06:41:51Z</time>
      </trkpt>
      <trkpt lat="45.33897" lon="6.695">
        <ele>1771</ele>
        <time>2018-07-01T06:41:53Z</time>
      </trkpt>
      <trkpt lat="45.33895" lon="6.69497">
        <ele>1771</ele>
        <time>2018-07-01T06:41:55Z</time>
      </trkpt>
      <trkpt lat="45.33891" lon="6.69494">
        <ele>1771</ele>
        <time>2018-07-01T06:41:58Z</time>
      </trkpt>
      <trkpt lat="45.33889" lon="6.69492">
        <ele>1771</ele>
        <time>2018-07-01T06:42:00Z</time>
      </trkpt>
      <trkpt lat="45.33886" lon="6.6949">
        <ele>1771</ele>
        <time>2018-07-01T06:42:03Z</time>
      </trkpt>
      <trkpt lat="45.33883" lon="6.69489">
        <ele>1771</ele>
        <time>2018-07-01T06:42:05Z</time>
      </trkpt>
      <trkpt lat="45.33879" lon="6.69488">
        <ele>1771</ele>
        <time>2018-07-01T06:42:07Z</time>
      </trkpt>
      <trkpt lat="45.33877" lon="6.69486">
        <ele>1771</ele>
        <time>2018-07-01T06:42:09Z</time>
      </trkpt>
      <trkpt lat="45.33875" lon="6.69483">
        <ele>1771</ele>
        <time>2018-07-01T06:42:11Z</time>
      </trkpt>
      <trkpt lat="45.33873" lon="6.69481">
        <ele>1771</ele>
        <time>2018-07-01T06:42:13Z</time>
      </trkpt>
      <trkpt lat="45.33869" lon="6.6948">
        <ele>1771</ele>
        <time>2018-07-01T06:42:16Z</time>
      </trkpt>
      <trkpt lat="45.33866" lon="6.69478">
        <ele>1771.1</ele>
        <time>2018-07-01T06:42:18Z</time>
      </trkpt>
      <trkpt lat="45.33863" lon="6.69477">
        <ele>1771.1</ele>
        <time>2018-07-01T06:42:20Z</time>
      </trkpt>
      <trkpt lat="45.3386" lon="6.69476">
        <ele>1771.1</ele>
        <time>2018-07-01T06:42:22Z</time>
      </trkpt>
      <trkpt lat="45.33856" lon="6.69476">
        <ele>1771.1</ele>
        <time>2018-07-01T06:42:25Z</time>
      </trkpt>
      <trkpt lat="45.33853" lon="6.69475">
        <ele>1771.1</ele>
        <time>2018-07-01T06:42:27Z</time>
      </trkpt>
      <trkpt lat="45.3385" lon="6.69476">
        <ele>1771.1</ele>
        <time>2018-07-01T06:42:30Z</time>
      </trkpt>
      <trkpt lat="45.33847" lon="6.69475">
        <ele>1771.1</ele>
        <time>2018-07-01T06:42:32Z</time>
      </trkpt>
      <trkpt lat="45.33844" lon="6.69473">
        <ele>1771.1</ele>
        <time>2018-07-01T06:42:35Z</time>
      </trkpt>
      <trkpt lat="45.33841" lon="6.69471">
        <ele>1771.1</ele>
        <time>2018-07-01T06:42:37Z</time>
      </trkpt>
      <trkpt lat="45.33839" lon="6.69468">
        <ele>1771.1</ele>
        <time>2018-07-01T06:42:41Z</time>
      </trkpt>
      <trkpt lat="45.33836" lon="6.69467">
        <ele>1771.1</ele>
        <time>2018-07-01T06:42:45Z</time>
      </trkpt>
      <trkpt lat="45.33828" lon="6.69473">
        <ele>1771</ele>
        <time>2018-07-01T06:43:13Z</time>
      </trkpt>
      <trkpt lat="45.3383" lon="6.69473">
        <ele>1771</ele>
        <time>2018-07-01T06:43:57Z</time>
      </trkpt>
      <trkpt lat="45.33831" lon="6.69468">
        <ele>1771.1</ele>
        <time>2018-07-01T06:44:03Z</time>
      </trkpt>
      <trkpt lat="45.33833" lon="6.69465">
        <ele>1771.2</ele>
        <time>2018-07-01T06:44:08Z</time>
      </trkpt>
      <trkpt lat="45.33834" lon="6.69459">
        <ele>1771.4</ele>
        <time>2018-07-01T06:44:11Z</time>
      </trkpt>
      <trkpt lat="45.33832" lon="6.69455">
        <ele>1771.6</ele>
        <time>2018-07-01T06:44:14Z</time>
      </trkpt>
      <trkpt lat="45.33831" lon="6.69451">
        <ele>1771.8</ele>
        <time>2018-07-01T06:44:17Z</time>
      </trkpt>
      <trkpt lat="45.3383" lon="6.69445">
        <ele>1772</ele>
        <time>2018-07-01T06:44:19Z</time>
      </trkpt>
      <trkpt lat="45.33828" lon="6.69442">
        <ele>1772.2</ele>
        <time>2018-07-01T06:44:22Z</time>
      </trkpt>
      <trkpt lat="45.33826" lon="6.6944">
        <ele>1772.3</ele>
        <time>2018-07-01T06:44:25Z</time>
      </trkpt>
      <trkpt lat="45.33823" lon="6.69436">
        <ele>1772.6</ele>
        <time>2018-07-01T06:44:28Z</time>
      </trkpt>
      <trkpt lat="45.33821" lon="6.69433">
        <ele>1772.8</ele>
        <time>2018-07-01T06:44:31Z</time>
      </trkpt>
      <trkpt lat="45.33818" lon="6.69432">
        <ele>1773</ele>
        <time>2018-07-01T06:44:34Z</time>
      </trkpt>
      <trkpt lat="45.33816" lon="6.69428">
        <ele>1773.2</ele>
        <time>2018-07-01T06:44:37Z</time>
      </trkpt>
      <trkpt lat="45.33813" lon="6.69425">
        <ele>1773.3</ele>
        <time>2018-07-01T06:44:40Z</time>
      </trkpt>
      <trkpt lat="45.3381" lon="6.69423">
        <ele>1773.5</ele>
        <time>2018-07-01T06:44:44Z</time>
      </trkpt>
      <trkpt lat="45.33808" lon="6.69418">
        <ele>1773.7</ele>
        <time>2018-07-01T06:44:46Z</time>
      </trkpt>
      <trkpt lat="45.33805" lon="6.69415">
        <ele>1773.9</ele>
        <time>2018-07-01T06:44:49Z</time>
      </trkpt>
      <trkpt lat="45.33801" lon="6.69415">
        <ele>1774.3</ele>
        <time>2018-07-01T06:44:52Z</time>
      </trkpt>
      <trkpt lat="45.33798" lon="6.69413">
        <ele>1774.6</ele>
        <time>2018-07-01T06:44:56Z</time>
      </trkpt>
      <trkpt lat="45.33795" lon="6.69412">
        <ele>1774.9</ele>
        <time>2018-07-01T06:44:59Z</time>
      </trkpt>
      <trkpt lat="45.33792" lon="6.69409">
        <ele>1775.1</ele>
        <time>2018-07-01T06:45:02Z</time>
      </trkpt>
      <trkpt lat="45.33788" lon="6.69406">
        <ele>1775.4</ele>
        <time>2018-07-01T06:45:05Z</time>
      </trkpt>
      <trkpt lat="45.33785" lon="6.69407">
        <ele>1775.7</ele>
        <time>2018-07-01T06:45:08Z</time>
      </trkpt>
      <trkpt lat="45.33782" lon="6.69404">
        <ele>1776</ele>
        <time>2018-07-01T06:45:11Z</time>
      </trkpt>
      <trkpt lat="45.3378" lon="6.694">
        <ele>1776.2</ele>
        <time>2018-07-01T06:45:14Z</time>
      </trkpt>
      <trkpt lat="45.33778" lon="6.69397">
        <ele>1776.4</ele>
        <time>2018-07-01T06:45:16Z</time>
      </trkpt>
      <trkpt lat="45.33776" lon="6.69394">
        <ele>1776.5</ele>
        <time>2018-07-01T06:45:18Z</time>
      </trkpt>
      <trkpt lat="45.33775" lon="6.6939">
        <ele>1776.7</ele>
        <time>2018-07-01T06:45:20Z</time>
      </trkpt>
      <trkpt lat="45.33773" lon="6.69387">
        <ele>1777</ele>
        <time>2018-07-01T06:45:22Z</time>
      </trkpt>
      <trkpt lat="45.3377" lon="6.69383">
        <ele>1777.3</ele>
        <time>2018-07-01T06:45:25Z</time>
      </trkpt>
      <trkpt lat="45.33767" lon="6.69381">
        <ele>1777.7</ele>
        <time>2018-07-01T06:45:28Z</time>
      </trkpt>
      <trkpt lat="45.33764" lon="6.6938">
        <ele>1777.8</ele>
        <time>2018-07-01T06:45:30Z</time>
      </trkpt>
      <trkpt lat="45.33761" lon="6.69379">
        <ele>1778</ele>
        <time>2018-07-01T06:45:32Z</time>
      </trkpt>
      <trkpt lat="45.33758" lon="6.69377">
        <ele>1778.2</ele>
        <time>2018-07-01T06:45:35Z</time>
      </trkpt>
      <trkpt lat="45.33754" lon="6.69375">
        <ele>1778.4</ele>
        <time>2018-07-01T06:45:38Z</time>
      </trkpt>
      <trkpt lat="45.33751" lon="6.69372">
        <ele>1778.7</ele>
        <time>2018-07-01T06:45:41Z</time>
      </trkpt>
      <trkpt lat="45.33748" lon="6.69368">
        <ele>1778.9</ele>
        <time>2018-07-01T06:45:44Z</time>
      </trkpt>
      <trkpt lat="45.33746" lon="6.69367">
        <ele>1779.2</ele>
        <time>2018-07-01T06:45:46Z</time>
      </trkpt>
      <trkpt lat="45.33743" lon="6.69365">
        <ele>1779.4</ele>
        <time>2018-07-01T06:45:49Z</time>
      </trkpt>
      <trkpt lat="45.33739" lon="6.69364">
        <ele>1779.5</ele>
        <time>2018-07-01T06:45:52Z</time>
      </trkpt>
      <trkpt lat="45.33736" lon="6.69363">
        <ele>1779.5</ele>
        <time>2018-07-01T06:45:55Z</time>
      </trkpt>
      <trkpt lat="45.33732" lon="6.69362">
        <ele>1779.5</ele>
        <time>2018-07-01T06:45:58Z</time>
      </trkpt>
      <trkpt lat="45.33729" lon="6.69361">
        <ele>1779.4</ele>
        <time>2018-07-01T06:46:00Z</time>
      </trkpt>
      <trkpt lat="45.33726" lon="6.69357">
        <ele>1779.3</ele>
        <time>2018-07-01T06:46:03Z</time>
      </trkpt>
      <trkpt lat="45.33723" lon="6.69357">
        <ele>1779.1</ele>
        <time>2018-07-01T06:46:06Z</time>
      </trkpt>
      <trkpt lat="45.3372" lon="6.69355">
        <ele>1778.9</ele>
        <time>2018-07-01T06:46:09Z</time>
      </trkpt>
      <trkpt lat="45.33718" lon="6.6935">
        <ele>1778.6</ele>
        <time>2018-07-01T06:46:11Z</time>
      </trkpt>
      <trkpt lat="45.33717" lon="6.69347">
        <ele>1778.3</ele>
        <time>2018-07-01T06:46:13Z</time>
      </trkpt>
      <trkpt lat="45.33714" lon="6.69344">
        <ele>1777.9</ele>
        <time>2018-07-01T06:46:16Z</time>
      </trkpt>
      <trkpt lat="45.33712" lon="6.6934">
        <ele>1777.6</ele>
        <time>2018-07-01T06:46:18Z</time>
      </trkpt>
      <trkpt lat="45.3371" lon="6.69337">
        <ele>1777.2</ele>
        <time>2018-07-01T06:46:20Z</time>
      </trkpt>
      <trkpt lat="45.33708" lon="6.69334">
        <ele>1776.9</ele>
        <time>2018-07-01T06:46:22Z</time>
      </trkpt>
      <trkpt lat="45.33706" lon="6.6933">
        <ele>1776.7</ele>
        <time>2018-07-01T06:46:24Z</time>
      </trkpt>
      <trkpt lat="45.33705" lon="6.69323">
        <ele>1776.5</ele>
        <time>2018-07-01T06:46:26Z</time>
      </trkpt>
      <trkpt lat="45.33704" lon="6.69319">
        <ele>1776.3</ele>
        <time>2018-07-01T06:46:28Z</time>
      </trkpt>
      <trkpt lat="45.33703" lon="6.69315">
        <ele>1776.1</ele>
        <time>2018-07-01T06:46:30Z</time>
      </trkpt>
      <trkpt lat="45.33702" lon="6.69311">
        <ele>1775.9</ele>
        <time>2018-07-01T06:46:32Z</time>
      </trkpt>
      <trkpt lat="45.337" lon="6.69308">
        <ele>1775.8</ele>
        <time>2018-07-01T06:46:35Z</time>
      </trkpt>
      <trkpt lat="45.33699" lon="6.69303">
        <ele>1775.7</ele>
        <time>2018-07-01T06:46:38Z</time>
      </trkpt>
      <trkpt lat="45.33698" lon="6.69298">
        <ele>1775.5</ele>
        <time>2018-07-01T06:46:41Z</time>
      </trkpt>
      <trkpt lat="45.33697" lon="6.69295">
        <ele>1775.5</ele>
        <time>2018-07-01T06:46:43Z</time>
      </trkpt>
      <trkpt lat="45.33694" lon="6.69292">
        <ele>1775.5</ele>
        <time>2018-07-01T06:46:45Z</time>
      </trkpt>
      <trkpt lat="45.33691" lon="6.69291">
        <ele>1775.4</ele>
        <time>2018-07-01T06:46:47Z</time>
      </trkpt>
      <trkpt lat="45.33687" lon="6.6929">
        <ele>1775.3</ele>
        <time>2018-07-01T06:46:50Z</time>
      </trkpt>
      <trkpt lat="45.33685" lon="6.69288">
        <ele>1775.2</ele>
        <time>2018-07-01T06:46:53Z</time>
      </trkpt>
      <trkpt lat="45.33682" lon="6.69285">
        <ele>1775.2</ele>
        <time>2018-07-01T06:46:56Z</time>
      </trkpt>
      <trkpt lat="45.33679" lon="6.69283">
        <ele>1775.2</ele>
        <time>2018-07-01T06:46:58Z</time>
      </trkpt>
      <trkpt lat="45.33676" lon="6.6928">
        <ele>1775.3</ele>
        <time>2018-07-01T06:47:01Z</time>
      </trkpt>
      <trkpt lat="45.33674" lon="6.69275">
        <ele>1775.5</ele>
        <time>2018-07-01T06:47:04Z</time>
      </trkpt>
      <trkpt lat="45.33672" lon="6.69272">
        <ele>1775.7</ele>
        <time>2018-07-01T06:47:06Z</time>
      </trkpt>
      <trkpt lat="45.3367" lon="6.6927">
        <ele>1775.9</ele>
        <time>2018-07-01T06:47:08Z</time>
      </trkpt>
      <trkpt lat="45.33669" lon="6.69265">
        <ele>1777</ele>
        <time>2018-07-01T06:47:11Z</time>
      </trkpt>
      <trkpt lat="45.33669" lon="6.69259">
        <ele>1777.6</ele>
        <time>2018-07-01T06:47:14Z</time>
      </trkpt>
      <trkpt lat="45.33671" lon="6.69255">
        <ele>1777.6</ele>
        <time>2018-07-01T06:47:17Z</time>
      </trkpt>
      <trkpt lat="45.33673" lon="6.69251">
        <ele>1777.7</ele>
        <time>2018-07-01T06:47:20Z</time>
      </trkpt>
      <trkpt lat="45.33676" lon="6.69246">
        <ele>1777.8</ele>
        <time>2018-07-01T06:47:23Z</time>
      </trkpt>
      <trkpt lat="45.3368" lon="6.69242">
        <ele>1777.8</ele>
        <time>2018-07-01T06:47:26Z</time>
      </trkpt>
      <trkpt lat="45.33683" lon="6.69242">
        <ele>1778.2</ele>
        <time>2018-07-01T06:47:29Z</time>
      </trkpt>
      <trkpt lat="45.33686" lon="6.69244">
        <ele>1777.9</ele>
        <time>2018-07-01T06:47:32Z</time>
      </trkpt>
      <trkpt lat="45.33689" lon="6.69244">
        <ele>1778.4</ele>
        <time>2018-07-01T06:47:35Z</time>
      </trkpt>
      <trkpt lat="45.33692" lon="6.69244">
        <ele>1779</ele>
        <time>2018-07-01T06:47:38Z</time>
      </trkpt>
      <trkpt lat="45.33695" lon="6.69247">
        <ele>1779.6</ele>
        <time>2018-07-01T06:47:42Z</time>
      </trkpt>
      <trkpt lat="45.33698" lon="6.69248">
        <ele>1780.1</ele>
        <time>2018-07-01T06:47:46Z</time>
      </trkpt>
      <trkpt lat="45.33701" lon="6.69249">
        <ele>1780.8</ele>
        <time>2018-07-01T06:47:50Z</time>
      </trkpt>
      <trkpt lat="45.33704" lon="6.69251">
        <ele>1781.3</ele>
        <time>2018-07-01T06:47:54Z</time>
      </trkpt>
      <trkpt lat="45.33708" lon="6.69251">
        <ele>1782</ele>
        <time>2018-07-01T06:47:58Z</time>
      </trkpt>
      <trkpt lat="45.3371" lon="6.69251">
        <ele>1782.5</ele>
        <time>2018-07-01T06:48:02Z</time>
      </trkpt>
      <trkpt lat="45.33713" lon="6.6925">
        <ele>1783.1</ele>
        <time>2018-07-01T06:48:06Z</time>
      </trkpt>
      <trkpt lat="45.33715" lon="6.69247">
        <ele>1783.7</ele>
        <time>2018-07-01T06:48:08Z</time>
      </trkpt>
      <trkpt lat="45.33716" lon="6.69243">
        <ele>1783.9</ele>
        <time>2018-07-01T06:48:11Z</time>
      </trkpt>
      <trkpt lat="45.33715" lon="6.69239">
        <ele>1784.1</ele>
        <time>2018-07-01T06:48:15Z</time>
      </trkpt>
      <trkpt lat="45.33714" lon="6.69235">
        <ele>1784</ele>
        <time>2018-07-01T06:48:20Z</time>
      </trkpt>
      <trkpt lat="45.33711" lon="6.69232">
        <ele>1783.7</ele>
        <time>2018-07-01T06:48:24Z</time>
      </trkpt>
      <trkpt lat="45.33709" lon="6.69229">
        <ele>1783.5</ele>
        <time>2018-07-01T06:48:27Z</time>
      </trkpt>
      <trkpt lat="45.33707" lon="6.69227">
        <ele>1783.6</ele>
        <time>2018-07-01T06:48:30Z</time>
      </trkpt>
      <trkpt lat="45.33704" lon="6.69223">
        <ele>1783.7</ele>
        <time>2018-07-01T06:48:34Z</time>
      </trkpt>
      <trkpt lat="45.33701" lon="6.69221">
        <ele>1783.4</ele>
        <time>2018-07-01T06:48:38Z</time>
      </trkpt>
      <trkpt lat="45.33698" lon="6.6922">
        <ele>1783.5</ele>
        <time>2018-07-01T06:48:42Z</time>
      </trkpt>
      <trkpt lat="45.33696" lon="6.69218">
        <ele>1784.1</ele>
        <time>2018-07-01T06:48:45Z</time>
      </trkpt>
      <trkpt lat="45.33693" lon="6.69215">
        <ele>1784.8</ele>
        <time>2018-07-01T06:48:49Z</time>
      </trkpt>
      <trkpt lat="45.3369" lon="6.69213">
        <ele>1785.3</ele>
        <time>2018-07-01T06:48:53Z</time>
      </trkpt>
      <trkpt lat="45.33688" lon="6.69209">
        <ele>1785.8</ele>
        <time>2018-07-01T06:48:57Z</time>
      </trkpt>
      <trkpt lat="45.33686" lon="6.69205">
        <ele>1786.2</ele>
        <time>2018-07-01T06:49:01Z</time>
      </trkpt>
      <trkpt lat="45.33684" lon="6.69202">
        <ele>1786.7</ele>
        <time>2018-07-01T06:49:05Z</time>
      </trkpt>
      <trkpt lat="45.33681" lon="6.69202">
        <ele>1787.6</ele>
        <time>2018-07-01T06:49:09Z</time>
      </trkpt>
      <trkpt lat="45.33678" lon="6.69201">
        <ele>1788.4</ele>
        <time>2018-07-01T06:49:13Z</time>
      </trkpt>
      <trkpt lat="45.33675" lon="6.692">
        <ele>1789.1</ele>
        <time>2018-07-01T06:49:17Z</time>
      </trkpt>
      <trkpt lat="45.33672" lon="6.69197">
        <ele>1789.8</ele>
        <time>2018-07-01T06:49:21Z</time>
      </trkpt>
      <trkpt lat="45.3367" lon="6.69193">
        <ele>1790.5</ele>
        <time>2018-07-01T06:49:25Z</time>
      </trkpt>
      <trkpt lat="45.33668" lon="6.69189">
        <ele>1791</ele>
        <time>2018-07-01T06:49:28Z</time>
      </trkpt>
      <trkpt lat="45.33667" lon="6.69184">
        <ele>1791.7</ele>
        <time>2018-07-01T06:49:31Z</time>
      </trkpt>
      <trkpt lat="45.33665" lon="6.69181">
        <ele>1792.3</ele>
        <time>2018-07-01T06:49:34Z</time>
      </trkpt>
      <trkpt lat="45.33664" lon="6.69177">
        <ele>1792.9</ele>
        <time>2018-07-01T06:49:37Z</time>
      </trkpt>
      <trkpt lat="45.33662" lon="6.69173">
        <ele>1793.7</ele>
        <time>2018-07-01T06:49:40Z</time>
      </trkpt>
      <trkpt lat="45.3366" lon="6.69168">
        <ele>1794.5</ele>
        <time>2018-07-01T06:49:43Z</time>
      </trkpt>
      <trkpt lat="45.33657" lon="6.69166">
        <ele>1795.2</ele>
        <time>2018-07-01T06:49:46Z</time>
      </trkpt>
      <trkpt lat="45.33655" lon="6.69163">
        <ele>1795.7</ele>
        <time>2018-07-01T06:49:49Z</time>
      </trkpt>
      <trkpt lat="45.33653" lon="6.6916">
        <ele>1796.2</ele>
        <time>2018-07-01T06:49:52Z</time>
      </trkpt>
      <trkpt lat="45.33651" lon="6.69157">
        <ele>1796.7</ele>
        <time>2018-07-01T06:49:55Z</time>
      </trkpt>
      <trkpt lat="45.33649" lon="6.69155">
        <ele>1797.6</ele>
        <time>2018-07-01T06:49:59Z</time>
      </trkpt>
      <trkpt lat="45.33646" lon="6.69152">
        <ele>1798.5</ele>
        <time>2018-07-01T06:50:03Z</time>
      </trkpt>
      <trkpt lat="45.33643" lon="6.6915">
        <ele>1799.5</ele>
        <time>2018-07-01T06:50:07Z</time>
      </trkpt>
      <trkpt lat="45.33641" lon="6.69148">
        <ele>1800.2</ele>
        <time>2018-07-01T06:50:10Z</time>
      </trkpt>
      <trkpt lat="45.33638" lon="6.69145">
        <ele>1801</ele>
        <time>2018-07-01T06:50:13Z</time>
      </trkpt>
      <trkpt lat="45.33635" lon="6.69142">
        <ele>1802</ele>
        <time>2018-07-01T06:50:17Z</time>
      </trkpt>
      <trkpt lat="45.33633" lon="6.69139">
        <ele>1802.7</ele>
        <time>2018-07-01T06:50:20Z</time>
      </trkpt>
      <trkpt lat="45.3363" lon="6.69137">
        <ele>1803.1</ele>
        <time>2018-07-01T06:50:23Z</time>
      </trkpt>
      <trkpt lat="45.33627" lon="6.69136">
        <ele>1803.3</ele>
        <time>2018-07-01T06:50:26Z</time>
      </trkpt>
      <trkpt lat="45.33624" lon="6.69134">
        <ele>1803.6</ele>
        <time>2018-07-01T06:50:29Z</time>
      </trkpt>
      <trkpt lat="45.33622" lon="6.69133">
        <ele>1804.1</ele>
        <time>2018-07-01T06:50:32Z</time>
      </trkpt>
      <trkpt lat="45.3362" lon="6.6913">
        <ele>1804.7</ele>
        <time>2018-07-01T06:50:35Z</time>
      </trkpt>
      <trkpt lat="45.33617" lon="6.69126">
        <ele>1805.5</ele>
        <time>2018-07-01T06:50:38Z</time>
      </trkpt>
      <trkpt lat="45.33614" lon="6.69124">
        <ele>1806.2</ele>
        <time>2018-07-01T06:50:41Z</time>
      </trkpt>
      <trkpt lat="45.33611" lon="6.69125">
        <ele>1806.8</ele>
        <time>2018-07-01T06:50:44Z</time>
      </trkpt>
      <trkpt lat="45.33608" lon="6.69123">
        <ele>1807.4</ele>
        <time>2018-07-01T06:50:47Z</time>
      </trkpt>
      <trkpt lat="45.33605" lon="6.69123">
        <ele>1808</ele>
        <time>2018-07-01T06:50:50Z</time>
      </trkpt>
      <trkpt lat="45.33602" lon="6.69123">
        <ele>1808.6</ele>
        <time>2018-07-01T06:50:53Z</time>
      </trkpt>
      <trkpt lat="45.33599" lon="6.69123">
        <ele>1809.2</ele>
        <time>2018-07-01T06:50:56Z</time>
      </trkpt>
      <trkpt lat="45.33595" lon="6.69121">
        <ele>1810.3</ele>
        <time>2018-07-01T06:51:00Z</time>
      </trkpt>
      <trkpt lat="45.33592" lon="6.69119">
        <ele>1811.9</ele>
        <time>2018-07-01T06:51:04Z</time>
      </trkpt>
      <trkpt lat="45.33589" lon="6.69117">
        <ele>1813.2</ele>
        <time>2018-07-01T06:51:07Z</time>
      </trkpt>
      <trkpt lat="45.33586" lon="6.69115">
        <ele>1814.3</ele>
        <time>2018-07-01T06:51:11Z</time>
      </trkpt>
      <trkpt lat="45.33584" lon="6.69112">
        <ele>1815.2</ele>
        <time>2018-07-01T06:51:15Z</time>
      </trkpt>
      <trkpt lat="45.33581" lon="6.69109">
        <ele>1816.1</ele>
        <time>2018-07-01T06:51:19Z</time>
      </trkpt>
      <trkpt lat="45.33579" lon="6.69105">
        <ele>1818</ele>
        <time>2018-07-01T06:51:23Z</time>
      </trkpt>
      <trkpt lat="45.33576" lon="6.69102">
        <ele>1819.8</ele>
        <time>2018-07-01T06:51:27Z</time>
      </trkpt>
      <trkpt lat="45.33574" lon="6.69098">
        <ele>1821.6</ele>
        <time>2018-07-01T06:51:31Z</time>
      </trkpt>
      <trkpt lat="45.33571" lon="6.69095">
        <ele>1823.5</ele>
        <time>2018-07-01T06:51:35Z</time>
      </trkpt>
      <trkpt lat="45.33568" lon="6.69092">
        <ele>1825.1</ele>
        <time>2018-07-01T06:51:39Z</time>
      </trkpt>
      <trkpt lat="45.33566" lon="6.69089">
        <ele>1826.2</ele>
        <time>2018-07-01T06:51:43Z</time>
      </trkpt>
      <trkpt lat="45.33564" lon="6.69087">
        <ele>1827.1</ele>
        <time>2018-07-01T06:51:46Z</time>
      </trkpt>
      <trkpt lat="45.33561" lon="6.69084">
        <ele>1828.5</ele>
        <time>2018-07-01T06:51:50Z</time>
      </trkpt>
      <trkpt lat="45.33559" lon="6.69082">
        <ele>1830.1</ele>
        <time>2018-07-01T06:51:54Z</time>
      </trkpt>
      <trkpt lat="45.33556" lon="6.6908">
        <ele>1831.9</ele>
        <time>2018-07-01T06:51:58Z</time>
      </trkpt>
      <trkpt lat="45.33553" lon="6.69078">
        <ele>1833.3</ele>
        <time>2018-07-01T06:52:02Z</time>
      </trkpt>
      <trkpt lat="45.33551" lon="6.69076">
        <ele>1834.3</ele>
        <time>2018-07-01T06:52:05Z</time>
      </trkpt>
      <trkpt lat="45.33548" lon="6.69074">
        <ele>1835.4</ele>
        <time>2018-07-01T06:52:08Z</time>
      </trkpt>
      <trkpt lat="45.33545" lon="6.69072">
        <ele>1836.4</ele>
        <time>2018-07-01T06:52:11Z</time>
      </trkpt>
      <trkpt lat="45.33543" lon="6.69069">
        <ele>1837.4</ele>
        <time>2018-07-01T06:52:14Z</time>
      </trkpt>
      <trkpt lat="45.33542" lon="6.69066">
        <ele>1838.3</ele>
        <time>2018-07-01T06:52:17Z</time>
      </trkpt>
      <trkpt lat="45.33539" lon="6.69064">
        <ele>1839.3</ele>
        <time>2018-07-01T06:52:20Z</time>
      </trkpt>
      <trkpt lat="45.33536" lon="6.69064">
        <ele>1840.2</ele>
        <time>2018-07-01T06:52:23Z</time>
      </trkpt>
      <trkpt lat="45.33533" lon="6.69064">
        <ele>1841</ele>
        <time>2018-07-01T06:52:26Z</time>
      </trkpt>
      <trkpt lat="45.33531" lon="6.69062">
        <ele>1841.7</ele>
        <time>2018-07-01T06:52:29Z</time>
      </trkpt>
      <trkpt lat="45.33528" lon="6.69061">
        <ele>1842.4</ele>
        <time>2018-07-01T06:52:32Z</time>
      </trkpt>
      <trkpt lat="45.33525" lon="6.6906">
        <ele>1843.1</ele>
        <time>2018-07-01T06:52:35Z</time>
      </trkpt>
      <trkpt lat="45.33522" lon="6.6906">
        <ele>1843.8</ele>
        <time>2018-07-01T06:52:38Z</time>
      </trkpt>
      <trkpt lat="45.33519" lon="6.69057">
        <ele>1844.4</ele>
        <time>2018-07-01T06:52:41Z</time>
      </trkpt>
      <trkpt lat="45.33517" lon="6.69054">
        <ele>1846</ele>
        <time>2018-07-01T06:52:44Z</time>
      </trkpt>
      <trkpt lat="45.33514" lon="6.69051">
        <ele>1847.7</ele>
        <time>2018-07-01T06:52:47Z</time>
      </trkpt>
      <trkpt lat="45.33512" lon="6.69047">
        <ele>1849</ele>
        <time>2018-07-01T06:52:50Z</time>
      </trkpt>
      <trkpt lat="45.33509" lon="6.69046">
        <ele>1849.4</ele>
        <time>2018-07-01T06:52:53Z</time>
      </trkpt>
      <trkpt lat="45.33507" lon="6.69044">
        <ele>1849.8</ele>
        <time>2018-07-01T06:52:56Z</time>
      </trkpt>
      <trkpt lat="45.33504" lon="6.69042">
        <ele>1850.4</ele>
        <time>2018-07-01T06:52:59Z</time>
      </trkpt>
      <trkpt lat="45.33501" lon="6.69042">
        <ele>1851.4</ele>
        <time>2018-07-01T06:53:02Z</time>
      </trkpt>
      <trkpt lat="45.33498" lon="6.69042">
        <ele>1852.4</ele>
        <time>2018-07-01T06:53:05Z</time>
      </trkpt>
      <trkpt lat="45.33494" lon="6.69041">
        <ele>1852.7</ele>
        <time>2018-07-01T06:53:09Z</time>
      </trkpt>
      <trkpt lat="45.33491" lon="6.69038">
        <ele>1852.6</ele>
        <time>2018-07-01T06:53:13Z</time>
      </trkpt>
      <trkpt lat="45.33489" lon="6.69035">
        <ele>1853.5</ele>
        <time>2018-07-01T06:53:16Z</time>
      </trkpt>
      <trkpt lat="45.33487" lon="6.69032">
        <ele>1854.2</ele>
        <time>2018-07-01T06:53:19Z</time>
      </trkpt>
      <trkpt lat="45.33485" lon="6.69029">
        <ele>1854.7</ele>
        <time>2018-07-01T06:53:22Z</time>
      </trkpt>
      <trkpt lat="45.33483" lon="6.69027">
        <ele>1855.1</ele>
        <time>2018-07-01T06:53:25Z</time>
      </trkpt>
      <trkpt lat="45.33479" lon="6.69028">
        <ele>1856.6</ele>
        <time>2018-07-01T06:53:29Z</time>
      </trkpt>
      <trkpt lat="45.33476" lon="6.69027">
        <ele>1857.9</ele>
        <time>2018-07-01T06:53:33Z</time>
      </trkpt>
      <trkpt lat="45.33474" lon="6.69023">
        <ele>1858.5</ele>
        <time>2018-07-01T06:53:37Z</time>
      </trkpt>
      <trkpt lat="45.33472" lon="6.6902">
        <ele>1859</ele>
        <time>2018-07-01T06:53:41Z</time>
      </trkpt>
      <trkpt lat="45.33469" lon="6.69017">
        <ele>1859.5</ele>
        <time>2018-07-01T06:53:45Z</time>
      </trkpt>
      <trkpt lat="45.33467" lon="6.69015">
        <ele>1859.9</ele>
        <time>2018-07-01T06:53:49Z</time>
      </trkpt>
      <trkpt lat="45.33464" lon="6.69016">
        <ele>1860.1</ele>
        <time>2018-07-01T06:53:53Z</time>
      </trkpt>
      <trkpt lat="45.33461" lon="6.69017">
        <ele>1860</ele>
        <time>2018-07-01T06:53:56Z</time>
      </trkpt>
      <trkpt lat="45.33458" lon="6.69017">
        <ele>1859.8</ele>
        <time>2018-07-01T06:53:59Z</time>
      </trkpt>
      <trkpt lat="45.33455" lon="6.69018">
        <ele>1859.6</ele>
        <time>2018-07-01T06:54:03Z</time>
      </trkpt>
      <trkpt lat="45.33452" lon="6.69018">
        <ele>1859.5</ele>
        <time>2018-07-01T06:54:07Z</time>
      </trkpt>
      <trkpt lat="45.33448" lon="6.69018">
        <ele>1859.2</ele>
        <time>2018-07-01T06:54:11Z</time>
      </trkpt>
      <trkpt lat="45.33445" lon="6.69018">
        <ele>1859</ele>
        <time>2018-07-01T06:54:15Z</time>
      </trkpt>
      <trkpt lat="45.33442" lon="6.69017">
        <ele>1858.5</ele>
        <time>2018-07-01T06:54:19Z</time>
      </trkpt>
      <trkpt lat="45.33439" lon="6.69016">
        <ele>1857.9</ele>
        <time>2018-07-01T06:54:22Z</time>
      </trkpt>
      <trkpt lat="45.33436" lon="6.69017">
        <ele>1857.2</ele>
        <time>2018-07-01T06:54:26Z</time>
      </trkpt>
      <trkpt lat="45.33433" lon="6.69017">
        <ele>1856.9</ele>
        <time>2018-07-01T06:54:30Z</time>
      </trkpt>
      <trkpt lat="45.3343" lon="6.69021">
        <ele>1856.6</ele>
        <time>2018-07-01T06:54:33Z</time>
      </trkpt>
      <trkpt lat="45.33426" lon="6.69022">
        <ele>1856.3</ele>
        <time>2018-07-01T06:54:36Z</time>
      </trkpt>
      <trkpt lat="45.33423" lon="6.69024">
        <ele>1856.3</ele>
        <time>2018-07-01T06:54:39Z</time>
      </trkpt>
      <trkpt lat="45.3342" lon="6.69025">
        <ele>1856.6</ele>
        <time>2018-07-01T06:54:42Z</time>
      </trkpt>
      <trkpt lat="45.33416" lon="6.69026">
        <ele>1856.2</ele>
        <time>2018-07-01T06:54:45Z</time>
      </trkpt>
      <trkpt lat="45.33414" lon="6.69028">
        <ele>1855.2</ele>
        <time>2018-07-01T06:54:47Z</time>
      </trkpt>
      <trkpt lat="45.33411" lon="6.69029">
        <ele>1854.2</ele>
        <time>2018-07-01T06:54:50Z</time>
      </trkpt>
      <trkpt lat="45.33407" lon="6.6903">
        <ele>1853.8</ele>
        <time>2018-07-01T06:54:53Z</time>
      </trkpt>
      <trkpt lat="45.33404" lon="6.69031">
        <ele>1853.5</ele>
        <time>2018-07-01T06:54:56Z</time>
      </trkpt>
      <trkpt lat="45.33401" lon="6.69031">
        <ele>1853.1</ele>
        <time>2018-07-01T06:54:59Z</time>
      </trkpt>
      <trkpt lat="45.33397" lon="6.69032">
        <ele>1852.8</ele>
        <time>2018-07-01T06:55:02Z</time>
      </trkpt>
      <trkpt lat="45.33394" lon="6.69032">
        <ele>1852.4</ele>
        <time>2018-07-01T06:55:05Z</time>
      </trkpt>
      <trkpt lat="45.33391" lon="6.69033">
        <ele>1852</ele>
        <time>2018-07-01T06:55:08Z</time>
      </trkpt>
      <trkpt lat="45.33387" lon="6.69031">
        <ele>1851.6</ele>
        <time>2018-07-01T06:55:11Z</time>
      </trkpt>
      <trkpt lat="45.33385" lon="6.69029">
        <ele>1851.3</ele>
        <time>2018-07-01T06:55:14Z</time>
      </trkpt>
      <trkpt lat="45.33382" lon="6.69027">
        <ele>1851.6</ele>
        <time>2018-07-01T06:55:17Z</time>
      </trkpt>
      <trkpt lat="45.33379" lon="6.69026">
        <ele>1851.8</ele>
        <time>2018-07-01T06:55:20Z</time>
      </trkpt>
      <trkpt lat="45.33377" lon="6.69024">
        <ele>1852</ele>
        <time>2018-07-01T06:55:23Z</time>
      </trkpt>
      <trkpt lat="45.33374" lon="6.69022">
        <ele>1852.5</ele>
        <time>2018-07-01T06:55:26Z</time>
      </trkpt>
      <trkpt lat="45.33371" lon="6.6902">
        <ele>1852.9</ele>
        <time>2018-07-01T06:55:29Z</time>
      </trkpt>
      <trkpt lat="45.33368" lon="6.69018">
        <ele>1853.4</ele>
        <time>2018-07-01T06:55:32Z</time>
      </trkpt>
      <trkpt lat="45.33366" lon="6.69016">
        <ele>1854</ele>
        <time>2018-07-01T06:55:35Z</time>
      </trkpt>
      <trkpt lat="45.33363" lon="6.69014">
        <ele>1854.5</ele>
        <time>2018-07-01T06:55:38Z</time>
      </trkpt>
      <trkpt lat="45.33359" lon="6.69013">
        <ele>1855.1</ele>
        <time>2018-07-01T06:55:41Z</time>
      </trkpt>
      <trkpt lat="45.33356" lon="6.69012">
        <ele>1855.5</ele>
        <time>2018-07-01T06:55:44Z</time>
      </trkpt>
      <trkpt lat="45.33352" lon="6.69012">
        <ele>1854.5</ele>
        <time>2018-07-01T06:55:47Z</time>
      </trkpt>
      <trkpt lat="45.3335" lon="6.69013">
        <ele>1853.9</ele>
        <time>2018-07-01T06:55:49Z</time>
      </trkpt>
      <trkpt lat="45.33346" lon="6.69013">
        <ele>1853.9</ele>
        <time>2018-07-01T06:55:52Z</time>
      </trkpt>
      <trkpt lat="45.33344" lon="6.69011">
        <ele>1854</ele>
        <time>2018-07-01T06:55:55Z</time>
      </trkpt>
      <trkpt lat="45.33341" lon="6.69008">
        <ele>1854</ele>
        <time>2018-07-01T06:55:58Z</time>
      </trkpt>
      <trkpt lat="45.33338" lon="6.69008">
        <ele>1854.1</ele>
        <time>2018-07-01T06:56:01Z</time>
      </trkpt>
      <trkpt lat="45.33335" lon="6.69007">
        <ele>1854.9</ele>
        <time>2018-07-01T06:56:04Z</time>
      </trkpt>
      <trkpt lat="45.33331" lon="6.69005">
        <ele>1855.9</ele>
        <time>2018-07-01T06:56:07Z</time>
      </trkpt>
      <trkpt lat="45.33327" lon="6.69005">
        <ele>1856.3</ele>
        <time>2018-07-01T06:56:10Z</time>
      </trkpt>
      <trkpt lat="45.33324" lon="6.69004">
        <ele>1856.4</ele>
        <time>2018-07-01T06:56:13Z</time>
      </trkpt>
      <trkpt lat="45.33321" lon="6.69003">
        <ele>1856.8</ele>
        <time>2018-07-01T06:56:16Z</time>
      </trkpt>
      <trkpt lat="45.33318" lon="6.69004">
        <ele>1857.8</ele>
        <time>2018-07-01T06:56:19Z</time>
      </trkpt>
      <trkpt lat="45.33314" lon="6.69004">
        <ele>1858.9</ele>
        <time>2018-07-01T06:56:22Z</time>
      </trkpt>
      <trkpt lat="45.3331" lon="6.69005">
        <ele>1859.2</ele>
        <time>2018-07-01T06:56:25Z</time>
      </trkpt>
      <trkpt lat="45.33307" lon="6.69005">
        <ele>1859.4</ele>
        <time>2018-07-01T06:56:28Z</time>
      </trkpt>
      <trkpt lat="45.33304" lon="6.69005">
        <ele>1859.7</ele>
        <time>2018-07-01T06:56:31Z</time>
      </trkpt>
      <trkpt lat="45.33301" lon="6.69005">
        <ele>1860</ele>
        <time>2018-07-01T06:56:34Z</time>
      </trkpt>
      <trkpt lat="45.33298" lon="6.69003">
        <ele>1860.3</ele>
        <time>2018-07-01T06:56:37Z</time>
      </trkpt>
      <trkpt lat="45.33296" lon="6.69002">
        <ele>1860.5</ele>
        <time>2018-07-01T06:56:40Z</time>
      </trkpt>
      <trkpt lat="45.33293" lon="6.69003">
        <ele>1860.8</ele>
        <time>2018-07-01T06:56:43Z</time>
      </trkpt>
      <trkpt lat="45.33289" lon="6.69005">
        <ele>1861.2</ele>
        <time>2018-07-01T06:56:46Z</time>
      </trkpt>
      <trkpt lat="45.33286" lon="6.69007">
        <ele>1860.9</ele>
        <time>2018-07-01T06:56:49Z</time>
      </trkpt>
      <trkpt lat="45.33283" lon="6.69009">
        <ele>1860.5</ele>
        <time>2018-07-01T06:56:52Z</time>
      </trkpt>
      <trkpt lat="45.33281" lon="6.69011">
        <ele>1860.1</ele>
        <time>2018-07-01T06:56:54Z</time>
      </trkpt>
      <trkpt lat="45.33278" lon="6.69014">
        <ele>1859.7</ele>
        <time>2018-07-01T06:56:56Z</time>
      </trkpt>
      <trkpt lat="45.33276" lon="6.69017">
        <ele>1859.2</ele>
        <time>2018-07-01T06:56:58Z</time>
      </trkpt>
      <trkpt lat="45.33274" lon="6.69021">
        <ele>1858.4</ele>
        <time>2018-07-01T06:57:01Z</time>
      </trkpt>
      <trkpt lat="45.33272" lon="6.69024">
        <ele>1857.2</ele>
        <time>2018-07-01T06:57:03Z</time>
      </trkpt>
      <trkpt lat="45.33269" lon="6.69028">
        <ele>1855.8</ele>
        <time>2018-07-01T06:57:06Z</time>
      </trkpt>
      <trkpt lat="45.33267" lon="6.69031">
        <ele>1855.4</ele>
        <time>2018-07-01T06:57:08Z</time>
      </trkpt>
      <trkpt lat="45.33264" lon="6.69032">
        <ele>1855.1</ele>
        <time>2018-07-01T06:57:11Z</time>
      </trkpt>
      <trkpt lat="45.33261" lon="6.69034">
        <ele>1854.8</ele>
        <time>2018-07-01T06:57:14Z</time>
      </trkpt>
      <trkpt lat="45.33259" lon="6.69034">
        <ele>1855.3</ele>
        <time>2018-07-01T06:57:17Z</time>
      </trkpt>
      <trkpt lat="45.33255" lon="6.69034">
        <ele>1855.8</ele>
        <time>2018-07-01T06:57:20Z</time>
      </trkpt>
      <trkpt lat="45.33252" lon="6.69033">
        <ele>1856.4</ele>
        <time>2018-07-01T06:57:22Z</time>
      </trkpt>
      <trkpt lat="45.33249" lon="6.69033">
        <ele>1857.1</ele>
        <time>2018-07-01T06:57:26Z</time>
      </trkpt>
      <trkpt lat="45.33246" lon="6.69029">
        <ele>1857.9</ele>
        <time>2018-07-01T06:58:01Z</time>
      </trkpt>
      <trkpt lat="45.33244" lon="6.6903">
        <ele>1858.4</ele>
        <time>2018-07-01T06:58:04Z</time>
      </trkpt>
      <trkpt lat="45.33241" lon="6.69031">
        <ele>1858.9</ele>
        <time>2018-07-01T06:58:07Z</time>
      </trkpt>
      <trkpt lat="45.33238" lon="6.69031">
        <ele>1859.5</ele>
        <time>2018-07-01T06:58:10Z</time>
      </trkpt>
      <trkpt lat="45.33234" lon="6.69032">
        <ele>1860.2</ele>
        <time>2018-07-01T06:58:13Z</time>
      </trkpt>
      <trkpt lat="45.3323" lon="6.69032">
        <ele>1860.9</ele>
        <time>2018-07-01T06:58:16Z</time>
      </trkpt>
      <trkpt lat="45.33227" lon="6.69031">
        <ele>1861.9</ele>
        <time>2018-07-01T06:58:19Z</time>
      </trkpt>
      <trkpt lat="45.33223" lon="6.6903">
        <ele>1863.7</ele>
        <time>2018-07-01T06:58:22Z</time>
      </trkpt>
      <trkpt lat="45.33219" lon="6.69028">
        <ele>1865.2</ele>
        <time>2018-07-01T06:58:25Z</time>
      </trkpt>
      <trkpt lat="45.33216" lon="6.69027">
        <ele>1866.5</ele>
        <time>2018-07-01T06:58:28Z</time>
      </trkpt>
      <trkpt lat="45.33213" lon="6.69025">
        <ele>1868</ele>
        <time>2018-07-01T06:58:31Z</time>
      </trkpt>
      <trkpt lat="45.33209" lon="6.69023">
        <ele>1869.5</ele>
        <time>2018-07-01T06:58:34Z</time>
      </trkpt>
      <trkpt lat="45.33206" lon="6.6902">
        <ele>1871.1</ele>
        <time>2018-07-01T06:58:37Z</time>
      </trkpt>
      <trkpt lat="45.33203" lon="6.69019">
        <ele>1872.2</ele>
        <time>2018-07-01T06:58:39Z</time>
      </trkpt>
      <trkpt lat="45.332" lon="6.69017">
        <ele>1873.4</ele>
        <time>2018-07-01T06:58:42Z</time>
      </trkpt>
      <trkpt lat="45.33197" lon="6.69015">
        <ele>1875.5</ele>
        <time>2018-07-01T06:58:45Z</time>
      </trkpt>
      <trkpt lat="45.33194" lon="6.69012">
        <ele>1877.8</ele>
        <time>2018-07-01T06:58:48Z</time>
      </trkpt>
      <trkpt lat="45.33191" lon="6.6901">
        <ele>1880</ele>
        <time>2018-07-01T06:58:51Z</time>
      </trkpt>
      <trkpt lat="45.33188" lon="6.69008">
        <ele>1880.7</ele>
        <time>2018-07-01T06:58:54Z</time>
      </trkpt>
      <trkpt lat="45.33186" lon="6.69006">
        <ele>1881.4</ele>
        <time>2018-07-01T06:58:57Z</time>
      </trkpt>
      <trkpt lat="45.33183" lon="6.69005">
        <ele>1882.1</ele>
        <time>2018-07-01T06:59:00Z</time>
      </trkpt>
      <trkpt lat="45.3318" lon="6.69004">
        <ele>1882.8</ele>
        <time>2018-07-01T06:59:03Z</time>
      </trkpt>
      <trkpt lat="45.33177" lon="6.69003">
        <ele>1883.6</ele>
        <time>2018-07-01T06:59:06Z</time>
      </trkpt>
      <trkpt lat="45.33173" lon="6.69003">
        <ele>1884</ele>
        <time>2018-07-01T06:59:10Z</time>
      </trkpt>
      <trkpt lat="45.3317" lon="6.69003">
        <ele>1884</ele>
        <time>2018-07-01T06:59:13Z</time>
      </trkpt>
      <trkpt lat="45.33168" lon="6.69003">
        <ele>1884</ele>
        <time>2018-07-01T06:59:17Z</time>
      </trkpt>
      <trkpt lat="45.33165" lon="6.69006">
        <ele>1884.3</ele>
        <time>2018-07-01T06:59:34Z</time>
      </trkpt>
      <trkpt lat="45.33162" lon="6.69007">
        <ele>1884.7</ele>
        <time>2018-07-01T06:59:38Z</time>
      </trkpt>
      <trkpt lat="45.33159" lon="6.69009">
        <ele>1885.1</ele>
        <time>2018-07-01T06:59:41Z</time>
      </trkpt>
      <trkpt lat="45.33156" lon="6.6901">
        <ele>1885.8</ele>
        <time>2018-07-01T06:59:44Z</time>
      </trkpt>
      <trkpt lat="45.33152" lon="6.6901">
        <ele>1886.8</ele>
        <time>2018-07-01T06:59:47Z</time>
      </trkpt>
      <trkpt lat="45.33149" lon="6.69011">
        <ele>1887.5</ele>
        <time>2018-07-01T06:59:50Z</time>
      </trkpt>
      <trkpt lat="45.33145" lon="6.69012">
        <ele>1888.1</ele>
        <time>2018-07-01T06:59:53Z</time>
      </trkpt>
      <trkpt lat="45.33142" lon="6.69012">
        <ele>1889</ele>
        <time>2018-07-01T06:59:56Z</time>
      </trkpt>
      <trkpt lat="45.33138" lon="6.69012">
        <ele>1890</ele>
        <time>2018-07-01T06:59:59Z</time>
      </trkpt>
      <trkpt lat="45.33135" lon="6.69011">
        <ele>1891</ele>
        <time>2018-07-01T07:00:02Z</time>
      </trkpt>
      <trkpt lat="45.33132" lon="6.69011">
        <ele>1892</ele>
        <time>2018-07-01T07:00:05Z</time>
      </trkpt>
      <trkpt lat="45.33128" lon="6.69011">
        <ele>1892.9</ele>
        <time>2018-07-01T07:00:08Z</time>
      </trkpt>
      <trkpt lat="45.33126" lon="6.6901">
        <ele>1893</ele>
        <time>2018-07-01T07:00:11Z</time>
      </trkpt>
      <trkpt lat="45.33122" lon="6.6901">
        <ele>1893.2</ele>
        <time>2018-07-01T07:00:15Z</time>
      </trkpt>
      <trkpt lat="45.33119" lon="6.69009">
        <ele>1893.8</ele>
        <time>2018-07-01T07:00:18Z</time>
      </trkpt>
      <trkpt lat="45.33115" lon="6.69008">
        <ele>1894.5</ele>
        <time>2018-07-01T07:00:21Z</time>
      </trkpt>
      <trkpt lat="45.33112" lon="6.69009">
        <ele>1895</ele>
        <time>2018-07-01T07:00:24Z</time>
      </trkpt>
      <trkpt lat="45.33109" lon="6.69009">
        <ele>1895.6</ele>
        <time>2018-07-01T07:00:27Z</time>
      </trkpt>
      <trkpt lat="45.33106" lon="6.69009">
        <ele>1896.2</ele>
        <time>2018-07-01T07:00:30Z</time>
      </trkpt>
      <trkpt lat="45.33102" lon="6.69009">
        <ele>1896.8</ele>
        <time>2018-07-01T07:00:34Z</time>
      </trkpt>
      <trkpt lat="45.33099" lon="6.69009">
        <ele>1897.9</ele>
        <time>2018-07-01T07:00:40Z</time>
      </trkpt>
      <trkpt lat="45.33095" lon="6.69008">
        <ele>1899</ele>
        <time>2018-07-01T07:00:43Z</time>
      </trkpt>
      <trkpt lat="45.33092" lon="6.69008">
        <ele>1899.1</ele>
        <time>2018-07-01T07:00:46Z</time>
      </trkpt>
      <trkpt lat="45.33089" lon="6.69008">
        <ele>1899.1</ele>
        <time>2018-07-01T07:00:49Z</time>
      </trkpt>
      <trkpt lat="45.33086" lon="6.69009">
        <ele>1899.5</ele>
        <time>2018-07-01T07:00:52Z</time>
      </trkpt>
      <trkpt lat="45.33083" lon="6.69009">
        <ele>1900</ele>
        <time>2018-07-01T07:00:55Z</time>
      </trkpt>
      <trkpt lat="45.33079" lon="6.6901">
        <ele>1900.2</ele>
        <time>2018-07-01T07:00:58Z</time>
      </trkpt>
      <trkpt lat="45.33076" lon="6.69011">
        <ele>1900.2</ele>
        <time>2018-07-01T07:01:00Z</time>
      </trkpt>
      <trkpt lat="45.33073" lon="6.69011">
        <ele>1900.3</ele>
        <time>2018-07-01T07:01:03Z</time>
      </trkpt>
      <trkpt lat="45.3307" lon="6.69012">
        <ele>1900.9</ele>
        <time>2018-07-01T07:01:05Z</time>
      </trkpt>
      <trkpt lat="45.33067" lon="6.69012">
        <ele>1901.4</ele>
        <time>2018-07-01T07:01:07Z</time>
      </trkpt>
      <trkpt lat="45.33063" lon="6.69013">
        <ele>1901.9</ele>
        <time>2018-07-01T07:01:10Z</time>
      </trkpt>
      <trkpt lat="45.33061" lon="6.69013">
        <ele>1902.3</ele>
        <time>2018-07-01T07:01:12Z</time>
      </trkpt>
      <trkpt lat="45.33057" lon="6.69012">
        <ele>1903.2</ele>
        <time>2018-07-01T07:01:15Z</time>
      </trkpt>
      <trkpt lat="45.33053" lon="6.69011">
        <ele>1904.7</ele>
        <time>2018-07-01T07:01:18Z</time>
      </trkpt>
      <trkpt lat="45.3305" lon="6.6901">
        <ele>1905.5</ele>
        <time>2018-07-01T07:01:21Z</time>
      </trkpt>
      <trkpt lat="45.33047" lon="6.6901">
        <ele>1905.9</ele>
        <time>2018-07-01T07:01:24Z</time>
      </trkpt>
      <trkpt lat="45.33044" lon="6.6901">
        <ele>1906.5</ele>
        <time>2018-07-01T07:01:27Z</time>
      </trkpt>
      <trkpt lat="45.33041" lon="6.6901">
        <ele>1907.6</ele>
        <time>2018-07-01T07:01:30Z</time>
      </trkpt>
      <trkpt lat="45.33037" lon="6.6901">
        <ele>1908.3</ele>
        <time>2018-07-01T07:01:34Z</time>
      </trkpt>
      <trkpt lat="45.33033" lon="6.6901">
        <ele>1908.7</ele>
        <time>2018-07-01T07:01:37Z</time>
      </trkpt>
      <trkpt lat="45.3303" lon="6.6901">
        <ele>1909.1</ele>
        <time>2018-07-01T07:01:40Z</time>
      </trkpt>
      <trkpt lat="45.33027" lon="6.69011">
        <ele>1909.5</ele>
        <time>2018-07-01T07:01:43Z</time>
      </trkpt>
      <trkpt lat="45.33023" lon="6.69011">
        <ele>1909.6</ele>
        <time>2018-07-01T07:01:46Z</time>
      </trkpt>
      <trkpt lat="45.3302" lon="6.69011">
        <ele>1909.3</ele>
        <time>2018-07-01T07:01:49Z</time>
      </trkpt>
      <trkpt lat="45.33016" lon="6.69011">
        <ele>1909.2</ele>
        <time>2018-07-01T07:01:52Z</time>
      </trkpt>
      <trkpt lat="45.33013" lon="6.69012">
        <ele>1909.4</ele>
        <time>2018-07-01T07:01:56Z</time>
      </trkpt>
      <trkpt lat="45.3301" lon="6.69011">
        <ele>1909.5</ele>
        <time>2018-07-01T07:01:58Z</time>
      </trkpt>
      <trkpt lat="45.33007" lon="6.6901">
        <ele>1909.7</ele>
        <time>2018-07-01T07:02:01Z</time>
      </trkpt>
      <trkpt lat="45.33003" lon="6.69011">
        <ele>1909.8</ele>
        <time>2018-07-01T07:02:04Z</time>
      </trkpt>
      <trkpt lat="45.33" lon="6.6901">
        <ele>1910</ele>
        <time>2018-07-01T07:02:07Z</time>
      </trkpt>
      <trkpt lat="45.32997" lon="6.6901">
        <ele>1910.1</ele>
        <time>2018-07-01T07:02:09Z</time>
      </trkpt>
      <trkpt lat="45.32993" lon="6.6901">
        <ele>1910.3</ele>
        <time>2018-07-01T07:02:12Z</time>
      </trkpt>
      <trkpt lat="45.3299" lon="6.6901">
        <ele>1910.1</ele>
        <time>2018-07-01T07:02:15Z</time>
      </trkpt>
      <trkpt lat="45.32986" lon="6.6901">
        <ele>1910</ele>
        <time>2018-07-01T07:02:18Z</time>
      </trkpt>
      <trkpt lat="45.32983" lon="6.6901">
        <ele>1910.2</ele>
        <time>2018-07-01T07:02:20Z</time>
      </trkpt>
      <trkpt lat="45.3298" lon="6.69009">
        <ele>1910.6</ele>
        <time>2018-07-01T07:02:22Z</time>
      </trkpt>
      <trkpt lat="45.32976" lon="6.69009">
        <ele>1911</ele>
        <time>2018-07-01T07:02:25Z</time>
      </trkpt>
      <trkpt lat="45.32973" lon="6.69008">
        <ele>1911.5</ele>
        <time>2018-07-01T07:02:27Z</time>
      </trkpt>
      <trkpt lat="45.3297" lon="6.69008">
        <ele>1912.1</ele>
        <time>2018-07-01T07:02:30Z</time>
      </trkpt>
      <trkpt lat="45.32966" lon="6.69008">
        <ele>1912.5</ele>
        <time>2018-07-01T07:02:33Z</time>
      </trkpt>
      <trkpt lat="45.32963" lon="6.69007">
        <ele>1912.9</ele>
        <time>2018-07-01T07:02:35Z</time>
      </trkpt>
      <trkpt lat="45.32959" lon="6.69006">
        <ele>1913.3</ele>
        <time>2018-07-01T07:02:38Z</time>
      </trkpt>
      <trkpt lat="45.32956" lon="6.69005">
        <ele>1913.7</ele>
        <time>2018-07-01T07:02:41Z</time>
      </trkpt>
      <trkpt lat="45.32952" lon="6.69005">
        <ele>1914.1</ele>
        <time>2018-07-01T07:02:44Z</time>
      </trkpt>
      <trkpt lat="45.32949" lon="6.69006">
        <ele>1914.7</ele>
        <time>2018-07-01T07:02:47Z</time>
      </trkpt>
      <trkpt lat="45.32946" lon="6.69005">
        <ele>1915.2</ele>
        <time>2018-07-01T07:02:50Z</time>
      </trkpt>
      <trkpt lat="45.32942" lon="6.69005">
        <ele>1915.8</ele>
        <time>2018-07-01T07:02:53Z</time>
      </trkpt>
      <trkpt lat="45.32939" lon="6.69005">
        <ele>1916.4</ele>
        <time>2018-07-01T07:02:56Z</time>
      </trkpt>
      <trkpt lat="45.32936" lon="6.69004">
        <ele>1916.9</ele>
        <time>2018-07-01T07:02:58Z</time>
      </trkpt>
      <trkpt lat="45.32932" lon="6.69004">
        <ele>1917.6</ele>
        <time>2018-07-01T07:03:01Z</time>
      </trkpt>
      <trkpt lat="45.32929" lon="6.69003">
        <ele>1918.1</ele>
        <time>2018-07-01T07:03:03Z</time>
      </trkpt>
      <trkpt lat="45.32927" lon="6.69002">
        <ele>1918.6</ele>
        <time>2018-07-01T07:03:05Z</time>
      </trkpt>
      <trkpt lat="45.32923" lon="6.69002">
        <ele>1919.6</ele>
        <time>2018-07-01T07:03:08Z</time>
      </trkpt>
      <trkpt lat="45.32919" lon="6.69001">
        <ele>1920.7</ele>
        <time>2018-07-01T07:03:11Z</time>
      </trkpt>
      <trkpt lat="45.32916" lon="6.69">
        <ele>1921.3</ele>
        <time>2018-07-01T07:03:13Z</time>
      </trkpt>
      <trkpt lat="45.32912" lon="6.69">
        <ele>1922</ele>
        <time>2018-07-01T07:03:16Z</time>
      </trkpt>
      <trkpt lat="45.32909" lon="6.69">
        <ele>1922.7</ele>
        <time>2018-07-01T07:03:19Z</time>
      </trkpt>
      <trkpt lat="45.32905" lon="6.69001">
        <ele>1923.3</ele>
        <time>2018-07-01T07:03:22Z</time>
      </trkpt>
      <trkpt lat="45.32901" lon="6.69002">
        <ele>1924</ele>
        <time>2018-07-01T07:03:25Z</time>
      </trkpt>
      <trkpt lat="45.32898" lon="6.69003">
        <ele>1924.7</ele>
        <time>2018-07-01T07:03:28Z</time>
      </trkpt>
      <trkpt lat="45.32894" lon="6.69002">
        <ele>1925.5</ele>
        <time>2018-07-01T07:03:31Z</time>
      </trkpt>
      <trkpt lat="45.32891" lon="6.69001">
        <ele>1926.4</ele>
        <time>2018-07-01T07:03:34Z</time>
      </trkpt>
      <trkpt lat="45.32887" lon="6.69">
        <ele>1927.1</ele>
        <time>2018-07-01T07:03:37Z</time>
      </trkpt>
      <trkpt lat="45.32884" lon="6.69">
        <ele>1927.7</ele>
        <time>2018-07-01T07:03:40Z</time>
      </trkpt>
      <trkpt lat="45.3288" lon="6.69">
        <ele>1928</ele>
        <time>2018-07-01T07:03:43Z</time>
      </trkpt>
      <trkpt lat="45.32877" lon="6.69001">
        <ele>1928</ele>
        <time>2018-07-01T07:03:47Z</time>
      </trkpt>
      <trkpt lat="45.3288" lon="6.68998">
        <ele>1928</ele>
        <time>2018-07-01T07:04:09Z</time>
      </trkpt>
      <trkpt lat="45.32883" lon="6.68997">
        <ele>1928.3</ele>
        <time>2018-07-01T07:04:16Z</time>
      </trkpt>
      <trkpt lat="45.32891" lon="6.68996">
        <ele>1929.1</ele>
        <time>2018-07-01T07:05:07Z</time>
      </trkpt>
      <trkpt lat="45.32885" lon="6.68995">
        <ele>1929.3</ele>
        <time>2018-07-01T07:05:21Z</time>
      </trkpt>
      <trkpt lat="45.32883" lon="6.68997">
        <ele>1929.4</ele>
        <time>2018-07-01T07:05:23Z</time>
      </trkpt>
      <trkpt lat="45.3288" lon="6.68997">
        <ele>1929.6</ele>
        <time>2018-07-01T07:05:25Z</time>
      </trkpt>
      <trkpt lat="45.32876" lon="6.68997">
        <ele>1929.8</ele>
        <time>2018-07-01T07:05:27Z</time>
      </trkpt>
      <trkpt lat="45.32871" lon="6.68998">
        <ele>1930.1</ele>
        <time>2018-07-01T07:05:36Z</time>
      </trkpt>
      <trkpt lat="45.32868" lon="6.68998">
        <ele>1930.4</ele>
        <time>2018-07-01T07:05:39Z</time>
      </trkpt>
      <trkpt lat="45.32865" lon="6.68997">
        <ele>1930.7</ele>
        <time>2018-07-01T07:05:45Z</time>
      </trkpt>
      <trkpt lat="45.32862" lon="6.68996">
        <ele>1930.8</ele>
        <time>2018-07-01T07:05:49Z</time>
      </trkpt>
      <trkpt lat="45.32859" lon="6.68994">
        <ele>1931</ele>
        <time>2018-07-01T07:05:52Z</time>
      </trkpt>
      <trkpt lat="45.32856" lon="6.68993">
        <ele>1931.1</ele>
        <time>2018-07-01T07:05:54Z</time>
      </trkpt>
      <trkpt lat="45.32853" lon="6.68991">
        <ele>1931.1</ele>
        <time>2018-07-01T07:05:56Z</time>
      </trkpt>
      <trkpt lat="45.32849" lon="6.68989">
        <ele>1931.1</ele>
        <time>2018-07-01T07:05:58Z</time>
      </trkpt>
      <trkpt lat="45.32846" lon="6.68988">
        <ele>1931.1</ele>
        <time>2018-07-01T07:06:00Z</time>
      </trkpt>
      <trkpt lat="45.32844" lon="6.68987">
        <ele>1931.2</ele>
        <time>2018-07-01T07:06:02Z</time>
      </trkpt>
      <trkpt lat="45.32841" lon="6.68986">
        <ele>1931.2</ele>
        <time>2018-07-01T07:06:04Z</time>
      </trkpt>
      <trkpt lat="45.32837" lon="6.68985">
        <ele>1931.2</ele>
        <time>2018-07-01T07:06:07Z</time>
      </trkpt>
      <trkpt lat="45.32834" lon="6.68983">
        <ele>1931</ele>
        <time>2018-07-01T07:06:09Z</time>
      </trkpt>
      <trkpt lat="45.3283" lon="6.68982">
        <ele>1930.7</ele>
        <time>2018-07-01T07:06:12Z</time>
      </trkpt>
      <trkpt lat="45.32826" lon="6.6898">
        <ele>1930.4</ele>
        <time>2018-07-01T07:06:14Z</time>
      </trkpt>
      <trkpt lat="45.32822" lon="6.68979">
        <ele>1930.2</ele>
        <time>2018-07-01T07:06:17Z</time>
      </trkpt>
      <trkpt lat="45.32819" lon="6.68978">
        <ele>1929.9</ele>
        <time>2018-07-01T07:06:19Z</time>
      </trkpt>
      <trkpt lat="45.32816" lon="6.68977">
        <ele>1929.6</ele>
        <time>2018-07-01T07:06:21Z</time>
      </trkpt>
      <trkpt lat="45.32812" lon="6.68977">
        <ele>1928.8</ele>
        <time>2018-07-01T07:06:24Z</time>
      </trkpt>
      <trkpt lat="45.32809" lon="6.68978">
        <ele>1928.1</ele>
        <time>2018-07-01T07:06:27Z</time>
      </trkpt>
      <trkpt lat="45.32806" lon="6.68978">
        <ele>1927.7</ele>
        <time>2018-07-01T07:06:30Z</time>
      </trkpt>
      <trkpt lat="45.32802" lon="6.68979">
        <ele>1927.2</ele>
        <time>2018-07-01T07:06:33Z</time>
      </trkpt>
      <trkpt lat="45.32799" lon="6.68981">
        <ele>1926.6</ele>
        <time>2018-07-01T07:06:36Z</time>
      </trkpt>
      <trkpt lat="45.32796" lon="6.68984">
        <ele>1925.8</ele>
        <time>2018-07-01T07:06:39Z</time>
      </trkpt>
      <trkpt lat="45.32794" lon="6.68988">
        <ele>1925</ele>
        <time>2018-07-01T07:06:42Z</time>
      </trkpt>
      <trkpt lat="45.32791" lon="6.6899">
        <ele>1924.3</ele>
        <time>2018-07-01T07:06:45Z</time>
      </trkpt>
      <trkpt lat="45.32788" lon="6.68994">
        <ele>1923.5</ele>
        <time>2018-07-01T07:06:48Z</time>
      </trkpt>
      <trkpt lat="45.32785" lon="6.68997">
        <ele>1922.8</ele>
        <time>2018-07-01T07:06:51Z</time>
      </trkpt>
      <trkpt lat="45.32783" lon="6.69">
        <ele>1922.3</ele>
        <time>2018-07-01T07:06:54Z</time>
      </trkpt>
      <trkpt lat="45.3278" lon="6.69003">
        <ele>1921.8</ele>
        <time>2018-07-01T07:06:57Z</time>
      </trkpt>
      <trkpt lat="45.32777" lon="6.69005">
        <ele>1921.2</ele>
        <time>2018-07-01T07:07:00Z</time>
      </trkpt>
      <trkpt lat="45.32775" lon="6.69009">
        <ele>1920.6</ele>
        <time>2018-07-01T07:07:03Z</time>
      </trkpt>
      <trkpt lat="45.32774" lon="6.69014">
        <ele>1920</ele>
        <time>2018-07-01T07:07:06Z</time>
      </trkpt>
      <trkpt lat="45.32773" lon="6.69017">
        <ele>1919.5</ele>
        <time>2018-07-01T07:07:09Z</time>
      </trkpt>
      <trkpt lat="45.3277" lon="6.69021">
        <ele>1918.9</ele>
        <time>2018-07-01T07:07:12Z</time>
      </trkpt>
      <trkpt lat="45.32768" lon="6.69024">
        <ele>1918.5</ele>
        <time>2018-07-01T07:07:14Z</time>
      </trkpt>
      <trkpt lat="45.32766" lon="6.69026">
        <ele>1918.1</ele>
        <time>2018-07-01T07:07:17Z</time>
      </trkpt>
      <trkpt lat="45.32764" lon="6.6903">
        <ele>1917.6</ele>
        <time>2018-07-01T07:07:20Z</time>
      </trkpt>
      <trkpt lat="45.32761" lon="6.69034">
        <ele>1917.1</ele>
        <time>2018-07-01T07:07:23Z</time>
      </trkpt>
      <trkpt lat="45.32758" lon="6.69036">
        <ele>1916.7</ele>
        <time>2018-07-01T07:07:25Z</time>
      </trkpt>
      <trkpt lat="45.32756" lon="6.69038">
        <ele>1916.5</ele>
        <time>2018-07-01T07:07:27Z</time>
      </trkpt>
      <trkpt lat="45.32752" lon="6.69042">
        <ele>1916.2</ele>
        <time>2018-07-01T07:07:30Z</time>
      </trkpt>
      <trkpt lat="45.32749" lon="6.69045">
        <ele>1916</ele>
        <time>2018-07-01T07:07:33Z</time>
      </trkpt>
      <trkpt lat="45.32746" lon="6.69048">
        <ele>1916</ele>
        <time>2018-07-01T07:07:35Z</time>
      </trkpt>
      <trkpt lat="45.32744" lon="6.69051">
        <ele>1916</ele>
        <time>2018-07-01T07:07:37Z</time>
      </trkpt>
      <trkpt lat="45.32741" lon="6.69053">
        <ele>1915.9</ele>
        <time>2018-07-01T07:07:40Z</time>
      </trkpt>
      <trkpt lat="45.32739" lon="6.69056">
        <ele>1915.9</ele>
        <time>2018-07-01T07:07:42Z</time>
      </trkpt>
      <trkpt lat="45.32736" lon="6.69059">
        <ele>1915.8</ele>
        <time>2018-07-01T07:07:45Z</time>
      </trkpt>
      <trkpt lat="45.32732" lon="6.6906">
        <ele>1915.7</ele>
        <time>2018-07-01T07:07:48Z</time>
      </trkpt>
      <trkpt lat="45.32729" lon="6.69062">
        <ele>1915.6</ele>
        <time>2018-07-01T07:07:51Z</time>
      </trkpt>
      <trkpt lat="45.32727" lon="6.69064">
        <ele>1915.5</ele>
        <time>2018-07-01T07:07:53Z</time>
      </trkpt>
      <trkpt lat="45.32724" lon="6.69068">
        <ele>1915.3</ele>
        <time>2018-07-01T07:07:56Z</time>
      </trkpt>
      <trkpt lat="45.32721" lon="6.69069">
        <ele>1915.1</ele>
        <time>2018-07-01T07:07:59Z</time>
      </trkpt>
      <trkpt lat="45.32718" lon="6.6907">
        <ele>1915</ele>
        <time>2018-07-01T07:08:31Z</time>
      </trkpt>
      <trkpt lat="45.32715" lon="6.69072">
        <ele>1914.9</ele>
        <time>2018-07-01T07:08:34Z</time>
      </trkpt>
      <trkpt lat="45.32711" lon="6.69074">
        <ele>1914.7</ele>
        <time>2018-07-01T07:08:37Z</time>
      </trkpt>
      <trkpt lat="45.32708" lon="6.69073">
        <ele>1914.6</ele>
        <time>2018-07-01T07:08:39Z</time>
      </trkpt>
      <trkpt lat="45.32705" lon="6.69073">
        <ele>1914.4</ele>
        <time>2018-07-01T07:08:42Z</time>
      </trkpt>
      <trkpt lat="45.32701" lon="6.69074">
        <ele>1914.4</ele>
        <time>2018-07-01T07:08:45Z</time>
      </trkpt>
      <trkpt lat="45.32698" lon="6.69073">
        <ele>1914.4</ele>
        <time>2018-07-01T07:08:47Z</time>
      </trkpt>
      <trkpt lat="45.32695" lon="6.69072">
        <ele>1914.3</ele>
        <time>2018-07-01T07:08:49Z</time>
      </trkpt>
      <trkpt lat="45.32693" lon="6.69071">
        <ele>1914.4</ele>
        <time>2018-07-01T07:08:51Z</time>
      </trkpt>
      <trkpt lat="45.32689" lon="6.69069">
        <ele>1914.4</ele>
        <time>2018-07-01T07:08:54Z</time>
      </trkpt>
      <trkpt lat="45.32686" lon="6.69068">
        <ele>1914.4</ele>
        <time>2018-07-01T07:08:56Z</time>
      </trkpt>
      <trkpt lat="45.32684" lon="6.69067">
        <ele>1914.6</ele>
        <time>2018-07-01T07:08:58Z</time>
      </trkpt>
      <trkpt lat="45.32681" lon="6.69065">
        <ele>1914.7</ele>
        <time>2018-07-01T07:09:00Z</time>
      </trkpt>
      <trkpt lat="45.32677" lon="6.69062">
        <ele>1914.9</ele>
        <time>2018-07-01T07:09:03Z</time>
      </trkpt>
      <trkpt lat="45.32675" lon="6.6906">
        <ele>1915.1</ele>
        <time>2018-07-01T07:09:05Z</time>
      </trkpt>
      <trkpt lat="45.32672" lon="6.69057">
        <ele>1915.3</ele>
        <time>2018-07-01T07:09:07Z</time>
      </trkpt>
      <trkpt lat="45.3267" lon="6.69053">
        <ele>1915.5</ele>
        <time>2018-07-01T07:09:09Z</time>
      </trkpt>
      <trkpt lat="45.32666" lon="6.69051">
        <ele>1915.7</ele>
        <time>2018-07-01T07:09:11Z</time>
      </trkpt>
      <trkpt lat="45.32664" lon="6.69051">
        <ele>1916</ele>
        <time>2018-07-01T07:09:14Z</time>
      </trkpt>
      <trkpt lat="45.32661" lon="6.6905">
        <ele>1916.4</ele>
        <time>2018-07-01T07:09:17Z</time>
      </trkpt>
      <trkpt lat="45.32657" lon="6.69047">
        <ele>1916.9</ele>
        <time>2018-07-01T07:09:20Z</time>
      </trkpt>
      <trkpt lat="45.32655" lon="6.69045">
        <ele>1917.2</ele>
        <time>2018-07-01T07:09:22Z</time>
      </trkpt>
      <trkpt lat="45.32652" lon="6.69043">
        <ele>1917.6</ele>
        <time>2018-07-01T07:09:24Z</time>
      </trkpt>
      <trkpt lat="45.32649" lon="6.69041">
        <ele>1917.9</ele>
        <time>2018-07-01T07:09:26Z</time>
      </trkpt>
      <trkpt lat="45.32647" lon="6.6904">
        <ele>1918.2</ele>
        <time>2018-07-01T07:09:28Z</time>
      </trkpt>
      <trkpt lat="45.32643" lon="6.69038">
        <ele>1918.6</ele>
        <time>2018-07-01T07:09:31Z</time>
      </trkpt>
      <trkpt lat="45.32641" lon="6.69037">
        <ele>1918.8</ele>
        <time>2018-07-01T07:09:33Z</time>
      </trkpt>
      <trkpt lat="45.32637" lon="6.69036">
        <ele>1919.1</ele>
        <time>2018-07-01T07:09:36Z</time>
      </trkpt>
      <trkpt lat="45.32634" lon="6.69035">
        <ele>1919.4</ele>
        <time>2018-07-01T07:09:38Z</time>
      </trkpt>
      <trkpt lat="45.32631" lon="6.69034">
        <ele>1919.7</ele>
        <time>2018-07-01T07:09:40Z</time>
      </trkpt>
      <trkpt lat="45.32629" lon="6.69033">
        <ele>1919.8</ele>
        <time>2018-07-01T07:09:42Z</time>
      </trkpt>
      <trkpt lat="45.32626" lon="6.69031">
        <ele>1919.9</ele>
        <time>2018-07-01T07:09:44Z</time>
      </trkpt>
      <trkpt lat="45.32623" lon="6.6903">
        <ele>1920</ele>
        <time>2018-07-01T07:09:46Z</time>
      </trkpt>
      <trkpt lat="45.3262" lon="6.69029">
        <ele>1920.3</ele>
        <time>2018-07-01T07:09:48Z</time>
      </trkpt>
      <trkpt lat="45.32618" lon="6.69028">
        <ele>1920.5</ele>
        <time>2018-07-01T07:09:50Z</time>
      </trkpt>
      <trkpt lat="45.32615" lon="6.69027">
        <ele>1920.8</ele>
        <time>2018-07-01T07:09:52Z</time>
      </trkpt>
      <trkpt lat="45.32612" lon="6.69027">
        <ele>1921</ele>
        <time>2018-07-01T07:09:54Z</time>
      </trkpt>
      <trkpt lat="45.32609" lon="6.69026">
        <ele>1921.2</ele>
        <time>2018-07-01T07:09:57Z</time>
      </trkpt>
      <trkpt lat="45.32606" lon="6.69025">
        <ele>1921.5</ele>
        <time>2018-07-01T07:10:00Z</time>
      </trkpt>
      <trkpt lat="45.32603" lon="6.69025">
        <ele>1921.5</ele>
        <time>2018-07-01T07:10:02Z</time>
      </trkpt>
      <trkpt lat="45.326" lon="6.69024">
        <ele>1921.5</ele>
        <time>2018-07-01T07:10:04Z</time>
      </trkpt>
      <trkpt lat="45.32597" lon="6.69023">
        <ele>1921.6</ele>
        <time>2018-07-01T07:10:06Z</time>
      </trkpt>
      <trkpt lat="45.32594" lon="6.69022">
        <ele>1921.7</ele>
        <time>2018-07-01T07:10:08Z</time>
      </trkpt>
      <trkpt lat="45.32591" lon="6.6902">
        <ele>1921.8</ele>
        <time>2018-07-01T07:10:10Z</time>
      </trkpt>
      <trkpt lat="45.32588" lon="6.69018">
        <ele>1921.9</ele>
        <time>2018-07-01T07:10:13Z</time>
      </trkpt>
      <trkpt lat="45.32585" lon="6.69016">
        <ele>1921.8</ele>
        <time>2018-07-01T07:10:16Z</time>
      </trkpt>
      <trkpt lat="45.32582" lon="6.69014">
        <ele>1921.6</ele>
        <time>2018-07-01T07:10:19Z</time>
      </trkpt>
      <trkpt lat="45.32578" lon="6.69012">
        <ele>1921.5</ele>
        <time>2018-07-01T07:10:22Z</time>
      </trkpt>
      <trkpt lat="45.32575" lon="6.6901">
        <ele>1921.4</ele>
        <time>2018-07-01T07:10:25Z</time>
      </trkpt>
      <trkpt lat="45.32572" lon="6.69008">
        <ele>1921.4</ele>
        <time>2018-07-01T07:10:28Z</time>
      </trkpt>
      <trkpt lat="45.32569" lon="6.69006">
        <ele>1921.4</ele>
        <time>2018-07-01T07:10:31Z</time>
      </trkpt>
      <trkpt lat="45.32566" lon="6.69003">
        <ele>1921.4</ele>
        <time>2018-07-01T07:10:34Z</time>
      </trkpt>
      <trkpt lat="45.32564" lon="6.69">
        <ele>1921.3</ele>
        <time>2018-07-01T07:10:36Z</time>
      </trkpt>
      <trkpt lat="45.3256" lon="6.68998">
        <ele>1921.3</ele>
        <time>2018-07-01T07:10:39Z</time>
      </trkpt>
      <trkpt lat="45.32557" lon="6.68996">
        <ele>1921.2</ele>
        <time>2018-07-01T07:10:42Z</time>
      </trkpt>
      <trkpt lat="45.32554" lon="6.68993">
        <ele>1921</ele>
        <time>2018-07-01T07:10:45Z</time>
      </trkpt>
      <trkpt lat="45.32551" lon="6.6899">
        <ele>1920.9</ele>
        <time>2018-07-01T07:10:48Z</time>
      </trkpt>
      <trkpt lat="45.32548" lon="6.68986">
        <ele>1920.7</ele>
        <time>2018-07-01T07:10:51Z</time>
      </trkpt>
      <trkpt lat="45.32546" lon="6.68983">
        <ele>1920.5</ele>
        <time>2018-07-01T07:10:53Z</time>
      </trkpt>
      <trkpt lat="45.32543" lon="6.6898">
        <ele>1920.3</ele>
        <time>2018-07-01T07:10:56Z</time>
      </trkpt>
      <trkpt lat="45.32541" lon="6.68978">
        <ele>1920.2</ele>
        <time>2018-07-01T07:10:58Z</time>
      </trkpt>
      <trkpt lat="45.32538" lon="6.68976">
        <ele>1920</ele>
        <time>2018-07-01T07:11:00Z</time>
      </trkpt>
      <trkpt lat="45.32535" lon="6.68973">
        <ele>1919.9</ele>
        <time>2018-07-01T07:11:03Z</time>
      </trkpt>
      <trkpt lat="45.32532" lon="6.68972">
        <ele>1919.7</ele>
        <time>2018-07-01T07:11:06Z</time>
      </trkpt>
      <trkpt lat="45.32528" lon="6.68971">
        <ele>1919.3</ele>
        <time>2018-07-01T07:11:09Z</time>
      </trkpt>
      <trkpt lat="45.32525" lon="6.6897">
        <ele>1918.9</ele>
        <time>2018-07-01T07:11:12Z</time>
      </trkpt>
      <trkpt lat="45.3252" lon="6.68969">
        <ele>1918.6</ele>
        <time>2018-07-01T07:11:15Z</time>
      </trkpt>
      <trkpt lat="45.32517" lon="6.68969">
        <ele>1918.4</ele>
        <time>2018-07-01T07:11:17Z</time>
      </trkpt>
      <trkpt lat="45.32513" lon="6.68967">
        <ele>1918.1</ele>
        <time>2018-07-01T07:11:20Z</time>
      </trkpt>
      <trkpt lat="45.3251" lon="6.68965">
        <ele>1917.9</ele>
        <time>2018-07-01T07:11:23Z</time>
      </trkpt>
      <trkpt lat="45.32507" lon="6.68964">
        <ele>1917.6</ele>
        <time>2018-07-01T07:11:26Z</time>
      </trkpt>
      <trkpt lat="45.32504" lon="6.68961">
        <ele>1917.4</ele>
        <time>2018-07-01T07:11:30Z</time>
      </trkpt>
      <trkpt lat="45.32501" lon="6.68959">
        <ele>1917.2</ele>
        <time>2018-07-01T07:11:34Z</time>
      </trkpt>
      <trkpt lat="45.32497" lon="6.68959">
        <ele>1916.9</ele>
        <time>2018-07-01T07:11:37Z</time>
      </trkpt>
      <trkpt lat="45.32494" lon="6.68959">
        <ele>1916.6</ele>
        <time>2018-07-01T07:11:40Z</time>
      </trkpt>
      <trkpt lat="45.32491" lon="6.68959">
        <ele>1916.6</ele>
        <time>2018-07-01T07:11:43Z</time>
      </trkpt>
      <trkpt lat="45.32487" lon="6.6896">
        <ele>1916.6</ele>
        <time>2018-07-01T07:11:46Z</time>
      </trkpt>
      <trkpt lat="45.32484" lon="6.6896">
        <ele>1916.5</ele>
        <time>2018-07-01T07:11:50Z</time>
      </trkpt>
      <trkpt lat="45.32481" lon="6.68959">
        <ele>1916.5</ele>
        <time>2018-07-01T07:11:53Z</time>
      </trkpt>
      <trkpt lat="45.32478" lon="6.68957">
        <ele>1916.5</ele>
        <time>2018-07-01T07:11:56Z</time>
      </trkpt>
      <trkpt lat="45.32475" lon="6.68956">
        <ele>1916.6</ele>
        <time>2018-07-01T07:11:59Z</time>
      </trkpt>
      <trkpt lat="45.32471" lon="6.68954">
        <ele>1916.8</ele>
        <time>2018-07-01T07:12:03Z</time>
      </trkpt>
      <trkpt lat="45.32468" lon="6.68951">
        <ele>1917.1</ele>
        <time>2018-07-01T07:12:06Z</time>
      </trkpt>
      <trkpt lat="45.32466" lon="6.68948">
        <ele>1917.4</ele>
        <time>2018-07-01T07:12:10Z</time>
      </trkpt>
      <trkpt lat="45.32463" lon="6.68946">
        <ele>1917.7</ele>
        <time>2018-07-01T07:12:13Z</time>
      </trkpt>
      <trkpt lat="45.32461" lon="6.68943">
        <ele>1918</ele>
        <time>2018-07-01T07:12:17Z</time>
      </trkpt>
      <trkpt lat="45.32458" lon="6.68939">
        <ele>1918.3</ele>
        <time>2018-07-01T07:12:30Z</time>
      </trkpt>
      <trkpt lat="45.32456" lon="6.68936">
        <ele>1918.6</ele>
        <time>2018-07-01T07:12:33Z</time>
      </trkpt>
      <trkpt lat="45.32455" lon="6.68933">
        <ele>1918.8</ele>
        <time>2018-07-01T07:12:36Z</time>
      </trkpt>
      <trkpt lat="45.32452" lon="6.68929">
        <ele>1919.2</ele>
        <time>2018-07-01T07:12:40Z</time>
      </trkpt>
      <trkpt lat="45.3245" lon="6.68926">
        <ele>1919.4</ele>
        <time>2018-07-01T07:12:44Z</time>
      </trkpt>
      <trkpt lat="45.32447" lon="6.68922">
        <ele>1919.7</ele>
        <time>2018-07-01T07:12:49Z</time>
      </trkpt>
      <trkpt lat="45.32444" lon="6.6892">
        <ele>1919.8</ele>
        <time>2018-07-01T07:12:52Z</time>
      </trkpt>
      <trkpt lat="45.32441" lon="6.68919">
        <ele>1920</ele>
        <time>2018-07-01T07:12:56Z</time>
      </trkpt>
      <trkpt lat="45.32438" lon="6.68917">
        <ele>1920.2</ele>
        <time>2018-07-01T07:13:00Z</time>
      </trkpt>
      <trkpt lat="45.32434" lon="6.68915">
        <ele>1920.4</ele>
        <time>2018-07-01T07:13:04Z</time>
      </trkpt>
      <trkpt lat="45.32431" lon="6.68914">
        <ele>1920.6</ele>
        <time>2018-07-01T07:13:07Z</time>
      </trkpt>
      <trkpt lat="45.32428" lon="6.68911">
        <ele>1920.9</ele>
        <time>2018-07-01T07:13:11Z</time>
      </trkpt>
      <trkpt lat="45.32426" lon="6.68909">
        <ele>1921.1</ele>
        <time>2018-07-01T07:13:16Z</time>
      </trkpt>
      <trkpt lat="45.32423" lon="6.68906">
        <ele>1921.3</ele>
        <time>2018-07-01T07:13:20Z</time>
      </trkpt>
      <trkpt lat="45.3242" lon="6.68905">
        <ele>1921.5</ele>
        <time>2018-07-01T07:13:22Z</time>
      </trkpt>
      <trkpt lat="45.32418" lon="6.68904">
        <ele>1921.7</ele>
        <time>2018-07-01T07:13:24Z</time>
      </trkpt>
      <trkpt lat="45.32414" lon="6.68902">
        <ele>1922</ele>
        <time>2018-07-01T07:13:27Z</time>
      </trkpt>
      <trkpt lat="45.3241" lon="6.689">
        <ele>1922.2</ele>
        <time>2018-07-01T07:13:30Z</time>
      </trkpt>
      <trkpt lat="45.32407" lon="6.68897">
        <ele>1922.4</ele>
        <time>2018-07-01T07:13:33Z</time>
      </trkpt>
      <trkpt lat="45.32404" lon="6.68896">
        <ele>1922.6</ele>
        <time>2018-07-01T07:13:35Z</time>
      </trkpt>
      <trkpt lat="45.32401" lon="6.68894">
        <ele>1922.8</ele>
        <time>2018-07-01T07:13:38Z</time>
      </trkpt>
      <trkpt lat="45.32398" lon="6.68893">
        <ele>1923</ele>
        <time>2018-07-01T07:13:40Z</time>
      </trkpt>
      <trkpt lat="45.32396" lon="6.68891">
        <ele>1923.2</ele>
        <time>2018-07-01T07:13:43Z</time>
      </trkpt>
      <trkpt lat="45.32393" lon="6.68888">
        <ele>1923.5</ele>
        <time>2018-07-01T07:13:46Z</time>
      </trkpt>
      <trkpt lat="45.32389" lon="6.68888">
        <ele>1923.8</ele>
        <time>2018-07-01T07:13:49Z</time>
      </trkpt>
      <trkpt lat="45.32386" lon="6.68889">
        <ele>1924</ele>
        <time>2018-07-01T07:13:51Z</time>
      </trkpt>
      <trkpt lat="45.32385" lon="6.68886">
        <ele>1924.1</ele>
        <time>2018-07-01T07:13:56Z</time>
      </trkpt>
      <trkpt lat="45.32382" lon="6.68885">
        <ele>1924.3</ele>
        <time>2018-07-01T07:14:00Z</time>
      </trkpt>
      <trkpt lat="45.32378" lon="6.68886">
        <ele>1924.5</ele>
        <time>2018-07-01T07:14:03Z</time>
      </trkpt>
      <trkpt lat="45.32374" lon="6.68887">
        <ele>1924.7</ele>
        <time>2018-07-01T07:14:06Z</time>
      </trkpt>
      <trkpt lat="45.32371" lon="6.68887">
        <ele>1925</ele>
        <time>2018-07-01T07:14:09Z</time>
      </trkpt>
      <trkpt lat="45.32367" lon="6.68888">
        <ele>1925.3</ele>
        <time>2018-07-01T07:14:11Z</time>
      </trkpt>
      <trkpt lat="45.32364" lon="6.68889">
        <ele>1925.6</ele>
        <time>2018-07-01T07:14:14Z</time>
      </trkpt>
      <trkpt lat="45.3236" lon="6.6889">
        <ele>1925.8</ele>
        <time>2018-07-01T07:14:18Z</time>
      </trkpt>
      <trkpt lat="45.32356" lon="6.68891">
        <ele>1925.9</ele>
        <time>2018-07-01T07:14:22Z</time>
      </trkpt>
      <trkpt lat="45.32353" lon="6.68892">
        <ele>1926</ele>
        <time>2018-07-01T07:14:24Z</time>
      </trkpt>
      <trkpt lat="45.32351" lon="6.68892">
        <ele>1926.1</ele>
        <time>2018-07-01T07:14:26Z</time>
      </trkpt>
      <trkpt lat="45.32347" lon="6.68893">
        <ele>1926.2</ele>
        <time>2018-07-01T07:14:28Z</time>
      </trkpt>
      <trkpt lat="45.32344" lon="6.68893">
        <ele>1926.3</ele>
        <time>2018-07-01T07:14:31Z</time>
      </trkpt>
      <trkpt lat="45.32341" lon="6.68893">
        <ele>1926.3</ele>
        <time>2018-07-01T07:14:33Z</time>
      </trkpt>
      <trkpt lat="45.32338" lon="6.68893">
        <ele>1926.4</ele>
        <time>2018-07-01T07:14:35Z</time>
      </trkpt>
      <trkpt lat="45.32335" lon="6.68894">
        <ele>1926.5</ele>
        <time>2018-07-01T07:14:37Z</time>
      </trkpt>
      <trkpt lat="45.32331" lon="6.68893">
        <ele>1926.6</ele>
        <time>2018-07-01T07:14:39Z</time>
      </trkpt>
      <trkpt lat="45.32328" lon="6.68891">
        <ele>1926.7</ele>
        <time>2018-07-01T07:14:42Z</time>
      </trkpt>
      <trkpt lat="45.32325" lon="6.68889">
        <ele>1926.8</ele>
        <time>2018-07-01T07:14:45Z</time>
      </trkpt>
      <trkpt lat="45.32323" lon="6.68886">
        <ele>1926.9</ele>
        <time>2018-07-01T07:14:48Z</time>
      </trkpt>
      <trkpt lat="45.3232" lon="6.68883">
        <ele>1927</ele>
        <time>2018-07-01T07:14:51Z</time>
      </trkpt>
      <trkpt lat="45.32317" lon="6.68881">
        <ele>1927.2</ele>
        <time>2018-07-01T07:14:54Z</time>
      </trkpt>
      <trkpt lat="45.32314" lon="6.68878">
        <ele>1927.4</ele>
        <time>2018-07-01T07:14:57Z</time>
      </trkpt>
      <trkpt lat="45.32312" lon="6.68874">
        <ele>1927.7</ele>
        <time>2018-07-01T07:15:00Z</time>
      </trkpt>
      <trkpt lat="45.3231" lon="6.68871">
        <ele>1927.9</ele>
        <time>2018-07-01T07:15:03Z</time>
      </trkpt>
      <trkpt lat="45.32308" lon="6.68868">
        <ele>1928.2</ele>
        <time>2018-07-01T07:15:06Z</time>
      </trkpt>
      <trkpt lat="45.32305" lon="6.68865">
        <ele>1928.5</ele>
        <time>2018-07-01T07:15:09Z</time>
      </trkpt>
      <trkpt lat="45.32301" lon="6.68863">
        <ele>1928.6</ele>
        <time>2018-07-01T07:15:12Z</time>
      </trkpt>
      <trkpt lat="45.32298" lon="6.68861">
        <ele>1928.7</ele>
        <time>2018-07-01T07:15:15Z</time>
      </trkpt>
      <trkpt lat="45.32295" lon="6.68859">
        <ele>1928.7</ele>
        <time>2018-07-01T07:15:18Z</time>
      </trkpt>
      <trkpt lat="45.32292" lon="6.68856">
        <ele>1928.7</ele>
        <time>2018-07-01T07:15:21Z</time>
      </trkpt>
      <trkpt lat="45.32289" lon="6.68853">
        <ele>1928.8</ele>
        <time>2018-07-01T07:15:24Z</time>
      </trkpt>
      <trkpt lat="45.32285" lon="6.68852">
        <ele>1928.7</ele>
        <time>2018-07-01T07:15:27Z</time>
      </trkpt>
      <trkpt lat="45.32281" lon="6.68851">
        <ele>1928.7</ele>
        <time>2018-07-01T07:15:30Z</time>
      </trkpt>
      <trkpt lat="45.32277" lon="6.6885">
        <ele>1928.6</ele>
        <time>2018-07-01T07:15:33Z</time>
      </trkpt>
      <trkpt lat="45.32273" lon="6.68849">
        <ele>1928.5</ele>
        <time>2018-07-01T07:15:36Z</time>
      </trkpt>
      <trkpt lat="45.32271" lon="6.68847">
        <ele>1928.5</ele>
        <time>2018-07-01T07:15:39Z</time>
      </trkpt>
      <trkpt lat="45.32268" lon="6.68844">
        <ele>1928.5</ele>
        <time>2018-07-01T07:15:42Z</time>
      </trkpt>
      <trkpt lat="45.32265" lon="6.68843">
        <ele>1928.5</ele>
        <time>2018-07-01T07:15:45Z</time>
      </trkpt>
      <trkpt lat="45.32262" lon="6.68841">
        <ele>1928.6</ele>
        <time>2018-07-01T07:15:48Z</time>
      </trkpt>
      <trkpt lat="45.3226" lon="6.68839">
        <ele>1928.7</ele>
        <time>2018-07-01T07:15:51Z</time>
      </trkpt>
      <trkpt lat="45.32257" lon="6.68838">
        <ele>1928.8</ele>
        <time>2018-07-01T07:15:54Z</time>
      </trkpt>
      <trkpt lat="45.32254" lon="6.68836">
        <ele>1929</ele>
        <time>2018-07-01T07:15:58Z</time>
      </trkpt>
      <trkpt lat="45.32251" lon="6.68833">
        <ele>1929</ele>
        <time>2018-07-01T07:16:02Z</time>
      </trkpt>
      <trkpt lat="45.32247" lon="6.68831">
        <ele>1929.1</ele>
        <time>2018-07-01T07:16:05Z</time>
      </trkpt>
      <trkpt lat="45.32245" lon="6.68829">
        <ele>1929.3</ele>
        <time>2018-07-01T07:16:08Z</time>
      </trkpt>
      <trkpt lat="45.32242" lon="6.68827">
        <ele>1929.4</ele>
        <time>2018-07-01T07:16:11Z</time>
      </trkpt>
      <trkpt lat="45.32239" lon="6.68824">
        <ele>1929.6</ele>
        <time>2018-07-01T07:16:14Z</time>
      </trkpt>
      <trkpt lat="45.32236" lon="6.68823">
        <ele>1929.7</ele>
        <time>2018-07-01T07:16:17Z</time>
      </trkpt>
      <trkpt lat="45.32233" lon="6.68822">
        <ele>1929.8</ele>
        <time>2018-07-01T07:16:20Z</time>
      </trkpt>
      <trkpt lat="45.32229" lon="6.6882">
        <ele>1930</ele>
        <time>2018-07-01T07:16:23Z</time>
      </trkpt>
      <trkpt lat="45.32226" lon="6.68819">
        <ele>1930.2</ele>
        <time>2018-07-01T07:16:26Z</time>
      </trkpt>
      <trkpt lat="45.32223" lon="6.68818">
        <ele>1930.4</ele>
        <time>2018-07-01T07:16:29Z</time>
      </trkpt>
      <trkpt lat="45.3222" lon="6.68816">
        <ele>1930.6</ele>
        <time>2018-07-01T07:16:32Z</time>
      </trkpt>
      <trkpt lat="45.32217" lon="6.68814">
        <ele>1930.9</ele>
        <time>2018-07-01T07:16:36Z</time>
      </trkpt>
      <trkpt lat="45.32214" lon="6.68813">
        <ele>1931.1</ele>
        <time>2018-07-01T07:16:39Z</time>
      </trkpt>
      <trkpt lat="45.32211" lon="6.68812">
        <ele>1931.1</ele>
        <time>2018-07-01T07:16:42Z</time>
      </trkpt>
      <trkpt lat="45.32209" lon="6.6881">
        <ele>1931</ele>
        <time>2018-07-01T07:16:45Z</time>
      </trkpt>
      <trkpt lat="45.32206" lon="6.6881">
        <ele>1931.1</ele>
        <time>2018-07-01T07:16:48Z</time>
      </trkpt>
      <trkpt lat="45.32203" lon="6.68809">
        <ele>1931.4</ele>
        <time>2018-07-01T07:16:51Z</time>
      </trkpt>
      <trkpt lat="45.32199" lon="6.68808">
        <ele>1931.7</ele>
        <time>2018-07-01T07:16:55Z</time>
      </trkpt>
      <trkpt lat="45.32196" lon="6.68808">
        <ele>1932.1</ele>
        <time>2018-07-01T07:16:57Z</time>
      </trkpt>
      <trkpt lat="45.32192" lon="6.68807">
        <ele>1932.4</ele>
        <time>2018-07-01T07:17:01Z</time>
      </trkpt>
      <trkpt lat="45.32189" lon="6.68806">
        <ele>1932.8</ele>
        <time>2018-07-01T07:17:04Z</time>
      </trkpt>
      <trkpt lat="45.32186" lon="6.68804">
        <ele>1933.1</ele>
        <time>2018-07-01T07:17:07Z</time>
      </trkpt>
      <trkpt lat="45.32182" lon="6.68802">
        <ele>1933.4</ele>
        <time>2018-07-01T07:17:10Z</time>
      </trkpt>
      <trkpt lat="45.32179" lon="6.688">
        <ele>1933.5</ele>
        <time>2018-07-01T07:17:13Z</time>
      </trkpt>
      <trkpt lat="45.32177" lon="6.68797">
        <ele>1933.6</ele>
        <time>2018-07-01T07:17:22Z</time>
      </trkpt>
      <trkpt lat="45.32174" lon="6.68795">
        <ele>1933.7</ele>
        <time>2018-07-01T07:17:26Z</time>
      </trkpt>
      <trkpt lat="45.32172" lon="6.68794">
        <ele>1934</ele>
        <time>2018-07-01T07:17:29Z</time>
      </trkpt>
      <trkpt lat="45.32168" lon="6.68793">
        <ele>1934.3</ele>
        <time>2018-07-01T07:17:32Z</time>
      </trkpt>
      <trkpt lat="45.32165" lon="6.68792">
        <ele>1934.7</ele>
        <time>2018-07-01T07:17:35Z</time>
      </trkpt>
      <trkpt lat="45.32162" lon="6.68791">
        <ele>1934.9</ele>
        <time>2018-07-01T07:17:38Z</time>
      </trkpt>
      <trkpt lat="45.32158" lon="6.68789">
        <ele>1935.3</ele>
        <time>2018-07-01T07:17:41Z</time>
      </trkpt>
      <trkpt lat="45.32155" lon="6.68787">
        <ele>1935.5</ele>
        <time>2018-07-01T07:17:44Z</time>
      </trkpt>
      <trkpt lat="45.32151" lon="6.68786">
        <ele>1935.7</ele>
        <time>2018-07-01T07:17:47Z</time>
      </trkpt>
      <trkpt lat="45.32148" lon="6.68786">
        <ele>1936.1</ele>
        <time>2018-07-01T07:17:50Z</time>
      </trkpt>
      <trkpt lat="45.32145" lon="6.68785">
        <ele>1936.5</ele>
        <time>2018-07-01T07:17:53Z</time>
      </trkpt>
      <trkpt lat="45.32142" lon="6.68783">
        <ele>1936.9</ele>
        <time>2018-07-01T07:17:56Z</time>
      </trkpt>
      <trkpt lat="45.32139" lon="6.68782">
        <ele>1937.4</ele>
        <time>2018-07-01T07:17:59Z</time>
      </trkpt>
      <trkpt lat="45.32136" lon="6.6878">
        <ele>1937.8</ele>
        <time>2018-07-01T07:18:02Z</time>
      </trkpt>
      <trkpt lat="45.32134" lon="6.68777">
        <ele>1938.3</ele>
        <time>2018-07-01T07:18:05Z</time>
      </trkpt>
      <trkpt lat="45.32131" lon="6.68775">
        <ele>1938.7</ele>
        <time>2018-07-01T07:18:08Z</time>
      </trkpt>
      <trkpt lat="45.32129" lon="6.68772">
        <ele>1939.1</ele>
        <time>2018-07-01T07:18:11Z</time>
      </trkpt>
      <trkpt lat="45.32125" lon="6.6877">
        <ele>1939.5</ele>
        <time>2018-07-01T07:18:15Z</time>
      </trkpt>
      <trkpt lat="45.32123" lon="6.68767">
        <ele>1939.9</ele>
        <time>2018-07-01T07:18:18Z</time>
      </trkpt>
      <trkpt lat="45.3212" lon="6.68765">
        <ele>1940.5</ele>
        <time>2018-07-01T07:18:21Z</time>
      </trkpt>
      <trkpt lat="45.32117" lon="6.68764">
        <ele>1941.1</ele>
        <time>2018-07-01T07:18:24Z</time>
      </trkpt>
      <trkpt lat="45.32115" lon="6.68763">
        <ele>1941</ele>
        <time>2018-07-01T07:18:27Z</time>
      </trkpt>
      <trkpt lat="45.32111" lon="6.68761">
        <ele>1940.9</ele>
        <time>2018-07-01T07:18:30Z</time>
      </trkpt>
      <trkpt lat="45.32108" lon="6.6876">
        <ele>1941.1</ele>
        <time>2018-07-01T07:18:33Z</time>
      </trkpt>
      <trkpt lat="45.32105" lon="6.68759">
        <ele>1941.4</ele>
        <time>2018-07-01T07:18:36Z</time>
      </trkpt>
      <trkpt lat="45.32102" lon="6.68757">
        <ele>1941.4</ele>
        <time>2018-07-01T07:18:39Z</time>
      </trkpt>
      <trkpt lat="45.32099" lon="6.68755">
        <ele>1941.2</ele>
        <time>2018-07-01T07:18:43Z</time>
      </trkpt>
      <trkpt lat="45.32096" lon="6.68754">
        <ele>1941.6</ele>
        <time>2018-07-01T07:18:46Z</time>
      </trkpt>
      <trkpt lat="45.32093" lon="6.68752">
        <ele>1942.1</ele>
        <time>2018-07-01T07:18:49Z</time>
      </trkpt>
      <trkpt lat="45.3209" lon="6.68749">
        <ele>1942.7</ele>
        <time>2018-07-01T07:18:52Z</time>
      </trkpt>
      <trkpt lat="45.32087" lon="6.68747">
        <ele>1943</ele>
        <time>2018-07-01T07:18:55Z</time>
      </trkpt>
      <trkpt lat="45.32085" lon="6.68745">
        <ele>1943.3</ele>
        <time>2018-07-01T07:18:58Z</time>
      </trkpt>
      <trkpt lat="45.32082" lon="6.68742">
        <ele>1943.6</ele>
        <time>2018-07-01T07:19:01Z</time>
      </trkpt>
      <trkpt lat="45.32079" lon="6.68739">
        <ele>1943.9</ele>
        <time>2018-07-01T07:19:04Z</time>
      </trkpt>
      <trkpt lat="45.32076" lon="6.68737">
        <ele>1944.2</ele>
        <time>2018-07-01T07:19:07Z</time>
      </trkpt>
      <trkpt lat="45.32072" lon="6.68736">
        <ele>1944.6</ele>
        <time>2018-07-01T07:19:10Z</time>
      </trkpt>
      <trkpt lat="45.32069" lon="6.68736">
        <ele>1944.8</ele>
        <time>2018-07-01T07:19:12Z</time>
      </trkpt>
      <trkpt lat="45.32066" lon="6.68735">
        <ele>1944.8</ele>
        <time>2018-07-01T07:19:15Z</time>
      </trkpt>
      <trkpt lat="45.32063" lon="6.68735">
        <ele>1944.7</ele>
        <time>2018-07-01T07:19:17Z</time>
      </trkpt>
      <trkpt lat="45.3206" lon="6.68734">
        <ele>1944.8</ele>
        <time>2018-07-01T07:19:20Z</time>
      </trkpt>
      <trkpt lat="45.32057" lon="6.68733">
        <ele>1945.1</ele>
        <time>2018-07-01T07:19:23Z</time>
      </trkpt>
      <trkpt lat="45.32053" lon="6.68732">
        <ele>1945.2</ele>
        <time>2018-07-01T07:19:26Z</time>
      </trkpt>
      <trkpt lat="45.32051" lon="6.68731">
        <ele>1945</ele>
        <time>2018-07-01T07:19:28Z</time>
      </trkpt>
      <trkpt lat="45.32048" lon="6.68729">
        <ele>1944.9</ele>
        <time>2018-07-01T07:19:31Z</time>
      </trkpt>
      <trkpt lat="45.32045" lon="6.68726">
        <ele>1945.3</ele>
        <time>2018-07-01T07:19:34Z</time>
      </trkpt>
      <trkpt lat="45.32042" lon="6.68722">
        <ele>1945.7</ele>
        <time>2018-07-01T07:19:37Z</time>
      </trkpt>
      <trkpt lat="45.3204" lon="6.6872">
        <ele>1946</ele>
        <time>2018-07-01T07:19:40Z</time>
      </trkpt>
      <trkpt lat="45.32037" lon="6.68717">
        <ele>1946.1</ele>
        <time>2018-07-01T07:19:43Z</time>
      </trkpt>
      <trkpt lat="45.32035" lon="6.68714">
        <ele>1946.2</ele>
        <time>2018-07-01T07:19:46Z</time>
      </trkpt>
      <trkpt lat="45.32032" lon="6.68709">
        <ele>1946.6</ele>
        <time>2018-07-01T07:19:49Z</time>
      </trkpt>
      <trkpt lat="45.3203" lon="6.68706">
        <ele>1946.9</ele>
        <time>2018-07-01T07:19:52Z</time>
      </trkpt>
      <trkpt lat="45.32027" lon="6.68703">
        <ele>1947</ele>
        <time>2018-07-01T07:19:55Z</time>
      </trkpt>
      <trkpt lat="45.32024" lon="6.68701">
        <ele>1947</ele>
        <time>2018-07-01T07:19:58Z</time>
      </trkpt>
      <trkpt lat="45.32022" lon="6.68698">
        <ele>1947.2</ele>
        <time>2018-07-01T07:20:01Z</time>
      </trkpt>
      <trkpt lat="45.32019" lon="6.68696">
        <ele>1947.6</ele>
        <time>2018-07-01T07:20:04Z</time>
      </trkpt>
      <trkpt lat="45.32016" lon="6.68693">
        <ele>1947.8</ele>
        <time>2018-07-01T07:20:07Z</time>
      </trkpt>
      <trkpt lat="45.32014" lon="6.6869">
        <ele>1947.8</ele>
        <time>2018-07-01T07:20:10Z</time>
      </trkpt>
      <trkpt lat="45.32011" lon="6.68687">
        <ele>1947.9</ele>
        <time>2018-07-01T07:20:13Z</time>
      </trkpt>
      <trkpt lat="45.32008" lon="6.68685">
        <ele>1948</ele>
        <time>2018-07-01T07:20:16Z</time>
      </trkpt>
      <trkpt lat="45.32005" lon="6.68683">
        <ele>1948</ele>
        <time>2018-07-01T07:20:18Z</time>
      </trkpt>
      <trkpt lat="45.32002" lon="6.68681">
        <ele>1948.4</ele>
        <time>2018-07-01T07:20:21Z</time>
      </trkpt>
      <trkpt lat="45.31999" lon="6.6868">
        <ele>1948.9</ele>
        <time>2018-07-01T07:20:24Z</time>
      </trkpt>
      <trkpt lat="45.31996" lon="6.68679">
        <ele>1949.1</ele>
        <time>2018-07-01T07:20:28Z</time>
      </trkpt>
      <trkpt lat="45.31993" lon="6.68678">
        <ele>1949</ele>
        <time>2018-07-01T07:20:32Z</time>
      </trkpt>
      <trkpt lat="45.3199" lon="6.68676">
        <ele>1948.9</ele>
        <time>2018-07-01T07:20:35Z</time>
      </trkpt>
      <trkpt lat="45.31988" lon="6.68673">
        <ele>1948.9</ele>
        <time>2018-07-01T07:20:38Z</time>
      </trkpt>
      <trkpt lat="45.31986" lon="6.6867">
        <ele>1948.9</ele>
        <time>2018-07-01T07:20:42Z</time>
      </trkpt>
      <trkpt lat="45.31984" lon="6.68667">
        <ele>1949</ele>
        <time>2018-07-01T07:20:45Z</time>
      </trkpt>
      <trkpt lat="45.31981" lon="6.68663">
        <ele>1949</ele>
        <time>2018-07-01T07:20:48Z</time>
      </trkpt>
      <trkpt lat="45.31981" lon="6.68659">
        <ele>1949.1</ele>
        <time>2018-07-01T07:20:51Z</time>
      </trkpt>
      <trkpt lat="45.31979" lon="6.68656">
        <ele>1949.1</ele>
        <time>2018-07-01T07:20:54Z</time>
      </trkpt>
      <trkpt lat="45.31977" lon="6.68653">
        <ele>1949.1</ele>
        <time>2018-07-01T07:20:57Z</time>
      </trkpt>
      <trkpt lat="45.31974" lon="6.68649">
        <ele>1949</ele>
        <time>2018-07-01T07:21:00Z</time>
      </trkpt>
      <trkpt lat="45.31971" lon="6.68647">
        <ele>1949</ele>
        <time>2018-07-01T07:21:02Z</time>
      </trkpt>
      <trkpt lat="45.31969" lon="6.68644">
        <ele>1949.3</ele>
        <time>2018-07-01T07:21:05Z</time>
      </trkpt>
      <trkpt lat="45.31966" lon="6.68641">
        <ele>1949.5</ele>
        <time>2018-07-01T07:21:08Z</time>
      </trkpt>
      <trkpt lat="45.31964" lon="6.68637">
        <ele>1949.8</ele>
        <time>2018-07-01T07:21:11Z</time>
      </trkpt>
      <trkpt lat="45.31961" lon="6.68634">
        <ele>1950.5</ele>
        <time>2018-07-01T07:21:14Z</time>
      </trkpt>
      <trkpt lat="45.31959" lon="6.68631">
        <ele>1951.3</ele>
        <time>2018-07-01T07:21:16Z</time>
      </trkpt>
      <trkpt lat="45.31957" lon="6.68629">
        <ele>1951.6</ele>
        <time>2018-07-01T07:21:18Z</time>
      </trkpt>
      <trkpt lat="45.31954" lon="6.68627">
        <ele>1951.9</ele>
        <time>2018-07-01T07:21:20Z</time>
      </trkpt>
      <trkpt lat="45.31951" lon="6.68625">
        <ele>1952</ele>
        <time>2018-07-01T07:21:23Z</time>
      </trkpt>
      <trkpt lat="45.31948" lon="6.68623">
        <ele>1952</ele>
        <time>2018-07-01T07:21:26Z</time>
      </trkpt>
      <trkpt lat="45.31945" lon="6.6862">
        <ele>1951.9</ele>
        <time>2018-07-01T07:21:29Z</time>
      </trkpt>
      <trkpt lat="45.31942" lon="6.68619">
        <ele>1951.8</ele>
        <time>2018-07-01T07:21:32Z</time>
      </trkpt>
      <trkpt lat="45.31939" lon="6.68616">
        <ele>1951.9</ele>
        <time>2018-07-01T07:21:35Z</time>
      </trkpt>
      <trkpt lat="45.31936" lon="6.68612">
        <ele>1952</ele>
        <time>2018-07-01T07:21:38Z</time>
      </trkpt>
      <trkpt lat="45.31934" lon="6.68608">
        <ele>1952.1</ele>
        <time>2018-07-01T07:21:41Z</time>
      </trkpt>
      <trkpt lat="45.31932" lon="6.68604">
        <ele>1952.2</ele>
        <time>2018-07-01T07:21:44Z</time>
      </trkpt>
      <trkpt lat="45.3193" lon="6.68601">
        <ele>1952.2</ele>
        <time>2018-07-01T07:21:46Z</time>
      </trkpt>
      <trkpt lat="45.31927" lon="6.68598">
        <ele>1952.8</ele>
        <time>2018-07-01T07:21:48Z</time>
      </trkpt>
      <trkpt lat="45.31925" lon="6.68595">
        <ele>1953.5</ele>
        <time>2018-07-01T07:21:50Z</time>
      </trkpt>
      <trkpt lat="45.31923" lon="6.68592">
        <ele>1954.1</ele>
        <time>2018-07-01T07:21:52Z</time>
      </trkpt>
      <trkpt lat="45.31921" lon="6.68589">
        <ele>1954.8</ele>
        <time>2018-07-01T07:21:54Z</time>
      </trkpt>
      <trkpt lat="45.31919" lon="6.68585">
        <ele>1955.3</ele>
        <time>2018-07-01T07:21:57Z</time>
      </trkpt>
      <trkpt lat="45.31917" lon="6.6858">
        <ele>1955.7</ele>
        <time>2018-07-01T07:22:00Z</time>
      </trkpt>
      <trkpt lat="45.31915" lon="6.68577">
        <ele>1956.2</ele>
        <time>2018-07-01T07:22:02Z</time>
      </trkpt>
      <trkpt lat="45.31913" lon="6.68574">
        <ele>1956.8</ele>
        <time>2018-07-01T07:22:05Z</time>
      </trkpt>
      <trkpt lat="45.3191" lon="6.68574">
        <ele>1957.4</ele>
        <time>2018-07-01T07:22:07Z</time>
      </trkpt>
      <trkpt lat="45.31906" lon="6.68571">
        <ele>1958.1</ele>
        <time>2018-07-01T07:22:10Z</time>
      </trkpt>
      <trkpt lat="45.31904" lon="6.68569">
        <ele>1958.3</ele>
        <time>2018-07-01T07:22:12Z</time>
      </trkpt>
      <trkpt lat="45.31901" lon="6.68567">
        <ele>1958.5</ele>
        <time>2018-07-01T07:22:15Z</time>
      </trkpt>
      <trkpt lat="45.31898" lon="6.68565">
        <ele>1958.5</ele>
        <time>2018-07-01T07:22:18Z</time>
      </trkpt>
      <trkpt lat="45.31894" lon="6.68563">
        <ele>1958.2</ele>
        <time>2018-07-01T07:22:21Z</time>
      </trkpt>
      <trkpt lat="45.31892" lon="6.68561">
        <ele>1958</ele>
        <time>2018-07-01T07:22:24Z</time>
      </trkpt>
      <trkpt lat="45.31888" lon="6.68557">
        <ele>1958.2</ele>
        <time>2018-07-01T07:22:27Z</time>
      </trkpt>
      <trkpt lat="45.31886" lon="6.68555">
        <ele>1958.5</ele>
        <time>2018-07-01T07:22:29Z</time>
      </trkpt>
      <trkpt lat="45.31885" lon="6.6855">
        <ele>1959.1</ele>
        <time>2018-07-01T07:22:38Z</time>
      </trkpt>
      <trkpt lat="45.31883" lon="6.68546">
        <ele>1959.7</ele>
        <time>2018-07-01T07:22:42Z</time>
      </trkpt>
      <trkpt lat="45.3188" lon="6.68543">
        <ele>1960.4</ele>
        <time>2018-07-01T07:22:44Z</time>
      </trkpt>
      <trkpt lat="45.31877" lon="6.68541">
        <ele>1960.7</ele>
        <time>2018-07-01T07:22:46Z</time>
      </trkpt>
      <trkpt lat="45.31875" lon="6.68537">
        <ele>1960.7</ele>
        <time>2018-07-01T07:22:48Z</time>
      </trkpt>
      <trkpt lat="45.31873" lon="6.68534">
        <ele>1960.9</ele>
        <time>2018-07-01T07:22:50Z</time>
      </trkpt>
      <trkpt lat="45.3187" lon="6.68531">
        <ele>1961.2</ele>
        <time>2018-07-01T07:22:52Z</time>
      </trkpt>
      <trkpt lat="45.31868" lon="6.68529">
        <ele>1961.4</ele>
        <time>2018-07-01T07:22:54Z</time>
      </trkpt>
      <trkpt lat="45.31865" lon="6.68525">
        <ele>1961.2</ele>
        <time>2018-07-01T07:22:56Z</time>
      </trkpt>
      <trkpt lat="45.31862" lon="6.68523">
        <ele>1961.1</ele>
        <time>2018-07-01T07:22:58Z</time>
      </trkpt>
      <trkpt lat="45.31859" lon="6.6852">
        <ele>1961.3</ele>
        <time>2018-07-01T07:23:00Z</time>
      </trkpt>
      <trkpt lat="45.31857" lon="6.68517">
        <ele>1961.5</ele>
        <time>2018-07-01T07:23:02Z</time>
      </trkpt>
      <trkpt lat="45.31854" lon="6.68515">
        <ele>1961.6</ele>
        <time>2018-07-01T07:23:04Z</time>
      </trkpt>
      <trkpt lat="45.31851" lon="6.68512">
        <ele>1961.7</ele>
        <time>2018-07-01T07:23:07Z</time>
      </trkpt>
      <trkpt lat="45.31848" lon="6.68508">
        <ele>1962.1</ele>
        <time>2018-07-01T07:23:10Z</time>
      </trkpt>
      <trkpt lat="45.31845" lon="6.68506">
        <ele>1962.4</ele>
        <time>2018-07-01T07:23:12Z</time>
      </trkpt>
      <trkpt lat="45.31843" lon="6.68503">
        <ele>1962.4</ele>
        <time>2018-07-01T07:23:14Z</time>
      </trkpt>
      <trkpt lat="45.31841" lon="6.68499">
        <ele>1962.4</ele>
        <time>2018-07-01T07:23:16Z</time>
      </trkpt>
      <trkpt lat="45.31839" lon="6.68497">
        <ele>1962.5</ele>
        <time>2018-07-01T07:23:18Z</time>
      </trkpt>
      <trkpt lat="45.31836" lon="6.68494">
        <ele>1962.7</ele>
        <time>2018-07-01T07:23:21Z</time>
      </trkpt>
      <trkpt lat="45.31833" lon="6.68492">
        <ele>1962.9</ele>
        <time>2018-07-01T07:23:23Z</time>
      </trkpt>
      <trkpt lat="45.31831" lon="6.6849">
        <ele>1962.8</ele>
        <time>2018-07-01T07:23:25Z</time>
      </trkpt>
      <trkpt lat="45.31828" lon="6.68488">
        <ele>1962.8</ele>
        <time>2018-07-01T07:23:27Z</time>
      </trkpt>
      <trkpt lat="45.31826" lon="6.68485">
        <ele>1962.8</ele>
        <time>2018-07-01T07:23:29Z</time>
      </trkpt>
      <trkpt lat="45.31823" lon="6.68482">
        <ele>1963.1</ele>
        <time>2018-07-01T07:23:32Z</time>
      </trkpt>
      <trkpt lat="45.3182" lon="6.68478">
        <ele>1963.2</ele>
        <time>2018-07-01T07:23:35Z</time>
      </trkpt>
      <trkpt lat="45.31818" lon="6.68474">
        <ele>1963.1</ele>
        <time>2018-07-01T07:23:38Z</time>
      </trkpt>
      <trkpt lat="45.31815" lon="6.6847">
        <ele>1963.1</ele>
        <time>2018-07-01T07:23:41Z</time>
      </trkpt>
      <trkpt lat="45.31813" lon="6.68467">
        <ele>1963.3</ele>
        <time>2018-07-01T07:23:43Z</time>
      </trkpt>
      <trkpt lat="45.3181" lon="6.68464">
        <ele>1963.6</ele>
        <time>2018-07-01T07:23:46Z</time>
      </trkpt>
      <trkpt lat="45.31807" lon="6.68461">
        <ele>1963.6</ele>
        <time>2018-07-01T07:23:49Z</time>
      </trkpt>
      <trkpt lat="45.31804" lon="6.68458">
        <ele>1963.6</ele>
        <time>2018-07-01T07:23:51Z</time>
      </trkpt>
      <trkpt lat="45.31802" lon="6.68456">
        <ele>1963.9</ele>
        <time>2018-07-01T07:23:53Z</time>
      </trkpt>
      <trkpt lat="45.31799" lon="6.68454">
        <ele>1964.2</ele>
        <time>2018-07-01T07:23:55Z</time>
      </trkpt>
      <trkpt lat="45.31797" lon="6.68451">
        <ele>1964.5</ele>
        <time>2018-07-01T07:23:57Z</time>
      </trkpt>
      <trkpt lat="45.31795" lon="6.68449">
        <ele>1964.6</ele>
        <time>2018-07-01T07:23:59Z</time>
      </trkpt>
      <trkpt lat="45.31792" lon="6.68445">
        <ele>1964.7</ele>
        <time>2018-07-01T07:24:02Z</time>
      </trkpt>
      <trkpt lat="45.31789" lon="6.68442">
        <ele>1965.1</ele>
        <time>2018-07-01T07:24:04Z</time>
      </trkpt>
      <trkpt lat="45.31786" lon="6.6844">
        <ele>1965.6</ele>
        <time>2018-07-01T07:24:07Z</time>
      </trkpt>
      <trkpt lat="45.31784" lon="6.68435">
        <ele>1966.2</ele>
        <time>2018-07-01T07:24:10Z</time>
      </trkpt>
      <trkpt lat="45.31781" lon="6.68433">
        <ele>1966.7</ele>
        <time>2018-07-01T07:24:12Z</time>
      </trkpt>
      <trkpt lat="45.31779" lon="6.6843">
        <ele>1966.9</ele>
        <time>2018-07-01T07:24:15Z</time>
      </trkpt>
      <trkpt lat="45.31776" lon="6.68428">
        <ele>1967</ele>
        <time>2018-07-01T07:24:17Z</time>
      </trkpt>
      <trkpt lat="45.31773" lon="6.68426">
        <ele>1967.1</ele>
        <time>2018-07-01T07:24:19Z</time>
      </trkpt>
      <trkpt lat="45.31772" lon="6.68422">
        <ele>1967.5</ele>
        <time>2018-07-01T07:24:22Z</time>
      </trkpt>
      <trkpt lat="45.3177" lon="6.68419">
        <ele>1967.8</ele>
        <time>2018-07-01T07:24:24Z</time>
      </trkpt>
      <trkpt lat="45.31767" lon="6.68415">
        <ele>1968</ele>
        <time>2018-07-01T07:24:27Z</time>
      </trkpt>
      <trkpt lat="45.31764" lon="6.68413">
        <ele>1968</ele>
        <time>2018-07-01T07:24:30Z</time>
      </trkpt>
      <trkpt lat="45.31761" lon="6.68411">
        <ele>1968.4</ele>
        <time>2018-07-01T07:24:33Z</time>
      </trkpt>
      <trkpt lat="45.31758" lon="6.68409">
        <ele>1968.9</ele>
        <time>2018-07-01T07:24:36Z</time>
      </trkpt>
      <trkpt lat="45.31755" lon="6.68406">
        <ele>1969.3</ele>
        <time>2018-07-01T07:24:39Z</time>
      </trkpt>
      <trkpt lat="45.31753" lon="6.68405">
        <ele>1969.2</ele>
        <time>2018-07-01T07:24:41Z</time>
      </trkpt>
      <trkpt lat="45.31749" lon="6.68403">
        <ele>1969.1</ele>
        <time>2018-07-01T07:24:43Z</time>
      </trkpt>
      <trkpt lat="45.31746" lon="6.68402">
        <ele>1969.5</ele>
        <time>2018-07-01T07:24:46Z</time>
      </trkpt>
      <trkpt lat="45.31743" lon="6.68399">
        <ele>1970.1</ele>
        <time>2018-07-01T07:24:49Z</time>
      </trkpt>
      <trkpt lat="45.31741" lon="6.68396">
        <ele>1970.4</ele>
        <time>2018-07-01T07:24:51Z</time>
      </trkpt>
      <trkpt lat="45.31738" lon="6.68394">
        <ele>1970.5</ele>
        <time>2018-07-01T07:24:54Z</time>
      </trkpt>
      <trkpt lat="45.31736" lon="6.6839">
        <ele>1970.7</ele>
        <time>2018-07-01T07:24:57Z</time>
      </trkpt>
      <trkpt lat="45.31733" lon="6.68388">
        <ele>1970.7</ele>
        <time>2018-07-01T07:25:00Z</time>
      </trkpt>
      <trkpt lat="45.3173" lon="6.68384">
        <ele>1970.7</ele>
        <time>2018-07-01T07:25:03Z</time>
      </trkpt>
      <trkpt lat="45.31727" lon="6.68381">
        <ele>1971</ele>
        <time>2018-07-01T07:25:05Z</time>
      </trkpt>
      <trkpt lat="45.31724" lon="6.68379">
        <ele>1971.3</ele>
        <time>2018-07-01T07:25:07Z</time>
      </trkpt>
      <trkpt lat="45.31721" lon="6.68376">
        <ele>1971.7</ele>
        <time>2018-07-01T07:25:10Z</time>
      </trkpt>
      <trkpt lat="45.31718" lon="6.68373">
        <ele>1971.7</ele>
        <time>2018-07-01T07:25:13Z</time>
      </trkpt>
      <trkpt lat="45.31715" lon="6.68371">
        <ele>1971.7</ele>
        <time>2018-07-01T07:25:16Z</time>
      </trkpt>
      <trkpt lat="45.31712" lon="6.68369">
        <ele>1971.7</ele>
        <time>2018-07-01T07:25:19Z</time>
      </trkpt>
      <trkpt lat="45.3171" lon="6.68366">
        <ele>1971.7</ele>
        <time>2018-07-01T07:25:21Z</time>
      </trkpt>
      <trkpt lat="45.31708" lon="6.68363">
        <ele>1971.8</ele>
        <time>2018-07-01T07:25:23Z</time>
      </trkpt>
      <trkpt lat="45.31705" lon="6.68359">
        <ele>1971.8</ele>
        <time>2018-07-01T07:25:26Z</time>
      </trkpt>
      <trkpt lat="45.31703" lon="6.68354">
        <ele>1971.8</ele>
        <time>2018-07-01T07:25:29Z</time>
      </trkpt>
      <trkpt lat="45.317" lon="6.68352">
        <ele>1971.9</ele>
        <time>2018-07-01T07:25:31Z</time>
      </trkpt>
      <trkpt lat="45.31698" lon="6.68349">
        <ele>1972.2</ele>
        <time>2018-07-01T07:25:33Z</time>
      </trkpt>
      <trkpt lat="45.31695" lon="6.68346">
        <ele>1972.4</ele>
        <time>2018-07-01T07:25:35Z</time>
      </trkpt>
      <trkpt lat="45.31693" lon="6.68343">
        <ele>1972.5</ele>
        <time>2018-07-01T07:25:38Z</time>
      </trkpt>
      <trkpt lat="45.3169" lon="6.68339">
        <ele>1972.7</ele>
        <time>2018-07-01T07:25:41Z</time>
      </trkpt>
      <trkpt lat="45.31688" lon="6.68336">
        <ele>1972.9</ele>
        <time>2018-07-01T07:25:44Z</time>
      </trkpt>
      <trkpt lat="45.31685" lon="6.68332">
        <ele>1973</ele>
        <time>2018-07-01T07:25:47Z</time>
      </trkpt>
      <trkpt lat="45.31681" lon="6.6833">
        <ele>1973.1</ele>
        <time>2018-07-01T07:25:50Z</time>
      </trkpt>
      <trkpt lat="45.31679" lon="6.68327">
        <ele>1972.9</ele>
        <time>2018-07-01T07:25:53Z</time>
      </trkpt>
      <trkpt lat="45.31677" lon="6.68324">
        <ele>1972.8</ele>
        <time>2018-07-01T07:25:55Z</time>
      </trkpt>
      <trkpt lat="45.31674" lon="6.68323">
        <ele>1972.8</ele>
        <time>2018-07-01T07:25:57Z</time>
      </trkpt>
      <trkpt lat="45.31671" lon="6.68323">
        <ele>1973</ele>
        <time>2018-07-01T07:25:59Z</time>
      </trkpt>
      <trkpt lat="45.31668" lon="6.68321">
        <ele>1973.1</ele>
        <time>2018-07-01T07:26:01Z</time>
      </trkpt>
      <trkpt lat="45.31665" lon="6.68318">
        <ele>1973.1</ele>
        <time>2018-07-01T07:26:04Z</time>
      </trkpt>
      <trkpt lat="45.31663" lon="6.68316">
        <ele>1973.1</ele>
        <time>2018-07-01T07:26:06Z</time>
      </trkpt>
      <trkpt lat="45.3166" lon="6.68315">
        <ele>1973.1</ele>
        <time>2018-07-01T07:26:08Z</time>
      </trkpt>
      <trkpt lat="45.31658" lon="6.68312">
        <ele>1973.2</ele>
        <time>2018-07-01T07:26:11Z</time>
      </trkpt>
      <trkpt lat="45.31654" lon="6.6831">
        <ele>1973.4</ele>
        <time>2018-07-01T07:26:14Z</time>
      </trkpt>
      <trkpt lat="45.31652" lon="6.68308">
        <ele>1973.4</ele>
        <time>2018-07-01T07:26:16Z</time>
      </trkpt>
      <trkpt lat="45.31649" lon="6.68306">
        <ele>1973.3</ele>
        <time>2018-07-01T07:26:19Z</time>
      </trkpt>
      <trkpt lat="45.31646" lon="6.68304">
        <ele>1973.3</ele>
        <time>2018-07-01T07:26:21Z</time>
      </trkpt>
      <trkpt lat="45.31644" lon="6.68302">
        <ele>1973.2</ele>
        <time>2018-07-01T07:26:23Z</time>
      </trkpt>
      <trkpt lat="45.3164" lon="6.683">
        <ele>1973.1</ele>
        <time>2018-07-01T07:26:26Z</time>
      </trkpt>
      <trkpt lat="45.31638" lon="6.683">
        <ele>1973</ele>
        <time>2018-07-01T07:26:28Z</time>
      </trkpt>
      <trkpt lat="45.31634" lon="6.68299">
        <ele>1972.9</ele>
        <time>2018-07-01T07:26:31Z</time>
      </trkpt>
      <trkpt lat="45.31631" lon="6.68297">
        <ele>1972.8</ele>
        <time>2018-07-01T07:26:34Z</time>
      </trkpt>
      <trkpt lat="45.31627" lon="6.68296">
        <ele>1972.7</ele>
        <time>2018-07-01T07:26:37Z</time>
      </trkpt>
      <trkpt lat="45.31624" lon="6.68295">
        <ele>1972.6</ele>
        <time>2018-07-01T07:26:40Z</time>
      </trkpt>
      <trkpt lat="45.3162" lon="6.68293">
        <ele>1972.6</ele>
        <time>2018-07-01T07:26:43Z</time>
      </trkpt>
      <trkpt lat="45.31618" lon="6.68292">
        <ele>1972.5</ele>
        <time>2018-07-01T07:26:45Z</time>
      </trkpt>
      <trkpt lat="45.31615" lon="6.68289">
        <ele>1972.3</ele>
        <time>2018-07-01T07:26:47Z</time>
      </trkpt>
      <trkpt lat="45.31612" lon="6.68287">
        <ele>1972</ele>
        <time>2018-07-01T07:26:50Z</time>
      </trkpt>
      <trkpt lat="45.31609" lon="6.68286">
        <ele>1971.8</ele>
        <time>2018-07-01T07:26:53Z</time>
      </trkpt>
      <trkpt lat="45.31606" lon="6.68284">
        <ele>1971.6</ele>
        <time>2018-07-01T07:26:55Z</time>
      </trkpt>
      <trkpt lat="45.31603" lon="6.68282">
        <ele>1971.5</ele>
        <time>2018-07-01T07:26:58Z</time>
      </trkpt>
      <trkpt lat="45.316" lon="6.6828">
        <ele>1971.5</ele>
        <time>2018-07-01T07:27:01Z</time>
      </trkpt>
      <trkpt lat="45.31596" lon="6.6828">
        <ele>1971.7</ele>
        <time>2018-07-01T07:27:04Z</time>
      </trkpt>
      <trkpt lat="45.31593" lon="6.6828">
        <ele>1971.7</ele>
        <time>2018-07-01T07:27:07Z</time>
      </trkpt>
      <trkpt lat="45.31589" lon="6.68279">
        <ele>1971.8</ele>
        <time>2018-07-01T07:27:10Z</time>
      </trkpt>
      <trkpt lat="45.31586" lon="6.68279">
        <ele>1971.9</ele>
        <time>2018-07-01T07:27:12Z</time>
      </trkpt>
      <trkpt lat="45.31582" lon="6.68279">
        <ele>1971.9</ele>
        <time>2018-07-01T07:27:15Z</time>
      </trkpt>
      <trkpt lat="45.31579" lon="6.68278">
        <ele>1971.6</ele>
        <time>2018-07-01T07:27:18Z</time>
      </trkpt>
      <trkpt lat="45.31575" lon="6.68276">
        <ele>1971.3</ele>
        <time>2018-07-01T07:27:21Z</time>
      </trkpt>
      <trkpt lat="45.31572" lon="6.68273">
        <ele>1971.1</ele>
        <time>2018-07-01T07:27:24Z</time>
      </trkpt>
      <trkpt lat="45.31569" lon="6.68274">
        <ele>1970.9</ele>
        <time>2018-07-01T07:27:26Z</time>
      </trkpt>
      <trkpt lat="45.31566" lon="6.68273">
        <ele>1970.7</ele>
        <time>2018-07-01T07:27:29Z</time>
      </trkpt>
      <trkpt lat="45.31564" lon="6.68271">
        <ele>1970.4</ele>
        <time>2018-07-01T07:27:31Z</time>
      </trkpt>
      <trkpt lat="45.31561" lon="6.68268">
        <ele>1970</ele>
        <time>2018-07-01T07:27:34Z</time>
      </trkpt>
      <trkpt lat="45.31559" lon="6.68266">
        <ele>1970.1</ele>
        <time>2018-07-01T07:27:36Z</time>
      </trkpt>
      <trkpt lat="45.31556" lon="6.68262">
        <ele>1970.1</ele>
        <time>2018-07-01T07:27:40Z</time>
      </trkpt>
      <trkpt lat="45.31554" lon="6.68259">
        <ele>1970.2</ele>
        <time>2018-07-01T07:27:42Z</time>
      </trkpt>
      <trkpt lat="45.31552" lon="6.68255">
        <ele>1970.4</ele>
        <time>2018-07-01T07:27:45Z</time>
      </trkpt>
      <trkpt lat="45.3155" lon="6.68251">
        <ele>1970.7</ele>
        <time>2018-07-01T07:27:48Z</time>
      </trkpt>
      <trkpt lat="45.31547" lon="6.68248">
        <ele>1970.9</ele>
        <time>2018-07-01T07:27:50Z</time>
      </trkpt>
      <trkpt lat="45.31546" lon="6.68245">
        <ele>1971.1</ele>
        <time>2018-07-01T07:27:52Z</time>
      </trkpt>
      <trkpt lat="45.31544" lon="6.68241">
        <ele>1971.3</ele>
        <time>2018-07-01T07:27:54Z</time>
      </trkpt>
      <trkpt lat="45.31542" lon="6.68238">
        <ele>1971.6</ele>
        <time>2018-07-01T07:27:57Z</time>
      </trkpt>
      <trkpt lat="45.31539" lon="6.68235">
        <ele>1972</ele>
        <time>2018-07-01T07:28:00Z</time>
      </trkpt>
      <trkpt lat="45.31536" lon="6.68231">
        <ele>1972.2</ele>
        <time>2018-07-01T07:28:03Z</time>
      </trkpt>
      <trkpt lat="45.31533" lon="6.68228">
        <ele>1972.2</ele>
        <time>2018-07-01T07:28:06Z</time>
      </trkpt>
      <trkpt lat="45.3153" lon="6.68225">
        <ele>1972.4</ele>
        <time>2018-07-01T07:28:09Z</time>
      </trkpt>
      <trkpt lat="45.31527" lon="6.68222">
        <ele>1972.9</ele>
        <time>2018-07-01T07:28:12Z</time>
      </trkpt>
      <trkpt lat="45.31524" lon="6.6822">
        <ele>1973.3</ele>
        <time>2018-07-01T07:28:14Z</time>
      </trkpt>
      <trkpt lat="45.31521" lon="6.68218">
        <ele>1973.7</ele>
        <time>2018-07-01T07:28:16Z</time>
      </trkpt>
      <trkpt lat="45.31518" lon="6.68215">
        <ele>1974.2</ele>
        <time>2018-07-01T07:28:19Z</time>
      </trkpt>
      <trkpt lat="45.31516" lon="6.68213">
        <ele>1974.6</ele>
        <time>2018-07-01T07:28:22Z</time>
      </trkpt>
      <trkpt lat="45.31512" lon="6.6821">
        <ele>1975</ele>
        <time>2018-07-01T07:28:25Z</time>
      </trkpt>
      <trkpt lat="45.3151" lon="6.68206">
        <ele>1975.3</ele>
        <time>2018-07-01T07:28:28Z</time>
      </trkpt>
      <trkpt lat="45.31507" lon="6.68203">
        <ele>1975.4</ele>
        <time>2018-07-01T07:28:31Z</time>
      </trkpt>
      <trkpt lat="45.31504" lon="6.682">
        <ele>1975.5</ele>
        <time>2018-07-01T07:28:34Z</time>
      </trkpt>
      <trkpt lat="45.31501" lon="6.68196">
        <ele>1975.5</ele>
        <time>2018-07-01T07:28:37Z</time>
      </trkpt>
      <trkpt lat="45.31499" lon="6.68193">
        <ele>1975.5</ele>
        <time>2018-07-01T07:28:40Z</time>
      </trkpt>
      <trkpt lat="45.31496" lon="6.68189">
        <ele>1976.1</ele>
        <time>2018-07-01T07:28:43Z</time>
      </trkpt>
      <trkpt lat="45.31493" lon="6.68185">
        <ele>1976.7</ele>
        <time>2018-07-01T07:28:46Z</time>
      </trkpt>
      <trkpt lat="45.3149" lon="6.68182">
        <ele>1977</ele>
        <time>2018-07-01T07:28:49Z</time>
      </trkpt>
      <trkpt lat="45.31487" lon="6.68179">
        <ele>1977.1</ele>
        <time>2018-07-01T07:28:52Z</time>
      </trkpt>
      <trkpt lat="45.31485" lon="6.68175">
        <ele>1977.3</ele>
        <time>2018-07-01T07:28:55Z</time>
      </trkpt>
      <trkpt lat="45.31482" lon="6.68173">
        <ele>1977.5</ele>
        <time>2018-07-01T07:28:57Z</time>
      </trkpt>
      <trkpt lat="45.31479" lon="6.68171">
        <ele>1977.7</ele>
        <time>2018-07-01T07:28:59Z</time>
      </trkpt>
      <trkpt lat="45.31476" lon="6.68168">
        <ele>1977.8</ele>
        <time>2018-07-01T07:29:02Z</time>
      </trkpt>
      <trkpt lat="45.31474" lon="6.68165">
        <ele>1977.9</ele>
        <time>2018-07-01T07:29:04Z</time>
      </trkpt>
      <trkpt lat="45.31471" lon="6.68162">
        <ele>1978</ele>
        <time>2018-07-01T07:29:07Z</time>
      </trkpt>
      <trkpt lat="45.31469" lon="6.68159">
        <ele>1978.5</ele>
        <time>2018-07-01T07:29:10Z</time>
      </trkpt>
      <trkpt lat="45.31466" lon="6.68155">
        <ele>1979</ele>
        <time>2018-07-01T07:29:13Z</time>
      </trkpt>
      <trkpt lat="45.31463" lon="6.68152">
        <ele>1979.4</ele>
        <time>2018-07-01T07:29:16Z</time>
      </trkpt>
      <trkpt lat="45.31461" lon="6.68148">
        <ele>1979.9</ele>
        <time>2018-07-01T07:29:19Z</time>
      </trkpt>
      <trkpt lat="45.31458" lon="6.68143">
        <ele>1980.6</ele>
        <time>2018-07-01T07:29:22Z</time>
      </trkpt>
      <trkpt lat="45.31455" lon="6.6814">
        <ele>1981</ele>
        <time>2018-07-01T07:29:25Z</time>
      </trkpt>
      <trkpt lat="45.31453" lon="6.68136">
        <ele>1981</ele>
        <time>2018-07-01T07:29:28Z</time>
      </trkpt>
      <trkpt lat="45.3145" lon="6.68133">
        <ele>1981</ele>
        <time>2018-07-01T07:29:30Z</time>
      </trkpt>
      <trkpt lat="45.31448" lon="6.6813">
        <ele>1981</ele>
        <time>2018-07-01T07:29:33Z</time>
      </trkpt>
      <trkpt lat="45.31446" lon="6.68127">
        <ele>1981</ele>
        <time>2018-07-01T07:29:35Z</time>
      </trkpt>
      <trkpt lat="45.31443" lon="6.68124">
        <ele>1981.4</ele>
        <time>2018-07-01T07:29:38Z</time>
      </trkpt>
      <trkpt lat="45.31442" lon="6.68119">
        <ele>1982</ele>
        <time>2018-07-01T07:29:41Z</time>
      </trkpt>
      <trkpt lat="45.31442" lon="6.68114">
        <ele>1982.1</ele>
        <time>2018-07-01T07:29:44Z</time>
      </trkpt>
      <trkpt lat="45.3144" lon="6.68109">
        <ele>1982.4</ele>
        <time>2018-07-01T07:29:47Z</time>
      </trkpt>
      <trkpt lat="45.31439" lon="6.68105">
        <ele>1982.7</ele>
        <time>2018-07-01T07:29:49Z</time>
      </trkpt>
      <trkpt lat="45.31438" lon="6.68101">
        <ele>1983.1</ele>
        <time>2018-07-01T07:29:51Z</time>
      </trkpt>
      <trkpt lat="45.31437" lon="6.68096">
        <ele>1983.7</ele>
        <time>2018-07-01T07:29:53Z</time>
      </trkpt>
      <trkpt lat="45.31435" lon="6.68093">
        <ele>1984.3</ele>
        <time>2018-07-01T07:29:55Z</time>
      </trkpt>
      <trkpt lat="45.31433" lon="6.68089">
        <ele>1984.6</ele>
        <time>2018-07-01T07:29:57Z</time>
      </trkpt>
      <trkpt lat="45.31432" lon="6.68084">
        <ele>1984.8</ele>
        <time>2018-07-01T07:30:00Z</time>
      </trkpt>
      <trkpt lat="45.3143" lon="6.6808">
        <ele>1985.3</ele>
        <time>2018-07-01T07:30:02Z</time>
      </trkpt>
      <trkpt lat="45.31428" lon="6.68077">
        <ele>1985.9</ele>
        <time>2018-07-01T07:30:04Z</time>
      </trkpt>
      <trkpt lat="45.31426" lon="6.68073">
        <ele>1986.7</ele>
        <time>2018-07-01T07:30:07Z</time>
      </trkpt>
      <trkpt lat="45.31423" lon="6.68069">
        <ele>1987.1</ele>
        <time>2018-07-01T07:30:10Z</time>
      </trkpt>
      <trkpt lat="45.31422" lon="6.68065">
        <ele>1987.5</ele>
        <time>2018-07-01T07:30:13Z</time>
      </trkpt>
      <trkpt lat="45.3142" lon="6.68061">
        <ele>1987.8</ele>
        <time>2018-07-01T07:30:16Z</time>
      </trkpt>
      <trkpt lat="45.31419" lon="6.68058">
        <ele>1988.1</ele>
        <time>2018-07-01T07:30:19Z</time>
      </trkpt>
      <trkpt lat="45.31415" lon="6.68053">
        <ele>1989.1</ele>
        <time>2018-07-01T07:30:23Z</time>
      </trkpt>
      <trkpt lat="45.31412" lon="6.6805">
        <ele>1990</ele>
        <time>2018-07-01T07:30:26Z</time>
      </trkpt>
      <trkpt lat="45.31409" lon="6.68047">
        <ele>1990.8</ele>
        <time>2018-07-01T07:30:29Z</time>
      </trkpt>
      <trkpt lat="45.31408" lon="6.68042">
        <ele>1991.3</ele>
        <time>2018-07-01T07:30:32Z</time>
      </trkpt>
      <trkpt lat="45.31408" lon="6.68037">
        <ele>1991.9</ele>
        <time>2018-07-01T07:30:35Z</time>
      </trkpt>
      <trkpt lat="45.31406" lon="6.68034">
        <ele>1992</ele>
        <time>2018-07-01T07:30:37Z</time>
      </trkpt>
      <trkpt lat="45.31406" lon="6.6803">
        <ele>1992.1</ele>
        <time>2018-07-01T07:30:40Z</time>
      </trkpt>
      <trkpt lat="45.31404" lon="6.68026">
        <ele>1992.3</ele>
        <time>2018-07-01T07:30:43Z</time>
      </trkpt>
      <trkpt lat="45.31403" lon="6.68022">
        <ele>1992.4</ele>
        <time>2018-07-01T07:30:46Z</time>
      </trkpt>
      <trkpt lat="45.31402" lon="6.68018">
        <ele>1992.4</ele>
        <time>2018-07-01T07:30:49Z</time>
      </trkpt>
      <trkpt lat="45.314" lon="6.68014">
        <ele>1992.5</ele>
        <time>2018-07-01T07:30:53Z</time>
      </trkpt>
      <trkpt lat="45.31398" lon="6.68011">
        <ele>1992.5</ele>
        <time>2018-07-01T07:30:56Z</time>
      </trkpt>
      <trkpt lat="45.31395" lon="6.68008">
        <ele>1992.5</ele>
        <time>2018-07-01T07:30:59Z</time>
      </trkpt>
      <trkpt lat="45.31393" lon="6.68004">
        <ele>1992.8</ele>
        <time>2018-07-01T07:31:02Z</time>
      </trkpt>
      <trkpt lat="45.31392" lon="6.68">
        <ele>1993.2</ele>
        <time>2018-07-01T07:31:05Z</time>
      </trkpt>
      <trkpt lat="45.3139" lon="6.67997">
        <ele>1993.5</ele>
        <time>2018-07-01T07:31:08Z</time>
      </trkpt>
      <trkpt lat="45.31388" lon="6.67995">
        <ele>1993.6</ele>
        <time>2018-07-01T07:31:11Z</time>
      </trkpt>
      <trkpt lat="45.31385" lon="6.67991">
        <ele>1993.6</ele>
        <time>2018-07-01T07:31:14Z</time>
      </trkpt>
      <trkpt lat="45.31382" lon="6.67988">
        <ele>1993.6</ele>
        <time>2018-07-01T07:31:17Z</time>
      </trkpt>
      <trkpt lat="45.31381" lon="6.67984">
        <ele>1993.5</ele>
        <time>2018-07-01T07:31:20Z</time>
      </trkpt>
      <trkpt lat="45.3138" lon="6.6798">
        <ele>1993.5</ele>
        <time>2018-07-01T07:31:23Z</time>
      </trkpt>
      <trkpt lat="45.31378" lon="6.67975">
        <ele>1993.5</ele>
        <time>2018-07-01T07:31:26Z</time>
      </trkpt>
      <trkpt lat="45.31377" lon="6.67971">
        <ele>1993.6</ele>
        <time>2018-07-01T07:31:29Z</time>
      </trkpt>
      <trkpt lat="45.31376" lon="6.67966">
        <ele>1994</ele>
        <time>2018-07-01T07:31:32Z</time>
      </trkpt>
      <trkpt lat="45.31374" lon="6.67962">
        <ele>1994.8</ele>
        <time>2018-07-01T07:31:35Z</time>
      </trkpt>
      <trkpt lat="45.31372" lon="6.67957">
        <ele>1995.4</ele>
        <time>2018-07-01T07:31:38Z</time>
      </trkpt>
      <trkpt lat="45.31371" lon="6.67952">
        <ele>1995.8</ele>
        <time>2018-07-01T07:31:41Z</time>
      </trkpt>
      <trkpt lat="45.31369" lon="6.67949">
        <ele>1996</ele>
        <time>2018-07-01T07:31:43Z</time>
      </trkpt>
      <trkpt lat="45.31367" lon="6.67944">
        <ele>1996.3</ele>
        <time>2018-07-01T07:31:46Z</time>
      </trkpt>
      <trkpt lat="45.31365" lon="6.67939">
        <ele>1996.7</ele>
        <time>2018-07-01T07:31:49Z</time>
      </trkpt>
      <trkpt lat="45.31363" lon="6.67936">
        <ele>1996.6</ele>
        <time>2018-07-01T07:31:51Z</time>
      </trkpt>
      <trkpt lat="45.31361" lon="6.67933">
        <ele>1996.3</ele>
        <time>2018-07-01T07:31:53Z</time>
      </trkpt>
      <trkpt lat="45.3136" lon="6.67929">
        <ele>1996</ele>
        <time>2018-07-01T07:31:56Z</time>
      </trkpt>
      <trkpt lat="45.31358" lon="6.67924">
        <ele>1995.6</ele>
        <time>2018-07-01T07:31:59Z</time>
      </trkpt>
      <trkpt lat="45.31356" lon="6.6792">
        <ele>1995.4</ele>
        <time>2018-07-01T07:32:02Z</time>
      </trkpt>
      <trkpt lat="45.31354" lon="6.67915">
        <ele>1995.4</ele>
        <time>2018-07-01T07:32:05Z</time>
      </trkpt>
      <trkpt lat="45.31353" lon="6.67911">
        <ele>1995.4</ele>
        <time>2018-07-01T07:32:08Z</time>
      </trkpt>
      <trkpt lat="45.3135" lon="6.67906">
        <ele>1995.4</ele>
        <time>2018-07-01T07:32:11Z</time>
      </trkpt>
      <trkpt lat="45.31348" lon="6.67902">
        <ele>1995.9</ele>
        <time>2018-07-01T07:32:14Z</time>
      </trkpt>
      <trkpt lat="45.31346" lon="6.67899">
        <ele>1996.2</ele>
        <time>2018-07-01T07:32:16Z</time>
      </trkpt>
      <trkpt lat="45.31344" lon="6.67895">
        <ele>1996.6</ele>
        <time>2018-07-01T07:32:19Z</time>
      </trkpt>
      <trkpt lat="45.31341" lon="6.67888">
        <ele>1997.7</ele>
        <time>2018-07-01T07:32:23Z</time>
      </trkpt>
      <trkpt lat="45.31339" lon="6.67883">
        <ele>1998.8</ele>
        <time>2018-07-01T07:32:26Z</time>
      </trkpt>
      <trkpt lat="45.31339" lon="6.6788">
        <ele>1999.2</ele>
        <time>2018-07-01T07:32:28Z</time>
      </trkpt>
      <trkpt lat="45.31338" lon="6.67876">
        <ele>1999.4</ele>
        <time>2018-07-01T07:32:30Z</time>
      </trkpt>
      <trkpt lat="45.31336" lon="6.67872">
        <ele>2000</ele>
        <time>2018-07-01T07:32:33Z</time>
      </trkpt>
      <trkpt lat="45.31335" lon="6.67867">
        <ele>2001.3</ele>
        <time>2018-07-01T07:32:36Z</time>
      </trkpt>
      <trkpt lat="45.31334" lon="6.67861">
        <ele>2002.6</ele>
        <time>2018-07-01T07:32:39Z</time>
      </trkpt>
      <trkpt lat="45.31331" lon="6.67857">
        <ele>2003.1</ele>
        <time>2018-07-01T07:32:42Z</time>
      </trkpt>
      <trkpt lat="45.3133" lon="6.67854">
        <ele>2003.6</ele>
        <time>2018-07-01T07:32:44Z</time>
      </trkpt>
      <trkpt lat="45.31328" lon="6.6785">
        <ele>2004.3</ele>
        <time>2018-07-01T07:32:46Z</time>
      </trkpt>
      <trkpt lat="45.31326" lon="6.67847">
        <ele>2005.3</ele>
        <time>2018-07-01T07:32:48Z</time>
      </trkpt>
      <trkpt lat="45.31323" lon="6.67842">
        <ele>2006.2</ele>
        <time>2018-07-01T07:32:51Z</time>
      </trkpt>
      <trkpt lat="45.31322" lon="6.67839">
        <ele>2006.6</ele>
        <time>2018-07-01T07:32:53Z</time>
      </trkpt>
      <trkpt lat="45.31319" lon="6.67835">
        <ele>2007.2</ele>
        <time>2018-07-01T07:32:56Z</time>
      </trkpt>
      <trkpt lat="45.31316" lon="6.67831">
        <ele>2007.9</ele>
        <time>2018-07-01T07:32:59Z</time>
      </trkpt>
      <trkpt lat="45.31314" lon="6.67827">
        <ele>2008.5</ele>
        <time>2018-07-01T07:33:02Z</time>
      </trkpt>
      <trkpt lat="45.31311" lon="6.67824">
        <ele>2009.4</ele>
        <time>2018-07-01T07:33:04Z</time>
      </trkpt>
      <trkpt lat="45.31309" lon="6.67821">
        <ele>2010.5</ele>
        <time>2018-07-01T07:33:07Z</time>
      </trkpt>
      <trkpt lat="45.31307" lon="6.67819">
        <ele>2010.6</ele>
        <time>2018-07-01T07:33:09Z</time>
      </trkpt>
      <trkpt lat="45.31304" lon="6.67815">
        <ele>2009.6</ele>
        <time>2018-07-01T07:33:12Z</time>
      </trkpt>
      <trkpt lat="45.31301" lon="6.67812">
        <ele>2008.8</ele>
        <time>2018-07-01T07:33:15Z</time>
      </trkpt>
      <trkpt lat="45.31299" lon="6.67809">
        <ele>2008.9</ele>
        <time>2018-07-01T07:33:17Z</time>
      </trkpt>
      <trkpt lat="45.31296" lon="6.67805">
        <ele>2009</ele>
        <time>2018-07-01T07:33:20Z</time>
      </trkpt>
      <trkpt lat="45.31293" lon="6.67803">
        <ele>2008.8</ele>
        <time>2018-07-01T07:33:23Z</time>
      </trkpt>
      <trkpt lat="45.3129" lon="6.678">
        <ele>2008.5</ele>
        <time>2018-07-01T07:33:26Z</time>
      </trkpt>
      <trkpt lat="45.31288" lon="6.67796">
        <ele>2008.5</ele>
        <time>2018-07-01T07:33:29Z</time>
      </trkpt>
      <trkpt lat="45.31285" lon="6.67793">
        <ele>2008.6</ele>
        <time>2018-07-01T07:33:32Z</time>
      </trkpt>
      <trkpt lat="45.31284" lon="6.67789">
        <ele>2008.6</ele>
        <time>2018-07-01T07:33:34Z</time>
      </trkpt>
      <trkpt lat="45.31281" lon="6.67786">
        <ele>2008.3</ele>
        <time>2018-07-01T07:33:37Z</time>
      </trkpt>
      <trkpt lat="45.31279" lon="6.67782">
        <ele>2008</ele>
        <time>2018-07-01T07:33:40Z</time>
      </trkpt>
      <trkpt lat="45.31277" lon="6.67778">
        <ele>2008.4</ele>
        <time>2018-07-01T07:33:43Z</time>
      </trkpt>
      <trkpt lat="45.31275" lon="6.67775">
        <ele>2009</ele>
        <time>2018-07-01T07:33:45Z</time>
      </trkpt>
      <trkpt lat="45.31273" lon="6.67771">
        <ele>2009.5</ele>
        <time>2018-07-01T07:33:48Z</time>
      </trkpt>
      <trkpt lat="45.31271" lon="6.67766">
        <ele>2009.8</ele>
        <time>2018-07-01T07:33:51Z</time>
      </trkpt>
      <trkpt lat="45.31268" lon="6.67763">
        <ele>2010.1</ele>
        <time>2018-07-01T07:33:54Z</time>
      </trkpt>
      <trkpt lat="45.31266" lon="6.67759">
        <ele>2010.3</ele>
        <time>2018-07-01T07:33:57Z</time>
      </trkpt>
      <trkpt lat="45.31263" lon="6.67755">
        <ele>2010.4</ele>
        <time>2018-07-01T07:34:00Z</time>
      </trkpt>
      <trkpt lat="45.31261" lon="6.67751">
        <ele>2010.6</ele>
        <time>2018-07-01T07:34:03Z</time>
      </trkpt>
      <trkpt lat="45.31259" lon="6.67747">
        <ele>2010.7</ele>
        <time>2018-07-01T07:34:06Z</time>
      </trkpt>
      <trkpt lat="45.31257" lon="6.67743">
        <ele>2010.8</ele>
        <time>2018-07-01T07:34:09Z</time>
      </trkpt>
      <trkpt lat="45.31255" lon="6.67739">
        <ele>2010.9</ele>
        <time>2018-07-01T07:34:12Z</time>
      </trkpt>
      <trkpt lat="45.31253" lon="6.67735">
        <ele>2011</ele>
        <time>2018-07-01T07:34:15Z</time>
      </trkpt>
      <trkpt lat="45.3125" lon="6.67732">
        <ele>2011.2</ele>
        <time>2018-07-01T07:34:18Z</time>
      </trkpt>
      <trkpt lat="45.31248" lon="6.67728">
        <ele>2011.7</ele>
        <time>2018-07-01T07:34:21Z</time>
      </trkpt>
      <trkpt lat="45.31245" lon="6.67724">
        <ele>2012.1</ele>
        <time>2018-07-01T07:34:24Z</time>
      </trkpt>
      <trkpt lat="45.31242" lon="6.6772">
        <ele>2012.4</ele>
        <time>2018-07-01T07:34:27Z</time>
      </trkpt>
      <trkpt lat="45.3124" lon="6.67716">
        <ele>2012.5</ele>
        <time>2018-07-01T07:34:30Z</time>
      </trkpt>
      <trkpt lat="45.31238" lon="6.67712">
        <ele>2012.9</ele>
        <time>2018-07-01T07:34:33Z</time>
      </trkpt>
      <trkpt lat="45.31236" lon="6.67709">
        <ele>2013.6</ele>
        <time>2018-07-01T07:34:36Z</time>
      </trkpt>
      <trkpt lat="45.31234" lon="6.67705">
        <ele>2014.3</ele>
        <time>2018-07-01T07:34:39Z</time>
      </trkpt>
      <trkpt lat="45.31233" lon="6.677">
        <ele>2014.8</ele>
        <time>2018-07-01T07:34:42Z</time>
      </trkpt>
      <trkpt lat="45.31231" lon="6.67695">
        <ele>2015.3</ele>
        <time>2018-07-01T07:34:45Z</time>
      </trkpt>
      <trkpt lat="45.31229" lon="6.6769">
        <ele>2016.1</ele>
        <time>2018-07-01T07:34:48Z</time>
      </trkpt>
      <trkpt lat="45.31228" lon="6.67685">
        <ele>2017</ele>
        <time>2018-07-01T07:34:51Z</time>
      </trkpt>
      <trkpt lat="45.31226" lon="6.67681">
        <ele>2017.4</ele>
        <time>2018-07-01T07:34:54Z</time>
      </trkpt>
      <trkpt lat="45.31224" lon="6.67677">
        <ele>2017.4</ele>
        <time>2018-07-01T07:34:57Z</time>
      </trkpt>
      <trkpt lat="45.31222" lon="6.67672">
        <ele>2017.5</ele>
        <time>2018-07-01T07:35:00Z</time>
      </trkpt>
      <trkpt lat="45.3122" lon="6.67668">
        <ele>2018.2</ele>
        <time>2018-07-01T07:35:03Z</time>
      </trkpt>
      <trkpt lat="45.31218" lon="6.67664">
        <ele>2018.8</ele>
        <time>2018-07-01T07:35:06Z</time>
      </trkpt>
      <trkpt lat="45.31216" lon="6.67659">
        <ele>2019.2</ele>
        <time>2018-07-01T07:35:09Z</time>
      </trkpt>
      <trkpt lat="45.31215" lon="6.67654">
        <ele>2019.6</ele>
        <time>2018-07-01T07:35:12Z</time>
      </trkpt>
      <trkpt lat="45.31213" lon="6.6765">
        <ele>2020</ele>
        <time>2018-07-01T07:35:15Z</time>
      </trkpt>
      <trkpt lat="45.31212" lon="6.67645">
        <ele>2020.4</ele>
        <time>2018-07-01T07:35:18Z</time>
      </trkpt>
      <trkpt lat="45.31211" lon="6.6764">
        <ele>2020.8</ele>
        <time>2018-07-01T07:35:21Z</time>
      </trkpt>
      <trkpt lat="45.31211" lon="6.67635">
        <ele>2021.3</ele>
        <time>2018-07-01T07:35:24Z</time>
      </trkpt>
      <trkpt lat="45.3121" lon="6.6763">
        <ele>2021.9</ele>
        <time>2018-07-01T07:35:27Z</time>
      </trkpt>
      <trkpt lat="45.31209" lon="6.67624">
        <ele>2022.3</ele>
        <time>2018-07-01T07:35:30Z</time>
      </trkpt>
      <trkpt lat="45.31208" lon="6.67619">
        <ele>2022.6</ele>
        <time>2018-07-01T07:35:33Z</time>
      </trkpt>
      <trkpt lat="45.31207" lon="6.67615">
        <ele>2023.2</ele>
        <time>2018-07-01T07:35:36Z</time>
      </trkpt>
      <trkpt lat="45.31205" lon="6.67611">
        <ele>2023.8</ele>
        <time>2018-07-01T07:35:39Z</time>
      </trkpt>
      <trkpt lat="45.31203" lon="6.67607">
        <ele>2024.3</ele>
        <time>2018-07-01T07:35:42Z</time>
      </trkpt>
      <trkpt lat="45.31201" lon="6.67604">
        <ele>2024.4</ele>
        <time>2018-07-01T07:35:45Z</time>
      </trkpt>
      <trkpt lat="45.31199" lon="6.676">
        <ele>2024.4</ele>
        <time>2018-07-01T07:35:48Z</time>
      </trkpt>
      <trkpt lat="45.31197" lon="6.67596">
        <ele>2024.9</ele>
        <time>2018-07-01T07:35:51Z</time>
      </trkpt>
      <trkpt lat="45.31196" lon="6.67593">
        <ele>2025.5</ele>
        <time>2018-07-01T07:35:54Z</time>
      </trkpt>
      <trkpt lat="45.31195" lon="6.67589">
        <ele>2026.2</ele>
        <time>2018-07-01T07:36:05Z</time>
      </trkpt>
      <trkpt lat="45.31194" lon="6.67584">
        <ele>2026.5</ele>
        <time>2018-07-01T07:36:08Z</time>
      </trkpt>
      <trkpt lat="45.31193" lon="6.67579">
        <ele>2026.9</ele>
        <time>2018-07-01T07:36:11Z</time>
      </trkpt>
      <trkpt lat="45.31192" lon="6.67574">
        <ele>2027.4</ele>
        <time>2018-07-01T07:36:14Z</time>
      </trkpt>
      <trkpt lat="45.3119" lon="6.67569">
        <ele>2028.1</ele>
        <time>2018-07-01T07:36:17Z</time>
      </trkpt>
      <trkpt lat="45.31189" lon="6.67564">
        <ele>2028.9</ele>
        <time>2018-07-01T07:36:20Z</time>
      </trkpt>
      <trkpt lat="45.31187" lon="6.6756">
        <ele>2029.7</ele>
        <time>2018-07-01T07:36:23Z</time>
      </trkpt>
      <trkpt lat="45.31187" lon="6.67556">
        <ele>2030.3</ele>
        <time>2018-07-01T07:36:25Z</time>
      </trkpt>
      <trkpt lat="45.31185" lon="6.67551">
        <ele>2030.8</ele>
        <time>2018-07-01T07:36:28Z</time>
      </trkpt>
      <trkpt lat="45.31183" lon="6.67546">
        <ele>2031.2</ele>
        <time>2018-07-01T07:36:31Z</time>
      </trkpt>
      <trkpt lat="45.31182" lon="6.67541">
        <ele>2031.8</ele>
        <time>2018-07-01T07:36:34Z</time>
      </trkpt>
      <trkpt lat="45.3118" lon="6.67537">
        <ele>2032.4</ele>
        <time>2018-07-01T07:36:37Z</time>
      </trkpt>
      <trkpt lat="45.31179" lon="6.67533">
        <ele>2032.8</ele>
        <time>2018-07-01T07:36:39Z</time>
      </trkpt>
      <trkpt lat="45.31177" lon="6.67527">
        <ele>2033.5</ele>
        <time>2018-07-01T07:36:43Z</time>
      </trkpt>
      <trkpt lat="45.31176" lon="6.67523">
        <ele>2033.9</ele>
        <time>2018-07-01T07:36:45Z</time>
      </trkpt>
      <trkpt lat="45.31175" lon="6.67519">
        <ele>2034.2</ele>
        <time>2018-07-01T07:36:47Z</time>
      </trkpt>
      <trkpt lat="45.31173" lon="6.67514">
        <ele>2034.5</ele>
        <time>2018-07-01T07:36:50Z</time>
      </trkpt>
      <trkpt lat="45.31172" lon="6.67509">
        <ele>2034.8</ele>
        <time>2018-07-01T07:36:53Z</time>
      </trkpt>
      <trkpt lat="45.3117" lon="6.67506">
        <ele>2035.1</ele>
        <time>2018-07-01T07:36:55Z</time>
      </trkpt>
      <trkpt lat="45.31169" lon="6.67501">
        <ele>2035.6</ele>
        <time>2018-07-01T07:36:58Z</time>
      </trkpt>
      <trkpt lat="45.31167" lon="6.67495">
        <ele>2035.8</ele>
        <time>2018-07-01T07:37:01Z</time>
      </trkpt>
      <trkpt lat="45.31166" lon="6.6749">
        <ele>2035.9</ele>
        <time>2018-07-01T07:37:04Z</time>
      </trkpt>
      <trkpt lat="45.31164" lon="6.67486">
        <ele>2035.8</ele>
        <time>2018-07-01T07:37:07Z</time>
      </trkpt>
      <trkpt lat="45.31162" lon="6.67481">
        <ele>2035.5</ele>
        <time>2018-07-01T07:37:10Z</time>
      </trkpt>
      <trkpt lat="45.31161" lon="6.67477">
        <ele>2035.7</ele>
        <time>2018-07-01T07:37:13Z</time>
      </trkpt>
      <trkpt lat="45.31159" lon="6.67473">
        <ele>2036.2</ele>
        <time>2018-07-01T07:37:16Z</time>
      </trkpt>
      <trkpt lat="45.31158" lon="6.67468">
        <ele>2036.7</ele>
        <time>2018-07-01T07:37:19Z</time>
      </trkpt>
      <trkpt lat="45.31156" lon="6.67463">
        <ele>2037</ele>
        <time>2018-07-01T07:37:22Z</time>
      </trkpt>
      <trkpt lat="45.31155" lon="6.67458">
        <ele>2037.2</ele>
        <time>2018-07-01T07:37:25Z</time>
      </trkpt>
      <trkpt lat="45.31155" lon="6.67454">
        <ele>2037.3</ele>
        <time>2018-07-01T07:37:27Z</time>
      </trkpt>
      <trkpt lat="45.31154" lon="6.67449">
        <ele>2037.4</ele>
        <time>2018-07-01T07:37:30Z</time>
      </trkpt>
      <trkpt lat="45.31153" lon="6.67444">
        <ele>2037.8</ele>
        <time>2018-07-01T07:37:33Z</time>
      </trkpt>
      <trkpt lat="45.31151" lon="6.67439">
        <ele>2038.4</ele>
        <time>2018-07-01T07:37:36Z</time>
      </trkpt>
      <trkpt lat="45.3115" lon="6.67435">
        <ele>2038.8</ele>
        <time>2018-07-01T07:37:39Z</time>
      </trkpt>
      <trkpt lat="45.31149" lon="6.6743">
        <ele>2039.1</ele>
        <time>2018-07-01T07:37:42Z</time>
      </trkpt>
      <trkpt lat="45.31147" lon="6.67425">
        <ele>2039.3</ele>
        <time>2018-07-01T07:37:45Z</time>
      </trkpt>
      <trkpt lat="45.31145" lon="6.67421">
        <ele>2039.6</ele>
        <time>2018-07-01T07:37:48Z</time>
      </trkpt>
      <trkpt lat="45.31143" lon="6.67416">
        <ele>2039.9</ele>
        <time>2018-07-01T07:37:51Z</time>
      </trkpt>
      <trkpt lat="45.31141" lon="6.67413">
        <ele>2040</ele>
        <time>2018-07-01T07:37:53Z</time>
      </trkpt>
      <trkpt lat="45.31139" lon="6.67409">
        <ele>2040</ele>
        <time>2018-07-01T07:37:56Z</time>
      </trkpt>
      <trkpt lat="45.31136" lon="6.67405">
        <ele>2039.7</ele>
        <time>2018-07-01T07:37:59Z</time>
      </trkpt>
      <trkpt lat="45.31134" lon="6.67402">
        <ele>2039.5</ele>
        <time>2018-07-01T07:38:02Z</time>
      </trkpt>
      <trkpt lat="45.31131" lon="6.67398">
        <ele>2039.4</ele>
        <time>2018-07-01T07:38:05Z</time>
      </trkpt>
      <trkpt lat="45.31129" lon="6.67394">
        <ele>2039.3</ele>
        <time>2018-07-01T07:38:08Z</time>
      </trkpt>
      <trkpt lat="45.31127" lon="6.6739">
        <ele>2039.3</ele>
        <time>2018-07-01T07:38:11Z</time>
      </trkpt>
      <trkpt lat="45.31126" lon="6.67386">
        <ele>2039.3</ele>
        <time>2018-07-01T07:38:14Z</time>
      </trkpt>
      <trkpt lat="45.31124" lon="6.67382">
        <ele>2039.4</ele>
        <time>2018-07-01T07:38:17Z</time>
      </trkpt>
      <trkpt lat="45.31121" lon="6.67378">
        <ele>2039.5</ele>
        <time>2018-07-01T07:38:20Z</time>
      </trkpt>
      <trkpt lat="45.3112" lon="6.67374">
        <ele>2039.7</ele>
        <time>2018-07-01T07:38:22Z</time>
      </trkpt>
      <trkpt lat="45.31118" lon="6.6737">
        <ele>2039.8</ele>
        <time>2018-07-01T07:38:25Z</time>
      </trkpt>
      <trkpt lat="45.31116" lon="6.67368">
        <ele>2039.8</ele>
        <time>2018-07-01T07:38:28Z</time>
      </trkpt>
      <trkpt lat="45.31113" lon="6.67366">
        <ele>2039.8</ele>
        <time>2018-07-01T07:38:31Z</time>
      </trkpt>
      <trkpt lat="45.31111" lon="6.67362">
        <ele>2039.9</ele>
        <time>2018-07-01T07:38:34Z</time>
      </trkpt>
      <trkpt lat="45.31109" lon="6.67359">
        <ele>2040</ele>
        <time>2018-07-01T07:38:37Z</time>
      </trkpt>
      <trkpt lat="45.31107" lon="6.67355">
        <ele>2040.2</ele>
        <time>2018-07-01T07:38:40Z</time>
      </trkpt>
      <trkpt lat="45.31104" lon="6.67352">
        <ele>2040.3</ele>
        <time>2018-07-01T07:38:43Z</time>
      </trkpt>
      <trkpt lat="45.31102" lon="6.67348">
        <ele>2040.6</ele>
        <time>2018-07-01T07:38:46Z</time>
      </trkpt>
      <trkpt lat="45.311" lon="6.67344">
        <ele>2040.9</ele>
        <time>2018-07-01T07:38:49Z</time>
      </trkpt>
      <trkpt lat="45.31097" lon="6.6734">
        <ele>2041.2</ele>
        <time>2018-07-01T07:38:52Z</time>
      </trkpt>
      <trkpt lat="45.31096" lon="6.67335">
        <ele>2041.6</ele>
        <time>2018-07-01T07:38:55Z</time>
      </trkpt>
      <trkpt lat="45.31094" lon="6.67331">
        <ele>2041.9</ele>
        <time>2018-07-01T07:38:57Z</time>
      </trkpt>
      <trkpt lat="45.31093" lon="6.67326">
        <ele>2042.3</ele>
        <time>2018-07-01T07:39:00Z</time>
      </trkpt>
      <trkpt lat="45.31091" lon="6.67322">
        <ele>2042.6</ele>
        <time>2018-07-01T07:39:03Z</time>
      </trkpt>
      <trkpt lat="45.31088" lon="6.67318">
        <ele>2042.9</ele>
        <time>2018-07-01T07:39:06Z</time>
      </trkpt>
      <trkpt lat="45.31086" lon="6.67314">
        <ele>2043.2</ele>
        <time>2018-07-01T07:39:09Z</time>
      </trkpt>
      <trkpt lat="45.31083" lon="6.67311">
        <ele>2043.4</ele>
        <time>2018-07-01T07:39:12Z</time>
      </trkpt>
      <trkpt lat="45.31081" lon="6.67308">
        <ele>2043.7</ele>
        <time>2018-07-01T07:39:15Z</time>
      </trkpt>
      <trkpt lat="45.31078" lon="6.67305">
        <ele>2043.9</ele>
        <time>2018-07-01T07:39:18Z</time>
      </trkpt>
      <trkpt lat="45.31075" lon="6.67302">
        <ele>2044.2</ele>
        <time>2018-07-01T07:39:21Z</time>
      </trkpt>
      <trkpt lat="45.31072" lon="6.673">
        <ele>2044.5</ele>
        <time>2018-07-01T07:39:24Z</time>
      </trkpt>
      <trkpt lat="45.31068" lon="6.67298">
        <ele>2044.9</ele>
        <time>2018-07-01T07:39:53Z</time>
      </trkpt>
      <trkpt lat="45.31065" lon="6.67296">
        <ele>2045.2</ele>
        <time>2018-07-01T07:39:58Z</time>
      </trkpt>
      <trkpt lat="45.31062" lon="6.67293">
        <ele>2045.4</ele>
        <time>2018-07-01T07:40:03Z</time>
      </trkpt>
      <trkpt lat="45.3106" lon="6.67291">
        <ele>2045.9</ele>
        <time>2018-07-01T07:40:07Z</time>
      </trkpt>
      <trkpt lat="45.31059" lon="6.67286">
        <ele>2046.5</ele>
        <time>2018-07-01T07:40:15Z</time>
      </trkpt>
      <trkpt lat="45.31058" lon="6.67282">
        <ele>2047</ele>
        <time>2018-07-01T07:40:28Z</time>
      </trkpt>
      <trkpt lat="45.31055" lon="6.67279">
        <ele>2047.4</ele>
        <time>2018-07-01T07:40:41Z</time>
      </trkpt>
      <trkpt lat="45.31053" lon="6.67275">
        <ele>2047.7</ele>
        <time>2018-07-01T07:40:44Z</time>
      </trkpt>
      <trkpt lat="45.31052" lon="6.67272">
        <ele>2048</ele>
        <time>2018-07-01T07:40:47Z</time>
      </trkpt>
      <trkpt lat="45.3105" lon="6.67269">
        <ele>2048.3</ele>
        <time>2018-07-01T07:40:50Z</time>
      </trkpt>
      <trkpt lat="45.31047" lon="6.67265">
        <ele>2048.6</ele>
        <time>2018-07-01T07:40:53Z</time>
      </trkpt>
      <trkpt lat="45.31044" lon="6.67263">
        <ele>2048.9</ele>
        <time>2018-07-01T07:40:55Z</time>
      </trkpt>
      <trkpt lat="45.31042" lon="6.67259">
        <ele>2049.3</ele>
        <time>2018-07-01T07:40:58Z</time>
      </trkpt>
      <trkpt lat="45.3104" lon="6.67254">
        <ele>2049.7</ele>
        <time>2018-07-01T07:41:01Z</time>
      </trkpt>
      <trkpt lat="45.31037" lon="6.6725">
        <ele>2050.2</ele>
        <time>2018-07-01T07:41:04Z</time>
      </trkpt>
      <trkpt lat="45.31035" lon="6.67245">
        <ele>2050.6</ele>
        <time>2018-07-01T07:41:07Z</time>
      </trkpt>
      <trkpt lat="45.31032" lon="6.67241">
        <ele>2050.9</ele>
        <time>2018-07-01T07:41:10Z</time>
      </trkpt>
      <trkpt lat="45.3103" lon="6.67238">
        <ele>2051.1</ele>
        <time>2018-07-01T07:41:12Z</time>
      </trkpt>
      <trkpt lat="45.31029" lon="6.67235">
        <ele>2051.2</ele>
        <time>2018-07-01T07:41:14Z</time>
      </trkpt>
      <trkpt lat="45.31027" lon="6.67232">
        <ele>2051.5</ele>
        <time>2018-07-01T07:41:16Z</time>
      </trkpt>
      <trkpt lat="45.31024" lon="6.67229">
        <ele>2051.7</ele>
        <time>2018-07-01T07:41:18Z</time>
      </trkpt>
      <trkpt lat="45.31022" lon="6.67226">
        <ele>2051.9</ele>
        <time>2018-07-01T07:41:20Z</time>
      </trkpt>
      <trkpt lat="45.3102" lon="6.67222">
        <ele>2052.2</ele>
        <time>2018-07-01T07:41:23Z</time>
      </trkpt>
      <trkpt lat="45.31018" lon="6.67216">
        <ele>2052.4</ele>
        <time>2018-07-01T07:41:26Z</time>
      </trkpt>
      <trkpt lat="45.31017" lon="6.67213">
        <ele>2052.4</ele>
        <time>2018-07-01T07:41:28Z</time>
      </trkpt>
      <trkpt lat="45.31016" lon="6.67209">
        <ele>2052.4</ele>
        <time>2018-07-01T07:41:31Z</time>
      </trkpt>
      <trkpt lat="45.31015" lon="6.67205">
        <ele>2052.6</ele>
        <time>2018-07-01T07:41:33Z</time>
      </trkpt>
      <trkpt lat="45.31013" lon="6.672">
        <ele>2052.9</ele>
        <time>2018-07-01T07:41:36Z</time>
      </trkpt>
      <trkpt lat="45.31011" lon="6.67195">
        <ele>2053.1</ele>
        <time>2018-07-01T07:41:39Z</time>
      </trkpt>
      <trkpt lat="45.3101" lon="6.67191">
        <ele>2053.2</ele>
        <time>2018-07-01T07:41:42Z</time>
      </trkpt>
      <trkpt lat="45.31009" lon="6.67187">
        <ele>2053.2</ele>
        <time>2018-07-01T07:41:44Z</time>
      </trkpt>
      <trkpt lat="45.31007" lon="6.67182">
        <ele>2053.2</ele>
        <time>2018-07-01T07:41:47Z</time>
      </trkpt>
      <trkpt lat="45.31006" lon="6.67178">
        <ele>2053.2</ele>
        <time>2018-07-01T07:41:49Z</time>
      </trkpt>
      <trkpt lat="45.31005" lon="6.67175">
        <ele>2053.2</ele>
        <time>2018-07-01T07:41:51Z</time>
      </trkpt>
      <trkpt lat="45.31004" lon="6.67171">
        <ele>2053.3</ele>
        <time>2018-07-01T07:41:53Z</time>
      </trkpt>
      <trkpt lat="45.31002" lon="6.67167">
        <ele>2053.4</ele>
        <time>2018-07-01T07:41:55Z</time>
      </trkpt>
      <trkpt lat="45.31001" lon="6.67163">
        <ele>2053.5</ele>
        <time>2018-07-01T07:41:57Z</time>
      </trkpt>
      <trkpt lat="45.30999" lon="6.67158">
        <ele>2053.7</ele>
        <time>2018-07-01T07:42:00Z</time>
      </trkpt>
      <trkpt lat="45.30998" lon="6.67155">
        <ele>2053.8</ele>
        <time>2018-07-01T07:42:02Z</time>
      </trkpt>
      <trkpt lat="45.30996" lon="6.6715">
        <ele>2053.9</ele>
        <time>2018-07-01T07:42:05Z</time>
      </trkpt>
      <trkpt lat="45.30995" lon="6.67146">
        <ele>2054</ele>
        <time>2018-07-01T07:42:07Z</time>
      </trkpt>
      <trkpt lat="45.30993" lon="6.67142">
        <ele>2054.1</ele>
        <time>2018-07-01T07:42:09Z</time>
      </trkpt>
      <trkpt lat="45.30992" lon="6.67137">
        <ele>2054.3</ele>
        <time>2018-07-01T07:42:12Z</time>
      </trkpt>
      <trkpt lat="45.3099" lon="6.67132">
        <ele>2054.4</ele>
        <time>2018-07-01T07:42:15Z</time>
      </trkpt>
      <trkpt lat="45.30989" lon="6.67129">
        <ele>2054.5</ele>
        <time>2018-07-01T07:42:17Z</time>
      </trkpt>
      <trkpt lat="45.30987" lon="6.67125">
        <ele>2054.6</ele>
        <time>2018-07-01T07:42:19Z</time>
      </trkpt>
      <trkpt lat="45.30986" lon="6.67121">
        <ele>2054.6</ele>
        <time>2018-07-01T07:42:21Z</time>
      </trkpt>
      <trkpt lat="45.30984" lon="6.67118">
        <ele>2054.6</ele>
        <time>2018-07-01T07:42:23Z</time>
      </trkpt>
      <trkpt lat="45.30982" lon="6.67115">
        <ele>2054.5</ele>
        <time>2018-07-01T07:42:25Z</time>
      </trkpt>
      <trkpt lat="45.3098" lon="6.67111">
        <ele>2054.5</ele>
        <time>2018-07-01T07:42:27Z</time>
      </trkpt>
      <trkpt lat="45.30978" lon="6.67108">
        <ele>2054.6</ele>
        <time>2018-07-01T07:42:29Z</time>
      </trkpt>
      <trkpt lat="45.30977" lon="6.67105">
        <ele>2054.6</ele>
        <time>2018-07-01T07:42:31Z</time>
      </trkpt>
      <trkpt lat="45.30975" lon="6.671">
        <ele>2054.7</ele>
        <time>2018-07-01T07:42:33Z</time>
      </trkpt>
      <trkpt lat="45.30974" lon="6.67096">
        <ele>2054.9</ele>
        <time>2018-07-01T07:42:35Z</time>
      </trkpt>
      <trkpt lat="45.30972" lon="6.67091">
        <ele>2055</ele>
        <time>2018-07-01T07:42:38Z</time>
      </trkpt>
      <trkpt lat="45.30971" lon="6.67086">
        <ele>2055.1</ele>
        <time>2018-07-01T07:42:41Z</time>
      </trkpt>
      <trkpt lat="45.3097" lon="6.67082">
        <ele>2055.2</ele>
        <time>2018-07-01T07:42:43Z</time>
      </trkpt>
      <trkpt lat="45.30968" lon="6.67077">
        <ele>2055.3</ele>
        <time>2018-07-01T07:42:46Z</time>
      </trkpt>
      <trkpt lat="45.30967" lon="6.67073">
        <ele>2055.3</ele>
        <time>2018-07-01T07:42:48Z</time>
      </trkpt>
      <trkpt lat="45.30965" lon="6.67069">
        <ele>2055.5</ele>
        <time>2018-07-01T07:42:50Z</time>
      </trkpt>
      <trkpt lat="45.30963" lon="6.67065">
        <ele>2055.8</ele>
        <time>2018-07-01T07:42:53Z</time>
      </trkpt>
      <trkpt lat="45.30961" lon="6.6706">
        <ele>2056</ele>
        <time>2018-07-01T07:42:56Z</time>
      </trkpt>
      <trkpt lat="45.3096" lon="6.67057">
        <ele>2056.3</ele>
        <time>2018-07-01T07:42:58Z</time>
      </trkpt>
      <trkpt lat="45.30958" lon="6.67053">
        <ele>2056.5</ele>
        <time>2018-07-01T07:43:00Z</time>
      </trkpt>
      <trkpt lat="45.30955" lon="6.67049">
        <ele>2056.9</ele>
        <time>2018-07-01T07:43:03Z</time>
      </trkpt>
      <trkpt lat="45.30953" lon="6.67044">
        <ele>2057.3</ele>
        <time>2018-07-01T07:43:06Z</time>
      </trkpt>
      <trkpt lat="45.30951" lon="6.67041">
        <ele>2057.6</ele>
        <time>2018-07-01T07:43:08Z</time>
      </trkpt>
      <trkpt lat="45.30949" lon="6.67038">
        <ele>2057.8</ele>
        <time>2018-07-01T07:43:10Z</time>
      </trkpt>
      <trkpt lat="45.30947" lon="6.67035">
        <ele>2057.9</ele>
        <time>2018-07-01T07:43:12Z</time>
      </trkpt>
      <trkpt lat="45.30945" lon="6.67031">
        <ele>2058.1</ele>
        <time>2018-07-01T07:43:15Z</time>
      </trkpt>
      <trkpt lat="45.30943" lon="6.67027">
        <ele>2058.4</ele>
        <time>2018-07-01T07:43:18Z</time>
      </trkpt>
      <trkpt lat="45.30941" lon="6.67023">
        <ele>2058.7</ele>
        <time>2018-07-01T07:43:20Z</time>
      </trkpt>
      <trkpt lat="45.3094" lon="6.6702">
        <ele>2059</ele>
        <time>2018-07-01T07:43:22Z</time>
      </trkpt>
      <trkpt lat="45.30937" lon="6.67016">
        <ele>2059.5</ele>
        <time>2018-07-01T07:43:25Z</time>
      </trkpt>
      <trkpt lat="45.30936" lon="6.67012">
        <ele>2059.9</ele>
        <time>2018-07-01T07:43:28Z</time>
      </trkpt>
      <trkpt lat="45.30934" lon="6.67009">
        <ele>2060.4</ele>
        <time>2018-07-01T07:43:31Z</time>
      </trkpt>
      <trkpt lat="45.30932" lon="6.67005">
        <ele>2061</ele>
        <time>2018-07-01T07:43:42Z</time>
      </trkpt>
      <trkpt lat="45.30924" lon="6.67006">
        <ele>2062</ele>
        <time>2018-07-01T07:43:46Z</time>
      </trkpt>
      <trkpt lat="45.30922" lon="6.67002">
        <ele>2062.4</ele>
        <time>2018-07-01T07:43:48Z</time>
      </trkpt>
      <trkpt lat="45.3092" lon="6.66999">
        <ele>2062.6</ele>
        <time>2018-07-01T07:43:50Z</time>
      </trkpt>
      <trkpt lat="45.30919" lon="6.66994">
        <ele>2063</ele>
        <time>2018-07-01T07:43:53Z</time>
      </trkpt>
      <trkpt lat="45.30916" lon="6.66989">
        <ele>2063.4</ele>
        <time>2018-07-01T07:43:56Z</time>
      </trkpt>
      <trkpt lat="45.30914" lon="6.66986">
        <ele>2063.7</ele>
        <time>2018-07-01T07:43:58Z</time>
      </trkpt>
      <trkpt lat="45.30912" lon="6.66982">
        <ele>2064.2</ele>
        <time>2018-07-01T07:44:00Z</time>
      </trkpt>
      <trkpt lat="45.3091" lon="6.66979">
        <ele>2064.9</ele>
        <time>2018-07-01T07:44:02Z</time>
      </trkpt>
      <trkpt lat="45.30908" lon="6.66975">
        <ele>2065.8</ele>
        <time>2018-07-01T07:44:05Z</time>
      </trkpt>
      <trkpt lat="45.30907" lon="6.66971">
        <ele>2066.5</ele>
        <time>2018-07-01T07:44:08Z</time>
      </trkpt>
      <trkpt lat="45.30905" lon="6.66967">
        <ele>2067.1</ele>
        <time>2018-07-01T07:44:11Z</time>
      </trkpt>
      <trkpt lat="45.30902" lon="6.66964">
        <ele>2067.8</ele>
        <time>2018-07-01T07:44:13Z</time>
      </trkpt>
      <trkpt lat="45.309" lon="6.66959">
        <ele>2068.4</ele>
        <time>2018-07-01T07:44:16Z</time>
      </trkpt>
      <trkpt lat="45.30898" lon="6.66956">
        <ele>2068.9</ele>
        <time>2018-07-01T07:44:19Z</time>
      </trkpt>
      <trkpt lat="45.30895" lon="6.66952">
        <ele>2069.5</ele>
        <time>2018-07-01T07:44:22Z</time>
      </trkpt>
      <trkpt lat="45.30893" lon="6.66949">
        <ele>2070.1</ele>
        <time>2018-07-01T07:44:25Z</time>
      </trkpt>
      <trkpt lat="45.30891" lon="6.66945">
        <ele>2070.8</ele>
        <time>2018-07-01T07:44:28Z</time>
      </trkpt>
      <trkpt lat="45.30888" lon="6.66943">
        <ele>2071.3</ele>
        <time>2018-07-01T07:44:31Z</time>
      </trkpt>
      <trkpt lat="45.30886" lon="6.6694">
        <ele>2071.9</ele>
        <time>2018-07-01T07:44:34Z</time>
      </trkpt>
      <trkpt lat="45.30883" lon="6.66936">
        <ele>2072.4</ele>
        <time>2018-07-01T07:44:37Z</time>
      </trkpt>
      <trkpt lat="45.3088" lon="6.66933">
        <ele>2072.6</ele>
        <time>2018-07-01T07:44:40Z</time>
      </trkpt>
      <trkpt lat="45.30877" lon="6.6693">
        <ele>2072.8</ele>
        <time>2018-07-01T07:44:43Z</time>
      </trkpt>
      <trkpt lat="45.30874" lon="6.66927">
        <ele>2073.5</ele>
        <time>2018-07-01T07:44:46Z</time>
      </trkpt>
      <trkpt lat="45.30872" lon="6.66923">
        <ele>2074.3</ele>
        <time>2018-07-01T07:44:49Z</time>
      </trkpt>
      <trkpt lat="45.30869" lon="6.66921">
        <ele>2074.7</ele>
        <time>2018-07-01T07:44:52Z</time>
      </trkpt>
      <trkpt lat="45.30866" lon="6.66918">
        <ele>2075</ele>
        <time>2018-07-01T07:44:55Z</time>
      </trkpt>
      <trkpt lat="45.30864" lon="6.66916">
        <ele>2075.2</ele>
        <time>2018-07-01T07:44:57Z</time>
      </trkpt>
      <trkpt lat="45.30861" lon="6.66913">
        <ele>2075.7</ele>
        <time>2018-07-01T07:45:00Z</time>
      </trkpt>
      <trkpt lat="45.30858" lon="6.6691">
        <ele>2076.5</ele>
        <time>2018-07-01T07:45:03Z</time>
      </trkpt>
      <trkpt lat="45.30855" lon="6.66907">
        <ele>2077.3</ele>
        <time>2018-07-01T07:45:06Z</time>
      </trkpt>
      <trkpt lat="45.30852" lon="6.66904">
        <ele>2078</ele>
        <time>2018-07-01T07:45:09Z</time>
      </trkpt>
      <trkpt lat="45.30849" lon="6.66901">
        <ele>2078.8</ele>
        <time>2018-07-01T07:45:12Z</time>
      </trkpt>
      <trkpt lat="45.30846" lon="6.669">
        <ele>2079.2</ele>
        <time>2018-07-01T07:45:15Z</time>
      </trkpt>
      <trkpt lat="45.30842" lon="6.66898">
        <ele>2079.6</ele>
        <time>2018-07-01T07:45:18Z</time>
      </trkpt>
      <trkpt lat="45.30839" lon="6.66898">
        <ele>2079.9</ele>
        <time>2018-07-01T07:45:21Z</time>
      </trkpt>
      <trkpt lat="45.30836" lon="6.66896">
        <ele>2080.2</ele>
        <time>2018-07-01T07:45:24Z</time>
      </trkpt>
      <trkpt lat="45.30833" lon="6.66893">
        <ele>2080.5</ele>
        <time>2018-07-01T07:45:27Z</time>
      </trkpt>
      <trkpt lat="45.30829" lon="6.66892">
        <ele>2080.9</ele>
        <time>2018-07-01T07:45:30Z</time>
      </trkpt>
      <trkpt lat="45.30827" lon="6.6689">
        <ele>2081.1</ele>
        <time>2018-07-01T07:45:32Z</time>
      </trkpt>
      <trkpt lat="45.30824" lon="6.66888">
        <ele>2081.4</ele>
        <time>2018-07-01T07:45:34Z</time>
      </trkpt>
      <trkpt lat="45.30822" lon="6.66886">
        <ele>2081.6</ele>
        <time>2018-07-01T07:45:36Z</time>
      </trkpt>
      <trkpt lat="45.30819" lon="6.66883">
        <ele>2081.8</ele>
        <time>2018-07-01T07:45:39Z</time>
      </trkpt>
      <trkpt lat="45.30815" lon="6.66881">
        <ele>2082.1</ele>
        <time>2018-07-01T07:45:42Z</time>
      </trkpt>
      <trkpt lat="45.30813" lon="6.66879">
        <ele>2082.6</ele>
        <time>2018-07-01T07:45:44Z</time>
      </trkpt>
      <trkpt lat="45.3081" lon="6.66876">
        <ele>2083.2</ele>
        <time>2018-07-01T07:45:47Z</time>
      </trkpt>
      <trkpt lat="45.30808" lon="6.66873">
        <ele>2083.5</ele>
        <time>2018-07-01T07:45:49Z</time>
      </trkpt>
      <trkpt lat="45.30805" lon="6.6687">
        <ele>2083.9</ele>
        <time>2018-07-01T07:45:52Z</time>
      </trkpt>
      <trkpt lat="45.30802" lon="6.66868">
        <ele>2084.3</ele>
        <time>2018-07-01T07:45:55Z</time>
      </trkpt>
      <trkpt lat="45.30799" lon="6.66866">
        <ele>2084.3</ele>
        <time>2018-07-01T07:45:58Z</time>
      </trkpt>
      <trkpt lat="45.30796" lon="6.66863">
        <ele>2084.4</ele>
        <time>2018-07-01T07:46:01Z</time>
      </trkpt>
      <trkpt lat="45.30793" lon="6.66862">
        <ele>2084.5</ele>
        <time>2018-07-01T07:46:04Z</time>
      </trkpt>
      <trkpt lat="45.30789" lon="6.6686">
        <ele>2084.7</ele>
        <time>2018-07-01T07:46:07Z</time>
      </trkpt>
      <trkpt lat="45.30786" lon="6.6686">
        <ele>2084.9</ele>
        <time>2018-07-01T07:46:10Z</time>
      </trkpt>
      <trkpt lat="45.30783" lon="6.66859">
        <ele>2085</ele>
        <time>2018-07-01T07:46:12Z</time>
      </trkpt>
      <trkpt lat="45.3078" lon="6.66859">
        <ele>2084.8</ele>
        <time>2018-07-01T07:46:15Z</time>
      </trkpt>
      <trkpt lat="45.30777" lon="6.66859">
        <ele>2084.4</ele>
        <time>2018-07-01T07:46:18Z</time>
      </trkpt>
      <trkpt lat="45.30774" lon="6.66859">
        <ele>2083.9</ele>
        <time>2018-07-01T07:46:21Z</time>
      </trkpt>
      <trkpt lat="45.3077" lon="6.6686">
        <ele>2083.6</ele>
        <time>2018-07-01T07:46:24Z</time>
      </trkpt>
      <trkpt lat="45.30767" lon="6.66859">
        <ele>2083.3</ele>
        <time>2018-07-01T07:46:27Z</time>
      </trkpt>
      <trkpt lat="45.30764" lon="6.66858">
        <ele>2083</ele>
        <time>2018-07-01T07:46:30Z</time>
      </trkpt>
      <trkpt lat="45.30761" lon="6.66858">
        <ele>2082.8</ele>
        <time>2018-07-01T07:46:33Z</time>
      </trkpt>
      <trkpt lat="45.30758" lon="6.66858">
        <ele>2082.6</ele>
        <time>2018-07-01T07:46:36Z</time>
      </trkpt>
      <trkpt lat="45.30754" lon="6.66856">
        <ele>2082.4</ele>
        <time>2018-07-01T07:46:39Z</time>
      </trkpt>
      <trkpt lat="45.30751" lon="6.66855">
        <ele>2082.6</ele>
        <time>2018-07-01T07:46:42Z</time>
      </trkpt>
      <trkpt lat="45.30748" lon="6.66853">
        <ele>2082.9</ele>
        <time>2018-07-01T07:46:45Z</time>
      </trkpt>
      <trkpt lat="45.30745" lon="6.66852">
        <ele>2083.2</ele>
        <time>2018-07-01T07:46:48Z</time>
      </trkpt>
      <trkpt lat="45.30742" lon="6.6685">
        <ele>2083.6</ele>
        <time>2018-07-01T07:46:51Z</time>
      </trkpt>
      <trkpt lat="45.30738" lon="6.66848">
        <ele>2083.7</ele>
        <time>2018-07-01T07:46:54Z</time>
      </trkpt>
      <trkpt lat="45.30735" lon="6.66846">
        <ele>2083.6</ele>
        <time>2018-07-01T07:46:57Z</time>
      </trkpt>
      <trkpt lat="45.30731" lon="6.66845">
        <ele>2083.8</ele>
        <time>2018-07-01T07:47:00Z</time>
      </trkpt>
      <trkpt lat="45.30728" lon="6.66845">
        <ele>2084.3</ele>
        <time>2018-07-01T07:47:03Z</time>
      </trkpt>
      <trkpt lat="45.30725" lon="6.66843">
        <ele>2084.7</ele>
        <time>2018-07-01T07:47:06Z</time>
      </trkpt>
      <trkpt lat="45.30722" lon="6.66843">
        <ele>2084.8</ele>
        <time>2018-07-01T07:47:09Z</time>
      </trkpt>
      <trkpt lat="45.30719" lon="6.66842">
        <ele>2084.8</ele>
        <time>2018-07-01T07:47:12Z</time>
      </trkpt>
      <trkpt lat="45.30715" lon="6.66841">
        <ele>2084.9</ele>
        <time>2018-07-01T07:47:15Z</time>
      </trkpt>
      <trkpt lat="45.30712" lon="6.66841">
        <ele>2085.5</ele>
        <time>2018-07-01T07:47:18Z</time>
      </trkpt>
      <trkpt lat="45.30709" lon="6.6684">
        <ele>2086.1</ele>
        <time>2018-07-01T07:47:21Z</time>
      </trkpt>
      <trkpt lat="45.30705" lon="6.66839">
        <ele>2086.2</ele>
        <time>2018-07-01T07:47:24Z</time>
      </trkpt>
      <trkpt lat="45.30702" lon="6.66838">
        <ele>2086.3</ele>
        <time>2018-07-01T07:47:27Z</time>
      </trkpt>
      <trkpt lat="45.30698" lon="6.66837">
        <ele>2086.5</ele>
        <time>2018-07-01T07:47:30Z</time>
      </trkpt>
      <trkpt lat="45.30695" lon="6.66836">
        <ele>2087.1</ele>
        <time>2018-07-01T07:47:33Z</time>
      </trkpt>
      <trkpt lat="45.30691" lon="6.66835">
        <ele>2087.7</ele>
        <time>2018-07-01T07:47:36Z</time>
      </trkpt>
      <trkpt lat="45.30688" lon="6.66833">
        <ele>2088.2</ele>
        <time>2018-07-01T07:47:39Z</time>
      </trkpt>
      <trkpt lat="45.30684" lon="6.66832">
        <ele>2088.8</ele>
        <time>2018-07-01T07:47:43Z</time>
      </trkpt>
      <trkpt lat="45.3068" lon="6.66829">
        <ele>2089.4</ele>
        <time>2018-07-01T07:47:46Z</time>
      </trkpt>
      <trkpt lat="45.30678" lon="6.66827">
        <ele>2089.9</ele>
        <time>2018-07-01T07:47:48Z</time>
      </trkpt>
      <trkpt lat="45.30674" lon="6.66825">
        <ele>2090.4</ele>
        <time>2018-07-01T07:47:51Z</time>
      </trkpt>
      <trkpt lat="45.30672" lon="6.66823">
        <ele>2090.9</ele>
        <time>2018-07-01T07:47:54Z</time>
      </trkpt>
      <trkpt lat="45.30669" lon="6.66821">
        <ele>2091.4</ele>
        <time>2018-07-01T07:47:57Z</time>
      </trkpt>
      <trkpt lat="45.30665" lon="6.66819">
        <ele>2092</ele>
        <time>2018-07-01T07:48:01Z</time>
      </trkpt>
      <trkpt lat="45.30662" lon="6.66818">
        <ele>2092.7</ele>
        <time>2018-07-01T07:48:04Z</time>
      </trkpt>
      <trkpt lat="45.30658" lon="6.66816">
        <ele>2092.9</ele>
        <time>2018-07-01T07:48:07Z</time>
      </trkpt>
      <trkpt lat="45.30655" lon="6.66815">
        <ele>2093</ele>
        <time>2018-07-01T07:48:10Z</time>
      </trkpt>
      <trkpt lat="45.30651" lon="6.66814">
        <ele>2093.4</ele>
        <time>2018-07-01T07:48:13Z</time>
      </trkpt>
      <trkpt lat="45.30648" lon="6.66812">
        <ele>2094.1</ele>
        <time>2018-07-01T07:48:16Z</time>
      </trkpt>
      <trkpt lat="45.30644" lon="6.66811">
        <ele>2094.7</ele>
        <time>2018-07-01T07:48:19Z</time>
      </trkpt>
      <trkpt lat="45.30641" lon="6.6681">
        <ele>2095.2</ele>
        <time>2018-07-01T07:48:22Z</time>
      </trkpt>
      <trkpt lat="45.30637" lon="6.66809">
        <ele>2095.9</ele>
        <time>2018-07-01T07:48:25Z</time>
      </trkpt>
      <trkpt lat="45.30634" lon="6.66807">
        <ele>2096.5</ele>
        <time>2018-07-01T07:48:28Z</time>
      </trkpt>
      <trkpt lat="45.3063" lon="6.66806">
        <ele>2097.2</ele>
        <time>2018-07-01T07:48:31Z</time>
      </trkpt>
      <trkpt lat="45.30627" lon="6.66804">
        <ele>2097.9</ele>
        <time>2018-07-01T07:48:34Z</time>
      </trkpt>
      <trkpt lat="45.30623" lon="6.66804">
        <ele>2098.5</ele>
        <time>2018-07-01T07:48:37Z</time>
      </trkpt>
      <trkpt lat="45.3062" lon="6.66804">
        <ele>2098.3</ele>
        <time>2018-07-01T07:48:40Z</time>
      </trkpt>
      <trkpt lat="45.30617" lon="6.66805">
        <ele>2097.8</ele>
        <time>2018-07-01T07:48:43Z</time>
      </trkpt>
      <trkpt lat="45.30614" lon="6.66807">
        <ele>2097.8</ele>
        <time>2018-07-01T07:48:46Z</time>
      </trkpt>
      <trkpt lat="45.30611" lon="6.6681">
        <ele>2097.9</ele>
        <time>2018-07-01T07:48:49Z</time>
      </trkpt>
      <trkpt lat="45.30609" lon="6.66814">
        <ele>2097</ele>
        <time>2018-07-01T07:48:52Z</time>
      </trkpt>
      <trkpt lat="45.30606" lon="6.66817">
        <ele>2096.1</ele>
        <time>2018-07-01T07:48:55Z</time>
      </trkpt>
      <trkpt lat="45.30603" lon="6.6682">
        <ele>2095.7</ele>
        <time>2018-07-01T07:48:58Z</time>
      </trkpt>
      <trkpt lat="45.306" lon="6.66823">
        <ele>2095.3</ele>
        <time>2018-07-01T07:49:01Z</time>
      </trkpt>
      <trkpt lat="45.30597" lon="6.66825">
        <ele>2095</ele>
        <time>2018-07-01T07:49:04Z</time>
      </trkpt>
      <trkpt lat="45.30593" lon="6.66826">
        <ele>2094.7</ele>
        <time>2018-07-01T07:49:07Z</time>
      </trkpt>
      <trkpt lat="45.3059" lon="6.66828">
        <ele>2094.6</ele>
        <time>2018-07-01T07:49:10Z</time>
      </trkpt>
      <trkpt lat="45.30587" lon="6.66828">
        <ele>2094.5</ele>
        <time>2018-07-01T07:49:13Z</time>
      </trkpt>
      <trkpt lat="45.30584" lon="6.66828">
        <ele>2094.7</ele>
        <time>2018-07-01T07:49:16Z</time>
      </trkpt>
      <trkpt lat="45.30581" lon="6.66829">
        <ele>2095</ele>
        <time>2018-07-01T07:49:19Z</time>
      </trkpt>
      <trkpt lat="45.30578" lon="6.66829">
        <ele>2095.3</ele>
        <time>2018-07-01T07:49:22Z</time>
      </trkpt>
      <trkpt lat="45.30574" lon="6.66827">
        <ele>2095.5</ele>
        <time>2018-07-01T07:49:25Z</time>
      </trkpt>
      <trkpt lat="45.30571" lon="6.66825">
        <ele>2095.8</ele>
        <time>2018-07-01T07:49:28Z</time>
      </trkpt>
      <trkpt lat="45.30568" lon="6.66822">
        <ele>2096.5</ele>
        <time>2018-07-01T07:49:31Z</time>
      </trkpt>
      <trkpt lat="45.30566" lon="6.6682">
        <ele>2097</ele>
        <time>2018-07-01T07:49:33Z</time>
      </trkpt>
      <trkpt lat="45.30563" lon="6.66818">
        <ele>2097.5</ele>
        <time>2018-07-01T07:49:36Z</time>
      </trkpt>
      <trkpt lat="45.30561" lon="6.66815">
        <ele>2098.1</ele>
        <time>2018-07-01T07:49:39Z</time>
      </trkpt>
      <trkpt lat="45.30559" lon="6.66813">
        <ele>2098.8</ele>
        <time>2018-07-01T07:49:42Z</time>
      </trkpt>
      <trkpt lat="45.30556" lon="6.66811">
        <ele>2099.8</ele>
        <time>2018-07-01T07:49:45Z</time>
      </trkpt>
      <trkpt lat="45.30553" lon="6.66808">
        <ele>2100.8</ele>
        <time>2018-07-01T07:49:48Z</time>
      </trkpt>
      <trkpt lat="45.3055" lon="6.66807">
        <ele>2101.5</ele>
        <time>2018-07-01T07:49:51Z</time>
      </trkpt>
      <trkpt lat="45.30548" lon="6.66805">
        <ele>2102.1</ele>
        <time>2018-07-01T07:49:54Z</time>
      </trkpt>
      <trkpt lat="45.30544" lon="6.66802">
        <ele>2103.2</ele>
        <time>2018-07-01T07:49:57Z</time>
      </trkpt>
      <trkpt lat="45.30542" lon="6.66799">
        <ele>2104.3</ele>
        <time>2018-07-01T07:50:00Z</time>
      </trkpt>
      <trkpt lat="45.30539" lon="6.66796">
        <ele>2105.3</ele>
        <time>2018-07-01T07:50:03Z</time>
      </trkpt>
      <trkpt lat="45.30537" lon="6.66794">
        <ele>2105.9</ele>
        <time>2018-07-01T07:50:05Z</time>
      </trkpt>
      <trkpt lat="45.30535" lon="6.6679">
        <ele>2106.5</ele>
        <time>2018-07-01T07:50:08Z</time>
      </trkpt>
      <trkpt lat="45.30533" lon="6.66788">
        <ele>2107.2</ele>
        <time>2018-07-01T07:50:11Z</time>
      </trkpt>
      <trkpt lat="45.3053" lon="6.66786">
        <ele>2108</ele>
        <time>2018-07-01T07:50:14Z</time>
      </trkpt>
      <trkpt lat="45.30526" lon="6.66784">
        <ele>2108.9</ele>
        <time>2018-07-01T07:50:18Z</time>
      </trkpt>
      <trkpt lat="45.30524" lon="6.66783">
        <ele>2109.9</ele>
        <time>2018-07-01T07:50:21Z</time>
      </trkpt>
      <trkpt lat="45.30521" lon="6.66781">
        <ele>2110.8</ele>
        <time>2018-07-01T07:50:24Z</time>
      </trkpt>
      <trkpt lat="45.30517" lon="6.6678">
        <ele>2111.8</ele>
        <time>2018-07-01T07:50:28Z</time>
      </trkpt>
      <trkpt lat="45.30514" lon="6.66779">
        <ele>2112.6</ele>
        <time>2018-07-01T07:50:31Z</time>
      </trkpt>
      <trkpt lat="45.30512" lon="6.66778">
        <ele>2113.4</ele>
        <time>2018-07-01T07:50:34Z</time>
      </trkpt>
      <trkpt lat="45.30509" lon="6.66778">
        <ele>2114</ele>
        <time>2018-07-01T07:50:37Z</time>
      </trkpt>
      <trkpt lat="45.30506" lon="6.66777">
        <ele>2114.7</ele>
        <time>2018-07-01T07:50:40Z</time>
      </trkpt>
      <trkpt lat="45.30503" lon="6.66776">
        <ele>2115.7</ele>
        <time>2018-07-01T07:50:43Z</time>
      </trkpt>
      <trkpt lat="45.30499" lon="6.66775">
        <ele>2116.8</ele>
        <time>2018-07-01T07:50:47Z</time>
      </trkpt>
      <trkpt lat="45.30496" lon="6.66774">
        <ele>2118</ele>
        <time>2018-07-01T07:50:50Z</time>
      </trkpt>
      <trkpt lat="45.30493" lon="6.66773">
        <ele>2119.3</ele>
        <time>2018-07-01T07:50:53Z</time>
      </trkpt>
      <trkpt lat="45.3049" lon="6.66772">
        <ele>2120.5</ele>
        <time>2018-07-01T07:50:56Z</time>
      </trkpt>
      <trkpt lat="45.30487" lon="6.66771">
        <ele>2121.6</ele>
        <time>2018-07-01T07:50:59Z</time>
      </trkpt>
      <trkpt lat="45.30484" lon="6.6677">
        <ele>2122.6</ele>
        <time>2018-07-01T07:51:01Z</time>
      </trkpt>
      <trkpt lat="45.30481" lon="6.66768">
        <ele>2123.9</ele>
        <time>2018-07-01T07:51:04Z</time>
      </trkpt>
      <trkpt lat="45.30478" lon="6.66767">
        <ele>2124.7</ele>
        <time>2018-07-01T07:51:07Z</time>
      </trkpt>
      <trkpt lat="45.30474" lon="6.66765">
        <ele>2125.5</ele>
        <time>2018-07-01T07:51:10Z</time>
      </trkpt>
      <trkpt lat="45.30471" lon="6.66764">
        <ele>2126.3</ele>
        <time>2018-07-01T07:51:13Z</time>
      </trkpt>
      <trkpt lat="45.30468" lon="6.66763">
        <ele>2127.3</ele>
        <time>2018-07-01T07:51:16Z</time>
      </trkpt>
      <trkpt lat="45.30465" lon="6.66761">
        <ele>2128.4</ele>
        <time>2018-07-01T07:51:19Z</time>
      </trkpt>
      <trkpt lat="45.30462" lon="6.6676">
        <ele>2129.4</ele>
        <time>2018-07-01T07:51:22Z</time>
      </trkpt>
      <trkpt lat="45.30459" lon="6.66758">
        <ele>2130.5</ele>
        <time>2018-07-01T07:51:25Z</time>
      </trkpt>
      <trkpt lat="45.30456" lon="6.66757">
        <ele>2131.5</ele>
        <time>2018-07-01T07:51:28Z</time>
      </trkpt>
      <trkpt lat="45.30453" lon="6.66756">
        <ele>2132.4</ele>
        <time>2018-07-01T07:51:30Z</time>
      </trkpt>
      <trkpt lat="45.3045" lon="6.66756">
        <ele>2133.5</ele>
        <time>2018-07-01T07:51:33Z</time>
      </trkpt>
      <trkpt lat="45.30446" lon="6.66755">
        <ele>2134.6</ele>
        <time>2018-07-01T07:51:36Z</time>
      </trkpt>
      <trkpt lat="45.30443" lon="6.66755">
        <ele>2135</ele>
        <time>2018-07-01T07:51:39Z</time>
      </trkpt>
      <trkpt lat="45.30439" lon="6.66754">
        <ele>2135.5</ele>
        <time>2018-07-01T07:51:42Z</time>
      </trkpt>
      <trkpt lat="45.30436" lon="6.66754">
        <ele>2136.2</ele>
        <time>2018-07-01T07:51:45Z</time>
      </trkpt>
      <trkpt lat="45.30432" lon="6.66754">
        <ele>2136.7</ele>
        <time>2018-07-01T07:51:48Z</time>
      </trkpt>
      <trkpt lat="45.30429" lon="6.66755">
        <ele>2137.2</ele>
        <time>2018-07-01T07:51:51Z</time>
      </trkpt>
      <trkpt lat="45.30426" lon="6.66756">
        <ele>2137.6</ele>
        <time>2018-07-01T07:51:54Z</time>
      </trkpt>
      <trkpt lat="45.30423" lon="6.66756">
        <ele>2138.2</ele>
        <time>2018-07-01T07:51:57Z</time>
      </trkpt>
      <trkpt lat="45.30419" lon="6.66757">
        <ele>2139</ele>
        <time>2018-07-01T07:52:00Z</time>
      </trkpt>
      <trkpt lat="45.30416" lon="6.66758">
        <ele>2139.7</ele>
        <time>2018-07-01T07:52:03Z</time>
      </trkpt>
      <trkpt lat="45.30413" lon="6.66759">
        <ele>2139.9</ele>
        <time>2018-07-01T07:52:05Z</time>
      </trkpt>
      <trkpt lat="45.3041" lon="6.66761">
        <ele>2140.1</ele>
        <time>2018-07-01T07:52:08Z</time>
      </trkpt>
      <trkpt lat="45.30407" lon="6.66762">
        <ele>2140.1</ele>
        <time>2018-07-01T07:52:11Z</time>
      </trkpt>
      <trkpt lat="45.30403" lon="6.66764">
        <ele>2140.1</ele>
        <time>2018-07-01T07:52:14Z</time>
      </trkpt>
      <trkpt lat="45.304" lon="6.66766">
        <ele>2140</ele>
        <time>2018-07-01T07:52:17Z</time>
      </trkpt>
      <trkpt lat="45.30397" lon="6.66767">
        <ele>2140.1</ele>
        <time>2018-07-01T07:52:19Z</time>
      </trkpt>
      <trkpt lat="45.30394" lon="6.66769">
        <ele>2140.3</ele>
        <time>2018-07-01T07:52:22Z</time>
      </trkpt>
      <trkpt lat="45.30391" lon="6.66769">
        <ele>2140.5</ele>
        <time>2018-07-01T07:52:25Z</time>
      </trkpt>
      <trkpt lat="45.30387" lon="6.66771">
        <ele>2140.8</ele>
        <time>2018-07-01T07:52:28Z</time>
      </trkpt>
      <trkpt lat="45.30385" lon="6.66771">
        <ele>2141</ele>
        <time>2018-07-01T07:52:30Z</time>
      </trkpt>
      <trkpt lat="45.3038" lon="6.66772">
        <ele>2141.8</ele>
        <time>2018-07-01T07:52:33Z</time>
      </trkpt>
      <trkpt lat="45.30377" lon="6.66773">
        <ele>2142.6</ele>
        <time>2018-07-01T07:52:36Z</time>
      </trkpt>
      <trkpt lat="45.30373" lon="6.66774">
        <ele>2143.1</ele>
        <time>2018-07-01T07:52:39Z</time>
      </trkpt>
      <trkpt lat="45.3037" lon="6.66776">
        <ele>2142.9</ele>
        <time>2018-07-01T07:52:42Z</time>
      </trkpt>
      <trkpt lat="45.30366" lon="6.66777">
        <ele>2142.9</ele>
        <time>2018-07-01T07:52:45Z</time>
      </trkpt>
      <trkpt lat="45.30363" lon="6.66778">
        <ele>2143.7</ele>
        <time>2018-07-01T07:52:48Z</time>
      </trkpt>
      <trkpt lat="45.30359" lon="6.66779">
        <ele>2144.4</ele>
        <time>2018-07-01T07:52:51Z</time>
      </trkpt>
      <trkpt lat="45.30356" lon="6.6678">
        <ele>2144.2</ele>
        <time>2018-07-01T07:52:54Z</time>
      </trkpt>
      <trkpt lat="45.30353" lon="6.66781">
        <ele>2144</ele>
        <time>2018-07-01T07:52:56Z</time>
      </trkpt>
      <trkpt lat="45.30349" lon="6.66781">
        <ele>2144</ele>
        <time>2018-07-01T07:52:59Z</time>
      </trkpt>
      <trkpt lat="45.30346" lon="6.66782">
        <ele>2144.5</ele>
        <time>2018-07-01T07:53:02Z</time>
      </trkpt>
      <trkpt lat="45.30343" lon="6.66783">
        <ele>2144.9</ele>
        <time>2018-07-01T07:53:05Z</time>
      </trkpt>
      <trkpt lat="45.3034" lon="6.66783">
        <ele>2144.4</ele>
        <time>2018-07-01T07:53:08Z</time>
      </trkpt>
      <trkpt lat="45.30336" lon="6.66784">
        <ele>2144.2</ele>
        <time>2018-07-01T07:53:11Z</time>
      </trkpt>
      <trkpt lat="45.30333" lon="6.66785">
        <ele>2144.5</ele>
        <time>2018-07-01T07:53:14Z</time>
      </trkpt>
      <trkpt lat="45.30329" lon="6.66786">
        <ele>2144.8</ele>
        <time>2018-07-01T07:53:17Z</time>
      </trkpt>
      <trkpt lat="45.30326" lon="6.66787">
        <ele>2145</ele>
        <time>2018-07-01T07:53:20Z</time>
      </trkpt>
      <trkpt lat="45.30322" lon="6.66788">
        <ele>2145.3</ele>
        <time>2018-07-01T07:53:23Z</time>
      </trkpt>
      <trkpt lat="45.30319" lon="6.66788">
        <ele>2144.9</ele>
        <time>2018-07-01T07:53:26Z</time>
      </trkpt>
      <trkpt lat="45.30316" lon="6.66789">
        <ele>2144.5</ele>
        <time>2018-07-01T07:53:29Z</time>
      </trkpt>
      <trkpt lat="45.30311" lon="6.6679">
        <ele>2144.2</ele>
        <time>2018-07-01T07:53:33Z</time>
      </trkpt>
      <trkpt lat="45.30308" lon="6.66789">
        <ele>2144.3</ele>
        <time>2018-07-01T07:53:36Z</time>
      </trkpt>
      <trkpt lat="45.30304" lon="6.66789">
        <ele>2144.4</ele>
        <time>2018-07-01T07:53:39Z</time>
      </trkpt>
      <trkpt lat="45.30301" lon="6.66789">
        <ele>2144.5</ele>
        <time>2018-07-01T07:53:42Z</time>
      </trkpt>
      <trkpt lat="45.30298" lon="6.66789">
        <ele>2144.6</ele>
        <time>2018-07-01T07:53:45Z</time>
      </trkpt>
      <trkpt lat="45.30294" lon="6.66788">
        <ele>2144.7</ele>
        <time>2018-07-01T07:53:48Z</time>
      </trkpt>
      <trkpt lat="45.3029" lon="6.66788">
        <ele>2144.9</ele>
        <time>2018-07-01T07:53:51Z</time>
      </trkpt>
      <trkpt lat="45.30287" lon="6.66788">
        <ele>2144.9</ele>
        <time>2018-07-01T07:53:54Z</time>
      </trkpt>
      <trkpt lat="45.30283" lon="6.66788">
        <ele>2145</ele>
        <time>2018-07-01T07:53:57Z</time>
      </trkpt>
      <trkpt lat="45.30279" lon="6.66789">
        <ele>2145.2</ele>
        <time>2018-07-01T07:54:00Z</time>
      </trkpt>
      <trkpt lat="45.30275" lon="6.66789">
        <ele>2145.3</ele>
        <time>2018-07-01T07:54:03Z</time>
      </trkpt>
      <trkpt lat="45.30272" lon="6.66789">
        <ele>2145.3</ele>
        <time>2018-07-01T07:54:06Z</time>
      </trkpt>
      <trkpt lat="45.30268" lon="6.6679">
        <ele>2145.4</ele>
        <time>2018-07-01T07:54:09Z</time>
      </trkpt>
      <trkpt lat="45.30264" lon="6.6679">
        <ele>2145.4</ele>
        <time>2018-07-01T07:54:12Z</time>
      </trkpt>
      <trkpt lat="45.30261" lon="6.6679">
        <ele>2145.4</ele>
        <time>2018-07-01T07:54:15Z</time>
      </trkpt>
      <trkpt lat="45.30258" lon="6.6679">
        <ele>2145.4</ele>
        <time>2018-07-01T07:54:18Z</time>
      </trkpt>
      <trkpt lat="45.30254" lon="6.6679">
        <ele>2145.3</ele>
        <time>2018-07-01T07:54:21Z</time>
      </trkpt>
      <trkpt lat="45.30251" lon="6.6679">
        <ele>2145.2</ele>
        <time>2018-07-01T07:54:24Z</time>
      </trkpt>
      <trkpt lat="45.30248" lon="6.6679">
        <ele>2145</ele>
        <time>2018-07-01T07:54:27Z</time>
      </trkpt>
      <trkpt lat="45.30244" lon="6.6679">
        <ele>2144.9</ele>
        <time>2018-07-01T07:54:30Z</time>
      </trkpt>
      <trkpt lat="45.30241" lon="6.66789">
        <ele>2144.7</ele>
        <time>2018-07-01T07:54:33Z</time>
      </trkpt>
      <trkpt lat="45.30238" lon="6.66789">
        <ele>2144.6</ele>
        <time>2018-07-01T07:54:36Z</time>
      </trkpt>
      <trkpt lat="45.30235" lon="6.66788">
        <ele>2144.4</ele>
        <time>2018-07-01T07:54:39Z</time>
      </trkpt>
      <trkpt lat="45.30232" lon="6.66787">
        <ele>2144.4</ele>
        <time>2018-07-01T07:54:42Z</time>
      </trkpt>
      <trkpt lat="45.30229" lon="6.66786">
        <ele>2144.4</ele>
        <time>2018-07-01T07:54:45Z</time>
      </trkpt>
      <trkpt lat="45.30226" lon="6.66786">
        <ele>2144.4</ele>
        <time>2018-07-01T07:54:48Z</time>
      </trkpt>
      <trkpt lat="45.30222" lon="6.66785">
        <ele>2145.1</ele>
        <time>2018-07-01T07:54:51Z</time>
      </trkpt>
      <trkpt lat="45.30219" lon="6.66784">
        <ele>2145.9</ele>
        <time>2018-07-01T07:54:54Z</time>
      </trkpt>
      <trkpt lat="45.30216" lon="6.66784">
        <ele>2146.3</ele>
        <time>2018-07-01T07:54:57Z</time>
      </trkpt>
      <trkpt lat="45.30213" lon="6.66783">
        <ele>2146.3</ele>
        <time>2018-07-01T07:55:00Z</time>
      </trkpt>
      <trkpt lat="45.30209" lon="6.66783">
        <ele>2146.3</ele>
        <time>2018-07-01T07:55:03Z</time>
      </trkpt>
      <trkpt lat="45.30206" lon="6.66783">
        <ele>2147</ele>
        <time>2018-07-01T07:55:05Z</time>
      </trkpt>
      <trkpt lat="45.30202" lon="6.66783">
        <ele>2148</ele>
        <time>2018-07-01T07:55:08Z</time>
      </trkpt>
      <trkpt lat="45.302" lon="6.66783">
        <ele>2148.5</ele>
        <time>2018-07-01T07:55:10Z</time>
      </trkpt>
      <trkpt lat="45.30197" lon="6.66782">
        <ele>2148.6</ele>
        <time>2018-07-01T07:55:12Z</time>
      </trkpt>
      <trkpt lat="45.30194" lon="6.66782">
        <ele>2148.6</ele>
        <time>2018-07-01T07:55:15Z</time>
      </trkpt>
      <trkpt lat="45.3019" lon="6.66782">
        <ele>2148.7</ele>
        <time>2018-07-01T07:55:19Z</time>
      </trkpt>
      <trkpt lat="45.30187" lon="6.66781">
        <ele>2148.8</ele>
        <time>2018-07-01T07:55:22Z</time>
      </trkpt>
      <trkpt lat="45.30183" lon="6.6678">
        <ele>2149</ele>
        <time>2018-07-01T07:55:25Z</time>
      </trkpt>
      <trkpt lat="45.3018" lon="6.6678">
        <ele>2149.8</ele>
        <time>2018-07-01T07:55:28Z</time>
      </trkpt>
      <trkpt lat="45.30178" lon="6.66779">
        <ele>2150.5</ele>
        <time>2018-07-01T07:55:31Z</time>
      </trkpt>
      <trkpt lat="45.30174" lon="6.66778">
        <ele>2151.1</ele>
        <time>2018-07-01T07:55:34Z</time>
      </trkpt>
      <trkpt lat="45.30171" lon="6.66779">
        <ele>2151.2</ele>
        <time>2018-07-01T07:55:37Z</time>
      </trkpt>
      <trkpt lat="45.30168" lon="6.66779">
        <ele>2151.2</ele>
        <time>2018-07-01T07:55:40Z</time>
      </trkpt>
      <trkpt lat="45.30165" lon="6.66779">
        <ele>2151.3</ele>
        <time>2018-07-01T07:55:43Z</time>
      </trkpt>
      <trkpt lat="45.30162" lon="6.66779">
        <ele>2151.4</ele>
        <time>2018-07-01T07:55:46Z</time>
      </trkpt>
      <trkpt lat="45.30159" lon="6.66779">
        <ele>2151.6</ele>
        <time>2018-07-01T07:55:49Z</time>
      </trkpt>
      <trkpt lat="45.30156" lon="6.66779">
        <ele>2151.7</ele>
        <time>2018-07-01T07:55:52Z</time>
      </trkpt>
      <trkpt lat="45.30153" lon="6.66778">
        <ele>2152</ele>
        <time>2018-07-01T07:55:55Z</time>
      </trkpt>
      <trkpt lat="45.3015" lon="6.66777">
        <ele>2152.1</ele>
        <time>2018-07-01T07:55:58Z</time>
      </trkpt>
      <trkpt lat="45.30147" lon="6.66777">
        <ele>2151.7</ele>
        <time>2018-07-01T07:56:01Z</time>
      </trkpt>
      <trkpt lat="45.30143" lon="6.66777">
        <ele>2151.2</ele>
        <time>2018-07-01T07:56:04Z</time>
      </trkpt>
      <trkpt lat="45.3014" lon="6.66777">
        <ele>2151.2</ele>
        <time>2018-07-01T07:56:07Z</time>
      </trkpt>
      <trkpt lat="45.30136" lon="6.66776">
        <ele>2152.7</ele>
        <time>2018-07-01T07:56:10Z</time>
      </trkpt>
      <trkpt lat="45.30133" lon="6.66776">
        <ele>2153.9</ele>
        <time>2018-07-01T07:56:13Z</time>
      </trkpt>
      <trkpt lat="45.3013" lon="6.66775">
        <ele>2154.5</ele>
        <time>2018-07-01T07:56:16Z</time>
      </trkpt>
      <trkpt lat="45.30126" lon="6.66775">
        <ele>2155.3</ele>
        <time>2018-07-01T07:56:20Z</time>
      </trkpt>
      <trkpt lat="45.30123" lon="6.66775">
        <ele>2155.9</ele>
        <time>2018-07-01T07:56:23Z</time>
      </trkpt>
      <trkpt lat="45.3012" lon="6.66775">
        <ele>2156.4</ele>
        <time>2018-07-01T07:56:26Z</time>
      </trkpt>
      <trkpt lat="45.30117" lon="6.66776">
        <ele>2157.8</ele>
        <time>2018-07-01T07:56:29Z</time>
      </trkpt>
      <trkpt lat="45.30113" lon="6.66777">
        <ele>2159.6</ele>
        <time>2018-07-01T07:56:32Z</time>
      </trkpt>
      <trkpt lat="45.3011" lon="6.66779">
        <ele>2160.5</ele>
        <time>2018-07-01T07:56:35Z</time>
      </trkpt>
      <trkpt lat="45.30107" lon="6.66779">
        <ele>2160.4</ele>
        <time>2018-07-01T07:56:38Z</time>
      </trkpt>
      <trkpt lat="45.30103" lon="6.6678">
        <ele>2160.6</ele>
        <time>2018-07-01T07:56:41Z</time>
      </trkpt>
      <trkpt lat="45.301" lon="6.6678">
        <ele>2161.8</ele>
        <time>2018-07-01T07:56:44Z</time>
      </trkpt>
      <trkpt lat="45.30096" lon="6.6678">
        <ele>2162.9</ele>
        <time>2018-07-01T07:56:47Z</time>
      </trkpt>
      <trkpt lat="45.30093" lon="6.66781">
        <ele>2163.4</ele>
        <time>2018-07-01T07:56:50Z</time>
      </trkpt>
      <trkpt lat="45.3009" lon="6.66782">
        <ele>2164.1</ele>
        <time>2018-07-01T07:57:10Z</time>
      </trkpt>
      <trkpt lat="45.30089" lon="6.66778">
        <ele>2164.5</ele>
        <time>2018-07-01T07:57:15Z</time>
      </trkpt>
      <trkpt lat="45.30086" lon="6.6678">
        <ele>2164.7</ele>
        <time>2018-07-01T07:57:39Z</time>
      </trkpt>
      <trkpt lat="45.30085" lon="6.66784">
        <ele>2164.8</ele>
        <time>2018-07-01T07:57:42Z</time>
      </trkpt>
      <trkpt lat="45.30082" lon="6.66783">
        <ele>2165.2</ele>
        <time>2018-07-01T07:57:46Z</time>
      </trkpt>
      <trkpt lat="45.30079" lon="6.66781">
        <ele>2166.3</ele>
        <time>2018-07-01T07:57:51Z</time>
      </trkpt>
      <trkpt lat="45.30075" lon="6.6678">
        <ele>2167.3</ele>
        <time>2018-07-01T07:57:54Z</time>
      </trkpt>
      <trkpt lat="45.30072" lon="6.66779">
        <ele>2167.8</ele>
        <time>2018-07-01T07:57:56Z</time>
      </trkpt>
      <trkpt lat="45.30068" lon="6.66779">
        <ele>2168.4</ele>
        <time>2018-07-01T07:57:59Z</time>
      </trkpt>
      <trkpt lat="45.30065" lon="6.66777">
        <ele>2168.9</ele>
        <time>2018-07-01T07:58:01Z</time>
      </trkpt>
      <trkpt lat="45.30062" lon="6.66776">
        <ele>2169.5</ele>
        <time>2018-07-01T07:58:03Z</time>
      </trkpt>
      <trkpt lat="45.30059" lon="6.66775">
        <ele>2171.2</ele>
        <time>2018-07-01T07:58:06Z</time>
      </trkpt>
      <trkpt lat="45.30055" lon="6.66775">
        <ele>2172.6</ele>
        <time>2018-07-01T07:58:09Z</time>
      </trkpt>
      <trkpt lat="45.30051" lon="6.66775">
        <ele>2173.4</ele>
        <time>2018-07-01T07:58:12Z</time>
      </trkpt>
      <trkpt lat="45.30048" lon="6.66775">
        <ele>2174</ele>
        <time>2018-07-01T07:58:15Z</time>
      </trkpt>
      <trkpt lat="45.30044" lon="6.66775">
        <ele>2174.4</ele>
        <time>2018-07-01T07:58:18Z</time>
      </trkpt>
      <trkpt lat="45.30041" lon="6.66774">
        <ele>2174.7</ele>
        <time>2018-07-01T07:58:21Z</time>
      </trkpt>
      <trkpt lat="45.30038" lon="6.66772">
        <ele>2175.1</ele>
        <time>2018-07-01T07:58:24Z</time>
      </trkpt>
      <trkpt lat="45.30035" lon="6.6677">
        <ele>2175.6</ele>
        <time>2018-07-01T07:58:27Z</time>
      </trkpt>
      <trkpt lat="45.30032" lon="6.66766">
        <ele>2177.1</ele>
        <time>2018-07-01T07:58:30Z</time>
      </trkpt>
      <trkpt lat="45.3003" lon="6.66764">
        <ele>2178.2</ele>
        <time>2018-07-01T07:58:33Z</time>
      </trkpt>
      <trkpt lat="45.30028" lon="6.66761">
        <ele>2179.3</ele>
        <time>2018-07-01T07:58:36Z</time>
      </trkpt>
      <trkpt lat="45.30025" lon="6.66758">
        <ele>2180.7</ele>
        <time>2018-07-01T07:58:39Z</time>
      </trkpt>
      <trkpt lat="45.30022" lon="6.66757">
        <ele>2182.6</ele>
        <time>2018-07-01T07:58:42Z</time>
      </trkpt>
      <trkpt lat="45.3002" lon="6.66754">
        <ele>2184.5</ele>
        <time>2018-07-01T07:58:45Z</time>
      </trkpt>
      <trkpt lat="45.30017" lon="6.66753">
        <ele>2185.4</ele>
        <time>2018-07-01T07:58:48Z</time>
      </trkpt>
      <trkpt lat="45.30015" lon="6.66752">
        <ele>2186.2</ele>
        <time>2018-07-01T07:58:51Z</time>
      </trkpt>
      <trkpt lat="45.30012" lon="6.6675">
        <ele>2187.2</ele>
        <time>2018-07-01T07:58:54Z</time>
      </trkpt>
      <trkpt lat="45.30009" lon="6.6675">
        <ele>2188</ele>
        <time>2018-07-01T07:58:57Z</time>
      </trkpt>
      <trkpt lat="45.30006" lon="6.66749">
        <ele>2188.9</ele>
        <time>2018-07-01T07:59:00Z</time>
      </trkpt>
      <trkpt lat="45.30002" lon="6.66749">
        <ele>2189</ele>
        <time>2018-07-01T07:59:03Z</time>
      </trkpt>
      <trkpt lat="45.3" lon="6.66747">
        <ele>2189.2</ele>
        <time>2018-07-01T07:59:05Z</time>
      </trkpt>
      <trkpt lat="45.29996" lon="6.66746">
        <ele>2189.6</ele>
        <time>2018-07-01T07:59:08Z</time>
      </trkpt>
      <trkpt lat="45.29993" lon="6.66746">
        <ele>2190.4</ele>
        <time>2018-07-01T07:59:11Z</time>
      </trkpt>
      <trkpt lat="45.2999" lon="6.66746">
        <ele>2191.2</ele>
        <time>2018-07-01T07:59:14Z</time>
      </trkpt>
      <trkpt lat="45.29986" lon="6.66747">
        <ele>2191.6</ele>
        <time>2018-07-01T07:59:17Z</time>
      </trkpt>
      <trkpt lat="45.29983" lon="6.66746">
        <ele>2191.9</ele>
        <time>2018-07-01T07:59:21Z</time>
      </trkpt>
      <trkpt lat="45.2998" lon="6.66745">
        <ele>2192.4</ele>
        <time>2018-07-01T07:59:24Z</time>
      </trkpt>
      <trkpt lat="45.29977" lon="6.66743">
        <ele>2193.2</ele>
        <time>2018-07-01T07:59:26Z</time>
      </trkpt>
      <trkpt lat="45.29973" lon="6.66742">
        <ele>2194.2</ele>
        <time>2018-07-01T07:59:29Z</time>
      </trkpt>
      <trkpt lat="45.29971" lon="6.66741">
        <ele>2194.6</ele>
        <time>2018-07-01T07:59:32Z</time>
      </trkpt>
      <trkpt lat="45.29968" lon="6.66737">
        <ele>2194.9</ele>
        <time>2018-07-01T07:59:35Z</time>
      </trkpt>
      <trkpt lat="45.29965" lon="6.66736">
        <ele>2195.3</ele>
        <time>2018-07-01T07:59:38Z</time>
      </trkpt>
      <trkpt lat="45.29962" lon="6.66735">
        <ele>2196.2</ele>
        <time>2018-07-01T07:59:42Z</time>
      </trkpt>
      <trkpt lat="45.29959" lon="6.66736">
        <ele>2197.1</ele>
        <time>2018-07-01T07:59:45Z</time>
      </trkpt>
      <trkpt lat="45.29956" lon="6.66737">
        <ele>2197.3</ele>
        <time>2018-07-01T07:59:48Z</time>
      </trkpt>
      <trkpt lat="45.29953" lon="6.6674">
        <ele>2197</ele>
        <time>2018-07-01T07:59:52Z</time>
      </trkpt>
      <trkpt lat="45.2995" lon="6.66741">
        <ele>2197.1</ele>
        <time>2018-07-01T07:59:55Z</time>
      </trkpt>
      <trkpt lat="45.29947" lon="6.66741">
        <ele>2197.5</ele>
        <time>2018-07-01T07:59:58Z</time>
      </trkpt>
      <trkpt lat="45.29943" lon="6.66743">
        <ele>2197.8</ele>
        <time>2018-07-01T08:00:01Z</time>
      </trkpt>
      <trkpt lat="45.2994" lon="6.66743">
        <ele>2198.1</ele>
        <time>2018-07-01T08:00:04Z</time>
      </trkpt>
      <trkpt lat="45.29936" lon="6.66743">
        <ele>2198.4</ele>
        <time>2018-07-01T08:00:08Z</time>
      </trkpt>
      <trkpt lat="45.29933" lon="6.66742">
        <ele>2198.7</ele>
        <time>2018-07-01T08:00:12Z</time>
      </trkpt>
      <trkpt lat="45.2993" lon="6.66738">
        <ele>2198.8</ele>
        <time>2018-07-01T08:00:16Z</time>
      </trkpt>
      <trkpt lat="45.29927" lon="6.66737">
        <ele>2199</ele>
        <time>2018-07-01T08:00:19Z</time>
      </trkpt>
      <trkpt lat="45.29925" lon="6.66734">
        <ele>2199</ele>
        <time>2018-07-01T08:00:23Z</time>
      </trkpt>
      <trkpt lat="45.29924" lon="6.6673">
        <ele>2199</ele>
        <time>2018-07-01T08:00:25Z</time>
      </trkpt>
      <trkpt lat="45.29923" lon="6.66726">
        <ele>2200</ele>
        <time>2018-07-01T08:00:27Z</time>
      </trkpt>
      <trkpt lat="45.2992" lon="6.66726">
        <ele>2201.3</ele>
        <time>2018-07-01T08:00:30Z</time>
      </trkpt>
      <trkpt lat="45.29916" lon="6.66725">
        <ele>2202.4</ele>
        <time>2018-07-01T08:00:33Z</time>
      </trkpt>
      <trkpt lat="45.29913" lon="6.66725">
        <ele>2203.2</ele>
        <time>2018-07-01T08:00:35Z</time>
      </trkpt>
      <trkpt lat="45.2991" lon="6.66723">
        <ele>2203.8</ele>
        <time>2018-07-01T08:00:42Z</time>
      </trkpt>
      <trkpt lat="45.29908" lon="6.6672">
        <ele>2204.4</ele>
        <time>2018-07-01T08:00:46Z</time>
      </trkpt>
      <trkpt lat="45.29905" lon="6.66718">
        <ele>2205.1</ele>
        <time>2018-07-01T08:00:50Z</time>
      </trkpt>
      <trkpt lat="45.29902" lon="6.66715">
        <ele>2205.7</ele>
        <time>2018-07-01T08:00:54Z</time>
      </trkpt>
      <trkpt lat="45.299" lon="6.66713">
        <ele>2206.3</ele>
        <time>2018-07-01T08:00:57Z</time>
      </trkpt>
      <trkpt lat="45.29898" lon="6.6671">
        <ele>2207.3</ele>
        <time>2018-07-01T08:01:00Z</time>
      </trkpt>
      <trkpt lat="45.29895" lon="6.66707">
        <ele>2208.4</ele>
        <time>2018-07-01T08:01:03Z</time>
      </trkpt>
      <trkpt lat="45.29893" lon="6.66705">
        <ele>2209.5</ele>
        <time>2018-07-01T08:01:06Z</time>
      </trkpt>
      <trkpt lat="45.2989" lon="6.66702">
        <ele>2210.2</ele>
        <time>2018-07-01T08:01:10Z</time>
      </trkpt>
      <trkpt lat="45.29888" lon="6.66699">
        <ele>2210.8</ele>
        <time>2018-07-01T08:01:14Z</time>
      </trkpt>
      <trkpt lat="45.29884" lon="6.66697">
        <ele>2211.8</ele>
        <time>2018-07-01T08:01:18Z</time>
      </trkpt>
      <trkpt lat="45.29881" lon="6.66695">
        <ele>2213</ele>
        <time>2018-07-01T08:01:21Z</time>
      </trkpt>
      <trkpt lat="45.29879" lon="6.66692">
        <ele>2214</ele>
        <time>2018-07-01T08:01:25Z</time>
      </trkpt>
      <trkpt lat="45.29877" lon="6.6669">
        <ele>2214.6</ele>
        <time>2018-07-01T08:01:28Z</time>
      </trkpt>
      <trkpt lat="45.29875" lon="6.66687">
        <ele>2215.2</ele>
        <time>2018-07-01T08:01:32Z</time>
      </trkpt>
      <trkpt lat="45.29872" lon="6.66685">
        <ele>2215.7</ele>
        <time>2018-07-01T08:01:36Z</time>
      </trkpt>
      <trkpt lat="45.29869" lon="6.66684">
        <ele>2216.4</ele>
        <time>2018-07-01T08:01:40Z</time>
      </trkpt>
      <trkpt lat="45.29866" lon="6.66684">
        <ele>2217.1</ele>
        <time>2018-07-01T08:01:44Z</time>
      </trkpt>
      <trkpt lat="45.29863" lon="6.66682">
        <ele>2217</ele>
        <time>2018-07-01T08:01:47Z</time>
      </trkpt>
      <trkpt lat="45.2986" lon="6.66681">
        <ele>2217.1</ele>
        <time>2018-07-01T08:01:50Z</time>
      </trkpt>
      <trkpt lat="45.29857" lon="6.66679">
        <ele>2217.6</ele>
        <time>2018-07-01T08:01:54Z</time>
      </trkpt>
      <trkpt lat="45.29854" lon="6.66678">
        <ele>2218</ele>
        <time>2018-07-01T08:01:57Z</time>
      </trkpt>
      <trkpt lat="45.29852" lon="6.66676">
        <ele>2218.7</ele>
        <time>2018-07-01T08:02:00Z</time>
      </trkpt>
      <trkpt lat="45.29849" lon="6.66674">
        <ele>2219.9</ele>
        <time>2018-07-01T08:02:04Z</time>
      </trkpt>
      <trkpt lat="45.29846" lon="6.66672">
        <ele>2221</ele>
        <time>2018-07-01T08:02:08Z</time>
      </trkpt>
      <trkpt lat="45.29843" lon="6.6667">
        <ele>2221.4</ele>
        <time>2018-07-01T08:02:12Z</time>
      </trkpt>
      <trkpt lat="45.2984" lon="6.66668">
        <ele>2221.7</ele>
        <time>2018-07-01T08:02:16Z</time>
      </trkpt>
      <trkpt lat="45.29838" lon="6.66665">
        <ele>2222.1</ele>
        <time>2018-07-01T08:02:19Z</time>
      </trkpt>
      <trkpt lat="45.29835" lon="6.66663">
        <ele>2222.4</ele>
        <time>2018-07-01T08:02:22Z</time>
      </trkpt>
      <trkpt lat="45.29833" lon="6.6666">
        <ele>2222.8</ele>
        <time>2018-07-01T08:02:26Z</time>
      </trkpt>
      <trkpt lat="45.2983" lon="6.66658">
        <ele>2223.1</ele>
        <time>2018-07-01T08:02:30Z</time>
      </trkpt>
      <trkpt lat="45.29827" lon="6.66656">
        <ele>2223.4</ele>
        <time>2018-07-01T08:02:33Z</time>
      </trkpt>
      <trkpt lat="45.29825" lon="6.66653">
        <ele>2223.8</ele>
        <time>2018-07-01T08:02:37Z</time>
      </trkpt>
      <trkpt lat="45.29823" lon="6.66651">
        <ele>2224.7</ele>
        <time>2018-07-01T08:02:40Z</time>
      </trkpt>
      <trkpt lat="45.29821" lon="6.66648">
        <ele>2225.7</ele>
        <time>2018-07-01T08:02:43Z</time>
      </trkpt>
      <trkpt lat="45.29818" lon="6.66646">
        <ele>2226.3</ele>
        <time>2018-07-01T08:02:46Z</time>
      </trkpt>
      <trkpt lat="45.29816" lon="6.66644">
        <ele>2226.7</ele>
        <time>2018-07-01T08:02:49Z</time>
      </trkpt>
      <trkpt lat="45.29813" lon="6.66642">
        <ele>2227.2</ele>
        <time>2018-07-01T08:02:52Z</time>
      </trkpt>
      <trkpt lat="45.29811" lon="6.66638">
        <ele>2227.8</ele>
        <time>2018-07-01T08:02:55Z</time>
      </trkpt>
      <trkpt lat="45.29808" lon="6.66635">
        <ele>2229</ele>
        <time>2018-07-01T08:02:59Z</time>
      </trkpt>
      <trkpt lat="45.29806" lon="6.66633">
        <ele>2230.2</ele>
        <time>2018-07-01T08:03:02Z</time>
      </trkpt>
      <trkpt lat="45.29803" lon="6.6663">
        <ele>2231.4</ele>
        <time>2018-07-01T08:03:05Z</time>
      </trkpt>
      <trkpt lat="45.29801" lon="6.66626">
        <ele>2232.6</ele>
        <time>2018-07-01T08:03:09Z</time>
      </trkpt>
      <trkpt lat="45.29799" lon="6.66623">
        <ele>2233.4</ele>
        <time>2018-07-01T08:03:12Z</time>
      </trkpt>
      <trkpt lat="45.29797" lon="6.66621">
        <ele>2234.2</ele>
        <time>2018-07-01T08:03:15Z</time>
      </trkpt>
      <trkpt lat="45.29795" lon="6.66617">
        <ele>2235</ele>
        <time>2018-07-01T08:03:18Z</time>
      </trkpt>
      <trkpt lat="45.29793" lon="6.66615">
        <ele>2235.8</ele>
        <time>2018-07-01T08:03:21Z</time>
      </trkpt>
      <trkpt lat="45.29792" lon="6.66611">
        <ele>2236.6</ele>
        <time>2018-07-01T08:03:24Z</time>
      </trkpt>
      <trkpt lat="45.29789" lon="6.66607">
        <ele>2237.3</ele>
        <time>2018-07-01T08:03:28Z</time>
      </trkpt>
      <trkpt lat="45.29787" lon="6.66603">
        <ele>2238.1</ele>
        <time>2018-07-01T08:03:32Z</time>
      </trkpt>
      <trkpt lat="45.29785" lon="6.66601">
        <ele>2238.6</ele>
        <time>2018-07-01T08:03:36Z</time>
      </trkpt>
      <trkpt lat="45.29782" lon="6.66597">
        <ele>2239.1</ele>
        <time>2018-07-01T08:03:40Z</time>
      </trkpt>
      <trkpt lat="45.29779" lon="6.66594">
        <ele>2239.6</ele>
        <time>2018-07-01T08:03:44Z</time>
      </trkpt>
      <trkpt lat="45.29777" lon="6.66591">
        <ele>2240.2</ele>
        <time>2018-07-01T08:03:47Z</time>
      </trkpt>
      <trkpt lat="45.29775" lon="6.66588">
        <ele>2241.1</ele>
        <time>2018-07-01T08:03:50Z</time>
      </trkpt>
      <trkpt lat="45.29773" lon="6.66584">
        <ele>2242</ele>
        <time>2018-07-01T08:03:53Z</time>
      </trkpt>
      <trkpt lat="45.29771" lon="6.6658">
        <ele>2242.9</ele>
        <time>2018-07-01T08:03:56Z</time>
      </trkpt>
      <trkpt lat="45.29769" lon="6.66577">
        <ele>2243.8</ele>
        <time>2018-07-01T08:03:59Z</time>
      </trkpt>
      <trkpt lat="45.29768" lon="6.66573">
        <ele>2244.3</ele>
        <time>2018-07-01T08:04:03Z</time>
      </trkpt>
      <trkpt lat="45.29766" lon="6.6657">
        <ele>2244.5</ele>
        <time>2018-07-01T08:04:06Z</time>
      </trkpt>
      <trkpt lat="45.29763" lon="6.66567">
        <ele>2244.8</ele>
        <time>2018-07-01T08:04:10Z</time>
      </trkpt>
      <trkpt lat="45.29762" lon="6.66563">
        <ele>2245.3</ele>
        <time>2018-07-01T08:04:14Z</time>
      </trkpt>
      <trkpt lat="45.2976" lon="6.66559">
        <ele>2245.7</ele>
        <time>2018-07-01T08:04:17Z</time>
      </trkpt>
      <trkpt lat="45.29759" lon="6.66555">
        <ele>2246.3</ele>
        <time>2018-07-01T08:04:20Z</time>
      </trkpt>
      <trkpt lat="45.29757" lon="6.66552">
        <ele>2246.9</ele>
        <time>2018-07-01T08:04:23Z</time>
      </trkpt>
      <trkpt lat="45.29755" lon="6.66548">
        <ele>2247.2</ele>
        <time>2018-07-01T08:04:26Z</time>
      </trkpt>
      <trkpt lat="45.29753" lon="6.66544">
        <ele>2247.5</ele>
        <time>2018-07-01T08:04:30Z</time>
      </trkpt>
      <trkpt lat="45.29751" lon="6.66541">
        <ele>2247.7</ele>
        <time>2018-07-01T08:04:33Z</time>
      </trkpt>
      <trkpt lat="45.29749" lon="6.66538">
        <ele>2248</ele>
        <time>2018-07-01T08:04:36Z</time>
      </trkpt>
      <trkpt lat="45.29746" lon="6.66535">
        <ele>2248.3</ele>
        <time>2018-07-01T08:04:40Z</time>
      </trkpt>
      <trkpt lat="45.29745" lon="6.66531">
        <ele>2248.5</ele>
        <time>2018-07-01T08:04:44Z</time>
      </trkpt>
      <trkpt lat="45.29743" lon="6.66528">
        <ele>2248.7</ele>
        <time>2018-07-01T08:04:47Z</time>
      </trkpt>
      <trkpt lat="45.2974" lon="6.66524">
        <ele>2249</ele>
        <time>2018-07-01T08:04:51Z</time>
      </trkpt>
      <trkpt lat="45.29738" lon="6.66521">
        <ele>2249.4</ele>
        <time>2018-07-01T08:04:54Z</time>
      </trkpt>
      <trkpt lat="45.29736" lon="6.66517">
        <ele>2250.1</ele>
        <time>2018-07-01T08:04:58Z</time>
      </trkpt>
      <trkpt lat="45.29735" lon="6.66513">
        <ele>2251</ele>
        <time>2018-07-01T08:05:01Z</time>
      </trkpt>
      <trkpt lat="45.29734" lon="6.66509">
        <ele>2252</ele>
        <time>2018-07-01T08:05:04Z</time>
      </trkpt>
      <trkpt lat="45.29733" lon="6.66504">
        <ele>2252.8</ele>
        <time>2018-07-01T08:05:08Z</time>
      </trkpt>
      <trkpt lat="45.29733" lon="6.665">
        <ele>2253.2</ele>
        <time>2018-07-01T08:05:11Z</time>
      </trkpt>
      <trkpt lat="45.29732" lon="6.66495">
        <ele>2253.8</ele>
        <time>2018-07-01T08:05:14Z</time>
      </trkpt>
      <trkpt lat="45.29731" lon="6.66491">
        <ele>2254.7</ele>
        <time>2018-07-01T08:05:17Z</time>
      </trkpt>
      <trkpt lat="45.29731" lon="6.66487">
        <ele>2255.6</ele>
        <time>2018-07-01T08:05:20Z</time>
      </trkpt>
      <trkpt lat="45.2973" lon="6.66483">
        <ele>2256.8</ele>
        <time>2018-07-01T08:05:23Z</time>
      </trkpt>
      <trkpt lat="45.29729" lon="6.66478">
        <ele>2258</ele>
        <time>2018-07-01T08:05:26Z</time>
      </trkpt>
      <trkpt lat="45.29729" lon="6.66474">
        <ele>2259.1</ele>
        <time>2018-07-01T08:05:29Z</time>
      </trkpt>
      <trkpt lat="45.29728" lon="6.6647">
        <ele>2260.1</ele>
        <time>2018-07-01T08:05:32Z</time>
      </trkpt>
      <trkpt lat="45.29727" lon="6.66466">
        <ele>2260.9</ele>
        <time>2018-07-01T08:05:35Z</time>
      </trkpt>
      <trkpt lat="45.29726" lon="6.66462">
        <ele>2261.4</ele>
        <time>2018-07-01T08:05:38Z</time>
      </trkpt>
      <trkpt lat="45.29725" lon="6.66456">
        <ele>2262</ele>
        <time>2018-07-01T08:05:41Z</time>
      </trkpt>
      <trkpt lat="45.29724" lon="6.66452">
        <ele>2262.4</ele>
        <time>2018-07-01T08:05:44Z</time>
      </trkpt>
      <trkpt lat="45.29723" lon="6.66447">
        <ele>2263</ele>
        <time>2018-07-01T08:05:47Z</time>
      </trkpt>
      <trkpt lat="45.29721" lon="6.66442">
        <ele>2264</ele>
        <time>2018-07-01T08:05:50Z</time>
      </trkpt>
      <trkpt lat="45.29719" lon="6.66438">
        <ele>2264.7</ele>
        <time>2018-07-01T08:05:53Z</time>
      </trkpt>
      <trkpt lat="45.29717" lon="6.66433">
        <ele>2265.2</ele>
        <time>2018-07-01T08:05:56Z</time>
      </trkpt>
      <trkpt lat="45.29715" lon="6.66429">
        <ele>2265.7</ele>
        <time>2018-07-01T08:05:59Z</time>
      </trkpt>
      <trkpt lat="45.29714" lon="6.66424">
        <ele>2266.1</ele>
        <time>2018-07-01T08:06:02Z</time>
      </trkpt>
      <trkpt lat="45.29712" lon="6.6642">
        <ele>2266.5</ele>
        <time>2018-07-01T08:06:05Z</time>
      </trkpt>
      <trkpt lat="45.29711" lon="6.66414">
        <ele>2266.9</ele>
        <time>2018-07-01T08:06:08Z</time>
      </trkpt>
      <trkpt lat="45.29709" lon="6.66409">
        <ele>2267.3</ele>
        <time>2018-07-01T08:06:11Z</time>
      </trkpt>
      <trkpt lat="45.29708" lon="6.66404">
        <ele>2267.8</ele>
        <time>2018-07-01T08:06:14Z</time>
      </trkpt>
      <trkpt lat="45.29707" lon="6.664">
        <ele>2268.3</ele>
        <time>2018-07-01T08:06:17Z</time>
      </trkpt>
      <trkpt lat="45.29706" lon="6.66395">
        <ele>2268.9</ele>
        <time>2018-07-01T08:06:20Z</time>
      </trkpt>
      <trkpt lat="45.29705" lon="6.6639">
        <ele>2269.5</ele>
        <time>2018-07-01T08:06:23Z</time>
      </trkpt>
      <trkpt lat="45.29704" lon="6.66384">
        <ele>2270</ele>
        <time>2018-07-01T08:06:26Z</time>
      </trkpt>
      <trkpt lat="45.29704" lon="6.6638">
        <ele>2270.5</ele>
        <time>2018-07-01T08:06:28Z</time>
      </trkpt>
      <trkpt lat="45.29703" lon="6.66376">
        <ele>2270.9</ele>
        <time>2018-07-01T08:06:30Z</time>
      </trkpt>
      <trkpt lat="45.297" lon="6.66372">
        <ele>2271.2</ele>
        <time>2018-07-01T08:06:33Z</time>
      </trkpt>
      <trkpt lat="45.29698" lon="6.66368">
        <ele>2271.1</ele>
        <time>2018-07-01T08:06:36Z</time>
      </trkpt>
      <trkpt lat="45.29697" lon="6.66364">
        <ele>2271.2</ele>
        <time>2018-07-01T08:06:39Z</time>
      </trkpt>
      <trkpt lat="45.29695" lon="6.66359">
        <ele>2271.3</ele>
        <time>2018-07-01T08:06:42Z</time>
      </trkpt>
      <trkpt lat="45.29694" lon="6.66354">
        <ele>2271.5</ele>
        <time>2018-07-01T08:06:45Z</time>
      </trkpt>
      <trkpt lat="45.29692" lon="6.66349">
        <ele>2271.7</ele>
        <time>2018-07-01T08:06:48Z</time>
      </trkpt>
      <trkpt lat="45.29691" lon="6.66343">
        <ele>2272.2</ele>
        <time>2018-07-01T08:06:51Z</time>
      </trkpt>
      <trkpt lat="45.2969" lon="6.66338">
        <ele>2272.8</ele>
        <time>2018-07-01T08:06:54Z</time>
      </trkpt>
      <trkpt lat="45.29692" lon="6.66334">
        <ele>2273.4</ele>
        <time>2018-07-01T08:06:57Z</time>
      </trkpt>
      <trkpt lat="45.29693" lon="6.6633">
        <ele>2274</ele>
        <time>2018-07-01T08:07:00Z</time>
      </trkpt>
      <trkpt lat="45.29693" lon="6.66326">
        <ele>2274.5</ele>
        <time>2018-07-01T08:07:03Z</time>
      </trkpt>
      <trkpt lat="45.29693" lon="6.66322">
        <ele>2274.8</ele>
        <time>2018-07-01T08:07:06Z</time>
      </trkpt>
      <trkpt lat="45.29693" lon="6.66318">
        <ele>2274.3</ele>
        <time>2018-07-01T08:07:09Z</time>
      </trkpt>
      <trkpt lat="45.29692" lon="6.66314">
        <ele>2273.7</ele>
        <time>2018-07-01T08:07:13Z</time>
      </trkpt>
      <trkpt lat="45.29688" lon="6.66312">
        <ele>2273.2</ele>
        <time>2018-07-01T08:07:17Z</time>
      </trkpt>
      <trkpt lat="45.29686" lon="6.66311">
        <ele>2272.8</ele>
        <time>2018-07-01T08:07:20Z</time>
      </trkpt>
      <trkpt lat="45.29682" lon="6.6631">
        <ele>2273.2</ele>
        <time>2018-07-01T08:07:24Z</time>
      </trkpt>
      <trkpt lat="45.29679" lon="6.66309">
        <ele>2273.5</ele>
        <time>2018-07-01T08:07:27Z</time>
      </trkpt>
      <trkpt lat="45.29677" lon="6.66306">
        <ele>2273.5</ele>
        <time>2018-07-01T08:07:30Z</time>
      </trkpt>
      <trkpt lat="45.29674" lon="6.66303">
        <ele>2273.6</ele>
        <time>2018-07-01T08:07:33Z</time>
      </trkpt>
      <trkpt lat="45.29671" lon="6.66301">
        <ele>2274</ele>
        <time>2018-07-01T08:07:36Z</time>
      </trkpt>
      <trkpt lat="45.29667" lon="6.663">
        <ele>2274.4</ele>
        <time>2018-07-01T08:07:40Z</time>
      </trkpt>
      <trkpt lat="45.29665" lon="6.66297">
        <ele>2274.2</ele>
        <time>2018-07-01T08:07:42Z</time>
      </trkpt>
      <trkpt lat="45.29663" lon="6.66295">
        <ele>2273.9</ele>
        <time>2018-07-01T08:07:44Z</time>
      </trkpt>
      <trkpt lat="45.2966" lon="6.66292">
        <ele>2273.8</ele>
        <time>2018-07-01T08:07:47Z</time>
      </trkpt>
      <trkpt lat="45.29658" lon="6.66288">
        <ele>2273.9</ele>
        <time>2018-07-01T08:07:50Z</time>
      </trkpt>
      <trkpt lat="45.29656" lon="6.66284">
        <ele>2273.9</ele>
        <time>2018-07-01T08:07:53Z</time>
      </trkpt>
      <trkpt lat="45.29654" lon="6.66281">
        <ele>2273.7</ele>
        <time>2018-07-01T08:07:56Z</time>
      </trkpt>
      <trkpt lat="45.29651" lon="6.66278">
        <ele>2273.6</ele>
        <time>2018-07-01T08:07:59Z</time>
      </trkpt>
      <trkpt lat="45.29648" lon="6.66275">
        <ele>2273.8</ele>
        <time>2018-07-01T08:08:02Z</time>
      </trkpt>
      <trkpt lat="45.29645" lon="6.66272">
        <ele>2274.2</ele>
        <time>2018-07-01T08:08:05Z</time>
      </trkpt>
      <trkpt lat="45.29643" lon="6.66269">
        <ele>2274.9</ele>
        <time>2018-07-01T08:08:08Z</time>
      </trkpt>
      <trkpt lat="45.29641" lon="6.66264">
        <ele>2275.8</ele>
        <time>2018-07-01T08:08:11Z</time>
      </trkpt>
      <trkpt lat="45.29639" lon="6.6626">
        <ele>2276.4</ele>
        <time>2018-07-01T08:08:14Z</time>
      </trkpt>
      <trkpt lat="45.29638" lon="6.66256">
        <ele>2276.8</ele>
        <time>2018-07-01T08:08:16Z</time>
      </trkpt>
      <trkpt lat="45.29636" lon="6.66251">
        <ele>2277.3</ele>
        <time>2018-07-01T08:08:19Z</time>
      </trkpt>
      <trkpt lat="45.29634" lon="6.66247">
        <ele>2277.7</ele>
        <time>2018-07-01T08:08:22Z</time>
      </trkpt>
      <trkpt lat="45.29632" lon="6.66245">
        <ele>2277.9</ele>
        <time>2018-07-01T08:08:24Z</time>
      </trkpt>
      <trkpt lat="45.29629" lon="6.66242">
        <ele>2278.1</ele>
        <time>2018-07-01T08:08:27Z</time>
      </trkpt>
      <trkpt lat="45.29625" lon="6.6624">
        <ele>2277.9</ele>
        <time>2018-07-01T08:08:30Z</time>
      </trkpt>
      <trkpt lat="45.29622" lon="6.66239">
        <ele>2277.5</ele>
        <time>2018-07-01T08:08:33Z</time>
      </trkpt>
      <trkpt lat="45.29618" lon="6.6624">
        <ele>2277</ele>
        <time>2018-07-01T08:08:36Z</time>
      </trkpt>
      <trkpt lat="45.29615" lon="6.66242">
        <ele>2276.7</ele>
        <time>2018-07-01T08:08:39Z</time>
      </trkpt>
      <trkpt lat="45.29613" lon="6.66245">
        <ele>2276.3</ele>
        <time>2018-07-01T08:08:42Z</time>
      </trkpt>
      <trkpt lat="45.2961" lon="6.66248">
        <ele>2275.8</ele>
        <time>2018-07-01T08:10:17Z</time>
      </trkpt>
      <trkpt lat="45.29607" lon="6.66251">
        <ele>2275.1</ele>
        <time>2018-07-01T08:10:20Z</time>
      </trkpt>
      <trkpt lat="45.29604" lon="6.66255">
        <ele>2274.8</ele>
        <time>2018-07-01T08:10:23Z</time>
      </trkpt>
      <trkpt lat="45.29601" lon="6.66259">
        <ele>2274.7</ele>
        <time>2018-07-01T08:10:26Z</time>
      </trkpt>
      <trkpt lat="45.29599" lon="6.66262">
        <ele>2274.7</ele>
        <time>2018-07-01T08:10:29Z</time>
      </trkpt>
      <trkpt lat="45.29597" lon="6.66265">
        <ele>2274.3</ele>
        <time>2018-07-01T08:10:32Z</time>
      </trkpt>
      <trkpt lat="45.29594" lon="6.66267">
        <ele>2274</ele>
        <time>2018-07-01T08:10:35Z</time>
      </trkpt>
      <trkpt lat="45.29592" lon="6.66269">
        <ele>2273.7</ele>
        <time>2018-07-01T08:10:38Z</time>
      </trkpt>
      <trkpt lat="45.29589" lon="6.66272">
        <ele>2273.4</ele>
        <time>2018-07-01T08:10:41Z</time>
      </trkpt>
      <trkpt lat="45.29586" lon="6.66275">
        <ele>2273</ele>
        <time>2018-07-01T08:10:44Z</time>
      </trkpt>
      <trkpt lat="45.29584" lon="6.66278">
        <ele>2272.8</ele>
        <time>2018-07-01T08:10:47Z</time>
      </trkpt>
      <trkpt lat="45.29582" lon="6.66281">
        <ele>2272.6</ele>
        <time>2018-07-01T08:10:50Z</time>
      </trkpt>
      <trkpt lat="45.29579" lon="6.66284">
        <ele>2272.5</ele>
        <time>2018-07-01T08:10:54Z</time>
      </trkpt>
      <trkpt lat="45.29578" lon="6.66288">
        <ele>2272.4</ele>
        <time>2018-07-01T08:10:58Z</time>
      </trkpt>
      <trkpt lat="45.29575" lon="6.66291">
        <ele>2272.3</ele>
        <time>2018-07-01T08:11:02Z</time>
      </trkpt>
      <trkpt lat="45.29572" lon="6.66294">
        <ele>2272.2</ele>
        <time>2018-07-01T08:11:05Z</time>
      </trkpt>
      <trkpt lat="45.2957" lon="6.66297">
        <ele>2272.2</ele>
        <time>2018-07-01T08:11:08Z</time>
      </trkpt>
      <trkpt lat="45.29568" lon="6.66299">
        <ele>2272.4</ele>
        <time>2018-07-01T08:11:11Z</time>
      </trkpt>
      <trkpt lat="45.29566" lon="6.66302">
        <ele>2272.7</ele>
        <time>2018-07-01T08:11:14Z</time>
      </trkpt>
      <trkpt lat="45.29563" lon="6.66304">
        <ele>2273</ele>
        <time>2018-07-01T08:11:18Z</time>
      </trkpt>
      <trkpt lat="45.29559" lon="6.66305">
        <ele>2273.2</ele>
        <time>2018-07-01T08:11:21Z</time>
      </trkpt>
      <trkpt lat="45.29556" lon="6.66305">
        <ele>2273.4</ele>
        <time>2018-07-01T08:11:48Z</time>
      </trkpt>
      <trkpt lat="45.29553" lon="6.66306">
        <ele>2274.3</ele>
        <time>2018-07-01T08:11:51Z</time>
      </trkpt>
      <trkpt lat="45.2955" lon="6.66306">
        <ele>2275</ele>
        <time>2018-07-01T08:11:55Z</time>
      </trkpt>
      <trkpt lat="45.29548" lon="6.66304">
        <ele>2275.7</ele>
        <time>2018-07-01T08:11:58Z</time>
      </trkpt>
      <trkpt lat="45.29545" lon="6.66302">
        <ele>2276.4</ele>
        <time>2018-07-01T08:12:01Z</time>
      </trkpt>
      <trkpt lat="45.29543" lon="6.66298">
        <ele>2276.9</ele>
        <time>2018-07-01T08:12:04Z</time>
      </trkpt>
      <trkpt lat="45.29542" lon="6.66294">
        <ele>2277.4</ele>
        <time>2018-07-01T08:12:07Z</time>
      </trkpt>
      <trkpt lat="45.29543" lon="6.66289">
        <ele>2278.4</ele>
        <time>2018-07-01T08:12:10Z</time>
      </trkpt>
      <trkpt lat="45.29544" lon="6.66285">
        <ele>2279.5</ele>
        <time>2018-07-01T08:12:14Z</time>
      </trkpt>
      <trkpt lat="45.29545" lon="6.66281">
        <ele>2279.4</ele>
        <time>2018-07-01T08:12:17Z</time>
      </trkpt>
      <trkpt lat="45.29547" lon="6.66276">
        <ele>2280</ele>
        <time>2018-07-01T08:12:20Z</time>
      </trkpt>
      <trkpt lat="45.29547" lon="6.66271">
        <ele>2280.6</ele>
        <time>2018-07-01T08:12:24Z</time>
      </trkpt>
      <trkpt lat="45.29547" lon="6.66267">
        <ele>2281.3</ele>
        <time>2018-07-01T08:12:27Z</time>
      </trkpt>
      <trkpt lat="45.29547" lon="6.66262">
        <ele>2282</ele>
        <time>2018-07-01T08:12:30Z</time>
      </trkpt>
      <trkpt lat="45.29547" lon="6.66258">
        <ele>2282.9</ele>
        <time>2018-07-01T08:12:33Z</time>
      </trkpt>
      <trkpt lat="45.29546" lon="6.66254">
        <ele>2283.8</ele>
        <time>2018-07-01T08:12:36Z</time>
      </trkpt>
      <trkpt lat="45.29546" lon="6.6625">
        <ele>2284.8</ele>
        <time>2018-07-01T08:12:40Z</time>
      </trkpt>
      <trkpt lat="45.29546" lon="6.66246">
        <ele>2285.7</ele>
        <time>2018-07-01T08:12:43Z</time>
      </trkpt>
      <trkpt lat="45.29546" lon="6.66241">
        <ele>2286.7</ele>
        <time>2018-07-01T08:12:46Z</time>
      </trkpt>
      <trkpt lat="45.29547" lon="6.66237">
        <ele>2287.6</ele>
        <time>2018-07-01T08:12:49Z</time>
      </trkpt>
      <trkpt lat="45.29548" lon="6.66233">
        <ele>2288.5</ele>
        <time>2018-07-01T08:12:53Z</time>
      </trkpt>
      <trkpt lat="45.29548" lon="6.66227">
        <ele>2289.4</ele>
        <time>2018-07-01T08:12:57Z</time>
      </trkpt>
      <trkpt lat="45.29547" lon="6.66222">
        <ele>2290.3</ele>
        <time>2018-07-01T08:13:00Z</time>
      </trkpt>
      <trkpt lat="45.29547" lon="6.66218">
        <ele>2291.2</ele>
        <time>2018-07-01T08:13:03Z</time>
      </trkpt>
      <trkpt lat="45.29548" lon="6.66214">
        <ele>2291.3</ele>
        <time>2018-07-01T08:13:07Z</time>
      </trkpt>
      <trkpt lat="45.29549" lon="6.6621">
        <ele>2292.3</ele>
        <time>2018-07-01T08:13:10Z</time>
      </trkpt>
      <trkpt lat="45.29552" lon="6.66205">
        <ele>2292.3</ele>
        <time>2018-07-01T08:13:13Z</time>
      </trkpt>
      <trkpt lat="45.29554" lon="6.66201">
        <ele>2292.3</ele>
        <time>2018-07-01T08:13:16Z</time>
      </trkpt>
      <trkpt lat="45.29557" lon="6.66197">
        <ele>2293.1</ele>
        <time>2018-07-01T08:13:19Z</time>
      </trkpt>
      <trkpt lat="45.29558" lon="6.66194">
        <ele>2293</ele>
        <time>2018-07-01T08:13:22Z</time>
      </trkpt>
      <trkpt lat="45.2956" lon="6.66191">
        <ele>2292.9</ele>
        <time>2018-07-01T08:13:25Z</time>
      </trkpt>
      <trkpt lat="45.29562" lon="6.66187">
        <ele>2293.7</ele>
        <time>2018-07-01T08:13:28Z</time>
      </trkpt>
      <trkpt lat="45.29563" lon="6.66183">
        <ele>2294.5</ele>
        <time>2018-07-01T08:13:31Z</time>
      </trkpt>
      <trkpt lat="45.29563" lon="6.66179">
        <ele>2294.5</ele>
        <time>2018-07-01T08:13:34Z</time>
      </trkpt>
      <trkpt lat="45.29559" lon="6.66179">
        <ele>2296.3</ele>
        <time>2018-07-01T08:13:39Z</time>
      </trkpt>
      <trkpt lat="45.29556" lon="6.66181">
        <ele>2296.5</ele>
        <time>2018-07-01T08:13:43Z</time>
      </trkpt>
      <trkpt lat="45.29553" lon="6.66182">
        <ele>2297.6</ele>
        <time>2018-07-01T08:13:46Z</time>
      </trkpt>
      <trkpt lat="45.2955" lon="6.66185">
        <ele>2297.9</ele>
        <time>2018-07-01T08:13:50Z</time>
      </trkpt>
      <trkpt lat="45.29548" lon="6.66187">
        <ele>2298.9</ele>
        <time>2018-07-01T08:13:53Z</time>
      </trkpt>
      <trkpt lat="45.29545" lon="6.66188">
        <ele>2299</ele>
        <time>2018-07-01T08:13:56Z</time>
      </trkpt>
      <trkpt lat="45.29542" lon="6.6619">
        <ele>2299</ele>
        <time>2018-07-01T08:13:59Z</time>
      </trkpt>
      <trkpt lat="45.2954" lon="6.66193">
        <ele>2299</ele>
        <time>2018-07-01T08:14:02Z</time>
      </trkpt>
      <trkpt lat="45.29537" lon="6.66195">
        <ele>2300.1</ele>
        <time>2018-07-01T08:14:06Z</time>
      </trkpt>
      <trkpt lat="45.29534" lon="6.66197">
        <ele>2300.2</ele>
        <time>2018-07-01T08:14:10Z</time>
      </trkpt>
      <trkpt lat="45.29531" lon="6.66199">
        <ele>2301.5</ele>
        <time>2018-07-01T08:14:13Z</time>
      </trkpt>
      <trkpt lat="45.29528" lon="6.66201">
        <ele>2301.6</ele>
        <time>2018-07-01T08:14:16Z</time>
      </trkpt>
      <trkpt lat="45.29526" lon="6.66204">
        <ele>2302.9</ele>
        <time>2018-07-01T08:14:19Z</time>
      </trkpt>
      <trkpt lat="45.29523" lon="6.66205">
        <ele>2302.9</ele>
        <time>2018-07-01T08:14:22Z</time>
      </trkpt>
      <trkpt lat="45.29521" lon="6.66208">
        <ele>2304</ele>
        <time>2018-07-01T08:14:26Z</time>
      </trkpt>
      <trkpt lat="45.29518" lon="6.66211">
        <ele>2302.7</ele>
        <time>2018-07-01T08:14:29Z</time>
      </trkpt>
      <trkpt lat="45.29515" lon="6.66213">
        <ele>2303.8</ele>
        <time>2018-07-01T08:14:32Z</time>
      </trkpt>
      <trkpt lat="45.29513" lon="6.66215">
        <ele>2303.6</ele>
        <time>2018-07-01T08:14:35Z</time>
      </trkpt>
      <trkpt lat="45.2951" lon="6.66217">
        <ele>2304.7</ele>
        <time>2018-07-01T08:14:40Z</time>
      </trkpt>
      <trkpt lat="45.29507" lon="6.66219">
        <ele>2304.5</ele>
        <time>2018-07-01T08:14:43Z</time>
      </trkpt>
      <trkpt lat="45.29505" lon="6.66221">
        <ele>2305.7</ele>
        <time>2018-07-01T08:14:47Z</time>
      </trkpt>
      <trkpt lat="45.29502" lon="6.66223">
        <ele>2305.6</ele>
        <time>2018-07-01T08:14:51Z</time>
      </trkpt>
      <trkpt lat="45.295" lon="6.66225">
        <ele>2305.6</ele>
        <time>2018-07-01T08:14:54Z</time>
      </trkpt>
      <trkpt lat="45.29497" lon="6.66227">
        <ele>2305.6</ele>
        <time>2018-07-01T08:14:58Z</time>
      </trkpt>
      <trkpt lat="45.29495" lon="6.66229">
        <ele>2306.8</ele>
        <time>2018-07-01T08:15:01Z</time>
      </trkpt>
      <trkpt lat="45.29492" lon="6.66232">
        <ele>2306.9</ele>
        <time>2018-07-01T08:15:05Z</time>
      </trkpt>
      <trkpt lat="45.29489" lon="6.66235">
        <ele>2308.1</ele>
        <time>2018-07-01T08:15:09Z</time>
      </trkpt>
      <trkpt lat="45.29487" lon="6.66238">
        <ele>2308.2</ele>
        <time>2018-07-01T08:15:12Z</time>
      </trkpt>
      <trkpt lat="45.29485" lon="6.6624">
        <ele>2307.1</ele>
        <time>2018-07-01T08:15:15Z</time>
      </trkpt>
      <trkpt lat="45.29482" lon="6.66242">
        <ele>2308.3</ele>
        <time>2018-07-01T08:15:18Z</time>
      </trkpt>
      <trkpt lat="45.2948" lon="6.66245">
        <ele>2308.3</ele>
        <time>2018-07-01T08:15:21Z</time>
      </trkpt>
      <trkpt lat="45.29478" lon="6.66249">
        <ele>2308.3</ele>
        <time>2018-07-01T08:15:25Z</time>
      </trkpt>
      <trkpt lat="45.29475" lon="6.66251">
        <ele>2309.5</ele>
        <time>2018-07-01T08:15:28Z</time>
      </trkpt>
      <trkpt lat="45.29472" lon="6.66253">
        <ele>2309.7</ele>
        <time>2018-07-01T08:15:31Z</time>
      </trkpt>
      <trkpt lat="45.2947" lon="6.66255">
        <ele>2309.6</ele>
        <time>2018-07-01T08:15:33Z</time>
      </trkpt>
      <trkpt lat="45.29466" lon="6.66257">
        <ele>2311.1</ele>
        <time>2018-07-01T08:15:36Z</time>
      </trkpt>
      <trkpt lat="45.29463" lon="6.66257">
        <ele>2312.3</ele>
        <time>2018-07-01T08:15:39Z</time>
      </trkpt>
      <trkpt lat="45.2946" lon="6.66256">
        <ele>2314.4</ele>
        <time>2018-07-01T08:15:42Z</time>
      </trkpt>
      <trkpt lat="45.29457" lon="6.66257">
        <ele>2314.4</ele>
        <time>2018-07-01T08:15:45Z</time>
      </trkpt>
      <trkpt lat="45.29454" lon="6.66258">
        <ele>2315.5</ele>
        <time>2018-07-01T08:15:48Z</time>
      </trkpt>
      <trkpt lat="45.29451" lon="6.66257">
        <ele>2316.7</ele>
        <time>2018-07-01T08:15:51Z</time>
      </trkpt>
      <trkpt lat="45.29448" lon="6.66257">
        <ele>2318</ele>
        <time>2018-07-01T08:15:54Z</time>
      </trkpt>
      <trkpt lat="45.29445" lon="6.66257">
        <ele>2319.2</ele>
        <time>2018-07-01T08:15:57Z</time>
      </trkpt>
      <trkpt lat="45.29441" lon="6.66258">
        <ele>2320.5</ele>
        <time>2018-07-01T08:16:01Z</time>
      </trkpt>
      <trkpt lat="45.29438" lon="6.66258">
        <ele>2321.6</ele>
        <time>2018-07-01T08:16:04Z</time>
      </trkpt>
      <trkpt lat="45.29435" lon="6.6626">
        <ele>2322.6</ele>
        <time>2018-07-01T08:16:07Z</time>
      </trkpt>
      <trkpt lat="45.29432" lon="6.66261">
        <ele>2322.6</ele>
        <time>2018-07-01T08:16:10Z</time>
      </trkpt>
      <trkpt lat="45.29429" lon="6.66262">
        <ele>2323.5</ele>
        <time>2018-07-01T08:16:13Z</time>
      </trkpt>
      <trkpt lat="45.29426" lon="6.66263">
        <ele>2324.5</ele>
        <time>2018-07-01T08:16:17Z</time>
      </trkpt>
      <trkpt lat="45.29423" lon="6.66264">
        <ele>2324.9</ele>
        <time>2018-07-01T08:16:21Z</time>
      </trkpt>
      <trkpt lat="45.29419" lon="6.66265">
        <ele>2325.3</ele>
        <time>2018-07-01T08:16:25Z</time>
      </trkpt>
      <trkpt lat="45.29417" lon="6.66266">
        <ele>2325.6</ele>
        <time>2018-07-01T08:16:29Z</time>
      </trkpt>
      <trkpt lat="45.29414" lon="6.66268">
        <ele>2325.9</ele>
        <time>2018-07-01T08:16:33Z</time>
      </trkpt>
      <trkpt lat="45.29412" lon="6.6627">
        <ele>2326.2</ele>
        <time>2018-07-01T08:16:36Z</time>
      </trkpt>
      <trkpt lat="45.29409" lon="6.66272">
        <ele>2326.6</ele>
        <time>2018-07-01T08:16:40Z</time>
      </trkpt>
      <trkpt lat="45.29407" lon="6.66275">
        <ele>2326.9</ele>
        <time>2018-07-01T08:16:43Z</time>
      </trkpt>
      <trkpt lat="45.29404" lon="6.66278">
        <ele>2327.5</ele>
        <time>2018-07-01T08:16:47Z</time>
      </trkpt>
      <trkpt lat="45.29402" lon="6.66282">
        <ele>2328.2</ele>
        <time>2018-07-01T08:16:51Z</time>
      </trkpt>
      <trkpt lat="45.294" lon="6.66284">
        <ele>2328.8</ele>
        <time>2018-07-01T08:16:55Z</time>
      </trkpt>
      <trkpt lat="45.29397" lon="6.66285">
        <ele>2329.5</ele>
        <time>2018-07-01T08:16:59Z</time>
      </trkpt>
      <trkpt lat="45.29394" lon="6.66287">
        <ele>2330.3</ele>
        <time>2018-07-01T08:17:03Z</time>
      </trkpt>
      <trkpt lat="45.29391" lon="6.66289">
        <ele>2331</ele>
        <time>2018-07-01T08:17:06Z</time>
      </trkpt>
      <trkpt lat="45.29388" lon="6.66289">
        <ele>2331.5</ele>
        <time>2018-07-01T08:17:09Z</time>
      </trkpt>
      <trkpt lat="45.29385" lon="6.66289">
        <ele>2332</ele>
        <time>2018-07-01T08:17:12Z</time>
      </trkpt>
      <trkpt lat="45.29382" lon="6.6629">
        <ele>2332.4</ele>
        <time>2018-07-01T08:17:15Z</time>
      </trkpt>
      <trkpt lat="45.29379" lon="6.6629">
        <ele>2333.2</ele>
        <time>2018-07-01T08:17:18Z</time>
      </trkpt>
      <trkpt lat="45.29377" lon="6.66291">
        <ele>2334</ele>
        <time>2018-07-01T08:17:21Z</time>
      </trkpt>
      <trkpt lat="45.29373" lon="6.66291">
        <ele>2334.9</ele>
        <time>2018-07-01T08:17:24Z</time>
      </trkpt>
      <trkpt lat="45.29371" lon="6.66291">
        <ele>2335.5</ele>
        <time>2018-07-01T08:17:27Z</time>
      </trkpt>
      <trkpt lat="45.29368" lon="6.66292">
        <ele>2336.1</ele>
        <time>2018-07-01T08:17:30Z</time>
      </trkpt>
      <trkpt lat="45.29365" lon="6.66292">
        <ele>2336.7</ele>
        <time>2018-07-01T08:17:33Z</time>
      </trkpt>
      <trkpt lat="45.29362" lon="6.66293">
        <ele>2337.3</ele>
        <time>2018-07-01T08:17:36Z</time>
      </trkpt>
      <trkpt lat="45.29359" lon="6.66295">
        <ele>2338.2</ele>
        <time>2018-07-01T08:17:40Z</time>
      </trkpt>
      <trkpt lat="45.29355" lon="6.66297">
        <ele>2339.2</ele>
        <time>2018-07-01T08:17:44Z</time>
      </trkpt>
      <trkpt lat="45.29352" lon="6.66298">
        <ele>2339.9</ele>
        <time>2018-07-01T08:17:47Z</time>
      </trkpt>
      <trkpt lat="45.2935" lon="6.66299">
        <ele>2340.7</ele>
        <time>2018-07-01T08:17:50Z</time>
      </trkpt>
      <trkpt lat="45.29347" lon="6.66299">
        <ele>2341.5</ele>
        <time>2018-07-01T08:17:53Z</time>
      </trkpt>
      <trkpt lat="45.29344" lon="6.663">
        <ele>2342.1</ele>
        <time>2018-07-01T08:17:56Z</time>
      </trkpt>
      <trkpt lat="45.29341" lon="6.663">
        <ele>2342.5</ele>
        <time>2018-07-01T08:17:59Z</time>
      </trkpt>
      <trkpt lat="45.29338" lon="6.663">
        <ele>2342.9</ele>
        <time>2018-07-01T08:18:02Z</time>
      </trkpt>
      <trkpt lat="45.29335" lon="6.663">
        <ele>2343.5</ele>
        <time>2018-07-01T08:18:05Z</time>
      </trkpt>
      <trkpt lat="45.29331" lon="6.66301">
        <ele>2344.3</ele>
        <time>2018-07-01T08:18:08Z</time>
      </trkpt>
      <trkpt lat="45.29328" lon="6.66301">
        <ele>2345</ele>
        <time>2018-07-01T08:18:11Z</time>
      </trkpt>
      <trkpt lat="45.29325" lon="6.66303">
        <ele>2345.7</ele>
        <time>2018-07-01T08:18:14Z</time>
      </trkpt>
      <trkpt lat="45.29322" lon="6.66304">
        <ele>2346.5</ele>
        <time>2018-07-01T08:18:17Z</time>
      </trkpt>
      <trkpt lat="45.29319" lon="6.66306">
        <ele>2347.2</ele>
        <time>2018-07-01T08:18:20Z</time>
      </trkpt>
      <trkpt lat="45.29316" lon="6.66307">
        <ele>2347.7</ele>
        <time>2018-07-01T08:18:23Z</time>
      </trkpt>
      <trkpt lat="45.29314" lon="6.66308">
        <ele>2348.1</ele>
        <time>2018-07-01T08:18:26Z</time>
      </trkpt>
      <trkpt lat="45.29311" lon="6.6631">
        <ele>2348.5</ele>
        <time>2018-07-01T08:18:29Z</time>
      </trkpt>
      <trkpt lat="45.29308" lon="6.66312">
        <ele>2349.1</ele>
        <time>2018-07-01T08:18:32Z</time>
      </trkpt>
      <trkpt lat="45.29305" lon="6.66313">
        <ele>2349.7</ele>
        <time>2018-07-01T08:18:35Z</time>
      </trkpt>
      <trkpt lat="45.29302" lon="6.66315">
        <ele>2350.3</ele>
        <time>2018-07-01T08:18:38Z</time>
      </trkpt>
      <trkpt lat="45.29299" lon="6.66316">
        <ele>2350.6</ele>
        <time>2018-07-01T08:18:41Z</time>
      </trkpt>
      <trkpt lat="45.29296" lon="6.66317">
        <ele>2351.1</ele>
        <time>2018-07-01T08:18:44Z</time>
      </trkpt>
      <trkpt lat="45.29292" lon="6.66317">
        <ele>2351.6</ele>
        <time>2018-07-01T08:18:47Z</time>
      </trkpt>
      <trkpt lat="45.29289" lon="6.66317">
        <ele>2352.3</ele>
        <time>2018-07-01T08:18:50Z</time>
      </trkpt>
      <trkpt lat="45.29286" lon="6.66316">
        <ele>2352.8</ele>
        <time>2018-07-01T08:18:53Z</time>
      </trkpt>
      <trkpt lat="45.29283" lon="6.66316">
        <ele>2352.9</ele>
        <time>2018-07-01T08:18:56Z</time>
      </trkpt>
      <trkpt lat="45.2928" lon="6.66316">
        <ele>2352.9</ele>
        <time>2018-07-01T08:18:59Z</time>
      </trkpt>
      <trkpt lat="45.29277" lon="6.66318">
        <ele>2353</ele>
        <time>2018-07-01T08:19:02Z</time>
      </trkpt>
      <trkpt lat="45.29275" lon="6.66323">
        <ele>2352.5</ele>
        <time>2018-07-01T08:19:06Z</time>
      </trkpt>
      <trkpt lat="45.29274" lon="6.66327">
        <ele>2352.1</ele>
        <time>2018-07-01T08:19:09Z</time>
      </trkpt>
      <trkpt lat="45.29273" lon="6.66332">
        <ele>2351.7</ele>
        <time>2018-07-01T08:19:13Z</time>
      </trkpt>
      <trkpt lat="45.29274" lon="6.66336">
        <ele>2351.3</ele>
        <time>2018-07-01T08:19:16Z</time>
      </trkpt>
      <trkpt lat="45.29275" lon="6.66341">
        <ele>2351</ele>
        <time>2018-07-01T08:19:20Z</time>
      </trkpt>
      <trkpt lat="45.29276" lon="6.66345">
        <ele>2350.8</ele>
        <time>2018-07-01T08:19:23Z</time>
      </trkpt>
      <trkpt lat="45.29276" lon="6.6635">
        <ele>2350.7</ele>
        <time>2018-07-01T08:19:26Z</time>
      </trkpt>
      <trkpt lat="45.29278" lon="6.66354">
        <ele>2350.4</ele>
        <time>2018-07-01T08:19:29Z</time>
      </trkpt>
      <trkpt lat="45.29279" lon="6.66358">
        <ele>2350.1</ele>
        <time>2018-07-01T08:19:32Z</time>
      </trkpt>
      <trkpt lat="45.2928" lon="6.66361">
        <ele>2350</ele>
        <time>2018-07-01T08:19:35Z</time>
      </trkpt>
      <trkpt lat="45.29281" lon="6.66365">
        <ele>2350</ele>
        <time>2018-07-01T08:19:38Z</time>
      </trkpt>
      <trkpt lat="45.29281" lon="6.6637">
        <ele>2350</ele>
        <time>2018-07-01T08:19:41Z</time>
      </trkpt>
      <trkpt lat="45.2928" lon="6.66374">
        <ele>2350</ele>
        <time>2018-07-01T08:19:44Z</time>
      </trkpt>
      <trkpt lat="45.29279" lon="6.66378">
        <ele>2350</ele>
        <time>2018-07-01T08:19:47Z</time>
      </trkpt>
      <trkpt lat="45.29278" lon="6.66381">
        <ele>2350</ele>
        <time>2018-07-01T08:19:50Z</time>
      </trkpt>
      <trkpt lat="45.29276" lon="6.66384">
        <ele>2350.1</ele>
        <time>2018-07-01T08:19:53Z</time>
      </trkpt>
      <trkpt lat="45.29274" lon="6.66386">
        <ele>2350.8</ele>
        <time>2018-07-01T08:19:56Z</time>
      </trkpt>
      <trkpt lat="45.2927" lon="6.66385">
        <ele>2351.6</ele>
        <time>2018-07-01T08:20:00Z</time>
      </trkpt>
      <trkpt lat="45.29266" lon="6.66385">
        <ele>2352</ele>
        <time>2018-07-01T08:20:04Z</time>
      </trkpt>
      <trkpt lat="45.29264" lon="6.66384">
        <ele>2352.3</ele>
        <time>2018-07-01T08:20:07Z</time>
      </trkpt>
      <trkpt lat="45.29261" lon="6.66383">
        <ele>2352.6</ele>
        <time>2018-07-01T08:20:10Z</time>
      </trkpt>
      <trkpt lat="45.29258" lon="6.66383">
        <ele>2352.9</ele>
        <time>2018-07-01T08:20:13Z</time>
      </trkpt>
      <trkpt lat="45.29255" lon="6.66383">
        <ele>2353.2</ele>
        <time>2018-07-01T08:20:17Z</time>
      </trkpt>
      <trkpt lat="45.29254" lon="6.66387">
        <ele>2353.5</ele>
        <time>2018-07-01T08:20:46Z</time>
      </trkpt>
      <trkpt lat="45.29257" lon="6.66385">
        <ele>2353.9</ele>
        <time>2018-07-01T08:21:44Z</time>
      </trkpt>
      <trkpt lat="45.29254" lon="6.66385">
        <ele>2354.2</ele>
        <time>2018-07-01T08:21:48Z</time>
      </trkpt>
      <trkpt lat="45.2925" lon="6.66385">
        <ele>2354.5</ele>
        <time>2018-07-01T08:21:51Z</time>
      </trkpt>
      <trkpt lat="45.29247" lon="6.66386">
        <ele>2354.7</ele>
        <time>2018-07-01T08:21:54Z</time>
      </trkpt>
      <trkpt lat="45.29244" lon="6.66386">
        <ele>2354.9</ele>
        <time>2018-07-01T08:21:57Z</time>
      </trkpt>
      <trkpt lat="45.29241" lon="6.66385">
        <ele>2355.2</ele>
        <time>2018-07-01T08:22:00Z</time>
      </trkpt>
      <trkpt lat="45.29238" lon="6.66385">
        <ele>2355.4</ele>
        <time>2018-07-01T08:22:03Z</time>
      </trkpt>
      <trkpt lat="45.29234" lon="6.66385">
        <ele>2355.6</ele>
        <time>2018-07-01T08:22:06Z</time>
      </trkpt>
      <trkpt lat="45.29231" lon="6.66385">
        <ele>2355.8</ele>
        <time>2018-07-01T08:22:09Z</time>
      </trkpt>
      <trkpt lat="45.29228" lon="6.66385">
        <ele>2356</ele>
        <time>2018-07-01T08:22:12Z</time>
      </trkpt>
      <trkpt lat="45.29224" lon="6.66385">
        <ele>2356.3</ele>
        <time>2018-07-01T08:22:16Z</time>
      </trkpt>
      <trkpt lat="45.29221" lon="6.66387">
        <ele>2356.5</ele>
        <time>2018-07-01T08:22:20Z</time>
      </trkpt>
      <trkpt lat="45.29217" lon="6.66387">
        <ele>2356.8</ele>
        <time>2018-07-01T08:22:24Z</time>
      </trkpt>
      <trkpt lat="45.29214" lon="6.66389">
        <ele>2357</ele>
        <time>2018-07-01T08:22:28Z</time>
      </trkpt>
      <trkpt lat="45.29212" lon="6.66391">
        <ele>2357.2</ele>
        <time>2018-07-01T08:22:44Z</time>
      </trkpt>
      <trkpt lat="45.29207" lon="6.66395">
        <ele>2357.4</ele>
        <time>2018-07-01T08:23:33Z</time>
      </trkpt>
      <trkpt lat="45.29211" lon="6.66396">
        <ele>2357.6</ele>
        <time>2018-07-01T08:24:16Z</time>
      </trkpt>
      <trkpt lat="45.2921" lon="6.66392">
        <ele>2357.9</ele>
        <time>2018-07-01T08:24:46Z</time>
      </trkpt>
      <trkpt lat="45.29207" lon="6.6639">
        <ele>2358.2</ele>
        <time>2018-07-01T08:24:49Z</time>
      </trkpt>
      <trkpt lat="45.29204" lon="6.66389">
        <ele>2358.4</ele>
        <time>2018-07-01T08:24:51Z</time>
      </trkpt>
      <trkpt lat="45.29201" lon="6.66389">
        <ele>2358.7</ele>
        <time>2018-07-01T08:24:54Z</time>
      </trkpt>
      <trkpt lat="45.29197" lon="6.66388">
        <ele>2359.1</ele>
        <time>2018-07-01T08:24:57Z</time>
      </trkpt>
      <trkpt lat="45.29193" lon="6.66388">
        <ele>2359.1</ele>
        <time>2018-07-01T08:25:00Z</time>
      </trkpt>
      <trkpt lat="45.2919" lon="6.66389">
        <ele>2359.2</ele>
        <time>2018-07-01T08:25:12Z</time>
      </trkpt>
      <trkpt lat="45.29187" lon="6.66389">
        <ele>2359.7</ele>
        <time>2018-07-01T08:25:15Z</time>
      </trkpt>
      <trkpt lat="45.29183" lon="6.66389">
        <ele>2360.5</ele>
        <time>2018-07-01T08:25:18Z</time>
      </trkpt>
      <trkpt lat="45.2918" lon="6.66389">
        <ele>2361.2</ele>
        <time>2018-07-01T08:25:21Z</time>
      </trkpt>
      <trkpt lat="45.29176" lon="6.66387">
        <ele>2361.7</ele>
        <time>2018-07-01T08:25:24Z</time>
      </trkpt>
      <trkpt lat="45.29174" lon="6.66387">
        <ele>2362.1</ele>
        <time>2018-07-01T08:25:26Z</time>
      </trkpt>
      <trkpt lat="45.29171" lon="6.66385">
        <ele>2362.8</ele>
        <time>2018-07-01T08:25:29Z</time>
      </trkpt>
      <trkpt lat="45.29167" lon="6.66383">
        <ele>2363.6</ele>
        <time>2018-07-01T08:25:32Z</time>
      </trkpt>
      <trkpt lat="45.29165" lon="6.6638">
        <ele>2364.3</ele>
        <time>2018-07-01T08:25:35Z</time>
      </trkpt>
      <trkpt lat="45.29162" lon="6.66378">
        <ele>2365</ele>
        <time>2018-07-01T08:25:38Z</time>
      </trkpt>
      <trkpt lat="45.29159" lon="6.66375">
        <ele>2365.9</ele>
        <time>2018-07-01T08:25:41Z</time>
      </trkpt>
      <trkpt lat="45.29157" lon="6.66374">
        <ele>2366.7</ele>
        <time>2018-07-01T08:25:44Z</time>
      </trkpt>
      <trkpt lat="45.29154" lon="6.66372">
        <ele>2367.4</ele>
        <time>2018-07-01T08:25:47Z</time>
      </trkpt>
      <trkpt lat="45.29152" lon="6.6637">
        <ele>2367.8</ele>
        <time>2018-07-01T08:25:50Z</time>
      </trkpt>
      <trkpt lat="45.29149" lon="6.66368">
        <ele>2368.2</ele>
        <time>2018-07-01T08:25:53Z</time>
      </trkpt>
      <trkpt lat="45.29146" lon="6.66366">
        <ele>2368.9</ele>
        <time>2018-07-01T08:25:57Z</time>
      </trkpt>
      <trkpt lat="45.29143" lon="6.66365">
        <ele>2369.7</ele>
        <time>2018-07-01T08:26:00Z</time>
      </trkpt>
      <trkpt lat="45.2914" lon="6.66365">
        <ele>2370.7</ele>
        <time>2018-07-01T08:26:04Z</time>
      </trkpt>
      <trkpt lat="45.29137" lon="6.66364">
        <ele>2371.7</ele>
        <time>2018-07-01T08:26:08Z</time>
      </trkpt>
      <trkpt lat="45.29133" lon="6.66363">
        <ele>2372.6</ele>
        <time>2018-07-01T08:26:12Z</time>
      </trkpt>
      <trkpt lat="45.2913" lon="6.66362">
        <ele>2373.5</ele>
        <time>2018-07-01T08:26:16Z</time>
      </trkpt>
      <trkpt lat="45.29127" lon="6.6636">
        <ele>2374.6</ele>
        <time>2018-07-01T08:26:20Z</time>
      </trkpt>
      <trkpt lat="45.29124" lon="6.66358">
        <ele>2375.6</ele>
        <time>2018-07-01T08:26:24Z</time>
      </trkpt>
      <trkpt lat="45.2912" lon="6.66356">
        <ele>2376.6</ele>
        <time>2018-07-01T08:26:28Z</time>
      </trkpt>
      <trkpt lat="45.29117" lon="6.66354">
        <ele>2377.5</ele>
        <time>2018-07-01T08:26:32Z</time>
      </trkpt>
      <trkpt lat="45.29114" lon="6.66352">
        <ele>2378.3</ele>
        <time>2018-07-01T08:26:36Z</time>
      </trkpt>
      <trkpt lat="45.29111" lon="6.66352">
        <ele>2379.2</ele>
        <time>2018-07-01T08:26:40Z</time>
      </trkpt>
      <trkpt lat="45.29108" lon="6.66354">
        <ele>2380.1</ele>
        <time>2018-07-01T08:26:44Z</time>
      </trkpt>
      <trkpt lat="45.29105" lon="6.66354">
        <ele>2381.3</ele>
        <time>2018-07-01T08:26:48Z</time>
      </trkpt>
      <trkpt lat="45.29101" lon="6.66354">
        <ele>2382.6</ele>
        <time>2018-07-01T08:26:52Z</time>
      </trkpt>
      <trkpt lat="45.29098" lon="6.66354">
        <ele>2383.2</ele>
        <time>2018-07-01T08:26:56Z</time>
      </trkpt>
      <trkpt lat="45.29095" lon="6.66353">
        <ele>2383.8</ele>
        <time>2018-07-01T08:26:59Z</time>
      </trkpt>
      <trkpt lat="45.29092" lon="6.66352">
        <ele>2384.5</ele>
        <time>2018-07-01T08:27:02Z</time>
      </trkpt>
      <trkpt lat="45.29089" lon="6.66351">
        <ele>2385.7</ele>
        <time>2018-07-01T08:27:06Z</time>
      </trkpt>
      <trkpt lat="45.29086" lon="6.6635">
        <ele>2386.8</ele>
        <time>2018-07-01T08:27:09Z</time>
      </trkpt>
      <trkpt lat="45.29083" lon="6.66349">
        <ele>2387.6</ele>
        <time>2018-07-01T08:27:12Z</time>
      </trkpt>
      <trkpt lat="45.2908" lon="6.66348">
        <ele>2388.4</ele>
        <time>2018-07-01T08:27:15Z</time>
      </trkpt>
      <trkpt lat="45.29077" lon="6.66347">
        <ele>2389.2</ele>
        <time>2018-07-01T08:27:18Z</time>
      </trkpt>
      <trkpt lat="45.29074" lon="6.66346">
        <ele>2389.8</ele>
        <time>2018-07-01T08:27:21Z</time>
      </trkpt>
      <trkpt lat="45.29071" lon="6.66345">
        <ele>2390.6</ele>
        <time>2018-07-01T08:27:25Z</time>
      </trkpt>
      <trkpt lat="45.29068" lon="6.66344">
        <ele>2391.3</ele>
        <time>2018-07-01T08:27:28Z</time>
      </trkpt>
      <trkpt lat="45.29065" lon="6.66343">
        <ele>2392.1</ele>
        <time>2018-07-01T08:27:31Z</time>
      </trkpt>
      <trkpt lat="45.29062" lon="6.66342">
        <ele>2392.9</ele>
        <time>2018-07-01T08:27:34Z</time>
      </trkpt>
      <trkpt lat="45.29059" lon="6.66342">
        <ele>2393.7</ele>
        <time>2018-07-01T08:27:37Z</time>
      </trkpt>
      <trkpt lat="45.29057" lon="6.6634">
        <ele>2394.5</ele>
        <time>2018-07-01T08:27:40Z</time>
      </trkpt>
      <trkpt lat="45.29053" lon="6.66339">
        <ele>2395.4</ele>
        <time>2018-07-01T08:27:44Z</time>
      </trkpt>
      <trkpt lat="45.29051" lon="6.66337">
        <ele>2395.3</ele>
        <time>2018-07-01T08:27:48Z</time>
      </trkpt>
      <trkpt lat="45.29051" lon="6.66333">
        <ele>2395.3</ele>
        <time>2018-07-01T08:27:52Z</time>
      </trkpt>
      <trkpt lat="45.29054" lon="6.66331">
        <ele>2395.2</ele>
        <time>2018-07-01T08:27:55Z</time>
      </trkpt>
      <trkpt lat="45.29056" lon="6.66328">
        <ele>2395.1</ele>
        <time>2018-07-01T08:27:58Z</time>
      </trkpt>
      <trkpt lat="45.2906" lon="6.66327">
        <ele>2395</ele>
        <time>2018-07-01T08:28:01Z</time>
      </trkpt>
      <trkpt lat="45.29063" lon="6.66326">
        <ele>2395</ele>
        <time>2018-07-01T08:28:04Z</time>
      </trkpt>
      <trkpt lat="45.29066" lon="6.66325">
        <ele>2395.2</ele>
        <time>2018-07-01T08:28:07Z</time>
      </trkpt>
      <trkpt lat="45.29069" lon="6.66323">
        <ele>2395.5</ele>
        <time>2018-07-01T08:28:11Z</time>
      </trkpt>
      <trkpt lat="45.29071" lon="6.66322">
        <ele>2396.1</ele>
        <time>2018-07-01T08:28:14Z</time>
      </trkpt>
      <trkpt lat="45.29074" lon="6.66318">
        <ele>2396.9</ele>
        <time>2018-07-01T08:28:18Z</time>
      </trkpt>
      <trkpt lat="45.29074" lon="6.66314">
        <ele>2398.2</ele>
        <time>2018-07-01T08:28:22Z</time>
      </trkpt>
      <trkpt lat="45.29074" lon="6.66309">
        <ele>2399.4</ele>
        <time>2018-07-01T08:28:25Z</time>
      </trkpt>
      <trkpt lat="45.29072" lon="6.66307">
        <ele>2400.4</ele>
        <time>2018-07-01T08:28:28Z</time>
      </trkpt>
      <trkpt lat="45.29069" lon="6.66306">
        <ele>2401.3</ele>
        <time>2018-07-01T08:28:32Z</time>
      </trkpt>
      <trkpt lat="45.29065" lon="6.66307">
        <ele>2402.2</ele>
        <time>2018-07-01T08:28:36Z</time>
      </trkpt>
      <trkpt lat="45.29062" lon="6.66307">
        <ele>2402.9</ele>
        <time>2018-07-01T08:28:39Z</time>
      </trkpt>
      <trkpt lat="45.29059" lon="6.66305">
        <ele>2404</ele>
        <time>2018-07-01T08:28:42Z</time>
      </trkpt>
      <trkpt lat="45.29057" lon="6.66302">
        <ele>2405.1</ele>
        <time>2018-07-01T08:28:45Z</time>
      </trkpt>
      <trkpt lat="45.29054" lon="6.66299">
        <ele>2406.1</ele>
        <time>2018-07-01T08:28:48Z</time>
      </trkpt>
      <trkpt lat="45.29051" lon="6.66297">
        <ele>2406.8</ele>
        <time>2018-07-01T08:28:51Z</time>
      </trkpt>
      <trkpt lat="45.29049" lon="6.66294">
        <ele>2407.3</ele>
        <time>2018-07-01T08:28:54Z</time>
      </trkpt>
      <trkpt lat="45.29047" lon="6.66292">
        <ele>2407.9</ele>
        <time>2018-07-01T08:28:57Z</time>
      </trkpt>
      <trkpt lat="45.29044" lon="6.66289">
        <ele>2408.9</ele>
        <time>2018-07-01T08:29:00Z</time>
      </trkpt>
      <trkpt lat="45.29041" lon="6.66288">
        <ele>2409.8</ele>
        <time>2018-07-01T08:29:03Z</time>
      </trkpt>
      <trkpt lat="45.29038" lon="6.66285">
        <ele>2410.4</ele>
        <time>2018-07-01T08:29:06Z</time>
      </trkpt>
      <trkpt lat="45.29035" lon="6.66284">
        <ele>2410.9</ele>
        <time>2018-07-01T08:29:09Z</time>
      </trkpt>
      <trkpt lat="45.29033" lon="6.66281">
        <ele>2411.5</ele>
        <time>2018-07-01T08:29:12Z</time>
      </trkpt>
      <trkpt lat="45.2903" lon="6.66279">
        <ele>2412.1</ele>
        <time>2018-07-01T08:29:15Z</time>
      </trkpt>
      <trkpt lat="45.29028" lon="6.66277">
        <ele>2412.6</ele>
        <time>2018-07-01T08:29:18Z</time>
      </trkpt>
      <trkpt lat="45.29025" lon="6.66275">
        <ele>2413.1</ele>
        <time>2018-07-01T08:29:21Z</time>
      </trkpt>
      <trkpt lat="45.29022" lon="6.66273">
        <ele>2413.5</ele>
        <time>2018-07-01T08:29:24Z</time>
      </trkpt>
      <trkpt lat="45.29019" lon="6.66271">
        <ele>2413.8</ele>
        <time>2018-07-01T08:29:27Z</time>
      </trkpt>
      <trkpt lat="45.29016" lon="6.6627">
        <ele>2414.2</ele>
        <time>2018-07-01T08:29:30Z</time>
      </trkpt>
      <trkpt lat="45.29013" lon="6.66269">
        <ele>2414.5</ele>
        <time>2018-07-01T08:29:33Z</time>
      </trkpt>
      <trkpt lat="45.2901" lon="6.66267">
        <ele>2414.8</ele>
        <time>2018-07-01T08:29:36Z</time>
      </trkpt>
      <trkpt lat="45.29007" lon="6.66266">
        <ele>2415.2</ele>
        <time>2018-07-01T08:29:39Z</time>
      </trkpt>
      <trkpt lat="45.29004" lon="6.66264">
        <ele>2415.6</ele>
        <time>2018-07-01T08:29:42Z</time>
      </trkpt>
      <trkpt lat="45.29001" lon="6.66263">
        <ele>2416</ele>
        <time>2018-07-01T08:29:45Z</time>
      </trkpt>
      <trkpt lat="45.28998" lon="6.66262">
        <ele>2416.4</ele>
        <time>2018-07-01T08:29:48Z</time>
      </trkpt>
      <trkpt lat="45.28995" lon="6.6626">
        <ele>2417</ele>
        <time>2018-07-01T08:30:17Z</time>
      </trkpt>
      <trkpt lat="45.28992" lon="6.66258">
        <ele>2417.4</ele>
        <time>2018-07-01T08:30:20Z</time>
      </trkpt>
      <trkpt lat="45.28989" lon="6.66256">
        <ele>2417.9</ele>
        <time>2018-07-01T08:30:23Z</time>
      </trkpt>
      <trkpt lat="45.28985" lon="6.66254">
        <ele>2418.5</ele>
        <time>2018-07-01T08:30:26Z</time>
      </trkpt>
      <trkpt lat="45.28982" lon="6.66252">
        <ele>2419</ele>
        <time>2018-07-01T08:30:29Z</time>
      </trkpt>
      <trkpt lat="45.2898" lon="6.66249">
        <ele>2419.5</ele>
        <time>2018-07-01T08:30:32Z</time>
      </trkpt>
      <trkpt lat="45.28977" lon="6.66247">
        <ele>2420.1</ele>
        <time>2018-07-01T08:30:35Z</time>
      </trkpt>
      <trkpt lat="45.28974" lon="6.66246">
        <ele>2420.6</ele>
        <time>2018-07-01T08:30:38Z</time>
      </trkpt>
      <trkpt lat="45.28971" lon="6.66245">
        <ele>2421</ele>
        <time>2018-07-01T08:30:41Z</time>
      </trkpt>
      <trkpt lat="45.28968" lon="6.66245">
        <ele>2421.3</ele>
        <time>2018-07-01T08:30:44Z</time>
      </trkpt>
      <trkpt lat="45.28965" lon="6.66243">
        <ele>2421.6</ele>
        <time>2018-07-01T08:30:47Z</time>
      </trkpt>
      <trkpt lat="45.28963" lon="6.6624">
        <ele>2422</ele>
        <time>2018-07-01T08:30:50Z</time>
      </trkpt>
      <trkpt lat="45.2896" lon="6.66239">
        <ele>2422.4</ele>
        <time>2018-07-01T08:30:53Z</time>
      </trkpt>
      <trkpt lat="45.28957" lon="6.66238">
        <ele>2422.8</ele>
        <time>2018-07-01T08:30:56Z</time>
      </trkpt>
      <trkpt lat="45.28954" lon="6.66237">
        <ele>2423.3</ele>
        <time>2018-07-01T08:30:59Z</time>
      </trkpt>
      <trkpt lat="45.28951" lon="6.66236">
        <ele>2423.8</ele>
        <time>2018-07-01T08:31:02Z</time>
      </trkpt>
      <trkpt lat="45.28948" lon="6.66234">
        <ele>2424.3</ele>
        <time>2018-07-01T08:31:05Z</time>
      </trkpt>
      <trkpt lat="45.28945" lon="6.66232">
        <ele>2424.9</ele>
        <time>2018-07-01T08:31:08Z</time>
      </trkpt>
      <trkpt lat="45.28942" lon="6.66231">
        <ele>2425.4</ele>
        <time>2018-07-01T08:31:11Z</time>
      </trkpt>
      <trkpt lat="45.28939" lon="6.6623">
        <ele>2425.9</ele>
        <time>2018-07-01T08:31:14Z</time>
      </trkpt>
      <trkpt lat="45.28936" lon="6.66229">
        <ele>2426.2</ele>
        <time>2018-07-01T08:31:17Z</time>
      </trkpt>
      <trkpt lat="45.28932" lon="6.66229">
        <ele>2426.5</ele>
        <time>2018-07-01T08:31:20Z</time>
      </trkpt>
      <trkpt lat="45.28929" lon="6.66229">
        <ele>2426.9</ele>
        <time>2018-07-01T08:31:23Z</time>
      </trkpt>
      <trkpt lat="45.28926" lon="6.6623">
        <ele>2427.5</ele>
        <time>2018-07-01T08:31:26Z</time>
      </trkpt>
      <trkpt lat="45.28923" lon="6.66232">
        <ele>2428.3</ele>
        <time>2018-07-01T08:31:29Z</time>
      </trkpt>
      <trkpt lat="45.28919" lon="6.66232">
        <ele>2428.8</ele>
        <time>2018-07-01T08:31:32Z</time>
      </trkpt>
      <trkpt lat="45.28916" lon="6.66232">
        <ele>2429.3</ele>
        <time>2018-07-01T08:31:35Z</time>
      </trkpt>
      <trkpt lat="45.28913" lon="6.66231">
        <ele>2429.8</ele>
        <time>2018-07-01T08:31:38Z</time>
      </trkpt>
      <trkpt lat="45.2891" lon="6.6623">
        <ele>2430.3</ele>
        <time>2018-07-01T08:31:41Z</time>
      </trkpt>
      <trkpt lat="45.28907" lon="6.66229">
        <ele>2430.9</ele>
        <time>2018-07-01T08:31:44Z</time>
      </trkpt>
      <trkpt lat="45.28904" lon="6.66229">
        <ele>2431.5</ele>
        <time>2018-07-01T08:31:47Z</time>
      </trkpt>
      <trkpt lat="45.28901" lon="6.66228">
        <ele>2432.1</ele>
        <time>2018-07-01T08:31:50Z</time>
      </trkpt>
      <trkpt lat="45.28898" lon="6.66228">
        <ele>2432.5</ele>
        <time>2018-07-01T08:31:53Z</time>
      </trkpt>
      <trkpt lat="45.28894" lon="6.66227">
        <ele>2433.1</ele>
        <time>2018-07-01T08:31:56Z</time>
      </trkpt>
      <trkpt lat="45.28891" lon="6.66226">
        <ele>2433.7</ele>
        <time>2018-07-01T08:31:59Z</time>
      </trkpt>
      <trkpt lat="45.28887" lon="6.66225">
        <ele>2434.3</ele>
        <time>2018-07-01T08:32:02Z</time>
      </trkpt>
      <trkpt lat="45.28884" lon="6.66224">
        <ele>2435</ele>
        <time>2018-07-01T08:32:05Z</time>
      </trkpt>
      <trkpt lat="45.28881" lon="6.66222">
        <ele>2435.6</ele>
        <time>2018-07-01T08:32:08Z</time>
      </trkpt>
      <trkpt lat="45.28879" lon="6.66219">
        <ele>2436.1</ele>
        <time>2018-07-01T08:32:12Z</time>
      </trkpt>
      <trkpt lat="45.28876" lon="6.66217">
        <ele>2436.7</ele>
        <time>2018-07-01T08:32:15Z</time>
      </trkpt>
      <trkpt lat="45.28874" lon="6.66214">
        <ele>2437.4</ele>
        <time>2018-07-01T08:32:18Z</time>
      </trkpt>
      <trkpt lat="45.28872" lon="6.6621">
        <ele>2438</ele>
        <time>2018-07-01T08:32:22Z</time>
      </trkpt>
      <trkpt lat="45.2887" lon="6.66206">
        <ele>2438.3</ele>
        <time>2018-07-01T08:32:26Z</time>
      </trkpt>
      <trkpt lat="45.28869" lon="6.66202">
        <ele>2438.1</ele>
        <time>2018-07-01T08:32:30Z</time>
      </trkpt>
      <trkpt lat="45.28869" lon="6.66197">
        <ele>2438</ele>
        <time>2018-07-01T08:32:34Z</time>
      </trkpt>
      <trkpt lat="45.28869" lon="6.66193">
        <ele>2438.1</ele>
        <time>2018-07-01T08:32:37Z</time>
      </trkpt>
      <trkpt lat="45.2887" lon="6.66189">
        <ele>2438.2</ele>
        <time>2018-07-01T08:32:40Z</time>
      </trkpt>
      <trkpt lat="45.28871" lon="6.66185">
        <ele>2438.1</ele>
        <time>2018-07-01T08:32:43Z</time>
      </trkpt>
      <trkpt lat="45.28871" lon="6.6618">
        <ele>2438.1</ele>
        <time>2018-07-01T08:32:46Z</time>
      </trkpt>
      <trkpt lat="45.28872" lon="6.66176">
        <ele>2438</ele>
        <time>2018-07-01T08:32:49Z</time>
      </trkpt>
      <trkpt lat="45.28872" lon="6.66171">
        <ele>2438.1</ele>
        <time>2018-07-01T08:32:52Z</time>
      </trkpt>
      <trkpt lat="45.28872" lon="6.66166">
        <ele>2438.2</ele>
        <time>2018-07-01T08:32:55Z</time>
      </trkpt>
      <trkpt lat="45.28872" lon="6.6616">
        <ele>2438.9</ele>
        <time>2018-07-01T08:32:58Z</time>
      </trkpt>
      <trkpt lat="45.28872" lon="6.66155">
        <ele>2439.6</ele>
        <time>2018-07-01T08:33:01Z</time>
      </trkpt>
      <trkpt lat="45.28871" lon="6.66151">
        <ele>2440.3</ele>
        <time>2018-07-01T08:33:04Z</time>
      </trkpt>
      <trkpt lat="45.2887" lon="6.66146">
        <ele>2440.9</ele>
        <time>2018-07-01T08:33:07Z</time>
      </trkpt>
      <trkpt lat="45.28868" lon="6.66143">
        <ele>2441.4</ele>
        <time>2018-07-01T08:33:10Z</time>
      </trkpt>
      <trkpt lat="45.28867" lon="6.66139">
        <ele>2442</ele>
        <time>2018-07-01T08:33:13Z</time>
      </trkpt>
      <trkpt lat="45.28866" lon="6.66135">
        <ele>2442.7</ele>
        <time>2018-07-01T08:33:17Z</time>
      </trkpt>
      <trkpt lat="45.28865" lon="6.66131">
        <ele>2443.5</ele>
        <time>2018-07-01T08:33:21Z</time>
      </trkpt>
      <trkpt lat="45.28864" lon="6.66126">
        <ele>2444.3</ele>
        <time>2018-07-01T08:33:26Z</time>
      </trkpt>
      <trkpt lat="45.28863" lon="6.66123">
        <ele>2445.1</ele>
        <time>2018-07-01T08:33:30Z</time>
      </trkpt>
      <trkpt lat="45.28863" lon="6.66119">
        <ele>2446.1</ele>
        <time>2018-07-01T08:33:34Z</time>
      </trkpt>
      <trkpt lat="45.28862" lon="6.66114">
        <ele>2447.3</ele>
        <time>2018-07-01T08:33:38Z</time>
      </trkpt>
      <trkpt lat="45.28861" lon="6.66111">
        <ele>2448.3</ele>
        <time>2018-07-01T08:33:42Z</time>
      </trkpt>
      <trkpt lat="45.2886" lon="6.66107">
        <ele>2449</ele>
        <time>2018-07-01T08:33:46Z</time>
      </trkpt>
      <trkpt lat="45.2886" lon="6.66102">
        <ele>2449.6</ele>
        <time>2018-07-01T08:33:49Z</time>
      </trkpt>
      <trkpt lat="45.2886" lon="6.66098">
        <ele>2450.3</ele>
        <time>2018-07-01T08:33:52Z</time>
      </trkpt>
      <trkpt lat="45.28861" lon="6.66094">
        <ele>2451</ele>
        <time>2018-07-01T08:33:55Z</time>
      </trkpt>
      <trkpt lat="45.28861" lon="6.66089">
        <ele>2451.4</ele>
        <time>2018-07-01T08:33:58Z</time>
      </trkpt>
      <trkpt lat="45.28863" lon="6.66085">
        <ele>2451.9</ele>
        <time>2018-07-01T08:34:01Z</time>
      </trkpt>
      <trkpt lat="45.28864" lon="6.66081">
        <ele>2452.9</ele>
        <time>2018-07-01T08:34:05Z</time>
      </trkpt>
      <trkpt lat="45.28865" lon="6.66077">
        <ele>2453.8</ele>
        <time>2018-07-01T08:34:09Z</time>
      </trkpt>
      <trkpt lat="45.28865" lon="6.66072">
        <ele>2455.3</ele>
        <time>2018-07-01T08:34:13Z</time>
      </trkpt>
      <trkpt lat="45.28866" lon="6.66068">
        <ele>2456.7</ele>
        <time>2018-07-01T08:34:17Z</time>
      </trkpt>
      <trkpt lat="45.28868" lon="6.66064">
        <ele>2457.3</ele>
        <time>2018-07-01T08:34:21Z</time>
      </trkpt>
      <trkpt lat="45.28871" lon="6.66062">
        <ele>2457.4</ele>
        <time>2018-07-01T08:34:24Z</time>
      </trkpt>
      <trkpt lat="45.28874" lon="6.6606">
        <ele>2457.5</ele>
        <time>2018-07-01T08:34:27Z</time>
      </trkpt>
      <trkpt lat="45.28877" lon="6.66058">
        <ele>2458.1</ele>
        <time>2018-07-01T08:34:31Z</time>
      </trkpt>
      <trkpt lat="45.28879" lon="6.66055">
        <ele>2458.7</ele>
        <time>2018-07-01T08:34:35Z</time>
      </trkpt>
      <trkpt lat="45.28882" lon="6.66051">
        <ele>2459.2</ele>
        <time>2018-07-01T08:34:39Z</time>
      </trkpt>
      <trkpt lat="45.28884" lon="6.66049">
        <ele>2459.6</ele>
        <time>2018-07-01T08:34:42Z</time>
      </trkpt>
      <trkpt lat="45.28886" lon="6.66047">
        <ele>2460</ele>
        <time>2018-07-01T08:34:45Z</time>
      </trkpt>
      <trkpt lat="45.28889" lon="6.66044">
        <ele>2461</ele>
        <time>2018-07-01T08:34:49Z</time>
      </trkpt>
      <trkpt lat="45.28891" lon="6.66042">
        <ele>2462</ele>
        <time>2018-07-01T08:34:52Z</time>
      </trkpt>
      <trkpt lat="45.28893" lon="6.66038">
        <ele>2462.7</ele>
        <time>2018-07-01T08:34:56Z</time>
      </trkpt>
      <trkpt lat="45.28894" lon="6.66034">
        <ele>2463.2</ele>
        <time>2018-07-01T08:35:00Z</time>
      </trkpt>
      <trkpt lat="45.28897" lon="6.66031">
        <ele>2464.1</ele>
        <time>2018-07-01T08:35:04Z</time>
      </trkpt>
      <trkpt lat="45.28899" lon="6.66029">
        <ele>2464.1</ele>
        <time>2018-07-01T08:35:07Z</time>
      </trkpt>
      <trkpt lat="45.28902" lon="6.66027">
        <ele>2464.3</ele>
        <time>2018-07-01T08:35:10Z</time>
      </trkpt>
      <trkpt lat="45.28904" lon="6.66025">
        <ele>2465.5</ele>
        <time>2018-07-01T08:35:13Z</time>
      </trkpt>
      <trkpt lat="45.28906" lon="6.66022">
        <ele>2466.5</ele>
        <time>2018-07-01T08:35:16Z</time>
      </trkpt>
      <trkpt lat="45.28908" lon="6.66018">
        <ele>2467.1</ele>
        <time>2018-07-01T08:35:20Z</time>
      </trkpt>
      <trkpt lat="45.2891" lon="6.66015">
        <ele>2467.8</ele>
        <time>2018-07-01T08:35:23Z</time>
      </trkpt>
      <trkpt lat="45.28914" lon="6.66016">
        <ele>2468.7</ele>
        <time>2018-07-01T08:35:54Z</time>
      </trkpt>
      <trkpt lat="45.28916" lon="6.66012">
        <ele>2469.8</ele>
        <time>2018-07-01T08:36:01Z</time>
      </trkpt>
      <trkpt lat="45.28918" lon="6.66008">
        <ele>2471.4</ele>
        <time>2018-07-01T08:36:04Z</time>
      </trkpt>
      <trkpt lat="45.28919" lon="6.66003">
        <ele>2472.3</ele>
        <time>2018-07-01T08:36:07Z</time>
      </trkpt>
      <trkpt lat="45.2892" lon="6.65999">
        <ele>2473.5</ele>
        <time>2018-07-01T08:36:10Z</time>
      </trkpt>
      <trkpt lat="45.2892" lon="6.65995">
        <ele>2474.7</ele>
        <time>2018-07-01T08:36:13Z</time>
      </trkpt>
      <trkpt lat="45.28921" lon="6.65991">
        <ele>2474.2</ele>
        <time>2018-07-01T08:36:16Z</time>
      </trkpt>
      <trkpt lat="45.28924" lon="6.65988">
        <ele>2473.7</ele>
        <time>2018-07-01T08:36:20Z</time>
      </trkpt>
      <trkpt lat="45.28926" lon="6.65985">
        <ele>2474.5</ele>
        <time>2018-07-01T08:36:23Z</time>
      </trkpt>
      <trkpt lat="45.28925" lon="6.6598">
        <ele>2475.6</ele>
        <time>2018-07-01T08:36:27Z</time>
      </trkpt>
      <trkpt lat="45.28924" lon="6.65978">
        <ele>2476.7</ele>
        <time>2018-07-01T08:36:30Z</time>
      </trkpt>
      <trkpt lat="45.28922" lon="6.65974">
        <ele>2477.5</ele>
        <time>2018-07-01T08:36:33Z</time>
      </trkpt>
      <trkpt lat="45.2892" lon="6.65971">
        <ele>2478.2</ele>
        <time>2018-07-01T08:36:36Z</time>
      </trkpt>
      <trkpt lat="45.28919" lon="6.65968">
        <ele>2478.9</ele>
        <time>2018-07-01T08:36:39Z</time>
      </trkpt>
      <trkpt lat="45.28917" lon="6.65963">
        <ele>2479.7</ele>
        <time>2018-07-01T08:36:43Z</time>
      </trkpt>
      <trkpt lat="45.28915" lon="6.65959">
        <ele>2480.5</ele>
        <time>2018-07-01T08:36:47Z</time>
      </trkpt>
      <trkpt lat="45.28914" lon="6.65956">
        <ele>2481</ele>
        <time>2018-07-01T08:36:50Z</time>
      </trkpt>
      <trkpt lat="45.28913" lon="6.65951">
        <ele>2481.8</ele>
        <time>2018-07-01T08:36:54Z</time>
      </trkpt>
      <trkpt lat="45.28913" lon="6.65946">
        <ele>2482</ele>
        <time>2018-07-01T08:36:58Z</time>
      </trkpt>
      <trkpt lat="45.28913" lon="6.65942">
        <ele>2482</ele>
        <time>2018-07-01T08:37:02Z</time>
      </trkpt>
      <trkpt lat="45.28915" lon="6.65938">
        <ele>2480.8</ele>
        <time>2018-07-01T08:37:05Z</time>
      </trkpt>
      <trkpt lat="45.28918" lon="6.65936">
        <ele>2479.7</ele>
        <time>2018-07-01T08:37:08Z</time>
      </trkpt>
      <trkpt lat="45.28922" lon="6.65935">
        <ele>2478.5</ele>
        <time>2018-07-01T08:37:11Z</time>
      </trkpt>
      <trkpt lat="45.28924" lon="6.65937">
        <ele>2477.6</ele>
        <time>2018-07-01T08:37:14Z</time>
      </trkpt>
      <trkpt lat="45.28928" lon="6.65938">
        <ele>2476.5</ele>
        <time>2018-07-01T08:37:18Z</time>
      </trkpt>
      <trkpt lat="45.28931" lon="6.65938">
        <ele>2475.5</ele>
        <time>2018-07-01T08:37:23Z</time>
      </trkpt>
      <trkpt lat="45.28934" lon="6.65938">
        <ele>2474.6</ele>
        <time>2018-07-01T08:37:26Z</time>
      </trkpt>
      <trkpt lat="45.28937" lon="6.65939">
        <ele>2473.6</ele>
        <time>2018-07-01T08:37:30Z</time>
      </trkpt>
      <trkpt lat="45.28939" lon="6.65939">
        <ele>2472.8</ele>
        <time>2018-07-01T08:37:34Z</time>
      </trkpt>
      <trkpt lat="45.28941" lon="6.65937">
        <ele>2471.9</ele>
        <time>2018-07-01T08:37:37Z</time>
      </trkpt>
      <trkpt lat="45.28945" lon="6.65937">
        <ele>2471.2</ele>
        <time>2018-07-01T08:37:41Z</time>
      </trkpt>
      <trkpt lat="45.28948" lon="6.65936">
        <ele>2471.5</ele>
        <time>2018-07-01T08:37:44Z</time>
      </trkpt>
      <trkpt lat="45.28951" lon="6.65936">
        <ele>2471.8</ele>
        <time>2018-07-01T08:37:47Z</time>
      </trkpt>
      <trkpt lat="45.28954" lon="6.65937">
        <ele>2472.2</ele>
        <time>2018-07-01T08:37:50Z</time>
      </trkpt>
      <trkpt lat="45.28957" lon="6.65939">
        <ele>2472.5</ele>
        <time>2018-07-01T08:37:53Z</time>
      </trkpt>
      <trkpt lat="45.2896" lon="6.65941">
        <ele>2472.9</ele>
        <time>2018-07-01T08:37:56Z</time>
      </trkpt>
      <trkpt lat="45.28963" lon="6.65942">
        <ele>2473.2</ele>
        <time>2018-07-01T08:37:59Z</time>
      </trkpt>
      <trkpt lat="45.28967" lon="6.65943">
        <ele>2473.6</ele>
        <time>2018-07-01T08:38:02Z</time>
      </trkpt>
      <trkpt lat="45.28969" lon="6.65945">
        <ele>2473.9</ele>
        <time>2018-07-01T08:38:05Z</time>
      </trkpt>
      <trkpt lat="45.28972" lon="6.65947">
        <ele>2474.1</ele>
        <time>2018-07-01T08:38:08Z</time>
      </trkpt>
      <trkpt lat="45.28975" lon="6.65948">
        <ele>2474.3</ele>
        <time>2018-07-01T08:38:11Z</time>
      </trkpt>
      <trkpt lat="45.28978" lon="6.65949">
        <ele>2474.6</ele>
        <time>2018-07-01T08:38:14Z</time>
      </trkpt>
      <trkpt lat="45.28982" lon="6.65949">
        <ele>2474.6</ele>
        <time>2018-07-01T08:38:18Z</time>
      </trkpt>
      <trkpt lat="45.28984" lon="6.65949">
        <ele>2474.5</ele>
        <time>2018-07-01T08:38:21Z</time>
      </trkpt>
      <trkpt lat="45.28987" lon="6.65948">
        <ele>2474.5</ele>
        <time>2018-07-01T08:38:24Z</time>
      </trkpt>
      <trkpt lat="45.2899" lon="6.6595">
        <ele>2474.6</ele>
        <time>2018-07-01T08:38:28Z</time>
      </trkpt>
      <trkpt lat="45.28993" lon="6.65951">
        <ele>2474.9</ele>
        <time>2018-07-01T08:38:32Z</time>
      </trkpt>
      <trkpt lat="45.28996" lon="6.65951">
        <ele>2475.2</ele>
        <time>2018-07-01T08:38:35Z</time>
      </trkpt>
      <trkpt lat="45.28999" lon="6.65952">
        <ele>2475.7</ele>
        <time>2018-07-01T08:38:38Z</time>
      </trkpt>
      <trkpt lat="45.29002" lon="6.65953">
        <ele>2476.4</ele>
        <time>2018-07-01T08:38:41Z</time>
      </trkpt>
      <trkpt lat="45.29005" lon="6.65953">
        <ele>2477.1</ele>
        <time>2018-07-01T08:38:44Z</time>
      </trkpt>
      <trkpt lat="45.29009" lon="6.65953">
        <ele>2477.8</ele>
        <time>2018-07-01T08:38:48Z</time>
      </trkpt>
      <trkpt lat="45.29012" lon="6.65951">
        <ele>2478.5</ele>
        <time>2018-07-01T08:38:52Z</time>
      </trkpt>
      <trkpt lat="45.29015" lon="6.65949">
        <ele>2479.1</ele>
        <time>2018-07-01T08:38:56Z</time>
      </trkpt>
      <trkpt lat="45.29018" lon="6.65947">
        <ele>2479.6</ele>
        <time>2018-07-01T08:38:59Z</time>
      </trkpt>
      <trkpt lat="45.29021" lon="6.65944">
        <ele>2480.4</ele>
        <time>2018-07-01T08:39:03Z</time>
      </trkpt>
      <trkpt lat="45.29023" lon="6.65942">
        <ele>2481.1</ele>
        <time>2018-07-01T08:39:06Z</time>
      </trkpt>
      <trkpt lat="45.29025" lon="6.65939">
        <ele>2481.9</ele>
        <time>2018-07-01T08:39:09Z</time>
      </trkpt>
      <trkpt lat="45.29028" lon="6.65938">
        <ele>2482.6</ele>
        <time>2018-07-01T08:39:12Z</time>
      </trkpt>
      <trkpt lat="45.2903" lon="6.65934">
        <ele>2483.4</ele>
        <time>2018-07-01T08:39:15Z</time>
      </trkpt>
      <trkpt lat="45.29032" lon="6.6593">
        <ele>2484</ele>
        <time>2018-07-01T08:39:19Z</time>
      </trkpt>
      <trkpt lat="45.29033" lon="6.65926">
        <ele>2484.5</ele>
        <time>2018-07-01T08:39:22Z</time>
      </trkpt>
      <trkpt lat="45.29035" lon="6.65923">
        <ele>2485</ele>
        <time>2018-07-01T08:39:25Z</time>
      </trkpt>
      <trkpt lat="45.29037" lon="6.6592">
        <ele>2485.7</ele>
        <time>2018-07-01T08:39:28Z</time>
      </trkpt>
      <trkpt lat="45.29039" lon="6.65917">
        <ele>2486.4</ele>
        <time>2018-07-01T08:39:31Z</time>
      </trkpt>
      <trkpt lat="45.2904" lon="6.65913">
        <ele>2487.2</ele>
        <time>2018-07-01T08:39:35Z</time>
      </trkpt>
      <trkpt lat="45.29042" lon="6.6591">
        <ele>2487.7</ele>
        <time>2018-07-01T08:39:38Z</time>
      </trkpt>
      <trkpt lat="45.29044" lon="6.65907">
        <ele>2488.1</ele>
        <time>2018-07-01T08:39:42Z</time>
      </trkpt>
      <trkpt lat="45.29047" lon="6.65905">
        <ele>2488.5</ele>
        <time>2018-07-01T08:40:40Z</time>
      </trkpt>
      <trkpt lat="45.29049" lon="6.65901">
        <ele>2488.9</ele>
        <time>2018-07-01T08:40:43Z</time>
      </trkpt>
      <trkpt lat="45.29051" lon="6.65897">
        <ele>2489.3</ele>
        <time>2018-07-01T08:40:46Z</time>
      </trkpt>
      <trkpt lat="45.29052" lon="6.65892">
        <ele>2489.6</ele>
        <time>2018-07-01T08:40:49Z</time>
      </trkpt>
      <trkpt lat="45.29054" lon="6.65888">
        <ele>2489.9</ele>
        <time>2018-07-01T08:40:52Z</time>
      </trkpt>
      <trkpt lat="45.29055" lon="6.65884">
        <ele>2490.3</ele>
        <time>2018-07-01T08:40:55Z</time>
      </trkpt>
      <trkpt lat="45.29059" lon="6.65882">
        <ele>2490.6</ele>
        <time>2018-07-01T08:40:59Z</time>
      </trkpt>
      <trkpt lat="45.29062" lon="6.65884">
        <ele>2490.1</ele>
        <time>2018-07-01T08:41:02Z</time>
      </trkpt>
      <trkpt lat="45.29066" lon="6.65885">
        <ele>2490.1</ele>
        <time>2018-07-01T08:41:05Z</time>
      </trkpt>
      <trkpt lat="45.29068" lon="6.65882">
        <ele>2490.5</ele>
        <time>2018-07-01T08:41:08Z</time>
      </trkpt>
      <trkpt lat="45.29071" lon="6.65878">
        <ele>2490.8</ele>
        <time>2018-07-01T08:41:11Z</time>
      </trkpt>
      <trkpt lat="45.29073" lon="6.65876">
        <ele>2490.8</ele>
        <time>2018-07-01T08:41:13Z</time>
      </trkpt>
      <trkpt lat="45.29075" lon="6.65872">
        <ele>2491.1</ele>
        <time>2018-07-01T08:41:16Z</time>
      </trkpt>
      <trkpt lat="45.29077" lon="6.65868">
        <ele>2491.4</ele>
        <time>2018-07-01T08:41:19Z</time>
      </trkpt>
      <trkpt lat="45.29079" lon="6.65865">
        <ele>2491.6</ele>
        <time>2018-07-01T08:41:22Z</time>
      </trkpt>
      <trkpt lat="45.29081" lon="6.65861">
        <ele>2491.8</ele>
        <time>2018-07-01T08:41:25Z</time>
      </trkpt>
      <trkpt lat="45.29082" lon="6.65856">
        <ele>2492</ele>
        <time>2018-07-01T08:41:28Z</time>
      </trkpt>
      <trkpt lat="45.29084" lon="6.65851">
        <ele>2492.3</ele>
        <time>2018-07-01T08:41:31Z</time>
      </trkpt>
      <trkpt lat="45.29085" lon="6.65846">
        <ele>2492.5</ele>
        <time>2018-07-01T08:41:34Z</time>
      </trkpt>
      <trkpt lat="45.29086" lon="6.65842">
        <ele>2492.7</ele>
        <time>2018-07-01T08:41:37Z</time>
      </trkpt>
      <trkpt lat="45.29087" lon="6.65836">
        <ele>2492.9</ele>
        <time>2018-07-01T08:41:40Z</time>
      </trkpt>
      <trkpt lat="45.29088" lon="6.65831">
        <ele>2493.3</ele>
        <time>2018-07-01T08:41:43Z</time>
      </trkpt>
      <trkpt lat="45.29089" lon="6.65827">
        <ele>2493.5</ele>
        <time>2018-07-01T08:41:46Z</time>
      </trkpt>
      <trkpt lat="45.2909" lon="6.65822">
        <ele>2493.7</ele>
        <time>2018-07-01T08:41:49Z</time>
      </trkpt>
      <trkpt lat="45.2909" lon="6.65817">
        <ele>2493.8</ele>
        <time>2018-07-01T08:41:52Z</time>
      </trkpt>
      <trkpt lat="45.29091" lon="6.65813">
        <ele>2494</ele>
        <time>2018-07-01T08:41:54Z</time>
      </trkpt>
      <trkpt lat="45.29092" lon="6.65808">
        <ele>2494.1</ele>
        <time>2018-07-01T08:41:57Z</time>
      </trkpt>
      <trkpt lat="45.29091" lon="6.65803">
        <ele>2494.3</ele>
        <time>2018-07-01T08:42:00Z</time>
      </trkpt>
      <trkpt lat="45.29092" lon="6.65798">
        <ele>2494.5</ele>
        <time>2018-07-01T08:42:03Z</time>
      </trkpt>
      <trkpt lat="45.29093" lon="6.65794">
        <ele>2494.6</ele>
        <time>2018-07-01T08:42:06Z</time>
      </trkpt>
      <trkpt lat="45.29095" lon="6.65791">
        <ele>2494.7</ele>
        <time>2018-07-01T08:42:09Z</time>
      </trkpt>
      <trkpt lat="45.29096" lon="6.65787">
        <ele>2494.8</ele>
        <time>2018-07-01T08:42:12Z</time>
      </trkpt>
      <trkpt lat="45.29097" lon="6.65783">
        <ele>2494.9</ele>
        <time>2018-07-01T08:42:15Z</time>
      </trkpt>
      <trkpt lat="45.29099" lon="6.65779">
        <ele>2495</ele>
        <time>2018-07-01T08:42:18Z</time>
      </trkpt>
      <trkpt lat="45.291" lon="6.65775">
        <ele>2495.1</ele>
        <time>2018-07-01T08:42:21Z</time>
      </trkpt>
      <trkpt lat="45.29102" lon="6.65772">
        <ele>2495.3</ele>
        <time>2018-07-01T08:42:24Z</time>
      </trkpt>
      <trkpt lat="45.29105" lon="6.65769">
        <ele>2495.5</ele>
        <time>2018-07-01T08:42:27Z</time>
      </trkpt>
      <trkpt lat="45.29107" lon="6.65767">
        <ele>2495.7</ele>
        <time>2018-07-01T08:42:30Z</time>
      </trkpt>
      <trkpt lat="45.2911" lon="6.65765">
        <ele>2495.8</ele>
        <time>2018-07-01T08:42:33Z</time>
      </trkpt>
      <trkpt lat="45.29112" lon="6.65761">
        <ele>2496</ele>
        <time>2018-07-01T08:42:36Z</time>
      </trkpt>
      <trkpt lat="45.29114" lon="6.65758">
        <ele>2496.2</ele>
        <time>2018-07-01T08:42:39Z</time>
      </trkpt>
      <trkpt lat="45.29117" lon="6.65755">
        <ele>2496.4</ele>
        <time>2018-07-01T08:42:42Z</time>
      </trkpt>
      <trkpt lat="45.29119" lon="6.65751">
        <ele>2496.7</ele>
        <time>2018-07-01T08:42:45Z</time>
      </trkpt>
      <trkpt lat="45.29123" lon="6.65748">
        <ele>2496.9</ele>
        <time>2018-07-01T08:42:48Z</time>
      </trkpt>
      <trkpt lat="45.29126" lon="6.65745">
        <ele>2497.1</ele>
        <time>2018-07-01T08:42:51Z</time>
      </trkpt>
      <trkpt lat="45.29128" lon="6.65743">
        <ele>2497.2</ele>
        <time>2018-07-01T08:42:54Z</time>
      </trkpt>
      <trkpt lat="45.2913" lon="6.65739">
        <ele>2497.3</ele>
        <time>2018-07-01T08:42:57Z</time>
      </trkpt>
      <trkpt lat="45.29131" lon="6.65734">
        <ele>2497.4</ele>
        <time>2018-07-01T08:43:00Z</time>
      </trkpt>
      <trkpt lat="45.29134" lon="6.6573">
        <ele>2497.5</ele>
        <time>2018-07-01T08:43:03Z</time>
      </trkpt>
      <trkpt lat="45.29137" lon="6.65728">
        <ele>2497.6</ele>
        <time>2018-07-01T08:43:06Z</time>
      </trkpt>
      <trkpt lat="45.2914" lon="6.65726">
        <ele>2497.7</ele>
        <time>2018-07-01T08:43:09Z</time>
      </trkpt>
      <trkpt lat="45.29144" lon="6.65725">
        <ele>2497.7</ele>
        <time>2018-07-01T08:43:12Z</time>
      </trkpt>
      <trkpt lat="45.29147" lon="6.65723">
        <ele>2497.7</ele>
        <time>2018-07-01T08:43:15Z</time>
      </trkpt>
      <trkpt lat="45.2915" lon="6.65721">
        <ele>2497.7</ele>
        <time>2018-07-01T08:43:18Z</time>
      </trkpt>
      <trkpt lat="45.29154" lon="6.6572">
        <ele>2497.6</ele>
        <time>2018-07-01T08:43:21Z</time>
      </trkpt>
      <trkpt lat="45.29157" lon="6.65718">
        <ele>2497.6</ele>
        <time>2018-07-01T08:43:24Z</time>
      </trkpt>
      <trkpt lat="45.29159" lon="6.65715">
        <ele>2497.5</ele>
        <time>2018-07-01T08:43:27Z</time>
      </trkpt>
      <trkpt lat="45.29162" lon="6.65712">
        <ele>2497.5</ele>
        <time>2018-07-01T08:43:30Z</time>
      </trkpt>
      <trkpt lat="45.29165" lon="6.65709">
        <ele>2497.4</ele>
        <time>2018-07-01T08:43:33Z</time>
      </trkpt>
      <trkpt lat="45.29168" lon="6.65705">
        <ele>2497.3</ele>
        <time>2018-07-01T08:43:36Z</time>
      </trkpt>
      <trkpt lat="45.2917" lon="6.65701">
        <ele>2497.5</ele>
        <time>2018-07-01T08:43:39Z</time>
      </trkpt>
      <trkpt lat="45.29172" lon="6.65698">
        <ele>2497.7</ele>
        <time>2018-07-01T08:43:42Z</time>
      </trkpt>
      <trkpt lat="45.29175" lon="6.65695">
        <ele>2497.8</ele>
        <time>2018-07-01T08:43:45Z</time>
      </trkpt>
      <trkpt lat="45.29177" lon="6.65691">
        <ele>2497.7</ele>
        <time>2018-07-01T08:44:01Z</time>
      </trkpt>
      <trkpt lat="45.29179" lon="6.65686">
        <ele>2497.6</ele>
        <time>2018-07-01T08:44:04Z</time>
      </trkpt>
      <trkpt lat="45.29182" lon="6.65683">
        <ele>2497.5</ele>
        <time>2018-07-01T08:44:07Z</time>
      </trkpt>
      <trkpt lat="45.29182" lon="6.65677">
        <ele>2497.4</ele>
        <time>2018-07-01T08:44:22Z</time>
      </trkpt>
      <trkpt lat="45.29183" lon="6.65674">
        <ele>2497.3</ele>
        <time>2018-07-01T08:44:24Z</time>
      </trkpt>
      <trkpt lat="45.29186" lon="6.65671">
        <ele>2497.2</ele>
        <time>2018-07-01T08:44:26Z</time>
      </trkpt>
      <trkpt lat="45.2919" lon="6.65669">
        <ele>2497</ele>
        <time>2018-07-01T08:44:29Z</time>
      </trkpt>
      <trkpt lat="45.29192" lon="6.65667">
        <ele>2496.9</ele>
        <time>2018-07-01T08:44:31Z</time>
      </trkpt>
      <trkpt lat="45.29196" lon="6.65664">
        <ele>2496.8</ele>
        <time>2018-07-01T08:44:34Z</time>
      </trkpt>
      <trkpt lat="45.292" lon="6.65662">
        <ele>2496.6</ele>
        <time>2018-07-01T08:44:38Z</time>
      </trkpt>
      <trkpt lat="45.29203" lon="6.65662">
        <ele>2496.5</ele>
        <time>2018-07-01T08:44:40Z</time>
      </trkpt>
      <trkpt lat="45.29206" lon="6.65661">
        <ele>2496.3</ele>
        <time>2018-07-01T08:44:43Z</time>
      </trkpt>
      <trkpt lat="45.29209" lon="6.65659">
        <ele>2496.2</ele>
        <time>2018-07-01T08:44:46Z</time>
      </trkpt>
      <trkpt lat="45.29212" lon="6.65657">
        <ele>2496.1</ele>
        <time>2018-07-01T08:44:50Z</time>
      </trkpt>
      <trkpt lat="45.29215" lon="6.65654">
        <ele>2495.9</ele>
        <time>2018-07-01T08:44:53Z</time>
      </trkpt>
      <trkpt lat="45.29218" lon="6.65651">
        <ele>2495.7</ele>
        <time>2018-07-01T08:44:56Z</time>
      </trkpt>
      <trkpt lat="45.2922" lon="6.65648">
        <ele>2495.5</ele>
        <time>2018-07-01T08:44:59Z</time>
      </trkpt>
      <trkpt lat="45.29222" lon="6.65644">
        <ele>2495.3</ele>
        <time>2018-07-01T08:45:04Z</time>
      </trkpt>
      <trkpt lat="45.29224" lon="6.6564">
        <ele>2495</ele>
        <time>2018-07-01T08:45:07Z</time>
      </trkpt>
      <trkpt lat="45.29227" lon="6.65638">
        <ele>2494.8</ele>
        <time>2018-07-01T08:45:10Z</time>
      </trkpt>
      <trkpt lat="45.29229" lon="6.65635">
        <ele>2494.5</ele>
        <time>2018-07-01T08:45:13Z</time>
      </trkpt>
      <trkpt lat="45.2923" lon="6.6563">
        <ele>2494.1</ele>
        <time>2018-07-01T08:45:16Z</time>
      </trkpt>
      <trkpt lat="45.29232" lon="6.65627">
        <ele>2493.8</ele>
        <time>2018-07-01T08:45:19Z</time>
      </trkpt>
      <trkpt lat="45.29235" lon="6.65623">
        <ele>2493.5</ele>
        <time>2018-07-01T08:45:23Z</time>
      </trkpt>
      <trkpt lat="45.29237" lon="6.65621">
        <ele>2493.2</ele>
        <time>2018-07-01T08:45:26Z</time>
      </trkpt>
      <trkpt lat="45.2924" lon="6.65618">
        <ele>2492.7</ele>
        <time>2018-07-01T08:45:29Z</time>
      </trkpt>
      <trkpt lat="45.29243" lon="6.65616">
        <ele>2492</ele>
        <time>2018-07-01T08:45:32Z</time>
      </trkpt>
      <trkpt lat="45.29246" lon="6.65613">
        <ele>2491.4</ele>
        <time>2018-07-01T08:45:35Z</time>
      </trkpt>
      <trkpt lat="45.29248" lon="6.65611">
        <ele>2490.9</ele>
        <time>2018-07-01T08:45:38Z</time>
      </trkpt>
      <trkpt lat="45.29251" lon="6.65608">
        <ele>2490.4</ele>
        <time>2018-07-01T08:45:41Z</time>
      </trkpt>
      <trkpt lat="45.29253" lon="6.65606">
        <ele>2489.9</ele>
        <time>2018-07-01T08:45:44Z</time>
      </trkpt>
      <trkpt lat="45.29256" lon="6.65602">
        <ele>2489.4</ele>
        <time>2018-07-01T08:45:48Z</time>
      </trkpt>
      <trkpt lat="45.29259" lon="6.656">
        <ele>2489</ele>
        <time>2018-07-01T08:45:51Z</time>
      </trkpt>
      <trkpt lat="45.29261" lon="6.65598">
        <ele>2488.6</ele>
        <time>2018-07-01T08:45:54Z</time>
      </trkpt>
      <trkpt lat="45.29265" lon="6.65597">
        <ele>2487.8</ele>
        <time>2018-07-01T08:45:57Z</time>
      </trkpt>
      <trkpt lat="45.29268" lon="6.65595">
        <ele>2487.1</ele>
        <time>2018-07-01T08:46:00Z</time>
      </trkpt>
      <trkpt lat="45.2927" lon="6.65593">
        <ele>2486.3</ele>
        <time>2018-07-01T08:46:04Z</time>
      </trkpt>
      <trkpt lat="45.29273" lon="6.65591">
        <ele>2485.7</ele>
        <time>2018-07-01T08:46:07Z</time>
      </trkpt>
      <trkpt lat="45.29275" lon="6.65586">
        <ele>2485.1</ele>
        <time>2018-07-01T08:46:11Z</time>
      </trkpt>
      <trkpt lat="45.29276" lon="6.65582">
        <ele>2484.5</ele>
        <time>2018-07-01T08:46:15Z</time>
      </trkpt>
      <trkpt lat="45.29279" lon="6.65578">
        <ele>2483.9</ele>
        <time>2018-07-01T08:46:19Z</time>
      </trkpt>
      <trkpt lat="45.29281" lon="6.65576">
        <ele>2483.4</ele>
        <time>2018-07-01T08:46:22Z</time>
      </trkpt>
      <trkpt lat="45.29282" lon="6.65573">
        <ele>2482.8</ele>
        <time>2018-07-01T08:46:26Z</time>
      </trkpt>
      <trkpt lat="45.29284" lon="6.65569">
        <ele>2482</ele>
        <time>2018-07-01T08:46:31Z</time>
      </trkpt>
      <trkpt lat="45.29285" lon="6.65565">
        <ele>2481.3</ele>
        <time>2018-07-01T08:46:57Z</time>
      </trkpt>
      <trkpt lat="45.29288" lon="6.65563">
        <ele>2480.7</ele>
        <time>2018-07-01T08:47:00Z</time>
      </trkpt>
      <trkpt lat="45.29286" lon="6.65565">
        <ele>2480.2</ele>
        <time>2018-07-01T08:48:34Z</time>
      </trkpt>
      <trkpt lat="45.29284" lon="6.65568">
        <ele>2479.7</ele>
        <time>2018-07-01T08:48:37Z</time>
      </trkpt>
      <trkpt lat="45.29282" lon="6.65572">
        <ele>2479</ele>
        <time>2018-07-01T08:48:41Z</time>
      </trkpt>
      <trkpt lat="45.29282" lon="6.65577">
        <ele>2478.3</ele>
        <time>2018-07-01T08:48:45Z</time>
      </trkpt>
      <trkpt lat="45.29284" lon="6.65581">
        <ele>2477.6</ele>
        <time>2018-07-01T08:48:48Z</time>
      </trkpt>
      <trkpt lat="45.29287" lon="6.6558">
        <ele>2477</ele>
        <time>2018-07-01T08:48:52Z</time>
      </trkpt>
      <trkpt lat="45.2929" lon="6.65578">
        <ele>2476.3</ele>
        <time>2018-07-01T08:48:57Z</time>
      </trkpt>
      <trkpt lat="45.29293" lon="6.65576">
        <ele>2475.6</ele>
        <time>2018-07-01T08:49:00Z</time>
      </trkpt>
      <trkpt lat="45.29296" lon="6.65573">
        <ele>2474.9</ele>
        <time>2018-07-01T08:49:04Z</time>
      </trkpt>
      <trkpt lat="45.29299" lon="6.65572">
        <ele>2474.3</ele>
        <time>2018-07-01T08:49:08Z</time>
      </trkpt>
      <trkpt lat="45.29301" lon="6.65571">
        <ele>2473.7</ele>
        <time>2018-07-01T08:49:12Z</time>
      </trkpt>
      <trkpt lat="45.29304" lon="6.65568">
        <ele>2473</ele>
        <time>2018-07-01T08:49:17Z</time>
      </trkpt>
      <trkpt lat="45.29307" lon="6.65566">
        <ele>2472.4</ele>
        <time>2018-07-01T08:49:22Z</time>
      </trkpt>
      <trkpt lat="45.29309" lon="6.65565">
        <ele>2471.8</ele>
        <time>2018-07-01T08:49:28Z</time>
      </trkpt>
      <trkpt lat="45.29311" lon="6.65568">
        <ele>2471.4</ele>
        <time>2018-07-01T08:50:00Z</time>
      </trkpt>
      <trkpt lat="45.29314" lon="6.65571">
        <ele>2471</ele>
        <time>2018-07-01T08:50:08Z</time>
      </trkpt>
      <trkpt lat="45.29316" lon="6.65575">
        <ele>2470.5</ele>
        <time>2018-07-01T08:50:19Z</time>
      </trkpt>
      <trkpt lat="45.29322" lon="6.65571">
        <ele>2469.5</ele>
        <time>2018-07-01T08:50:47Z</time>
      </trkpt>
      <trkpt lat="45.29326" lon="6.65575">
        <ele>2468.8</ele>
        <time>2018-07-01T08:51:51Z</time>
      </trkpt>
      <trkpt lat="45.29325" lon="6.6558">
        <ele>2469.3</ele>
        <time>2018-07-01T08:51:56Z</time>
      </trkpt>
      <trkpt lat="45.29323" lon="6.65584">
        <ele>2470.2</ele>
        <time>2018-07-01T08:52:00Z</time>
      </trkpt>
      <trkpt lat="45.29321" lon="6.65588">
        <ele>2471.1</ele>
        <time>2018-07-01T08:52:05Z</time>
      </trkpt>
      <trkpt lat="45.2932" lon="6.65592">
        <ele>2471.7</ele>
        <time>2018-07-01T08:52:10Z</time>
      </trkpt>
      <trkpt lat="45.29321" lon="6.65597">
        <ele>2472.2</ele>
        <time>2018-07-01T08:52:14Z</time>
      </trkpt>
      <trkpt lat="45.29322" lon="6.65601">
        <ele>2472.4</ele>
        <time>2018-07-01T08:52:22Z</time>
      </trkpt>
      <trkpt lat="45.29322" lon="6.65605">
        <ele>2472.9</ele>
        <time>2018-07-01T08:52:27Z</time>
      </trkpt>
      <trkpt lat="45.29324" lon="6.65609">
        <ele>2473.5</ele>
        <time>2018-07-01T08:52:32Z</time>
      </trkpt>
      <trkpt lat="45.29327" lon="6.65611">
        <ele>2473.2</ele>
        <time>2018-07-01T08:52:36Z</time>
      </trkpt>
      <trkpt lat="45.2933" lon="6.65613">
        <ele>2473.5</ele>
        <time>2018-07-01T08:52:40Z</time>
      </trkpt>
      <trkpt lat="45.29333" lon="6.65616">
        <ele>2473.2</ele>
        <time>2018-07-01T08:52:44Z</time>
      </trkpt>
      <trkpt lat="45.29335" lon="6.65618">
        <ele>2473.5</ele>
        <time>2018-07-01T08:52:48Z</time>
      </trkpt>
      <trkpt lat="45.29338" lon="6.65619">
        <ele>2473.3</ele>
        <time>2018-07-01T08:52:51Z</time>
      </trkpt>
      <trkpt lat="45.29341" lon="6.65621">
        <ele>2473.1</ele>
        <time>2018-07-01T08:52:56Z</time>
      </trkpt>
      <trkpt lat="45.29344" lon="6.65621">
        <ele>2472.9</ele>
        <time>2018-07-01T08:53:02Z</time>
      </trkpt>
      <trkpt lat="45.29348" lon="6.65614">
        <ele>2472.2</ele>
        <time>2018-07-01T08:53:36Z</time>
      </trkpt>
      <trkpt lat="45.29351" lon="6.65612">
        <ele>2471.6</ele>
        <time>2018-07-01T08:53:39Z</time>
      </trkpt>
      <trkpt lat="45.29354" lon="6.65609">
        <ele>2471.5</ele>
        <time>2018-07-01T08:53:42Z</time>
      </trkpt>
      <trkpt lat="45.29354" lon="6.65605">
        <ele>2471</ele>
        <time>2018-07-01T08:53:45Z</time>
      </trkpt>
      <trkpt lat="45.29357" lon="6.656">
        <ele>2470.3</ele>
        <time>2018-07-01T08:53:48Z</time>
      </trkpt>
      <trkpt lat="45.29357" lon="6.65596">
        <ele>2469.8</ele>
        <time>2018-07-01T08:53:51Z</time>
      </trkpt>
      <trkpt lat="45.29359" lon="6.65593">
        <ele>2469.1</ele>
        <time>2018-07-01T08:53:53Z</time>
      </trkpt>
      <trkpt lat="45.29363" lon="6.65591">
        <ele>2468.4</ele>
        <time>2018-07-01T08:53:55Z</time>
      </trkpt>
      <trkpt lat="45.29365" lon="6.65588">
        <ele>2468.3</ele>
        <time>2018-07-01T08:53:57Z</time>
      </trkpt>
      <trkpt lat="45.29367" lon="6.65585">
        <ele>2467.5</ele>
        <time>2018-07-01T08:53:59Z</time>
      </trkpt>
      <trkpt lat="45.2937" lon="6.65583">
        <ele>2467.5</ele>
        <time>2018-07-01T08:54:01Z</time>
      </trkpt>
      <trkpt lat="45.29372" lon="6.6558">
        <ele>2466.8</ele>
        <time>2018-07-01T08:54:04Z</time>
      </trkpt>
      <trkpt lat="45.29374" lon="6.65576">
        <ele>2466</ele>
        <time>2018-07-01T08:54:07Z</time>
      </trkpt>
      <trkpt lat="45.29376" lon="6.65573">
        <ele>2465.3</ele>
        <time>2018-07-01T08:54:10Z</time>
      </trkpt>
      <trkpt lat="45.29379" lon="6.6557">
        <ele>2464.5</ele>
        <time>2018-07-01T08:54:13Z</time>
      </trkpt>
      <trkpt lat="45.29381" lon="6.65566">
        <ele>2464.6</ele>
        <time>2018-07-01T08:54:16Z</time>
      </trkpt>
      <trkpt lat="45.29383" lon="6.65562">
        <ele>2463.8</ele>
        <time>2018-07-01T08:54:19Z</time>
      </trkpt>
      <trkpt lat="45.29385" lon="6.65559">
        <ele>2463.1</ele>
        <time>2018-07-01T08:54:22Z</time>
      </trkpt>
      <trkpt lat="45.29387" lon="6.65556">
        <ele>2462.2</ele>
        <time>2018-07-01T08:54:25Z</time>
      </trkpt>
      <trkpt lat="45.29385" lon="6.65552">
        <ele>2461.3</ele>
        <time>2018-07-01T08:54:30Z</time>
      </trkpt>
      <trkpt lat="45.29386" lon="6.65548">
        <ele>2460.4</ele>
        <time>2018-07-01T08:54:34Z</time>
      </trkpt>
      <trkpt lat="45.29389" lon="6.65544">
        <ele>2460.5</ele>
        <time>2018-07-01T08:54:37Z</time>
      </trkpt>
      <trkpt lat="45.29392" lon="6.6554">
        <ele>2459.5</ele>
        <time>2018-07-01T08:54:40Z</time>
      </trkpt>
      <trkpt lat="45.29394" lon="6.65538">
        <ele>2458.6</ele>
        <time>2018-07-01T08:54:42Z</time>
      </trkpt>
      <trkpt lat="45.29396" lon="6.65535">
        <ele>2457.7</ele>
        <time>2018-07-01T08:54:45Z</time>
      </trkpt>
      <trkpt lat="45.29398" lon="6.65531">
        <ele>2456.8</ele>
        <time>2018-07-01T08:54:49Z</time>
      </trkpt>
      <trkpt lat="45.29401" lon="6.65529">
        <ele>2457</ele>
        <time>2018-07-01T08:54:52Z</time>
      </trkpt>
      <trkpt lat="45.29403" lon="6.65526">
        <ele>2456.2</ele>
        <time>2018-07-01T08:54:56Z</time>
      </trkpt>
      <trkpt lat="45.29406" lon="6.65524">
        <ele>2456.2</ele>
        <time>2018-07-01T08:55:30Z</time>
      </trkpt>
      <trkpt lat="45.29408" lon="6.65521">
        <ele>2455.5</ele>
        <time>2018-07-01T08:55:55Z</time>
      </trkpt>
      <trkpt lat="45.2941" lon="6.65518">
        <ele>2454.8</ele>
        <time>2018-07-01T08:56:00Z</time>
      </trkpt>
      <trkpt lat="45.29412" lon="6.65515">
        <ele>2454.9</ele>
        <time>2018-07-01T08:57:00Z</time>
      </trkpt>
      <trkpt lat="45.29415" lon="6.65513">
        <ele>2454.1</ele>
        <time>2018-07-01T08:57:05Z</time>
      </trkpt>
      <trkpt lat="45.29417" lon="6.65509">
        <ele>2453.4</ele>
        <time>2018-07-01T08:57:09Z</time>
      </trkpt>
      <trkpt lat="45.29418" lon="6.65505">
        <ele>2452.6</ele>
        <time>2018-07-01T08:57:13Z</time>
      </trkpt>
      <trkpt lat="45.29421" lon="6.65501">
        <ele>2451.5</ele>
        <time>2018-07-01T08:57:17Z</time>
      </trkpt>
      <trkpt lat="45.29423" lon="6.65497">
        <ele>2451.7</ele>
        <time>2018-07-01T08:57:21Z</time>
      </trkpt>
      <trkpt lat="45.29426" lon="6.65495">
        <ele>2450.9</ele>
        <time>2018-07-01T08:57:24Z</time>
      </trkpt>
      <trkpt lat="45.29428" lon="6.65492">
        <ele>2450.1</ele>
        <time>2018-07-01T08:57:28Z</time>
      </trkpt>
      <trkpt lat="45.29431" lon="6.65489">
        <ele>2450.3</ele>
        <time>2018-07-01T08:57:31Z</time>
      </trkpt>
      <trkpt lat="45.29434" lon="6.65487">
        <ele>2449.6</ele>
        <time>2018-07-01T08:57:35Z</time>
      </trkpt>
      <trkpt lat="45.29436" lon="6.65483">
        <ele>2449</ele>
        <time>2018-07-01T08:57:39Z</time>
      </trkpt>
      <trkpt lat="45.29439" lon="6.65481">
        <ele>2449.1</ele>
        <time>2018-07-01T08:57:42Z</time>
      </trkpt>
      <trkpt lat="45.29441" lon="6.65478">
        <ele>2448.6</ele>
        <time>2018-07-01T08:57:45Z</time>
      </trkpt>
      <trkpt lat="45.29443" lon="6.65475">
        <ele>2448.2</ele>
        <time>2018-07-01T08:57:50Z</time>
      </trkpt>
      <trkpt lat="45.29446" lon="6.65472">
        <ele>2448.7</ele>
        <time>2018-07-01T08:57:53Z</time>
      </trkpt>
      <trkpt lat="45.29448" lon="6.65469">
        <ele>2447.9</ele>
        <time>2018-07-01T08:57:57Z</time>
      </trkpt>
      <trkpt lat="45.2945" lon="6.65466">
        <ele>2447.6</ele>
        <time>2018-07-01T08:58:01Z</time>
      </trkpt>
      <trkpt lat="45.29451" lon="6.65462">
        <ele>2446.8</ele>
        <time>2018-07-01T08:58:05Z</time>
      </trkpt>
      <trkpt lat="45.29447" lon="6.6546">
        <ele>2446.4</ele>
        <time>2018-07-01T08:58:09Z</time>
      </trkpt>
      <trkpt lat="45.29445" lon="6.65458">
        <ele>2445.3</ele>
        <time>2018-07-01T08:58:12Z</time>
      </trkpt>
      <trkpt lat="45.29443" lon="6.65454">
        <ele>2444.6</ele>
        <time>2018-07-01T08:58:16Z</time>
      </trkpt>
      <trkpt lat="45.29439" lon="6.65452">
        <ele>2444.7</ele>
        <time>2018-07-01T08:58:20Z</time>
      </trkpt>
      <trkpt lat="45.29436" lon="6.6545">
        <ele>2444.8</ele>
        <time>2018-07-01T08:58:24Z</time>
      </trkpt>
      <trkpt lat="45.29433" lon="6.65448">
        <ele>2444.9</ele>
        <time>2018-07-01T08:58:31Z</time>
      </trkpt>
      <trkpt lat="45.29436" lon="6.65446">
        <ele>2444.6</ele>
        <time>2018-07-01T08:59:20Z</time>
      </trkpt>
      <trkpt lat="45.29439" lon="6.65444">
        <ele>2444.4</ele>
        <time>2018-07-01T08:59:23Z</time>
      </trkpt>
      <trkpt lat="45.29442" lon="6.65443">
        <ele>2444.1</ele>
        <time>2018-07-01T08:59:26Z</time>
      </trkpt>
      <trkpt lat="45.29446" lon="6.65443">
        <ele>2443.8</ele>
        <time>2018-07-01T08:59:29Z</time>
      </trkpt>
      <trkpt lat="45.29449" lon="6.65441">
        <ele>2443.5</ele>
        <time>2018-07-01T08:59:32Z</time>
      </trkpt>
      <trkpt lat="45.29452" lon="6.6544">
        <ele>2443.1</ele>
        <time>2018-07-01T08:59:35Z</time>
      </trkpt>
      <trkpt lat="45.29455" lon="6.65438">
        <ele>2442.7</ele>
        <time>2018-07-01T08:59:38Z</time>
      </trkpt>
      <trkpt lat="45.29457" lon="6.65434">
        <ele>2442.5</ele>
        <time>2018-07-01T08:59:41Z</time>
      </trkpt>
      <trkpt lat="45.29459" lon="6.65432">
        <ele>2442.2</ele>
        <time>2018-07-01T08:59:44Z</time>
      </trkpt>
      <trkpt lat="45.29462" lon="6.65429">
        <ele>2441.9</ele>
        <time>2018-07-01T08:59:47Z</time>
      </trkpt>
      <trkpt lat="45.29465" lon="6.65427">
        <ele>2441.8</ele>
        <time>2018-07-01T08:59:50Z</time>
      </trkpt>
      <trkpt lat="45.29468" lon="6.65425">
        <ele>2441.6</ele>
        <time>2018-07-01T08:59:53Z</time>
      </trkpt>
      <trkpt lat="45.29471" lon="6.65424">
        <ele>2441.4</ele>
        <time>2018-07-01T08:59:56Z</time>
      </trkpt>
      <trkpt lat="45.29473" lon="6.65421">
        <ele>2441.2</ele>
        <time>2018-07-01T08:59:59Z</time>
      </trkpt>
      <trkpt lat="45.29476" lon="6.65419">
        <ele>2441</ele>
        <time>2018-07-01T09:00:02Z</time>
      </trkpt>
      <trkpt lat="45.29479" lon="6.65416">
        <ele>2440.7</ele>
        <time>2018-07-01T09:00:06Z</time>
      </trkpt>
      <trkpt lat="45.29482" lon="6.65413">
        <ele>2440.4</ele>
        <time>2018-07-01T09:00:09Z</time>
      </trkpt>
      <trkpt lat="45.29484" lon="6.65411">
        <ele>2440.1</ele>
        <time>2018-07-01T09:00:12Z</time>
      </trkpt>
      <trkpt lat="45.29487" lon="6.65409">
        <ele>2440</ele>
        <time>2018-07-01T09:00:16Z</time>
      </trkpt>
      <trkpt lat="45.2949" lon="6.6541">
        <ele>2439.9</ele>
        <time>2018-07-01T09:00:18Z</time>
      </trkpt>
      <trkpt lat="45.29493" lon="6.65411">
        <ele>2439.9</ele>
        <time>2018-07-01T09:00:21Z</time>
      </trkpt>
      <trkpt lat="45.29496" lon="6.65411">
        <ele>2440</ele>
        <time>2018-07-01T09:00:25Z</time>
      </trkpt>
      <trkpt lat="45.29499" lon="6.65411">
        <ele>2440.2</ele>
        <time>2018-07-01T09:00:29Z</time>
      </trkpt>
      <trkpt lat="45.29503" lon="6.6541">
        <ele>2440.1</ele>
        <time>2018-07-01T09:00:34Z</time>
      </trkpt>
      <trkpt lat="45.29506" lon="6.65409">
        <ele>2439.9</ele>
        <time>2018-07-01T09:00:37Z</time>
      </trkpt>
      <trkpt lat="45.29509" lon="6.65405">
        <ele>2439.8</ele>
        <time>2018-07-01T09:00:41Z</time>
      </trkpt>
      <trkpt lat="45.2951" lon="6.65401">
        <ele>2439.8</ele>
        <time>2018-07-01T09:00:45Z</time>
      </trkpt>
      <trkpt lat="45.29511" lon="6.65397">
        <ele>2439.7</ele>
        <time>2018-07-01T09:00:48Z</time>
      </trkpt>
      <trkpt lat="45.29513" lon="6.65394">
        <ele>2439.9</ele>
        <time>2018-07-01T09:00:52Z</time>
      </trkpt>
      <trkpt lat="45.29516" lon="6.65391">
        <ele>2440.2</ele>
        <time>2018-07-01T09:00:55Z</time>
      </trkpt>
      <trkpt lat="45.29518" lon="6.65388">
        <ele>2440.5</ele>
        <time>2018-07-01T09:00:59Z</time>
      </trkpt>
      <trkpt lat="45.29521" lon="6.65387">
        <ele>2440.8</ele>
        <time>2018-07-01T09:01:02Z</time>
      </trkpt>
      <trkpt lat="45.29524" lon="6.65387">
        <ele>2441</ele>
        <time>2018-07-01T09:01:05Z</time>
      </trkpt>
      <trkpt lat="45.29526" lon="6.65388">
        <ele>2441.3</ele>
        <time>2018-07-01T09:01:08Z</time>
      </trkpt>
      <trkpt lat="45.2953" lon="6.65387">
        <ele>2441.6</ele>
        <time>2018-07-01T09:01:12Z</time>
      </trkpt>
      <trkpt lat="45.29533" lon="6.65387">
        <ele>2441.9</ele>
        <time>2018-07-01T09:01:15Z</time>
      </trkpt>
      <trkpt lat="45.29535" lon="6.65385">
        <ele>2442</ele>
        <time>2018-07-01T09:01:19Z</time>
      </trkpt>
      <trkpt lat="45.29538" lon="6.65384">
        <ele>2441.8</ele>
        <time>2018-07-01T09:01:24Z</time>
      </trkpt>
      <trkpt lat="45.29541" lon="6.65382">
        <ele>2440.3</ele>
        <time>2018-07-01T09:01:29Z</time>
      </trkpt>
      <trkpt lat="45.29544" lon="6.65381">
        <ele>2438.9</ele>
        <time>2018-07-01T09:01:33Z</time>
      </trkpt>
      <trkpt lat="45.29546" lon="6.65378">
        <ele>2438.3</ele>
        <time>2018-07-01T09:01:36Z</time>
      </trkpt>
      <trkpt lat="45.29549" lon="6.65377">
        <ele>2437.7</ele>
        <time>2018-07-01T09:01:39Z</time>
      </trkpt>
      <trkpt lat="45.29553" lon="6.65375">
        <ele>2437.4</ele>
        <time>2018-07-01T09:01:43Z</time>
      </trkpt>
      <trkpt lat="45.29555" lon="6.65372">
        <ele>2437.1</ele>
        <time>2018-07-01T09:01:46Z</time>
      </trkpt>
      <trkpt lat="45.29558" lon="6.65369">
        <ele>2437.2</ele>
        <time>2018-07-01T09:01:49Z</time>
      </trkpt>
      <trkpt lat="45.2956" lon="6.65365">
        <ele>2437.6</ele>
        <time>2018-07-01T09:01:53Z</time>
      </trkpt>
      <trkpt lat="45.29563" lon="6.65365">
        <ele>2438</ele>
        <time>2018-07-01T09:01:56Z</time>
      </trkpt>
      <trkpt lat="45.29566" lon="6.65366">
        <ele>2438.7</ele>
        <time>2018-07-01T09:01:59Z</time>
      </trkpt>
      <trkpt lat="45.2957" lon="6.65366">
        <ele>2439.5</ele>
        <time>2018-07-01T09:02:02Z</time>
      </trkpt>
      <trkpt lat="45.29573" lon="6.65366">
        <ele>2440.2</ele>
        <time>2018-07-01T09:02:06Z</time>
      </trkpt>
      <trkpt lat="45.29576" lon="6.65366">
        <ele>2441.1</ele>
        <time>2018-07-01T09:02:10Z</time>
      </trkpt>
      <trkpt lat="45.29579" lon="6.65365">
        <ele>2442</ele>
        <time>2018-07-01T09:02:14Z</time>
      </trkpt>
      <trkpt lat="45.29582" lon="6.65363">
        <ele>2442.5</ele>
        <time>2018-07-01T09:02:17Z</time>
      </trkpt>
      <trkpt lat="45.29585" lon="6.65362">
        <ele>2443.1</ele>
        <time>2018-07-01T09:02:20Z</time>
      </trkpt>
      <trkpt lat="45.29588" lon="6.65361">
        <ele>2443.4</ele>
        <time>2018-07-01T09:02:23Z</time>
      </trkpt>
      <trkpt lat="45.29591" lon="6.65359">
        <ele>2443.2</ele>
        <time>2018-07-01T09:02:26Z</time>
      </trkpt>
      <trkpt lat="45.29594" lon="6.65359">
        <ele>2443</ele>
        <time>2018-07-01T09:02:29Z</time>
      </trkpt>
      <trkpt lat="45.29597" lon="6.65358">
        <ele>2443.2</ele>
        <time>2018-07-01T09:02:33Z</time>
      </trkpt>
      <trkpt lat="45.296" lon="6.65358">
        <ele>2443.6</ele>
        <time>2018-07-01T09:02:36Z</time>
      </trkpt>
      <trkpt lat="45.29603" lon="6.65359">
        <ele>2443.9</ele>
        <time>2018-07-01T09:02:40Z</time>
      </trkpt>
      <trkpt lat="45.29606" lon="6.65359">
        <ele>2443.9</ele>
        <time>2018-07-01T09:02:43Z</time>
      </trkpt>
      <trkpt lat="45.29609" lon="6.6536">
        <ele>2443.9</ele>
        <time>2018-07-01T09:02:47Z</time>
      </trkpt>
      <trkpt lat="45.29612" lon="6.65363">
        <ele>2444.2</ele>
        <time>2018-07-01T09:02:51Z</time>
      </trkpt>
      <trkpt lat="45.29613" lon="6.65367">
        <ele>2444.4</ele>
        <time>2018-07-01T09:02:55Z</time>
      </trkpt>
      <trkpt lat="45.29615" lon="6.6537">
        <ele>2444.7</ele>
        <time>2018-07-01T09:02:59Z</time>
      </trkpt>
      <trkpt lat="45.29618" lon="6.65372">
        <ele>2445.1</ele>
        <time>2018-07-01T09:03:03Z</time>
      </trkpt>
      <trkpt lat="45.2962" lon="6.65374">
        <ele>2445.5</ele>
        <time>2018-07-01T09:03:07Z</time>
      </trkpt>
      <trkpt lat="45.29623" lon="6.65376">
        <ele>2445.9</ele>
        <time>2018-07-01T09:03:11Z</time>
      </trkpt>
      <trkpt lat="45.29626" lon="6.65377">
        <ele>2446.3</ele>
        <time>2018-07-01T09:03:15Z</time>
      </trkpt>
      <trkpt lat="45.29629" lon="6.65378">
        <ele>2446.8</ele>
        <time>2018-07-01T09:03:19Z</time>
      </trkpt>
      <trkpt lat="45.29632" lon="6.6538">
        <ele>2447.1</ele>
        <time>2018-07-01T09:03:23Z</time>
      </trkpt>
      <trkpt lat="45.29635" lon="6.65381">
        <ele>2447</ele>
        <time>2018-07-01T09:03:27Z</time>
      </trkpt>
      <trkpt lat="45.29638" lon="6.65382">
        <ele>2446.9</ele>
        <time>2018-07-01T09:03:31Z</time>
      </trkpt>
      <trkpt lat="45.29641" lon="6.65383">
        <ele>2446.8</ele>
        <time>2018-07-01T09:03:35Z</time>
      </trkpt>
      <trkpt lat="45.29644" lon="6.65383">
        <ele>2446.7</ele>
        <time>2018-07-01T09:03:38Z</time>
      </trkpt>
      <trkpt lat="45.29648" lon="6.65382">
        <ele>2446.6</ele>
        <time>2018-07-01T09:03:42Z</time>
      </trkpt>
      <trkpt lat="45.29651" lon="6.65382">
        <ele>2447.1</ele>
        <time>2018-07-01T09:03:46Z</time>
      </trkpt>
      <trkpt lat="45.29655" lon="6.65382">
        <ele>2447.5</ele>
        <time>2018-07-01T09:03:50Z</time>
      </trkpt>
      <trkpt lat="45.29658" lon="6.65382">
        <ele>2447.7</ele>
        <time>2018-07-01T09:03:54Z</time>
      </trkpt>
      <trkpt lat="45.29662" lon="6.65383">
        <ele>2447.8</ele>
        <time>2018-07-01T09:03:58Z</time>
      </trkpt>
      <trkpt lat="45.29665" lon="6.65384">
        <ele>2447.8</ele>
        <time>2018-07-01T09:04:01Z</time>
      </trkpt>
      <trkpt lat="45.29668" lon="6.65385">
        <ele>2447.9</ele>
        <time>2018-07-01T09:04:06Z</time>
      </trkpt>
      <trkpt lat="45.29671" lon="6.65385">
        <ele>2448.2</ele>
        <time>2018-07-01T09:04:10Z</time>
      </trkpt>
      <trkpt lat="45.29675" lon="6.65384">
        <ele>2448.5</ele>
        <time>2018-07-01T09:04:13Z</time>
      </trkpt>
      <trkpt lat="45.29678" lon="6.65385">
        <ele>2448.8</ele>
        <time>2018-07-01T09:04:17Z</time>
      </trkpt>
      <trkpt lat="45.29681" lon="6.65385">
        <ele>2449.1</ele>
        <time>2018-07-01T09:04:20Z</time>
      </trkpt>
      <trkpt lat="45.29684" lon="6.65385">
        <ele>2449.2</ele>
        <time>2018-07-01T09:04:23Z</time>
      </trkpt>
      <trkpt lat="45.29687" lon="6.65387">
        <ele>2449.3</ele>
        <time>2018-07-01T09:04:27Z</time>
      </trkpt>
      <trkpt lat="45.2969" lon="6.65387">
        <ele>2449.4</ele>
        <time>2018-07-01T09:04:31Z</time>
      </trkpt>
      <trkpt lat="45.29693" lon="6.65387">
        <ele>2449.7</ele>
        <time>2018-07-01T09:04:35Z</time>
      </trkpt>
      <trkpt lat="45.29697" lon="6.65388">
        <ele>2450</ele>
        <time>2018-07-01T09:04:39Z</time>
      </trkpt>
      <trkpt lat="45.297" lon="6.65389">
        <ele>2450.1</ele>
        <time>2018-07-01T09:04:42Z</time>
      </trkpt>
      <trkpt lat="45.29704" lon="6.65389">
        <ele>2450.2</ele>
        <time>2018-07-01T09:04:45Z</time>
      </trkpt>
      <trkpt lat="45.29707" lon="6.6539">
        <ele>2450.1</ele>
        <time>2018-07-01T09:04:48Z</time>
      </trkpt>
      <trkpt lat="45.2971" lon="6.6539">
        <ele>2450</ele>
        <time>2018-07-01T09:04:52Z</time>
      </trkpt>
      <trkpt lat="45.29713" lon="6.6539">
        <ele>2449.9</ele>
        <time>2018-07-01T09:04:56Z</time>
      </trkpt>
      <trkpt lat="45.29716" lon="6.65391">
        <ele>2450</ele>
        <time>2018-07-01T09:05:00Z</time>
      </trkpt>
      <trkpt lat="45.29719" lon="6.6539">
        <ele>2450.1</ele>
        <time>2018-07-01T09:05:07Z</time>
      </trkpt>
      <trkpt lat="45.29722" lon="6.65389">
        <ele>2450.3</ele>
        <time>2018-07-01T09:05:12Z</time>
      </trkpt>
      <trkpt lat="45.29726" lon="6.65389">
        <ele>2450.3</ele>
        <time>2018-07-01T09:05:16Z</time>
      </trkpt>
      <trkpt lat="45.29729" lon="6.65388">
        <ele>2450.3</ele>
        <time>2018-07-01T09:05:20Z</time>
      </trkpt>
      <trkpt lat="45.29731" lon="6.65387">
        <ele>2450.3</ele>
        <time>2018-07-01T09:05:23Z</time>
      </trkpt>
      <trkpt lat="45.29734" lon="6.65386">
        <ele>2450.4</ele>
        <time>2018-07-01T09:05:27Z</time>
      </trkpt>
      <trkpt lat="45.29737" lon="6.65384">
        <ele>2450.6</ele>
        <time>2018-07-01T09:05:30Z</time>
      </trkpt>
      <trkpt lat="45.2974" lon="6.65382">
        <ele>2450.7</ele>
        <time>2018-07-01T09:05:34Z</time>
      </trkpt>
      <trkpt lat="45.29742" lon="6.65379">
        <ele>2450.9</ele>
        <time>2018-07-01T09:05:38Z</time>
      </trkpt>
      <trkpt lat="45.29743" lon="6.65376">
        <ele>2451.2</ele>
        <time>2018-07-01T09:05:42Z</time>
      </trkpt>
      <trkpt lat="45.29746" lon="6.65373">
        <ele>2451.4</ele>
        <time>2018-07-01T09:05:45Z</time>
      </trkpt>
      <trkpt lat="45.29748" lon="6.65371">
        <ele>2451.6</ele>
        <time>2018-07-01T09:05:48Z</time>
      </trkpt>
      <trkpt lat="45.2975" lon="6.65367">
        <ele>2451.9</ele>
        <time>2018-07-01T09:05:51Z</time>
      </trkpt>
      <trkpt lat="45.29753" lon="6.65364">
        <ele>2452.3</ele>
        <time>2018-07-01T09:05:54Z</time>
      </trkpt>
      <trkpt lat="45.29757" lon="6.65361">
        <ele>2453.1</ele>
        <time>2018-07-01T09:05:58Z</time>
      </trkpt>
      <trkpt lat="45.2976" lon="6.65359">
        <ele>2453.7</ele>
        <time>2018-07-01T09:06:02Z</time>
      </trkpt>
      <trkpt lat="45.29764" lon="6.65357">
        <ele>2454.5</ele>
        <time>2018-07-01T09:06:05Z</time>
      </trkpt>
      <trkpt lat="45.29767" lon="6.65356">
        <ele>2455.4</ele>
        <time>2018-07-01T09:06:08Z</time>
      </trkpt>
      <trkpt lat="45.2977" lon="6.65355">
        <ele>2456.1</ele>
        <time>2018-07-01T09:06:10Z</time>
      </trkpt>
      <trkpt lat="45.29773" lon="6.65354">
        <ele>2456.5</ele>
        <time>2018-07-01T09:06:13Z</time>
      </trkpt>
      <trkpt lat="45.29777" lon="6.65352">
        <ele>2457.2</ele>
        <time>2018-07-01T09:06:17Z</time>
      </trkpt>
      <trkpt lat="45.2978" lon="6.6535">
        <ele>2457.9</ele>
        <time>2018-07-01T09:06:20Z</time>
      </trkpt>
      <trkpt lat="45.29782" lon="6.65348">
        <ele>2458.7</ele>
        <time>2018-07-01T09:06:24Z</time>
      </trkpt>
      <trkpt lat="45.29786" lon="6.65345">
        <ele>2459.3</ele>
        <time>2018-07-01T09:06:31Z</time>
      </trkpt>
      <trkpt lat="45.29788" lon="6.65342">
        <ele>2459.9</ele>
        <time>2018-07-01T09:06:35Z</time>
      </trkpt>
      <trkpt lat="45.2979" lon="6.65338">
        <ele>2460.5</ele>
        <time>2018-07-01T09:06:39Z</time>
      </trkpt>
      <trkpt lat="45.29791" lon="6.65334">
        <ele>2460.5</ele>
        <time>2018-07-01T09:06:42Z</time>
      </trkpt>
      <trkpt lat="45.29792" lon="6.65329">
        <ele>2460.1</ele>
        <time>2018-07-01T09:06:46Z</time>
      </trkpt>
      <trkpt lat="45.29792" lon="6.65325">
        <ele>2459.9</ele>
        <time>2018-07-01T09:06:50Z</time>
      </trkpt>
      <trkpt lat="45.29793" lon="6.65321">
        <ele>2460.6</ele>
        <time>2018-07-01T09:06:53Z</time>
      </trkpt>
      <trkpt lat="45.29793" lon="6.65317">
        <ele>2460.4</ele>
        <time>2018-07-01T09:06:57Z</time>
      </trkpt>
      <trkpt lat="45.29794" lon="6.65312">
        <ele>2460.1</ele>
        <time>2018-07-01T09:07:01Z</time>
      </trkpt>
      <trkpt lat="45.29794" lon="6.65308">
        <ele>2459.8</ele>
        <time>2018-07-01T09:07:05Z</time>
      </trkpt>
      <trkpt lat="45.29794" lon="6.65303">
        <ele>2459.2</ele>
        <time>2018-07-01T09:07:09Z</time>
      </trkpt>
      <trkpt lat="45.29795" lon="6.65299">
        <ele>2458.8</ele>
        <time>2018-07-01T09:07:13Z</time>
      </trkpt>
      <trkpt lat="45.29795" lon="6.65295">
        <ele>2458.8</ele>
        <time>2018-07-01T09:07:17Z</time>
      </trkpt>
      <trkpt lat="45.29795" lon="6.6529">
        <ele>2458.2</ele>
        <time>2018-07-01T09:07:22Z</time>
      </trkpt>
      <trkpt lat="45.29795" lon="6.65286">
        <ele>2457.9</ele>
        <time>2018-07-01T09:07:26Z</time>
      </trkpt>
      <trkpt lat="45.29796" lon="6.65282">
        <ele>2458.5</ele>
        <time>2018-07-01T09:07:30Z</time>
      </trkpt>
      <trkpt lat="45.29797" lon="6.65278">
        <ele>2458.5</ele>
        <time>2018-07-01T09:07:34Z</time>
      </trkpt>
      <trkpt lat="45.298" lon="6.65275">
        <ele>2459.2</ele>
        <time>2018-07-01T09:07:39Z</time>
      </trkpt>
      <trkpt lat="45.298" lon="6.6527">
        <ele>2458.9</ele>
        <time>2018-07-01T09:07:43Z</time>
      </trkpt>
      <trkpt lat="45.29802" lon="6.65267">
        <ele>2459.7</ele>
        <time>2018-07-01T09:07:46Z</time>
      </trkpt>
      <trkpt lat="45.29803" lon="6.65263">
        <ele>2459.5</ele>
        <time>2018-07-01T09:07:50Z</time>
      </trkpt>
      <trkpt lat="45.29804" lon="6.65258">
        <ele>2459.3</ele>
        <time>2018-07-01T09:07:54Z</time>
      </trkpt>
      <trkpt lat="45.29805" lon="6.65254">
        <ele>2460.4</ele>
        <time>2018-07-01T09:07:58Z</time>
      </trkpt>
      <trkpt lat="45.29805" lon="6.65249">
        <ele>2460.2</ele>
        <time>2018-07-01T09:08:02Z</time>
      </trkpt>
      <trkpt lat="45.29806" lon="6.65245">
        <ele>2460</ele>
        <time>2018-07-01T09:08:06Z</time>
      </trkpt>
      <trkpt lat="45.29807" lon="6.65241">
        <ele>2459.9</ele>
        <time>2018-07-01T09:08:10Z</time>
      </trkpt>
      <trkpt lat="45.29807" lon="6.65236">
        <ele>2459.7</ele>
        <time>2018-07-01T09:08:13Z</time>
      </trkpt>
      <trkpt lat="45.29808" lon="6.65232">
        <ele>2461.9</ele>
        <time>2018-07-01T09:08:16Z</time>
      </trkpt>
      <trkpt lat="45.29809" lon="6.65227">
        <ele>2461.7</ele>
        <time>2018-07-01T09:08:20Z</time>
      </trkpt>
      <trkpt lat="45.2981" lon="6.65222">
        <ele>2461.5</ele>
        <time>2018-07-01T09:08:24Z</time>
      </trkpt>
      <trkpt lat="45.29811" lon="6.65218">
        <ele>2462.6</ele>
        <time>2018-07-01T09:08:28Z</time>
      </trkpt>
      <trkpt lat="45.29812" lon="6.65213">
        <ele>2462.4</ele>
        <time>2018-07-01T09:08:32Z</time>
      </trkpt>
      <trkpt lat="45.29812" lon="6.65209">
        <ele>2462.3</ele>
        <time>2018-07-01T09:08:36Z</time>
      </trkpt>
      <trkpt lat="45.29813" lon="6.65205">
        <ele>2462.1</ele>
        <time>2018-07-01T09:08:39Z</time>
      </trkpt>
      <trkpt lat="45.29814" lon="6.65201">
        <ele>2463.3</ele>
        <time>2018-07-01T09:08:42Z</time>
      </trkpt>
      <trkpt lat="45.29815" lon="6.65198">
        <ele>2463.2</ele>
        <time>2018-07-01T09:08:45Z</time>
      </trkpt>
      <trkpt lat="45.29816" lon="6.65194">
        <ele>2463.1</ele>
        <time>2018-07-01T09:08:48Z</time>
      </trkpt>
      <trkpt lat="45.29818" lon="6.6519">
        <ele>2464.3</ele>
        <time>2018-07-01T09:08:52Z</time>
      </trkpt>
      <trkpt lat="45.29821" lon="6.65191">
        <ele>2465.4</ele>
        <time>2018-07-01T09:09:14Z</time>
      </trkpt>
      <trkpt lat="45.29826" lon="6.65191">
        <ele>2466.7</ele>
        <time>2018-07-01T09:11:15Z</time>
      </trkpt>
      <trkpt lat="45.29818" lon="6.65191">
        <ele>2464.1</ele>
        <time>2018-07-01T09:18:11Z</time>
      </trkpt>
      <trkpt lat="45.29816" lon="6.65188">
        <ele>2462.9</ele>
        <time>2018-07-01T09:18:50Z</time>
      </trkpt>
      <trkpt lat="45.29814" lon="6.65185">
        <ele>2462.9</ele>
        <time>2018-07-01T09:23:51Z</time>
      </trkpt>
      <trkpt lat="45.29816" lon="6.65182">
        <ele>2462.9</ele>
        <time>2018-07-01T09:23:53Z</time>
      </trkpt>
      <trkpt lat="45.29816" lon="6.65177">
        <ele>2462.9</ele>
        <time>2018-07-01T09:23:56Z</time>
      </trkpt>
      <trkpt lat="45.29818" lon="6.65173">
        <ele>2464.3</ele>
        <time>2018-07-01T09:23:59Z</time>
      </trkpt>
      <trkpt lat="45.29819" lon="6.65168">
        <ele>2464.4</ele>
        <time>2018-07-01T09:24:02Z</time>
      </trkpt>
      <trkpt lat="45.2982" lon="6.65164">
        <ele>2465.9</ele>
        <time>2018-07-01T09:24:05Z</time>
      </trkpt>
      <trkpt lat="45.29821" lon="6.65159">
        <ele>2466.1</ele>
        <time>2018-07-01T09:24:08Z</time>
      </trkpt>
      <trkpt lat="45.29822" lon="6.65155">
        <ele>2466.4</ele>
        <time>2018-07-01T09:24:11Z</time>
      </trkpt>
      <trkpt lat="45.29823" lon="6.65151">
        <ele>2468.1</ele>
        <time>2018-07-01T09:24:14Z</time>
      </trkpt>
      <trkpt lat="45.29823" lon="6.65147">
        <ele>2468.4</ele>
        <time>2018-07-01T09:24:17Z</time>
      </trkpt>
      <trkpt lat="45.29824" lon="6.65143">
        <ele>2468.7</ele>
        <time>2018-07-01T09:24:20Z</time>
      </trkpt>
      <trkpt lat="45.29825" lon="6.65138">
        <ele>2469.1</ele>
        <time>2018-07-01T09:24:23Z</time>
      </trkpt>
      <trkpt lat="45.29826" lon="6.65134">
        <ele>2471.2</ele>
        <time>2018-07-01T09:24:26Z</time>
      </trkpt>
      <trkpt lat="45.29827" lon="6.6513">
        <ele>2471.6</ele>
        <time>2018-07-01T09:24:29Z</time>
      </trkpt>
      <trkpt lat="45.29828" lon="6.65126">
        <ele>2472</ele>
        <time>2018-07-01T09:24:32Z</time>
      </trkpt>
      <trkpt lat="45.29829" lon="6.65122">
        <ele>2474.3</ele>
        <time>2018-07-01T09:24:35Z</time>
      </trkpt>
      <trkpt lat="45.2983" lon="6.65117">
        <ele>2474.7</ele>
        <time>2018-07-01T09:24:38Z</time>
      </trkpt>
      <trkpt lat="45.2983" lon="6.65113">
        <ele>2475.1</ele>
        <time>2018-07-01T09:24:41Z</time>
      </trkpt>
      <trkpt lat="45.2983" lon="6.65108">
        <ele>2475.4</ele>
        <time>2018-07-01T09:24:44Z</time>
      </trkpt>
      <trkpt lat="45.2983" lon="6.65104">
        <ele>2475.8</ele>
        <time>2018-07-01T09:24:47Z</time>
      </trkpt>
      <trkpt lat="45.2983" lon="6.651">
        <ele>2476.1</ele>
        <time>2018-07-01T09:24:50Z</time>
      </trkpt>
      <trkpt lat="45.29832" lon="6.65096">
        <ele>2478.4</ele>
        <time>2018-07-01T09:24:53Z</time>
      </trkpt>
      <trkpt lat="45.29833" lon="6.65092">
        <ele>2478.8</ele>
        <time>2018-07-01T09:24:57Z</time>
      </trkpt>
      <trkpt lat="45.29834" lon="6.65088">
        <ele>2479.2</ele>
        <time>2018-07-01T09:25:00Z</time>
      </trkpt>
      <trkpt lat="45.29834" lon="6.65084">
        <ele>2479.6</ele>
        <time>2018-07-01T09:25:03Z</time>
      </trkpt>
      <trkpt lat="45.29835" lon="6.65079">
        <ele>2481.9</ele>
        <time>2018-07-01T09:26:07Z</time>
      </trkpt>
      <trkpt lat="45.29836" lon="6.65076">
        <ele>2482.3</ele>
        <time>2018-07-01T09:26:09Z</time>
      </trkpt>
      <trkpt lat="45.29838" lon="6.65072">
        <ele>2482.7</ele>
        <time>2018-07-01T09:26:12Z</time>
      </trkpt>
      <trkpt lat="45.29839" lon="6.65068">
        <ele>2484.9</ele>
        <time>2018-07-01T09:26:15Z</time>
      </trkpt>
      <trkpt lat="45.2984" lon="6.65063">
        <ele>2485.4</ele>
        <time>2018-07-01T09:26:19Z</time>
      </trkpt>
      <trkpt lat="45.29841" lon="6.65059">
        <ele>2487.7</ele>
        <time>2018-07-01T09:26:22Z</time>
      </trkpt>
      <trkpt lat="45.29841" lon="6.65055">
        <ele>2488.4</ele>
        <time>2018-07-01T09:26:25Z</time>
      </trkpt>
      <trkpt lat="45.29842" lon="6.6505">
        <ele>2489</ele>
        <time>2018-07-01T09:26:29Z</time>
      </trkpt>
      <trkpt lat="45.29842" lon="6.65046">
        <ele>2489.8</ele>
        <time>2018-07-01T09:26:33Z</time>
      </trkpt>
      <trkpt lat="45.29843" lon="6.65042">
        <ele>2489.7</ele>
        <time>2018-07-01T09:26:36Z</time>
      </trkpt>
      <trkpt lat="45.29844" lon="6.65039">
        <ele>2492.3</ele>
        <time>2018-07-01T09:26:39Z</time>
      </trkpt>
      <trkpt lat="45.29846" lon="6.65036">
        <ele>2493.1</ele>
        <time>2018-07-01T09:26:42Z</time>
      </trkpt>
      <trkpt lat="45.29846" lon="6.65032">
        <ele>2493.9</ele>
        <time>2018-07-01T09:26:46Z</time>
      </trkpt>
      <trkpt lat="45.29848" lon="6.65029">
        <ele>2496.7</ele>
        <time>2018-07-01T09:26:50Z</time>
      </trkpt>
      <trkpt lat="45.29849" lon="6.65025">
        <ele>2497.5</ele>
        <time>2018-07-01T09:26:55Z</time>
      </trkpt>
      <trkpt lat="45.2985" lon="6.65021">
        <ele>2499.5</ele>
        <time>2018-07-01T09:26:59Z</time>
      </trkpt>
      <trkpt lat="45.29852" lon="6.65018">
        <ele>2500.3</ele>
        <time>2018-07-01T09:27:03Z</time>
      </trkpt>
      <trkpt lat="45.29853" lon="6.65013">
        <ele>2501.2</ele>
        <time>2018-07-01T09:27:08Z</time>
      </trkpt>
      <trkpt lat="45.29854" lon="6.65009">
        <ele>2504.2</ele>
        <time>2018-07-01T09:27:12Z</time>
      </trkpt>
      <trkpt lat="45.29855" lon="6.65005">
        <ele>2505.2</ele>
        <time>2018-07-01T09:27:17Z</time>
      </trkpt>
      <trkpt lat="45.29855" lon="6.65001">
        <ele>2506.3</ele>
        <time>2018-07-01T09:27:22Z</time>
      </trkpt>
      <trkpt lat="45.29854" lon="6.64996">
        <ele>2507.5</ele>
        <time>2018-07-01T09:27:26Z</time>
      </trkpt>
      <trkpt lat="45.29853" lon="6.64991">
        <ele>2507.7</ele>
        <time>2018-07-01T09:27:29Z</time>
      </trkpt>
      <trkpt lat="45.29852" lon="6.64987">
        <ele>2507.8</ele>
        <time>2018-07-01T09:27:32Z</time>
      </trkpt>
      <trkpt lat="45.2985" lon="6.64983">
        <ele>2507.9</ele>
        <time>2018-07-01T09:27:35Z</time>
      </trkpt>
      <trkpt lat="45.29848" lon="6.6498">
        <ele>2507.9</ele>
        <time>2018-07-01T09:27:37Z</time>
      </trkpt>
      <trkpt lat="45.29846" lon="6.64975">
        <ele>2508.5</ele>
        <time>2018-07-01T09:27:40Z</time>
      </trkpt>
      <trkpt lat="45.29843" lon="6.64972">
        <ele>2509.6</ele>
        <time>2018-07-01T09:27:43Z</time>
      </trkpt>
      <trkpt lat="45.2984" lon="6.64969">
        <ele>2510.3</ele>
        <time>2018-07-01T09:27:47Z</time>
      </trkpt>
      <trkpt lat="45.29838" lon="6.64969">
        <ele>2509.8</ele>
        <time>2018-07-01T09:27:50Z</time>
      </trkpt>
      <trkpt lat="45.29834" lon="6.64966">
        <ele>2509.1</ele>
        <time>2018-07-01T09:27:54Z</time>
      </trkpt>
      <trkpt lat="45.29832" lon="6.64963">
        <ele>2508.6</ele>
        <time>2018-07-01T09:27:57Z</time>
      </trkpt>
      <trkpt lat="45.2983" lon="6.64959">
        <ele>2508.2</ele>
        <time>2018-07-01T09:28:00Z</time>
      </trkpt>
      <trkpt lat="45.29828" lon="6.64955">
        <ele>2507.8</ele>
        <time>2018-07-01T09:28:03Z</time>
      </trkpt>
      <trkpt lat="45.29826" lon="6.64951">
        <ele>2507.8</ele>
        <time>2018-07-01T09:28:06Z</time>
      </trkpt>
      <trkpt lat="45.29825" lon="6.64948">
        <ele>2508</ele>
        <time>2018-07-01T09:28:10Z</time>
      </trkpt>
      <trkpt lat="45.29824" lon="6.64944">
        <ele>2508.3</ele>
        <time>2018-07-01T09:28:13Z</time>
      </trkpt>
      <trkpt lat="45.29822" lon="6.6494">
        <ele>2508.1</ele>
        <time>2018-07-01T09:28:18Z</time>
      </trkpt>
      <trkpt lat="45.29819" lon="6.64938">
        <ele>2507.5</ele>
        <time>2018-07-01T09:28:24Z</time>
      </trkpt>
      <trkpt lat="45.29818" lon="6.64934">
        <ele>2507</ele>
        <time>2018-07-01T09:28:28Z</time>
      </trkpt>
      <trkpt lat="45.29817" lon="6.6493">
        <ele>2506.6</ele>
        <time>2018-07-01T09:28:32Z</time>
      </trkpt>
      <trkpt lat="45.29815" lon="6.64927">
        <ele>2506.2</ele>
        <time>2018-07-01T09:28:37Z</time>
      </trkpt>
      <trkpt lat="45.29814" lon="6.64923">
        <ele>2505.9</ele>
        <time>2018-07-01T09:28:40Z</time>
      </trkpt>
      <trkpt lat="45.29812" lon="6.64919">
        <ele>2505.9</ele>
        <time>2018-07-01T09:28:43Z</time>
      </trkpt>
      <trkpt lat="45.29811" lon="6.64913">
        <ele>2506.3</ele>
        <time>2018-07-01T09:28:47Z</time>
      </trkpt>
      <trkpt lat="45.2981" lon="6.64909">
        <ele>2506.6</ele>
        <time>2018-07-01T09:28:51Z</time>
      </trkpt>
      <trkpt lat="45.29808" lon="6.64906">
        <ele>2506.9</ele>
        <time>2018-07-01T09:28:54Z</time>
      </trkpt>
      <trkpt lat="45.29808" lon="6.64902">
        <ele>2507.2</ele>
        <time>2018-07-01T09:28:59Z</time>
      </trkpt>
      <trkpt lat="45.29807" lon="6.64898">
        <ele>2507.7</ele>
        <time>2018-07-01T09:29:05Z</time>
      </trkpt>
      <trkpt lat="45.29807" lon="6.64894">
        <ele>2508.4</ele>
        <time>2018-07-01T09:29:10Z</time>
      </trkpt>
      <trkpt lat="45.29805" lon="6.64891">
        <ele>2509.1</ele>
        <time>2018-07-01T09:29:14Z</time>
      </trkpt>
      <trkpt lat="45.29804" lon="6.64888">
        <ele>2509.8</ele>
        <time>2018-07-01T09:29:19Z</time>
      </trkpt>
      <trkpt lat="45.29802" lon="6.64884">
        <ele>2510.7</ele>
        <time>2018-07-01T09:29:25Z</time>
      </trkpt>
      <trkpt lat="45.29799" lon="6.64881">
        <ele>2511.7</ele>
        <time>2018-07-01T09:29:30Z</time>
      </trkpt>
      <trkpt lat="45.29799" lon="6.64876">
        <ele>2512.4</ele>
        <time>2018-07-01T09:29:35Z</time>
      </trkpt>
      <trkpt lat="45.29797" lon="6.64873">
        <ele>2513.2</ele>
        <time>2018-07-01T09:29:40Z</time>
      </trkpt>
      <trkpt lat="45.29795" lon="6.64868">
        <ele>2513.9</ele>
        <time>2018-07-01T09:29:45Z</time>
      </trkpt>
      <trkpt lat="45.29793" lon="6.64864">
        <ele>2514.6</ele>
        <time>2018-07-01T09:29:49Z</time>
      </trkpt>
      <trkpt lat="45.29796" lon="6.64862">
        <ele>2515.1</ele>
        <time>2018-07-01T09:29:54Z</time>
      </trkpt>
      <trkpt lat="45.29799" lon="6.64863">
        <ele>2514.8</ele>
        <time>2018-07-01T09:29:59Z</time>
      </trkpt>
      <trkpt lat="45.29802" lon="6.64864">
        <ele>2514.6</ele>
        <time>2018-07-01T09:30:03Z</time>
      </trkpt>
      <trkpt lat="45.29805" lon="6.64865">
        <ele>2514.4</ele>
        <time>2018-07-01T09:30:07Z</time>
      </trkpt>
      <trkpt lat="45.29808" lon="6.64866">
        <ele>2514.2</ele>
        <time>2018-07-01T09:30:10Z</time>
      </trkpt>
      <trkpt lat="45.29811" lon="6.64869">
        <ele>2513.9</ele>
        <time>2018-07-01T09:30:14Z</time>
      </trkpt>
      <trkpt lat="45.2981" lon="6.64865">
        <ele>2513.4</ele>
        <time>2018-07-01T09:30:33Z</time>
      </trkpt>
      <trkpt lat="45.29811" lon="6.64861">
        <ele>2516.4</ele>
        <time>2018-07-01T09:30:37Z</time>
      </trkpt>
      <trkpt lat="45.29809" lon="6.64858">
        <ele>2514.9</ele>
        <time>2018-07-01T09:30:43Z</time>
      </trkpt>
      <trkpt lat="45.29808" lon="6.64854">
        <ele>2516.1</ele>
        <time>2018-07-01T09:30:49Z</time>
      </trkpt>
      <trkpt lat="45.29807" lon="6.6485">
        <ele>2514.3</ele>
        <time>2018-07-01T09:30:54Z</time>
      </trkpt>
      <trkpt lat="45.29809" lon="6.64846">
        <ele>2518.2</ele>
        <time>2018-07-01T09:30:59Z</time>
      </trkpt>
      <trkpt lat="45.29811" lon="6.64842">
        <ele>2519.2</ele>
        <time>2018-07-01T09:31:03Z</time>
      </trkpt>
      <trkpt lat="45.29812" lon="6.64838">
        <ele>2521.8</ele>
        <time>2018-07-01T09:31:06Z</time>
      </trkpt>
      <trkpt lat="45.29813" lon="6.64834">
        <ele>2522.7</ele>
        <time>2018-07-01T09:31:10Z</time>
      </trkpt>
      <trkpt lat="45.29813" lon="6.64829">
        <ele>2523.6</ele>
        <time>2018-07-01T09:31:14Z</time>
      </trkpt>
      <trkpt lat="45.29813" lon="6.64825">
        <ele>2524.5</ele>
        <time>2018-07-01T09:31:18Z</time>
      </trkpt>
      <trkpt lat="45.29813" lon="6.6482">
        <ele>2525.5</ele>
        <time>2018-07-01T09:31:22Z</time>
      </trkpt>
      <trkpt lat="45.29814" lon="6.64817">
        <ele>2527.9</ele>
        <time>2018-07-01T09:31:26Z</time>
      </trkpt>
      <trkpt lat="45.29816" lon="6.64814">
        <ele>2528.8</ele>
        <time>2018-07-01T09:31:30Z</time>
      </trkpt>
      <trkpt lat="45.29818" lon="6.64811">
        <ele>2530.4</ele>
        <time>2018-07-01T09:31:33Z</time>
      </trkpt>
      <trkpt lat="45.2982" lon="6.64808">
        <ele>2532.6</ele>
        <time>2018-07-01T09:31:36Z</time>
      </trkpt>
      <trkpt lat="45.29823" lon="6.64804">
        <ele>2534.7</ele>
        <time>2018-07-01T09:31:41Z</time>
      </trkpt>
      <trkpt lat="45.29824" lon="6.64801">
        <ele>2535.5</ele>
        <time>2018-07-01T09:31:45Z</time>
      </trkpt>
      <trkpt lat="45.29826" lon="6.64797">
        <ele>2537.7</ele>
        <time>2018-07-01T09:31:49Z</time>
      </trkpt>
      <trkpt lat="45.29828" lon="6.64794">
        <ele>2537.9</ele>
        <time>2018-07-01T09:31:52Z</time>
      </trkpt>
      <trkpt lat="45.29829" lon="6.64789">
        <ele>2538.6</ele>
        <time>2018-07-01T09:31:56Z</time>
      </trkpt>
      <trkpt lat="45.29829" lon="6.64785">
        <ele>2540.7</ele>
        <time>2018-07-01T09:31:59Z</time>
      </trkpt>
      <trkpt lat="45.29829" lon="6.64781">
        <ele>2541.4</ele>
        <time>2018-07-01T09:32:02Z</time>
      </trkpt>
      <trkpt lat="45.2983" lon="6.64777">
        <ele>2542</ele>
        <time>2018-07-01T09:32:06Z</time>
      </trkpt>
      <trkpt lat="45.29831" lon="6.64773">
        <ele>2542.6</ele>
        <time>2018-07-01T09:32:09Z</time>
      </trkpt>
      <trkpt lat="45.2983" lon="6.64769">
        <ele>2543.2</ele>
        <time>2018-07-01T09:32:12Z</time>
      </trkpt>
      <trkpt lat="45.29829" lon="6.64764">
        <ele>2544.3</ele>
        <time>2018-07-01T09:32:16Z</time>
      </trkpt>
      <trkpt lat="45.29829" lon="6.6476">
        <ele>2545.3</ele>
        <time>2018-07-01T09:32:19Z</time>
      </trkpt>
      <trkpt lat="45.29827" lon="6.64756">
        <ele>2546</ele>
        <time>2018-07-01T09:32:22Z</time>
      </trkpt>
      <trkpt lat="45.29826" lon="6.64752">
        <ele>2546.5</ele>
        <time>2018-07-01T09:32:26Z</time>
      </trkpt>
      <trkpt lat="45.29827" lon="6.64748">
        <ele>2547</ele>
        <time>2018-07-01T09:32:30Z</time>
      </trkpt>
      <trkpt lat="45.29828" lon="6.64743">
        <ele>2547.4</ele>
        <time>2018-07-01T09:32:34Z</time>
      </trkpt>
      <trkpt lat="45.29829" lon="6.6474">
        <ele>2547.8</ele>
        <time>2018-07-01T09:32:38Z</time>
      </trkpt>
      <trkpt lat="45.2983" lon="6.64735">
        <ele>2548.3</ele>
        <time>2018-07-01T09:32:42Z</time>
      </trkpt>
      <trkpt lat="45.29832" lon="6.64732">
        <ele>2548.8</ele>
        <time>2018-07-01T09:32:46Z</time>
      </trkpt>
      <trkpt lat="45.29834" lon="6.64729">
        <ele>2549.2</ele>
        <time>2018-07-01T09:32:50Z</time>
      </trkpt>
      <trkpt lat="45.29836" lon="6.64726">
        <ele>2549.7</ele>
        <time>2018-07-01T09:32:54Z</time>
      </trkpt>
      <trkpt lat="45.29836" lon="6.64722">
        <ele>2550.1</ele>
        <time>2018-07-01T09:32:58Z</time>
      </trkpt>
      <trkpt lat="45.29837" lon="6.64717">
        <ele>2550.3</ele>
        <time>2018-07-01T09:33:03Z</time>
      </trkpt>
      <trkpt lat="45.29838" lon="6.64713">
        <ele>2550.4</ele>
        <time>2018-07-01T09:33:07Z</time>
      </trkpt>
      <trkpt lat="45.29841" lon="6.6471">
        <ele>2550.6</ele>
        <time>2018-07-01T09:33:10Z</time>
      </trkpt>
      <trkpt lat="45.29842" lon="6.64706">
        <ele>2550.9</ele>
        <time>2018-07-01T09:33:15Z</time>
      </trkpt>
      <trkpt lat="45.29843" lon="6.64702">
        <ele>2551.3</ele>
        <time>2018-07-01T09:33:20Z</time>
      </trkpt>
      <trkpt lat="45.29842" lon="6.64698">
        <ele>2551.7</ele>
        <time>2018-07-01T09:33:25Z</time>
      </trkpt>
      <trkpt lat="45.29843" lon="6.64694">
        <ele>2552.1</ele>
        <time>2018-07-01T09:33:30Z</time>
      </trkpt>
      <trkpt lat="45.29844" lon="6.6469">
        <ele>2552.2</ele>
        <time>2018-07-01T09:33:36Z</time>
      </trkpt>
      <trkpt lat="45.29847" lon="6.64687">
        <ele>2552.3</ele>
        <time>2018-07-01T09:33:40Z</time>
      </trkpt>
      <trkpt lat="45.29849" lon="6.64684">
        <ele>2552.5</ele>
        <time>2018-07-01T09:33:44Z</time>
      </trkpt>
      <trkpt lat="45.29851" lon="6.64681">
        <ele>2553.2</ele>
        <time>2018-07-01T09:33:48Z</time>
      </trkpt>
      <trkpt lat="45.29853" lon="6.64677">
        <ele>2553.4</ele>
        <time>2018-07-01T09:33:52Z</time>
      </trkpt>
      <trkpt lat="45.29852" lon="6.64673">
        <ele>2553.6</ele>
        <time>2018-07-01T09:33:56Z</time>
      </trkpt>
      <trkpt lat="45.29853" lon="6.64668">
        <ele>2553.8</ele>
        <time>2018-07-01T09:34:00Z</time>
      </trkpt>
      <trkpt lat="45.29853" lon="6.64664">
        <ele>2554.6</ele>
        <time>2018-07-01T09:34:04Z</time>
      </trkpt>
      <trkpt lat="45.29851" lon="6.64661">
        <ele>2554.1</ele>
        <time>2018-07-01T09:34:09Z</time>
      </trkpt>
      <trkpt lat="45.29851" lon="6.64657">
        <ele>2554.3</ele>
        <time>2018-07-01T09:34:13Z</time>
      </trkpt>
      <trkpt lat="45.2985" lon="6.64652">
        <ele>2554.5</ele>
        <time>2018-07-01T09:34:17Z</time>
      </trkpt>
      <trkpt lat="45.29849" lon="6.64649">
        <ele>2554.2</ele>
        <time>2018-07-01T09:34:21Z</time>
      </trkpt>
      <trkpt lat="45.29848" lon="6.64645">
        <ele>2554.5</ele>
        <time>2018-07-01T09:34:26Z</time>
      </trkpt>
      <trkpt lat="45.29847" lon="6.64641">
        <ele>2554.2</ele>
        <time>2018-07-01T09:34:30Z</time>
      </trkpt>
      <trkpt lat="45.29846" lon="6.64637">
        <ele>2554.5</ele>
        <time>2018-07-01T09:34:34Z</time>
      </trkpt>
      <trkpt lat="45.29846" lon="6.64634">
        <ele>2554.7</ele>
        <time>2018-07-01T09:34:38Z</time>
      </trkpt>
      <trkpt lat="45.29847" lon="6.6463">
        <ele>2555.3</ele>
        <time>2018-07-01T09:34:41Z</time>
      </trkpt>
      <trkpt lat="45.29848" lon="6.64626">
        <ele>2555.6</ele>
        <time>2018-07-01T09:34:46Z</time>
      </trkpt>
      <trkpt lat="45.29849" lon="6.64622">
        <ele>2555.7</ele>
        <time>2018-07-01T09:34:50Z</time>
      </trkpt>
      <trkpt lat="45.29851" lon="6.64618">
        <ele>2556.5</ele>
        <time>2018-07-01T09:34:55Z</time>
      </trkpt>
      <trkpt lat="45.2985" lon="6.64614">
        <ele>2556.7</ele>
        <time>2018-07-01T09:35:00Z</time>
      </trkpt>
      <trkpt lat="45.2985" lon="6.6461">
        <ele>2556.9</ele>
        <time>2018-07-01T09:35:05Z</time>
      </trkpt>
      <trkpt lat="45.29851" lon="6.64606">
        <ele>2557.1</ele>
        <time>2018-07-01T09:35:09Z</time>
      </trkpt>
      <trkpt lat="45.29851" lon="6.64601">
        <ele>2557.3</ele>
        <time>2018-07-01T09:35:13Z</time>
      </trkpt>
      <trkpt lat="45.29851" lon="6.64597">
        <ele>2557.5</ele>
        <time>2018-07-01T09:35:18Z</time>
      </trkpt>
      <trkpt lat="45.29851" lon="6.64593">
        <ele>2557.7</ele>
        <time>2018-07-01T09:35:22Z</time>
      </trkpt>
      <trkpt lat="45.29852" lon="6.64589">
        <ele>2558</ele>
        <time>2018-07-01T09:35:26Z</time>
      </trkpt>
      <trkpt lat="45.29853" lon="6.64585">
        <ele>2558.9</ele>
        <time>2018-07-01T09:35:29Z</time>
      </trkpt>
      <trkpt lat="45.29855" lon="6.64581">
        <ele>2559.1</ele>
        <time>2018-07-01T09:35:33Z</time>
      </trkpt>
      <trkpt lat="45.29856" lon="6.64576">
        <ele>2560</ele>
        <time>2018-07-01T09:35:37Z</time>
      </trkpt>
      <trkpt lat="45.29855" lon="6.64572">
        <ele>2559.5</ele>
        <time>2018-07-01T09:35:42Z</time>
      </trkpt>
      <trkpt lat="45.29856" lon="6.64568">
        <ele>2560.4</ele>
        <time>2018-07-01T09:35:46Z</time>
      </trkpt>
      <trkpt lat="45.29858" lon="6.64565">
        <ele>2560.6</ele>
        <time>2018-07-01T09:35:50Z</time>
      </trkpt>
      <trkpt lat="45.2986" lon="6.64562">
        <ele>2561.5</ele>
        <time>2018-07-01T09:35:54Z</time>
      </trkpt>
      <trkpt lat="45.29862" lon="6.64558">
        <ele>2561.7</ele>
        <time>2018-07-01T09:36:00Z</time>
      </trkpt>
      <trkpt lat="45.29864" lon="6.64556">
        <ele>2562.8</ele>
        <time>2018-07-01T09:36:04Z</time>
      </trkpt>
      <trkpt lat="45.29864" lon="6.64552">
        <ele>2563.1</ele>
        <time>2018-07-01T09:36:09Z</time>
      </trkpt>
      <trkpt lat="45.29865" lon="6.64548">
        <ele>2564.3</ele>
        <time>2018-07-01T09:36:14Z</time>
      </trkpt>
      <trkpt lat="45.29867" lon="6.64544">
        <ele>2564.7</ele>
        <time>2018-07-01T09:36:19Z</time>
      </trkpt>
      <trkpt lat="45.29869" lon="6.6454">
        <ele>2565.8</ele>
        <time>2018-07-01T09:36:24Z</time>
      </trkpt>
      <trkpt lat="45.2987" lon="6.64538">
        <ele>2566.3</ele>
        <time>2018-07-01T09:36:28Z</time>
      </trkpt>
      <trkpt lat="45.29871" lon="6.64534">
        <ele>2567.8</ele>
        <time>2018-07-01T09:36:33Z</time>
      </trkpt>
      <trkpt lat="45.29873" lon="6.6453">
        <ele>2568.4</ele>
        <time>2018-07-01T09:36:38Z</time>
      </trkpt>
      <trkpt lat="45.29875" lon="6.64527">
        <ele>2569.6</ele>
        <time>2018-07-01T09:36:41Z</time>
      </trkpt>
      <trkpt lat="45.29876" lon="6.64523">
        <ele>2571</ele>
        <time>2018-07-01T09:36:46Z</time>
      </trkpt>
      <trkpt lat="45.29877" lon="6.64519">
        <ele>2572.3</ele>
        <time>2018-07-01T09:36:51Z</time>
      </trkpt>
      <trkpt lat="45.29879" lon="6.64516">
        <ele>2573.5</ele>
        <time>2018-07-01T09:36:55Z</time>
      </trkpt>
      <trkpt lat="45.29882" lon="6.64513">
        <ele>2574.9</ele>
        <time>2018-07-01T09:36:59Z</time>
      </trkpt>
      <trkpt lat="45.29884" lon="6.64509">
        <ele>2576.4</ele>
        <time>2018-07-01T09:37:04Z</time>
      </trkpt>
      <trkpt lat="45.29886" lon="6.64507">
        <ele>2577.9</ele>
        <time>2018-07-01T09:37:07Z</time>
      </trkpt>
      <trkpt lat="45.29887" lon="6.64502">
        <ele>2579.6</ele>
        <time>2018-07-01T09:37:11Z</time>
      </trkpt>
      <trkpt lat="45.29889" lon="6.64499">
        <ele>2580.2</ele>
        <time>2018-07-01T09:37:14Z</time>
      </trkpt>
      <trkpt lat="45.29891" lon="6.64495">
        <ele>2580.8</ele>
        <time>2018-07-01T09:37:17Z</time>
      </trkpt>
      <trkpt lat="45.29893" lon="6.64492">
        <ele>2581.3</ele>
        <time>2018-07-01T09:37:20Z</time>
      </trkpt>
      <trkpt lat="45.29895" lon="6.64488">
        <ele>2582.5</ele>
        <time>2018-07-01T09:37:24Z</time>
      </trkpt>
      <trkpt lat="45.29898" lon="6.64485">
        <ele>2584</ele>
        <time>2018-07-01T09:37:29Z</time>
      </trkpt>
      <trkpt lat="45.299" lon="6.64483">
        <ele>2585.3</ele>
        <time>2018-07-01T09:37:34Z</time>
      </trkpt>
      <trkpt lat="45.29901" lon="6.64479">
        <ele>2586.8</ele>
        <time>2018-07-01T09:37:39Z</time>
      </trkpt>
      <trkpt lat="45.299" lon="6.64475">
        <ele>2588.3</ele>
        <time>2018-07-01T09:37:43Z</time>
      </trkpt>
      <trkpt lat="45.29898" lon="6.6447">
        <ele>2589.9</ele>
        <time>2018-07-01T09:37:49Z</time>
      </trkpt>
      <trkpt lat="45.29896" lon="6.64467">
        <ele>2592.2</ele>
        <time>2018-07-01T09:37:52Z</time>
      </trkpt>
      <trkpt lat="45.29897" lon="6.64463">
        <ele>2594.6</ele>
        <time>2018-07-01T09:37:55Z</time>
      </trkpt>
      <trkpt lat="45.29897" lon="6.64459">
        <ele>2596.4</ele>
        <time>2018-07-01T09:37:58Z</time>
      </trkpt>
      <trkpt lat="45.29898" lon="6.64455">
        <ele>2597.9</ele>
        <time>2018-07-01T09:38:02Z</time>
      </trkpt>
      <trkpt lat="45.299" lon="6.64451">
        <ele>2598.7</ele>
        <time>2018-07-01T09:38:07Z</time>
      </trkpt>
      <trkpt lat="45.29903" lon="6.64453">
        <ele>2598.7</ele>
        <time>2018-07-01T09:38:13Z</time>
      </trkpt>
      <trkpt lat="45.29905" lon="6.64456">
        <ele>2598.7</ele>
        <time>2018-07-01T09:38:20Z</time>
      </trkpt>
      <trkpt lat="45.29907" lon="6.64458">
        <ele>2599.5</ele>
        <time>2018-07-01T09:38:25Z</time>
      </trkpt>
      <trkpt lat="45.29911" lon="6.64458">
        <ele>2600.4</ele>
        <time>2018-07-01T09:38:31Z</time>
      </trkpt>
      <trkpt lat="45.29911" lon="6.64454">
        <ele>2600.7</ele>
        <time>2018-07-01T09:38:40Z</time>
      </trkpt>
      <trkpt lat="45.2991" lon="6.6445">
        <ele>2600.7</ele>
        <time>2018-07-01T09:38:44Z</time>
      </trkpt>
      <trkpt lat="45.29911" lon="6.64446">
        <ele>2600.8</ele>
        <time>2018-07-01T09:38:49Z</time>
      </trkpt>
      <trkpt lat="45.29911" lon="6.64442">
        <ele>2602</ele>
        <time>2018-07-01T09:38:54Z</time>
      </trkpt>
      <trkpt lat="45.29911" lon="6.64437">
        <ele>2603.2</ele>
        <time>2018-07-01T09:38:59Z</time>
      </trkpt>
      <trkpt lat="45.29912" lon="6.64432">
        <ele>2605.4</ele>
        <time>2018-07-01T09:39:04Z</time>
      </trkpt>
      <trkpt lat="45.29912" lon="6.64427">
        <ele>2607.6</ele>
        <time>2018-07-01T09:39:08Z</time>
      </trkpt>
      <trkpt lat="45.29912" lon="6.64422">
        <ele>2609</ele>
        <time>2018-07-01T09:39:12Z</time>
      </trkpt>
      <trkpt lat="45.29913" lon="6.64418">
        <ele>2610.1</ele>
        <time>2018-07-01T09:39:16Z</time>
      </trkpt>
      <trkpt lat="45.29913" lon="6.64413">
        <ele>2611.7</ele>
        <time>2018-07-01T09:39:20Z</time>
      </trkpt>
      <trkpt lat="45.29914" lon="6.6441">
        <ele>2613.5</ele>
        <time>2018-07-01T09:39:24Z</time>
      </trkpt>
      <trkpt lat="45.29916" lon="6.64406">
        <ele>2615.5</ele>
        <time>2018-07-01T09:39:30Z</time>
      </trkpt>
      <trkpt lat="45.29919" lon="6.64405">
        <ele>2617.5</ele>
        <time>2018-07-01T09:39:37Z</time>
      </trkpt>
      <trkpt lat="45.29922" lon="6.64406">
        <ele>2619.1</ele>
        <time>2018-07-01T09:39:43Z</time>
      </trkpt>
      <trkpt lat="45.29922" lon="6.64401">
        <ele>2620.8</ele>
        <time>2018-07-01T09:39:52Z</time>
      </trkpt>
      <trkpt lat="45.29922" lon="6.64397">
        <ele>2622.5</ele>
        <time>2018-07-01T09:39:59Z</time>
      </trkpt>
      <trkpt lat="45.29924" lon="6.64394">
        <ele>2624</ele>
        <time>2018-07-01T09:40:08Z</time>
      </trkpt>
      <trkpt lat="45.29927" lon="6.64394">
        <ele>2624.5</ele>
        <time>2018-07-01T09:40:15Z</time>
      </trkpt>
      <trkpt lat="45.29928" lon="6.6439">
        <ele>2624.4</ele>
        <time>2018-07-01T09:40:25Z</time>
      </trkpt>
      <trkpt lat="45.29926" lon="6.64386">
        <ele>2625.5</ele>
        <time>2018-07-01T09:40:30Z</time>
      </trkpt>
      <trkpt lat="45.29926" lon="6.64381">
        <ele>2627.2</ele>
        <time>2018-07-01T09:40:36Z</time>
      </trkpt>
      <trkpt lat="45.29924" lon="6.64378">
        <ele>2628.7</ele>
        <time>2018-07-01T09:40:40Z</time>
      </trkpt>
      <trkpt lat="45.29922" lon="6.64375">
        <ele>2630.4</ele>
        <time>2018-07-01T09:40:44Z</time>
      </trkpt>
      <trkpt lat="45.29924" lon="6.64372">
        <ele>2632.2</ele>
        <time>2018-07-01T09:40:49Z</time>
      </trkpt>
      <trkpt lat="45.29927" lon="6.64373">
        <ele>2634</ele>
        <time>2018-07-01T09:40:54Z</time>
      </trkpt>
      <trkpt lat="45.2993" lon="6.64374">
        <ele>2635.8</ele>
        <time>2018-07-01T09:40:59Z</time>
      </trkpt>
      <trkpt lat="45.29928" lon="6.64371">
        <ele>2637.2</ele>
        <time>2018-07-01T09:41:05Z</time>
      </trkpt>
      <trkpt lat="45.29927" lon="6.64367">
        <ele>2638.8</ele>
        <time>2018-07-01T09:41:10Z</time>
      </trkpt>
      <trkpt lat="45.29927" lon="6.64363">
        <ele>2640</ele>
        <time>2018-07-01T09:41:15Z</time>
      </trkpt>
      <trkpt lat="45.29928" lon="6.64359">
        <ele>2641.1</ele>
        <time>2018-07-01T09:41:21Z</time>
      </trkpt>
      <trkpt lat="45.2993" lon="6.64356">
        <ele>2642.3</ele>
        <time>2018-07-01T09:41:25Z</time>
      </trkpt>
      <trkpt lat="45.29933" lon="6.64353">
        <ele>2643.9</ele>
        <time>2018-07-01T09:41:29Z</time>
      </trkpt>
      <trkpt lat="45.29935" lon="6.64349">
        <ele>2645.8</ele>
        <time>2018-07-01T09:41:34Z</time>
      </trkpt>
      <trkpt lat="45.29937" lon="6.64345">
        <ele>2647</ele>
        <time>2018-07-01T09:41:41Z</time>
      </trkpt>
      <trkpt lat="45.29939" lon="6.64343">
        <ele>2647.9</ele>
        <time>2018-07-01T09:41:45Z</time>
      </trkpt>
      <trkpt lat="45.2994" lon="6.64339">
        <ele>2648.8</ele>
        <time>2018-07-01T09:41:51Z</time>
      </trkpt>
      <trkpt lat="45.29941" lon="6.64336">
        <ele>2649.8</ele>
        <time>2018-07-01T09:41:56Z</time>
      </trkpt>
      <trkpt lat="45.29944" lon="6.64335">
        <ele>2651</ele>
        <time>2018-07-01T09:42:02Z</time>
      </trkpt>
      <trkpt lat="45.29947" lon="6.64335">
        <ele>2652.6</ele>
        <time>2018-07-01T09:42:09Z</time>
      </trkpt>
      <trkpt lat="45.29949" lon="6.64337">
        <ele>2654.8</ele>
        <time>2018-07-01T09:42:14Z</time>
      </trkpt>
      <trkpt lat="45.29952" lon="6.64339">
        <ele>2657.3</ele>
        <time>2018-07-01T09:42:19Z</time>
      </trkpt>
      <trkpt lat="45.29954" lon="6.64342">
        <ele>2658.5</ele>
        <time>2018-07-01T09:42:25Z</time>
      </trkpt>
      <trkpt lat="45.29957" lon="6.64344">
        <ele>2658.8</ele>
        <time>2018-07-01T09:42:30Z</time>
      </trkpt>
      <trkpt lat="45.2996" lon="6.64344">
        <ele>2659.2</ele>
        <time>2018-07-01T09:42:34Z</time>
      </trkpt>
      <trkpt lat="45.29963" lon="6.64345">
        <ele>2659.3</ele>
        <time>2018-07-01T09:42:38Z</time>
      </trkpt>
      <trkpt lat="45.29964" lon="6.64341">
        <ele>2659.2</ele>
        <time>2018-07-01T09:42:45Z</time>
      </trkpt>
      <trkpt lat="45.29962" lon="6.64338">
        <ele>2659</ele>
        <time>2018-07-01T09:42:50Z</time>
      </trkpt>
      <trkpt lat="45.29962" lon="6.64334">
        <ele>2659.1</ele>
        <time>2018-07-01T09:42:56Z</time>
      </trkpt>
      <trkpt lat="45.2996" lon="6.64331">
        <ele>2659.9</ele>
        <time>2018-07-01T09:43:01Z</time>
      </trkpt>
      <trkpt lat="45.2996" lon="6.64327">
        <ele>2660.7</ele>
        <time>2018-07-01T09:43:06Z</time>
      </trkpt>
      <trkpt lat="45.29959" lon="6.64323">
        <ele>2661.5</ele>
        <time>2018-07-01T09:43:12Z</time>
      </trkpt>
      <trkpt lat="45.29958" lon="6.64317">
        <ele>2663.2</ele>
        <time>2018-07-01T09:43:32Z</time>
      </trkpt>
      <trkpt lat="45.29957" lon="6.64313">
        <ele>2664.6</ele>
        <time>2018-07-01T09:43:36Z</time>
      </trkpt>
      <trkpt lat="45.29956" lon="6.64309">
        <ele>2666.5</ele>
        <time>2018-07-01T09:43:39Z</time>
      </trkpt>
      <trkpt lat="45.29955" lon="6.64305">
        <ele>2668.6</ele>
        <time>2018-07-01T09:43:43Z</time>
      </trkpt>
      <trkpt lat="45.29953" lon="6.64301">
        <ele>2670.3</ele>
        <time>2018-07-01T09:43:47Z</time>
      </trkpt>
      <trkpt lat="45.29952" lon="6.64297">
        <ele>2671.8</ele>
        <time>2018-07-01T09:43:51Z</time>
      </trkpt>
      <trkpt lat="45.2995" lon="6.64293">
        <ele>2673.4</ele>
        <time>2018-07-01T09:43:55Z</time>
      </trkpt>
      <trkpt lat="45.29948" lon="6.64289">
        <ele>2674.9</ele>
        <time>2018-07-01T09:43:59Z</time>
      </trkpt>
      <trkpt lat="45.29947" lon="6.64285">
        <ele>2676.1</ele>
        <time>2018-07-01T09:44:03Z</time>
      </trkpt>
      <trkpt lat="45.29949" lon="6.64282">
        <ele>2677.6</ele>
        <time>2018-07-01T09:44:08Z</time>
      </trkpt>
      <trkpt lat="45.29949" lon="6.64278">
        <ele>2679.7</ele>
        <time>2018-07-01T09:44:13Z</time>
      </trkpt>
      <trkpt lat="45.29948" lon="6.64274">
        <ele>2681.8</ele>
        <time>2018-07-01T09:44:17Z</time>
      </trkpt>
      <trkpt lat="45.29948" lon="6.6427">
        <ele>2684.3</ele>
        <time>2018-07-01T09:44:21Z</time>
      </trkpt>
      <trkpt lat="45.2995" lon="6.64266">
        <ele>2686.4</ele>
        <time>2018-07-01T09:44:26Z</time>
      </trkpt>
      <trkpt lat="45.29951" lon="6.64262">
        <ele>2688.3</ele>
        <time>2018-07-01T09:44:31Z</time>
      </trkpt>
      <trkpt lat="45.29951" lon="6.64257">
        <ele>2690.3</ele>
        <time>2018-07-01T09:44:36Z</time>
      </trkpt>
      <trkpt lat="45.29952" lon="6.64254">
        <ele>2692</ele>
        <time>2018-07-01T09:44:41Z</time>
      </trkpt>
      <trkpt lat="45.29952" lon="6.6425">
        <ele>2693.7</ele>
        <time>2018-07-01T09:44:47Z</time>
      </trkpt>
      <trkpt lat="45.29952" lon="6.64245">
        <ele>2695.7</ele>
        <time>2018-07-01T09:44:52Z</time>
      </trkpt>
      <trkpt lat="45.29951" lon="6.64241">
        <ele>2697.3</ele>
        <time>2018-07-01T09:44:58Z</time>
      </trkpt>
      <trkpt lat="45.29954" lon="6.64241">
        <ele>2698.3</ele>
        <time>2018-07-01T09:45:05Z</time>
      </trkpt>
      <trkpt lat="45.29957" lon="6.64243">
        <ele>2699.2</ele>
        <time>2018-07-01T09:45:11Z</time>
      </trkpt>
      <trkpt lat="45.29957" lon="6.64238">
        <ele>2700.1</ele>
        <time>2018-07-01T09:45:19Z</time>
      </trkpt>
      <trkpt lat="45.29958" lon="6.64235">
        <ele>2700.3</ele>
        <time>2018-07-01T09:45:24Z</time>
      </trkpt>
      <trkpt lat="45.29958" lon="6.64231">
        <ele>2700.6</ele>
        <time>2018-07-01T09:45:29Z</time>
      </trkpt>
      <trkpt lat="45.29956" lon="6.64227">
        <ele>2700.9</ele>
        <time>2018-07-01T09:45:35Z</time>
      </trkpt>
      <trkpt lat="45.29956" lon="6.64223">
        <ele>2701.7</ele>
        <time>2018-07-01T09:45:40Z</time>
      </trkpt>
      <trkpt lat="45.29956" lon="6.64219">
        <ele>2702.4</ele>
        <time>2018-07-01T09:45:45Z</time>
      </trkpt>
      <trkpt lat="45.29957" lon="6.64214">
        <ele>2703.5</ele>
        <time>2018-07-01T09:45:50Z</time>
      </trkpt>
      <trkpt lat="45.29957" lon="6.6421">
        <ele>2705.5</ele>
        <time>2018-07-01T09:45:55Z</time>
      </trkpt>
      <trkpt lat="45.29958" lon="6.64205">
        <ele>2707.7</ele>
        <time>2018-07-01T09:46:00Z</time>
      </trkpt>
      <trkpt lat="45.2996" lon="6.64201">
        <ele>2709.4</ele>
        <time>2018-07-01T09:46:06Z</time>
      </trkpt>
      <trkpt lat="45.2996" lon="6.64197">
        <ele>2710.7</ele>
        <time>2018-07-01T09:46:11Z</time>
      </trkpt>
      <trkpt lat="45.29961" lon="6.64193">
        <ele>2712.1</ele>
        <time>2018-07-01T09:46:16Z</time>
      </trkpt>
      <trkpt lat="45.29961" lon="6.64189">
        <ele>2713.6</ele>
        <time>2018-07-01T09:46:22Z</time>
      </trkpt>
      <trkpt lat="45.29962" lon="6.64185">
        <ele>2715.3</ele>
        <time>2018-07-01T09:46:29Z</time>
      </trkpt>
      <trkpt lat="45.29963" lon="6.64181">
        <ele>2717.2</ele>
        <time>2018-07-01T09:46:38Z</time>
      </trkpt>
      <trkpt lat="45.29964" lon="6.64177">
        <ele>2718.5</ele>
        <time>2018-07-01T09:46:45Z</time>
      </trkpt>
      <trkpt lat="45.29966" lon="6.64174">
        <ele>2719.7</ele>
        <time>2018-07-01T09:46:49Z</time>
      </trkpt>
      <trkpt lat="45.29967" lon="6.6417">
        <ele>2720.9</ele>
        <time>2018-07-01T09:46:56Z</time>
      </trkpt>
      <trkpt lat="45.29968" lon="6.64166">
        <ele>2722.7</ele>
        <time>2018-07-01T09:47:02Z</time>
      </trkpt>
      <trkpt lat="45.29971" lon="6.64166">
        <ele>2724.5</ele>
        <time>2018-07-01T09:47:15Z</time>
      </trkpt>
      <trkpt lat="45.29973" lon="6.64163">
        <ele>2726.3</ele>
        <time>2018-07-01T09:47:28Z</time>
      </trkpt>
      <trkpt lat="45.29975" lon="6.6416">
        <ele>2727</ele>
        <time>2018-07-01T09:47:34Z</time>
      </trkpt>
      <trkpt lat="45.29976" lon="6.64156">
        <ele>2727.5</ele>
        <time>2018-07-01T09:47:40Z</time>
      </trkpt>
      <trkpt lat="45.29976" lon="6.64152">
        <ele>2728.1</ele>
        <time>2018-07-01T09:47:46Z</time>
      </trkpt>
      <trkpt lat="45.29977" lon="6.64149">
        <ele>2728.7</ele>
        <time>2018-07-01T09:47:52Z</time>
      </trkpt>
      <trkpt lat="45.29979" lon="6.64145">
        <ele>2729.4</ele>
        <time>2018-07-01T09:48:01Z</time>
      </trkpt>
      <trkpt lat="45.2998" lon="6.64141">
        <ele>2730</ele>
        <time>2018-07-01T09:48:08Z</time>
      </trkpt>
      <trkpt lat="45.2998" lon="6.64137">
        <ele>2730.7</ele>
        <time>2018-07-01T09:48:14Z</time>
      </trkpt>
      <trkpt lat="45.29978" lon="6.64133">
        <ele>2732.1</ele>
        <time>2018-07-01T09:48:23Z</time>
      </trkpt>
      <trkpt lat="45.29977" lon="6.64129">
        <ele>2733.4</ele>
        <time>2018-07-01T09:48:27Z</time>
      </trkpt>
      <trkpt lat="45.29976" lon="6.64125">
        <ele>2734.7</ele>
        <time>2018-07-01T09:48:31Z</time>
      </trkpt>
      <trkpt lat="45.29974" lon="6.64122">
        <ele>2736.1</ele>
        <time>2018-07-01T09:48:35Z</time>
      </trkpt>
      <trkpt lat="45.29974" lon="6.64118">
        <ele>2737.5</ele>
        <time>2018-07-01T09:48:40Z</time>
      </trkpt>
      <trkpt lat="45.29975" lon="6.64114">
        <ele>2738.9</ele>
        <time>2018-07-01T09:48:44Z</time>
      </trkpt>
      <trkpt lat="45.29978" lon="6.64113">
        <ele>2740.3</ele>
        <time>2018-07-01T09:48:51Z</time>
      </trkpt>
      <trkpt lat="45.29981" lon="6.64111">
        <ele>2741.3</ele>
        <time>2018-07-01T09:48:58Z</time>
      </trkpt>
      <trkpt lat="45.29979" lon="6.64109">
        <ele>2742.3</ele>
        <time>2018-07-01T09:49:06Z</time>
      </trkpt>
      <trkpt lat="45.29977" lon="6.64105">
        <ele>2743.4</ele>
        <time>2018-07-01T09:49:11Z</time>
      </trkpt>
      <trkpt lat="45.29974" lon="6.64104">
        <ele>2743.7</ele>
        <time>2018-07-01T09:49:17Z</time>
      </trkpt>
      <trkpt lat="45.29972" lon="6.641">
        <ele>2744.1</ele>
        <time>2018-07-01T09:49:21Z</time>
      </trkpt>
      <trkpt lat="45.2997" lon="6.64096">
        <ele>2744.6</ele>
        <time>2018-07-01T09:49:26Z</time>
      </trkpt>
      <trkpt lat="45.2997" lon="6.64092">
        <ele>2745.3</ele>
        <time>2018-07-01T09:49:34Z</time>
      </trkpt>
      <trkpt lat="45.29968" lon="6.64089">
        <ele>2746</ele>
        <time>2018-07-01T09:49:39Z</time>
      </trkpt>
      <trkpt lat="45.29967" lon="6.64081">
        <ele>2747</ele>
        <time>2018-07-01T09:49:53Z</time>
      </trkpt>
      <trkpt lat="45.29965" lon="6.64077">
        <ele>2747.5</ele>
        <time>2018-07-01T09:50:02Z</time>
      </trkpt>
      <trkpt lat="45.29963" lon="6.64075">
        <ele>2748.2</ele>
        <time>2018-07-01T09:50:10Z</time>
      </trkpt>
      <trkpt lat="45.29961" lon="6.64071">
        <ele>2749.5</ele>
        <time>2018-07-01T09:50:18Z</time>
      </trkpt>
      <trkpt lat="45.29959" lon="6.64068">
        <ele>2750.7</ele>
        <time>2018-07-01T09:50:26Z</time>
      </trkpt>
      <trkpt lat="45.29961" lon="6.64063">
        <ele>2751.9</ele>
        <time>2018-07-01T09:50:35Z</time>
      </trkpt>
      <trkpt lat="45.29962" lon="6.64058">
        <ele>2752.4</ele>
        <time>2018-07-01T09:50:42Z</time>
      </trkpt>
      <trkpt lat="45.2996" lon="6.64056">
        <ele>2752.8</ele>
        <time>2018-07-01T09:50:50Z</time>
      </trkpt>
      <trkpt lat="45.29962" lon="6.64053">
        <ele>2753.8</ele>
        <time>2018-07-01T09:50:56Z</time>
      </trkpt>
      <trkpt lat="45.29965" lon="6.6405">
        <ele>2755.5</ele>
        <time>2018-07-01T09:51:03Z</time>
      </trkpt>
      <trkpt lat="45.29967" lon="6.64047">
        <ele>2757</ele>
        <time>2018-07-01T09:51:07Z</time>
      </trkpt>
      <trkpt lat="45.29969" lon="6.64044">
        <ele>2757.8</ele>
        <time>2018-07-01T09:51:13Z</time>
      </trkpt>
      <trkpt lat="45.29967" lon="6.64041">
        <ele>2758.5</ele>
        <time>2018-07-01T09:51:28Z</time>
      </trkpt>
      <trkpt lat="45.29969" lon="6.64037">
        <ele>2759.2</ele>
        <time>2018-07-01T09:51:33Z</time>
      </trkpt>
      <trkpt lat="45.29967" lon="6.64034">
        <ele>2760.3</ele>
        <time>2018-07-01T09:51:40Z</time>
      </trkpt>
      <trkpt lat="45.29964" lon="6.64033">
        <ele>2761.5</ele>
        <time>2018-07-01T09:51:49Z</time>
      </trkpt>
      <trkpt lat="45.29966" lon="6.64028">
        <ele>2762.8</ele>
        <time>2018-07-01T09:51:56Z</time>
      </trkpt>
      <trkpt lat="45.29967" lon="6.64024">
        <ele>2763.8</ele>
        <time>2018-07-01T09:52:07Z</time>
      </trkpt>
      <trkpt lat="45.29967" lon="6.6402">
        <ele>2764.8</ele>
        <time>2018-07-01T09:53:27Z</time>
      </trkpt>
      <trkpt lat="45.29968" lon="6.64016">
        <ele>2765.5</ele>
        <time>2018-07-01T09:53:32Z</time>
      </trkpt>
      <trkpt lat="45.29969" lon="6.64011">
        <ele>2765.9</ele>
        <time>2018-07-01T09:53:36Z</time>
      </trkpt>
      <trkpt lat="45.29972" lon="6.64007">
        <ele>2766.4</ele>
        <time>2018-07-01T09:53:40Z</time>
      </trkpt>
      <trkpt lat="45.29973" lon="6.64002">
        <ele>2767.2</ele>
        <time>2018-07-01T09:53:43Z</time>
      </trkpt>
      <trkpt lat="45.29973" lon="6.63998">
        <ele>2767.8</ele>
        <time>2018-07-01T09:53:46Z</time>
      </trkpt>
      <trkpt lat="45.29974" lon="6.63994">
        <ele>2768.2</ele>
        <time>2018-07-01T09:53:49Z</time>
      </trkpt>
      <trkpt lat="45.29975" lon="6.6399">
        <ele>2768.5</ele>
        <time>2018-07-01T09:53:52Z</time>
      </trkpt>
      <trkpt lat="45.29976" lon="6.63984">
        <ele>2769</ele>
        <time>2018-07-01T09:53:56Z</time>
      </trkpt>
      <trkpt lat="45.29975" lon="6.6398">
        <ele>2769.6</ele>
        <time>2018-07-01T09:54:01Z</time>
      </trkpt>
      <trkpt lat="45.29974" lon="6.63975">
        <ele>2770.2</ele>
        <time>2018-07-01T09:54:05Z</time>
      </trkpt>
      <trkpt lat="45.29975" lon="6.63971">
        <ele>2770.7</ele>
        <time>2018-07-01T09:54:10Z</time>
      </trkpt>
      <trkpt lat="45.29973" lon="6.63967">
        <ele>2771.3</ele>
        <time>2018-07-01T09:54:14Z</time>
      </trkpt>
      <trkpt lat="45.29974" lon="6.63963">
        <ele>2771.7</ele>
        <time>2018-07-01T09:54:18Z</time>
      </trkpt>
      <trkpt lat="45.29975" lon="6.63959">
        <ele>2772.4</ele>
        <time>2018-07-01T09:54:22Z</time>
      </trkpt>
      <trkpt lat="45.29975" lon="6.63955">
        <ele>2773</ele>
        <time>2018-07-01T09:54:26Z</time>
      </trkpt>
      <trkpt lat="45.29978" lon="6.63953">
        <ele>2773.5</ele>
        <time>2018-07-01T09:54:31Z</time>
      </trkpt>
      <trkpt lat="45.29981" lon="6.63951">
        <ele>2773.9</ele>
        <time>2018-07-01T09:54:59Z</time>
      </trkpt>
      <trkpt lat="45.29982" lon="6.63946">
        <ele>2774.5</ele>
        <time>2018-07-01T09:55:03Z</time>
      </trkpt>
      <trkpt lat="45.29981" lon="6.63942">
        <ele>2774.9</ele>
        <time>2018-07-01T09:55:07Z</time>
      </trkpt>
      <trkpt lat="45.29983" lon="6.63938">
        <ele>2775.5</ele>
        <time>2018-07-01T09:55:11Z</time>
      </trkpt>
      <trkpt lat="45.29984" lon="6.63935">
        <ele>2776</ele>
        <time>2018-07-01T09:55:14Z</time>
      </trkpt>
      <trkpt lat="45.29984" lon="6.63931">
        <ele>2776.5</ele>
        <time>2018-07-01T09:55:18Z</time>
      </trkpt>
      <trkpt lat="45.29983" lon="6.63926">
        <ele>2777</ele>
        <time>2018-07-01T09:55:22Z</time>
      </trkpt>
      <trkpt lat="45.29983" lon="6.63921">
        <ele>2777.5</ele>
        <time>2018-07-01T09:55:26Z</time>
      </trkpt>
      <trkpt lat="45.29983" lon="6.63917">
        <ele>2777.9</ele>
        <time>2018-07-01T09:55:29Z</time>
      </trkpt>
      <trkpt lat="45.29984" lon="6.63913">
        <ele>2778.3</ele>
        <time>2018-07-01T09:55:33Z</time>
      </trkpt>
      <trkpt lat="45.29985" lon="6.63908">
        <ele>2778.7</ele>
        <time>2018-07-01T09:55:38Z</time>
      </trkpt>
      <trkpt lat="45.2998" lon="6.63908">
        <ele>2778.5</ele>
        <time>2018-07-01T09:55:50Z</time>
      </trkpt>
      <trkpt lat="45.29977" lon="6.63909">
        <ele>2778.4</ele>
        <time>2018-07-01T09:55:57Z</time>
      </trkpt>
      <trkpt lat="45.29973" lon="6.63909">
        <ele>2778.2</ele>
        <time>2018-07-01T09:56:01Z</time>
      </trkpt>
      <trkpt lat="45.29968" lon="6.63907">
        <ele>2778</ele>
        <time>2018-07-01T09:56:43Z</time>
      </trkpt>
      <trkpt lat="45.29965" lon="6.63905">
        <ele>2777.9</ele>
        <time>2018-07-01T09:56:49Z</time>
      </trkpt>
      <trkpt lat="45.29962" lon="6.63905">
        <ele>2777.8</ele>
        <time>2018-07-01T09:56:54Z</time>
      </trkpt>
      <trkpt lat="45.29958" lon="6.63905">
        <ele>2777.6</ele>
        <time>2018-07-01T09:56:59Z</time>
      </trkpt>
      <trkpt lat="45.29955" lon="6.63905">
        <ele>2777.5</ele>
        <time>2018-07-01T09:57:04Z</time>
      </trkpt>
      <trkpt lat="45.29952" lon="6.63905">
        <ele>2777.1</ele>
        <time>2018-07-01T09:57:09Z</time>
      </trkpt>
      <trkpt lat="45.29949" lon="6.63906">
        <ele>2776.7</ele>
        <time>2018-07-01T09:57:15Z</time>
      </trkpt>
      <trkpt lat="45.29946" lon="6.63908">
        <ele>2776.3</ele>
        <time>2018-07-01T09:57:20Z</time>
      </trkpt>
      <trkpt lat="45.29943" lon="6.63908">
        <ele>2775.9</ele>
        <time>2018-07-01T09:57:32Z</time>
      </trkpt>
      <trkpt lat="45.2994" lon="6.63909">
        <ele>2775.1</ele>
        <time>2018-07-01T09:57:42Z</time>
      </trkpt>
      <trkpt lat="45.29937" lon="6.63909">
        <ele>2774.7</ele>
        <time>2018-07-01T09:57:49Z</time>
      </trkpt>
      <trkpt lat="45.29934" lon="6.63909">
        <ele>2774.8</ele>
        <time>2018-07-01T09:57:54Z</time>
      </trkpt>
      <trkpt lat="45.2993" lon="6.63909">
        <ele>2774.6</ele>
        <time>2018-07-01T09:58:02Z</time>
      </trkpt>
      <trkpt lat="45.29928" lon="6.63908">
        <ele>2774.3</ele>
        <time>2018-07-01T09:58:06Z</time>
      </trkpt>
      <trkpt lat="45.29925" lon="6.63905">
        <ele>2774.3</ele>
        <time>2018-07-01T09:58:16Z</time>
      </trkpt>
      <trkpt lat="45.29925" lon="6.63901">
        <ele>2774.4</ele>
        <time>2018-07-01T09:58:29Z</time>
      </trkpt>
      <trkpt lat="45.29926" lon="6.63898">
        <ele>2775</ele>
        <time>2018-07-01T09:58:36Z</time>
      </trkpt>
      <trkpt lat="45.29926" lon="6.63894">
        <ele>2775.3</ele>
        <time>2018-07-01T09:58:43Z</time>
      </trkpt>
      <trkpt lat="45.29925" lon="6.63889">
        <ele>2775.4</ele>
        <time>2018-07-01T09:58:50Z</time>
      </trkpt>
      <trkpt lat="45.29926" lon="6.63886">
        <ele>2775.9</ele>
        <time>2018-07-01T09:58:54Z</time>
      </trkpt>
      <trkpt lat="45.29929" lon="6.6389">
        <ele>2775.7</ele>
        <time>2018-07-01T10:01:04Z</time>
      </trkpt>
      <trkpt lat="45.29928" lon="6.63886">
        <ele>2775.9</ele>
        <time>2018-07-01T10:01:16Z</time>
      </trkpt>
      <trkpt lat="45.29927" lon="6.63884">
        <ele>2775.8</ele>
        <time>2018-07-01T10:05:16Z</time>
      </trkpt>
      <trkpt lat="45.29924" lon="6.63885">
        <ele>2775.6</ele>
        <time>2018-07-01T10:08:53Z</time>
      </trkpt>
      <trkpt lat="45.29927" lon="6.63889">
        <ele>2775.4</ele>
        <time>2018-07-01T10:27:50Z</time>
      </trkpt>
      <trkpt lat="45.29928" lon="6.63892">
        <ele>2775</ele>
        <time>2018-07-01T10:30:28Z</time>
      </trkpt>
      <trkpt lat="45.29927" lon="6.63897">
        <ele>2774.6</ele>
        <time>2018-07-01T10:30:33Z</time>
      </trkpt>
      <trkpt lat="45.29926" lon="6.63901">
        <ele>2774.2</ele>
        <time>2018-07-01T10:30:36Z</time>
      </trkpt>
      <trkpt lat="45.29927" lon="6.63906">
        <ele>2773.7</ele>
        <time>2018-07-01T10:30:40Z</time>
      </trkpt>
      <trkpt lat="45.29927" lon="6.6391">
        <ele>2773.2</ele>
        <time>2018-07-01T10:30:44Z</time>
      </trkpt>
      <trkpt lat="45.29927" lon="6.63915">
        <ele>2772.6</ele>
        <time>2018-07-01T10:30:48Z</time>
      </trkpt>
      <trkpt lat="45.29927" lon="6.63919">
        <ele>2771.9</ele>
        <time>2018-07-01T10:30:51Z</time>
      </trkpt>
      <trkpt lat="45.29927" lon="6.63924">
        <ele>2771.3</ele>
        <time>2018-07-01T10:30:55Z</time>
      </trkpt>
      <trkpt lat="45.29927" lon="6.63928">
        <ele>2770.7</ele>
        <time>2018-07-01T10:30:59Z</time>
      </trkpt>
      <trkpt lat="45.29927" lon="6.63933">
        <ele>2770.1</ele>
        <time>2018-07-01T10:31:03Z</time>
      </trkpt>
      <trkpt lat="45.29929" lon="6.63936">
        <ele>2769.8</ele>
        <time>2018-07-01T10:31:08Z</time>
      </trkpt>
      <trkpt lat="45.29931" lon="6.63938">
        <ele>2769.8</ele>
        <time>2018-07-01T10:31:13Z</time>
      </trkpt>
      <trkpt lat="45.29932" lon="6.63942">
        <ele>2769.6</ele>
        <time>2018-07-01T10:31:18Z</time>
      </trkpt>
      <trkpt lat="45.29932" lon="6.63946">
        <ele>2769</ele>
        <time>2018-07-01T10:31:23Z</time>
      </trkpt>
      <trkpt lat="45.29932" lon="6.6395">
        <ele>2768.4</ele>
        <time>2018-07-01T10:31:27Z</time>
      </trkpt>
      <trkpt lat="45.29932" lon="6.63954">
        <ele>2767.7</ele>
        <time>2018-07-01T10:31:31Z</time>
      </trkpt>
      <trkpt lat="45.29934" lon="6.63955">
        <ele>2767.7</ele>
        <time>2018-07-01T10:31:36Z</time>
      </trkpt>
      <trkpt lat="45.29937" lon="6.63955">
        <ele>2768.1</ele>
        <time>2018-07-01T10:31:42Z</time>
      </trkpt>
      <trkpt lat="45.2994" lon="6.63954">
        <ele>2768.6</ele>
        <time>2018-07-01T10:31:46Z</time>
      </trkpt>
      <trkpt lat="45.29943" lon="6.63954">
        <ele>2769.1</ele>
        <time>2018-07-01T10:31:51Z</time>
      </trkpt>
      <trkpt lat="45.29946" lon="6.63951">
        <ele>2770.3</ele>
        <time>2018-07-01T10:31:56Z</time>
      </trkpt>
      <trkpt lat="45.29949" lon="6.6395">
        <ele>2770.8</ele>
        <time>2018-07-01T10:32:00Z</time>
      </trkpt>
      <trkpt lat="45.29951" lon="6.63948">
        <ele>2771.4</ele>
        <time>2018-07-01T10:32:05Z</time>
      </trkpt>
      <trkpt lat="45.29954" lon="6.63947">
        <ele>2772.5</ele>
        <time>2018-07-01T10:32:09Z</time>
      </trkpt>
      <trkpt lat="45.29957" lon="6.63945">
        <ele>2773</ele>
        <time>2018-07-01T10:32:12Z</time>
      </trkpt>
      <trkpt lat="45.2996" lon="6.63947">
        <ele>2772.4</ele>
        <time>2018-07-01T10:32:16Z</time>
      </trkpt>
      <trkpt lat="45.29964" lon="6.63949">
        <ele>2771.7</ele>
        <time>2018-07-01T10:32:19Z</time>
      </trkpt>
      <trkpt lat="45.29966" lon="6.63951">
        <ele>2771.2</ele>
        <time>2018-07-01T10:32:22Z</time>
      </trkpt>
      <trkpt lat="45.29967" lon="6.63954">
        <ele>2770.7</ele>
        <time>2018-07-01T10:32:25Z</time>
      </trkpt>
      <trkpt lat="45.29969" lon="6.63958">
        <ele>2770.1</ele>
        <time>2018-07-01T10:32:29Z</time>
      </trkpt>
      <trkpt lat="45.2997" lon="6.63962">
        <ele>2769.5</ele>
        <time>2018-07-01T10:32:33Z</time>
      </trkpt>
      <trkpt lat="45.2997" lon="6.63966">
        <ele>2768.9</ele>
        <time>2018-07-01T10:32:36Z</time>
      </trkpt>
      <trkpt lat="45.29971" lon="6.6397">
        <ele>2768.5</ele>
        <time>2018-07-01T10:32:40Z</time>
      </trkpt>
      <trkpt lat="45.29973" lon="6.63973">
        <ele>2768.3</ele>
        <time>2018-07-01T10:32:44Z</time>
      </trkpt>
      <trkpt lat="45.29974" lon="6.63977">
        <ele>2768</ele>
        <time>2018-07-01T10:32:48Z</time>
      </trkpt>
      <trkpt lat="45.29974" lon="6.63982">
        <ele>2767.3</ele>
        <time>2018-07-01T10:32:51Z</time>
      </trkpt>
      <trkpt lat="45.29975" lon="6.63987">
        <ele>2766.5</ele>
        <time>2018-07-01T10:32:55Z</time>
      </trkpt>
      <trkpt lat="45.29974" lon="6.63991">
        <ele>2766.1</ele>
        <time>2018-07-01T10:32:57Z</time>
      </trkpt>
      <trkpt lat="45.29974" lon="6.63996">
        <ele>2765.6</ele>
        <time>2018-07-01T10:33:00Z</time>
      </trkpt>
      <trkpt lat="45.29974" lon="6.64">
        <ele>2765.3</ele>
        <time>2018-07-01T10:33:02Z</time>
      </trkpt>
      <trkpt lat="45.29974" lon="6.64004">
        <ele>2764.3</ele>
        <time>2018-07-01T10:33:05Z</time>
      </trkpt>
      <trkpt lat="45.29973" lon="6.64009">
        <ele>2763</ele>
        <time>2018-07-01T10:33:07Z</time>
      </trkpt>
      <trkpt lat="45.29973" lon="6.64012">
        <ele>2762</ele>
        <time>2018-07-01T10:33:10Z</time>
      </trkpt>
      <trkpt lat="45.29972" lon="6.64017">
        <ele>2760.7</ele>
        <time>2018-07-01T10:33:13Z</time>
      </trkpt>
      <trkpt lat="45.29972" lon="6.64021">
        <ele>2759.5</ele>
        <time>2018-07-01T10:33:16Z</time>
      </trkpt>
      <trkpt lat="45.29971" lon="6.64025">
        <ele>2758.7</ele>
        <time>2018-07-01T10:33:19Z</time>
      </trkpt>
      <trkpt lat="45.29969" lon="6.64029">
        <ele>2758</ele>
        <time>2018-07-01T10:33:22Z</time>
      </trkpt>
      <trkpt lat="45.29969" lon="6.64033">
        <ele>2757.3</ele>
        <time>2018-07-01T10:33:26Z</time>
      </trkpt>
      <trkpt lat="45.29967" lon="6.64036">
        <ele>2756</ele>
        <time>2018-07-01T10:33:30Z</time>
      </trkpt>
      <trkpt lat="45.29967" lon="6.64041">
        <ele>2754.5</ele>
        <time>2018-07-01T10:33:36Z</time>
      </trkpt>
      <trkpt lat="45.29965" lon="6.64044">
        <ele>2753</ele>
        <time>2018-07-01T10:33:39Z</time>
      </trkpt>
      <trkpt lat="45.29968" lon="6.64046">
        <ele>2752.5</ele>
        <time>2018-07-01T10:33:49Z</time>
      </trkpt>
      <trkpt lat="45.29967" lon="6.6405">
        <ele>2752.1</ele>
        <time>2018-07-01T10:33:54Z</time>
      </trkpt>
      <trkpt lat="45.2997" lon="6.64052">
        <ele>2751.6</ele>
        <time>2018-07-01T10:34:03Z</time>
      </trkpt>
      <trkpt lat="45.29973" lon="6.64053">
        <ele>2750.5</ele>
        <time>2018-07-01T10:34:08Z</time>
      </trkpt>
      <trkpt lat="45.29972" lon="6.64057">
        <ele>2749.2</ele>
        <time>2018-07-01T10:34:15Z</time>
      </trkpt>
      <trkpt lat="45.2997" lon="6.64061">
        <ele>2747.7</ele>
        <time>2018-07-01T10:34:19Z</time>
      </trkpt>
      <trkpt lat="45.29972" lon="6.64065">
        <ele>2747.3</ele>
        <time>2018-07-01T10:34:26Z</time>
      </trkpt>
      <trkpt lat="45.29971" lon="6.64069">
        <ele>2747</ele>
        <time>2018-07-01T10:34:37Z</time>
      </trkpt>
      <trkpt lat="45.29967" lon="6.6407">
        <ele>2746.5</ele>
        <time>2018-07-01T10:34:41Z</time>
      </trkpt>
      <trkpt lat="45.29965" lon="6.64072">
        <ele>2745.8</ele>
        <time>2018-07-01T10:34:45Z</time>
      </trkpt>
      <trkpt lat="45.29962" lon="6.64073">
        <ele>2745</ele>
        <time>2018-07-01T10:34:49Z</time>
      </trkpt>
      <trkpt lat="45.29961" lon="6.64077">
        <ele>2744.3</ele>
        <time>2018-07-01T10:35:04Z</time>
      </trkpt>
      <trkpt lat="45.29961" lon="6.6408">
        <ele>2744</ele>
        <time>2018-07-01T10:35:10Z</time>
      </trkpt>
      <trkpt lat="45.29963" lon="6.64083">
        <ele>2743.7</ele>
        <time>2018-07-01T10:35:17Z</time>
      </trkpt>
      <trkpt lat="45.29965" lon="6.64087">
        <ele>2743.1</ele>
        <time>2018-07-01T10:35:28Z</time>
      </trkpt>
      <trkpt lat="45.29968" lon="6.64089">
        <ele>2742</ele>
        <time>2018-07-01T10:35:37Z</time>
      </trkpt>
      <trkpt lat="45.29968" lon="6.64093">
        <ele>2741</ele>
        <time>2018-07-01T10:35:44Z</time>
      </trkpt>
      <trkpt lat="45.29967" lon="6.64097">
        <ele>2739.9</ele>
        <time>2018-07-01T10:35:49Z</time>
      </trkpt>
      <trkpt lat="45.29966" lon="6.64101">
        <ele>2738.7</ele>
        <time>2018-07-01T10:35:55Z</time>
      </trkpt>
      <trkpt lat="45.29968" lon="6.64104">
        <ele>2737.4</ele>
        <time>2018-07-01T10:36:01Z</time>
      </trkpt>
      <trkpt lat="45.2997" lon="6.64107">
        <ele>2735.9</ele>
        <time>2018-07-01T10:36:07Z</time>
      </trkpt>
      <trkpt lat="45.2997" lon="6.64111">
        <ele>2734.6</ele>
        <time>2018-07-01T10:36:11Z</time>
      </trkpt>
      <trkpt lat="45.29971" lon="6.64115">
        <ele>2733.3</ele>
        <time>2018-07-01T10:36:16Z</time>
      </trkpt>
      <trkpt lat="45.29972" lon="6.64119">
        <ele>2732</ele>
        <time>2018-07-01T10:36:22Z</time>
      </trkpt>
      <trkpt lat="45.29972" lon="6.64123">
        <ele>2730.6</ele>
        <time>2018-07-01T10:36:27Z</time>
      </trkpt>
      <trkpt lat="45.29974" lon="6.64127">
        <ele>2730</ele>
        <time>2018-07-01T10:36:30Z</time>
      </trkpt>
      <trkpt lat="45.29974" lon="6.64131">
        <ele>2729.2</ele>
        <time>2018-07-01T10:36:34Z</time>
      </trkpt>
      <trkpt lat="45.29975" lon="6.64135">
        <ele>2728.5</ele>
        <time>2018-07-01T10:36:38Z</time>
      </trkpt>
      <trkpt lat="45.29976" lon="6.64139">
        <ele>2728</ele>
        <time>2018-07-01T10:36:41Z</time>
      </trkpt>
      <trkpt lat="45.29978" lon="6.64142">
        <ele>2727.4</ele>
        <time>2018-07-01T10:36:47Z</time>
      </trkpt>
      <trkpt lat="45.29978" lon="6.64147">
        <ele>2726.8</ele>
        <time>2018-07-01T10:36:53Z</time>
      </trkpt>
      <trkpt lat="45.29978" lon="6.64157">
        <ele>2722.8</ele>
        <time>2018-07-01T10:37:28Z</time>
      </trkpt>
      <trkpt lat="45.29977" lon="6.64161">
        <ele>2721.1</ele>
        <time>2018-07-01T10:37:33Z</time>
      </trkpt>
      <trkpt lat="45.29976" lon="6.64166">
        <ele>2719.6</ele>
        <time>2018-07-01T10:37:41Z</time>
      </trkpt>
      <trkpt lat="45.29974" lon="6.6417">
        <ele>2718.3</ele>
        <time>2018-07-01T10:37:45Z</time>
      </trkpt>
      <trkpt lat="45.29972" lon="6.64174">
        <ele>2716.5</ele>
        <time>2018-07-01T10:37:50Z</time>
      </trkpt>
      <trkpt lat="45.29972" lon="6.64178">
        <ele>2714.9</ele>
        <time>2018-07-01T10:37:54Z</time>
      </trkpt>
      <trkpt lat="45.29971" lon="6.64182">
        <ele>2713</ele>
        <time>2018-07-01T10:38:00Z</time>
      </trkpt>
      <trkpt lat="45.29967" lon="6.6418">
        <ele>2711.3</ele>
        <time>2018-07-01T10:38:06Z</time>
      </trkpt>
      <trkpt lat="45.29965" lon="6.64181">
        <ele>2710</ele>
        <time>2018-07-01T10:38:14Z</time>
      </trkpt>
      <trkpt lat="45.29963" lon="6.64185">
        <ele>2708.6</ele>
        <time>2018-07-01T10:38:20Z</time>
      </trkpt>
      <trkpt lat="45.29962" lon="6.64189">
        <ele>2706.5</ele>
        <time>2018-07-01T10:38:26Z</time>
      </trkpt>
      <trkpt lat="45.29962" lon="6.64193">
        <ele>2704.6</ele>
        <time>2018-07-01T10:38:30Z</time>
      </trkpt>
      <trkpt lat="45.2996" lon="6.64197">
        <ele>2702.9</ele>
        <time>2018-07-01T10:38:36Z</time>
      </trkpt>
      <trkpt lat="45.29959" lon="6.64201">
        <ele>2702</ele>
        <time>2018-07-01T10:38:41Z</time>
      </trkpt>
      <trkpt lat="45.29958" lon="6.64205">
        <ele>2701.3</ele>
        <time>2018-07-01T10:38:49Z</time>
      </trkpt>
      <trkpt lat="45.29957" lon="6.64208">
        <ele>2700.7</ele>
        <time>2018-07-01T10:38:54Z</time>
      </trkpt>
      <trkpt lat="45.29956" lon="6.64212">
        <ele>2700.5</ele>
        <time>2018-07-01T10:38:58Z</time>
      </trkpt>
      <trkpt lat="45.29956" lon="6.64217">
        <ele>2700.2</ele>
        <time>2018-07-01T10:39:03Z</time>
      </trkpt>
      <trkpt lat="45.29956" lon="6.64221">
        <ele>2699.5</ele>
        <time>2018-07-01T10:39:07Z</time>
      </trkpt>
      <trkpt lat="45.29956" lon="6.64225">
        <ele>2698.6</ele>
        <time>2018-07-01T10:39:12Z</time>
      </trkpt>
      <trkpt lat="45.29955" lon="6.64229">
        <ele>2697.7</ele>
        <time>2018-07-01T10:39:18Z</time>
      </trkpt>
      <trkpt lat="45.29955" lon="6.64233">
        <ele>2696.1</ele>
        <time>2018-07-01T10:39:25Z</time>
      </trkpt>
      <trkpt lat="45.29956" lon="6.64239">
        <ele>2693.5</ele>
        <time>2018-07-01T10:39:41Z</time>
      </trkpt>
      <trkpt lat="45.29955" lon="6.64243">
        <ele>2691.7</ele>
        <time>2018-07-01T10:39:46Z</time>
      </trkpt>
      <trkpt lat="45.29955" lon="6.64247">
        <ele>2689.9</ele>
        <time>2018-07-01T10:39:50Z</time>
      </trkpt>
      <trkpt lat="45.29954" lon="6.64251">
        <ele>2688</ele>
        <time>2018-07-01T10:39:55Z</time>
      </trkpt>
      <trkpt lat="45.29951" lon="6.64251">
        <ele>2686.1</ele>
        <time>2018-07-01T10:40:00Z</time>
      </trkpt>
      <trkpt lat="45.29948" lon="6.64249">
        <ele>2683.5</ele>
        <time>2018-07-01T10:40:04Z</time>
      </trkpt>
      <trkpt lat="45.29947" lon="6.64252">
        <ele>2681.3</ele>
        <time>2018-07-01T10:40:12Z</time>
      </trkpt>
      <trkpt lat="45.29946" lon="6.64256">
        <ele>2679.1</ele>
        <time>2018-07-01T10:40:17Z</time>
      </trkpt>
      <trkpt lat="45.29944" lon="6.6426">
        <ele>2676.6</ele>
        <time>2018-07-01T10:40:25Z</time>
      </trkpt>
      <trkpt lat="45.29942" lon="6.64264">
        <ele>2675.1</ele>
        <time>2018-07-01T10:40:30Z</time>
      </trkpt>
      <trkpt lat="45.29941" lon="6.64268">
        <ele>2673.9</ele>
        <time>2018-07-01T10:40:34Z</time>
      </trkpt>
      <trkpt lat="45.29942" lon="6.64272">
        <ele>2672.5</ele>
        <time>2018-07-01T10:40:38Z</time>
      </trkpt>
      <trkpt lat="45.29941" lon="6.64276">
        <ele>2671.2</ele>
        <time>2018-07-01T10:40:42Z</time>
      </trkpt>
      <trkpt lat="45.29941" lon="6.6428">
        <ele>2669.7</ele>
        <time>2018-07-01T10:40:46Z</time>
      </trkpt>
      <trkpt lat="45.29944" lon="6.64283">
        <ele>2667.8</ele>
        <time>2018-07-01T10:40:50Z</time>
      </trkpt>
      <trkpt lat="45.29942" lon="6.64286">
        <ele>2665.9</ele>
        <time>2018-07-01T10:40:55Z</time>
      </trkpt>
      <trkpt lat="45.29942" lon="6.64291">
        <ele>2664</ele>
        <time>2018-07-01T10:41:01Z</time>
      </trkpt>
      <trkpt lat="45.29943" lon="6.64294">
        <ele>2662.9</ele>
        <time>2018-07-01T10:41:05Z</time>
      </trkpt>
      <trkpt lat="45.29946" lon="6.64297">
        <ele>2661.6</ele>
        <time>2018-07-01T10:41:09Z</time>
      </trkpt>
      <trkpt lat="45.29948" lon="6.64299">
        <ele>2660.7</ele>
        <time>2018-07-01T10:41:14Z</time>
      </trkpt>
      <trkpt lat="45.29949" lon="6.64303">
        <ele>2659.8</ele>
        <time>2018-07-01T10:41:18Z</time>
      </trkpt>
      <trkpt lat="45.29951" lon="6.64308">
        <ele>2658.9</ele>
        <time>2018-07-01T10:41:22Z</time>
      </trkpt>
      <trkpt lat="45.29951" lon="6.64312">
        <ele>2659.1</ele>
        <time>2018-07-01T10:41:25Z</time>
      </trkpt>
      <trkpt lat="45.29952" lon="6.64316">
        <ele>2659.2</ele>
        <time>2018-07-01T10:41:28Z</time>
      </trkpt>
      <trkpt lat="45.29955" lon="6.64319">
        <ele>2659.4</ele>
        <time>2018-07-01T10:41:33Z</time>
      </trkpt>
      <trkpt lat="45.29956" lon="6.64323">
        <ele>2659</ele>
        <time>2018-07-01T10:41:37Z</time>
      </trkpt>
      <trkpt lat="45.29957" lon="6.64328">
        <ele>2658.6</ele>
        <time>2018-07-01T10:41:41Z</time>
      </trkpt>
      <trkpt lat="45.29957" lon="6.64331">
        <ele>2658.3</ele>
        <time>2018-07-01T10:41:45Z</time>
      </trkpt>
      <trkpt lat="45.29957" lon="6.64336">
        <ele>2655.9</ele>
        <time>2018-07-01T10:41:51Z</time>
      </trkpt>
      <trkpt lat="45.29957" lon="6.6434">
        <ele>2653.4</ele>
        <time>2018-07-01T10:41:57Z</time>
      </trkpt>
      <trkpt lat="45.29959" lon="6.64344">
        <ele>2651.4</ele>
        <time>2018-07-01T10:42:02Z</time>
      </trkpt>
      <trkpt lat="45.29957" lon="6.64347">
        <ele>2650.1</ele>
        <time>2018-07-01T10:42:11Z</time>
      </trkpt>
      <trkpt lat="45.29954" lon="6.64346">
        <ele>2648.9</ele>
        <time>2018-07-01T10:42:14Z</time>
      </trkpt>
      <trkpt lat="45.2995" lon="6.64345">
        <ele>2647.7</ele>
        <time>2018-07-01T10:42:17Z</time>
      </trkpt>
      <trkpt lat="45.29948" lon="6.64346">
        <ele>2646.8</ele>
        <time>2018-07-01T10:42:20Z</time>
      </trkpt>
      <trkpt lat="45.29944" lon="6.64344">
        <ele>2645.5</ele>
        <time>2018-07-01T10:42:24Z</time>
      </trkpt>
      <trkpt lat="45.29942" lon="6.64342">
        <ele>2643.8</ele>
        <time>2018-07-01T10:42:27Z</time>
      </trkpt>
      <trkpt lat="45.29939" lon="6.64341">
        <ele>2642.3</ele>
        <time>2018-07-01T10:42:31Z</time>
      </trkpt>
      <trkpt lat="45.29936" lon="6.64339">
        <ele>2640.9</ele>
        <time>2018-07-01T10:42:36Z</time>
      </trkpt>
      <trkpt lat="45.29933" lon="6.6434">
        <ele>2639.8</ele>
        <time>2018-07-01T10:42:41Z</time>
      </trkpt>
      <trkpt lat="45.29932" lon="6.64344">
        <ele>2638.5</ele>
        <time>2018-07-01T10:42:47Z</time>
      </trkpt>
      <trkpt lat="45.2993" lon="6.64348">
        <ele>2637</ele>
        <time>2018-07-01T10:42:51Z</time>
      </trkpt>
      <trkpt lat="45.29928" lon="6.64352">
        <ele>2635.2</ele>
        <time>2018-07-01T10:42:56Z</time>
      </trkpt>
      <trkpt lat="45.29925" lon="6.64355">
        <ele>2633.1</ele>
        <time>2018-07-01T10:43:00Z</time>
      </trkpt>
      <trkpt lat="45.29923" lon="6.64357">
        <ele>2631.4</ele>
        <time>2018-07-01T10:43:03Z</time>
      </trkpt>
      <trkpt lat="45.29921" lon="6.64361">
        <ele>2629.3</ele>
        <time>2018-07-01T10:43:08Z</time>
      </trkpt>
      <trkpt lat="45.29919" lon="6.64363">
        <ele>2627.7</ele>
        <time>2018-07-01T10:43:12Z</time>
      </trkpt>
      <trkpt lat="45.29918" lon="6.64367">
        <ele>2626.2</ele>
        <time>2018-07-01T10:43:17Z</time>
      </trkpt>
      <trkpt lat="45.2992" lon="6.64371">
        <ele>2624.4</ele>
        <time>2018-07-01T10:43:22Z</time>
      </trkpt>
      <trkpt lat="45.29919" lon="6.64375">
        <ele>2624.5</ele>
        <time>2018-07-01T10:43:27Z</time>
      </trkpt>
      <trkpt lat="45.29916" lon="6.64375">
        <ele>2624.1</ele>
        <time>2018-07-01T10:43:30Z</time>
      </trkpt>
      <trkpt lat="45.29913" lon="6.64375">
        <ele>2622.8</ele>
        <time>2018-07-01T10:43:34Z</time>
      </trkpt>
      <trkpt lat="45.29914" lon="6.64379">
        <ele>2621.2</ele>
        <time>2018-07-01T10:43:39Z</time>
      </trkpt>
      <trkpt lat="45.29916" lon="6.64383">
        <ele>2619.2</ele>
        <time>2018-07-01T10:43:43Z</time>
      </trkpt>
      <trkpt lat="45.29918" lon="6.64385">
        <ele>2617.4</ele>
        <time>2018-07-01T10:43:47Z</time>
      </trkpt>
      <trkpt lat="45.29919" lon="6.64389">
        <ele>2615.5</ele>
        <time>2018-07-01T10:43:51Z</time>
      </trkpt>
      <trkpt lat="45.29921" lon="6.64393">
        <ele>2613.2</ele>
        <time>2018-07-01T10:43:56Z</time>
      </trkpt>
      <trkpt lat="45.29919" lon="6.64397">
        <ele>2610.9</ele>
        <time>2018-07-01T10:43:59Z</time>
      </trkpt>
      <trkpt lat="45.29916" lon="6.64397">
        <ele>2609.7</ele>
        <time>2018-07-01T10:44:03Z</time>
      </trkpt>
      <trkpt lat="45.29912" lon="6.64397">
        <ele>2608.5</ele>
        <time>2018-07-01T10:44:07Z</time>
      </trkpt>
      <trkpt lat="45.29911" lon="6.64401">
        <ele>2606.9</ele>
        <time>2018-07-01T10:44:14Z</time>
      </trkpt>
      <trkpt lat="45.29912" lon="6.64405">
        <ele>2605.1</ele>
        <time>2018-07-01T10:44:19Z</time>
      </trkpt>
      <trkpt lat="45.29913" lon="6.64408">
        <ele>2603.2</ele>
        <time>2018-07-01T10:44:24Z</time>
      </trkpt>
      <trkpt lat="45.29911" lon="6.64412">
        <ele>2602.1</ele>
        <time>2018-07-01T10:44:28Z</time>
      </trkpt>
      <trkpt lat="45.29909" lon="6.64411">
        <ele>2601.1</ele>
        <time>2018-07-01T10:44:32Z</time>
      </trkpt>
      <trkpt lat="45.29906" lon="6.64411">
        <ele>2600.7</ele>
        <time>2018-07-01T10:44:36Z</time>
      </trkpt>
      <trkpt lat="45.29905" lon="6.64416">
        <ele>2600.7</ele>
        <time>2018-07-01T10:44:43Z</time>
      </trkpt>
      <trkpt lat="45.29904" lon="6.6442">
        <ele>2600.5</ele>
        <time>2018-07-01T10:44:46Z</time>
      </trkpt>
      <trkpt lat="45.29904" lon="6.64425">
        <ele>2599.5</ele>
        <time>2018-07-01T10:44:51Z</time>
      </trkpt>
      <trkpt lat="45.29904" lon="6.64429">
        <ele>2598.7</ele>
        <time>2018-07-01T10:44:54Z</time>
      </trkpt>
      <trkpt lat="45.29904" lon="6.64434">
        <ele>2598.7</ele>
        <time>2018-07-01T10:44:58Z</time>
      </trkpt>
      <trkpt lat="45.29905" lon="6.64438">
        <ele>2598.7</ele>
        <time>2018-07-01T10:45:02Z</time>
      </trkpt>
      <trkpt lat="45.29905" lon="6.64443">
        <ele>2597.4</ele>
        <time>2018-07-01T10:45:06Z</time>
      </trkpt>
      <trkpt lat="45.29905" lon="6.64447">
        <ele>2596</ele>
        <time>2018-07-01T10:45:11Z</time>
      </trkpt>
      <trkpt lat="45.29906" lon="6.64451">
        <ele>2593.7</ele>
        <time>2018-07-01T10:45:16Z</time>
      </trkpt>
      <trkpt lat="45.29906" lon="6.64456">
        <ele>2590.9</ele>
        <time>2018-07-01T10:45:21Z</time>
      </trkpt>
      <trkpt lat="45.29905" lon="6.6446">
        <ele>2589.2</ele>
        <time>2018-07-01T10:45:25Z</time>
      </trkpt>
      <trkpt lat="45.29902" lon="6.64461">
        <ele>2587.7</ele>
        <time>2018-07-01T10:45:28Z</time>
      </trkpt>
      <trkpt lat="45.29899" lon="6.64461">
        <ele>2586.2</ele>
        <time>2018-07-01T10:45:31Z</time>
      </trkpt>
      <trkpt lat="45.29896" lon="6.6446">
        <ele>2584.9</ele>
        <time>2018-07-01T10:45:34Z</time>
      </trkpt>
      <trkpt lat="45.29894" lon="6.64459">
        <ele>2583.6</ele>
        <time>2018-07-01T10:45:38Z</time>
      </trkpt>
      <trkpt lat="45.29891" lon="6.64457">
        <ele>2582.3</ele>
        <time>2018-07-01T10:45:42Z</time>
      </trkpt>
      <trkpt lat="45.29889" lon="6.6446">
        <ele>2581.2</ele>
        <time>2018-07-01T10:45:50Z</time>
      </trkpt>
      <trkpt lat="45.29888" lon="6.64464">
        <ele>2580.7</ele>
        <time>2018-07-01T10:45:55Z</time>
      </trkpt>
      <trkpt lat="45.29889" lon="6.64469">
        <ele>2580.2</ele>
        <time>2018-07-01T10:45:59Z</time>
      </trkpt>
      <trkpt lat="45.29891" lon="6.64471">
        <ele>2579.5</ele>
        <time>2018-07-01T10:46:03Z</time>
      </trkpt>
      <trkpt lat="45.29892" lon="6.64475">
        <ele>2578.1</ele>
        <time>2018-07-01T10:46:07Z</time>
      </trkpt>
      <trkpt lat="45.29894" lon="6.64478">
        <ele>2576.5</ele>
        <time>2018-07-01T10:46:11Z</time>
      </trkpt>
      <trkpt lat="45.29892" lon="6.64482">
        <ele>2575.1</ele>
        <time>2018-07-01T10:46:14Z</time>
      </trkpt>
      <trkpt lat="45.2989" lon="6.64485">
        <ele>2573.7</ele>
        <time>2018-07-01T10:46:17Z</time>
      </trkpt>
      <trkpt lat="45.29887" lon="6.64487">
        <ele>2572.6</ele>
        <time>2018-07-01T10:46:20Z</time>
      </trkpt>
      <trkpt lat="45.29885" lon="6.64489">
        <ele>2571.3</ele>
        <time>2018-07-01T10:46:23Z</time>
      </trkpt>
      <trkpt lat="45.29883" lon="6.64493">
        <ele>2569.9</ele>
        <time>2018-07-01T10:46:26Z</time>
      </trkpt>
      <trkpt lat="45.29881" lon="6.64496">
        <ele>2568.4</ele>
        <time>2018-07-01T10:46:29Z</time>
      </trkpt>
      <trkpt lat="45.29878" lon="6.64499">
        <ele>2567.2</ele>
        <time>2018-07-01T10:46:32Z</time>
      </trkpt>
      <trkpt lat="45.29877" lon="6.64504">
        <ele>2566</ele>
        <time>2018-07-01T10:46:35Z</time>
      </trkpt>
      <trkpt lat="45.29875" lon="6.64508">
        <ele>2564.8</ele>
        <time>2018-07-01T10:46:39Z</time>
      </trkpt>
      <trkpt lat="45.29875" lon="6.64513">
        <ele>2563.7</ele>
        <time>2018-07-01T10:46:43Z</time>
      </trkpt>
      <trkpt lat="45.29873" lon="6.64516">
        <ele>2562.7</ele>
        <time>2018-07-01T10:46:47Z</time>
      </trkpt>
      <trkpt lat="45.29871" lon="6.64519">
        <ele>2562.3</ele>
        <time>2018-07-01T10:46:51Z</time>
      </trkpt>
      <trkpt lat="45.29869" lon="6.64522">
        <ele>2561.8</ele>
        <time>2018-07-01T10:46:55Z</time>
      </trkpt>
      <trkpt lat="45.29868" lon="6.64526">
        <ele>2561.3</ele>
        <time>2018-07-01T10:46:59Z</time>
      </trkpt>
      <trkpt lat="45.29866" lon="6.64529">
        <ele>2560.6</ele>
        <time>2018-07-01T10:47:02Z</time>
      </trkpt>
      <trkpt lat="45.29864" lon="6.64533">
        <ele>2559.9</ele>
        <time>2018-07-01T10:47:05Z</time>
      </trkpt>
      <trkpt lat="45.29862" lon="6.64536">
        <ele>2559.5</ele>
        <time>2018-07-01T10:47:08Z</time>
      </trkpt>
      <trkpt lat="45.2986" lon="6.6454">
        <ele>2559.1</ele>
        <time>2018-07-01T10:47:12Z</time>
      </trkpt>
      <trkpt lat="45.29858" lon="6.64543">
        <ele>2558.8</ele>
        <time>2018-07-01T10:47:16Z</time>
      </trkpt>
      <trkpt lat="45.29856" lon="6.64546">
        <ele>2558.4</ele>
        <time>2018-07-01T10:47:19Z</time>
      </trkpt>
      <trkpt lat="45.29854" lon="6.6455">
        <ele>2558.1</ele>
        <time>2018-07-01T10:47:23Z</time>
      </trkpt>
      <trkpt lat="45.29855" lon="6.64554">
        <ele>2557.8</ele>
        <time>2018-07-01T10:47:27Z</time>
      </trkpt>
      <trkpt lat="45.29853" lon="6.64558">
        <ele>2557.3</ele>
        <time>2018-07-01T10:47:33Z</time>
      </trkpt>
      <trkpt lat="45.29851" lon="6.64562">
        <ele>2556.9</ele>
        <time>2018-07-01T10:47:38Z</time>
      </trkpt>
      <trkpt lat="45.2985" lon="6.64566">
        <ele>2556.7</ele>
        <time>2018-07-01T10:47:41Z</time>
      </trkpt>
      <trkpt lat="45.29849" lon="6.6457">
        <ele>2556.6</ele>
        <time>2018-07-01T10:47:44Z</time>
      </trkpt>
      <trkpt lat="45.29848" lon="6.64574">
        <ele>2556.6</ele>
        <time>2018-07-01T10:47:48Z</time>
      </trkpt>
      <trkpt lat="45.29847" lon="6.64578">
        <ele>2556.5</ele>
        <time>2018-07-01T10:47:52Z</time>
      </trkpt>
      <trkpt lat="45.29847" lon="6.64583">
        <ele>2556.4</ele>
        <time>2018-07-01T10:47:56Z</time>
      </trkpt>
      <trkpt lat="45.29845" lon="6.64587">
        <ele>2556.3</ele>
        <time>2018-07-01T10:48:00Z</time>
      </trkpt>
      <trkpt lat="45.29843" lon="6.64591">
        <ele>2556.2</ele>
        <time>2018-07-01T10:48:04Z</time>
      </trkpt>
      <trkpt lat="45.29841" lon="6.64594">
        <ele>2556.1</ele>
        <time>2018-07-01T10:48:07Z</time>
      </trkpt>
      <trkpt lat="45.29839" lon="6.64598">
        <ele>2556</ele>
        <time>2018-07-01T10:48:10Z</time>
      </trkpt>
      <trkpt lat="45.29839" lon="6.64602">
        <ele>2556</ele>
        <time>2018-07-01T10:48:13Z</time>
      </trkpt>
      <trkpt lat="45.2984" lon="6.64606">
        <ele>2555.6</ele>
        <time>2018-07-01T10:48:18Z</time>
      </trkpt>
      <trkpt lat="45.29839" lon="6.64611">
        <ele>2555.3</ele>
        <time>2018-07-01T10:48:22Z</time>
      </trkpt>
      <trkpt lat="45.29837" lon="6.64616">
        <ele>2555</ele>
        <time>2018-07-01T10:48:26Z</time>
      </trkpt>
      <trkpt lat="45.29835" lon="6.64619">
        <ele>2555</ele>
        <time>2018-07-01T10:48:29Z</time>
      </trkpt>
      <trkpt lat="45.29833" lon="6.64623">
        <ele>2554.9</ele>
        <time>2018-07-01T10:48:33Z</time>
      </trkpt>
      <trkpt lat="45.29831" lon="6.64627">
        <ele>2554.7</ele>
        <time>2018-07-01T10:48:37Z</time>
      </trkpt>
      <trkpt lat="45.29829" lon="6.64631">
        <ele>2554.6</ele>
        <time>2018-07-01T10:48:40Z</time>
      </trkpt>
      <trkpt lat="45.29829" lon="6.64635">
        <ele>2554.4</ele>
        <time>2018-07-01T10:48:44Z</time>
      </trkpt>
      <trkpt lat="45.29828" lon="6.64639">
        <ele>2554.3</ele>
        <time>2018-07-01T10:48:47Z</time>
      </trkpt>
      <trkpt lat="45.29827" lon="6.64643">
        <ele>2554.1</ele>
        <time>2018-07-01T10:48:51Z</time>
      </trkpt>
      <trkpt lat="45.29827" lon="6.64648">
        <ele>2553.9</ele>
        <time>2018-07-01T10:48:56Z</time>
      </trkpt>
      <trkpt lat="45.29828" lon="6.64652">
        <ele>2553.7</ele>
        <time>2018-07-01T10:49:05Z</time>
      </trkpt>
      <trkpt lat="45.29827" lon="6.64656">
        <ele>2553.5</ele>
        <time>2018-07-01T10:49:08Z</time>
      </trkpt>
      <trkpt lat="45.29826" lon="6.64661">
        <ele>2553.3</ele>
        <time>2018-07-01T10:49:11Z</time>
      </trkpt>
      <trkpt lat="45.29825" lon="6.64664">
        <ele>2553.1</ele>
        <time>2018-07-01T10:49:14Z</time>
      </trkpt>
      <trkpt lat="45.29823" lon="6.64667">
        <ele>2552.9</ele>
        <time>2018-07-01T10:49:17Z</time>
      </trkpt>
      <trkpt lat="45.2982" lon="6.64669">
        <ele>2552.7</ele>
        <time>2018-07-01T10:49:19Z</time>
      </trkpt>
      <trkpt lat="45.29818" lon="6.64672">
        <ele>2552.5</ele>
        <time>2018-07-01T10:49:22Z</time>
      </trkpt>
      <trkpt lat="45.29817" lon="6.64676">
        <ele>2552.4</ele>
        <time>2018-07-01T10:49:26Z</time>
      </trkpt>
      <trkpt lat="45.29816" lon="6.6468">
        <ele>2552.2</ele>
        <time>2018-07-01T10:49:30Z</time>
      </trkpt>
      <trkpt lat="45.29814" lon="6.64684">
        <ele>2552.1</ele>
        <time>2018-07-01T10:49:33Z</time>
      </trkpt>
      <trkpt lat="45.29813" lon="6.64689">
        <ele>2551.8</ele>
        <time>2018-07-01T10:49:37Z</time>
      </trkpt>
      <trkpt lat="45.29813" lon="6.64694">
        <ele>2551.3</ele>
        <time>2018-07-01T10:49:41Z</time>
      </trkpt>
      <trkpt lat="45.29811" lon="6.64699">
        <ele>2550.8</ele>
        <time>2018-07-01T10:49:45Z</time>
      </trkpt>
      <trkpt lat="45.29811" lon="6.64703">
        <ele>2550.5</ele>
        <time>2018-07-01T10:49:49Z</time>
      </trkpt>
      <trkpt lat="45.29811" lon="6.64708">
        <ele>2550.3</ele>
        <time>2018-07-01T10:49:53Z</time>
      </trkpt>
      <trkpt lat="45.2981" lon="6.64713">
        <ele>2550.2</ele>
        <time>2018-07-01T10:49:57Z</time>
      </trkpt>
      <trkpt lat="45.29809" lon="6.64717">
        <ele>2549.7</ele>
        <time>2018-07-01T10:50:00Z</time>
      </trkpt>
      <trkpt lat="45.29807" lon="6.64721">
        <ele>2549.2</ele>
        <time>2018-07-01T10:50:03Z</time>
      </trkpt>
      <trkpt lat="45.29806" lon="6.64725">
        <ele>2548.5</ele>
        <time>2018-07-01T10:50:07Z</time>
      </trkpt>
      <trkpt lat="45.29805" lon="6.6473">
        <ele>2548</ele>
        <time>2018-07-01T10:50:11Z</time>
      </trkpt>
      <trkpt lat="45.29804" lon="6.64735">
        <ele>2547.5</ele>
        <time>2018-07-01T10:50:15Z</time>
      </trkpt>
      <trkpt lat="45.29805" lon="6.64739">
        <ele>2547</ele>
        <time>2018-07-01T10:50:21Z</time>
      </trkpt>
      <trkpt lat="45.29808" lon="6.64742">
        <ele>2546.4</ele>
        <time>2018-07-01T10:50:25Z</time>
      </trkpt>
      <trkpt lat="45.2981" lon="6.64745">
        <ele>2545.9</ele>
        <time>2018-07-01T10:50:29Z</time>
      </trkpt>
      <trkpt lat="45.29812" lon="6.64748">
        <ele>2545.1</ele>
        <time>2018-07-01T10:50:32Z</time>
      </trkpt>
      <trkpt lat="45.29815" lon="6.64751">
        <ele>2543.8</ele>
        <time>2018-07-01T10:50:36Z</time>
      </trkpt>
      <trkpt lat="45.29818" lon="6.64752">
        <ele>2542.7</ele>
        <time>2018-07-01T10:50:40Z</time>
      </trkpt>
      <trkpt lat="45.29821" lon="6.64755">
        <ele>2541.7</ele>
        <time>2018-07-01T10:50:44Z</time>
      </trkpt>
      <trkpt lat="45.2982" lon="6.64759">
        <ele>2540.9</ele>
        <time>2018-07-01T10:50:47Z</time>
      </trkpt>
      <trkpt lat="45.29819" lon="6.64763">
        <ele>2540.1</ele>
        <time>2018-07-01T10:50:50Z</time>
      </trkpt>
      <trkpt lat="45.29821" lon="6.64768">
        <ele>2538.3</ele>
        <time>2018-07-01T10:52:49Z</time>
      </trkpt>
      <trkpt lat="45.29821" lon="6.64772">
        <ele>2536.8</ele>
        <time>2018-07-01T10:52:52Z</time>
      </trkpt>
      <trkpt lat="45.29821" lon="6.64777">
        <ele>2535.2</ele>
        <time>2018-07-01T10:52:55Z</time>
      </trkpt>
      <trkpt lat="45.2982" lon="6.64782">
        <ele>2534</ele>
        <time>2018-07-01T10:52:59Z</time>
      </trkpt>
      <trkpt lat="45.29817" lon="6.64785">
        <ele>2532.8</ele>
        <time>2018-07-01T10:53:02Z</time>
      </trkpt>
      <trkpt lat="45.29814" lon="6.64788">
        <ele>2531.8</ele>
        <time>2018-07-01T10:53:05Z</time>
      </trkpt>
      <trkpt lat="45.29812" lon="6.6479">
        <ele>2530.8</ele>
        <time>2018-07-01T10:53:10Z</time>
      </trkpt>
      <trkpt lat="45.2981" lon="6.64793">
        <ele>2529.8</ele>
        <time>2018-07-01T10:53:13Z</time>
      </trkpt>
      <trkpt lat="45.29808" lon="6.64797">
        <ele>2528.3</ele>
        <time>2018-07-01T10:53:16Z</time>
      </trkpt>
      <trkpt lat="45.29808" lon="6.64801">
        <ele>2526.5</ele>
        <time>2018-07-01T10:53:20Z</time>
      </trkpt>
      <trkpt lat="45.29808" lon="6.64805">
        <ele>2524.5</ele>
        <time>2018-07-01T10:53:24Z</time>
      </trkpt>
      <trkpt lat="45.29807" lon="6.64809">
        <ele>2523.4</ele>
        <time>2018-07-01T10:53:27Z</time>
      </trkpt>
      <trkpt lat="45.29807" lon="6.64814">
        <ele>2522.7</ele>
        <time>2018-07-01T10:53:31Z</time>
      </trkpt>
      <trkpt lat="45.29806" lon="6.64818">
        <ele>2522.1</ele>
        <time>2018-07-01T10:53:35Z</time>
      </trkpt>
      <trkpt lat="45.29805" lon="6.64823">
        <ele>2521.4</ele>
        <time>2018-07-01T10:53:39Z</time>
      </trkpt>
      <trkpt lat="45.29805" lon="6.64826">
        <ele>2520.9</ele>
        <time>2018-07-01T10:53:44Z</time>
      </trkpt>
      <trkpt lat="45.29805" lon="6.64831">
        <ele>2520.3</ele>
        <time>2018-07-01T10:53:48Z</time>
      </trkpt>
      <trkpt lat="45.29805" lon="6.64836">
        <ele>2519.7</ele>
        <time>2018-07-01T10:53:52Z</time>
      </trkpt>
      <trkpt lat="45.29805" lon="6.6484">
        <ele>2519</ele>
        <time>2018-07-01T10:53:56Z</time>
      </trkpt>
      <trkpt lat="45.29804" lon="6.64845">
        <ele>2518.1</ele>
        <time>2018-07-01T10:53:59Z</time>
      </trkpt>
      <trkpt lat="45.29802" lon="6.64847">
        <ele>2517.4</ele>
        <time>2018-07-01T10:54:02Z</time>
      </trkpt>
      <trkpt lat="45.29802" lon="6.64851">
        <ele>2516.8</ele>
        <time>2018-07-01T10:54:06Z</time>
      </trkpt>
      <trkpt lat="45.29804" lon="6.64855">
        <ele>2516</ele>
        <time>2018-07-01T10:54:11Z</time>
      </trkpt>
      <trkpt lat="45.29806" lon="6.64858">
        <ele>2515.4</ele>
        <time>2018-07-01T10:54:15Z</time>
      </trkpt>
      <trkpt lat="45.29806" lon="6.64862">
        <ele>2514.8</ele>
        <time>2018-07-01T10:54:19Z</time>
      </trkpt>
      <trkpt lat="45.29807" lon="6.64867">
        <ele>2514.2</ele>
        <time>2018-07-01T10:54:24Z</time>
      </trkpt>
      <trkpt lat="45.29809" lon="6.6487">
        <ele>2513.6</ele>
        <time>2018-07-01T10:54:28Z</time>
      </trkpt>
      <trkpt lat="45.29809" lon="6.64875">
        <ele>2512.8</ele>
        <time>2018-07-01T10:54:33Z</time>
      </trkpt>
      <trkpt lat="45.29806" lon="6.64876">
        <ele>2512.7</ele>
        <time>2018-07-01T10:54:36Z</time>
      </trkpt>
      <trkpt lat="45.29803" lon="6.64876">
        <ele>2513</ele>
        <time>2018-07-01T10:54:39Z</time>
      </trkpt>
      <trkpt lat="45.298" lon="6.64875">
        <ele>2513.2</ele>
        <time>2018-07-01T10:54:42Z</time>
      </trkpt>
      <trkpt lat="45.29797" lon="6.64873">
        <ele>2513.6</ele>
        <time>2018-07-01T10:54:45Z</time>
      </trkpt>
      <trkpt lat="45.29794" lon="6.64871">
        <ele>2513.9</ele>
        <time>2018-07-01T10:54:48Z</time>
      </trkpt>
      <trkpt lat="45.2979" lon="6.6487">
        <ele>2514.1</ele>
        <time>2018-07-01T10:54:52Z</time>
      </trkpt>
      <trkpt lat="45.29788" lon="6.64868">
        <ele>2514.3</ele>
        <time>2018-07-01T10:54:55Z</time>
      </trkpt>
      <trkpt lat="45.2979" lon="6.64871">
        <ele>2513.9</ele>
        <time>2018-07-01T10:55:01Z</time>
      </trkpt>
      <trkpt lat="45.29792" lon="6.64874">
        <ele>2513.1</ele>
        <time>2018-07-01T10:55:05Z</time>
      </trkpt>
      <trkpt lat="45.29794" lon="6.64878">
        <ele>2512.4</ele>
        <time>2018-07-01T10:55:09Z</time>
      </trkpt>
      <trkpt lat="45.29796" lon="6.64881">
        <ele>2511.6</ele>
        <time>2018-07-01T10:55:14Z</time>
      </trkpt>
      <trkpt lat="45.29798" lon="6.64885">
        <ele>2510.6</ele>
        <time>2018-07-01T10:55:19Z</time>
      </trkpt>
      <trkpt lat="45.29799" lon="6.64889">
        <ele>2509.8</ele>
        <time>2018-07-01T10:55:23Z</time>
      </trkpt>
      <trkpt lat="45.29801" lon="6.64892">
        <ele>2509</ele>
        <time>2018-07-01T10:55:27Z</time>
      </trkpt>
      <trkpt lat="45.29804" lon="6.64894">
        <ele>2508.2</ele>
        <time>2018-07-01T10:55:32Z</time>
      </trkpt>
      <trkpt lat="45.29805" lon="6.64898">
        <ele>2507.5</ele>
        <time>2018-07-01T10:55:38Z</time>
      </trkpt>
      <trkpt lat="45.29804" lon="6.64902">
        <ele>2507.1</ele>
        <time>2018-07-01T10:55:42Z</time>
      </trkpt>
      <trkpt lat="45.29804" lon="6.64906">
        <ele>2506.8</ele>
        <time>2018-07-01T10:55:45Z</time>
      </trkpt>
      <trkpt lat="45.29804" lon="6.6491">
        <ele>2506.4</ele>
        <time>2018-07-01T10:55:49Z</time>
      </trkpt>
      <trkpt lat="45.29806" lon="6.64914">
        <ele>2506.2</ele>
        <time>2018-07-01T10:55:52Z</time>
      </trkpt>
      <trkpt lat="45.29806" lon="6.64918">
        <ele>2506</ele>
        <time>2018-07-01T10:55:55Z</time>
      </trkpt>
      <trkpt lat="45.29808" lon="6.64922">
        <ele>2505.9</ele>
        <time>2018-07-01T10:55:59Z</time>
      </trkpt>
      <trkpt lat="45.29809" lon="6.64925">
        <ele>2506.2</ele>
        <time>2018-07-01T10:56:02Z</time>
      </trkpt>
      <trkpt lat="45.29812" lon="6.64927">
        <ele>2506.5</ele>
        <time>2018-07-01T10:56:05Z</time>
      </trkpt>
      <trkpt lat="45.29814" lon="6.64931">
        <ele>2507</ele>
        <time>2018-07-01T10:56:09Z</time>
      </trkpt>
      <trkpt lat="45.29815" lon="6.64935">
        <ele>2507.6</ele>
        <time>2018-07-01T10:56:12Z</time>
      </trkpt>
      <trkpt lat="45.29818" lon="6.64938">
        <ele>2508.1</ele>
        <time>2018-07-01T10:56:15Z</time>
      </trkpt>
      <trkpt lat="45.2982" lon="6.6494">
        <ele>2508.3</ele>
        <time>2018-07-01T10:56:18Z</time>
      </trkpt>
      <trkpt lat="45.29823" lon="6.64943">
        <ele>2508</ele>
        <time>2018-07-01T10:56:22Z</time>
      </trkpt>
      <trkpt lat="45.29825" lon="6.64946">
        <ele>2507.7</ele>
        <time>2018-07-01T10:56:26Z</time>
      </trkpt>
      <trkpt lat="45.29826" lon="6.6495">
        <ele>2507.9</ele>
        <time>2018-07-01T10:56:30Z</time>
      </trkpt>
      <trkpt lat="45.29827" lon="6.64955">
        <ele>2508.3</ele>
        <time>2018-07-01T10:56:34Z</time>
      </trkpt>
      <trkpt lat="45.29828" lon="6.64958">
        <ele>2508.7</ele>
        <time>2018-07-01T10:56:37Z</time>
      </trkpt>
      <trkpt lat="45.29831" lon="6.6496">
        <ele>2509.3</ele>
        <time>2018-07-01T10:56:40Z</time>
      </trkpt>
      <trkpt lat="45.29834" lon="6.64962">
        <ele>2509.8</ele>
        <time>2018-07-01T10:56:42Z</time>
      </trkpt>
      <trkpt lat="45.29837" lon="6.64965">
        <ele>2510.1</ele>
        <time>2018-07-01T10:56:45Z</time>
      </trkpt>
      <trkpt lat="45.29841" lon="6.64967">
        <ele>2508.9</ele>
        <time>2018-07-01T10:56:48Z</time>
      </trkpt>
      <trkpt lat="45.29843" lon="6.64971">
        <ele>2508</ele>
        <time>2018-07-01T10:56:51Z</time>
      </trkpt>
      <trkpt lat="45.29845" lon="6.64974">
        <ele>2507.9</ele>
        <time>2018-07-01T10:56:54Z</time>
      </trkpt>
      <trkpt lat="45.29847" lon="6.64979">
        <ele>2507.8</ele>
        <time>2018-07-01T10:56:57Z</time>
      </trkpt>
      <trkpt lat="45.29848" lon="6.64983">
        <ele>2507.7</ele>
        <time>2018-07-01T10:56:59Z</time>
      </trkpt>
      <trkpt lat="45.29848" lon="6.64987">
        <ele>2507.6</ele>
        <time>2018-07-01T10:57:01Z</time>
      </trkpt>
      <trkpt lat="45.29849" lon="6.64992">
        <ele>2506.3</ele>
        <time>2018-07-01T10:57:04Z</time>
      </trkpt>
      <trkpt lat="45.2985" lon="6.64996">
        <ele>2504.4</ele>
        <time>2018-07-01T10:57:07Z</time>
      </trkpt>
      <trkpt lat="45.29851" lon="6.65">
        <ele>2502.6</ele>
        <time>2018-07-01T10:57:11Z</time>
      </trkpt>
      <trkpt lat="45.2985" lon="6.65004">
        <ele>2501.1</ele>
        <time>2018-07-01T10:57:16Z</time>
      </trkpt>
      <trkpt lat="45.29848" lon="6.65007">
        <ele>2499.8</ele>
        <time>2018-07-01T10:57:19Z</time>
      </trkpt>
      <trkpt lat="45.29848" lon="6.65012">
        <ele>2498.2</ele>
        <time>2018-07-01T10:57:23Z</time>
      </trkpt>
      <trkpt lat="45.29846" lon="6.65016">
        <ele>2496.5</ele>
        <time>2018-07-01T10:57:27Z</time>
      </trkpt>
      <trkpt lat="45.29844" lon="6.6502">
        <ele>2494.9</ele>
        <time>2018-07-01T10:57:31Z</time>
      </trkpt>
      <trkpt lat="45.29842" lon="6.65023">
        <ele>2493.5</ele>
        <time>2018-07-01T10:57:35Z</time>
      </trkpt>
      <trkpt lat="45.2984" lon="6.65026">
        <ele>2492.2</ele>
        <time>2018-07-01T10:57:39Z</time>
      </trkpt>
      <trkpt lat="45.2984" lon="6.65031">
        <ele>2491.4</ele>
        <time>2018-07-01T10:57:45Z</time>
      </trkpt>
      <trkpt lat="45.29839" lon="6.65035">
        <ele>2490.6</ele>
        <time>2018-07-01T10:57:50Z</time>
      </trkpt>
      <trkpt lat="45.29839" lon="6.6504">
        <ele>2489.7</ele>
        <time>2018-07-01T10:57:54Z</time>
      </trkpt>
      <trkpt lat="45.29837" lon="6.65044">
        <ele>2488.7</ele>
        <time>2018-07-01T10:57:58Z</time>
      </trkpt>
      <trkpt lat="45.29836" lon="6.65047">
        <ele>2487.8</ele>
        <time>2018-07-01T10:58:02Z</time>
      </trkpt>
      <trkpt lat="45.29836" lon="6.65052">
        <ele>2486.8</ele>
        <time>2018-07-01T10:58:06Z</time>
      </trkpt>
      <trkpt lat="45.29835" lon="6.65055">
        <ele>2485.9</ele>
        <time>2018-07-01T10:58:09Z</time>
      </trkpt>
      <trkpt lat="45.29835" lon="6.65059">
        <ele>2484.9</ele>
        <time>2018-07-01T10:58:12Z</time>
      </trkpt>
      <trkpt lat="45.29833" lon="6.65064">
        <ele>2483.8</ele>
        <time>2018-07-01T10:58:15Z</time>
      </trkpt>
      <trkpt lat="45.29832" lon="6.65069">
        <ele>2482.7</ele>
        <time>2018-07-01T10:58:18Z</time>
      </trkpt>
      <trkpt lat="45.29831" lon="6.65072">
        <ele>2482</ele>
        <time>2018-07-01T10:58:20Z</time>
      </trkpt>
      <trkpt lat="45.29829" lon="6.65076">
        <ele>2481</ele>
        <time>2018-07-01T10:58:24Z</time>
      </trkpt>
      <trkpt lat="45.29828" lon="6.65081">
        <ele>2480.2</ele>
        <time>2018-07-01T10:58:27Z</time>
      </trkpt>
      <trkpt lat="45.29827" lon="6.65085">
        <ele>2479.5</ele>
        <time>2018-07-01T10:58:30Z</time>
      </trkpt>
      <trkpt lat="45.29827" lon="6.65091">
        <ele>2478.6</ele>
        <time>2018-07-01T10:58:33Z</time>
      </trkpt>
      <trkpt lat="45.29826" lon="6.65095">
        <ele>2478.1</ele>
        <time>2018-07-01T10:58:36Z</time>
      </trkpt>
      <trkpt lat="45.29826" lon="6.65099">
        <ele>2477.6</ele>
        <time>2018-07-01T10:58:39Z</time>
      </trkpt>
      <trkpt lat="45.29826" lon="6.65103">
        <ele>2477.2</ele>
        <time>2018-07-01T10:58:42Z</time>
      </trkpt>
      <trkpt lat="45.29827" lon="6.65108">
        <ele>2475.8</ele>
        <time>2018-07-01T10:58:46Z</time>
      </trkpt>
      <trkpt lat="45.29827" lon="6.65113">
        <ele>2475.3</ele>
        <time>2018-07-01T10:58:49Z</time>
      </trkpt>
      <trkpt lat="45.29826" lon="6.65118">
        <ele>2474.9</ele>
        <time>2018-07-01T10:58:52Z</time>
      </trkpt>
      <trkpt lat="45.29826" lon="6.65122">
        <ele>2474.5</ele>
        <time>2018-07-01T10:58:55Z</time>
      </trkpt>
      <trkpt lat="45.29826" lon="6.65126">
        <ele>2474.1</ele>
        <time>2018-07-01T10:58:58Z</time>
      </trkpt>
      <trkpt lat="45.29825" lon="6.65131">
        <ele>2471.9</ele>
        <time>2018-07-01T10:59:02Z</time>
      </trkpt>
      <trkpt lat="45.29824" lon="6.65135">
        <ele>2471.4</ele>
        <time>2018-07-01T10:59:05Z</time>
      </trkpt>
      <trkpt lat="45.29822" lon="6.6514">
        <ele>2469.5</ele>
        <time>2018-07-01T10:59:09Z</time>
      </trkpt>
      <trkpt lat="45.29821" lon="6.65145">
        <ele>2468.8</ele>
        <time>2018-07-01T10:59:12Z</time>
      </trkpt>
      <trkpt lat="45.29821" lon="6.65149">
        <ele>2468.4</ele>
        <time>2018-07-01T10:59:15Z</time>
      </trkpt>
      <trkpt lat="45.2982" lon="6.65153">
        <ele>2468.4</ele>
        <time>2018-07-01T10:59:18Z</time>
      </trkpt>
      <trkpt lat="45.2982" lon="6.65158">
        <ele>2466.8</ele>
        <time>2018-07-01T10:59:22Z</time>
      </trkpt>
      <trkpt lat="45.29818" lon="6.65162">
        <ele>2466.5</ele>
        <time>2018-07-01T10:59:25Z</time>
      </trkpt>
      <trkpt lat="45.29817" lon="6.65166">
        <ele>2466.3</ele>
        <time>2018-07-01T10:59:29Z</time>
      </trkpt>
      <trkpt lat="45.29816" lon="6.65172">
        <ele>2464.6</ele>
        <time>2018-07-01T10:59:33Z</time>
      </trkpt>
      <trkpt lat="45.29814" lon="6.65176">
        <ele>2464.5</ele>
        <time>2018-07-01T10:59:36Z</time>
      </trkpt>
      <trkpt lat="45.29813" lon="6.65181">
        <ele>2463.1</ele>
        <time>2018-07-01T10:59:40Z</time>
      </trkpt>
      <trkpt lat="45.29811" lon="6.65185">
        <ele>2463</ele>
        <time>2018-07-01T10:59:43Z</time>
      </trkpt>
      <trkpt lat="45.2981" lon="6.6519">
        <ele>2461.7</ele>
        <time>2018-07-01T10:59:47Z</time>
      </trkpt>
      <trkpt lat="45.29808" lon="6.65194">
        <ele>2461.7</ele>
        <time>2018-07-01T10:59:50Z</time>
      </trkpt>
      <trkpt lat="45.29808" lon="6.65199">
        <ele>2461.7</ele>
        <time>2018-07-01T10:59:54Z</time>
      </trkpt>
      <trkpt lat="45.29807" lon="6.65204">
        <ele>2459.6</ele>
        <time>2018-07-01T10:59:57Z</time>
      </trkpt>
      <trkpt lat="45.29807" lon="6.65208">
        <ele>2459.7</ele>
        <time>2018-07-01T11:00:00Z</time>
      </trkpt>
      <trkpt lat="45.29806" lon="6.65213">
        <ele>2459.8</ele>
        <time>2018-07-01T11:00:03Z</time>
      </trkpt>
      <trkpt lat="45.29805" lon="6.65217">
        <ele>2459.9</ele>
        <time>2018-07-01T11:00:06Z</time>
      </trkpt>
      <trkpt lat="45.29804" lon="6.65221">
        <ele>2458.6</ele>
        <time>2018-07-01T11:00:09Z</time>
      </trkpt>
      <trkpt lat="45.29803" lon="6.65226">
        <ele>2458.7</ele>
        <time>2018-07-01T11:00:12Z</time>
      </trkpt>
      <trkpt lat="45.29801" lon="6.65231">
        <ele>2457.6</ele>
        <time>2018-07-01T11:00:15Z</time>
      </trkpt>
      <trkpt lat="45.29801" lon="6.65236">
        <ele>2457.8</ele>
        <time>2018-07-01T11:00:19Z</time>
      </trkpt>
      <trkpt lat="45.29801" lon="6.65241">
        <ele>2458</ele>
        <time>2018-07-01T11:00:23Z</time>
      </trkpt>
      <trkpt lat="45.298" lon="6.65245">
        <ele>2458.1</ele>
        <time>2018-07-01T11:00:26Z</time>
      </trkpt>
      <trkpt lat="45.298" lon="6.65249">
        <ele>2458.3</ele>
        <time>2018-07-01T11:00:29Z</time>
      </trkpt>
      <trkpt lat="45.29799" lon="6.65253">
        <ele>2458.5</ele>
        <time>2018-07-01T11:00:32Z</time>
      </trkpt>
      <trkpt lat="45.29797" lon="6.65258">
        <ele>2457.6</ele>
        <time>2018-07-01T11:00:35Z</time>
      </trkpt>
      <trkpt lat="45.29796" lon="6.65263">
        <ele>2457.8</ele>
        <time>2018-07-01T11:00:38Z</time>
      </trkpt>
      <trkpt lat="45.29795" lon="6.65268">
        <ele>2457.1</ele>
        <time>2018-07-01T11:01:27Z</time>
      </trkpt>
      <trkpt lat="45.29794" lon="6.65272">
        <ele>2457.4</ele>
        <time>2018-07-01T11:01:31Z</time>
      </trkpt>
      <trkpt lat="45.29793" lon="6.65276">
        <ele>2457.6</ele>
        <time>2018-07-01T11:01:35Z</time>
      </trkpt>
      <trkpt lat="45.29793" lon="6.6528">
        <ele>2457.9</ele>
        <time>2018-07-01T11:01:39Z</time>
      </trkpt>
      <trkpt lat="45.29791" lon="6.65282">
        <ele>2457.3</ele>
        <time>2018-07-01T11:01:41Z</time>
      </trkpt>
      <trkpt lat="45.2979" lon="6.65287">
        <ele>2457.6</ele>
        <time>2018-07-01T11:01:45Z</time>
      </trkpt>
      <trkpt lat="45.29789" lon="6.65291">
        <ele>2456.7</ele>
        <time>2018-07-01T11:01:48Z</time>
      </trkpt>
      <trkpt lat="45.29788" lon="6.65295">
        <ele>2457</ele>
        <time>2018-07-01T11:01:52Z</time>
      </trkpt>
      <trkpt lat="45.29787" lon="6.65299">
        <ele>2457.3</ele>
        <time>2018-07-01T11:01:56Z</time>
      </trkpt>
      <trkpt lat="45.29786" lon="6.65303">
        <ele>2456.7</ele>
        <time>2018-07-01T11:02:00Z</time>
      </trkpt>
      <trkpt lat="45.29786" lon="6.65307">
        <ele>2457</ele>
        <time>2018-07-01T11:02:05Z</time>
      </trkpt>
      <trkpt lat="45.29787" lon="6.65311">
        <ele>2458.2</ele>
        <time>2018-07-01T11:02:10Z</time>
      </trkpt>
      <trkpt lat="45.29788" lon="6.65316">
        <ele>2458.5</ele>
        <time>2018-07-01T11:02:14Z</time>
      </trkpt>
      <trkpt lat="45.29789" lon="6.65321">
        <ele>2458.9</ele>
        <time>2018-07-01T11:02:18Z</time>
      </trkpt>
      <trkpt lat="45.29791" lon="6.65325">
        <ele>2459.7</ele>
        <time>2018-07-01T11:02:21Z</time>
      </trkpt>
      <trkpt lat="45.29792" lon="6.65329">
        <ele>2459.9</ele>
        <time>2018-07-01T11:02:24Z</time>
      </trkpt>
      <trkpt lat="45.29794" lon="6.65332">
        <ele>2460.9</ele>
        <time>2018-07-01T11:02:29Z</time>
      </trkpt>
      <trkpt lat="45.29796" lon="6.65336">
        <ele>2461.8</ele>
        <time>2018-07-01T11:02:33Z</time>
      </trkpt>
      <trkpt lat="45.29798" lon="6.6534">
        <ele>2461.9</ele>
        <time>2018-07-01T11:02:37Z</time>
      </trkpt>
      <trkpt lat="45.29799" lon="6.65344">
        <ele>2462.8</ele>
        <time>2018-07-01T11:02:40Z</time>
      </trkpt>
      <trkpt lat="45.298" lon="6.65348">
        <ele>2462.9</ele>
        <time>2018-07-01T11:02:44Z</time>
      </trkpt>
      <trkpt lat="45.29801" lon="6.65352">
        <ele>2463.1</ele>
        <time>2018-07-01T11:02:48Z</time>
      </trkpt>
      <trkpt lat="45.29803" lon="6.65356">
        <ele>2464</ele>
        <time>2018-07-01T11:02:51Z</time>
      </trkpt>
      <trkpt lat="45.29803" lon="6.6536">
        <ele>2464.1</ele>
        <time>2018-07-01T11:02:55Z</time>
      </trkpt>
      <trkpt lat="45.29803" lon="6.65365">
        <ele>2464.2</ele>
        <time>2018-07-01T11:02:59Z</time>
      </trkpt>
      <trkpt lat="45.29804" lon="6.6537">
        <ele>2464.2</ele>
        <time>2018-07-01T11:03:03Z</time>
      </trkpt>
      <trkpt lat="45.29804" lon="6.65373">
        <ele>2464.2</ele>
        <time>2018-07-01T11:03:06Z</time>
      </trkpt>
      <trkpt lat="45.29805" lon="6.65377">
        <ele>2465</ele>
        <time>2018-07-01T11:03:09Z</time>
      </trkpt>
      <trkpt lat="45.29805" lon="6.65382">
        <ele>2464.9</ele>
        <time>2018-07-01T11:03:12Z</time>
      </trkpt>
      <trkpt lat="45.29805" lon="6.65386">
        <ele>2464.9</ele>
        <time>2018-07-01T11:03:15Z</time>
      </trkpt>
      <trkpt lat="45.29803" lon="6.65391">
        <ele>2464.1</ele>
        <time>2018-07-01T11:03:18Z</time>
      </trkpt>
      <trkpt lat="45.29803" lon="6.65395">
        <ele>2464.1</ele>
        <time>2018-07-01T11:03:21Z</time>
      </trkpt>
      <trkpt lat="45.29801" lon="6.65399">
        <ele>2463.4</ele>
        <time>2018-07-01T11:03:25Z</time>
      </trkpt>
      <trkpt lat="45.298" lon="6.65404">
        <ele>2463.4</ele>
        <time>2018-07-01T11:03:30Z</time>
      </trkpt>
      <trkpt lat="45.298" lon="6.65408">
        <ele>2463.5</ele>
        <time>2018-07-01T11:03:35Z</time>
      </trkpt>
      <trkpt lat="45.29798" lon="6.65412">
        <ele>2463</ele>
        <time>2018-07-01T11:03:40Z</time>
      </trkpt>
      <trkpt lat="45.29797" lon="6.65416">
        <ele>2463.1</ele>
        <time>2018-07-01T11:03:45Z</time>
      </trkpt>
      <trkpt lat="45.29795" lon="6.65419">
        <ele>2462.6</ele>
        <time>2018-07-01T11:03:49Z</time>
      </trkpt>
      <trkpt lat="45.29793" lon="6.65422">
        <ele>2462.8</ele>
        <time>2018-07-01T11:03:54Z</time>
      </trkpt>
      <trkpt lat="45.29791" lon="6.65427">
        <ele>2462.5</ele>
        <time>2018-07-01T11:03:58Z</time>
      </trkpt>
      <trkpt lat="45.29789" lon="6.6543">
        <ele>2462.3</ele>
        <time>2018-07-01T11:04:01Z</time>
      </trkpt>
      <trkpt lat="45.29788" lon="6.65434">
        <ele>2462.7</ele>
        <time>2018-07-01T11:04:04Z</time>
      </trkpt>
      <trkpt lat="45.29786" lon="6.65438">
        <ele>2462.6</ele>
        <time>2018-07-01T11:04:07Z</time>
      </trkpt>
      <trkpt lat="45.29785" lon="6.65442">
        <ele>2463</ele>
        <time>2018-07-01T11:04:10Z</time>
      </trkpt>
      <trkpt lat="45.29783" lon="6.65445">
        <ele>2462.7</ele>
        <time>2018-07-01T11:04:13Z</time>
      </trkpt>
      <trkpt lat="45.29784" lon="6.65449">
        <ele>2463.5</ele>
        <time>2018-07-01T11:04:19Z</time>
      </trkpt>
      <trkpt lat="45.29785" lon="6.65454">
        <ele>2464</ele>
        <time>2018-07-01T11:04:24Z</time>
      </trkpt>
      <trkpt lat="45.29786" lon="6.65458">
        <ele>2464.5</ele>
        <time>2018-07-01T11:04:28Z</time>
      </trkpt>
      <trkpt lat="45.29785" lon="6.65463">
        <ele>2465.5</ele>
        <time>2018-07-01T11:04:32Z</time>
      </trkpt>
      <trkpt lat="45.29784" lon="6.65467">
        <ele>2465.9</ele>
        <time>2018-07-01T11:04:35Z</time>
      </trkpt>
      <trkpt lat="45.29782" lon="6.6547">
        <ele>2465.6</ele>
        <time>2018-07-01T11:04:38Z</time>
      </trkpt>
      <trkpt lat="45.29779" lon="6.65473">
        <ele>2465.8</ele>
        <time>2018-07-01T11:04:41Z</time>
      </trkpt>
      <trkpt lat="45.29777" lon="6.65477">
        <ele>2466</ele>
        <time>2018-07-01T11:04:44Z</time>
      </trkpt>
      <trkpt lat="45.29774" lon="6.6548">
        <ele>2466.2</ele>
        <time>2018-07-01T11:04:47Z</time>
      </trkpt>
      <trkpt lat="45.29772" lon="6.65484">
        <ele>2466.6</ele>
        <time>2018-07-01T11:04:49Z</time>
      </trkpt>
      <trkpt lat="45.29771" lon="6.65487">
        <ele>2466.4</ele>
        <time>2018-07-01T11:04:52Z</time>
      </trkpt>
      <trkpt lat="45.29768" lon="6.65491">
        <ele>2466.6</ele>
        <time>2018-07-01T11:04:54Z</time>
      </trkpt>
      <trkpt lat="45.29766" lon="6.65494">
        <ele>2467</ele>
        <time>2018-07-01T11:04:57Z</time>
      </trkpt>
      <trkpt lat="45.29763" lon="6.65497">
        <ele>2467.2</ele>
        <time>2018-07-01T11:05:00Z</time>
      </trkpt>
      <trkpt lat="45.29761" lon="6.65501">
        <ele>2467.3</ele>
        <time>2018-07-01T11:05:03Z</time>
      </trkpt>
      <trkpt lat="45.2976" lon="6.65505">
        <ele>2467.3</ele>
        <time>2018-07-01T11:05:06Z</time>
      </trkpt>
      <trkpt lat="45.29759" lon="6.6551">
        <ele>2467.5</ele>
        <time>2018-07-01T11:05:10Z</time>
      </trkpt>
      <trkpt lat="45.29756" lon="6.65512">
        <ele>2467.8</ele>
        <time>2018-07-01T11:05:13Z</time>
      </trkpt>
      <trkpt lat="45.29754" lon="6.65515">
        <ele>2467.9</ele>
        <time>2018-07-01T11:05:16Z</time>
      </trkpt>
      <trkpt lat="45.29751" lon="6.65517">
        <ele>2467.7</ele>
        <time>2018-07-01T11:05:19Z</time>
      </trkpt>
      <trkpt lat="45.29749" lon="6.65519">
        <ele>2467.9</ele>
        <time>2018-07-01T11:05:23Z</time>
      </trkpt>
      <trkpt lat="45.29747" lon="6.65522">
        <ele>2467.7</ele>
        <time>2018-07-01T11:05:30Z</time>
      </trkpt>
      <trkpt lat="45.29744" lon="6.65525">
        <ele>2468.1</ele>
        <time>2018-07-01T11:05:34Z</time>
      </trkpt>
      <trkpt lat="45.29742" lon="6.65528">
        <ele>2468.3</ele>
        <time>2018-07-01T11:05:40Z</time>
      </trkpt>
      <trkpt lat="45.29741" lon="6.65532">
        <ele>2468.6</ele>
        <time>2018-07-01T11:05:46Z</time>
      </trkpt>
      <trkpt lat="45.2974" lon="6.65536">
        <ele>2468.9</ele>
        <time>2018-07-01T11:05:50Z</time>
      </trkpt>
      <trkpt lat="45.29739" lon="6.6554">
        <ele>2469.2</ele>
        <time>2018-07-01T11:05:54Z</time>
      </trkpt>
      <trkpt lat="45.29737" lon="6.65543">
        <ele>2469.2</ele>
        <time>2018-07-01T11:05:59Z</time>
      </trkpt>
      <trkpt lat="45.29734" lon="6.65545">
        <ele>2469.3</ele>
        <time>2018-07-01T11:06:03Z</time>
      </trkpt>
      <trkpt lat="45.29732" lon="6.65548">
        <ele>2469.2</ele>
        <time>2018-07-01T11:06:08Z</time>
      </trkpt>
      <trkpt lat="45.2973" lon="6.65552">
        <ele>2469.4</ele>
        <time>2018-07-01T11:06:14Z</time>
      </trkpt>
      <trkpt lat="45.29728" lon="6.65555">
        <ele>2469.5</ele>
        <time>2018-07-01T11:06:18Z</time>
      </trkpt>
      <trkpt lat="45.29726" lon="6.65559">
        <ele>2469.5</ele>
        <time>2018-07-01T11:06:22Z</time>
      </trkpt>
      <trkpt lat="45.29724" lon="6.65561">
        <ele>2469.5</ele>
        <time>2018-07-01T11:06:25Z</time>
      </trkpt>
      <trkpt lat="45.2972" lon="6.65563">
        <ele>2469.5</ele>
        <time>2018-07-01T11:06:29Z</time>
      </trkpt>
      <trkpt lat="45.29717" lon="6.65564">
        <ele>2469.4</ele>
        <time>2018-07-01T11:06:32Z</time>
      </trkpt>
      <trkpt lat="45.29715" lon="6.65565">
        <ele>2469.3</ele>
        <time>2018-07-01T11:06:35Z</time>
      </trkpt>
      <trkpt lat="45.29712" lon="6.65564">
        <ele>2469.2</ele>
        <time>2018-07-01T11:06:38Z</time>
      </trkpt>
      <trkpt lat="45.29708" lon="6.65565">
        <ele>2469.1</ele>
        <time>2018-07-01T11:06:42Z</time>
      </trkpt>
      <trkpt lat="45.29706" lon="6.65566">
        <ele>2469.2</ele>
        <time>2018-07-01T11:06:45Z</time>
      </trkpt>
      <trkpt lat="45.29703" lon="6.65568">
        <ele>2469.1</ele>
        <time>2018-07-01T11:06:48Z</time>
      </trkpt>
      <trkpt lat="45.297" lon="6.65571">
        <ele>2469.1</ele>
        <time>2018-07-01T11:06:52Z</time>
      </trkpt>
      <trkpt lat="45.29697" lon="6.65574">
        <ele>2469.1</ele>
        <time>2018-07-01T11:06:56Z</time>
      </trkpt>
      <trkpt lat="45.29694" lon="6.65576">
        <ele>2469</ele>
        <time>2018-07-01T11:07:00Z</time>
      </trkpt>
      <trkpt lat="45.29691" lon="6.65577">
        <ele>2469</ele>
        <time>2018-07-01T11:07:03Z</time>
      </trkpt>
      <trkpt lat="45.29688" lon="6.65578">
        <ele>2469</ele>
        <time>2018-07-01T11:07:06Z</time>
      </trkpt>
      <trkpt lat="45.29685" lon="6.65578">
        <ele>2469</ele>
        <time>2018-07-01T11:07:09Z</time>
      </trkpt>
      <trkpt lat="45.29682" lon="6.65579">
        <ele>2468.9</ele>
        <time>2018-07-01T11:07:12Z</time>
      </trkpt>
      <trkpt lat="45.29678" lon="6.65579">
        <ele>2468.9</ele>
        <time>2018-07-01T11:07:15Z</time>
      </trkpt>
      <trkpt lat="45.29675" lon="6.65579">
        <ele>2468.8</ele>
        <time>2018-07-01T11:07:18Z</time>
      </trkpt>
      <trkpt lat="45.29672" lon="6.65579">
        <ele>2468.8</ele>
        <time>2018-07-01T11:07:20Z</time>
      </trkpt>
      <trkpt lat="45.29669" lon="6.65579">
        <ele>2468.8</ele>
        <time>2018-07-01T11:07:23Z</time>
      </trkpt>
      <trkpt lat="45.29666" lon="6.65576">
        <ele>2468.9</ele>
        <time>2018-07-01T11:07:26Z</time>
      </trkpt>
      <trkpt lat="45.29663" lon="6.65576">
        <ele>2469</ele>
        <time>2018-07-01T11:07:29Z</time>
      </trkpt>
      <trkpt lat="45.2966" lon="6.65578">
        <ele>2469</ele>
        <time>2018-07-01T11:07:32Z</time>
      </trkpt>
      <trkpt lat="45.29657" lon="6.6558">
        <ele>2469</ele>
        <time>2018-07-01T11:07:35Z</time>
      </trkpt>
      <trkpt lat="45.29654" lon="6.65581">
        <ele>2469.3</ele>
        <time>2018-07-01T11:07:39Z</time>
      </trkpt>
      <trkpt lat="45.29651" lon="6.6558">
        <ele>2469.3</ele>
        <time>2018-07-01T11:07:42Z</time>
      </trkpt>
      <trkpt lat="45.29648" lon="6.65579">
        <ele>2469.7</ele>
        <time>2018-07-01T11:07:46Z</time>
      </trkpt>
      <trkpt lat="45.29645" lon="6.65579">
        <ele>2469.6</ele>
        <time>2018-07-01T11:07:50Z</time>
      </trkpt>
      <trkpt lat="45.29641" lon="6.6558">
        <ele>2470.1</ele>
        <time>2018-07-01T11:07:54Z</time>
      </trkpt>
      <trkpt lat="45.29638" lon="6.65581">
        <ele>2470.4</ele>
        <time>2018-07-01T11:07:58Z</time>
      </trkpt>
      <trkpt lat="45.29635" lon="6.65583">
        <ele>2470.6</ele>
        <time>2018-07-01T11:08:02Z</time>
      </trkpt>
      <trkpt lat="45.29633" lon="6.65586">
        <ele>2470.6</ele>
        <time>2018-07-01T11:08:06Z</time>
      </trkpt>
      <trkpt lat="45.29632" lon="6.65589">
        <ele>2470.8</ele>
        <time>2018-07-01T11:08:10Z</time>
      </trkpt>
      <trkpt lat="45.29632" lon="6.65594">
        <ele>2470.7</ele>
        <time>2018-07-01T11:08:14Z</time>
      </trkpt>
      <trkpt lat="45.29629" lon="6.65597">
        <ele>2471</ele>
        <time>2018-07-01T11:08:17Z</time>
      </trkpt>
      <trkpt lat="45.29628" lon="6.65601">
        <ele>2471</ele>
        <time>2018-07-01T11:08:21Z</time>
      </trkpt>
      <trkpt lat="45.29626" lon="6.65604">
        <ele>2471.3</ele>
        <time>2018-07-01T11:08:24Z</time>
      </trkpt>
      <trkpt lat="45.29623" lon="6.65606">
        <ele>2471.5</ele>
        <time>2018-07-01T11:08:28Z</time>
      </trkpt>
      <trkpt lat="45.29619" lon="6.65606">
        <ele>2471.6</ele>
        <time>2018-07-01T11:08:32Z</time>
      </trkpt>
      <trkpt lat="45.29616" lon="6.65607">
        <ele>2471.8</ele>
        <time>2018-07-01T11:08:36Z</time>
      </trkpt>
      <trkpt lat="45.29614" lon="6.65606">
        <ele>2471.9</ele>
        <time>2018-07-01T11:08:40Z</time>
      </trkpt>
      <trkpt lat="45.29611" lon="6.65608">
        <ele>2472</ele>
        <time>2018-07-01T11:08:46Z</time>
      </trkpt>
      <trkpt lat="45.29608" lon="6.65609">
        <ele>2472</ele>
        <time>2018-07-01T11:08:51Z</time>
      </trkpt>
      <trkpt lat="45.29605" lon="6.65607">
        <ele>2472.2</ele>
        <time>2018-07-01T11:08:56Z</time>
      </trkpt>
      <trkpt lat="45.29602" lon="6.65606">
        <ele>2472.2</ele>
        <time>2018-07-01T11:09:03Z</time>
      </trkpt>
      <trkpt lat="45.296" lon="6.65609">
        <ele>2472</ele>
        <time>2018-07-01T11:09:11Z</time>
      </trkpt>
      <trkpt lat="45.29598" lon="6.65611">
        <ele>2472</ele>
        <time>2018-07-01T11:09:17Z</time>
      </trkpt>
      <trkpt lat="45.29603" lon="6.65616">
        <ele>2471.8</ele>
        <time>2018-07-01T11:11:18Z</time>
      </trkpt>
      <trkpt lat="45.29605" lon="6.65613">
        <ele>2471.8</ele>
        <time>2018-07-01T11:17:18Z</time>
      </trkpt>
      <trkpt lat="45.29605" lon="6.65609">
        <ele>2472</ele>
        <time>2018-07-01T11:19:24Z</time>
      </trkpt>
      <trkpt lat="45.29602" lon="6.65611">
        <ele>2472</ele>
        <time>2018-07-01T11:22:38Z</time>
      </trkpt>
      <trkpt lat="45.29602" lon="6.65617">
        <ele>2471.7</ele>
        <time>2018-07-01T11:23:00Z</time>
      </trkpt>
      <trkpt lat="45.29599" lon="6.65616">
        <ele>2471.7</ele>
        <time>2018-07-01T11:23:14Z</time>
      </trkpt>
      <trkpt lat="45.29596" lon="6.65612">
        <ele>2472</ele>
        <time>2018-07-01T11:23:17Z</time>
      </trkpt>
      <trkpt lat="45.29594" lon="6.65609">
        <ele>2472</ele>
        <time>2018-07-01T11:23:20Z</time>
      </trkpt>
      <trkpt lat="45.29591" lon="6.65607">
        <ele>2472.3</ele>
        <time>2018-07-01T11:23:23Z</time>
      </trkpt>
      <trkpt lat="45.29588" lon="6.65605">
        <ele>2472.3</ele>
        <time>2018-07-01T11:23:26Z</time>
      </trkpt>
      <trkpt lat="45.29585" lon="6.65603">
        <ele>2472.6</ele>
        <time>2018-07-01T11:23:29Z</time>
      </trkpt>
      <trkpt lat="45.29583" lon="6.656">
        <ele>2472.7</ele>
        <time>2018-07-01T11:23:31Z</time>
      </trkpt>
      <trkpt lat="45.2958" lon="6.65599">
        <ele>2473</ele>
        <time>2018-07-01T11:23:34Z</time>
      </trkpt>
      <trkpt lat="45.29576" lon="6.65601">
        <ele>2472.7</ele>
        <time>2018-07-01T11:23:37Z</time>
      </trkpt>
      <trkpt lat="45.29573" lon="6.65602">
        <ele>2472.8</ele>
        <time>2018-07-01T11:23:40Z</time>
      </trkpt>
      <trkpt lat="45.29571" lon="6.65605">
        <ele>2472.4</ele>
        <time>2018-07-01T11:23:45Z</time>
      </trkpt>
      <trkpt lat="45.29567" lon="6.65606">
        <ele>2472.5</ele>
        <time>2018-07-01T11:23:49Z</time>
      </trkpt>
      <trkpt lat="45.29565" lon="6.65606">
        <ele>2472.5</ele>
        <time>2018-07-01T11:23:51Z</time>
      </trkpt>
      <trkpt lat="45.29561" lon="6.65607">
        <ele>2472.6</ele>
        <time>2018-07-01T11:23:54Z</time>
      </trkpt>
      <trkpt lat="45.29557" lon="6.65607">
        <ele>2472.7</ele>
        <time>2018-07-01T11:23:57Z</time>
      </trkpt>
      <trkpt lat="45.29554" lon="6.65607">
        <ele>2472.9</ele>
        <time>2018-07-01T11:24:00Z</time>
      </trkpt>
      <trkpt lat="45.29551" lon="6.65608">
        <ele>2473.1</ele>
        <time>2018-07-01T11:24:03Z</time>
      </trkpt>
      <trkpt lat="45.29548" lon="6.65609">
        <ele>2472.8</ele>
        <time>2018-07-01T11:24:06Z</time>
      </trkpt>
      <trkpt lat="45.29545" lon="6.65611">
        <ele>2473</ele>
        <time>2018-07-01T11:24:09Z</time>
      </trkpt>
      <trkpt lat="45.29543" lon="6.65612">
        <ele>2473.1</ele>
        <time>2018-07-01T11:24:12Z</time>
      </trkpt>
      <trkpt lat="45.2954" lon="6.65615">
        <ele>2472.9</ele>
        <time>2018-07-01T11:24:15Z</time>
      </trkpt>
      <trkpt lat="45.29538" lon="6.65617">
        <ele>2472.7</ele>
        <time>2018-07-01T11:24:18Z</time>
      </trkpt>
      <trkpt lat="45.29534" lon="6.65618">
        <ele>2472.8</ele>
        <time>2018-07-01T11:24:21Z</time>
      </trkpt>
      <trkpt lat="45.29531" lon="6.65619">
        <ele>2472.9</ele>
        <time>2018-07-01T11:24:24Z</time>
      </trkpt>
      <trkpt lat="45.29528" lon="6.65619">
        <ele>2473</ele>
        <time>2018-07-01T11:24:27Z</time>
      </trkpt>
      <trkpt lat="45.29525" lon="6.65619">
        <ele>2473.2</ele>
        <time>2018-07-01T11:24:30Z</time>
      </trkpt>
      <trkpt lat="45.29522" lon="6.65619">
        <ele>2473.3</ele>
        <time>2018-07-01T11:24:33Z</time>
      </trkpt>
      <trkpt lat="45.29519" lon="6.6562">
        <ele>2473.5</ele>
        <time>2018-07-01T11:24:36Z</time>
      </trkpt>
      <trkpt lat="45.29516" lon="6.6562">
        <ele>2473.6</ele>
        <time>2018-07-01T11:24:39Z</time>
      </trkpt>
      <trkpt lat="45.29513" lon="6.65619">
        <ele>2473.9</ele>
        <time>2018-07-01T11:24:42Z</time>
      </trkpt>
      <trkpt lat="45.2951" lon="6.65617">
        <ele>2474.1</ele>
        <time>2018-07-01T11:24:46Z</time>
      </trkpt>
      <trkpt lat="45.29507" lon="6.65618">
        <ele>2474.3</ele>
        <time>2018-07-01T11:24:50Z</time>
      </trkpt>
      <trkpt lat="45.29504" lon="6.65619">
        <ele>2474.6</ele>
        <time>2018-07-01T11:24:53Z</time>
      </trkpt>
      <trkpt lat="45.29502" lon="6.6562">
        <ele>2474.9</ele>
        <time>2018-07-01T11:24:56Z</time>
      </trkpt>
      <trkpt lat="45.29499" lon="6.65621">
        <ele>2475.2</ele>
        <time>2018-07-01T11:25:00Z</time>
      </trkpt>
      <trkpt lat="45.29495" lon="6.65622">
        <ele>2475.4</ele>
        <time>2018-07-01T11:25:04Z</time>
      </trkpt>
      <trkpt lat="45.29492" lon="6.65624">
        <ele>2475.7</ele>
        <time>2018-07-01T11:25:09Z</time>
      </trkpt>
      <trkpt lat="45.29489" lon="6.65625">
        <ele>2475.9</ele>
        <time>2018-07-01T11:25:13Z</time>
      </trkpt>
      <trkpt lat="45.29486" lon="6.65626">
        <ele>2476.1</ele>
        <time>2018-07-01T11:25:17Z</time>
      </trkpt>
      <trkpt lat="45.29483" lon="6.65626">
        <ele>2476.2</ele>
        <time>2018-07-01T11:25:21Z</time>
      </trkpt>
      <trkpt lat="45.2948" lon="6.65626">
        <ele>2476.4</ele>
        <time>2018-07-01T11:25:25Z</time>
      </trkpt>
      <trkpt lat="45.29477" lon="6.65627">
        <ele>2476.5</ele>
        <time>2018-07-01T11:25:30Z</time>
      </trkpt>
      <trkpt lat="45.29474" lon="6.65627">
        <ele>2476.6</ele>
        <time>2018-07-01T11:25:34Z</time>
      </trkpt>
      <trkpt lat="45.29471" lon="6.65627">
        <ele>2476.6</ele>
        <time>2018-07-01T11:25:38Z</time>
      </trkpt>
      <trkpt lat="45.29468" lon="6.65624">
        <ele>2476.5</ele>
        <time>2018-07-01T11:25:47Z</time>
      </trkpt>
      <trkpt lat="45.29465" lon="6.65625">
        <ele>2476.4</ele>
        <time>2018-07-01T11:25:53Z</time>
      </trkpt>
      <trkpt lat="45.29463" lon="6.65627">
        <ele>2476.6</ele>
        <time>2018-07-01T11:26:00Z</time>
      </trkpt>
      <trkpt lat="45.2946" lon="6.65628">
        <ele>2476.5</ele>
        <time>2018-07-01T11:26:05Z</time>
      </trkpt>
      <trkpt lat="45.29458" lon="6.65625">
        <ele>2476.3</ele>
        <time>2018-07-01T11:26:09Z</time>
      </trkpt>
      <trkpt lat="45.29457" lon="6.65622">
        <ele>2476.2</ele>
        <time>2018-07-01T11:26:14Z</time>
      </trkpt>
      <trkpt lat="45.29455" lon="6.65618">
        <ele>2475.9</ele>
        <time>2018-07-01T11:26:18Z</time>
      </trkpt>
      <trkpt lat="45.29454" lon="6.65614">
        <ele>2475.4</ele>
        <time>2018-07-01T11:26:23Z</time>
      </trkpt>
      <trkpt lat="45.29451" lon="6.65612">
        <ele>2474.8</ele>
        <time>2018-07-01T11:26:26Z</time>
      </trkpt>
      <trkpt lat="45.29448" lon="6.65611">
        <ele>2474.7</ele>
        <time>2018-07-01T11:26:31Z</time>
      </trkpt>
      <trkpt lat="45.29445" lon="6.65611">
        <ele>2474.6</ele>
        <time>2018-07-01T11:26:35Z</time>
      </trkpt>
      <trkpt lat="45.29442" lon="6.65613">
        <ele>2474.9</ele>
        <time>2018-07-01T11:26:38Z</time>
      </trkpt>
      <trkpt lat="45.2944" lon="6.65617">
        <ele>2474.9</ele>
        <time>2018-07-01T11:26:42Z</time>
      </trkpt>
      <trkpt lat="45.29436" lon="6.65617">
        <ele>2474.6</ele>
        <time>2018-07-01T11:26:46Z</time>
      </trkpt>
      <trkpt lat="45.29433" lon="6.65616">
        <ele>2474.5</ele>
        <time>2018-07-01T11:26:50Z</time>
      </trkpt>
      <trkpt lat="45.2943" lon="6.65616">
        <ele>2474.3</ele>
        <time>2018-07-01T11:26:54Z</time>
      </trkpt>
      <trkpt lat="45.29426" lon="6.65616">
        <ele>2474.1</ele>
        <time>2018-07-01T11:26:59Z</time>
      </trkpt>
      <trkpt lat="45.29424" lon="6.65615">
        <ele>2473.9</ele>
        <time>2018-07-01T11:27:03Z</time>
      </trkpt>
      <trkpt lat="45.29421" lon="6.65614">
        <ele>2473.7</ele>
        <time>2018-07-01T11:27:09Z</time>
      </trkpt>
      <trkpt lat="45.29418" lon="6.65614">
        <ele>2473.5</ele>
        <time>2018-07-01T11:27:14Z</time>
      </trkpt>
      <trkpt lat="45.29415" lon="6.65615">
        <ele>2473.3</ele>
        <time>2018-07-01T11:27:18Z</time>
      </trkpt>
      <trkpt lat="45.29411" lon="6.65616">
        <ele>2473.1</ele>
        <time>2018-07-01T11:27:24Z</time>
      </trkpt>
      <trkpt lat="45.29408" lon="6.65615">
        <ele>2472.8</ele>
        <time>2018-07-01T11:28:25Z</time>
      </trkpt>
      <trkpt lat="45.29405" lon="6.65616">
        <ele>2472.6</ele>
        <time>2018-07-01T11:28:30Z</time>
      </trkpt>
      <trkpt lat="45.29401" lon="6.65615">
        <ele>2472.4</ele>
        <time>2018-07-01T11:28:34Z</time>
      </trkpt>
      <trkpt lat="45.29398" lon="6.65614">
        <ele>2472.2</ele>
        <time>2018-07-01T11:28:38Z</time>
      </trkpt>
      <trkpt lat="45.29395" lon="6.65611">
        <ele>2471.5</ele>
        <time>2018-07-01T11:28:43Z</time>
      </trkpt>
      <trkpt lat="45.29392" lon="6.65611">
        <ele>2471.4</ele>
        <time>2018-07-01T11:28:46Z</time>
      </trkpt>
      <trkpt lat="45.2939" lon="6.65614">
        <ele>2471.7</ele>
        <time>2018-07-01T11:28:51Z</time>
      </trkpt>
      <trkpt lat="45.29386" lon="6.65616">
        <ele>2471.6</ele>
        <time>2018-07-01T11:28:55Z</time>
      </trkpt>
      <trkpt lat="45.29383" lon="6.65617">
        <ele>2471.5</ele>
        <time>2018-07-01T11:28:58Z</time>
      </trkpt>
      <trkpt lat="45.29379" lon="6.65619">
        <ele>2472</ele>
        <time>2018-07-01T11:29:02Z</time>
      </trkpt>
      <trkpt lat="45.29376" lon="6.65619">
        <ele>2471.9</ele>
        <time>2018-07-01T11:29:05Z</time>
      </trkpt>
      <trkpt lat="45.29374" lon="6.65619">
        <ele>2471.9</ele>
        <time>2018-07-01T11:29:08Z</time>
      </trkpt>
      <trkpt lat="45.29371" lon="6.65619">
        <ele>2471.9</ele>
        <time>2018-07-01T11:29:11Z</time>
      </trkpt>
      <trkpt lat="45.29368" lon="6.65619">
        <ele>2471.9</ele>
        <time>2018-07-01T11:29:14Z</time>
      </trkpt>
      <trkpt lat="45.29365" lon="6.65619">
        <ele>2472</ele>
        <time>2018-07-01T11:29:17Z</time>
      </trkpt>
      <trkpt lat="45.29362" lon="6.65618">
        <ele>2472.1</ele>
        <time>2018-07-01T11:29:21Z</time>
      </trkpt>
      <trkpt lat="45.29358" lon="6.65618">
        <ele>2472.2</ele>
        <time>2018-07-01T11:29:24Z</time>
      </trkpt>
      <trkpt lat="45.29355" lon="6.65619">
        <ele>2472.4</ele>
        <time>2018-07-01T11:29:28Z</time>
      </trkpt>
      <trkpt lat="45.29353" lon="6.65618">
        <ele>2472.6</ele>
        <time>2018-07-01T11:29:32Z</time>
      </trkpt>
      <trkpt lat="45.2935" lon="6.65616">
        <ele>2472.2</ele>
        <time>2018-07-01T11:29:36Z</time>
      </trkpt>
      <trkpt lat="45.29347" lon="6.65613">
        <ele>2472.4</ele>
        <time>2018-07-01T11:29:40Z</time>
      </trkpt>
      <trkpt lat="45.29344" lon="6.65613">
        <ele>2472.5</ele>
        <time>2018-07-01T11:29:45Z</time>
      </trkpt>
      <trkpt lat="45.29341" lon="6.65615">
        <ele>2472.7</ele>
        <time>2018-07-01T11:29:50Z</time>
      </trkpt>
      <trkpt lat="45.29338" lon="6.65615">
        <ele>2472.9</ele>
        <time>2018-07-01T11:29:54Z</time>
      </trkpt>
      <trkpt lat="45.29334" lon="6.65615">
        <ele>2473.2</ele>
        <time>2018-07-01T11:29:58Z</time>
      </trkpt>
      <trkpt lat="45.29332" lon="6.65613">
        <ele>2473.4</ele>
        <time>2018-07-01T11:30:01Z</time>
      </trkpt>
      <trkpt lat="45.29329" lon="6.65611">
        <ele>2473.1</ele>
        <time>2018-07-01T11:30:06Z</time>
      </trkpt>
      <trkpt lat="45.29326" lon="6.65607">
        <ele>2472.9</ele>
        <time>2018-07-01T11:30:11Z</time>
      </trkpt>
      <trkpt lat="45.29324" lon="6.65604">
        <ele>2472.7</ele>
        <time>2018-07-01T11:30:18Z</time>
      </trkpt>
      <trkpt lat="45.29322" lon="6.65601">
        <ele>2472.7</ele>
        <time>2018-07-01T11:30:24Z</time>
      </trkpt>
      <trkpt lat="45.29319" lon="6.65599">
        <ele>2472.5</ele>
        <time>2018-07-01T11:30:29Z</time>
      </trkpt>
      <trkpt lat="45.29317" lon="6.65595">
        <ele>2472.4</ele>
        <time>2018-07-01T11:30:34Z</time>
      </trkpt>
      <trkpt lat="45.29315" lon="6.65591">
        <ele>2472.9</ele>
        <time>2018-07-01T11:30:38Z</time>
      </trkpt>
      <trkpt lat="45.29315" lon="6.65587">
        <ele>2472.4</ele>
        <time>2018-07-01T11:30:43Z</time>
      </trkpt>
      <trkpt lat="45.29315" lon="6.65583">
        <ele>2471.9</ele>
        <time>2018-07-01T11:30:47Z</time>
      </trkpt>
      <trkpt lat="45.29317" lon="6.6558">
        <ele>2471</ele>
        <time>2018-07-01T11:30:50Z</time>
      </trkpt>
      <trkpt lat="45.29319" lon="6.65577">
        <ele>2470</ele>
        <time>2018-07-01T11:30:53Z</time>
      </trkpt>
      <trkpt lat="45.29321" lon="6.65574">
        <ele>2469.6</ele>
        <time>2018-07-01T11:30:56Z</time>
      </trkpt>
      <trkpt lat="45.29319" lon="6.65571">
        <ele>2470.1</ele>
        <time>2018-07-01T11:31:01Z</time>
      </trkpt>
      <trkpt lat="45.29316" lon="6.65569">
        <ele>2470.6</ele>
        <time>2018-07-01T11:31:06Z</time>
      </trkpt>
      <trkpt lat="45.29314" lon="6.65566">
        <ele>2471</ele>
        <time>2018-07-01T11:31:13Z</time>
      </trkpt>
      <trkpt lat="45.29311" lon="6.65564">
        <ele>2471.4</ele>
        <time>2018-07-01T11:31:20Z</time>
      </trkpt>
      <trkpt lat="45.29308" lon="6.65564">
        <ele>2471.8</ele>
        <time>2018-07-01T11:31:26Z</time>
      </trkpt>
      <trkpt lat="45.29305" lon="6.65563">
        <ele>2472.6</ele>
        <time>2018-07-01T11:31:31Z</time>
      </trkpt>
      <trkpt lat="45.29302" lon="6.65564">
        <ele>2473.3</ele>
        <time>2018-07-01T11:31:39Z</time>
      </trkpt>
      <trkpt lat="45.29299" lon="6.65565">
        <ele>2474</ele>
        <time>2018-07-01T11:31:44Z</time>
      </trkpt>
      <trkpt lat="45.29296" lon="6.65565">
        <ele>2474.6</ele>
        <time>2018-07-01T11:31:48Z</time>
      </trkpt>
      <trkpt lat="45.29293" lon="6.65566">
        <ele>2475.3</ele>
        <time>2018-07-01T11:31:52Z</time>
      </trkpt>
      <trkpt lat="45.29291" lon="6.65568">
        <ele>2475.9</ele>
        <time>2018-07-01T11:31:56Z</time>
      </trkpt>
      <trkpt lat="45.29289" lon="6.65571">
        <ele>2476.5</ele>
        <time>2018-07-01T11:32:02Z</time>
      </trkpt>
      <trkpt lat="45.29286" lon="6.65573">
        <ele>2477.2</ele>
        <time>2018-07-01T11:32:37Z</time>
      </trkpt>
      <trkpt lat="45.29283" lon="6.65575">
        <ele>2477.9</ele>
        <time>2018-07-01T11:32:41Z</time>
      </trkpt>
      <trkpt lat="45.2928" lon="6.65577">
        <ele>2478.7</ele>
        <time>2018-07-01T11:32:45Z</time>
      </trkpt>
      <trkpt lat="45.29277" lon="6.65583">
        <ele>2479.8</ele>
        <time>2018-07-01T11:33:14Z</time>
      </trkpt>
      <trkpt lat="45.29274" lon="6.65585">
        <ele>2480.5</ele>
        <time>2018-07-01T11:33:18Z</time>
      </trkpt>
      <trkpt lat="45.29271" lon="6.65586">
        <ele>2481</ele>
        <time>2018-07-01T11:33:21Z</time>
      </trkpt>
      <trkpt lat="45.29268" lon="6.65587">
        <ele>2481.8</ele>
        <time>2018-07-01T11:33:24Z</time>
      </trkpt>
      <trkpt lat="45.29265" lon="6.65588">
        <ele>2482.7</ele>
        <time>2018-07-01T11:33:27Z</time>
      </trkpt>
      <trkpt lat="45.29262" lon="6.65589">
        <ele>2483.3</ele>
        <time>2018-07-01T11:33:30Z</time>
      </trkpt>
      <trkpt lat="45.29259" lon="6.6559">
        <ele>2483.9</ele>
        <time>2018-07-01T11:33:33Z</time>
      </trkpt>
      <trkpt lat="45.29256" lon="6.65591">
        <ele>2484.5</ele>
        <time>2018-07-01T11:33:36Z</time>
      </trkpt>
      <trkpt lat="45.29254" lon="6.65592">
        <ele>2485.1</ele>
        <time>2018-07-01T11:33:39Z</time>
      </trkpt>
      <trkpt lat="45.29251" lon="6.65593">
        <ele>2485.6</ele>
        <time>2018-07-01T11:33:42Z</time>
      </trkpt>
      <trkpt lat="45.29248" lon="6.65594">
        <ele>2486.2</ele>
        <time>2018-07-01T11:33:45Z</time>
      </trkpt>
      <trkpt lat="45.29245" lon="6.65596">
        <ele>2486.9</ele>
        <time>2018-07-01T11:33:48Z</time>
      </trkpt>
      <trkpt lat="45.29244" lon="6.656">
        <ele>2487.7</ele>
        <time>2018-07-01T11:33:51Z</time>
      </trkpt>
      <trkpt lat="45.29242" lon="6.65603">
        <ele>2488.5</ele>
        <time>2018-07-01T11:33:54Z</time>
      </trkpt>
      <trkpt lat="45.2924" lon="6.65606">
        <ele>2488.9</ele>
        <time>2018-07-01T11:33:58Z</time>
      </trkpt>
      <trkpt lat="45.29238" lon="6.65608">
        <ele>2489.3</ele>
        <time>2018-07-01T11:34:02Z</time>
      </trkpt>
      <trkpt lat="45.29235" lon="6.65609">
        <ele>2489.7</ele>
        <time>2018-07-01T11:34:05Z</time>
      </trkpt>
      <trkpt lat="45.29232" lon="6.65611">
        <ele>2490.2</ele>
        <time>2018-07-01T11:34:09Z</time>
      </trkpt>
      <trkpt lat="45.2923" lon="6.65614">
        <ele>2490.7</ele>
        <time>2018-07-01T11:34:13Z</time>
      </trkpt>
      <trkpt lat="45.29228" lon="6.65616">
        <ele>2491.2</ele>
        <time>2018-07-01T11:34:17Z</time>
      </trkpt>
      <trkpt lat="45.29225" lon="6.65619">
        <ele>2491.9</ele>
        <time>2018-07-01T11:34:21Z</time>
      </trkpt>
      <trkpt lat="45.29224" lon="6.65623">
        <ele>2492.5</ele>
        <time>2018-07-01T11:34:25Z</time>
      </trkpt>
      <trkpt lat="45.29222" lon="6.65627">
        <ele>2493.1</ele>
        <time>2018-07-01T11:34:28Z</time>
      </trkpt>
      <trkpt lat="45.2922" lon="6.65631">
        <ele>2493.4</ele>
        <time>2018-07-01T11:34:32Z</time>
      </trkpt>
      <trkpt lat="45.29218" lon="6.65633">
        <ele>2493.7</ele>
        <time>2018-07-01T11:34:36Z</time>
      </trkpt>
      <trkpt lat="45.29215" lon="6.65636">
        <ele>2494.1</ele>
        <time>2018-07-01T11:34:40Z</time>
      </trkpt>
      <trkpt lat="45.29212" lon="6.65639">
        <ele>2494.4</ele>
        <time>2018-07-01T11:34:44Z</time>
      </trkpt>
      <trkpt lat="45.2921" lon="6.6564">
        <ele>2494.8</ele>
        <time>2018-07-01T11:34:48Z</time>
      </trkpt>
      <trkpt lat="45.29208" lon="6.65644">
        <ele>2495.1</ele>
        <time>2018-07-01T11:35:19Z</time>
      </trkpt>
      <trkpt lat="45.29206" lon="6.65647">
        <ele>2495.3</ele>
        <time>2018-07-01T11:35:22Z</time>
      </trkpt>
      <trkpt lat="45.29204" lon="6.6565">
        <ele>2495.5</ele>
        <time>2018-07-01T11:35:25Z</time>
      </trkpt>
      <trkpt lat="45.29201" lon="6.65654">
        <ele>2495.7</ele>
        <time>2018-07-01T11:35:29Z</time>
      </trkpt>
      <trkpt lat="45.29198" lon="6.65657">
        <ele>2495.9</ele>
        <time>2018-07-01T11:35:33Z</time>
      </trkpt>
      <trkpt lat="45.29196" lon="6.65659">
        <ele>2496.1</ele>
        <time>2018-07-01T11:35:36Z</time>
      </trkpt>
      <trkpt lat="45.29192" lon="6.65661">
        <ele>2496.3</ele>
        <time>2018-07-01T11:35:39Z</time>
      </trkpt>
      <trkpt lat="45.29189" lon="6.65662">
        <ele>2496.4</ele>
        <time>2018-07-01T11:35:42Z</time>
      </trkpt>
      <trkpt lat="45.29186" lon="6.65665">
        <ele>2496.5</ele>
        <time>2018-07-01T11:35:45Z</time>
      </trkpt>
      <trkpt lat="45.29184" lon="6.65668">
        <ele>2496.7</ele>
        <time>2018-07-01T11:35:48Z</time>
      </trkpt>
      <trkpt lat="45.29181" lon="6.6567">
        <ele>2496.8</ele>
        <time>2018-07-01T11:35:51Z</time>
      </trkpt>
      <trkpt lat="45.29178" lon="6.65672">
        <ele>2496.9</ele>
        <time>2018-07-01T11:35:54Z</time>
      </trkpt>
      <trkpt lat="45.29176" lon="6.65675">
        <ele>2497.1</ele>
        <time>2018-07-01T11:35:57Z</time>
      </trkpt>
      <trkpt lat="45.29174" lon="6.65679">
        <ele>2497.2</ele>
        <time>2018-07-01T11:36:00Z</time>
      </trkpt>
      <trkpt lat="45.2917" lon="6.65685">
        <ele>2497.4</ele>
        <time>2018-07-01T11:36:25Z</time>
      </trkpt>
      <trkpt lat="45.29167" lon="6.65688">
        <ele>2497.6</ele>
        <time>2018-07-01T11:36:28Z</time>
      </trkpt>
      <trkpt lat="45.29165" lon="6.65691">
        <ele>2497.6</ele>
        <time>2018-07-01T11:36:32Z</time>
      </trkpt>
      <trkpt lat="45.29164" lon="6.65695">
        <ele>2497.7</ele>
        <time>2018-07-01T11:37:30Z</time>
      </trkpt>
      <trkpt lat="45.29161" lon="6.65693">
        <ele>2497.8</ele>
        <time>2018-07-01T11:40:44Z</time>
      </trkpt>
      <trkpt lat="45.29157" lon="6.65699">
        <ele>2497.5</ele>
        <time>2018-07-01T11:41:52Z</time>
      </trkpt>
      <trkpt lat="45.29156" lon="6.65703">
        <ele>2497.4</ele>
        <time>2018-07-01T11:42:31Z</time>
      </trkpt>
      <trkpt lat="45.29154" lon="6.65706">
        <ele>2497.4</ele>
        <time>2018-07-01T11:42:35Z</time>
      </trkpt>
      <trkpt lat="45.29152" lon="6.65709">
        <ele>2497.4</ele>
        <time>2018-07-01T11:42:38Z</time>
      </trkpt>
      <trkpt lat="45.2915" lon="6.65711">
        <ele>2497.5</ele>
        <time>2018-07-01T11:42:42Z</time>
      </trkpt>
      <trkpt lat="45.29148" lon="6.65714">
        <ele>2497.5</ele>
        <time>2018-07-01T11:42:47Z</time>
      </trkpt>
      <trkpt lat="45.29145" lon="6.65717">
        <ele>2497.6</ele>
        <time>2018-07-01T11:42:53Z</time>
      </trkpt>
      <trkpt lat="45.29142" lon="6.65719">
        <ele>2497.6</ele>
        <time>2018-07-01T11:42:57Z</time>
      </trkpt>
      <trkpt lat="45.29139" lon="6.65721">
        <ele>2497.7</ele>
        <time>2018-07-01T11:43:01Z</time>
      </trkpt>
      <trkpt lat="45.29137" lon="6.65724">
        <ele>2497.7</ele>
        <time>2018-07-01T11:43:05Z</time>
      </trkpt>
      <trkpt lat="45.29133" lon="6.65725">
        <ele>2497.7</ele>
        <time>2018-07-01T11:43:09Z</time>
      </trkpt>
      <trkpt lat="45.2913" lon="6.65726">
        <ele>2497.6</ele>
        <time>2018-07-01T11:43:13Z</time>
      </trkpt>
      <trkpt lat="45.29128" lon="6.65728">
        <ele>2497.6</ele>
        <time>2018-07-01T11:43:17Z</time>
      </trkpt>
      <trkpt lat="45.29126" lon="6.65732">
        <ele>2497.6</ele>
        <time>2018-07-01T11:43:21Z</time>
      </trkpt>
      <trkpt lat="45.29124" lon="6.65735">
        <ele>2497.5</ele>
        <time>2018-07-01T11:43:25Z</time>
      </trkpt>
      <trkpt lat="45.29122" lon="6.65739">
        <ele>2497.4</ele>
        <time>2018-07-01T11:43:29Z</time>
      </trkpt>
      <trkpt lat="45.2912" lon="6.65743">
        <ele>2497.2</ele>
        <time>2018-07-01T11:43:33Z</time>
      </trkpt>
      <trkpt lat="45.29118" lon="6.65746">
        <ele>2497.1</ele>
        <time>2018-07-01T11:43:37Z</time>
      </trkpt>
      <trkpt lat="45.29117" lon="6.6575">
        <ele>2497</ele>
        <time>2018-07-01T11:43:41Z</time>
      </trkpt>
      <trkpt lat="45.29113" lon="6.65754">
        <ele>2496.7</ele>
        <time>2018-07-01T11:43:49Z</time>
      </trkpt>
      <trkpt lat="45.29111" lon="6.65757">
        <ele>2496.5</ele>
        <time>2018-07-01T11:43:53Z</time>
      </trkpt>
      <trkpt lat="45.29109" lon="6.6576">
        <ele>2496.3</ele>
        <time>2018-07-01T11:43:57Z</time>
      </trkpt>
      <trkpt lat="45.29107" lon="6.65764">
        <ele>2496.1</ele>
        <time>2018-07-01T11:44:10Z</time>
      </trkpt>
      <trkpt lat="45.29105" lon="6.65766">
        <ele>2495.9</ele>
        <time>2018-07-01T11:44:13Z</time>
      </trkpt>
      <trkpt lat="45.29102" lon="6.65768">
        <ele>2495.7</ele>
        <time>2018-07-01T11:44:17Z</time>
      </trkpt>
      <trkpt lat="45.291" lon="6.65771">
        <ele>2495.5</ele>
        <time>2018-07-01T11:44:21Z</time>
      </trkpt>
      <trkpt lat="45.29099" lon="6.65775">
        <ele>2495.3</ele>
        <time>2018-07-01T11:44:25Z</time>
      </trkpt>
      <trkpt lat="45.29098" lon="6.65779">
        <ele>2495.2</ele>
        <time>2018-07-01T11:44:29Z</time>
      </trkpt>
      <trkpt lat="45.29096" lon="6.65782">
        <ele>2495</ele>
        <time>2018-07-01T11:44:33Z</time>
      </trkpt>
      <trkpt lat="45.29095" lon="6.65786">
        <ele>2494.9</ele>
        <time>2018-07-01T11:44:37Z</time>
      </trkpt>
      <trkpt lat="45.29093" lon="6.6579">
        <ele>2494.8</ele>
        <time>2018-07-01T11:44:41Z</time>
      </trkpt>
      <trkpt lat="45.29091" lon="6.65793">
        <ele>2494.7</ele>
        <time>2018-07-01T11:44:45Z</time>
      </trkpt>
      <trkpt lat="45.29091" lon="6.65797">
        <ele>2494.6</ele>
        <time>2018-07-01T11:44:51Z</time>
      </trkpt>
      <trkpt lat="45.29092" lon="6.65801">
        <ele>2494.4</ele>
        <time>2018-07-01T11:44:55Z</time>
      </trkpt>
      <trkpt lat="45.29091" lon="6.65806">
        <ele>2494.2</ele>
        <time>2018-07-01T11:44:58Z</time>
      </trkpt>
      <trkpt lat="45.2909" lon="6.65811">
        <ele>2494.1</ele>
        <time>2018-07-01T11:45:01Z</time>
      </trkpt>
      <trkpt lat="45.29088" lon="6.65815">
        <ele>2493.9</ele>
        <time>2018-07-01T11:45:04Z</time>
      </trkpt>
      <trkpt lat="45.29086" lon="6.65819">
        <ele>2493.8</ele>
        <time>2018-07-01T11:45:07Z</time>
      </trkpt>
      <trkpt lat="45.29085" lon="6.65823">
        <ele>2493.7</ele>
        <time>2018-07-01T11:45:10Z</time>
      </trkpt>
      <trkpt lat="45.29083" lon="6.65828">
        <ele>2493.6</ele>
        <time>2018-07-01T11:45:14Z</time>
      </trkpt>
      <trkpt lat="45.29081" lon="6.65832">
        <ele>2493.5</ele>
        <time>2018-07-01T11:45:19Z</time>
      </trkpt>
      <trkpt lat="45.29079" lon="6.65835">
        <ele>2493.4</ele>
        <time>2018-07-01T11:45:27Z</time>
      </trkpt>
      <trkpt lat="45.29078" lon="6.65839">
        <ele>2493.2</ele>
        <time>2018-07-01T11:45:31Z</time>
      </trkpt>
      <trkpt lat="45.29078" lon="6.65843">
        <ele>2493.1</ele>
        <time>2018-07-01T11:45:34Z</time>
      </trkpt>
      <trkpt lat="45.29077" lon="6.65847">
        <ele>2493</ele>
        <time>2018-07-01T11:45:38Z</time>
      </trkpt>
      <trkpt lat="45.29076" lon="6.65852">
        <ele>2492.8</ele>
        <time>2018-07-01T11:45:42Z</time>
      </trkpt>
      <trkpt lat="45.29074" lon="6.65856">
        <ele>2492.6</ele>
        <time>2018-07-01T11:45:46Z</time>
      </trkpt>
      <trkpt lat="45.29072" lon="6.65858">
        <ele>2492.4</ele>
        <time>2018-07-01T11:45:50Z</time>
      </trkpt>
      <trkpt lat="45.29069" lon="6.6586">
        <ele>2492.2</ele>
        <time>2018-07-01T11:45:53Z</time>
      </trkpt>
      <trkpt lat="45.29066" lon="6.65862">
        <ele>2492</ele>
        <time>2018-07-01T11:45:56Z</time>
      </trkpt>
      <trkpt lat="45.29064" lon="6.65864">
        <ele>2491.8</ele>
        <time>2018-07-01T11:45:59Z</time>
      </trkpt>
      <trkpt lat="45.29061" lon="6.65865">
        <ele>2491.5</ele>
        <time>2018-07-01T11:46:03Z</time>
      </trkpt>
      <trkpt lat="45.29059" lon="6.65868">
        <ele>2491.3</ele>
        <time>2018-07-01T11:46:08Z</time>
      </trkpt>
      <trkpt lat="45.29057" lon="6.65872">
        <ele>2491</ele>
        <time>2018-07-01T11:46:19Z</time>
      </trkpt>
      <trkpt lat="45.29056" lon="6.65877">
        <ele>2490.8</ele>
        <time>2018-07-01T11:46:23Z</time>
      </trkpt>
      <trkpt lat="45.29054" lon="6.6588">
        <ele>2490.7</ele>
        <time>2018-07-01T11:46:26Z</time>
      </trkpt>
      <trkpt lat="45.29053" lon="6.65884">
        <ele>2490.5</ele>
        <time>2018-07-01T11:46:29Z</time>
      </trkpt>
      <trkpt lat="45.29051" lon="6.65887">
        <ele>2490.2</ele>
        <time>2018-07-01T11:46:32Z</time>
      </trkpt>
      <trkpt lat="45.2905" lon="6.6589">
        <ele>2489.9</ele>
        <time>2018-07-01T11:46:35Z</time>
      </trkpt>
      <trkpt lat="45.29048" lon="6.65894">
        <ele>2489.6</ele>
        <time>2018-07-01T11:46:38Z</time>
      </trkpt>
      <trkpt lat="45.29046" lon="6.65897">
        <ele>2489.3</ele>
        <time>2018-07-01T11:46:41Z</time>
      </trkpt>
      <trkpt lat="45.29044" lon="6.65901">
        <ele>2489</ele>
        <time>2018-07-01T11:46:45Z</time>
      </trkpt>
      <trkpt lat="45.29042" lon="6.65904">
        <ele>2488.5</ele>
        <time>2018-07-01T11:46:49Z</time>
      </trkpt>
      <trkpt lat="45.2904" lon="6.65908">
        <ele>2488.1</ele>
        <time>2018-07-01T11:46:53Z</time>
      </trkpt>
      <trkpt lat="45.29038" lon="6.65911">
        <ele>2487.7</ele>
        <time>2018-07-01T11:46:58Z</time>
      </trkpt>
      <trkpt lat="45.29036" lon="6.65914">
        <ele>2487</ele>
        <time>2018-07-01T11:47:02Z</time>
      </trkpt>
      <trkpt lat="45.29034" lon="6.65917">
        <ele>2486.3</ele>
        <time>2018-07-01T11:47:06Z</time>
      </trkpt>
      <trkpt lat="45.29032" lon="6.65921">
        <ele>2485.4</ele>
        <time>2018-07-01T11:47:11Z</time>
      </trkpt>
      <trkpt lat="45.2903" lon="6.65924">
        <ele>2484.8</ele>
        <time>2018-07-01T11:47:16Z</time>
      </trkpt>
      <trkpt lat="45.29028" lon="6.65927">
        <ele>2484.2</ele>
        <time>2018-07-01T11:47:21Z</time>
      </trkpt>
      <trkpt lat="45.29026" lon="6.65931">
        <ele>2483.7</ele>
        <time>2018-07-01T11:47:26Z</time>
      </trkpt>
      <trkpt lat="45.29024" lon="6.65933">
        <ele>2483</ele>
        <time>2018-07-01T11:47:29Z</time>
      </trkpt>
      <trkpt lat="45.29021" lon="6.65936">
        <ele>2482</ele>
        <time>2018-07-01T11:47:33Z</time>
      </trkpt>
      <trkpt lat="45.29019" lon="6.65939">
        <ele>2481.3</ele>
        <time>2018-07-01T11:47:37Z</time>
      </trkpt>
      <trkpt lat="45.29017" lon="6.65941">
        <ele>2480.6</ele>
        <time>2018-07-01T11:47:40Z</time>
      </trkpt>
      <trkpt lat="45.29014" lon="6.65943">
        <ele>2479.8</ele>
        <time>2018-07-01T11:47:44Z</time>
      </trkpt>
      <trkpt lat="45.29011" lon="6.65945">
        <ele>2479.3</ele>
        <time>2018-07-01T11:47:47Z</time>
      </trkpt>
      <trkpt lat="45.29009" lon="6.65947">
        <ele>2478.7</ele>
        <time>2018-07-01T11:47:50Z</time>
      </trkpt>
      <trkpt lat="45.29006" lon="6.65948">
        <ele>2478.1</ele>
        <time>2018-07-01T11:47:55Z</time>
      </trkpt>
      <trkpt lat="45.29003" lon="6.6595">
        <ele>2477.4</ele>
        <time>2018-07-01T11:47:59Z</time>
      </trkpt>
      <trkpt lat="45.29" lon="6.6595">
        <ele>2476.6</ele>
        <time>2018-07-01T11:48:03Z</time>
      </trkpt>
      <trkpt lat="45.28997" lon="6.6595">
        <ele>2476</ele>
        <time>2018-07-01T11:48:06Z</time>
      </trkpt>
      <trkpt lat="45.28993" lon="6.6595">
        <ele>2475.2</ele>
        <time>2018-07-01T11:48:10Z</time>
      </trkpt>
      <trkpt lat="45.2899" lon="6.6595">
        <ele>2474.9</ele>
        <time>2018-07-01T11:48:14Z</time>
      </trkpt>
      <trkpt lat="45.28987" lon="6.6595">
        <ele>2474.6</ele>
        <time>2018-07-01T11:48:19Z</time>
      </trkpt>
      <trkpt lat="45.28984" lon="6.65949">
        <ele>2474.5</ele>
        <time>2018-07-01T11:48:23Z</time>
      </trkpt>
      <trkpt lat="45.28981" lon="6.65947">
        <ele>2474.5</ele>
        <time>2018-07-01T11:48:28Z</time>
      </trkpt>
      <trkpt lat="45.28978" lon="6.65946">
        <ele>2474.6</ele>
        <time>2018-07-01T11:48:33Z</time>
      </trkpt>
      <trkpt lat="45.28975" lon="6.65946">
        <ele>2474.5</ele>
        <time>2018-07-01T11:48:39Z</time>
      </trkpt>
      <trkpt lat="45.28972" lon="6.65946">
        <ele>2474.3</ele>
        <time>2018-07-01T11:48:45Z</time>
      </trkpt>
      <trkpt lat="45.28969" lon="6.65944">
        <ele>2474</ele>
        <time>2018-07-01T11:48:49Z</time>
      </trkpt>
      <trkpt lat="45.28967" lon="6.65943">
        <ele>2473.8</ele>
        <time>2018-07-01T11:48:53Z</time>
      </trkpt>
      <trkpt lat="45.28964" lon="6.65941">
        <ele>2473.4</ele>
        <time>2018-07-01T11:48:57Z</time>
      </trkpt>
      <trkpt lat="45.28961" lon="6.65939">
        <ele>2473.2</ele>
        <time>2018-07-01T11:49:00Z</time>
      </trkpt>
      <trkpt lat="45.28958" lon="6.65937">
        <ele>2472.8</ele>
        <time>2018-07-01T11:49:04Z</time>
      </trkpt>
      <trkpt lat="45.28956" lon="6.65935">
        <ele>2472.5</ele>
        <time>2018-07-01T11:49:07Z</time>
      </trkpt>
      <trkpt lat="45.28952" lon="6.65933">
        <ele>2472.1</ele>
        <time>2018-07-01T11:49:12Z</time>
      </trkpt>
      <trkpt lat="45.28949" lon="6.65932">
        <ele>2471.7</ele>
        <time>2018-07-01T11:49:16Z</time>
      </trkpt>
      <trkpt lat="45.28946" lon="6.65931">
        <ele>2471.4</ele>
        <time>2018-07-01T11:49:20Z</time>
      </trkpt>
      <trkpt lat="45.28943" lon="6.65932">
        <ele>2471.5</ele>
        <time>2018-07-01T11:49:24Z</time>
      </trkpt>
      <trkpt lat="45.2894" lon="6.65933">
        <ele>2472.3</ele>
        <time>2018-07-01T11:49:29Z</time>
      </trkpt>
      <trkpt lat="45.28938" lon="6.65935">
        <ele>2473</ele>
        <time>2018-07-01T11:49:35Z</time>
      </trkpt>
      <trkpt lat="45.28935" lon="6.65935">
        <ele>2473.7</ele>
        <time>2018-07-01T11:49:43Z</time>
      </trkpt>
      <trkpt lat="45.28936" lon="6.65928">
        <ele>2475</ele>
        <time>2018-07-01T11:50:12Z</time>
      </trkpt>
      <trkpt lat="45.28934" lon="6.65925">
        <ele>2475.8</ele>
        <time>2018-07-01T11:50:16Z</time>
      </trkpt>
      <trkpt lat="45.28931" lon="6.65922">
        <ele>2476.5</ele>
        <time>2018-07-01T11:50:22Z</time>
      </trkpt>
      <trkpt lat="45.28928" lon="6.6592">
        <ele>2477.4</ele>
        <time>2018-07-01T11:50:31Z</time>
      </trkpt>
      <trkpt lat="45.28925" lon="6.65919">
        <ele>2478.3</ele>
        <time>2018-07-01T11:50:36Z</time>
      </trkpt>
      <trkpt lat="45.28922" lon="6.65918">
        <ele>2479</ele>
        <time>2018-07-01T11:50:43Z</time>
      </trkpt>
      <trkpt lat="45.28918" lon="6.65923">
        <ele>2480.3</ele>
        <time>2018-07-01T11:53:56Z</time>
      </trkpt>
      <trkpt lat="45.2892" lon="6.65923">
        <ele>2482</ele>
        <time>2018-07-01T11:55:34Z</time>
      </trkpt>
      <trkpt lat="45.28924" lon="6.65923">
        <ele>2482</ele>
        <time>2018-07-01T11:55:38Z</time>
      </trkpt>
      <trkpt lat="45.28927" lon="6.65922">
        <ele>2482</ele>
        <time>2018-07-01T11:55:42Z</time>
      </trkpt>
      <trkpt lat="45.2893" lon="6.65921">
        <ele>2482</ele>
        <time>2018-07-01T11:55:46Z</time>
      </trkpt>
      <trkpt lat="45.28933" lon="6.6592">
        <ele>2482</ele>
        <time>2018-07-01T11:55:49Z</time>
      </trkpt>
      <trkpt lat="45.28936" lon="6.65919">
        <ele>2482</ele>
        <time>2018-07-01T11:55:53Z</time>
      </trkpt>
      <trkpt lat="45.28931" lon="6.65918">
        <ele>2481.7</ele>
        <time>2018-07-01T11:57:00Z</time>
      </trkpt>
      <trkpt lat="45.28927" lon="6.65919">
        <ele>2481.4</ele>
        <time>2018-07-01T11:57:03Z</time>
      </trkpt>
      <trkpt lat="45.28924" lon="6.65917">
        <ele>2481.1</ele>
        <time>2018-07-01T11:57:07Z</time>
      </trkpt>
      <trkpt lat="45.28922" lon="6.65913">
        <ele>2480.9</ele>
        <time>2018-07-01T11:57:10Z</time>
      </trkpt>
      <trkpt lat="45.28914" lon="6.65919">
        <ele>2480</ele>
        <time>2018-07-01T12:03:57Z</time>
      </trkpt>
      <trkpt lat="45.28918" lon="6.65918">
        <ele>2479.7</ele>
        <time>2018-07-01T12:04:20Z</time>
      </trkpt>
      <trkpt lat="45.28911" lon="6.65915">
        <ele>2479.1</ele>
        <time>2018-07-01T12:15:27Z</time>
      </trkpt>
      <trkpt lat="45.28916" lon="6.6592">
        <ele>2478.6</ele>
        <time>2018-07-01T12:16:49Z</time>
      </trkpt>
      <trkpt lat="45.28918" lon="6.65923">
        <ele>2478.2</ele>
        <time>2018-07-01T12:16:53Z</time>
      </trkpt>
      <trkpt lat="45.2892" lon="6.65926">
        <ele>2477.9</ele>
        <time>2018-07-01T12:16:56Z</time>
      </trkpt>
      <trkpt lat="45.28922" lon="6.65929">
        <ele>2477.6</ele>
        <time>2018-07-01T12:16:59Z</time>
      </trkpt>
      <trkpt lat="45.28925" lon="6.65931">
        <ele>2477.2</ele>
        <time>2018-07-01T12:17:02Z</time>
      </trkpt>
      <trkpt lat="45.28926" lon="6.65935">
        <ele>2476.9</ele>
        <time>2018-07-01T12:17:05Z</time>
      </trkpt>
      <trkpt lat="45.28925" lon="6.65939">
        <ele>2476.5</ele>
        <time>2018-07-01T12:17:09Z</time>
      </trkpt>
      <trkpt lat="45.28922" lon="6.6594">
        <ele>2476</ele>
        <time>2018-07-01T12:17:12Z</time>
      </trkpt>
      <trkpt lat="45.28919" lon="6.65939">
        <ele>2475.4</ele>
        <time>2018-07-01T12:17:16Z</time>
      </trkpt>
      <trkpt lat="45.28916" lon="6.65939">
        <ele>2475</ele>
        <time>2018-07-01T12:17:19Z</time>
      </trkpt>
      <trkpt lat="45.28913" lon="6.65939">
        <ele>2474.6</ele>
        <time>2018-07-01T12:17:22Z</time>
      </trkpt>
      <trkpt lat="45.2891" lon="6.65941">
        <ele>2474.2</ele>
        <time>2018-07-01T12:17:25Z</time>
      </trkpt>
      <trkpt lat="45.28908" lon="6.65945">
        <ele>2473.7</ele>
        <time>2018-07-01T12:17:28Z</time>
      </trkpt>
      <trkpt lat="45.28908" lon="6.65949">
        <ele>2473.7</ele>
        <time>2018-07-01T12:17:31Z</time>
      </trkpt>
      <trkpt lat="45.28908" lon="6.65953">
        <ele>2473.9</ele>
        <time>2018-07-01T12:17:34Z</time>
      </trkpt>
      <trkpt lat="45.28909" lon="6.65958">
        <ele>2474.1</ele>
        <time>2018-07-01T12:17:37Z</time>
      </trkpt>
      <trkpt lat="45.2891" lon="6.65962">
        <ele>2474.3</ele>
        <time>2018-07-01T12:17:40Z</time>
      </trkpt>
      <trkpt lat="45.28912" lon="6.65966">
        <ele>2474.5</ele>
        <time>2018-07-01T12:17:43Z</time>
      </trkpt>
      <trkpt lat="45.28914" lon="6.65968">
        <ele>2474.7</ele>
        <time>2018-07-01T12:17:46Z</time>
      </trkpt>
      <trkpt lat="45.28917" lon="6.6597">
        <ele>2474.3</ele>
        <time>2018-07-01T12:17:49Z</time>
      </trkpt>
      <trkpt lat="45.28918" lon="6.65975">
        <ele>2473.7</ele>
        <time>2018-07-01T12:17:52Z</time>
      </trkpt>
      <trkpt lat="45.2892" lon="6.65978">
        <ele>2473.1</ele>
        <time>2018-07-01T12:17:56Z</time>
      </trkpt>
      <trkpt lat="45.28923" lon="6.65978">
        <ele>2472.6</ele>
        <time>2018-07-01T12:17:59Z</time>
      </trkpt>
      <trkpt lat="45.28925" lon="6.65981">
        <ele>2472.3</ele>
        <time>2018-07-01T12:18:04Z</time>
      </trkpt>
      <trkpt lat="45.28923" lon="6.65986">
        <ele>2472</ele>
        <time>2018-07-01T12:18:11Z</time>
      </trkpt>
      <trkpt lat="45.28921" lon="6.65989">
        <ele>2471.7</ele>
        <time>2018-07-01T12:18:14Z</time>
      </trkpt>
      <trkpt lat="45.28918" lon="6.65992">
        <ele>2471.1</ele>
        <time>2018-07-01T12:18:18Z</time>
      </trkpt>
      <trkpt lat="45.28916" lon="6.65994">
        <ele>2470.6</ele>
        <time>2018-07-01T12:18:22Z</time>
      </trkpt>
      <trkpt lat="45.28916" lon="6.65999">
        <ele>2470</ele>
        <time>2018-07-01T12:18:26Z</time>
      </trkpt>
      <trkpt lat="45.28914" lon="6.66003">
        <ele>2469.3</ele>
        <time>2018-07-01T12:18:30Z</time>
      </trkpt>
      <trkpt lat="45.28912" lon="6.66007">
        <ele>2468.9</ele>
        <time>2018-07-01T12:18:33Z</time>
      </trkpt>
      <trkpt lat="45.2891" lon="6.66011">
        <ele>2468.6</ele>
        <time>2018-07-01T12:18:36Z</time>
      </trkpt>
      <trkpt lat="45.28908" lon="6.66017">
        <ele>2468</ele>
        <time>2018-07-01T12:18:39Z</time>
      </trkpt>
      <trkpt lat="45.28906" lon="6.66021">
        <ele>2467.7</ele>
        <time>2018-07-01T12:18:44Z</time>
      </trkpt>
      <trkpt lat="45.28906" lon="6.66013">
        <ele>2467.1</ele>
        <time>2018-07-01T12:18:56Z</time>
      </trkpt>
      <trkpt lat="45.28908" lon="6.66018">
        <ele>2466.8</ele>
        <time>2018-07-01T12:19:32Z</time>
      </trkpt>
      <trkpt lat="45.28906" lon="6.66022">
        <ele>2466.6</ele>
        <time>2018-07-01T12:19:38Z</time>
      </trkpt>
      <trkpt lat="45.28904" lon="6.66025">
        <ele>2466.4</ele>
        <time>2018-07-01T12:19:41Z</time>
      </trkpt>
      <trkpt lat="45.28901" lon="6.66027">
        <ele>2466</ele>
        <time>2018-07-01T12:19:44Z</time>
      </trkpt>
      <trkpt lat="45.28898" lon="6.6603">
        <ele>2465.4</ele>
        <time>2018-07-01T12:19:47Z</time>
      </trkpt>
      <trkpt lat="45.28896" lon="6.66032">
        <ele>2464.9</ele>
        <time>2018-07-01T12:19:50Z</time>
      </trkpt>
      <trkpt lat="45.28893" lon="6.66034">
        <ele>2464.3</ele>
        <time>2018-07-01T12:19:53Z</time>
      </trkpt>
      <trkpt lat="45.2889" lon="6.66035">
        <ele>2464.1</ele>
        <time>2018-07-01T12:19:56Z</time>
      </trkpt>
      <trkpt lat="45.28887" lon="6.66033">
        <ele>2464.1</ele>
        <time>2018-07-01T12:20:00Z</time>
      </trkpt>
      <trkpt lat="45.28885" lon="6.6603">
        <ele>2464.2</ele>
        <time>2018-07-01T12:20:08Z</time>
      </trkpt>
      <trkpt lat="45.28891" lon="6.66035">
        <ele>2463.9</ele>
        <time>2018-07-01T12:21:35Z</time>
      </trkpt>
      <trkpt lat="45.28888" lon="6.66029">
        <ele>2463.4</ele>
        <time>2018-07-01T12:23:36Z</time>
      </trkpt>
      <trkpt lat="45.2889" lon="6.66031">
        <ele>2463.2</ele>
        <time>2018-07-01T12:24:40Z</time>
      </trkpt>
      <trkpt lat="45.28888" lon="6.66029">
        <ele>2462.9</ele>
        <time>2018-07-01T12:25:00Z</time>
      </trkpt>
      <trkpt lat="45.28885" lon="6.66027">
        <ele>2462.7</ele>
        <time>2018-07-01T12:25:05Z</time>
      </trkpt>
      <trkpt lat="45.28882" lon="6.66026">
        <ele>2462.6</ele>
        <time>2018-07-01T12:25:16Z</time>
      </trkpt>
      <trkpt lat="45.28885" lon="6.66028">
        <ele>2462.8</ele>
        <time>2018-07-01T12:25:19Z</time>
      </trkpt>
      <trkpt lat="45.28891" lon="6.66019">
        <ele>2463.5</ele>
        <time>2018-07-01T12:25:43Z</time>
      </trkpt>
      <trkpt lat="45.28892" lon="6.66015">
        <ele>2463.8</ele>
        <time>2018-07-01T12:25:51Z</time>
      </trkpt>
      <trkpt lat="45.28891" lon="6.6602">
        <ele>2464.1</ele>
        <time>2018-07-01T12:26:19Z</time>
      </trkpt>
      <trkpt lat="45.28892" lon="6.66016">
        <ele>2464.2</ele>
        <time>2018-07-01T12:26:23Z</time>
      </trkpt>
      <trkpt lat="45.28894" lon="6.66012">
        <ele>2464.1</ele>
        <time>2018-07-01T12:26:38Z</time>
      </trkpt>
      <trkpt lat="45.28892" lon="6.66023">
        <ele>2463.5</ele>
        <time>2018-07-01T12:27:20Z</time>
      </trkpt>
      <trkpt lat="45.2889" lon="6.66026">
        <ele>2462.9</ele>
        <time>2018-07-01T12:27:27Z</time>
      </trkpt>
      <trkpt lat="45.28887" lon="6.66028">
        <ele>2462.5</ele>
        <time>2018-07-01T12:27:31Z</time>
      </trkpt>
      <trkpt lat="45.28886" lon="6.66033">
        <ele>2461.7</ele>
        <time>2018-07-01T12:28:25Z</time>
      </trkpt>
      <trkpt lat="45.28891" lon="6.66035">
        <ele>2460</ele>
        <time>2018-07-01T12:29:25Z</time>
      </trkpt>
      <trkpt lat="45.28894" lon="6.66035">
        <ele>2459.7</ele>
        <time>2018-07-01T12:29:30Z</time>
      </trkpt>
      <trkpt lat="45.28897" lon="6.66038">
        <ele>2459.3</ele>
        <time>2018-07-01T12:29:40Z</time>
      </trkpt>
      <trkpt lat="45.28894" lon="6.66039">
        <ele>2458.9</ele>
        <time>2018-07-01T12:29:48Z</time>
      </trkpt>
      <trkpt lat="45.28891" lon="6.66042">
        <ele>2458.4</ele>
        <time>2018-07-01T12:29:51Z</time>
      </trkpt>
      <trkpt lat="45.28889" lon="6.66044">
        <ele>2458</ele>
        <time>2018-07-01T12:29:54Z</time>
      </trkpt>
      <trkpt lat="45.28886" lon="6.66047">
        <ele>2457.4</ele>
        <time>2018-07-01T12:29:57Z</time>
      </trkpt>
      <trkpt lat="45.28884" lon="6.6605">
        <ele>2457.4</ele>
        <time>2018-07-01T12:29:59Z</time>
      </trkpt>
      <trkpt lat="45.28882" lon="6.66054">
        <ele>2457.2</ele>
        <time>2018-07-01T12:30:02Z</time>
      </trkpt>
      <trkpt lat="45.2888" lon="6.66058">
        <ele>2456.8</ele>
        <time>2018-07-01T12:30:05Z</time>
      </trkpt>
      <trkpt lat="45.28877" lon="6.66061">
        <ele>2455.4</ele>
        <time>2018-07-01T12:30:08Z</time>
      </trkpt>
      <trkpt lat="45.28874" lon="6.66063">
        <ele>2454.1</ele>
        <time>2018-07-01T12:30:12Z</time>
      </trkpt>
      <trkpt lat="45.28872" lon="6.66065">
        <ele>2453.3</ele>
        <time>2018-07-01T12:30:15Z</time>
      </trkpt>
      <trkpt lat="45.28869" lon="6.66068">
        <ele>2452.3</ele>
        <time>2018-07-01T12:30:19Z</time>
      </trkpt>
      <trkpt lat="45.28868" lon="6.66071">
        <ele>2451.7</ele>
        <time>2018-07-01T12:30:22Z</time>
      </trkpt>
      <trkpt lat="45.28868" lon="6.66077">
        <ele>2451.3</ele>
        <time>2018-07-01T12:30:26Z</time>
      </trkpt>
      <trkpt lat="45.28867" lon="6.6608">
        <ele>2451</ele>
        <time>2018-07-01T12:30:28Z</time>
      </trkpt>
      <trkpt lat="45.28865" lon="6.66085">
        <ele>2450.2</ele>
        <time>2018-07-01T12:30:31Z</time>
      </trkpt>
      <trkpt lat="45.28863" lon="6.6609">
        <ele>2449.4</ele>
        <time>2018-07-01T12:30:34Z</time>
      </trkpt>
      <trkpt lat="45.28862" lon="6.66094">
        <ele>2448.8</ele>
        <time>2018-07-01T12:30:37Z</time>
      </trkpt>
      <trkpt lat="45.28861" lon="6.66099">
        <ele>2448.2</ele>
        <time>2018-07-01T12:30:40Z</time>
      </trkpt>
      <trkpt lat="45.2886" lon="6.66103">
        <ele>2447.1</ele>
        <time>2018-07-01T12:30:43Z</time>
      </trkpt>
      <trkpt lat="45.28861" lon="6.66108">
        <ele>2446</ele>
        <time>2018-07-01T12:30:47Z</time>
      </trkpt>
      <trkpt lat="45.28861" lon="6.66112">
        <ele>2445.1</ele>
        <time>2018-07-01T12:30:49Z</time>
      </trkpt>
      <trkpt lat="45.28862" lon="6.66116">
        <ele>2444.3</ele>
        <time>2018-07-01T12:30:52Z</time>
      </trkpt>
      <trkpt lat="45.28863" lon="6.6612">
        <ele>2443.6</ele>
        <time>2018-07-01T12:30:55Z</time>
      </trkpt>
      <trkpt lat="45.28864" lon="6.66124">
        <ele>2442.9</ele>
        <time>2018-07-01T12:30:58Z</time>
      </trkpt>
      <trkpt lat="45.28865" lon="6.66129">
        <ele>2442.3</ele>
        <time>2018-07-01T12:31:02Z</time>
      </trkpt>
      <trkpt lat="45.28866" lon="6.66133">
        <ele>2441.7</ele>
        <time>2018-07-01T12:31:05Z</time>
      </trkpt>
      <trkpt lat="45.28868" lon="6.66137">
        <ele>2441</ele>
        <time>2018-07-01T12:31:09Z</time>
      </trkpt>
      <trkpt lat="45.28869" lon="6.66141">
        <ele>2440.5</ele>
        <time>2018-07-01T12:31:13Z</time>
      </trkpt>
      <trkpt lat="45.28871" lon="6.66145">
        <ele>2440</ele>
        <time>2018-07-01T12:31:16Z</time>
      </trkpt>
      <trkpt lat="45.28871" lon="6.6615">
        <ele>2439.4</ele>
        <time>2018-07-01T12:31:19Z</time>
      </trkpt>
      <trkpt lat="45.28872" lon="6.66154">
        <ele>2438.9</ele>
        <time>2018-07-01T12:31:21Z</time>
      </trkpt>
      <trkpt lat="45.28872" lon="6.66158">
        <ele>2438.4</ele>
        <time>2018-07-01T12:31:23Z</time>
      </trkpt>
      <trkpt lat="45.28873" lon="6.66163">
        <ele>2438.2</ele>
        <time>2018-07-01T12:31:26Z</time>
      </trkpt>
      <trkpt lat="45.28873" lon="6.66169">
        <ele>2438.1</ele>
        <time>2018-07-01T12:31:29Z</time>
      </trkpt>
      <trkpt lat="45.28872" lon="6.66174">
        <ele>2438</ele>
        <time>2018-07-01T12:31:31Z</time>
      </trkpt>
      <trkpt lat="45.28871" lon="6.66179">
        <ele>2438.1</ele>
        <time>2018-07-01T12:31:34Z</time>
      </trkpt>
      <trkpt lat="45.28871" lon="6.66184">
        <ele>2438.1</ele>
        <time>2018-07-01T12:31:37Z</time>
      </trkpt>
      <trkpt lat="45.2887" lon="6.66189">
        <ele>2438.2</ele>
        <time>2018-07-01T12:31:39Z</time>
      </trkpt>
      <trkpt lat="45.28869" lon="6.66194">
        <ele>2438</ele>
        <time>2018-07-01T12:31:42Z</time>
      </trkpt>
      <trkpt lat="45.28868" lon="6.66199">
        <ele>2438.1</ele>
        <time>2018-07-01T12:31:45Z</time>
      </trkpt>
      <trkpt lat="45.28868" lon="6.66203">
        <ele>2438.2</ele>
        <time>2018-07-01T12:31:48Z</time>
      </trkpt>
      <trkpt lat="45.28869" lon="6.66207">
        <ele>2438.3</ele>
        <time>2018-07-01T12:31:51Z</time>
      </trkpt>
      <trkpt lat="45.28871" lon="6.66211">
        <ele>2438</ele>
        <time>2018-07-01T12:31:55Z</time>
      </trkpt>
      <trkpt lat="45.28873" lon="6.66215">
        <ele>2437.4</ele>
        <time>2018-07-01T12:31:58Z</time>
      </trkpt>
      <trkpt lat="45.28875" lon="6.66218">
        <ele>2436.5</ele>
        <time>2018-07-01T12:32:01Z</time>
      </trkpt>
      <trkpt lat="45.28877" lon="6.6622">
        <ele>2436</ele>
        <time>2018-07-01T12:32:03Z</time>
      </trkpt>
      <trkpt lat="45.28878" lon="6.66224">
        <ele>2435.4</ele>
        <time>2018-07-01T12:32:08Z</time>
      </trkpt>
      <trkpt lat="45.28881" lon="6.66227">
        <ele>2434.7</ele>
        <time>2018-07-01T12:32:12Z</time>
      </trkpt>
      <trkpt lat="45.28884" lon="6.66229">
        <ele>2434</ele>
        <time>2018-07-01T12:32:15Z</time>
      </trkpt>
      <trkpt lat="45.28888" lon="6.66229">
        <ele>2433.3</ele>
        <time>2018-07-01T12:32:18Z</time>
      </trkpt>
      <trkpt lat="45.28891" lon="6.66229">
        <ele>2432.8</ele>
        <time>2018-07-01T12:32:21Z</time>
      </trkpt>
      <trkpt lat="45.28894" lon="6.66229">
        <ele>2432.1</ele>
        <time>2018-07-01T12:32:24Z</time>
      </trkpt>
      <trkpt lat="45.28898" lon="6.6623">
        <ele>2431.4</ele>
        <time>2018-07-01T12:32:27Z</time>
      </trkpt>
      <trkpt lat="45.28901" lon="6.66231">
        <ele>2430.6</ele>
        <time>2018-07-01T12:32:30Z</time>
      </trkpt>
      <trkpt lat="45.28904" lon="6.66231">
        <ele>2430</ele>
        <time>2018-07-01T12:32:32Z</time>
      </trkpt>
      <trkpt lat="45.28908" lon="6.66232">
        <ele>2429.3</ele>
        <time>2018-07-01T12:32:35Z</time>
      </trkpt>
      <trkpt lat="45.28911" lon="6.66233">
        <ele>2428.7</ele>
        <time>2018-07-01T12:32:38Z</time>
      </trkpt>
      <trkpt lat="45.28914" lon="6.66233">
        <ele>2428.1</ele>
        <time>2018-07-01T12:32:41Z</time>
      </trkpt>
      <trkpt lat="45.28918" lon="6.66233">
        <ele>2427.2</ele>
        <time>2018-07-01T12:32:44Z</time>
      </trkpt>
      <trkpt lat="45.28922" lon="6.66234">
        <ele>2426.6</ele>
        <time>2018-07-01T12:32:47Z</time>
      </trkpt>
      <trkpt lat="45.28925" lon="6.66234">
        <ele>2426.3</ele>
        <time>2018-07-01T12:32:50Z</time>
      </trkpt>
      <trkpt lat="45.28928" lon="6.66232">
        <ele>2425.9</ele>
        <time>2018-07-01T12:32:53Z</time>
      </trkpt>
      <trkpt lat="45.28931" lon="6.66232">
        <ele>2425.3</ele>
        <time>2018-07-01T12:32:56Z</time>
      </trkpt>
      <trkpt lat="45.28935" lon="6.66231">
        <ele>2424.6</ele>
        <time>2018-07-01T12:32:59Z</time>
      </trkpt>
      <trkpt lat="45.28938" lon="6.66232">
        <ele>2424</ele>
        <time>2018-07-01T12:33:02Z</time>
      </trkpt>
      <trkpt lat="45.28942" lon="6.66233">
        <ele>2423.4</ele>
        <time>2018-07-01T12:33:05Z</time>
      </trkpt>
      <trkpt lat="45.28945" lon="6.66235">
        <ele>2422.8</ele>
        <time>2018-07-01T12:33:08Z</time>
      </trkpt>
      <trkpt lat="45.28948" lon="6.66238">
        <ele>2422.2</ele>
        <time>2018-07-01T12:33:11Z</time>
      </trkpt>
      <trkpt lat="45.28951" lon="6.6624">
        <ele>2421.7</ele>
        <time>2018-07-01T12:33:14Z</time>
      </trkpt>
      <trkpt lat="45.28955" lon="6.6624">
        <ele>2421.2</ele>
        <time>2018-07-01T12:33:17Z</time>
      </trkpt>
      <trkpt lat="45.28958" lon="6.66241">
        <ele>2420.7</ele>
        <time>2018-07-01T12:33:20Z</time>
      </trkpt>
      <trkpt lat="45.28962" lon="6.66241">
        <ele>2420.1</ele>
        <time>2018-07-01T12:33:23Z</time>
      </trkpt>
      <trkpt lat="45.28965" lon="6.66241">
        <ele>2419.4</ele>
        <time>2018-07-01T12:33:26Z</time>
      </trkpt>
      <trkpt lat="45.28968" lon="6.66243">
        <ele>2418.8</ele>
        <time>2018-07-01T12:33:29Z</time>
      </trkpt>
      <trkpt lat="45.28971" lon="6.66244">
        <ele>2418.2</ele>
        <time>2018-07-01T12:33:32Z</time>
      </trkpt>
      <trkpt lat="45.28974" lon="6.66246">
        <ele>2417.7</ele>
        <time>2018-07-01T12:33:35Z</time>
      </trkpt>
      <trkpt lat="45.28977" lon="6.66246">
        <ele>2417.3</ele>
        <time>2018-07-01T12:33:37Z</time>
      </trkpt>
      <trkpt lat="45.28981" lon="6.66246">
        <ele>2416.6</ele>
        <time>2018-07-01T12:33:40Z</time>
      </trkpt>
      <trkpt lat="45.28983" lon="6.66251">
        <ele>2415.9</ele>
        <time>2018-07-01T12:33:43Z</time>
      </trkpt>
      <trkpt lat="45.28986" lon="6.66254">
        <ele>2415.4</ele>
        <time>2018-07-01T12:33:46Z</time>
      </trkpt>
      <trkpt lat="45.28988" lon="6.66257">
        <ele>2415.1</ele>
        <time>2018-07-01T12:33:48Z</time>
      </trkpt>
      <trkpt lat="45.28991" lon="6.66258">
        <ele>2414.6</ele>
        <time>2018-07-01T12:33:51Z</time>
      </trkpt>
      <trkpt lat="45.28994" lon="6.6626">
        <ele>2414.3</ele>
        <time>2018-07-01T12:33:54Z</time>
      </trkpt>
      <trkpt lat="45.28998" lon="6.66261">
        <ele>2413.8</ele>
        <time>2018-07-01T12:33:57Z</time>
      </trkpt>
      <trkpt lat="45.29001" lon="6.66263">
        <ele>2413.3</ele>
        <time>2018-07-01T12:34:00Z</time>
      </trkpt>
      <trkpt lat="45.29005" lon="6.66264">
        <ele>2412.8</ele>
        <time>2018-07-01T12:34:03Z</time>
      </trkpt>
      <trkpt lat="45.29008" lon="6.66265">
        <ele>2412.1</ele>
        <time>2018-07-01T12:34:06Z</time>
      </trkpt>
      <trkpt lat="45.2901" lon="6.66268">
        <ele>2411.4</ele>
        <time>2018-07-01T12:34:09Z</time>
      </trkpt>
      <trkpt lat="45.29013" lon="6.6627">
        <ele>2410.8</ele>
        <time>2018-07-01T12:34:12Z</time>
      </trkpt>
      <trkpt lat="45.29016" lon="6.66271">
        <ele>2410.2</ele>
        <time>2018-07-01T12:34:15Z</time>
      </trkpt>
      <trkpt lat="45.29019" lon="6.66272">
        <ele>2409.4</ele>
        <time>2018-07-01T12:34:17Z</time>
      </trkpt>
      <trkpt lat="45.29022" lon="6.66274">
        <ele>2408.4</ele>
        <time>2018-07-01T12:34:20Z</time>
      </trkpt>
      <trkpt lat="45.29025" lon="6.66276">
        <ele>2407.5</ele>
        <time>2018-07-01T12:34:23Z</time>
      </trkpt>
      <trkpt lat="45.29028" lon="6.66278">
        <ele>2406.7</ele>
        <time>2018-07-01T12:34:26Z</time>
      </trkpt>
      <trkpt lat="45.29032" lon="6.66281">
        <ele>2405.6</ele>
        <time>2018-07-01T12:34:29Z</time>
      </trkpt>
      <trkpt lat="45.29035" lon="6.66283">
        <ele>2404.3</ele>
        <time>2018-07-01T12:34:32Z</time>
      </trkpt>
      <trkpt lat="45.29038" lon="6.66285">
        <ele>2403</ele>
        <time>2018-07-01T12:34:35Z</time>
      </trkpt>
      <trkpt lat="45.29041" lon="6.66287">
        <ele>2401.9</ele>
        <time>2018-07-01T12:34:38Z</time>
      </trkpt>
      <trkpt lat="45.29044" lon="6.66289">
        <ele>2401.1</ele>
        <time>2018-07-01T12:34:41Z</time>
      </trkpt>
      <trkpt lat="45.29047" lon="6.6629">
        <ele>2400</ele>
        <time>2018-07-01T12:34:44Z</time>
      </trkpt>
      <trkpt lat="45.2905" lon="6.66291">
        <ele>2398.5</ele>
        <time>2018-07-01T12:34:47Z</time>
      </trkpt>
      <trkpt lat="45.29054" lon="6.66292">
        <ele>2397</ele>
        <time>2018-07-01T12:34:50Z</time>
      </trkpt>
      <trkpt lat="45.29056" lon="6.66297">
        <ele>2395.9</ele>
        <time>2018-07-01T12:34:53Z</time>
      </trkpt>
      <trkpt lat="45.29058" lon="6.66299">
        <ele>2395.4</ele>
        <time>2018-07-01T12:34:55Z</time>
      </trkpt>
      <trkpt lat="45.29061" lon="6.66301">
        <ele>2395.1</ele>
        <time>2018-07-01T12:34:58Z</time>
      </trkpt>
      <trkpt lat="45.29064" lon="6.66303">
        <ele>2395</ele>
        <time>2018-07-01T12:35:01Z</time>
      </trkpt>
      <trkpt lat="45.29068" lon="6.66305">
        <ele>2395.1</ele>
        <time>2018-07-01T12:35:04Z</time>
      </trkpt>
      <trkpt lat="45.29071" lon="6.66305">
        <ele>2395.2</ele>
        <time>2018-07-01T12:35:07Z</time>
      </trkpt>
      <trkpt lat="45.29074" lon="6.66306">
        <ele>2395.3</ele>
        <time>2018-07-01T12:35:10Z</time>
      </trkpt>
      <trkpt lat="45.29076" lon="6.66309">
        <ele>2395.3</ele>
        <time>2018-07-01T12:35:13Z</time>
      </trkpt>
      <trkpt lat="45.29079" lon="6.66312">
        <ele>2394.9</ele>
        <time>2018-07-01T12:35:16Z</time>
      </trkpt>
      <trkpt lat="45.29082" lon="6.66314">
        <ele>2393.8</ele>
        <time>2018-07-01T12:35:19Z</time>
      </trkpt>
      <trkpt lat="45.29085" lon="6.66315">
        <ele>2392.8</ele>
        <time>2018-07-01T12:35:22Z</time>
      </trkpt>
      <trkpt lat="45.29088" lon="6.66315">
        <ele>2391.9</ele>
        <time>2018-07-01T12:35:26Z</time>
      </trkpt>
      <trkpt lat="45.29091" lon="6.66317">
        <ele>2390.9</ele>
        <time>2018-07-01T12:35:30Z</time>
      </trkpt>
      <trkpt lat="45.29093" lon="6.66319">
        <ele>2390.2</ele>
        <time>2018-07-01T12:35:33Z</time>
      </trkpt>
      <trkpt lat="45.29096" lon="6.66321">
        <ele>2389.4</ele>
        <time>2018-07-01T12:35:37Z</time>
      </trkpt>
      <trkpt lat="45.29099" lon="6.66323">
        <ele>2388.6</ele>
        <time>2018-07-01T12:35:40Z</time>
      </trkpt>
      <trkpt lat="45.29102" lon="6.66323">
        <ele>2387.6</ele>
        <time>2018-07-01T12:35:43Z</time>
      </trkpt>
      <trkpt lat="45.29105" lon="6.66326">
        <ele>2386.4</ele>
        <time>2018-07-01T12:35:47Z</time>
      </trkpt>
      <trkpt lat="45.29107" lon="6.66328">
        <ele>2385.3</ele>
        <time>2018-07-01T12:35:50Z</time>
      </trkpt>
      <trkpt lat="45.2911" lon="6.6633">
        <ele>2384.1</ele>
        <time>2018-07-01T12:35:54Z</time>
      </trkpt>
      <trkpt lat="45.29113" lon="6.66329">
        <ele>2383.3</ele>
        <time>2018-07-01T12:35:57Z</time>
      </trkpt>
      <trkpt lat="45.29116" lon="6.6633">
        <ele>2382.7</ele>
        <time>2018-07-01T12:36:01Z</time>
      </trkpt>
      <trkpt lat="45.29118" lon="6.66333">
        <ele>2381.7</ele>
        <time>2018-07-01T12:36:04Z</time>
      </trkpt>
      <trkpt lat="45.29119" lon="6.66338">
        <ele>2380.2</ele>
        <time>2018-07-01T12:36:07Z</time>
      </trkpt>
      <trkpt lat="45.29121" lon="6.66342">
        <ele>2379.1</ele>
        <time>2018-07-01T12:36:10Z</time>
      </trkpt>
      <trkpt lat="45.29123" lon="6.66343">
        <ele>2378.4</ele>
        <time>2018-07-01T12:36:13Z</time>
      </trkpt>
      <trkpt lat="45.29126" lon="6.66346">
        <ele>2377.4</ele>
        <time>2018-07-01T12:36:17Z</time>
      </trkpt>
      <trkpt lat="45.2913" lon="6.66348">
        <ele>2376.2</ele>
        <time>2018-07-01T12:36:21Z</time>
      </trkpt>
      <trkpt lat="45.29133" lon="6.6635">
        <ele>2375.2</ele>
        <time>2018-07-01T12:36:24Z</time>
      </trkpt>
      <trkpt lat="45.29136" lon="6.66352">
        <ele>2373.9</ele>
        <time>2018-07-01T12:36:28Z</time>
      </trkpt>
      <trkpt lat="45.29139" lon="6.66353">
        <ele>2373</ele>
        <time>2018-07-01T12:36:31Z</time>
      </trkpt>
      <trkpt lat="45.29142" lon="6.66354">
        <ele>2372</ele>
        <time>2018-07-01T12:36:34Z</time>
      </trkpt>
      <trkpt lat="45.29145" lon="6.66355">
        <ele>2371</ele>
        <time>2018-07-01T12:36:38Z</time>
      </trkpt>
      <trkpt lat="45.29148" lon="6.66356">
        <ele>2369.8</ele>
        <time>2018-07-01T12:36:42Z</time>
      </trkpt>
      <trkpt lat="45.29151" lon="6.66358">
        <ele>2368.7</ele>
        <time>2018-07-01T12:36:46Z</time>
      </trkpt>
      <trkpt lat="45.29153" lon="6.66361">
        <ele>2368.2</ele>
        <time>2018-07-01T12:36:49Z</time>
      </trkpt>
      <trkpt lat="45.29154" lon="6.66365">
        <ele>2367.7</ele>
        <time>2018-07-01T12:36:52Z</time>
      </trkpt>
      <trkpt lat="45.29155" lon="6.66369">
        <ele>2367</ele>
        <time>2018-07-01T12:36:56Z</time>
      </trkpt>
      <trkpt lat="45.29158" lon="6.66372">
        <ele>2365.9</ele>
        <time>2018-07-01T12:37:06Z</time>
      </trkpt>
      <trkpt lat="45.29161" lon="6.66376">
        <ele>2364.9</ele>
        <time>2018-07-01T12:37:10Z</time>
      </trkpt>
      <trkpt lat="45.29163" lon="6.66378">
        <ele>2364.2</ele>
        <time>2018-07-01T12:37:13Z</time>
      </trkpt>
      <trkpt lat="45.29166" lon="6.6638">
        <ele>2363.3</ele>
        <time>2018-07-01T12:37:16Z</time>
      </trkpt>
      <trkpt lat="45.2917" lon="6.66383">
        <ele>2362.3</ele>
        <time>2018-07-01T12:37:19Z</time>
      </trkpt>
      <trkpt lat="45.29173" lon="6.66383">
        <ele>2361.8</ele>
        <time>2018-07-01T12:37:21Z</time>
      </trkpt>
      <trkpt lat="45.29176" lon="6.66383">
        <ele>2361.2</ele>
        <time>2018-07-01T12:37:24Z</time>
      </trkpt>
      <trkpt lat="45.2918" lon="6.66383">
        <ele>2360.3</ele>
        <time>2018-07-01T12:37:27Z</time>
      </trkpt>
      <trkpt lat="45.29183" lon="6.66382">
        <ele>2359.3</ele>
        <time>2018-07-01T12:37:30Z</time>
      </trkpt>
      <trkpt lat="45.29187" lon="6.66382">
        <ele>2359.2</ele>
        <time>2018-07-01T12:37:32Z</time>
      </trkpt>
      <trkpt lat="45.29189" lon="6.66383">
        <ele>2359.1</ele>
        <time>2018-07-01T12:37:34Z</time>
      </trkpt>
      <trkpt lat="45.29193" lon="6.66383">
        <ele>2358.8</ele>
        <time>2018-07-01T12:37:37Z</time>
      </trkpt>
      <trkpt lat="45.29196" lon="6.66381">
        <ele>2358.5</ele>
        <time>2018-07-01T12:37:40Z</time>
      </trkpt>
      <trkpt lat="45.292" lon="6.66381">
        <ele>2358.1</ele>
        <time>2018-07-01T12:37:43Z</time>
      </trkpt>
      <trkpt lat="45.29203" lon="6.66382">
        <ele>2357.8</ele>
        <time>2018-07-01T12:37:46Z</time>
      </trkpt>
      <trkpt lat="45.29206" lon="6.66383">
        <ele>2357.5</ele>
        <time>2018-07-01T12:37:48Z</time>
      </trkpt>
      <trkpt lat="45.29209" lon="6.66384">
        <ele>2357.3</ele>
        <time>2018-07-01T12:37:51Z</time>
      </trkpt>
      <trkpt lat="45.29212" lon="6.66385">
        <ele>2357.2</ele>
        <time>2018-07-01T12:37:53Z</time>
      </trkpt>
      <trkpt lat="45.29215" lon="6.66385">
        <ele>2357</ele>
        <time>2018-07-01T12:37:56Z</time>
      </trkpt>
      <trkpt lat="45.29218" lon="6.66386">
        <ele>2356.7</ele>
        <time>2018-07-01T12:37:59Z</time>
      </trkpt>
      <trkpt lat="45.29222" lon="6.66386">
        <ele>2356.5</ele>
        <time>2018-07-01T12:38:02Z</time>
      </trkpt>
      <trkpt lat="45.29224" lon="6.66384">
        <ele>2356.2</ele>
        <time>2018-07-01T12:38:04Z</time>
      </trkpt>
      <trkpt lat="45.29227" lon="6.66384">
        <ele>2356</ele>
        <time>2018-07-01T12:38:06Z</time>
      </trkpt>
      <trkpt lat="45.2923" lon="6.66385">
        <ele>2355.8</ele>
        <time>2018-07-01T12:38:09Z</time>
      </trkpt>
      <trkpt lat="45.29233" lon="6.66386">
        <ele>2355.6</ele>
        <time>2018-07-01T12:38:12Z</time>
      </trkpt>
      <trkpt lat="45.29236" lon="6.66386">
        <ele>2355.3</ele>
        <time>2018-07-01T12:38:14Z</time>
      </trkpt>
      <trkpt lat="45.29239" lon="6.66387">
        <ele>2355.1</ele>
        <time>2018-07-01T12:38:16Z</time>
      </trkpt>
      <trkpt lat="45.29243" lon="6.66387">
        <ele>2354.7</ele>
        <time>2018-07-01T12:38:19Z</time>
      </trkpt>
      <trkpt lat="45.29248" lon="6.66387">
        <ele>2354.3</ele>
        <time>2018-07-01T12:38:22Z</time>
      </trkpt>
      <trkpt lat="45.29251" lon="6.66387">
        <ele>2354</ele>
        <time>2018-07-01T12:38:24Z</time>
      </trkpt>
      <trkpt lat="45.29254" lon="6.66387">
        <ele>2353.7</ele>
        <time>2018-07-01T12:38:27Z</time>
      </trkpt>
      <trkpt lat="45.29257" lon="6.66386">
        <ele>2353.3</ele>
        <time>2018-07-01T12:38:30Z</time>
      </trkpt>
      <trkpt lat="45.2926" lon="6.66385">
        <ele>2352.9</ele>
        <time>2018-07-01T12:38:33Z</time>
      </trkpt>
      <trkpt lat="45.29263" lon="6.66385">
        <ele>2352.5</ele>
        <time>2018-07-01T12:38:36Z</time>
      </trkpt>
      <trkpt lat="45.29266" lon="6.66384">
        <ele>2352.1</ele>
        <time>2018-07-01T12:38:39Z</time>
      </trkpt>
      <trkpt lat="45.2927" lon="6.66384">
        <ele>2351.7</ele>
        <time>2018-07-01T12:38:42Z</time>
      </trkpt>
      <trkpt lat="45.29273" lon="6.66385">
        <ele>2351</ele>
        <time>2018-07-01T12:38:45Z</time>
      </trkpt>
      <trkpt lat="45.29276" lon="6.66386">
        <ele>2350.2</ele>
        <time>2018-07-01T12:38:48Z</time>
      </trkpt>
      <trkpt lat="45.29279" lon="6.66386">
        <ele>2350</ele>
        <time>2018-07-01T12:38:51Z</time>
      </trkpt>
      <trkpt lat="45.29281" lon="6.66383">
        <ele>2350</ele>
        <time>2018-07-01T12:38:53Z</time>
      </trkpt>
      <trkpt lat="45.29283" lon="6.66378">
        <ele>2350</ele>
        <time>2018-07-01T12:38:55Z</time>
      </trkpt>
      <trkpt lat="45.29283" lon="6.66373">
        <ele>2350</ele>
        <time>2018-07-01T12:38:58Z</time>
      </trkpt>
      <trkpt lat="45.29284" lon="6.66369">
        <ele>2350</ele>
        <time>2018-07-01T12:39:00Z</time>
      </trkpt>
      <trkpt lat="45.29283" lon="6.66365">
        <ele>2350.1</ele>
        <time>2018-07-01T12:39:03Z</time>
      </trkpt>
      <trkpt lat="45.29281" lon="6.66359">
        <ele>2350.5</ele>
        <time>2018-07-01T12:39:06Z</time>
      </trkpt>
      <trkpt lat="45.29279" lon="6.66356">
        <ele>2350.7</ele>
        <time>2018-07-01T12:39:08Z</time>
      </trkpt>
      <trkpt lat="45.29277" lon="6.66352">
        <ele>2350.9</ele>
        <time>2018-07-01T12:39:10Z</time>
      </trkpt>
      <trkpt lat="45.29276" lon="6.66347">
        <ele>2351.2</ele>
        <time>2018-07-01T12:39:13Z</time>
      </trkpt>
      <trkpt lat="45.29275" lon="6.66343">
        <ele>2351.6</ele>
        <time>2018-07-01T12:39:15Z</time>
      </trkpt>
      <trkpt lat="45.29275" lon="6.66338">
        <ele>2352.1</ele>
        <time>2018-07-01T12:39:17Z</time>
      </trkpt>
      <trkpt lat="45.29275" lon="6.66334">
        <ele>2352.5</ele>
        <time>2018-07-01T12:39:20Z</time>
      </trkpt>
      <trkpt lat="45.29274" lon="6.66329">
        <ele>2353</ele>
        <time>2018-07-01T12:39:23Z</time>
      </trkpt>
      <trkpt lat="45.29275" lon="6.66325">
        <ele>2352.9</ele>
        <time>2018-07-01T12:39:26Z</time>
      </trkpt>
      <trkpt lat="45.29278" lon="6.66322">
        <ele>2352.9</ele>
        <time>2018-07-01T12:39:29Z</time>
      </trkpt>
      <trkpt lat="45.2928" lon="6.66318">
        <ele>2352.6</ele>
        <time>2018-07-01T12:39:34Z</time>
      </trkpt>
      <trkpt lat="45.29284" lon="6.66317">
        <ele>2351.8</ele>
        <time>2018-07-01T12:39:37Z</time>
      </trkpt>
      <trkpt lat="45.29287" lon="6.66318">
        <ele>2351.2</ele>
        <time>2018-07-01T12:39:40Z</time>
      </trkpt>
      <trkpt lat="45.29291" lon="6.66318">
        <ele>2350.6</ele>
        <time>2018-07-01T12:39:44Z</time>
      </trkpt>
      <trkpt lat="45.29294" lon="6.66319">
        <ele>2350.1</ele>
        <time>2018-07-01T12:39:47Z</time>
      </trkpt>
      <trkpt lat="45.29298" lon="6.66318">
        <ele>2349.5</ele>
        <time>2018-07-01T12:39:51Z</time>
      </trkpt>
      <trkpt lat="45.29301" lon="6.66317">
        <ele>2348.8</ele>
        <time>2018-07-01T12:39:54Z</time>
      </trkpt>
      <trkpt lat="45.29304" lon="6.66315">
        <ele>2348.2</ele>
        <time>2018-07-01T12:39:58Z</time>
      </trkpt>
      <trkpt lat="45.29308" lon="6.66312">
        <ele>2347.6</ele>
        <time>2018-07-01T12:40:01Z</time>
      </trkpt>
      <trkpt lat="45.29311" lon="6.66311">
        <ele>2347</ele>
        <time>2018-07-01T12:40:05Z</time>
      </trkpt>
      <trkpt lat="45.29314" lon="6.66309">
        <ele>2346.2</ele>
        <time>2018-07-01T12:40:07Z</time>
      </trkpt>
      <trkpt lat="45.29317" lon="6.66307">
        <ele>2345.3</ele>
        <time>2018-07-01T12:40:11Z</time>
      </trkpt>
      <trkpt lat="45.29321" lon="6.66307">
        <ele>2344.3</ele>
        <time>2018-07-01T12:40:14Z</time>
      </trkpt>
      <trkpt lat="45.29324" lon="6.66305">
        <ele>2343.6</ele>
        <time>2018-07-01T12:40:18Z</time>
      </trkpt>
      <trkpt lat="45.29327" lon="6.66304">
        <ele>2342.9</ele>
        <time>2018-07-01T12:40:21Z</time>
      </trkpt>
      <trkpt lat="45.2933" lon="6.66304">
        <ele>2342.4</ele>
        <time>2018-07-01T12:40:24Z</time>
      </trkpt>
      <trkpt lat="45.29334" lon="6.66303">
        <ele>2341.9</ele>
        <time>2018-07-01T12:40:28Z</time>
      </trkpt>
      <trkpt lat="45.29337" lon="6.66302">
        <ele>2341.1</ele>
        <time>2018-07-01T12:40:31Z</time>
      </trkpt>
      <trkpt lat="45.2934" lon="6.66301">
        <ele>2340.2</ele>
        <time>2018-07-01T12:40:36Z</time>
      </trkpt>
      <trkpt lat="45.29343" lon="6.66301">
        <ele>2339.3</ele>
        <time>2018-07-01T12:40:40Z</time>
      </trkpt>
      <trkpt lat="45.29346" lon="6.663">
        <ele>2338.2</ele>
        <time>2018-07-01T12:40:44Z</time>
      </trkpt>
      <trkpt lat="45.29349" lon="6.663">
        <ele>2337.4</ele>
        <time>2018-07-01T12:40:48Z</time>
      </trkpt>
      <trkpt lat="45.29352" lon="6.66299">
        <ele>2336.7</ele>
        <time>2018-07-01T12:40:52Z</time>
      </trkpt>
      <trkpt lat="45.29356" lon="6.66298">
        <ele>2335.8</ele>
        <time>2018-07-01T12:40:56Z</time>
      </trkpt>
      <trkpt lat="45.29359" lon="6.66297">
        <ele>2335.2</ele>
        <time>2018-07-01T12:41:00Z</time>
      </trkpt>
      <trkpt lat="45.29362" lon="6.66296">
        <ele>2334.3</ele>
        <time>2018-07-01T12:41:04Z</time>
      </trkpt>
      <trkpt lat="45.29365" lon="6.66295">
        <ele>2333.5</ele>
        <time>2018-07-01T12:41:07Z</time>
      </trkpt>
      <trkpt lat="45.29368" lon="6.66294">
        <ele>2332.5</ele>
        <time>2018-07-01T12:41:10Z</time>
      </trkpt>
      <trkpt lat="45.29371" lon="6.66293">
        <ele>2331.9</ele>
        <time>2018-07-01T12:41:15Z</time>
      </trkpt>
      <trkpt lat="45.29375" lon="6.66293">
        <ele>2331.3</ele>
        <time>2018-07-01T12:41:19Z</time>
      </trkpt>
      <trkpt lat="45.29378" lon="6.66292">
        <ele>2330.6</ele>
        <time>2018-07-01T12:41:25Z</time>
      </trkpt>
      <trkpt lat="45.29381" lon="6.66292">
        <ele>2329.9</ele>
        <time>2018-07-01T12:41:28Z</time>
      </trkpt>
      <trkpt lat="45.29384" lon="6.66292">
        <ele>2329.1</ele>
        <time>2018-07-01T12:41:32Z</time>
      </trkpt>
      <trkpt lat="45.29387" lon="6.66291">
        <ele>2328.3</ele>
        <time>2018-07-01T12:41:36Z</time>
      </trkpt>
      <trkpt lat="45.2939" lon="6.66291">
        <ele>2327.6</ele>
        <time>2018-07-01T12:41:40Z</time>
      </trkpt>
      <trkpt lat="45.29393" lon="6.6629">
        <ele>2327</ele>
        <time>2018-07-01T12:41:43Z</time>
      </trkpt>
      <trkpt lat="45.29396" lon="6.66289">
        <ele>2326.6</ele>
        <time>2018-07-01T12:41:46Z</time>
      </trkpt>
      <trkpt lat="45.29398" lon="6.66288">
        <ele>2326.3</ele>
        <time>2018-07-01T12:41:49Z</time>
      </trkpt>
      <trkpt lat="45.29401" lon="6.66284">
        <ele>2325.9</ele>
        <time>2018-07-01T12:41:53Z</time>
      </trkpt>
      <trkpt lat="45.29403" lon="6.66282">
        <ele>2325.5</ele>
        <time>2018-07-01T12:41:57Z</time>
      </trkpt>
      <trkpt lat="45.29406" lon="6.66279">
        <ele>2323.7</ele>
        <time>2018-07-01T12:42:01Z</time>
      </trkpt>
      <trkpt lat="45.29409" lon="6.66278">
        <ele>2323.8</ele>
        <time>2018-07-01T12:42:04Z</time>
      </trkpt>
      <trkpt lat="45.29412" lon="6.66277">
        <ele>2324</ele>
        <time>2018-07-01T12:42:07Z</time>
      </trkpt>
      <trkpt lat="45.29414" lon="6.66276">
        <ele>2324.1</ele>
        <time>2018-07-01T12:42:10Z</time>
      </trkpt>
      <trkpt lat="45.29418" lon="6.66274">
        <ele>2324.2</ele>
        <time>2018-07-01T12:42:15Z</time>
      </trkpt>
      <trkpt lat="45.2942" lon="6.66273">
        <ele>2324.3</ele>
        <time>2018-07-01T12:42:20Z</time>
      </trkpt>
      <trkpt lat="45.29423" lon="6.66272">
        <ele>2324.4</ele>
        <time>2018-07-01T12:42:29Z</time>
      </trkpt>
      <trkpt lat="45.29426" lon="6.66272">
        <ele>2324.5</ele>
        <time>2018-07-01T12:42:37Z</time>
      </trkpt>
      <trkpt lat="45.29429" lon="6.66271">
        <ele>2323.5</ele>
        <time>2018-07-01T12:42:44Z</time>
      </trkpt>
      <trkpt lat="45.29432" lon="6.6627">
        <ele>2322.5</ele>
        <time>2018-07-01T12:42:47Z</time>
      </trkpt>
      <trkpt lat="45.29435" lon="6.66268">
        <ele>2322.4</ele>
        <time>2018-07-01T12:42:50Z</time>
      </trkpt>
      <trkpt lat="45.29438" lon="6.66267">
        <ele>2321.4</ele>
        <time>2018-07-01T12:42:53Z</time>
      </trkpt>
      <trkpt lat="45.29441" lon="6.66266">
        <ele>2320.2</ele>
        <time>2018-07-01T12:42:56Z</time>
      </trkpt>
      <trkpt lat="45.29444" lon="6.66267">
        <ele>2318.9</ele>
        <time>2018-07-01T12:43:03Z</time>
      </trkpt>
      <trkpt lat="45.29448" lon="6.66268">
        <ele>2317.6</ele>
        <time>2018-07-01T12:43:14Z</time>
      </trkpt>
      <trkpt lat="45.29451" lon="6.66268">
        <ele>2316.3</ele>
        <time>2018-07-01T12:43:17Z</time>
      </trkpt>
      <trkpt lat="45.29455" lon="6.66269">
        <ele>2313.9</ele>
        <time>2018-07-01T12:43:20Z</time>
      </trkpt>
      <trkpt lat="45.29458" lon="6.66269">
        <ele>2312.8</ele>
        <time>2018-07-01T12:43:23Z</time>
      </trkpt>
      <trkpt lat="45.29461" lon="6.66269">
        <ele>2311.7</ele>
        <time>2018-07-01T12:43:26Z</time>
      </trkpt>
      <trkpt lat="45.29464" lon="6.66268">
        <ele>2310.5</ele>
        <time>2018-07-01T12:43:29Z</time>
      </trkpt>
      <trkpt lat="45.29467" lon="6.66267">
        <ele>2309.2</ele>
        <time>2018-07-01T12:43:33Z</time>
      </trkpt>
      <trkpt lat="45.2947" lon="6.66266">
        <ele>2307.9</ele>
        <time>2018-07-01T12:43:35Z</time>
      </trkpt>
      <trkpt lat="45.29474" lon="6.66264">
        <ele>2307.5</ele>
        <time>2018-07-01T12:43:38Z</time>
      </trkpt>
      <trkpt lat="45.29476" lon="6.66262">
        <ele>2306.2</ele>
        <time>2018-07-01T12:43:40Z</time>
      </trkpt>
      <trkpt lat="45.29479" lon="6.66258">
        <ele>2306.1</ele>
        <time>2018-07-01T12:43:43Z</time>
      </trkpt>
      <trkpt lat="45.29482" lon="6.66256">
        <ele>2306</ele>
        <time>2018-07-01T12:43:45Z</time>
      </trkpt>
      <trkpt lat="45.29485" lon="6.66253">
        <ele>2304.8</ele>
        <time>2018-07-01T12:43:47Z</time>
      </trkpt>
      <trkpt lat="45.29487" lon="6.66249">
        <ele>2305.9</ele>
        <time>2018-07-01T12:43:49Z</time>
      </trkpt>
      <trkpt lat="45.29489" lon="6.66244">
        <ele>2305.9</ele>
        <time>2018-07-01T12:43:52Z</time>
      </trkpt>
      <trkpt lat="45.29492" lon="6.66242">
        <ele>2305.7</ele>
        <time>2018-07-01T12:43:54Z</time>
      </trkpt>
      <trkpt lat="45.29495" lon="6.6624">
        <ele>2304.5</ele>
        <time>2018-07-01T12:43:56Z</time>
      </trkpt>
      <trkpt lat="45.29498" lon="6.66238">
        <ele>2304.3</ele>
        <time>2018-07-01T12:43:59Z</time>
      </trkpt>
      <trkpt lat="45.295" lon="6.66235">
        <ele>2304.1</ele>
        <time>2018-07-01T12:44:02Z</time>
      </trkpt>
      <trkpt lat="45.29503" lon="6.66232">
        <ele>2302.8</ele>
        <time>2018-07-01T12:44:05Z</time>
      </trkpt>
      <trkpt lat="45.29506" lon="6.6623">
        <ele>2302.8</ele>
        <time>2018-07-01T12:44:08Z</time>
      </trkpt>
      <trkpt lat="45.29509" lon="6.66228">
        <ele>2301.6</ele>
        <time>2018-07-01T12:44:11Z</time>
      </trkpt>
      <trkpt lat="45.29512" lon="6.66225">
        <ele>2301.7</ele>
        <time>2018-07-01T12:44:14Z</time>
      </trkpt>
      <trkpt lat="45.29515" lon="6.66223">
        <ele>2300.6</ele>
        <time>2018-07-01T12:44:17Z</time>
      </trkpt>
      <trkpt lat="45.29518" lon="6.6622">
        <ele>2300.8</ele>
        <time>2018-07-01T12:44:20Z</time>
      </trkpt>
      <trkpt lat="45.2952" lon="6.66217">
        <ele>2302</ele>
        <time>2018-07-01T12:44:23Z</time>
      </trkpt>
      <trkpt lat="45.29523" lon="6.66213">
        <ele>2302.2</ele>
        <time>2018-07-01T12:44:26Z</time>
      </trkpt>
      <trkpt lat="45.29525" lon="6.6621">
        <ele>2301</ele>
        <time>2018-07-01T12:44:28Z</time>
      </trkpt>
      <trkpt lat="45.29527" lon="6.66207">
        <ele>2300.9</ele>
        <time>2018-07-01T12:44:30Z</time>
      </trkpt>
      <trkpt lat="45.29529" lon="6.66205">
        <ele>2300.9</ele>
        <time>2018-07-01T12:44:32Z</time>
      </trkpt>
      <trkpt lat="45.29533" lon="6.66203">
        <ele>2300.7</ele>
        <time>2018-07-01T12:44:35Z</time>
      </trkpt>
      <trkpt lat="45.29536" lon="6.66201">
        <ele>2300.6</ele>
        <time>2018-07-01T12:44:38Z</time>
      </trkpt>
      <trkpt lat="45.29538" lon="6.66197">
        <ele>2299.4</ele>
        <time>2018-07-01T12:44:41Z</time>
      </trkpt>
      <trkpt lat="45.29541" lon="6.66195">
        <ele>2299.3</ele>
        <time>2018-07-01T12:44:44Z</time>
      </trkpt>
      <trkpt lat="45.29545" lon="6.66192">
        <ele>2299.2</ele>
        <time>2018-07-01T12:44:47Z</time>
      </trkpt>
      <trkpt lat="45.29547" lon="6.6619">
        <ele>2298.2</ele>
        <time>2018-07-01T12:44:49Z</time>
      </trkpt>
      <trkpt lat="45.29551" lon="6.66187">
        <ele>2298</ele>
        <time>2018-07-01T12:44:52Z</time>
      </trkpt>
      <trkpt lat="45.29555" lon="6.66185">
        <ele>2295.8</ele>
        <time>2018-07-01T12:44:55Z</time>
      </trkpt>
      <trkpt lat="45.29558" lon="6.66183">
        <ele>2295.5</ele>
        <time>2018-07-01T12:44:58Z</time>
      </trkpt>
      <trkpt lat="45.29561" lon="6.66181">
        <ele>2294.5</ele>
        <time>2018-07-01T12:45:01Z</time>
      </trkpt>
      <trkpt lat="45.29564" lon="6.66179">
        <ele>2294.5</ele>
        <time>2018-07-01T12:45:04Z</time>
      </trkpt>
      <trkpt lat="45.29565" lon="6.66184">
        <ele>2292.8</ele>
        <time>2018-07-01T12:45:08Z</time>
      </trkpt>
      <trkpt lat="45.29562" lon="6.66189">
        <ele>2292.8</ele>
        <time>2018-07-01T12:45:11Z</time>
      </trkpt>
      <trkpt lat="45.29561" lon="6.66192">
        <ele>2292</ele>
        <time>2018-07-01T12:45:13Z</time>
      </trkpt>
      <trkpt lat="45.29559" lon="6.66197">
        <ele>2292</ele>
        <time>2018-07-01T12:45:16Z</time>
      </trkpt>
      <trkpt lat="45.29556" lon="6.66201">
        <ele>2292</ele>
        <time>2018-07-01T12:45:19Z</time>
      </trkpt>
      <trkpt lat="45.29555" lon="6.66204">
        <ele>2292</ele>
        <time>2018-07-01T12:45:21Z</time>
      </trkpt>
      <trkpt lat="45.29553" lon="6.6621">
        <ele>2291.1</ele>
        <time>2018-07-01T12:45:24Z</time>
      </trkpt>
      <trkpt lat="45.29552" lon="6.66215">
        <ele>2290.1</ele>
        <time>2018-07-01T12:45:27Z</time>
      </trkpt>
      <trkpt lat="45.29552" lon="6.66221">
        <ele>2289.1</ele>
        <time>2018-07-01T12:45:30Z</time>
      </trkpt>
      <trkpt lat="45.29552" lon="6.66226">
        <ele>2288.2</ele>
        <time>2018-07-01T12:45:33Z</time>
      </trkpt>
      <trkpt lat="45.29551" lon="6.66232">
        <ele>2286.4</ele>
        <time>2018-07-01T12:45:36Z</time>
      </trkpt>
      <trkpt lat="45.2955" lon="6.66237">
        <ele>2286.3</ele>
        <time>2018-07-01T12:45:39Z</time>
      </trkpt>
      <trkpt lat="45.2955" lon="6.66242">
        <ele>2285.4</ele>
        <time>2018-07-01T12:45:42Z</time>
      </trkpt>
      <trkpt lat="45.29549" lon="6.66248">
        <ele>2284.4</ele>
        <time>2018-07-01T12:45:45Z</time>
      </trkpt>
      <trkpt lat="45.29549" lon="6.66253">
        <ele>2282.4</ele>
        <time>2018-07-01T12:45:48Z</time>
      </trkpt>
      <trkpt lat="45.29549" lon="6.66258">
        <ele>2281.5</ele>
        <time>2018-07-01T12:45:51Z</time>
      </trkpt>
      <trkpt lat="45.2955" lon="6.66263">
        <ele>2280.6</ele>
        <time>2018-07-01T12:45:54Z</time>
      </trkpt>
      <trkpt lat="45.2955" lon="6.66268">
        <ele>2279.8</ele>
        <time>2018-07-01T12:45:57Z</time>
      </trkpt>
      <trkpt lat="45.29549" lon="6.66274">
        <ele>2278.5</ele>
        <time>2018-07-01T12:45:59Z</time>
      </trkpt>
      <trkpt lat="45.29549" lon="6.66278">
        <ele>2278.4</ele>
        <time>2018-07-01T12:46:01Z</time>
      </trkpt>
      <trkpt lat="45.29548" lon="6.66283">
        <ele>2277.3</ele>
        <time>2018-07-01T12:46:04Z</time>
      </trkpt>
      <trkpt lat="45.29548" lon="6.66288">
        <ele>2277.5</ele>
        <time>2018-07-01T12:46:07Z</time>
      </trkpt>
      <trkpt lat="45.29546" lon="6.66293">
        <ele>2276.9</ele>
        <time>2018-07-01T12:46:10Z</time>
      </trkpt>
      <trkpt lat="45.29544" lon="6.66298">
        <ele>2277.1</ele>
        <time>2018-07-01T12:46:13Z</time>
      </trkpt>
      <trkpt lat="45.29544" lon="6.66302">
        <ele>2276.5</ele>
        <time>2018-07-01T12:46:16Z</time>
      </trkpt>
      <trkpt lat="45.29545" lon="6.66306">
        <ele>2276</ele>
        <time>2018-07-01T12:46:19Z</time>
      </trkpt>
      <trkpt lat="45.29549" lon="6.66308">
        <ele>2275.2</ele>
        <time>2018-07-01T12:46:22Z</time>
      </trkpt>
      <trkpt lat="45.29552" lon="6.66309">
        <ele>2274.3</ele>
        <time>2018-07-01T12:46:25Z</time>
      </trkpt>
      <trkpt lat="45.29556" lon="6.66308">
        <ele>2273.4</ele>
        <time>2018-07-01T12:46:28Z</time>
      </trkpt>
      <trkpt lat="45.29559" lon="6.66307">
        <ele>2273.2</ele>
        <time>2018-07-01T12:46:31Z</time>
      </trkpt>
      <trkpt lat="45.29562" lon="6.66304">
        <ele>2272.9</ele>
        <time>2018-07-01T12:46:34Z</time>
      </trkpt>
      <trkpt lat="45.29565" lon="6.66303">
        <ele>2272.6</ele>
        <time>2018-07-01T12:46:36Z</time>
      </trkpt>
      <trkpt lat="45.29568" lon="6.663">
        <ele>2272.3</ele>
        <time>2018-07-01T12:46:39Z</time>
      </trkpt>
      <trkpt lat="45.29572" lon="6.66297">
        <ele>2272.2</ele>
        <time>2018-07-01T12:46:43Z</time>
      </trkpt>
      <trkpt lat="45.29574" lon="6.66296">
        <ele>2272.3</ele>
        <time>2018-07-01T12:46:45Z</time>
      </trkpt>
      <trkpt lat="45.29577" lon="6.66294">
        <ele>2272.3</ele>
        <time>2018-07-01T12:46:47Z</time>
      </trkpt>
      <trkpt lat="45.29579" lon="6.6629">
        <ele>2272.4</ele>
        <time>2018-07-01T12:46:50Z</time>
      </trkpt>
      <trkpt lat="45.29581" lon="6.66286">
        <ele>2272.5</ele>
        <time>2018-07-01T12:46:53Z</time>
      </trkpt>
      <trkpt lat="45.29583" lon="6.66283">
        <ele>2272.7</ele>
        <time>2018-07-01T12:46:56Z</time>
      </trkpt>
      <trkpt lat="45.29585" lon="6.66279">
        <ele>2273</ele>
        <time>2018-07-01T12:46:59Z</time>
      </trkpt>
      <trkpt lat="45.29589" lon="6.66276">
        <ele>2273.3</ele>
        <time>2018-07-01T12:47:02Z</time>
      </trkpt>
      <trkpt lat="45.29592" lon="6.66274">
        <ele>2273.6</ele>
        <time>2018-07-01T12:47:04Z</time>
      </trkpt>
      <trkpt lat="45.29594" lon="6.66272">
        <ele>2273.9</ele>
        <time>2018-07-01T12:47:06Z</time>
      </trkpt>
      <trkpt lat="45.29597" lon="6.6627">
        <ele>2274.2</ele>
        <time>2018-07-01T12:47:08Z</time>
      </trkpt>
      <trkpt lat="45.29599" lon="6.66267">
        <ele>2274.5</ele>
        <time>2018-07-01T12:47:10Z</time>
      </trkpt>
      <trkpt lat="45.29601" lon="6.66263">
        <ele>2274.7</ele>
        <time>2018-07-01T12:47:13Z</time>
      </trkpt>
      <trkpt lat="45.29603" lon="6.6626">
        <ele>2274.7</ele>
        <time>2018-07-01T12:47:15Z</time>
      </trkpt>
      <trkpt lat="45.29606" lon="6.66258">
        <ele>2274.8</ele>
        <time>2018-07-01T12:47:17Z</time>
      </trkpt>
      <trkpt lat="45.29608" lon="6.66256">
        <ele>2275.2</ele>
        <time>2018-07-01T12:47:19Z</time>
      </trkpt>
      <trkpt lat="45.29612" lon="6.66253">
        <ele>2276</ele>
        <time>2018-07-01T12:47:22Z</time>
      </trkpt>
      <trkpt lat="45.29615" lon="6.6625">
        <ele>2276.4</ele>
        <time>2018-07-01T12:47:24Z</time>
      </trkpt>
      <trkpt lat="45.29619" lon="6.66245">
        <ele>2276.9</ele>
        <time>2018-07-01T12:47:28Z</time>
      </trkpt>
      <trkpt lat="45.29622" lon="6.66242">
        <ele>2277.4</ele>
        <time>2018-07-01T12:47:31Z</time>
      </trkpt>
      <trkpt lat="45.29624" lon="6.6624">
        <ele>2277.8</ele>
        <time>2018-07-01T12:47:34Z</time>
      </trkpt>
      <trkpt lat="45.29627" lon="6.66241">
        <ele>2278</ele>
        <time>2018-07-01T12:47:36Z</time>
      </trkpt>
      <trkpt lat="45.29631" lon="6.66243">
        <ele>2278</ele>
        <time>2018-07-01T12:47:38Z</time>
      </trkpt>
      <trkpt lat="45.29634" lon="6.66244">
        <ele>2277.8</ele>
        <time>2018-07-01T12:47:40Z</time>
      </trkpt>
      <trkpt lat="45.29637" lon="6.66246">
        <ele>2277.5</ele>
        <time>2018-07-01T12:47:42Z</time>
      </trkpt>
      <trkpt lat="45.29638" lon="6.66249">
        <ele>2277.2</ele>
        <time>2018-07-01T12:47:44Z</time>
      </trkpt>
      <trkpt lat="45.29639" lon="6.66253">
        <ele>2276.9</ele>
        <time>2018-07-01T12:47:46Z</time>
      </trkpt>
      <trkpt lat="45.2964" lon="6.66257">
        <ele>2276.5</ele>
        <time>2018-07-01T12:47:48Z</time>
      </trkpt>
      <trkpt lat="45.29641" lon="6.66262">
        <ele>2275.8</ele>
        <time>2018-07-01T12:47:51Z</time>
      </trkpt>
      <trkpt lat="45.29642" lon="6.66267">
        <ele>2275.1</ele>
        <time>2018-07-01T12:47:54Z</time>
      </trkpt>
      <trkpt lat="45.29645" lon="6.66271">
        <ele>2274.2</ele>
        <time>2018-07-01T12:47:57Z</time>
      </trkpt>
      <trkpt lat="45.29648" lon="6.66275">
        <ele>2273.8</ele>
        <time>2018-07-01T12:48:00Z</time>
      </trkpt>
      <trkpt lat="45.2965" lon="6.66278">
        <ele>2273.6</ele>
        <time>2018-07-01T12:48:02Z</time>
      </trkpt>
      <trkpt lat="45.29652" lon="6.6628">
        <ele>2273.7</ele>
        <time>2018-07-01T12:48:04Z</time>
      </trkpt>
      <trkpt lat="45.29655" lon="6.66282">
        <ele>2273.9</ele>
        <time>2018-07-01T12:48:06Z</time>
      </trkpt>
      <trkpt lat="45.29657" lon="6.66286">
        <ele>2273.9</ele>
        <time>2018-07-01T12:48:09Z</time>
      </trkpt>
      <trkpt lat="45.29659" lon="6.6629">
        <ele>2273.8</ele>
        <time>2018-07-01T12:48:11Z</time>
      </trkpt>
      <trkpt lat="45.2966" lon="6.66293">
        <ele>2273.7</ele>
        <time>2018-07-01T12:48:13Z</time>
      </trkpt>
      <trkpt lat="45.29662" lon="6.66296">
        <ele>2274</ele>
        <time>2018-07-01T12:48:15Z</time>
      </trkpt>
      <trkpt lat="45.29664" lon="6.66299">
        <ele>2274.3</ele>
        <time>2018-07-01T12:48:17Z</time>
      </trkpt>
      <trkpt lat="45.29667" lon="6.66302">
        <ele>2274.3</ele>
        <time>2018-07-01T12:48:20Z</time>
      </trkpt>
      <trkpt lat="45.29669" lon="6.66306">
        <ele>2273.8</ele>
        <time>2018-07-01T12:48:23Z</time>
      </trkpt>
      <trkpt lat="45.29671" lon="6.66309">
        <ele>2273.6</ele>
        <time>2018-07-01T12:48:25Z</time>
      </trkpt>
      <trkpt lat="45.29673" lon="6.66314">
        <ele>2273.5</ele>
        <time>2018-07-01T12:48:28Z</time>
      </trkpt>
      <trkpt lat="45.29676" lon="6.66318">
        <ele>2273.4</ele>
        <time>2018-07-01T12:48:31Z</time>
      </trkpt>
      <trkpt lat="45.29679" lon="6.66317">
        <ele>2273.1</ele>
        <time>2018-07-01T12:48:35Z</time>
      </trkpt>
      <trkpt lat="45.29682" lon="6.66316">
        <ele>2272.9</ele>
        <time>2018-07-01T12:48:39Z</time>
      </trkpt>
      <trkpt lat="45.29686" lon="6.66315">
        <ele>2273.5</ele>
        <time>2018-07-01T12:48:42Z</time>
      </trkpt>
      <trkpt lat="45.29689" lon="6.66315">
        <ele>2274</ele>
        <time>2018-07-01T12:48:45Z</time>
      </trkpt>
      <trkpt lat="45.29692" lon="6.66316">
        <ele>2274.6</ele>
        <time>2018-07-01T12:48:48Z</time>
      </trkpt>
      <trkpt lat="45.29694" lon="6.6632">
        <ele>2274.6</ele>
        <time>2018-07-01T12:48:51Z</time>
      </trkpt>
      <trkpt lat="45.29694" lon="6.66325">
        <ele>2274</ele>
        <time>2018-07-01T12:48:54Z</time>
      </trkpt>
      <trkpt lat="45.29694" lon="6.66329">
        <ele>2273.5</ele>
        <time>2018-07-01T12:48:57Z</time>
      </trkpt>
      <trkpt lat="45.29694" lon="6.66333">
        <ele>2273</ele>
        <time>2018-07-01T12:49:00Z</time>
      </trkpt>
      <trkpt lat="45.29694" lon="6.66338">
        <ele>2272.4</ele>
        <time>2018-07-01T12:49:03Z</time>
      </trkpt>
      <trkpt lat="45.29694" lon="6.66342">
        <ele>2271.9</ele>
        <time>2018-07-01T12:49:06Z</time>
      </trkpt>
      <trkpt lat="45.29695" lon="6.66347">
        <ele>2271.7</ele>
        <time>2018-07-01T12:49:09Z</time>
      </trkpt>
      <trkpt lat="45.29694" lon="6.66352">
        <ele>2271.5</ele>
        <time>2018-07-01T12:49:12Z</time>
      </trkpt>
      <trkpt lat="45.29695" lon="6.66356">
        <ele>2271.3</ele>
        <time>2018-07-01T12:49:14Z</time>
      </trkpt>
      <trkpt lat="45.29695" lon="6.66361">
        <ele>2271.2</ele>
        <time>2018-07-01T12:49:16Z</time>
      </trkpt>
      <trkpt lat="45.29696" lon="6.66365">
        <ele>2271.1</ele>
        <time>2018-07-01T12:49:18Z</time>
      </trkpt>
      <trkpt lat="45.29697" lon="6.66368">
        <ele>2271.1</ele>
        <time>2018-07-01T12:49:20Z</time>
      </trkpt>
      <trkpt lat="45.29699" lon="6.66371">
        <ele>2271.2</ele>
        <time>2018-07-01T12:49:22Z</time>
      </trkpt>
      <trkpt lat="45.297" lon="6.66375">
        <ele>2271</ele>
        <time>2018-07-01T12:49:24Z</time>
      </trkpt>
      <trkpt lat="45.29701" lon="6.66379">
        <ele>2270.6</ele>
        <time>2018-07-01T12:49:26Z</time>
      </trkpt>
      <trkpt lat="45.29703" lon="6.66383">
        <ele>2270.1</ele>
        <time>2018-07-01T12:49:28Z</time>
      </trkpt>
      <trkpt lat="45.29703" lon="6.66387">
        <ele>2269.7</ele>
        <time>2018-07-01T12:49:30Z</time>
      </trkpt>
      <trkpt lat="45.29704" lon="6.66392">
        <ele>2269.1</ele>
        <time>2018-07-01T12:49:33Z</time>
      </trkpt>
      <trkpt lat="45.29705" lon="6.66396">
        <ele>2268.6</ele>
        <time>2018-07-01T12:49:36Z</time>
      </trkpt>
      <trkpt lat="45.29706" lon="6.664">
        <ele>2268.2</ele>
        <time>2018-07-01T12:49:38Z</time>
      </trkpt>
      <trkpt lat="45.29706" lon="6.66404">
        <ele>2267.8</ele>
        <time>2018-07-01T12:49:40Z</time>
      </trkpt>
      <trkpt lat="45.29707" lon="6.66409">
        <ele>2267.2</ele>
        <time>2018-07-01T12:49:43Z</time>
      </trkpt>
      <trkpt lat="45.29708" lon="6.66413">
        <ele>2266.9</ele>
        <time>2018-07-01T12:49:45Z</time>
      </trkpt>
      <trkpt lat="45.2971" lon="6.66418">
        <ele>2266.5</ele>
        <time>2018-07-01T12:49:48Z</time>
      </trkpt>
      <trkpt lat="45.29712" lon="6.66422">
        <ele>2266.1</ele>
        <time>2018-07-01T12:49:51Z</time>
      </trkpt>
      <trkpt lat="45.29713" lon="6.66426">
        <ele>2265.8</ele>
        <time>2018-07-01T12:49:53Z</time>
      </trkpt>
      <trkpt lat="45.29715" lon="6.6643">
        <ele>2265.5</ele>
        <time>2018-07-01T12:49:55Z</time>
      </trkpt>
      <trkpt lat="45.29716" lon="6.66433">
        <ele>2265.2</ele>
        <time>2018-07-01T12:49:57Z</time>
      </trkpt>
      <trkpt lat="45.29718" lon="6.66437">
        <ele>2264.7</ele>
        <time>2018-07-01T12:50:00Z</time>
      </trkpt>
      <trkpt lat="45.2972" lon="6.66442">
        <ele>2263.8</ele>
        <time>2018-07-01T12:50:03Z</time>
      </trkpt>
      <trkpt lat="45.29722" lon="6.66446">
        <ele>2263.1</ele>
        <time>2018-07-01T12:50:05Z</time>
      </trkpt>
      <trkpt lat="45.29723" lon="6.66449">
        <ele>2262.6</ele>
        <time>2018-07-01T12:50:07Z</time>
      </trkpt>
      <trkpt lat="45.29724" lon="6.66454">
        <ele>2262.1</ele>
        <time>2018-07-01T12:50:10Z</time>
      </trkpt>
      <trkpt lat="45.29725" lon="6.66458">
        <ele>2261.7</ele>
        <time>2018-07-01T12:50:12Z</time>
      </trkpt>
      <trkpt lat="45.29725" lon="6.66462">
        <ele>2261.3</ele>
        <time>2018-07-01T12:50:14Z</time>
      </trkpt>
      <trkpt lat="45.29727" lon="6.66467">
        <ele>2260.6</ele>
        <time>2018-07-01T12:50:17Z</time>
      </trkpt>
      <trkpt lat="45.29727" lon="6.66472">
        <ele>2259.5</ele>
        <time>2018-07-01T12:50:20Z</time>
      </trkpt>
      <trkpt lat="45.29728" lon="6.66477">
        <ele>2258.2</ele>
        <time>2018-07-01T12:50:23Z</time>
      </trkpt>
      <trkpt lat="45.29729" lon="6.66482">
        <ele>2256.9</ele>
        <time>2018-07-01T12:50:26Z</time>
      </trkpt>
      <trkpt lat="45.2973" lon="6.66487">
        <ele>2255.5</ele>
        <time>2018-07-01T12:50:29Z</time>
      </trkpt>
      <trkpt lat="45.29731" lon="6.66491">
        <ele>2254.7</ele>
        <time>2018-07-01T12:50:31Z</time>
      </trkpt>
      <trkpt lat="45.29732" lon="6.66494">
        <ele>2253.9</ele>
        <time>2018-07-01T12:50:33Z</time>
      </trkpt>
      <trkpt lat="45.29732" lon="6.66498">
        <ele>2253.3</ele>
        <time>2018-07-01T12:50:35Z</time>
      </trkpt>
      <trkpt lat="45.29733" lon="6.66503">
        <ele>2252.8</ele>
        <time>2018-07-01T12:50:38Z</time>
      </trkpt>
      <trkpt lat="45.29733" lon="6.6651">
        <ele>2251.6</ele>
        <time>2018-07-01T12:50:42Z</time>
      </trkpt>
      <trkpt lat="45.29734" lon="6.66515">
        <ele>2250.6</ele>
        <time>2018-07-01T12:50:45Z</time>
      </trkpt>
      <trkpt lat="45.29735" lon="6.6652">
        <ele>2249.7</ele>
        <time>2018-07-01T12:50:48Z</time>
      </trkpt>
      <trkpt lat="45.29736" lon="6.66526">
        <ele>2249</ele>
        <time>2018-07-01T12:50:51Z</time>
      </trkpt>
      <trkpt lat="45.29739" lon="6.6653">
        <ele>2248.7</ele>
        <time>2018-07-01T12:50:54Z</time>
      </trkpt>
      <trkpt lat="45.29741" lon="6.66532">
        <ele>2248.5</ele>
        <time>2018-07-01T12:50:57Z</time>
      </trkpt>
      <trkpt lat="45.29744" lon="6.66534">
        <ele>2248.3</ele>
        <time>2018-07-01T12:51:00Z</time>
      </trkpt>
      <trkpt lat="45.29747" lon="6.66538">
        <ele>2248</ele>
        <time>2018-07-01T12:51:03Z</time>
      </trkpt>
      <trkpt lat="45.2975" lon="6.6654">
        <ele>2247.7</ele>
        <time>2018-07-01T12:51:06Z</time>
      </trkpt>
      <trkpt lat="45.29752" lon="6.66545">
        <ele>2247.4</ele>
        <time>2018-07-01T12:51:09Z</time>
      </trkpt>
      <trkpt lat="45.29755" lon="6.66548">
        <ele>2247.1</ele>
        <time>2018-07-01T12:51:12Z</time>
      </trkpt>
      <trkpt lat="45.29757" lon="6.66552">
        <ele>2246.5</ele>
        <time>2018-07-01T12:51:15Z</time>
      </trkpt>
      <trkpt lat="45.2976" lon="6.66553">
        <ele>2245.9</ele>
        <time>2018-07-01T12:51:18Z</time>
      </trkpt>
      <trkpt lat="45.29761" lon="6.66557">
        <ele>2245.5</ele>
        <time>2018-07-01T12:51:20Z</time>
      </trkpt>
      <trkpt lat="45.29763" lon="6.66561">
        <ele>2245</ele>
        <time>2018-07-01T12:51:23Z</time>
      </trkpt>
      <trkpt lat="45.29765" lon="6.66565">
        <ele>2244.6</ele>
        <time>2018-07-01T12:51:26Z</time>
      </trkpt>
      <trkpt lat="45.29768" lon="6.66568">
        <ele>2244.4</ele>
        <time>2018-07-01T12:51:29Z</time>
      </trkpt>
      <trkpt lat="45.2977" lon="6.66571">
        <ele>2244.1</ele>
        <time>2018-07-01T12:51:32Z</time>
      </trkpt>
      <trkpt lat="45.29771" lon="6.66576">
        <ele>2243.1</ele>
        <time>2018-07-01T12:51:35Z</time>
      </trkpt>
      <trkpt lat="45.29772" lon="6.6658">
        <ele>2242.2</ele>
        <time>2018-07-01T12:51:37Z</time>
      </trkpt>
      <trkpt lat="45.29775" lon="6.66582">
        <ele>2241.5</ele>
        <time>2018-07-01T12:51:39Z</time>
      </trkpt>
      <trkpt lat="45.29777" lon="6.66586">
        <ele>2240.5</ele>
        <time>2018-07-01T12:51:42Z</time>
      </trkpt>
      <trkpt lat="45.2978" lon="6.66589">
        <ele>2239.7</ele>
        <time>2018-07-01T12:51:45Z</time>
      </trkpt>
      <trkpt lat="45.29783" lon="6.66593">
        <ele>2239.2</ele>
        <time>2018-07-01T12:51:48Z</time>
      </trkpt>
      <trkpt lat="45.29784" lon="6.66597">
        <ele>2238.8</ele>
        <time>2018-07-01T12:51:51Z</time>
      </trkpt>
      <trkpt lat="45.29786" lon="6.66601">
        <ele>2238.1</ele>
        <time>2018-07-01T12:51:54Z</time>
      </trkpt>
      <trkpt lat="45.29789" lon="6.66606">
        <ele>2237.3</ele>
        <time>2018-07-01T12:51:57Z</time>
      </trkpt>
      <trkpt lat="45.29791" lon="6.66611">
        <ele>2236.4</ele>
        <time>2018-07-01T12:52:00Z</time>
      </trkpt>
      <trkpt lat="45.29793" lon="6.66615">
        <ele>2235.4</ele>
        <time>2018-07-01T12:52:03Z</time>
      </trkpt>
      <trkpt lat="45.29796" lon="6.66618">
        <ele>2234.5</ele>
        <time>2018-07-01T12:52:06Z</time>
      </trkpt>
      <trkpt lat="45.29799" lon="6.66622">
        <ele>2233.4</ele>
        <time>2018-07-01T12:52:09Z</time>
      </trkpt>
      <trkpt lat="45.29801" lon="6.66626">
        <ele>2232.4</ele>
        <time>2018-07-01T12:52:12Z</time>
      </trkpt>
      <trkpt lat="45.29803" lon="6.6663">
        <ele>2231.1</ele>
        <time>2018-07-01T12:52:15Z</time>
      </trkpt>
      <trkpt lat="45.29805" lon="6.66633">
        <ele>2229.9</ele>
        <time>2018-07-01T12:52:17Z</time>
      </trkpt>
      <trkpt lat="45.29808" lon="6.66637">
        <ele>2228.4</ele>
        <time>2018-07-01T12:52:20Z</time>
      </trkpt>
      <trkpt lat="45.2981" lon="6.6664">
        <ele>2227.7</ele>
        <time>2018-07-01T12:52:22Z</time>
      </trkpt>
      <trkpt lat="45.29813" lon="6.66644">
        <ele>2227</ele>
        <time>2018-07-01T12:52:25Z</time>
      </trkpt>
      <trkpt lat="45.29815" lon="6.66648">
        <ele>2226.4</ele>
        <time>2018-07-01T12:52:28Z</time>
      </trkpt>
      <trkpt lat="45.29817" lon="6.6665">
        <ele>2225.9</ele>
        <time>2018-07-01T12:52:30Z</time>
      </trkpt>
      <trkpt lat="45.2982" lon="6.66654">
        <ele>2224.7</ele>
        <time>2018-07-01T12:52:33Z</time>
      </trkpt>
      <trkpt lat="45.29823" lon="6.66656">
        <ele>2223.8</ele>
        <time>2018-07-01T12:52:35Z</time>
      </trkpt>
      <trkpt lat="45.29826" lon="6.66657">
        <ele>2223.4</ele>
        <time>2018-07-01T12:52:38Z</time>
      </trkpt>
      <trkpt lat="45.29829" lon="6.66661">
        <ele>2223</ele>
        <time>2018-07-01T12:52:41Z</time>
      </trkpt>
      <trkpt lat="45.29831" lon="6.66664">
        <ele>2222.7</ele>
        <time>2018-07-01T12:52:44Z</time>
      </trkpt>
      <trkpt lat="45.29832" lon="6.66668">
        <ele>2222.3</ele>
        <time>2018-07-01T12:52:46Z</time>
      </trkpt>
      <trkpt lat="45.29834" lon="6.66671">
        <ele>2222</ele>
        <time>2018-07-01T12:52:48Z</time>
      </trkpt>
      <trkpt lat="45.29836" lon="6.66674">
        <ele>2221.7</ele>
        <time>2018-07-01T12:52:51Z</time>
      </trkpt>
      <trkpt lat="45.29838" lon="6.66678">
        <ele>2221.3</ele>
        <time>2018-07-01T12:52:54Z</time>
      </trkpt>
      <trkpt lat="45.29841" lon="6.6668">
        <ele>2220.7</ele>
        <time>2018-07-01T12:52:57Z</time>
      </trkpt>
      <trkpt lat="45.29844" lon="6.66681">
        <ele>2219.5</ele>
        <time>2018-07-01T12:53:00Z</time>
      </trkpt>
      <trkpt lat="45.29848" lon="6.66683">
        <ele>2218.3</ele>
        <time>2018-07-01T12:53:03Z</time>
      </trkpt>
      <trkpt lat="45.2985" lon="6.66685">
        <ele>2217.8</ele>
        <time>2018-07-01T12:53:05Z</time>
      </trkpt>
      <trkpt lat="45.29854" lon="6.66687">
        <ele>2217.3</ele>
        <time>2018-07-01T12:53:08Z</time>
      </trkpt>
      <trkpt lat="45.29857" lon="6.66688">
        <ele>2217</ele>
        <time>2018-07-01T12:53:10Z</time>
      </trkpt>
      <trkpt lat="45.2986" lon="6.6669">
        <ele>2217.1</ele>
        <time>2018-07-01T12:53:12Z</time>
      </trkpt>
      <trkpt lat="45.29863" lon="6.6669">
        <ele>2216.5</ele>
        <time>2018-07-01T12:53:15Z</time>
      </trkpt>
      <trkpt lat="45.29867" lon="6.66691">
        <ele>2215.6</ele>
        <time>2018-07-01T12:53:18Z</time>
      </trkpt>
      <trkpt lat="45.29871" lon="6.66693">
        <ele>2215</ele>
        <time>2018-07-01T12:53:21Z</time>
      </trkpt>
      <trkpt lat="45.29874" lon="6.66695">
        <ele>2214.4</ele>
        <time>2018-07-01T12:53:24Z</time>
      </trkpt>
      <trkpt lat="45.29877" lon="6.66697">
        <ele>2213.4</ele>
        <time>2018-07-01T12:53:27Z</time>
      </trkpt>
      <trkpt lat="45.2988" lon="6.66699">
        <ele>2212.1</ele>
        <time>2018-07-01T12:53:30Z</time>
      </trkpt>
      <trkpt lat="45.29883" lon="6.667">
        <ele>2211.1</ele>
        <time>2018-07-01T12:53:33Z</time>
      </trkpt>
      <trkpt lat="45.29887" lon="6.66702">
        <ele>2210.3</ele>
        <time>2018-07-01T12:53:36Z</time>
      </trkpt>
      <trkpt lat="45.29889" lon="6.66704">
        <ele>2209.8</ele>
        <time>2018-07-01T12:53:39Z</time>
      </trkpt>
      <trkpt lat="45.29893" lon="6.66706">
        <ele>2208.6</ele>
        <time>2018-07-01T12:53:42Z</time>
      </trkpt>
      <trkpt lat="45.29896" lon="6.66709">
        <ele>2207.3</ele>
        <time>2018-07-01T12:53:45Z</time>
      </trkpt>
      <trkpt lat="45.29899" lon="6.66711">
        <ele>2206.2</ele>
        <time>2018-07-01T12:53:48Z</time>
      </trkpt>
      <trkpt lat="45.29901" lon="6.66713">
        <ele>2205.6</ele>
        <time>2018-07-01T12:53:50Z</time>
      </trkpt>
      <trkpt lat="45.29904" lon="6.66718">
        <ele>2204.9</ele>
        <time>2018-07-01T12:53:53Z</time>
      </trkpt>
      <trkpt lat="45.29905" lon="6.66722">
        <ele>2204.3</ele>
        <time>2018-07-01T12:53:56Z</time>
      </trkpt>
      <trkpt lat="45.29908" lon="6.66724">
        <ele>2203.6</ele>
        <time>2018-07-01T12:53:59Z</time>
      </trkpt>
      <trkpt lat="45.29911" lon="6.66726">
        <ele>2202.9</ele>
        <time>2018-07-01T12:54:02Z</time>
      </trkpt>
      <trkpt lat="45.29914" lon="6.66729">
        <ele>2201.9</ele>
        <time>2018-07-01T12:54:05Z</time>
      </trkpt>
      <trkpt lat="45.29917" lon="6.66733">
        <ele>2200.7</ele>
        <time>2018-07-01T12:54:08Z</time>
      </trkpt>
      <trkpt lat="45.2992" lon="6.66734">
        <ele>2199.2</ele>
        <time>2018-07-01T12:54:11Z</time>
      </trkpt>
      <trkpt lat="45.29923" lon="6.66737">
        <ele>2199</ele>
        <time>2018-07-01T12:54:14Z</time>
      </trkpt>
      <trkpt lat="45.29925" lon="6.66739">
        <ele>2199</ele>
        <time>2018-07-01T12:54:16Z</time>
      </trkpt>
      <trkpt lat="45.29928" lon="6.66743">
        <ele>2198.9</ele>
        <time>2018-07-01T12:54:19Z</time>
      </trkpt>
      <trkpt lat="45.29932" lon="6.66745">
        <ele>2198.7</ele>
        <time>2018-07-01T12:54:22Z</time>
      </trkpt>
      <trkpt lat="45.29935" lon="6.66746">
        <ele>2198.6</ele>
        <time>2018-07-01T12:54:25Z</time>
      </trkpt>
      <trkpt lat="45.29938" lon="6.66747">
        <ele>2198.3</ele>
        <time>2018-07-01T12:54:28Z</time>
      </trkpt>
      <trkpt lat="45.29942" lon="6.66747">
        <ele>2197.9</ele>
        <time>2018-07-01T12:54:31Z</time>
      </trkpt>
      <trkpt lat="45.29946" lon="6.66747">
        <ele>2197.6</ele>
        <time>2018-07-01T12:54:33Z</time>
      </trkpt>
      <trkpt lat="45.29949" lon="6.66746">
        <ele>2197.3</ele>
        <time>2018-07-01T12:54:35Z</time>
      </trkpt>
      <trkpt lat="45.29952" lon="6.66746">
        <ele>2197</ele>
        <time>2018-07-01T12:54:37Z</time>
      </trkpt>
      <trkpt lat="45.29955" lon="6.66744">
        <ele>2197.1</ele>
        <time>2018-07-01T12:54:40Z</time>
      </trkpt>
      <trkpt lat="45.29957" lon="6.6674">
        <ele>2197.4</ele>
        <time>2018-07-01T12:54:43Z</time>
      </trkpt>
      <trkpt lat="45.2996" lon="6.66738">
        <ele>2196.8</ele>
        <time>2018-07-01T12:54:46Z</time>
      </trkpt>
      <trkpt lat="45.29962" lon="6.66736">
        <ele>2196</ele>
        <time>2018-07-01T12:54:48Z</time>
      </trkpt>
      <trkpt lat="45.29965" lon="6.66733">
        <ele>2195.1</ele>
        <time>2018-07-01T12:54:52Z</time>
      </trkpt>
      <trkpt lat="45.29967" lon="6.66732">
        <ele>2194.8</ele>
        <time>2018-07-01T12:54:56Z</time>
      </trkpt>
      <trkpt lat="45.2997" lon="6.66734">
        <ele>2194.6</ele>
        <time>2018-07-01T12:54:59Z</time>
      </trkpt>
      <trkpt lat="45.29971" lon="6.66737">
        <ele>2194.3</ele>
        <time>2018-07-01T12:55:01Z</time>
      </trkpt>
      <trkpt lat="45.29973" lon="6.66741">
        <ele>2193.3</ele>
        <time>2018-07-01T12:55:03Z</time>
      </trkpt>
      <trkpt lat="45.29976" lon="6.66743">
        <ele>2192.5</ele>
        <time>2018-07-01T12:55:05Z</time>
      </trkpt>
      <trkpt lat="45.29978" lon="6.66744">
        <ele>2191.9</ele>
        <time>2018-07-01T12:55:07Z</time>
      </trkpt>
      <trkpt lat="45.29981" lon="6.66745">
        <ele>2191.7</ele>
        <time>2018-07-01T12:55:09Z</time>
      </trkpt>
      <trkpt lat="45.29986" lon="6.66746">
        <ele>2191.4</ele>
        <time>2018-07-01T12:55:12Z</time>
      </trkpt>
      <trkpt lat="45.29989" lon="6.66746">
        <ele>2190.6</ele>
        <time>2018-07-01T12:55:14Z</time>
      </trkpt>
      <trkpt lat="45.29992" lon="6.66746">
        <ele>2189.7</ele>
        <time>2018-07-01T12:55:17Z</time>
      </trkpt>
      <trkpt lat="45.29995" lon="6.66746">
        <ele>2189.2</ele>
        <time>2018-07-01T12:55:19Z</time>
      </trkpt>
      <trkpt lat="45.29998" lon="6.66746">
        <ele>2189.1</ele>
        <time>2018-07-01T12:55:21Z</time>
      </trkpt>
      <trkpt lat="45.30002" lon="6.66747">
        <ele>2188.9</ele>
        <time>2018-07-01T12:55:24Z</time>
      </trkpt>
      <trkpt lat="45.30006" lon="6.66748">
        <ele>2188</ele>
        <time>2018-07-01T12:55:27Z</time>
      </trkpt>
      <trkpt lat="45.30009" lon="6.66749">
        <ele>2187</ele>
        <time>2018-07-01T12:55:30Z</time>
      </trkpt>
      <trkpt lat="45.30012" lon="6.6675">
        <ele>2186.2</ele>
        <time>2018-07-01T12:55:32Z</time>
      </trkpt>
      <trkpt lat="45.30015" lon="6.66751">
        <ele>2185</ele>
        <time>2018-07-01T12:55:35Z</time>
      </trkpt>
      <trkpt lat="45.30019" lon="6.66753">
        <ele>2182.9</ele>
        <time>2018-07-01T12:55:38Z</time>
      </trkpt>
      <trkpt lat="45.30021" lon="6.66756">
        <ele>2181.1</ele>
        <time>2018-07-01T12:55:40Z</time>
      </trkpt>
      <trkpt lat="45.30024" lon="6.66758">
        <ele>2179.6</ele>
        <time>2018-07-01T12:55:42Z</time>
      </trkpt>
      <trkpt lat="45.30027" lon="6.66761">
        <ele>2178.3</ele>
        <time>2018-07-01T12:55:45Z</time>
      </trkpt>
      <trkpt lat="45.3003" lon="6.66765">
        <ele>2176.7</ele>
        <time>2018-07-01T12:55:48Z</time>
      </trkpt>
      <trkpt lat="45.30033" lon="6.66769">
        <ele>2175.3</ele>
        <time>2018-07-01T12:55:51Z</time>
      </trkpt>
      <trkpt lat="45.30035" lon="6.66773">
        <ele>2174.9</ele>
        <time>2018-07-01T12:55:53Z</time>
      </trkpt>
      <trkpt lat="45.30037" lon="6.66775">
        <ele>2174.6</ele>
        <time>2018-07-01T12:55:56Z</time>
      </trkpt>
      <trkpt lat="45.3004" lon="6.66778">
        <ele>2174.2</ele>
        <time>2018-07-01T12:55:59Z</time>
      </trkpt>
      <trkpt lat="45.30043" lon="6.66779">
        <ele>2173.9</ele>
        <time>2018-07-01T12:56:01Z</time>
      </trkpt>
      <trkpt lat="45.30046" lon="6.6678">
        <ele>2173.4</ele>
        <time>2018-07-01T12:56:03Z</time>
      </trkpt>
      <trkpt lat="45.30049" lon="6.6678">
        <ele>2172.6</ele>
        <time>2018-07-01T12:56:05Z</time>
      </trkpt>
      <trkpt lat="45.30053" lon="6.6678">
        <ele>2171.3</ele>
        <time>2018-07-01T12:56:08Z</time>
      </trkpt>
      <trkpt lat="45.30056" lon="6.66781">
        <ele>2169.8</ele>
        <time>2018-07-01T12:56:10Z</time>
      </trkpt>
      <trkpt lat="45.30059" lon="6.66781">
        <ele>2169</ele>
        <time>2018-07-01T12:56:12Z</time>
      </trkpt>
      <trkpt lat="45.30063" lon="6.66782">
        <ele>2168.4</ele>
        <time>2018-07-01T12:56:14Z</time>
      </trkpt>
      <trkpt lat="45.30066" lon="6.66783">
        <ele>2168</ele>
        <time>2018-07-01T12:56:16Z</time>
      </trkpt>
      <trkpt lat="45.3007" lon="6.66783">
        <ele>2167.3</ele>
        <time>2018-07-01T12:56:19Z</time>
      </trkpt>
      <trkpt lat="45.30073" lon="6.66783">
        <ele>2166.6</ele>
        <time>2018-07-01T12:56:21Z</time>
      </trkpt>
      <trkpt lat="45.30076" lon="6.66783">
        <ele>2165.6</ele>
        <time>2018-07-01T12:56:23Z</time>
      </trkpt>
      <trkpt lat="45.30079" lon="6.66782">
        <ele>2164.9</ele>
        <time>2018-07-01T12:56:26Z</time>
      </trkpt>
      <trkpt lat="45.30083" lon="6.6678">
        <ele>2164.6</ele>
        <time>2018-07-01T12:56:29Z</time>
      </trkpt>
      <trkpt lat="45.30086" lon="6.66779">
        <ele>2164.5</ele>
        <time>2018-07-01T12:56:31Z</time>
      </trkpt>
      <trkpt lat="45.30089" lon="6.66779">
        <ele>2164.1</ele>
        <time>2018-07-01T12:56:33Z</time>
      </trkpt>
      <trkpt lat="45.30093" lon="6.66779">
        <ele>2163.4</ele>
        <time>2018-07-01T12:56:35Z</time>
      </trkpt>
      <trkpt lat="45.30096" lon="6.66781">
        <ele>2162.7</ele>
        <time>2018-07-01T12:56:37Z</time>
      </trkpt>
      <trkpt lat="45.30099" lon="6.66781">
        <ele>2161.5</ele>
        <time>2018-07-01T12:56:39Z</time>
      </trkpt>
      <trkpt lat="45.30103" lon="6.66783">
        <ele>2160.4</ele>
        <time>2018-07-01T12:56:42Z</time>
      </trkpt>
      <trkpt lat="45.30107" lon="6.66783">
        <ele>2160.5</ele>
        <time>2018-07-01T12:56:45Z</time>
      </trkpt>
      <trkpt lat="45.3011" lon="6.66781">
        <ele>2160.6</ele>
        <time>2018-07-01T12:56:48Z</time>
      </trkpt>
      <trkpt lat="45.30114" lon="6.6678">
        <ele>2158.5</ele>
        <time>2018-07-01T12:56:51Z</time>
      </trkpt>
      <trkpt lat="45.30117" lon="6.66779">
        <ele>2156.8</ele>
        <time>2018-07-01T12:56:53Z</time>
      </trkpt>
      <trkpt lat="45.30121" lon="6.66779">
        <ele>2156</ele>
        <time>2018-07-01T12:56:55Z</time>
      </trkpt>
      <trkpt lat="45.30124" lon="6.66779">
        <ele>2155.5</ele>
        <time>2018-07-01T12:56:57Z</time>
      </trkpt>
      <trkpt lat="45.30127" lon="6.66779">
        <ele>2155</ele>
        <time>2018-07-01T12:56:59Z</time>
      </trkpt>
      <trkpt lat="45.3013" lon="6.6678">
        <ele>2154.4</ele>
        <time>2018-07-01T12:57:01Z</time>
      </trkpt>
      <trkpt lat="45.30133" lon="6.66781">
        <ele>2153.6</ele>
        <time>2018-07-01T12:57:04Z</time>
      </trkpt>
      <trkpt lat="45.30137" lon="6.66781">
        <ele>2152.1</ele>
        <time>2018-07-01T12:57:07Z</time>
      </trkpt>
      <trkpt lat="45.3014" lon="6.66782">
        <ele>2150.9</ele>
        <time>2018-07-01T12:57:09Z</time>
      </trkpt>
      <trkpt lat="45.30143" lon="6.66783">
        <ele>2151.4</ele>
        <time>2018-07-01T12:57:11Z</time>
      </trkpt>
      <trkpt lat="45.30146" lon="6.66784">
        <ele>2151.8</ele>
        <time>2018-07-01T12:57:13Z</time>
      </trkpt>
      <trkpt lat="45.3015" lon="6.66784">
        <ele>2152.1</ele>
        <time>2018-07-01T12:57:16Z</time>
      </trkpt>
      <trkpt lat="45.30153" lon="6.66783">
        <ele>2151.8</ele>
        <time>2018-07-01T12:57:19Z</time>
      </trkpt>
      <trkpt lat="45.30157" lon="6.66783">
        <ele>2151.6</ele>
        <time>2018-07-01T12:57:22Z</time>
      </trkpt>
      <trkpt lat="45.3016" lon="6.66782">
        <ele>2151.5</ele>
        <time>2018-07-01T12:57:24Z</time>
      </trkpt>
      <trkpt lat="45.30163" lon="6.66782">
        <ele>2151.3</ele>
        <time>2018-07-01T12:57:27Z</time>
      </trkpt>
      <trkpt lat="45.30167" lon="6.66782">
        <ele>2151.2</ele>
        <time>2018-07-01T12:57:30Z</time>
      </trkpt>
      <trkpt lat="45.3017" lon="6.66781">
        <ele>2151.1</ele>
        <time>2018-07-01T12:57:32Z</time>
      </trkpt>
      <trkpt lat="45.30174" lon="6.66782">
        <ele>2151</ele>
        <time>2018-07-01T12:57:34Z</time>
      </trkpt>
      <trkpt lat="45.30178" lon="6.66782">
        <ele>2150.1</ele>
        <time>2018-07-01T12:57:37Z</time>
      </trkpt>
      <trkpt lat="45.30182" lon="6.66783">
        <ele>2149</ele>
        <time>2018-07-01T12:57:40Z</time>
      </trkpt>
      <trkpt lat="45.30185" lon="6.66783">
        <ele>2148.8</ele>
        <time>2018-07-01T12:57:42Z</time>
      </trkpt>
      <trkpt lat="45.30188" lon="6.66784">
        <ele>2148.7</ele>
        <time>2018-07-01T12:57:44Z</time>
      </trkpt>
      <trkpt lat="45.30192" lon="6.66786">
        <ele>2148.6</ele>
        <time>2018-07-01T12:57:46Z</time>
      </trkpt>
      <trkpt lat="45.30195" lon="6.66786">
        <ele>2148.6</ele>
        <time>2018-07-01T12:57:48Z</time>
      </trkpt>
      <trkpt lat="45.30199" lon="6.66787">
        <ele>2148.4</ele>
        <time>2018-07-01T12:57:51Z</time>
      </trkpt>
      <trkpt lat="45.30202" lon="6.66787">
        <ele>2147.6</ele>
        <time>2018-07-01T12:57:53Z</time>
      </trkpt>
      <trkpt lat="45.30206" lon="6.66787">
        <ele>2146.7</ele>
        <time>2018-07-01T12:57:56Z</time>
      </trkpt>
      <trkpt lat="45.3021" lon="6.66787">
        <ele>2146.3</ele>
        <time>2018-07-01T12:57:59Z</time>
      </trkpt>
      <trkpt lat="45.30213" lon="6.66788">
        <ele>2146.3</ele>
        <time>2018-07-01T12:58:01Z</time>
      </trkpt>
      <trkpt lat="45.30216" lon="6.66786">
        <ele>2146.2</ele>
        <time>2018-07-01T12:58:04Z</time>
      </trkpt>
      <trkpt lat="45.30219" lon="6.66784">
        <ele>2145.4</ele>
        <time>2018-07-01T12:58:07Z</time>
      </trkpt>
      <trkpt lat="45.30222" lon="6.66785">
        <ele>2144.6</ele>
        <time>2018-07-01T12:58:09Z</time>
      </trkpt>
      <trkpt lat="45.30225" lon="6.66786">
        <ele>2144.4</ele>
        <time>2018-07-01T12:58:11Z</time>
      </trkpt>
      <trkpt lat="45.3023" lon="6.66787">
        <ele>2144.4</ele>
        <time>2018-07-01T12:58:14Z</time>
      </trkpt>
      <trkpt lat="45.30233" lon="6.66789">
        <ele>2144.5</ele>
        <time>2018-07-01T12:58:16Z</time>
      </trkpt>
      <trkpt lat="45.30236" lon="6.66792">
        <ele>2144.6</ele>
        <time>2018-07-01T12:58:18Z</time>
      </trkpt>
      <trkpt lat="45.30239" lon="6.66793">
        <ele>2144.8</ele>
        <time>2018-07-01T12:58:20Z</time>
      </trkpt>
      <trkpt lat="45.30241" lon="6.66795">
        <ele>2144.9</ele>
        <time>2018-07-01T12:58:22Z</time>
      </trkpt>
      <trkpt lat="45.30244" lon="6.66795">
        <ele>2145</ele>
        <time>2018-07-01T12:58:24Z</time>
      </trkpt>
      <trkpt lat="45.30247" lon="6.66796">
        <ele>2145.2</ele>
        <time>2018-07-01T12:58:26Z</time>
      </trkpt>
      <trkpt lat="45.3025" lon="6.66796">
        <ele>2145.3</ele>
        <time>2018-07-01T12:58:28Z</time>
      </trkpt>
      <trkpt lat="45.30253" lon="6.66795">
        <ele>2145.3</ele>
        <time>2018-07-01T12:58:30Z</time>
      </trkpt>
      <trkpt lat="45.30257" lon="6.66794">
        <ele>2145.4</ele>
        <time>2018-07-01T12:58:33Z</time>
      </trkpt>
      <trkpt lat="45.30259" lon="6.66794">
        <ele>2145.4</ele>
        <time>2018-07-01T12:58:35Z</time>
      </trkpt>
      <trkpt lat="45.30263" lon="6.66794">
        <ele>2145.4</ele>
        <time>2018-07-01T12:58:37Z</time>
      </trkpt>
      <trkpt lat="45.30267" lon="6.66793">
        <ele>2145.3</ele>
        <time>2018-07-01T12:58:40Z</time>
      </trkpt>
      <trkpt lat="45.3027" lon="6.66794">
        <ele>2145.3</ele>
        <time>2018-07-01T12:58:42Z</time>
      </trkpt>
      <trkpt lat="45.30274" lon="6.66793">
        <ele>2145.2</ele>
        <time>2018-07-01T12:58:45Z</time>
      </trkpt>
      <trkpt lat="45.30277" lon="6.66794">
        <ele>2145.1</ele>
        <time>2018-07-01T12:58:47Z</time>
      </trkpt>
      <trkpt lat="45.3028" lon="6.66794">
        <ele>2145</ele>
        <time>2018-07-01T12:58:49Z</time>
      </trkpt>
      <trkpt lat="45.30283" lon="6.66794">
        <ele>2144.9</ele>
        <time>2018-07-01T12:58:51Z</time>
      </trkpt>
      <trkpt lat="45.30286" lon="6.66795">
        <ele>2144.9</ele>
        <time>2018-07-01T12:58:53Z</time>
      </trkpt>
      <trkpt lat="45.30289" lon="6.66795">
        <ele>2144.8</ele>
        <time>2018-07-01T12:58:56Z</time>
      </trkpt>
      <trkpt lat="45.30292" lon="6.66794">
        <ele>2144.7</ele>
        <time>2018-07-01T12:58:58Z</time>
      </trkpt>
      <trkpt lat="45.30297" lon="6.66794">
        <ele>2144.6</ele>
        <time>2018-07-01T12:59:01Z</time>
      </trkpt>
      <trkpt lat="45.30299" lon="6.66794">
        <ele>2144.4</ele>
        <time>2018-07-01T12:59:03Z</time>
      </trkpt>
      <trkpt lat="45.30302" lon="6.66794">
        <ele>2144.3</ele>
        <time>2018-07-01T12:59:05Z</time>
      </trkpt>
      <trkpt lat="45.30306" lon="6.66794">
        <ele>2144.2</ele>
        <time>2018-07-01T12:59:08Z</time>
      </trkpt>
      <trkpt lat="45.30309" lon="6.66794">
        <ele>2144.1</ele>
        <time>2018-07-01T12:59:10Z</time>
      </trkpt>
      <trkpt lat="45.30312" lon="6.66794">
        <ele>2144.5</ele>
        <time>2018-07-01T12:59:12Z</time>
      </trkpt>
      <trkpt lat="45.30315" lon="6.66793">
        <ele>2144.9</ele>
        <time>2018-07-01T12:59:14Z</time>
      </trkpt>
      <trkpt lat="45.30317" lon="6.66792">
        <ele>2145.2</ele>
        <time>2018-07-01T12:59:16Z</time>
      </trkpt>
      <trkpt lat="45.30321" lon="6.66792">
        <ele>2145.1</ele>
        <time>2018-07-01T12:59:19Z</time>
      </trkpt>
      <trkpt lat="45.30325" lon="6.66791">
        <ele>2144.8</ele>
        <time>2018-07-01T12:59:22Z</time>
      </trkpt>
      <trkpt lat="45.30329" lon="6.6679">
        <ele>2144.5</ele>
        <time>2018-07-01T12:59:24Z</time>
      </trkpt>
      <trkpt lat="45.30332" lon="6.66789">
        <ele>2144.2</ele>
        <time>2018-07-01T12:59:26Z</time>
      </trkpt>
      <trkpt lat="45.30335" lon="6.66788">
        <ele>2144.3</ele>
        <time>2018-07-01T12:59:29Z</time>
      </trkpt>
      <trkpt lat="45.30339" lon="6.66786">
        <ele>2144.9</ele>
        <time>2018-07-01T12:59:32Z</time>
      </trkpt>
      <trkpt lat="45.30342" lon="6.66786">
        <ele>2144.6</ele>
        <time>2018-07-01T12:59:34Z</time>
      </trkpt>
      <trkpt lat="45.30345" lon="6.66786">
        <ele>2144.1</ele>
        <time>2018-07-01T12:59:36Z</time>
      </trkpt>
      <trkpt lat="45.30348" lon="6.66786">
        <ele>2144</ele>
        <time>2018-07-01T12:59:38Z</time>
      </trkpt>
      <trkpt lat="45.30352" lon="6.66785">
        <ele>2144.2</ele>
        <time>2018-07-01T12:59:41Z</time>
      </trkpt>
      <trkpt lat="45.30355" lon="6.66784">
        <ele>2144.5</ele>
        <time>2018-07-01T12:59:44Z</time>
      </trkpt>
      <trkpt lat="45.30359" lon="6.66782">
        <ele>2143.7</ele>
        <time>2018-07-01T12:59:47Z</time>
      </trkpt>
      <trkpt lat="45.30362" lon="6.66781">
        <ele>2143</ele>
        <time>2018-07-01T12:59:50Z</time>
      </trkpt>
      <trkpt lat="45.30365" lon="6.6678">
        <ele>2142.9</ele>
        <time>2018-07-01T12:59:52Z</time>
      </trkpt>
      <trkpt lat="45.3037" lon="6.6678">
        <ele>2143.1</ele>
        <time>2018-07-01T12:59:55Z</time>
      </trkpt>
      <trkpt lat="45.30373" lon="6.66779">
        <ele>2142.8</ele>
        <time>2018-07-01T12:59:57Z</time>
      </trkpt>
      <trkpt lat="45.30377" lon="6.66779">
        <ele>2141.8</ele>
        <time>2018-07-01T13:00:00Z</time>
      </trkpt>
      <trkpt lat="45.3038" lon="6.66778">
        <ele>2141.1</ele>
        <time>2018-07-01T13:00:02Z</time>
      </trkpt>
      <trkpt lat="45.30383" lon="6.66778">
        <ele>2140.9</ele>
        <time>2018-07-01T13:00:04Z</time>
      </trkpt>
      <trkpt lat="45.30386" lon="6.66778">
        <ele>2140.7</ele>
        <time>2018-07-01T13:00:06Z</time>
      </trkpt>
      <trkpt lat="45.30389" lon="6.66777">
        <ele>2140.4</ele>
        <time>2018-07-01T13:00:08Z</time>
      </trkpt>
      <trkpt lat="45.30392" lon="6.66776">
        <ele>2140.3</ele>
        <time>2018-07-01T13:00:10Z</time>
      </trkpt>
      <trkpt lat="45.30395" lon="6.66774">
        <ele>2140.1</ele>
        <time>2018-07-01T13:00:12Z</time>
      </trkpt>
      <trkpt lat="45.30398" lon="6.66773">
        <ele>2140</ele>
        <time>2018-07-01T13:00:14Z</time>
      </trkpt>
      <trkpt lat="45.30401" lon="6.66771">
        <ele>2140.1</ele>
        <time>2018-07-01T13:00:16Z</time>
      </trkpt>
      <trkpt lat="45.30403" lon="6.66769">
        <ele>2140.1</ele>
        <time>2018-07-01T13:00:18Z</time>
      </trkpt>
      <trkpt lat="45.30407" lon="6.66767">
        <ele>2140.1</ele>
        <time>2018-07-01T13:00:20Z</time>
      </trkpt>
      <trkpt lat="45.3041" lon="6.66766">
        <ele>2139.9</ele>
        <time>2018-07-01T13:00:22Z</time>
      </trkpt>
      <trkpt lat="45.30412" lon="6.66764">
        <ele>2139.7</ele>
        <time>2018-07-01T13:00:24Z</time>
      </trkpt>
      <trkpt lat="45.30416" lon="6.66762">
        <ele>2138.9</ele>
        <time>2018-07-01T13:00:27Z</time>
      </trkpt>
      <trkpt lat="45.30419" lon="6.66761">
        <ele>2138.2</ele>
        <time>2018-07-01T13:00:29Z</time>
      </trkpt>
      <trkpt lat="45.30422" lon="6.6676">
        <ele>2137.6</ele>
        <time>2018-07-01T13:00:32Z</time>
      </trkpt>
      <trkpt lat="45.30426" lon="6.66759">
        <ele>2137.1</ele>
        <time>2018-07-01T13:00:35Z</time>
      </trkpt>
      <trkpt lat="45.3043" lon="6.66758">
        <ele>2136.5</ele>
        <time>2018-07-01T13:00:38Z</time>
      </trkpt>
      <trkpt lat="45.30433" lon="6.66757">
        <ele>2135.8</ele>
        <time>2018-07-01T13:00:41Z</time>
      </trkpt>
      <trkpt lat="45.30436" lon="6.66757">
        <ele>2135.3</ele>
        <time>2018-07-01T13:00:43Z</time>
      </trkpt>
      <trkpt lat="45.30439" lon="6.66757">
        <ele>2134.9</ele>
        <time>2018-07-01T13:00:45Z</time>
      </trkpt>
      <trkpt lat="45.30443" lon="6.66757">
        <ele>2134.4</ele>
        <time>2018-07-01T13:00:47Z</time>
      </trkpt>
      <trkpt lat="45.30447" lon="6.66758">
        <ele>2133</ele>
        <time>2018-07-01T13:00:49Z</time>
      </trkpt>
      <trkpt lat="45.3045" lon="6.66759">
        <ele>2132.1</ele>
        <time>2018-07-01T13:00:51Z</time>
      </trkpt>
      <trkpt lat="45.30453" lon="6.6676">
        <ele>2131</ele>
        <time>2018-07-01T13:00:53Z</time>
      </trkpt>
      <trkpt lat="45.30455" lon="6.66758">
        <ele>2130.1</ele>
        <time>2018-07-01T13:00:55Z</time>
      </trkpt>
      <trkpt lat="45.30459" lon="6.66759">
        <ele>2128.8</ele>
        <time>2018-07-01T13:00:58Z</time>
      </trkpt>
      <trkpt lat="45.30462" lon="6.6676">
        <ele>2127.9</ele>
        <time>2018-07-01T13:01:01Z</time>
      </trkpt>
      <trkpt lat="45.30465" lon="6.66761">
        <ele>2127</ele>
        <time>2018-07-01T13:01:03Z</time>
      </trkpt>
      <trkpt lat="45.30468" lon="6.66762">
        <ele>2126.1</ele>
        <time>2018-07-01T13:01:05Z</time>
      </trkpt>
      <trkpt lat="45.30471" lon="6.66764">
        <ele>2125.4</ele>
        <time>2018-07-01T13:01:07Z</time>
      </trkpt>
      <trkpt lat="45.30474" lon="6.66766">
        <ele>2124.5</ele>
        <time>2018-07-01T13:01:10Z</time>
      </trkpt>
      <trkpt lat="45.30478" lon="6.66767">
        <ele>2123.3</ele>
        <time>2018-07-01T13:01:13Z</time>
      </trkpt>
      <trkpt lat="45.30481" lon="6.66769">
        <ele>2122.1</ele>
        <time>2018-07-01T13:01:16Z</time>
      </trkpt>
      <trkpt lat="45.30484" lon="6.6677">
        <ele>2121</ele>
        <time>2018-07-01T13:01:18Z</time>
      </trkpt>
      <trkpt lat="45.30487" lon="6.66771">
        <ele>2119.9</ele>
        <time>2018-07-01T13:01:20Z</time>
      </trkpt>
      <trkpt lat="45.3049" lon="6.66772">
        <ele>2118.8</ele>
        <time>2018-07-01T13:01:22Z</time>
      </trkpt>
      <trkpt lat="45.30493" lon="6.66773">
        <ele>2117.7</ele>
        <time>2018-07-01T13:01:24Z</time>
      </trkpt>
      <trkpt lat="45.30496" lon="6.66773">
        <ele>2116.6</ele>
        <time>2018-07-01T13:01:27Z</time>
      </trkpt>
      <trkpt lat="45.30499" lon="6.66774">
        <ele>2115.5</ele>
        <time>2018-07-01T13:01:30Z</time>
      </trkpt>
      <trkpt lat="45.30502" lon="6.66776">
        <ele>2114.6</ele>
        <time>2018-07-01T13:01:32Z</time>
      </trkpt>
      <trkpt lat="45.30506" lon="6.66776">
        <ele>2113.8</ele>
        <time>2018-07-01T13:01:35Z</time>
      </trkpt>
      <trkpt lat="45.30508" lon="6.66777">
        <ele>2113.1</ele>
        <time>2018-07-01T13:01:37Z</time>
      </trkpt>
      <trkpt lat="45.30511" lon="6.66779">
        <ele>2112.3</ele>
        <time>2018-07-01T13:01:39Z</time>
      </trkpt>
      <trkpt lat="45.30514" lon="6.66781">
        <ele>2111.4</ele>
        <time>2018-07-01T13:01:41Z</time>
      </trkpt>
      <trkpt lat="45.30517" lon="6.66782">
        <ele>2110.4</ele>
        <time>2018-07-01T13:01:43Z</time>
      </trkpt>
      <trkpt lat="45.3052" lon="6.66783">
        <ele>2109.5</ele>
        <time>2018-07-01T13:01:45Z</time>
      </trkpt>
      <trkpt lat="45.30523" lon="6.66784">
        <ele>2108.5</ele>
        <time>2018-07-01T13:01:47Z</time>
      </trkpt>
      <trkpt lat="45.30526" lon="6.66786">
        <ele>2107.8</ele>
        <time>2018-07-01T13:01:49Z</time>
      </trkpt>
      <trkpt lat="45.30529" lon="6.66789">
        <ele>2107.1</ele>
        <time>2018-07-01T13:01:51Z</time>
      </trkpt>
      <trkpt lat="45.30531" lon="6.66791">
        <ele>2106.4</ele>
        <time>2018-07-01T13:01:53Z</time>
      </trkpt>
      <trkpt lat="45.30535" lon="6.66794">
        <ele>2105.6</ele>
        <time>2018-07-01T13:01:55Z</time>
      </trkpt>
      <trkpt lat="45.30537" lon="6.66796">
        <ele>2104.9</ele>
        <time>2018-07-01T13:01:57Z</time>
      </trkpt>
      <trkpt lat="45.30539" lon="6.66799">
        <ele>2103.8</ele>
        <time>2018-07-01T13:01:59Z</time>
      </trkpt>
      <trkpt lat="45.30543" lon="6.668">
        <ele>2102.6</ele>
        <time>2018-07-01T13:02:03Z</time>
      </trkpt>
      <trkpt lat="45.30545" lon="6.66803">
        <ele>2101.9</ele>
        <time>2018-07-01T13:02:05Z</time>
      </trkpt>
      <trkpt lat="45.30548" lon="6.66805">
        <ele>2101.2</ele>
        <time>2018-07-01T13:02:07Z</time>
      </trkpt>
      <trkpt lat="45.3055" lon="6.66808">
        <ele>2100.4</ele>
        <time>2018-07-01T13:02:09Z</time>
      </trkpt>
      <trkpt lat="45.30553" lon="6.6681">
        <ele>2099.5</ele>
        <time>2018-07-01T13:02:11Z</time>
      </trkpt>
      <trkpt lat="45.30556" lon="6.66814">
        <ele>2098.2</ele>
        <time>2018-07-01T13:02:13Z</time>
      </trkpt>
      <trkpt lat="45.3056" lon="6.66816">
        <ele>2097.5</ele>
        <time>2018-07-01T13:02:15Z</time>
      </trkpt>
      <trkpt lat="45.30563" lon="6.66819">
        <ele>2096.9</ele>
        <time>2018-07-01T13:02:17Z</time>
      </trkpt>
      <trkpt lat="45.30565" lon="6.66821">
        <ele>2096.3</ele>
        <time>2018-07-01T13:02:19Z</time>
      </trkpt>
      <trkpt lat="45.30568" lon="6.66824">
        <ele>2095.8</ele>
        <time>2018-07-01T13:02:21Z</time>
      </trkpt>
      <trkpt lat="45.30571" lon="6.66826">
        <ele>2095.5</ele>
        <time>2018-07-01T13:02:24Z</time>
      </trkpt>
      <trkpt lat="45.30574" lon="6.66828">
        <ele>2095.2</ele>
        <time>2018-07-01T13:02:27Z</time>
      </trkpt>
      <trkpt lat="45.30577" lon="6.66831">
        <ele>2095</ele>
        <time>2018-07-01T13:02:29Z</time>
      </trkpt>
      <trkpt lat="45.3058" lon="6.66832">
        <ele>2094.7</ele>
        <time>2018-07-01T13:02:31Z</time>
      </trkpt>
      <trkpt lat="45.30584" lon="6.66832">
        <ele>2094.5</ele>
        <time>2018-07-01T13:02:34Z</time>
      </trkpt>
      <trkpt lat="45.30587" lon="6.66832">
        <ele>2094.6</ele>
        <time>2018-07-01T13:02:37Z</time>
      </trkpt>
      <trkpt lat="45.30591" lon="6.66831">
        <ele>2094.8</ele>
        <time>2018-07-01T13:02:40Z</time>
      </trkpt>
      <trkpt lat="45.30595" lon="6.6683">
        <ele>2095.2</ele>
        <time>2018-07-01T13:02:43Z</time>
      </trkpt>
      <trkpt lat="45.30598" lon="6.66828">
        <ele>2095.5</ele>
        <time>2018-07-01T13:02:45Z</time>
      </trkpt>
      <trkpt lat="45.30602" lon="6.66827">
        <ele>2095.9</ele>
        <time>2018-07-01T13:02:47Z</time>
      </trkpt>
      <trkpt lat="45.30604" lon="6.66825">
        <ele>2096.6</ele>
        <time>2018-07-01T13:02:49Z</time>
      </trkpt>
      <trkpt lat="45.30607" lon="6.66821">
        <ele>2097.6</ele>
        <time>2018-07-01T13:02:52Z</time>
      </trkpt>
      <trkpt lat="45.3061" lon="6.66817">
        <ele>2097.8</ele>
        <time>2018-07-01T13:02:55Z</time>
      </trkpt>
      <trkpt lat="45.30613" lon="6.66813">
        <ele>2097.7</ele>
        <time>2018-07-01T13:02:58Z</time>
      </trkpt>
      <trkpt lat="45.30616" lon="6.66811">
        <ele>2098.3</ele>
        <time>2018-07-01T13:03:00Z</time>
      </trkpt>
      <trkpt lat="45.3062" lon="6.6681">
        <ele>2098.5</ele>
        <time>2018-07-01T13:03:02Z</time>
      </trkpt>
      <trkpt lat="45.30623" lon="6.66809">
        <ele>2097.9</ele>
        <time>2018-07-01T13:03:04Z</time>
      </trkpt>
      <trkpt lat="45.30625" lon="6.66808">
        <ele>2097.4</ele>
        <time>2018-07-01T13:03:06Z</time>
      </trkpt>
      <trkpt lat="45.30628" lon="6.66807">
        <ele>2096.9</ele>
        <time>2018-07-01T13:03:08Z</time>
      </trkpt>
      <trkpt lat="45.30631" lon="6.66808">
        <ele>2096.3</ele>
        <time>2018-07-01T13:03:10Z</time>
      </trkpt>
      <trkpt lat="45.30634" lon="6.66809">
        <ele>2095.7</ele>
        <time>2018-07-01T13:03:12Z</time>
      </trkpt>
      <trkpt lat="45.30638" lon="6.66812">
        <ele>2095</ele>
        <time>2018-07-01T13:03:15Z</time>
      </trkpt>
      <trkpt lat="45.30642" lon="6.66813">
        <ele>2094.4</ele>
        <time>2018-07-01T13:03:17Z</time>
      </trkpt>
      <trkpt lat="45.30644" lon="6.66815">
        <ele>2093.9</ele>
        <time>2018-07-01T13:03:19Z</time>
      </trkpt>
      <trkpt lat="45.30647" lon="6.66817">
        <ele>2093.4</ele>
        <time>2018-07-01T13:03:21Z</time>
      </trkpt>
      <trkpt lat="45.3065" lon="6.66818">
        <ele>2093</ele>
        <time>2018-07-01T13:03:23Z</time>
      </trkpt>
      <trkpt lat="45.30653" lon="6.66819">
        <ele>2092.9</ele>
        <time>2018-07-01T13:03:25Z</time>
      </trkpt>
      <trkpt lat="45.30657" lon="6.66819">
        <ele>2092.8</ele>
        <time>2018-07-01T13:03:28Z</time>
      </trkpt>
      <trkpt lat="45.30661" lon="6.66821">
        <ele>2092.1</ele>
        <time>2018-07-01T13:03:31Z</time>
      </trkpt>
      <trkpt lat="45.30664" lon="6.66821">
        <ele>2091.4</ele>
        <time>2018-07-01T13:03:34Z</time>
      </trkpt>
      <trkpt lat="45.30668" lon="6.66822">
        <ele>2090.9</ele>
        <time>2018-07-01T13:03:37Z</time>
      </trkpt>
      <trkpt lat="45.30671" lon="6.66824">
        <ele>2090.5</ele>
        <time>2018-07-01T13:03:39Z</time>
      </trkpt>
      <trkpt lat="45.30674" lon="6.66825">
        <ele>2090</ele>
        <time>2018-07-01T13:03:41Z</time>
      </trkpt>
      <trkpt lat="45.30676" lon="6.66827">
        <ele>2089.5</ele>
        <time>2018-07-01T13:03:43Z</time>
      </trkpt>
      <trkpt lat="45.30679" lon="6.6683">
        <ele>2089</ele>
        <time>2018-07-01T13:03:45Z</time>
      </trkpt>
      <trkpt lat="45.30682" lon="6.66831">
        <ele>2088.6</ele>
        <time>2018-07-01T13:03:47Z</time>
      </trkpt>
      <trkpt lat="45.30685" lon="6.66832">
        <ele>2088.1</ele>
        <time>2018-07-01T13:03:49Z</time>
      </trkpt>
      <trkpt lat="45.30688" lon="6.66833">
        <ele>2087.6</ele>
        <time>2018-07-01T13:03:51Z</time>
      </trkpt>
      <trkpt lat="45.3069" lon="6.66834">
        <ele>2087.2</ele>
        <time>2018-07-01T13:03:53Z</time>
      </trkpt>
      <trkpt lat="45.30693" lon="6.66836">
        <ele>2086.8</ele>
        <time>2018-07-01T13:03:55Z</time>
      </trkpt>
      <trkpt lat="45.30696" lon="6.66837">
        <ele>2086.3</ele>
        <time>2018-07-01T13:03:57Z</time>
      </trkpt>
      <trkpt lat="45.30698" lon="6.66837">
        <ele>2086.3</ele>
        <time>2018-07-01T13:03:59Z</time>
      </trkpt>
      <trkpt lat="45.30702" lon="6.66839">
        <ele>2086.2</ele>
        <time>2018-07-01T13:04:01Z</time>
      </trkpt>
      <trkpt lat="45.30705" lon="6.6684">
        <ele>2086.1</ele>
        <time>2018-07-01T13:04:03Z</time>
      </trkpt>
      <trkpt lat="45.30708" lon="6.6684">
        <ele>2085.6</ele>
        <time>2018-07-01T13:04:05Z</time>
      </trkpt>
      <trkpt lat="45.30711" lon="6.6684">
        <ele>2085</ele>
        <time>2018-07-01T13:04:08Z</time>
      </trkpt>
      <trkpt lat="45.30715" lon="6.66841">
        <ele>2084.8</ele>
        <time>2018-07-01T13:04:11Z</time>
      </trkpt>
      <trkpt lat="45.30719" lon="6.66842">
        <ele>2084.8</ele>
        <time>2018-07-01T13:04:14Z</time>
      </trkpt>
      <trkpt lat="45.30722" lon="6.66843">
        <ele>2084.6</ele>
        <time>2018-07-01T13:04:16Z</time>
      </trkpt>
      <trkpt lat="45.30726" lon="6.66844">
        <ele>2084.1</ele>
        <time>2018-07-01T13:04:18Z</time>
      </trkpt>
      <trkpt lat="45.30729" lon="6.66846">
        <ele>2083.6</ele>
        <time>2018-07-01T13:04:20Z</time>
      </trkpt>
      <trkpt lat="45.30733" lon="6.66847">
        <ele>2083.7</ele>
        <time>2018-07-01T13:04:22Z</time>
      </trkpt>
      <trkpt lat="45.30736" lon="6.66848">
        <ele>2083.7</ele>
        <time>2018-07-01T13:04:24Z</time>
      </trkpt>
      <trkpt lat="45.30739" lon="6.66849">
        <ele>2083.5</ele>
        <time>2018-07-01T13:04:26Z</time>
      </trkpt>
      <trkpt lat="45.30742" lon="6.6685">
        <ele>2083.2</ele>
        <time>2018-07-01T13:04:28Z</time>
      </trkpt>
      <trkpt lat="45.30745" lon="6.66852">
        <ele>2082.9</ele>
        <time>2018-07-01T13:04:30Z</time>
      </trkpt>
      <trkpt lat="45.30748" lon="6.66853">
        <ele>2082.6</ele>
        <time>2018-07-01T13:04:33Z</time>
      </trkpt>
      <trkpt lat="45.30752" lon="6.66854">
        <ele>2082.4</ele>
        <time>2018-07-01T13:04:36Z</time>
      </trkpt>
      <trkpt lat="45.30755" lon="6.66856">
        <ele>2082.6</ele>
        <time>2018-07-01T13:04:39Z</time>
      </trkpt>
      <trkpt lat="45.30758" lon="6.66858">
        <ele>2082.8</ele>
        <time>2018-07-01T13:04:41Z</time>
      </trkpt>
      <trkpt lat="45.30761" lon="6.66858">
        <ele>2083.1</ele>
        <time>2018-07-01T13:04:44Z</time>
      </trkpt>
      <trkpt lat="45.30765" lon="6.66859">
        <ele>2083.4</ele>
        <time>2018-07-01T13:04:47Z</time>
      </trkpt>
      <trkpt lat="45.30768" lon="6.66859">
        <ele>2083.8</ele>
        <time>2018-07-01T13:04:50Z</time>
      </trkpt>
      <trkpt lat="45.30772" lon="6.6686">
        <ele>2084.3</ele>
        <time>2018-07-01T13:04:53Z</time>
      </trkpt>
      <trkpt lat="45.30775" lon="6.6686">
        <ele>2084.7</ele>
        <time>2018-07-01T13:04:55Z</time>
      </trkpt>
      <trkpt lat="45.30778" lon="6.66861">
        <ele>2085</ele>
        <time>2018-07-01T13:04:57Z</time>
      </trkpt>
      <trkpt lat="45.30782" lon="6.66861">
        <ele>2084.9</ele>
        <time>2018-07-01T13:04:59Z</time>
      </trkpt>
      <trkpt lat="45.30785" lon="6.66862">
        <ele>2084.8</ele>
        <time>2018-07-01T13:05:01Z</time>
      </trkpt>
      <trkpt lat="45.30789" lon="6.66863">
        <ele>2084.6</ele>
        <time>2018-07-01T13:05:04Z</time>
      </trkpt>
      <trkpt lat="45.30792" lon="6.66864">
        <ele>2084.4</ele>
        <time>2018-07-01T13:05:06Z</time>
      </trkpt>
      <trkpt lat="45.30794" lon="6.66866">
        <ele>2084.3</ele>
        <time>2018-07-01T13:05:08Z</time>
      </trkpt>
      <trkpt lat="45.30797" lon="6.66867">
        <ele>2084.3</ele>
        <time>2018-07-01T13:05:10Z</time>
      </trkpt>
      <trkpt lat="45.30799" lon="6.66869">
        <ele>2084.2</ele>
        <time>2018-07-01T13:05:12Z</time>
      </trkpt>
      <trkpt lat="45.30802" lon="6.66871">
        <ele>2083.8</ele>
        <time>2018-07-01T13:05:14Z</time>
      </trkpt>
      <trkpt lat="45.30805" lon="6.66873">
        <ele>2083.5</ele>
        <time>2018-07-01T13:05:16Z</time>
      </trkpt>
      <trkpt lat="45.30808" lon="6.66876">
        <ele>2083.1</ele>
        <time>2018-07-01T13:05:18Z</time>
      </trkpt>
      <trkpt lat="45.30811" lon="6.66878">
        <ele>2082.5</ele>
        <time>2018-07-01T13:05:20Z</time>
      </trkpt>
      <trkpt lat="45.30814" lon="6.6688">
        <ele>2082</ele>
        <time>2018-07-01T13:05:22Z</time>
      </trkpt>
      <trkpt lat="45.30817" lon="6.66883">
        <ele>2081.7</ele>
        <time>2018-07-01T13:05:24Z</time>
      </trkpt>
      <trkpt lat="45.30819" lon="6.66885">
        <ele>2081.6</ele>
        <time>2018-07-01T13:05:26Z</time>
      </trkpt>
      <trkpt lat="45.30822" lon="6.66887">
        <ele>2081.4</ele>
        <time>2018-07-01T13:05:28Z</time>
      </trkpt>
      <trkpt lat="45.30824" lon="6.6689">
        <ele>2081.1</ele>
        <time>2018-07-01T13:05:30Z</time>
      </trkpt>
      <trkpt lat="45.30827" lon="6.66892">
        <ele>2080.8</ele>
        <time>2018-07-01T13:05:32Z</time>
      </trkpt>
      <trkpt lat="45.3083" lon="6.66893">
        <ele>2080.5</ele>
        <time>2018-07-01T13:05:34Z</time>
      </trkpt>
      <trkpt lat="45.30833" lon="6.66895">
        <ele>2080.2</ele>
        <time>2018-07-01T13:05:36Z</time>
      </trkpt>
      <trkpt lat="45.30836" lon="6.66897">
        <ele>2080</ele>
        <time>2018-07-01T13:05:38Z</time>
      </trkpt>
      <trkpt lat="45.30839" lon="6.66898">
        <ele>2079.7</ele>
        <time>2018-07-01T13:05:40Z</time>
      </trkpt>
      <trkpt lat="45.30842" lon="6.669">
        <ele>2079.2</ele>
        <time>2018-07-01T13:05:43Z</time>
      </trkpt>
      <trkpt lat="45.30847" lon="6.66902">
        <ele>2078.6</ele>
        <time>2018-07-01T13:05:46Z</time>
      </trkpt>
      <trkpt lat="45.3085" lon="6.66902">
        <ele>2078</ele>
        <time>2018-07-01T13:05:48Z</time>
      </trkpt>
      <trkpt lat="45.30853" lon="6.66903">
        <ele>2077.2</ele>
        <time>2018-07-01T13:05:51Z</time>
      </trkpt>
      <trkpt lat="45.30856" lon="6.66906">
        <ele>2076.6</ele>
        <time>2018-07-01T13:05:53Z</time>
      </trkpt>
      <trkpt lat="45.30858" lon="6.66909">
        <ele>2075.9</ele>
        <time>2018-07-01T13:05:55Z</time>
      </trkpt>
      <trkpt lat="45.30861" lon="6.66911">
        <ele>2075.2</ele>
        <time>2018-07-01T13:05:57Z</time>
      </trkpt>
      <trkpt lat="45.30864" lon="6.66913">
        <ele>2075</ele>
        <time>2018-07-01T13:05:59Z</time>
      </trkpt>
      <trkpt lat="45.30867" lon="6.66915">
        <ele>2074.8</ele>
        <time>2018-07-01T13:06:01Z</time>
      </trkpt>
      <trkpt lat="45.30869" lon="6.66918">
        <ele>2074.5</ele>
        <time>2018-07-01T13:06:03Z</time>
      </trkpt>
      <trkpt lat="45.30873" lon="6.66922">
        <ele>2073.6</ele>
        <time>2018-07-01T13:06:06Z</time>
      </trkpt>
      <trkpt lat="45.30875" lon="6.66925">
        <ele>2072.9</ele>
        <time>2018-07-01T13:06:08Z</time>
      </trkpt>
      <trkpt lat="45.30878" lon="6.66928">
        <ele>2072.6</ele>
        <time>2018-07-01T13:06:11Z</time>
      </trkpt>
      <trkpt lat="45.30881" lon="6.66932">
        <ele>2072.4</ele>
        <time>2018-07-01T13:06:14Z</time>
      </trkpt>
      <trkpt lat="45.30883" lon="6.66935">
        <ele>2072</ele>
        <time>2018-07-01T13:06:17Z</time>
      </trkpt>
      <trkpt lat="45.30886" lon="6.66938">
        <ele>2071.4</ele>
        <time>2018-07-01T13:06:20Z</time>
      </trkpt>
      <trkpt lat="45.30889" lon="6.66941">
        <ele>2070.8</ele>
        <time>2018-07-01T13:06:22Z</time>
      </trkpt>
      <trkpt lat="45.30892" lon="6.66943">
        <ele>2070.2</ele>
        <time>2018-07-01T13:06:24Z</time>
      </trkpt>
      <trkpt lat="45.30895" lon="6.66946">
        <ele>2069.5</ele>
        <time>2018-07-01T13:06:27Z</time>
      </trkpt>
      <trkpt lat="45.30897" lon="6.66948">
        <ele>2069</ele>
        <time>2018-07-01T13:06:29Z</time>
      </trkpt>
      <trkpt lat="45.30899" lon="6.66951">
        <ele>2068.6</ele>
        <time>2018-07-01T13:06:31Z</time>
      </trkpt>
      <trkpt lat="45.30901" lon="6.66954">
        <ele>2068.1</ele>
        <time>2018-07-01T13:06:33Z</time>
      </trkpt>
      <trkpt lat="45.30903" lon="6.66957">
        <ele>2067.6</ele>
        <time>2018-07-01T13:06:35Z</time>
      </trkpt>
      <trkpt lat="45.30905" lon="6.66961">
        <ele>2066.9</ele>
        <time>2018-07-01T13:06:37Z</time>
      </trkpt>
      <trkpt lat="45.30907" lon="6.66964">
        <ele>2066.4</ele>
        <time>2018-07-01T13:06:39Z</time>
      </trkpt>
      <trkpt lat="45.30909" lon="6.66968">
        <ele>2065.6</ele>
        <time>2018-07-01T13:06:42Z</time>
      </trkpt>
      <trkpt lat="45.30911" lon="6.66971">
        <ele>2064.9</ele>
        <time>2018-07-01T13:06:44Z</time>
      </trkpt>
      <trkpt lat="45.30913" lon="6.66975">
        <ele>2064</ele>
        <time>2018-07-01T13:06:47Z</time>
      </trkpt>
      <trkpt lat="45.30915" lon="6.66979">
        <ele>2063.6</ele>
        <time>2018-07-01T13:06:49Z</time>
      </trkpt>
      <trkpt lat="45.30917" lon="6.66983">
        <ele>2063.2</ele>
        <time>2018-07-01T13:06:51Z</time>
      </trkpt>
      <trkpt lat="45.3092" lon="6.66986">
        <ele>2062.9</ele>
        <time>2018-07-01T13:06:53Z</time>
      </trkpt>
      <trkpt lat="45.30922" lon="6.66989">
        <ele>2062.7</ele>
        <time>2018-07-01T13:06:55Z</time>
      </trkpt>
      <trkpt lat="45.30924" lon="6.66992">
        <ele>2062.4</ele>
        <time>2018-07-01T13:06:57Z</time>
      </trkpt>
      <trkpt lat="45.30927" lon="6.66996">
        <ele>2062</ele>
        <time>2018-07-01T13:07:00Z</time>
      </trkpt>
      <trkpt lat="45.3093" lon="6.66999">
        <ele>2061.6</ele>
        <time>2018-07-01T13:07:03Z</time>
      </trkpt>
      <trkpt lat="45.30932" lon="6.67002">
        <ele>2061.2</ele>
        <time>2018-07-01T13:07:05Z</time>
      </trkpt>
      <trkpt lat="45.30934" lon="6.67005">
        <ele>2060.6</ele>
        <time>2018-07-01T13:07:07Z</time>
      </trkpt>
      <trkpt lat="45.30936" lon="6.67009">
        <ele>2060</ele>
        <time>2018-07-01T13:07:09Z</time>
      </trkpt>
      <trkpt lat="45.30938" lon="6.67013">
        <ele>2059.5</ele>
        <time>2018-07-01T13:07:11Z</time>
      </trkpt>
      <trkpt lat="45.3094" lon="6.67016">
        <ele>2059.2</ele>
        <time>2018-07-01T13:07:13Z</time>
      </trkpt>
      <trkpt lat="45.30942" lon="6.6702">
        <ele>2058.7</ele>
        <time>2018-07-01T13:07:16Z</time>
      </trkpt>
      <trkpt lat="45.30944" lon="6.67024">
        <ele>2058.5</ele>
        <time>2018-07-01T13:07:18Z</time>
      </trkpt>
      <trkpt lat="45.30946" lon="6.67027">
        <ele>2058.2</ele>
        <time>2018-07-01T13:07:20Z</time>
      </trkpt>
      <trkpt lat="45.30948" lon="6.67031">
        <ele>2058</ele>
        <time>2018-07-01T13:07:23Z</time>
      </trkpt>
      <trkpt lat="45.3095" lon="6.67035">
        <ele>2057.8</ele>
        <time>2018-07-01T13:07:25Z</time>
      </trkpt>
      <trkpt lat="45.30952" lon="6.67039">
        <ele>2057.6</ele>
        <time>2018-07-01T13:07:27Z</time>
      </trkpt>
      <trkpt lat="45.30953" lon="6.67043">
        <ele>2057.3</ele>
        <time>2018-07-01T13:07:29Z</time>
      </trkpt>
      <trkpt lat="45.30956" lon="6.67046">
        <ele>2057</ele>
        <time>2018-07-01T13:07:31Z</time>
      </trkpt>
      <trkpt lat="45.30957" lon="6.6705">
        <ele>2056.7</ele>
        <time>2018-07-01T13:07:33Z</time>
      </trkpt>
      <trkpt lat="45.30959" lon="6.67053">
        <ele>2056.4</ele>
        <time>2018-07-01T13:07:35Z</time>
      </trkpt>
      <trkpt lat="45.30961" lon="6.67057">
        <ele>2056.2</ele>
        <time>2018-07-01T13:07:37Z</time>
      </trkpt>
      <trkpt lat="45.30963" lon="6.67061">
        <ele>2055.9</ele>
        <time>2018-07-01T13:07:40Z</time>
      </trkpt>
      <trkpt lat="45.30964" lon="6.67065">
        <ele>2055.6</ele>
        <time>2018-07-01T13:07:42Z</time>
      </trkpt>
      <trkpt lat="45.30966" lon="6.67068">
        <ele>2055.4</ele>
        <time>2018-07-01T13:07:44Z</time>
      </trkpt>
      <trkpt lat="45.30968" lon="6.67072">
        <ele>2055.3</ele>
        <time>2018-07-01T13:07:46Z</time>
      </trkpt>
      <trkpt lat="45.3097" lon="6.67076">
        <ele>2055.2</ele>
        <time>2018-07-01T13:07:48Z</time>
      </trkpt>
      <trkpt lat="45.30972" lon="6.67081">
        <ele>2055.1</ele>
        <time>2018-07-01T13:07:51Z</time>
      </trkpt>
      <trkpt lat="45.30973" lon="6.67085">
        <ele>2055.1</ele>
        <time>2018-07-01T13:07:53Z</time>
      </trkpt>
      <trkpt lat="45.30975" lon="6.67089">
        <ele>2055</ele>
        <time>2018-07-01T13:07:55Z</time>
      </trkpt>
      <trkpt lat="45.30975" lon="6.67093">
        <ele>2054.9</ele>
        <time>2018-07-01T13:07:57Z</time>
      </trkpt>
      <trkpt lat="45.30977" lon="6.67098">
        <ele>2054.7</ele>
        <time>2018-07-01T13:08:00Z</time>
      </trkpt>
      <trkpt lat="45.3098" lon="6.67103">
        <ele>2054.6</ele>
        <time>2018-07-01T13:08:02Z</time>
      </trkpt>
      <trkpt lat="45.30982" lon="6.67107">
        <ele>2054.6</ele>
        <time>2018-07-01T13:08:04Z</time>
      </trkpt>
      <trkpt lat="45.30983" lon="6.6711">
        <ele>2054.5</ele>
        <time>2018-07-01T13:08:07Z</time>
      </trkpt>
      <trkpt lat="45.30985" lon="6.67115">
        <ele>2054.6</ele>
        <time>2018-07-01T13:08:10Z</time>
      </trkpt>
      <trkpt lat="45.30987" lon="6.67118">
        <ele>2054.6</ele>
        <time>2018-07-01T13:08:12Z</time>
      </trkpt>
      <trkpt lat="45.30989" lon="6.67121">
        <ele>2054.6</ele>
        <time>2018-07-01T13:08:14Z</time>
      </trkpt>
      <trkpt lat="45.30992" lon="6.67125">
        <ele>2054.5</ele>
        <time>2018-07-01T13:08:16Z</time>
      </trkpt>
      <trkpt lat="45.30994" lon="6.6713">
        <ele>2054.4</ele>
        <time>2018-07-01T13:08:18Z</time>
      </trkpt>
      <trkpt lat="45.30995" lon="6.67134">
        <ele>2054.2</ele>
        <time>2018-07-01T13:08:21Z</time>
      </trkpt>
      <trkpt lat="45.30996" lon="6.67139">
        <ele>2054.1</ele>
        <time>2018-07-01T13:08:24Z</time>
      </trkpt>
      <trkpt lat="45.30997" lon="6.67144">
        <ele>2054</ele>
        <time>2018-07-01T13:08:27Z</time>
      </trkpt>
      <trkpt lat="45.30999" lon="6.67147">
        <ele>2053.9</ele>
        <time>2018-07-01T13:08:29Z</time>
      </trkpt>
      <trkpt lat="45.31" lon="6.67151">
        <ele>2053.8</ele>
        <time>2018-07-01T13:08:31Z</time>
      </trkpt>
      <trkpt lat="45.31002" lon="6.67154">
        <ele>2053.7</ele>
        <time>2018-07-01T13:08:34Z</time>
      </trkpt>
      <trkpt lat="45.31003" lon="6.67159">
        <ele>2053.5</ele>
        <time>2018-07-01T13:08:37Z</time>
      </trkpt>
      <trkpt lat="45.31004" lon="6.67162">
        <ele>2053.4</ele>
        <time>2018-07-01T13:08:39Z</time>
      </trkpt>
      <trkpt lat="45.31006" lon="6.67168">
        <ele>2053.3</ele>
        <time>2018-07-01T13:08:42Z</time>
      </trkpt>
      <trkpt lat="45.31007" lon="6.67172">
        <ele>2053.2</ele>
        <time>2018-07-01T13:08:44Z</time>
      </trkpt>
      <trkpt lat="45.31008" lon="6.67175">
        <ele>2053.2</ele>
        <time>2018-07-01T13:08:46Z</time>
      </trkpt>
      <trkpt lat="45.3101" lon="6.67179">
        <ele>2053.2</ele>
        <time>2018-07-01T13:08:48Z</time>
      </trkpt>
      <trkpt lat="45.31012" lon="6.67183">
        <ele>2053.2</ele>
        <time>2018-07-01T13:08:51Z</time>
      </trkpt>
      <trkpt lat="45.31013" lon="6.67188">
        <ele>2053.1</ele>
        <time>2018-07-01T13:08:54Z</time>
      </trkpt>
      <trkpt lat="45.31014" lon="6.67192">
        <ele>2053.1</ele>
        <time>2018-07-01T13:08:56Z</time>
      </trkpt>
      <trkpt lat="45.31016" lon="6.67196">
        <ele>2052.9</ele>
        <time>2018-07-01T13:08:58Z</time>
      </trkpt>
      <trkpt lat="45.31018" lon="6.672">
        <ele>2052.6</ele>
        <time>2018-07-01T13:09:00Z</time>
      </trkpt>
      <trkpt lat="45.31019" lon="6.67203">
        <ele>2052.4</ele>
        <time>2018-07-01T13:09:02Z</time>
      </trkpt>
      <trkpt lat="45.3102" lon="6.67208">
        <ele>2052.4</ele>
        <time>2018-07-01T13:09:05Z</time>
      </trkpt>
      <trkpt lat="45.31022" lon="6.67213">
        <ele>2052.4</ele>
        <time>2018-07-01T13:09:08Z</time>
      </trkpt>
      <trkpt lat="45.31023" lon="6.67218">
        <ele>2052.1</ele>
        <time>2018-07-01T13:09:11Z</time>
      </trkpt>
      <trkpt lat="45.31025" lon="6.67223">
        <ele>2051.9</ele>
        <time>2018-07-01T13:09:14Z</time>
      </trkpt>
      <trkpt lat="45.31028" lon="6.67227">
        <ele>2051.6</ele>
        <time>2018-07-01T13:09:16Z</time>
      </trkpt>
      <trkpt lat="45.3103" lon="6.6723">
        <ele>2051.4</ele>
        <time>2018-07-01T13:09:18Z</time>
      </trkpt>
      <trkpt lat="45.31032" lon="6.67233">
        <ele>2051.1</ele>
        <time>2018-07-01T13:09:20Z</time>
      </trkpt>
      <trkpt lat="45.31034" lon="6.67237">
        <ele>2050.9</ele>
        <time>2018-07-01T13:09:22Z</time>
      </trkpt>
      <trkpt lat="45.31036" lon="6.67241">
        <ele>2050.7</ele>
        <time>2018-07-01T13:09:24Z</time>
      </trkpt>
      <trkpt lat="45.31037" lon="6.67245">
        <ele>2050.4</ele>
        <time>2018-07-01T13:09:26Z</time>
      </trkpt>
      <trkpt lat="45.31039" lon="6.6725">
        <ele>2050</ele>
        <time>2018-07-01T13:09:28Z</time>
      </trkpt>
      <trkpt lat="45.3104" lon="6.67254">
        <ele>2049.6</ele>
        <time>2018-07-01T13:09:31Z</time>
      </trkpt>
      <trkpt lat="45.31041" lon="6.67259">
        <ele>2049.2</ele>
        <time>2018-07-01T13:09:34Z</time>
      </trkpt>
      <trkpt lat="45.31043" lon="6.67262">
        <ele>2048.9</ele>
        <time>2018-07-01T13:09:36Z</time>
      </trkpt>
      <trkpt lat="45.31045" lon="6.67266">
        <ele>2048.6</ele>
        <time>2018-07-01T13:09:38Z</time>
      </trkpt>
      <trkpt lat="45.31047" lon="6.67269">
        <ele>2048.3</ele>
        <time>2018-07-01T13:09:40Z</time>
      </trkpt>
      <trkpt lat="45.31051" lon="6.67275">
        <ele>2047.7</ele>
        <time>2018-07-01T13:09:44Z</time>
      </trkpt>
      <trkpt lat="45.31053" lon="6.67278">
        <ele>2047.4</ele>
        <time>2018-07-01T13:09:46Z</time>
      </trkpt>
      <trkpt lat="45.31055" lon="6.67281">
        <ele>2047.1</ele>
        <time>2018-07-01T13:09:48Z</time>
      </trkpt>
      <trkpt lat="45.31057" lon="6.67285">
        <ele>2046.7</ele>
        <time>2018-07-01T13:09:50Z</time>
      </trkpt>
      <trkpt lat="45.31059" lon="6.6729">
        <ele>2046</ele>
        <time>2018-07-01T13:09:53Z</time>
      </trkpt>
      <trkpt lat="45.31061" lon="6.67293">
        <ele>2045.5</ele>
        <time>2018-07-01T13:09:55Z</time>
      </trkpt>
      <trkpt lat="45.31064" lon="6.67296">
        <ele>2045.2</ele>
        <time>2018-07-01T13:09:57Z</time>
      </trkpt>
      <trkpt lat="45.31066" lon="6.67298">
        <ele>2045</ele>
        <time>2018-07-01T13:09:59Z</time>
      </trkpt>
      <trkpt lat="45.31069" lon="6.67301">
        <ele>2044.7</ele>
        <time>2018-07-01T13:10:02Z</time>
      </trkpt>
      <trkpt lat="45.31073" lon="6.67305">
        <ele>2044.3</ele>
        <time>2018-07-01T13:10:05Z</time>
      </trkpt>
      <trkpt lat="45.31075" lon="6.67307">
        <ele>2044</ele>
        <time>2018-07-01T13:10:07Z</time>
      </trkpt>
      <trkpt lat="45.31078" lon="6.67309">
        <ele>2043.8</ele>
        <time>2018-07-01T13:10:09Z</time>
      </trkpt>
      <trkpt lat="45.31081" lon="6.67312">
        <ele>2043.5</ele>
        <time>2018-07-01T13:10:11Z</time>
      </trkpt>
      <trkpt lat="45.31083" lon="6.67315">
        <ele>2043.3</ele>
        <time>2018-07-01T13:10:13Z</time>
      </trkpt>
      <trkpt lat="45.31086" lon="6.67318">
        <ele>2043</ele>
        <time>2018-07-01T13:10:15Z</time>
      </trkpt>
      <trkpt lat="45.31089" lon="6.67321">
        <ele>2042.7</ele>
        <time>2018-07-01T13:10:17Z</time>
      </trkpt>
      <trkpt lat="45.31092" lon="6.67324">
        <ele>2042.5</ele>
        <time>2018-07-01T13:10:19Z</time>
      </trkpt>
      <trkpt lat="45.31094" lon="6.67328">
        <ele>2042.1</ele>
        <time>2018-07-01T13:10:22Z</time>
      </trkpt>
      <trkpt lat="45.31096" lon="6.67331">
        <ele>2041.9</ele>
        <time>2018-07-01T13:10:24Z</time>
      </trkpt>
      <trkpt lat="45.31098" lon="6.67335">
        <ele>2041.5</ele>
        <time>2018-07-01T13:10:26Z</time>
      </trkpt>
      <trkpt lat="45.31099" lon="6.67339">
        <ele>2041.2</ele>
        <time>2018-07-01T13:10:28Z</time>
      </trkpt>
      <trkpt lat="45.311" lon="6.67343">
        <ele>2040.9</ele>
        <time>2018-07-01T13:10:30Z</time>
      </trkpt>
      <trkpt lat="45.31102" lon="6.67348">
        <ele>2040.6</ele>
        <time>2018-07-01T13:10:33Z</time>
      </trkpt>
      <trkpt lat="45.31105" lon="6.67351">
        <ele>2040.3</ele>
        <time>2018-07-01T13:10:36Z</time>
      </trkpt>
      <trkpt lat="45.31107" lon="6.67356">
        <ele>2040.1</ele>
        <time>2018-07-01T13:10:39Z</time>
      </trkpt>
      <trkpt lat="45.3111" lon="6.67359">
        <ele>2040</ele>
        <time>2018-07-01T13:10:42Z</time>
      </trkpt>
      <trkpt lat="45.31111" lon="6.67363">
        <ele>2039.9</ele>
        <time>2018-07-01T13:10:44Z</time>
      </trkpt>
      <trkpt lat="45.31113" lon="6.67367">
        <ele>2039.8</ele>
        <time>2018-07-01T13:10:46Z</time>
      </trkpt>
      <trkpt lat="45.31115" lon="6.6737">
        <ele>2039.8</ele>
        <time>2018-07-01T13:10:48Z</time>
      </trkpt>
      <trkpt lat="45.31117" lon="6.67374">
        <ele>2039.7</ele>
        <time>2018-07-01T13:10:50Z</time>
      </trkpt>
      <trkpt lat="45.31119" lon="6.67379">
        <ele>2039.6</ele>
        <time>2018-07-01T13:10:53Z</time>
      </trkpt>
      <trkpt lat="45.31122" lon="6.67383">
        <ele>2039.4</ele>
        <time>2018-07-01T13:10:56Z</time>
      </trkpt>
      <trkpt lat="45.31124" lon="6.67386">
        <ele>2039.4</ele>
        <time>2018-07-01T13:10:58Z</time>
      </trkpt>
      <trkpt lat="45.31125" lon="6.67391">
        <ele>2039.3</ele>
        <time>2018-07-01T13:11:00Z</time>
      </trkpt>
      <trkpt lat="45.31127" lon="6.67394">
        <ele>2039.3</ele>
        <time>2018-07-01T13:11:02Z</time>
      </trkpt>
      <trkpt lat="45.3113" lon="6.67398">
        <ele>2039.4</ele>
        <time>2018-07-01T13:11:04Z</time>
      </trkpt>
      <trkpt lat="45.31131" lon="6.67401">
        <ele>2039.4</ele>
        <time>2018-07-01T13:11:06Z</time>
      </trkpt>
      <trkpt lat="45.31133" lon="6.67404">
        <ele>2039.6</ele>
        <time>2018-07-01T13:11:08Z</time>
      </trkpt>
      <trkpt lat="45.31136" lon="6.67407">
        <ele>2039.7</ele>
        <time>2018-07-01T13:11:10Z</time>
      </trkpt>
      <trkpt lat="45.31137" lon="6.67411">
        <ele>2040</ele>
        <time>2018-07-01T13:11:13Z</time>
      </trkpt>
      <trkpt lat="45.3114" lon="6.67415">
        <ele>2040</ele>
        <time>2018-07-01T13:11:16Z</time>
      </trkpt>
      <trkpt lat="45.31142" lon="6.67418">
        <ele>2039.8</ele>
        <time>2018-07-01T13:11:18Z</time>
      </trkpt>
      <trkpt lat="45.31144" lon="6.67423">
        <ele>2039.5</ele>
        <time>2018-07-01T13:11:21Z</time>
      </trkpt>
      <trkpt lat="45.31146" lon="6.67427">
        <ele>2039.2</ele>
        <time>2018-07-01T13:11:23Z</time>
      </trkpt>
      <trkpt lat="45.31148" lon="6.67432">
        <ele>2038.9</ele>
        <time>2018-07-01T13:11:25Z</time>
      </trkpt>
      <trkpt lat="45.3115" lon="6.67435">
        <ele>2038.7</ele>
        <time>2018-07-01T13:11:27Z</time>
      </trkpt>
      <trkpt lat="45.31152" lon="6.67439">
        <ele>2038.2</ele>
        <time>2018-07-01T13:11:30Z</time>
      </trkpt>
      <trkpt lat="45.31153" lon="6.67443">
        <ele>2037.8</ele>
        <time>2018-07-01T13:11:32Z</time>
      </trkpt>
      <trkpt lat="45.31155" lon="6.67447">
        <ele>2037.4</ele>
        <time>2018-07-01T13:11:34Z</time>
      </trkpt>
      <trkpt lat="45.31155" lon="6.67451">
        <ele>2037.3</ele>
        <time>2018-07-01T13:11:36Z</time>
      </trkpt>
      <trkpt lat="45.31156" lon="6.67456">
        <ele>2037.3</ele>
        <time>2018-07-01T13:11:38Z</time>
      </trkpt>
      <trkpt lat="45.31157" lon="6.67461">
        <ele>2037</ele>
        <time>2018-07-01T13:11:40Z</time>
      </trkpt>
      <trkpt lat="45.31159" lon="6.67465">
        <ele>2036.8</ele>
        <time>2018-07-01T13:11:42Z</time>
      </trkpt>
      <trkpt lat="45.31159" lon="6.67469">
        <ele>2036.5</ele>
        <time>2018-07-01T13:11:44Z</time>
      </trkpt>
      <trkpt lat="45.3116" lon="6.67473">
        <ele>2036</ele>
        <time>2018-07-01T13:11:47Z</time>
      </trkpt>
      <trkpt lat="45.31161" lon="6.67477">
        <ele>2035.5</ele>
        <time>2018-07-01T13:11:49Z</time>
      </trkpt>
      <trkpt lat="45.31163" lon="6.67481">
        <ele>2035.6</ele>
        <time>2018-07-01T13:11:51Z</time>
      </trkpt>
      <trkpt lat="45.31165" lon="6.67487">
        <ele>2035.8</ele>
        <time>2018-07-01T13:11:54Z</time>
      </trkpt>
      <trkpt lat="45.31166" lon="6.6749">
        <ele>2035.9</ele>
        <time>2018-07-01T13:11:56Z</time>
      </trkpt>
      <trkpt lat="45.31168" lon="6.67495">
        <ele>2035.8</ele>
        <time>2018-07-01T13:11:59Z</time>
      </trkpt>
      <trkpt lat="45.31169" lon="6.675">
        <ele>2035.6</ele>
        <time>2018-07-01T13:12:02Z</time>
      </trkpt>
      <trkpt lat="45.3117" lon="6.67504">
        <ele>2035.2</ele>
        <time>2018-07-01T13:12:04Z</time>
      </trkpt>
      <trkpt lat="45.31172" lon="6.67508">
        <ele>2034.8</ele>
        <time>2018-07-01T13:12:06Z</time>
      </trkpt>
      <trkpt lat="45.31174" lon="6.67511">
        <ele>2034.5</ele>
        <time>2018-07-01T13:12:08Z</time>
      </trkpt>
      <trkpt lat="45.31175" lon="6.67516">
        <ele>2034.3</ele>
        <time>2018-07-01T13:12:10Z</time>
      </trkpt>
      <trkpt lat="45.31175" lon="6.67519">
        <ele>2034.2</ele>
        <time>2018-07-01T13:12:12Z</time>
      </trkpt>
      <trkpt lat="45.31176" lon="6.67524">
        <ele>2033.8</ele>
        <time>2018-07-01T13:12:14Z</time>
      </trkpt>
      <trkpt lat="45.31177" lon="6.67528">
        <ele>2033.3</ele>
        <time>2018-07-01T13:12:16Z</time>
      </trkpt>
      <trkpt lat="45.31178" lon="6.67532">
        <ele>2032.8</ele>
        <time>2018-07-01T13:12:18Z</time>
      </trkpt>
      <trkpt lat="45.3118" lon="6.67536">
        <ele>2032.3</ele>
        <time>2018-07-01T13:12:20Z</time>
      </trkpt>
      <trkpt lat="45.31181" lon="6.67541">
        <ele>2031.8</ele>
        <time>2018-07-01T13:12:22Z</time>
      </trkpt>
      <trkpt lat="45.31182" lon="6.67545">
        <ele>2031.3</ele>
        <time>2018-07-01T13:12:24Z</time>
      </trkpt>
      <trkpt lat="45.31184" lon="6.67548">
        <ele>2031</ele>
        <time>2018-07-01T13:12:26Z</time>
      </trkpt>
      <trkpt lat="45.31185" lon="6.67552">
        <ele>2030.7</ele>
        <time>2018-07-01T13:12:28Z</time>
      </trkpt>
      <trkpt lat="45.31186" lon="6.67556">
        <ele>2030.2</ele>
        <time>2018-07-01T13:12:30Z</time>
      </trkpt>
      <trkpt lat="45.31188" lon="6.6756">
        <ele>2029.4</ele>
        <time>2018-07-01T13:12:33Z</time>
      </trkpt>
      <trkpt lat="45.31189" lon="6.67565">
        <ele>2028.7</ele>
        <time>2018-07-01T13:12:36Z</time>
      </trkpt>
      <trkpt lat="45.3119" lon="6.67569">
        <ele>2028.1</ele>
        <time>2018-07-01T13:12:38Z</time>
      </trkpt>
      <trkpt lat="45.31191" lon="6.67573">
        <ele>2027.6</ele>
        <time>2018-07-01T13:12:40Z</time>
      </trkpt>
      <trkpt lat="45.31193" lon="6.67577">
        <ele>2027</ele>
        <time>2018-07-01T13:12:42Z</time>
      </trkpt>
      <trkpt lat="45.31194" lon="6.67582">
        <ele>2026.6</ele>
        <time>2018-07-01T13:12:45Z</time>
      </trkpt>
      <trkpt lat="45.31195" lon="6.67586">
        <ele>2026.3</ele>
        <time>2018-07-01T13:12:47Z</time>
      </trkpt>
      <trkpt lat="45.31196" lon="6.6759">
        <ele>2025.7</ele>
        <time>2018-07-01T13:12:50Z</time>
      </trkpt>
      <trkpt lat="45.31197" lon="6.67595">
        <ele>2024.9</ele>
        <time>2018-07-01T13:12:53Z</time>
      </trkpt>
      <trkpt lat="45.31198" lon="6.67599">
        <ele>2024.4</ele>
        <time>2018-07-01T13:12:55Z</time>
      </trkpt>
      <trkpt lat="45.31199" lon="6.67603">
        <ele>2024.4</ele>
        <time>2018-07-01T13:12:57Z</time>
      </trkpt>
      <trkpt lat="45.31201" lon="6.67607">
        <ele>2024.3</ele>
        <time>2018-07-01T13:12:59Z</time>
      </trkpt>
      <trkpt lat="45.31203" lon="6.67612">
        <ele>2023.9</ele>
        <time>2018-07-01T13:13:01Z</time>
      </trkpt>
      <trkpt lat="45.31205" lon="6.67615">
        <ele>2023.3</ele>
        <time>2018-07-01T13:13:03Z</time>
      </trkpt>
      <trkpt lat="45.31207" lon="6.67618">
        <ele>2022.7</ele>
        <time>2018-07-01T13:13:05Z</time>
      </trkpt>
      <trkpt lat="45.31209" lon="6.67622">
        <ele>2022.4</ele>
        <time>2018-07-01T13:13:07Z</time>
      </trkpt>
      <trkpt lat="45.31211" lon="6.67626">
        <ele>2022</ele>
        <time>2018-07-01T13:13:09Z</time>
      </trkpt>
      <trkpt lat="45.31212" lon="6.6763">
        <ele>2021.7</ele>
        <time>2018-07-01T13:13:11Z</time>
      </trkpt>
      <trkpt lat="45.31212" lon="6.67635">
        <ele>2021.1</ele>
        <time>2018-07-01T13:13:14Z</time>
      </trkpt>
      <trkpt lat="45.31212" lon="6.67639">
        <ele>2020.8</ele>
        <time>2018-07-01T13:13:16Z</time>
      </trkpt>
      <trkpt lat="45.31213" lon="6.67643">
        <ele>2020.4</ele>
        <time>2018-07-01T13:13:18Z</time>
      </trkpt>
      <trkpt lat="45.31214" lon="6.67648">
        <ele>2020</ele>
        <time>2018-07-01T13:13:20Z</time>
      </trkpt>
      <trkpt lat="45.31215" lon="6.67652">
        <ele>2019.7</ele>
        <time>2018-07-01T13:13:22Z</time>
      </trkpt>
      <trkpt lat="45.31216" lon="6.67656">
        <ele>2019.3</ele>
        <time>2018-07-01T13:13:24Z</time>
      </trkpt>
      <trkpt lat="45.31218" lon="6.67661">
        <ele>2018.9</ele>
        <time>2018-07-01T13:13:27Z</time>
      </trkpt>
      <trkpt lat="45.31219" lon="6.67665">
        <ele>2018.4</ele>
        <time>2018-07-01T13:13:29Z</time>
      </trkpt>
      <trkpt lat="45.31221" lon="6.67669">
        <ele>2017.9</ele>
        <time>2018-07-01T13:13:31Z</time>
      </trkpt>
      <trkpt lat="45.31223" lon="6.67672">
        <ele>2017.3</ele>
        <time>2018-07-01T13:13:33Z</time>
      </trkpt>
      <trkpt lat="45.31225" lon="6.67676">
        <ele>2017.4</ele>
        <time>2018-07-01T13:13:35Z</time>
      </trkpt>
      <trkpt lat="45.31227" lon="6.6768">
        <ele>2017.4</ele>
        <time>2018-07-01T13:13:37Z</time>
      </trkpt>
      <trkpt lat="45.31228" lon="6.67683">
        <ele>2017.1</ele>
        <time>2018-07-01T13:13:39Z</time>
      </trkpt>
      <trkpt lat="45.3123" lon="6.67687">
        <ele>2016.3</ele>
        <time>2018-07-01T13:13:41Z</time>
      </trkpt>
      <trkpt lat="45.31231" lon="6.67692">
        <ele>2015.4</ele>
        <time>2018-07-01T13:13:44Z</time>
      </trkpt>
      <trkpt lat="45.31233" lon="6.67697">
        <ele>2014.9</ele>
        <time>2018-07-01T13:13:47Z</time>
      </trkpt>
      <trkpt lat="45.31235" lon="6.67701">
        <ele>2014.5</ele>
        <time>2018-07-01T13:13:49Z</time>
      </trkpt>
      <trkpt lat="45.31237" lon="6.67706">
        <ele>2013.8</ele>
        <time>2018-07-01T13:13:52Z</time>
      </trkpt>
      <trkpt lat="45.31239" lon="6.67711">
        <ele>2012.9</ele>
        <time>2018-07-01T13:13:55Z</time>
      </trkpt>
      <trkpt lat="45.3124" lon="6.67716">
        <ele>2012.5</ele>
        <time>2018-07-01T13:13:58Z</time>
      </trkpt>
      <trkpt lat="45.31243" lon="6.6772">
        <ele>2012.3</ele>
        <time>2018-07-01T13:14:01Z</time>
      </trkpt>
      <trkpt lat="45.31244" lon="6.67724">
        <ele>2012.1</ele>
        <time>2018-07-01T13:14:03Z</time>
      </trkpt>
      <trkpt lat="45.31246" lon="6.67727">
        <ele>2011.8</ele>
        <time>2018-07-01T13:14:05Z</time>
      </trkpt>
      <trkpt lat="45.31248" lon="6.67731">
        <ele>2011.3</ele>
        <time>2018-07-01T13:14:07Z</time>
      </trkpt>
      <trkpt lat="45.3125" lon="6.67734">
        <ele>2011.1</ele>
        <time>2018-07-01T13:14:09Z</time>
      </trkpt>
      <trkpt lat="45.31252" lon="6.67737">
        <ele>2011</ele>
        <time>2018-07-01T13:14:11Z</time>
      </trkpt>
      <trkpt lat="45.31254" lon="6.67739">
        <ele>2010.9</ele>
        <time>2018-07-01T13:14:13Z</time>
      </trkpt>
      <trkpt lat="45.31256" lon="6.67742">
        <ele>2010.8</ele>
        <time>2018-07-01T13:14:15Z</time>
      </trkpt>
      <trkpt lat="45.31258" lon="6.67745">
        <ele>2010.7</ele>
        <time>2018-07-01T13:14:17Z</time>
      </trkpt>
      <trkpt lat="45.3126" lon="6.67749">
        <ele>2010.6</ele>
        <time>2018-07-01T13:14:20Z</time>
      </trkpt>
      <trkpt lat="45.31263" lon="6.67752">
        <ele>2010.5</ele>
        <time>2018-07-01T13:14:23Z</time>
      </trkpt>
      <trkpt lat="45.31265" lon="6.67755">
        <ele>2010.3</ele>
        <time>2018-07-01T13:14:25Z</time>
      </trkpt>
      <trkpt lat="45.31267" lon="6.67759">
        <ele>2010.2</ele>
        <time>2018-07-01T13:14:27Z</time>
      </trkpt>
      <trkpt lat="45.31269" lon="6.67762">
        <ele>2010</ele>
        <time>2018-07-01T13:14:29Z</time>
      </trkpt>
      <trkpt lat="45.31272" lon="6.67765">
        <ele>2009.8</ele>
        <time>2018-07-01T13:14:31Z</time>
      </trkpt>
      <trkpt lat="45.31274" lon="6.67769">
        <ele>2009.5</ele>
        <time>2018-07-01T13:14:33Z</time>
      </trkpt>
      <trkpt lat="45.31276" lon="6.67772">
        <ele>2009</ele>
        <time>2018-07-01T13:14:35Z</time>
      </trkpt>
      <trkpt lat="45.31278" lon="6.67777">
        <ele>2008.3</ele>
        <time>2018-07-01T13:14:38Z</time>
      </trkpt>
      <trkpt lat="45.3128" lon="6.6778">
        <ele>2008</ele>
        <time>2018-07-01T13:14:40Z</time>
      </trkpt>
      <trkpt lat="45.31282" lon="6.67784">
        <ele>2008.3</ele>
        <time>2018-07-01T13:14:42Z</time>
      </trkpt>
      <trkpt lat="45.31284" lon="6.67787">
        <ele>2008.5</ele>
        <time>2018-07-01T13:14:44Z</time>
      </trkpt>
      <trkpt lat="45.31286" lon="6.67792">
        <ele>2008.6</ele>
        <time>2018-07-01T13:14:47Z</time>
      </trkpt>
      <trkpt lat="45.31288" lon="6.67796">
        <ele>2008.5</ele>
        <time>2018-07-01T13:14:49Z</time>
      </trkpt>
      <trkpt lat="45.31291" lon="6.67799">
        <ele>2008.5</ele>
        <time>2018-07-01T13:14:51Z</time>
      </trkpt>
      <trkpt lat="45.31293" lon="6.67803">
        <ele>2008.8</ele>
        <time>2018-07-01T13:14:54Z</time>
      </trkpt>
      <trkpt lat="45.31295" lon="6.67806">
        <ele>2009</ele>
        <time>2018-07-01T13:14:56Z</time>
      </trkpt>
      <trkpt lat="45.31297" lon="6.67811">
        <ele>2008.9</ele>
        <time>2018-07-01T13:14:58Z</time>
      </trkpt>
      <trkpt lat="45.31299" lon="6.67813">
        <ele>2008.8</ele>
        <time>2018-07-01T13:15:00Z</time>
      </trkpt>
      <trkpt lat="45.31302" lon="6.67816">
        <ele>2009.4</ele>
        <time>2018-07-01T13:15:02Z</time>
      </trkpt>
      <trkpt lat="45.31303" lon="6.6782">
        <ele>2010.2</ele>
        <time>2018-07-01T13:15:04Z</time>
      </trkpt>
      <trkpt lat="45.31306" lon="6.67822">
        <ele>2010.9</ele>
        <time>2018-07-01T13:15:06Z</time>
      </trkpt>
      <trkpt lat="45.31309" lon="6.67825">
        <ele>2009.7</ele>
        <time>2018-07-01T13:15:09Z</time>
      </trkpt>
      <trkpt lat="45.31311" lon="6.67828">
        <ele>2008.8</ele>
        <time>2018-07-01T13:15:11Z</time>
      </trkpt>
      <trkpt lat="45.31315" lon="6.67832">
        <ele>2007.9</ele>
        <time>2018-07-01T13:15:14Z</time>
      </trkpt>
      <trkpt lat="45.31316" lon="6.67835">
        <ele>2007.5</ele>
        <time>2018-07-01T13:15:16Z</time>
      </trkpt>
      <trkpt lat="45.31318" lon="6.67838">
        <ele>2007</ele>
        <time>2018-07-01T13:15:18Z</time>
      </trkpt>
      <trkpt lat="45.3132" lon="6.67843">
        <ele>2006.5</ele>
        <time>2018-07-01T13:15:21Z</time>
      </trkpt>
      <trkpt lat="45.31322" lon="6.67848">
        <ele>2005.8</ele>
        <time>2018-07-01T13:15:24Z</time>
      </trkpt>
      <trkpt lat="45.31323" lon="6.67851">
        <ele>2005</ele>
        <time>2018-07-01T13:15:26Z</time>
      </trkpt>
      <trkpt lat="45.31324" lon="6.67856">
        <ele>2004</ele>
        <time>2018-07-01T13:15:28Z</time>
      </trkpt>
      <trkpt lat="45.31325" lon="6.6786">
        <ele>2003.4</ele>
        <time>2018-07-01T13:15:30Z</time>
      </trkpt>
      <trkpt lat="45.31325" lon="6.67864">
        <ele>2003</ele>
        <time>2018-07-01T13:15:32Z</time>
      </trkpt>
      <trkpt lat="45.31326" lon="6.67868">
        <ele>2002.6</ele>
        <time>2018-07-01T13:15:34Z</time>
      </trkpt>
      <trkpt lat="45.31326" lon="6.67872">
        <ele>2001.8</ele>
        <time>2018-07-01T13:15:36Z</time>
      </trkpt>
      <trkpt lat="45.31326" lon="6.67878">
        <ele>2000.3</ele>
        <time>2018-07-01T13:15:39Z</time>
      </trkpt>
      <trkpt lat="45.31328" lon="6.67883">
        <ele>1999.5</ele>
        <time>2018-07-01T13:15:42Z</time>
      </trkpt>
      <trkpt lat="45.3133" lon="6.67887">
        <ele>1999.2</ele>
        <time>2018-07-01T13:15:44Z</time>
      </trkpt>
      <trkpt lat="45.31332" lon="6.67892">
        <ele>1998.4</ele>
        <time>2018-07-01T13:15:47Z</time>
      </trkpt>
      <trkpt lat="45.31334" lon="6.67895">
        <ele>1997.5</ele>
        <time>2018-07-01T13:15:49Z</time>
      </trkpt>
      <trkpt lat="45.31336" lon="6.679">
        <ele>1996.7</ele>
        <time>2018-07-01T13:15:52Z</time>
      </trkpt>
      <trkpt lat="45.31337" lon="6.67904">
        <ele>1996.4</ele>
        <time>2018-07-01T13:15:54Z</time>
      </trkpt>
      <trkpt lat="45.31339" lon="6.67909">
        <ele>1995.9</ele>
        <time>2018-07-01T13:15:57Z</time>
      </trkpt>
      <trkpt lat="45.31341" lon="6.67912">
        <ele>1995.6</ele>
        <time>2018-07-01T13:15:59Z</time>
      </trkpt>
      <trkpt lat="45.31343" lon="6.67914">
        <ele>1995.4</ele>
        <time>2018-07-01T13:16:01Z</time>
      </trkpt>
      <trkpt lat="45.31345" lon="6.67918">
        <ele>1995.4</ele>
        <time>2018-07-01T13:16:03Z</time>
      </trkpt>
      <trkpt lat="45.31347" lon="6.67921">
        <ele>1995.4</ele>
        <time>2018-07-01T13:16:05Z</time>
      </trkpt>
      <trkpt lat="45.31349" lon="6.67925">
        <ele>1995.4</ele>
        <time>2018-07-01T13:16:07Z</time>
      </trkpt>
      <trkpt lat="45.31351" lon="6.67928">
        <ele>1995.4</ele>
        <time>2018-07-01T13:16:09Z</time>
      </trkpt>
      <trkpt lat="45.31352" lon="6.67931">
        <ele>1995.8</ele>
        <time>2018-07-01T13:16:11Z</time>
      </trkpt>
      <trkpt lat="45.31354" lon="6.67935">
        <ele>1996.1</ele>
        <time>2018-07-01T13:16:13Z</time>
      </trkpt>
      <trkpt lat="45.31357" lon="6.67939">
        <ele>1996.5</ele>
        <time>2018-07-01T13:16:16Z</time>
      </trkpt>
      <trkpt lat="45.31359" lon="6.67944">
        <ele>1996.7</ele>
        <time>2018-07-01T13:16:18Z</time>
      </trkpt>
      <trkpt lat="45.3136" lon="6.67948">
        <ele>1996.4</ele>
        <time>2018-07-01T13:16:20Z</time>
      </trkpt>
      <trkpt lat="45.31362" lon="6.67952">
        <ele>1996.1</ele>
        <time>2018-07-01T13:16:22Z</time>
      </trkpt>
      <trkpt lat="45.31363" lon="6.67956">
        <ele>1995.9</ele>
        <time>2018-07-01T13:16:24Z</time>
      </trkpt>
      <trkpt lat="45.31365" lon="6.67959">
        <ele>1995.6</ele>
        <time>2018-07-01T13:16:26Z</time>
      </trkpt>
      <trkpt lat="45.31367" lon="6.67962">
        <ele>1995.4</ele>
        <time>2018-07-01T13:16:28Z</time>
      </trkpt>
      <trkpt lat="45.31369" lon="6.67967">
        <ele>1994.6</ele>
        <time>2018-07-01T13:16:31Z</time>
      </trkpt>
      <trkpt lat="45.31371" lon="6.6797">
        <ele>1994</ele>
        <time>2018-07-01T13:16:33Z</time>
      </trkpt>
      <trkpt lat="45.31372" lon="6.67974">
        <ele>1993.7</ele>
        <time>2018-07-01T13:16:35Z</time>
      </trkpt>
      <trkpt lat="45.31373" lon="6.67978">
        <ele>1993.6</ele>
        <time>2018-07-01T13:16:37Z</time>
      </trkpt>
      <trkpt lat="45.31375" lon="6.67982">
        <ele>1993.4</ele>
        <time>2018-07-01T13:16:39Z</time>
      </trkpt>
      <trkpt lat="45.31377" lon="6.67986">
        <ele>1993.5</ele>
        <time>2018-07-01T13:16:42Z</time>
      </trkpt>
      <trkpt lat="45.31379" lon="6.67991">
        <ele>1993.7</ele>
        <time>2018-07-01T13:16:45Z</time>
      </trkpt>
      <trkpt lat="45.3138" lon="6.67995">
        <ele>1993.6</ele>
        <time>2018-07-01T13:16:47Z</time>
      </trkpt>
      <trkpt lat="45.31382" lon="6.67999">
        <ele>1993.6</ele>
        <time>2018-07-01T13:16:51Z</time>
      </trkpt>
      <trkpt lat="45.31385" lon="6.68">
        <ele>1993.5</ele>
        <time>2018-07-01T13:16:53Z</time>
      </trkpt>
      <trkpt lat="45.31387" lon="6.68004">
        <ele>1993.1</ele>
        <time>2018-07-01T13:16:56Z</time>
      </trkpt>
      <trkpt lat="45.31389" lon="6.68007">
        <ele>1992.8</ele>
        <time>2018-07-01T13:16:58Z</time>
      </trkpt>
      <trkpt lat="45.31392" lon="6.68012">
        <ele>1992.5</ele>
        <time>2018-07-01T13:17:01Z</time>
      </trkpt>
      <trkpt lat="45.31394" lon="6.68015">
        <ele>1992.5</ele>
        <time>2018-07-01T13:17:03Z</time>
      </trkpt>
      <trkpt lat="45.31395" lon="6.68019">
        <ele>1992.5</ele>
        <time>2018-07-01T13:17:05Z</time>
      </trkpt>
      <trkpt lat="45.31397" lon="6.68023">
        <ele>1992.4</ele>
        <time>2018-07-01T13:17:07Z</time>
      </trkpt>
      <trkpt lat="45.31398" lon="6.68026">
        <ele>1992.3</ele>
        <time>2018-07-01T13:17:09Z</time>
      </trkpt>
      <trkpt lat="45.314" lon="6.68031">
        <ele>1992.2</ele>
        <time>2018-07-01T13:17:12Z</time>
      </trkpt>
      <trkpt lat="45.31401" lon="6.68035">
        <ele>1992.1</ele>
        <time>2018-07-01T13:17:14Z</time>
      </trkpt>
      <trkpt lat="45.31402" lon="6.68039">
        <ele>1992</ele>
        <time>2018-07-01T13:17:16Z</time>
      </trkpt>
      <trkpt lat="45.31403" lon="6.68044">
        <ele>1991.7</ele>
        <time>2018-07-01T13:17:19Z</time>
      </trkpt>
      <trkpt lat="45.31405" lon="6.68049">
        <ele>1991.1</ele>
        <time>2018-07-01T13:17:22Z</time>
      </trkpt>
      <trkpt lat="45.31407" lon="6.68053">
        <ele>1990.3</ele>
        <time>2018-07-01T13:17:25Z</time>
      </trkpt>
      <trkpt lat="45.31409" lon="6.68058">
        <ele>1989.3</ele>
        <time>2018-07-01T13:17:28Z</time>
      </trkpt>
      <trkpt lat="45.31411" lon="6.68063">
        <ele>1988.4</ele>
        <time>2018-07-01T13:17:31Z</time>
      </trkpt>
      <trkpt lat="45.31413" lon="6.68068">
        <ele>1987.9</ele>
        <time>2018-07-01T13:17:34Z</time>
      </trkpt>
      <trkpt lat="45.31416" lon="6.68071">
        <ele>1987.5</ele>
        <time>2018-07-01T13:17:36Z</time>
      </trkpt>
      <trkpt lat="45.31418" lon="6.68074">
        <ele>1987.2</ele>
        <time>2018-07-01T13:17:38Z</time>
      </trkpt>
      <trkpt lat="45.3142" lon="6.68078">
        <ele>1986.8</ele>
        <time>2018-07-01T13:17:41Z</time>
      </trkpt>
      <trkpt lat="45.31422" lon="6.68081">
        <ele>1986.3</ele>
        <time>2018-07-01T13:17:43Z</time>
      </trkpt>
      <trkpt lat="45.31425" lon="6.68085">
        <ele>1985.4</ele>
        <time>2018-07-01T13:17:46Z</time>
      </trkpt>
      <trkpt lat="45.31427" lon="6.68089">
        <ele>1984.9</ele>
        <time>2018-07-01T13:17:48Z</time>
      </trkpt>
      <trkpt lat="45.31428" lon="6.68093">
        <ele>1984.7</ele>
        <time>2018-07-01T13:17:50Z</time>
      </trkpt>
      <trkpt lat="45.31429" lon="6.68097">
        <ele>1984.5</ele>
        <time>2018-07-01T13:17:52Z</time>
      </trkpt>
      <trkpt lat="45.31431" lon="6.68102">
        <ele>1983.9</ele>
        <time>2018-07-01T13:17:54Z</time>
      </trkpt>
      <trkpt lat="45.31432" lon="6.68106">
        <ele>1983.3</ele>
        <time>2018-07-01T13:17:56Z</time>
      </trkpt>
      <trkpt lat="45.31433" lon="6.6811">
        <ele>1982.8</ele>
        <time>2018-07-01T13:17:59Z</time>
      </trkpt>
      <trkpt lat="45.31434" lon="6.68115">
        <ele>1982.5</ele>
        <time>2018-07-01T13:18:01Z</time>
      </trkpt>
      <trkpt lat="45.31435" lon="6.68118">
        <ele>1982.2</ele>
        <time>2018-07-01T13:18:03Z</time>
      </trkpt>
      <trkpt lat="45.31436" lon="6.68123">
        <ele>1982.1</ele>
        <time>2018-07-01T13:18:06Z</time>
      </trkpt>
      <trkpt lat="45.31438" lon="6.68127">
        <ele>1981.8</ele>
        <time>2018-07-01T13:18:09Z</time>
      </trkpt>
      <trkpt lat="45.3144" lon="6.68132">
        <ele>1981.1</ele>
        <time>2018-07-01T13:18:12Z</time>
      </trkpt>
      <trkpt lat="45.31442" lon="6.68136">
        <ele>1981</ele>
        <time>2018-07-01T13:18:15Z</time>
      </trkpt>
      <trkpt lat="45.31444" lon="6.6814">
        <ele>1981</ele>
        <time>2018-07-01T13:18:17Z</time>
      </trkpt>
      <trkpt lat="45.31446" lon="6.68143">
        <ele>1981</ele>
        <time>2018-07-01T13:18:19Z</time>
      </trkpt>
      <trkpt lat="45.31448" lon="6.68146">
        <ele>1981</ele>
        <time>2018-07-01T13:18:21Z</time>
      </trkpt>
      <trkpt lat="45.3145" lon="6.68149">
        <ele>1981</ele>
        <time>2018-07-01T13:18:23Z</time>
      </trkpt>
      <trkpt lat="45.31453" lon="6.68152">
        <ele>1980.5</ele>
        <time>2018-07-01T13:18:25Z</time>
      </trkpt>
      <trkpt lat="45.31454" lon="6.68155">
        <ele>1980</ele>
        <time>2018-07-01T13:18:27Z</time>
      </trkpt>
      <trkpt lat="45.31457" lon="6.68158">
        <ele>1979.6</ele>
        <time>2018-07-01T13:18:29Z</time>
      </trkpt>
      <trkpt lat="45.31459" lon="6.68161">
        <ele>1979.2</ele>
        <time>2018-07-01T13:18:31Z</time>
      </trkpt>
      <trkpt lat="45.31461" lon="6.68164">
        <ele>1978.8</ele>
        <time>2018-07-01T13:18:33Z</time>
      </trkpt>
      <trkpt lat="45.31463" lon="6.68167">
        <ele>1978.4</ele>
        <time>2018-07-01T13:18:35Z</time>
      </trkpt>
      <trkpt lat="45.31466" lon="6.6817">
        <ele>1978</ele>
        <time>2018-07-01T13:18:37Z</time>
      </trkpt>
      <trkpt lat="45.31469" lon="6.68173">
        <ele>1977.9</ele>
        <time>2018-07-01T13:18:40Z</time>
      </trkpt>
      <trkpt lat="45.31472" lon="6.68177">
        <ele>1977.8</ele>
        <time>2018-07-01T13:18:43Z</time>
      </trkpt>
      <trkpt lat="45.31474" lon="6.6818">
        <ele>1977.7</ele>
        <time>2018-07-01T13:18:45Z</time>
      </trkpt>
      <trkpt lat="45.31476" lon="6.68182">
        <ele>1977.5</ele>
        <time>2018-07-01T13:18:47Z</time>
      </trkpt>
      <trkpt lat="45.31479" lon="6.68185">
        <ele>1977.3</ele>
        <time>2018-07-01T13:18:49Z</time>
      </trkpt>
      <trkpt lat="45.31482" lon="6.68187">
        <ele>1977.1</ele>
        <time>2018-07-01T13:18:52Z</time>
      </trkpt>
      <trkpt lat="45.31485" lon="6.6819">
        <ele>1976.9</ele>
        <time>2018-07-01T13:18:54Z</time>
      </trkpt>
      <trkpt lat="45.31487" lon="6.68194">
        <ele>1976.7</ele>
        <time>2018-07-01T13:18:57Z</time>
      </trkpt>
      <trkpt lat="45.31488" lon="6.68197">
        <ele>1976.3</ele>
        <time>2018-07-01T13:18:59Z</time>
      </trkpt>
      <trkpt lat="45.31491" lon="6.68201">
        <ele>1975.8</ele>
        <time>2018-07-01T13:19:01Z</time>
      </trkpt>
      <trkpt lat="45.31493" lon="6.68204">
        <ele>1975.5</ele>
        <time>2018-07-01T13:19:03Z</time>
      </trkpt>
      <trkpt lat="45.31496" lon="6.68208">
        <ele>1975.5</ele>
        <time>2018-07-01T13:19:05Z</time>
      </trkpt>
      <trkpt lat="45.31498" lon="6.6821">
        <ele>1975.5</ele>
        <time>2018-07-01T13:19:07Z</time>
      </trkpt>
      <trkpt lat="45.31501" lon="6.68214">
        <ele>1975.4</ele>
        <time>2018-07-01T13:19:10Z</time>
      </trkpt>
      <trkpt lat="45.31504" lon="6.68216">
        <ele>1975.3</ele>
        <time>2018-07-01T13:19:12Z</time>
      </trkpt>
      <trkpt lat="45.31507" lon="6.6822">
        <ele>1974.9</ele>
        <time>2018-07-01T13:19:15Z</time>
      </trkpt>
      <trkpt lat="45.31509" lon="6.68223">
        <ele>1974.6</ele>
        <time>2018-07-01T13:19:17Z</time>
      </trkpt>
      <trkpt lat="45.31512" lon="6.68225">
        <ele>1974.2</ele>
        <time>2018-07-01T13:19:19Z</time>
      </trkpt>
      <trkpt lat="45.31514" lon="6.68228">
        <ele>1973.7</ele>
        <time>2018-07-01T13:19:21Z</time>
      </trkpt>
      <trkpt lat="45.31517" lon="6.6823">
        <ele>1973.3</ele>
        <time>2018-07-01T13:19:23Z</time>
      </trkpt>
      <trkpt lat="45.31519" lon="6.68233">
        <ele>1973</ele>
        <time>2018-07-01T13:19:25Z</time>
      </trkpt>
      <trkpt lat="45.31522" lon="6.68235">
        <ele>1972.6</ele>
        <time>2018-07-01T13:19:27Z</time>
      </trkpt>
      <trkpt lat="45.31525" lon="6.68238">
        <ele>1972.2</ele>
        <time>2018-07-01T13:19:30Z</time>
      </trkpt>
      <trkpt lat="45.31528" lon="6.6824">
        <ele>1972.2</ele>
        <time>2018-07-01T13:19:32Z</time>
      </trkpt>
      <trkpt lat="45.3153" lon="6.68243">
        <ele>1972.2</ele>
        <time>2018-07-01T13:19:34Z</time>
      </trkpt>
      <trkpt lat="45.31532" lon="6.68246">
        <ele>1971.9</ele>
        <time>2018-07-01T13:19:36Z</time>
      </trkpt>
      <trkpt lat="45.31534" lon="6.68249">
        <ele>1971.6</ele>
        <time>2018-07-01T13:19:38Z</time>
      </trkpt>
      <trkpt lat="45.31537" lon="6.68252">
        <ele>1971.4</ele>
        <time>2018-07-01T13:19:40Z</time>
      </trkpt>
      <trkpt lat="45.31539" lon="6.68256">
        <ele>1971.1</ele>
        <time>2018-07-01T13:19:43Z</time>
      </trkpt>
      <trkpt lat="45.31541" lon="6.6826">
        <ele>1970.8</ele>
        <time>2018-07-01T13:19:45Z</time>
      </trkpt>
      <trkpt lat="45.31543" lon="6.68263">
        <ele>1970.6</ele>
        <time>2018-07-01T13:19:47Z</time>
      </trkpt>
      <trkpt lat="45.31546" lon="6.68266">
        <ele>1970.4</ele>
        <time>2018-07-01T13:19:49Z</time>
      </trkpt>
      <trkpt lat="45.31549" lon="6.68268">
        <ele>1970.2</ele>
        <time>2018-07-01T13:19:51Z</time>
      </trkpt>
      <trkpt lat="45.31551" lon="6.68271">
        <ele>1970.1</ele>
        <time>2018-07-01T13:19:53Z</time>
      </trkpt>
      <trkpt lat="45.31555" lon="6.68272">
        <ele>1970.1</ele>
        <time>2018-07-01T13:20:07Z</time>
      </trkpt>
      <trkpt lat="45.31558" lon="6.68274">
        <ele>1970</ele>
        <time>2018-07-01T13:20:10Z</time>
      </trkpt>
      <trkpt lat="45.31561" lon="6.68276">
        <ele>1970.1</ele>
        <time>2018-07-01T13:20:12Z</time>
      </trkpt>
      <trkpt lat="45.31563" lon="6.68279">
        <ele>1970.5</ele>
        <time>2018-07-01T13:20:14Z</time>
      </trkpt>
      <trkpt lat="45.31566" lon="6.68282">
        <ele>1970.7</ele>
        <time>2018-07-01T13:20:16Z</time>
      </trkpt>
      <trkpt lat="45.31568" lon="6.68283">
        <ele>1970.9</ele>
        <time>2018-07-01T13:20:18Z</time>
      </trkpt>
      <trkpt lat="45.31571" lon="6.68283">
        <ele>1971.2</ele>
        <time>2018-07-01T13:20:20Z</time>
      </trkpt>
      <trkpt lat="45.31575" lon="6.68284">
        <ele>1971.4</ele>
        <time>2018-07-01T13:20:22Z</time>
      </trkpt>
      <trkpt lat="45.31578" lon="6.68286">
        <ele>1971.7</ele>
        <time>2018-07-01T13:20:24Z</time>
      </trkpt>
      <trkpt lat="45.31581" lon="6.68286">
        <ele>1971.9</ele>
        <time>2018-07-01T13:20:26Z</time>
      </trkpt>
      <trkpt lat="45.31586" lon="6.68287">
        <ele>1971.9</ele>
        <time>2018-07-01T13:20:29Z</time>
      </trkpt>
      <trkpt lat="45.31589" lon="6.68286">
        <ele>1971.8</ele>
        <time>2018-07-01T13:20:32Z</time>
      </trkpt>
      <trkpt lat="45.31594" lon="6.68287">
        <ele>1971.7</ele>
        <time>2018-07-01T13:20:35Z</time>
      </trkpt>
      <trkpt lat="45.31596" lon="6.68287">
        <ele>1971.6</ele>
        <time>2018-07-01T13:20:37Z</time>
      </trkpt>
      <trkpt lat="45.316" lon="6.68289">
        <ele>1971.5</ele>
        <time>2018-07-01T13:20:39Z</time>
      </trkpt>
      <trkpt lat="45.31603" lon="6.6829">
        <ele>1971.6</ele>
        <time>2018-07-01T13:20:41Z</time>
      </trkpt>
      <trkpt lat="45.31607" lon="6.68291">
        <ele>1971.7</ele>
        <time>2018-07-01T13:20:44Z</time>
      </trkpt>
      <trkpt lat="45.3161" lon="6.68293">
        <ele>1972</ele>
        <time>2018-07-01T13:20:47Z</time>
      </trkpt>
      <trkpt lat="45.31613" lon="6.68295">
        <ele>1972.2</ele>
        <time>2018-07-01T13:20:49Z</time>
      </trkpt>
      <trkpt lat="45.31616" lon="6.68298">
        <ele>1972.5</ele>
        <time>2018-07-01T13:20:52Z</time>
      </trkpt>
      <trkpt lat="45.31619" lon="6.683">
        <ele>1972.6</ele>
        <time>2018-07-01T13:20:54Z</time>
      </trkpt>
      <trkpt lat="45.31622" lon="6.68301">
        <ele>1972.6</ele>
        <time>2018-07-01T13:20:56Z</time>
      </trkpt>
      <trkpt lat="45.31625" lon="6.68303">
        <ele>1972.7</ele>
        <time>2018-07-01T13:20:58Z</time>
      </trkpt>
      <trkpt lat="45.31629" lon="6.68304">
        <ele>1972.8</ele>
        <time>2018-07-01T13:21:00Z</time>
      </trkpt>
      <trkpt lat="45.31632" lon="6.68305">
        <ele>1972.9</ele>
        <time>2018-07-01T13:21:02Z</time>
      </trkpt>
      <trkpt lat="45.31635" lon="6.68306">
        <ele>1973</ele>
        <time>2018-07-01T13:21:04Z</time>
      </trkpt>
      <trkpt lat="45.31637" lon="6.68307">
        <ele>1973</ele>
        <time>2018-07-01T13:21:06Z</time>
      </trkpt>
      <trkpt lat="45.3164" lon="6.68309">
        <ele>1973.1</ele>
        <time>2018-07-01T13:21:08Z</time>
      </trkpt>
      <trkpt lat="45.31643" lon="6.68311">
        <ele>1973.2</ele>
        <time>2018-07-01T13:21:10Z</time>
      </trkpt>
      <trkpt lat="45.31646" lon="6.68313">
        <ele>1973.3</ele>
        <time>2018-07-01T13:21:12Z</time>
      </trkpt>
      <trkpt lat="45.31649" lon="6.68315">
        <ele>1973.4</ele>
        <time>2018-07-01T13:21:14Z</time>
      </trkpt>
      <trkpt lat="45.31652" lon="6.68318">
        <ele>1973.4</ele>
        <time>2018-07-01T13:21:16Z</time>
      </trkpt>
      <trkpt lat="45.31655" lon="6.6832">
        <ele>1973.3</ele>
        <time>2018-07-01T13:21:18Z</time>
      </trkpt>
      <trkpt lat="45.31658" lon="6.68321">
        <ele>1973.1</ele>
        <time>2018-07-01T13:21:20Z</time>
      </trkpt>
      <trkpt lat="45.31661" lon="6.68324">
        <ele>1973.1</ele>
        <time>2018-07-01T13:21:22Z</time>
      </trkpt>
      <trkpt lat="45.31663" lon="6.68326">
        <ele>1973.1</ele>
        <time>2018-07-01T13:21:24Z</time>
      </trkpt>
      <trkpt lat="45.31665" lon="6.68328">
        <ele>1973.2</ele>
        <time>2018-07-01T13:21:26Z</time>
      </trkpt>
      <trkpt lat="45.31668" lon="6.68329">
        <ele>1973</ele>
        <time>2018-07-01T13:21:28Z</time>
      </trkpt>
      <trkpt lat="45.31671" lon="6.6833">
        <ele>1972.9</ele>
        <time>2018-07-01T13:21:30Z</time>
      </trkpt>
      <trkpt lat="45.31674" lon="6.68332">
        <ele>1972.7</ele>
        <time>2018-07-01T13:21:32Z</time>
      </trkpt>
      <trkpt lat="45.31676" lon="6.68334">
        <ele>1972.9</ele>
        <time>2018-07-01T13:21:34Z</time>
      </trkpt>
      <trkpt lat="45.31679" lon="6.68336">
        <ele>1973.1</ele>
        <time>2018-07-01T13:21:36Z</time>
      </trkpt>
      <trkpt lat="45.31682" lon="6.68339">
        <ele>1973.1</ele>
        <time>2018-07-01T13:21:39Z</time>
      </trkpt>
      <trkpt lat="45.31685" lon="6.68342">
        <ele>1973</ele>
        <time>2018-07-01T13:21:41Z</time>
      </trkpt>
      <trkpt lat="45.31687" lon="6.68345">
        <ele>1972.8</ele>
        <time>2018-07-01T13:21:43Z</time>
      </trkpt>
      <trkpt lat="45.31689" lon="6.68348">
        <ele>1972.7</ele>
        <time>2018-07-01T13:21:45Z</time>
      </trkpt>
      <trkpt lat="45.31693" lon="6.68351">
        <ele>1972.5</ele>
        <time>2018-07-01T13:21:48Z</time>
      </trkpt>
      <trkpt lat="45.31696" lon="6.68353">
        <ele>1972.3</ele>
        <time>2018-07-01T13:21:50Z</time>
      </trkpt>
      <trkpt lat="45.31698" lon="6.68355">
        <ele>1972.1</ele>
        <time>2018-07-01T13:21:52Z</time>
      </trkpt>
      <trkpt lat="45.31701" lon="6.68357">
        <ele>1971.8</ele>
        <time>2018-07-01T13:21:54Z</time>
      </trkpt>
      <trkpt lat="45.31704" lon="6.68362">
        <ele>1971.8</ele>
        <time>2018-07-01T13:21:57Z</time>
      </trkpt>
      <trkpt lat="45.31706" lon="6.68364">
        <ele>1971.8</ele>
        <time>2018-07-01T13:21:59Z</time>
      </trkpt>
      <trkpt lat="45.31708" lon="6.68367">
        <ele>1971.7</ele>
        <time>2018-07-01T13:22:01Z</time>
      </trkpt>
      <trkpt lat="45.31711" lon="6.68369">
        <ele>1971.7</ele>
        <time>2018-07-01T13:22:03Z</time>
      </trkpt>
      <trkpt lat="45.31713" lon="6.68372">
        <ele>1971.7</ele>
        <time>2018-07-01T13:22:05Z</time>
      </trkpt>
      <trkpt lat="45.31715" lon="6.68375">
        <ele>1971.7</ele>
        <time>2018-07-01T13:22:07Z</time>
      </trkpt>
      <trkpt lat="45.31718" lon="6.68377">
        <ele>1971.7</ele>
        <time>2018-07-01T13:22:09Z</time>
      </trkpt>
      <trkpt lat="45.31721" lon="6.68381">
        <ele>1971.7</ele>
        <time>2018-07-01T13:22:11Z</time>
      </trkpt>
      <trkpt lat="45.31723" lon="6.68384">
        <ele>1971.4</ele>
        <time>2018-07-01T13:22:13Z</time>
      </trkpt>
      <trkpt lat="45.31725" lon="6.68387">
        <ele>1971</ele>
        <time>2018-07-01T13:22:15Z</time>
      </trkpt>
      <trkpt lat="45.31727" lon="6.6839">
        <ele>1970.7</ele>
        <time>2018-07-01T13:22:17Z</time>
      </trkpt>
      <trkpt lat="45.31729" lon="6.68394">
        <ele>1970.7</ele>
        <time>2018-07-01T13:22:19Z</time>
      </trkpt>
      <trkpt lat="45.31731" lon="6.68398">
        <ele>1970.7</ele>
        <time>2018-07-01T13:22:22Z</time>
      </trkpt>
      <trkpt lat="45.31734" lon="6.68402">
        <ele>1970.6</ele>
        <time>2018-07-01T13:22:24Z</time>
      </trkpt>
      <trkpt lat="45.31737" lon="6.68404">
        <ele>1970.4</ele>
        <time>2018-07-01T13:22:26Z</time>
      </trkpt>
      <trkpt lat="45.3174" lon="6.68407">
        <ele>1970.2</ele>
        <time>2018-07-01T13:22:28Z</time>
      </trkpt>
      <trkpt lat="45.31743" lon="6.68409">
        <ele>1969.7</ele>
        <time>2018-07-01T13:22:30Z</time>
      </trkpt>
      <trkpt lat="45.31746" lon="6.68412">
        <ele>1969.1</ele>
        <time>2018-07-01T13:22:32Z</time>
      </trkpt>
      <trkpt lat="45.31748" lon="6.68414">
        <ele>1969.2</ele>
        <time>2018-07-01T13:22:34Z</time>
      </trkpt>
      <trkpt lat="45.31751" lon="6.68415">
        <ele>1969.3</ele>
        <time>2018-07-01T13:22:36Z</time>
      </trkpt>
      <trkpt lat="45.31753" lon="6.68417">
        <ele>1969.2</ele>
        <time>2018-07-01T13:22:38Z</time>
      </trkpt>
      <trkpt lat="45.31756" lon="6.68418">
        <ele>1968.7</ele>
        <time>2018-07-01T13:22:40Z</time>
      </trkpt>
      <trkpt lat="45.31758" lon="6.6842">
        <ele>1968.3</ele>
        <time>2018-07-01T13:22:42Z</time>
      </trkpt>
      <trkpt lat="45.31762" lon="6.68423">
        <ele>1968</ele>
        <time>2018-07-01T13:22:45Z</time>
      </trkpt>
      <trkpt lat="45.31764" lon="6.68425">
        <ele>1967.9</ele>
        <time>2018-07-01T13:22:47Z</time>
      </trkpt>
      <trkpt lat="45.31767" lon="6.68428">
        <ele>1967.8</ele>
        <time>2018-07-01T13:22:49Z</time>
      </trkpt>
      <trkpt lat="45.31769" lon="6.6843">
        <ele>1967.4</ele>
        <time>2018-07-01T13:22:51Z</time>
      </trkpt>
      <trkpt lat="45.31772" lon="6.68433">
        <ele>1967.1</ele>
        <time>2018-07-01T13:22:53Z</time>
      </trkpt>
      <trkpt lat="45.31774" lon="6.68436">
        <ele>1967</ele>
        <time>2018-07-01T13:22:55Z</time>
      </trkpt>
      <trkpt lat="45.31776" lon="6.68438">
        <ele>1966.9</ele>
        <time>2018-07-01T13:22:57Z</time>
      </trkpt>
      <trkpt lat="45.31779" lon="6.68441">
        <ele>1966.8</ele>
        <time>2018-07-01T13:22:59Z</time>
      </trkpt>
      <trkpt lat="45.31781" lon="6.68445">
        <ele>1966.2</ele>
        <time>2018-07-01T13:23:02Z</time>
      </trkpt>
      <trkpt lat="45.31784" lon="6.68448">
        <ele>1965.6</ele>
        <time>2018-07-01T13:23:05Z</time>
      </trkpt>
      <trkpt lat="45.31786" lon="6.68451">
        <ele>1965.2</ele>
        <time>2018-07-01T13:23:07Z</time>
      </trkpt>
      <trkpt lat="45.31788" lon="6.68454">
        <ele>1964.7</ele>
        <time>2018-07-01T13:23:09Z</time>
      </trkpt>
      <trkpt lat="45.31791" lon="6.68456">
        <ele>1964.6</ele>
        <time>2018-07-01T13:23:11Z</time>
      </trkpt>
      <trkpt lat="45.31793" lon="6.68458">
        <ele>1964.5</ele>
        <time>2018-07-01T13:23:13Z</time>
      </trkpt>
      <trkpt lat="45.31796" lon="6.68461">
        <ele>1964.3</ele>
        <time>2018-07-01T13:23:15Z</time>
      </trkpt>
      <trkpt lat="45.31799" lon="6.68464">
        <ele>1963.9</ele>
        <time>2018-07-01T13:23:17Z</time>
      </trkpt>
      <trkpt lat="45.31802" lon="6.68467">
        <ele>1963.6</ele>
        <time>2018-07-01T13:23:19Z</time>
      </trkpt>
      <trkpt lat="45.31805" lon="6.68471">
        <ele>1963.6</ele>
        <time>2018-07-01T13:23:22Z</time>
      </trkpt>
      <trkpt lat="45.31808" lon="6.68474">
        <ele>1963.5</ele>
        <time>2018-07-01T13:23:24Z</time>
      </trkpt>
      <trkpt lat="45.3181" lon="6.68476">
        <ele>1963.3</ele>
        <time>2018-07-01T13:23:26Z</time>
      </trkpt>
      <trkpt lat="45.31812" lon="6.68479">
        <ele>1963.1</ele>
        <time>2018-07-01T13:23:28Z</time>
      </trkpt>
      <trkpt lat="45.31814" lon="6.68482">
        <ele>1963.1</ele>
        <time>2018-07-01T13:23:30Z</time>
      </trkpt>
      <trkpt lat="45.31816" lon="6.68485">
        <ele>1963.1</ele>
        <time>2018-07-01T13:23:32Z</time>
      </trkpt>
      <trkpt lat="45.31818" lon="6.68488">
        <ele>1963.2</ele>
        <time>2018-07-01T13:23:34Z</time>
      </trkpt>
      <trkpt lat="45.3182" lon="6.6849">
        <ele>1963</ele>
        <time>2018-07-01T13:23:36Z</time>
      </trkpt>
      <trkpt lat="45.31823" lon="6.68494">
        <ele>1962.8</ele>
        <time>2018-07-01T13:23:38Z</time>
      </trkpt>
      <trkpt lat="45.31825" lon="6.68498">
        <ele>1962.8</ele>
        <time>2018-07-01T13:23:40Z</time>
      </trkpt>
      <trkpt lat="45.31828" lon="6.68501">
        <ele>1962.8</ele>
        <time>2018-07-01T13:23:42Z</time>
      </trkpt>
      <trkpt lat="45.3183" lon="6.68504">
        <ele>1962.8</ele>
        <time>2018-07-01T13:23:44Z</time>
      </trkpt>
      <trkpt lat="45.31832" lon="6.68507">
        <ele>1962.6</ele>
        <time>2018-07-01T13:23:46Z</time>
      </trkpt>
      <trkpt lat="45.31835" lon="6.68509">
        <ele>1962.4</ele>
        <time>2018-07-01T13:23:48Z</time>
      </trkpt>
      <trkpt lat="45.31837" lon="6.68512">
        <ele>1962.4</ele>
        <time>2018-07-01T13:23:50Z</time>
      </trkpt>
      <trkpt lat="45.3184" lon="6.68515">
        <ele>1962.4</ele>
        <time>2018-07-01T13:23:52Z</time>
      </trkpt>
      <trkpt lat="45.31842" lon="6.68517">
        <ele>1962.2</ele>
        <time>2018-07-01T13:23:54Z</time>
      </trkpt>
      <trkpt lat="45.31845" lon="6.6852">
        <ele>1961.9</ele>
        <time>2018-07-01T13:23:56Z</time>
      </trkpt>
      <trkpt lat="45.31848" lon="6.68523">
        <ele>1961.7</ele>
        <time>2018-07-01T13:23:58Z</time>
      </trkpt>
      <trkpt lat="45.3185" lon="6.68526">
        <ele>1961.6</ele>
        <time>2018-07-01T13:24:00Z</time>
      </trkpt>
      <trkpt lat="45.31853" lon="6.68528">
        <ele>1961.5</ele>
        <time>2018-07-01T13:24:02Z</time>
      </trkpt>
      <trkpt lat="45.31855" lon="6.6853">
        <ele>1961.3</ele>
        <time>2018-07-01T13:24:04Z</time>
      </trkpt>
      <trkpt lat="45.31858" lon="6.68533">
        <ele>1961.1</ele>
        <time>2018-07-01T13:24:07Z</time>
      </trkpt>
      <trkpt lat="45.31861" lon="6.68535">
        <ele>1961.2</ele>
        <time>2018-07-01T13:24:09Z</time>
      </trkpt>
      <trkpt lat="45.31864" lon="6.68538">
        <ele>1961.4</ele>
        <time>2018-07-01T13:24:12Z</time>
      </trkpt>
      <trkpt lat="45.31867" lon="6.68541">
        <ele>1961.1</ele>
        <time>2018-07-01T13:24:14Z</time>
      </trkpt>
      <trkpt lat="45.3187" lon="6.68543">
        <ele>1960.8</ele>
        <time>2018-07-01T13:24:16Z</time>
      </trkpt>
      <trkpt lat="45.31872" lon="6.68546">
        <ele>1960.7</ele>
        <time>2018-07-01T13:24:18Z</time>
      </trkpt>
      <trkpt lat="45.31874" lon="6.68549">
        <ele>1960.7</ele>
        <time>2018-07-01T13:24:20Z</time>
      </trkpt>
      <trkpt lat="45.31876" lon="6.68553">
        <ele>1960.2</ele>
        <time>2018-07-01T13:24:23Z</time>
      </trkpt>
      <trkpt lat="45.31878" lon="6.68558">
        <ele>1959.6</ele>
        <time>2018-07-01T13:24:26Z</time>
      </trkpt>
      <trkpt lat="45.3188" lon="6.68562">
        <ele>1959</ele>
        <time>2018-07-01T13:24:28Z</time>
      </trkpt>
      <trkpt lat="45.31881" lon="6.68565">
        <ele>1958.5</ele>
        <time>2018-07-01T13:24:30Z</time>
      </trkpt>
      <trkpt lat="45.31884" lon="6.68568">
        <ele>1958.2</ele>
        <time>2018-07-01T13:24:32Z</time>
      </trkpt>
      <trkpt lat="45.31886" lon="6.68571">
        <ele>1958.1</ele>
        <time>2018-07-01T13:24:34Z</time>
      </trkpt>
      <trkpt lat="45.31889" lon="6.68573">
        <ele>1958.1</ele>
        <time>2018-07-01T13:24:36Z</time>
      </trkpt>
      <trkpt lat="45.31892" lon="6.68575">
        <ele>1958.4</ele>
        <time>2018-07-01T13:24:38Z</time>
      </trkpt>
      <trkpt lat="45.31895" lon="6.68577">
        <ele>1958.5</ele>
        <time>2018-07-01T13:24:41Z</time>
      </trkpt>
      <trkpt lat="45.31898" lon="6.68578">
        <ele>1958.4</ele>
        <time>2018-07-01T13:24:43Z</time>
      </trkpt>
      <trkpt lat="45.31901" lon="6.68581">
        <ele>1958.2</ele>
        <time>2018-07-01T13:24:45Z</time>
      </trkpt>
      <trkpt lat="45.31903" lon="6.68582">
        <ele>1957.8</ele>
        <time>2018-07-01T13:24:47Z</time>
      </trkpt>
      <trkpt lat="45.31906" lon="6.68585">
        <ele>1957.1</ele>
        <time>2018-07-01T13:24:50Z</time>
      </trkpt>
      <trkpt lat="45.31909" lon="6.68588">
        <ele>1956.5</ele>
        <time>2018-07-01T13:24:53Z</time>
      </trkpt>
      <trkpt lat="45.31911" lon="6.68592">
        <ele>1955.8</ele>
        <time>2018-07-01T13:24:55Z</time>
      </trkpt>
      <trkpt lat="45.31913" lon="6.68595">
        <ele>1955.5</ele>
        <time>2018-07-01T13:24:57Z</time>
      </trkpt>
      <trkpt lat="45.31915" lon="6.68598">
        <ele>1955.1</ele>
        <time>2018-07-01T13:25:00Z</time>
      </trkpt>
      <trkpt lat="45.31917" lon="6.68602">
        <ele>1954.6</ele>
        <time>2018-07-01T13:25:02Z</time>
      </trkpt>
      <trkpt lat="45.31919" lon="6.68606">
        <ele>1953.8</ele>
        <time>2018-07-01T13:25:04Z</time>
      </trkpt>
      <trkpt lat="45.31922" lon="6.68608">
        <ele>1953.2</ele>
        <time>2018-07-01T13:25:06Z</time>
      </trkpt>
      <trkpt lat="45.31924" lon="6.68611">
        <ele>1952.5</ele>
        <time>2018-07-01T13:25:08Z</time>
      </trkpt>
      <trkpt lat="45.31926" lon="6.68614">
        <ele>1952.2</ele>
        <time>2018-07-01T13:25:11Z</time>
      </trkpt>
      <trkpt lat="45.31928" lon="6.68617">
        <ele>1952.1</ele>
        <time>2018-07-01T13:25:13Z</time>
      </trkpt>
      <trkpt lat="45.3193" lon="6.6862">
        <ele>1952.1</ele>
        <time>2018-07-01T13:25:15Z</time>
      </trkpt>
      <trkpt lat="45.31932" lon="6.68622">
        <ele>1952</ele>
        <time>2018-07-01T13:25:17Z</time>
      </trkpt>
      <trkpt lat="45.31936" lon="6.68625">
        <ele>1951.9</ele>
        <time>2018-07-01T13:25:20Z</time>
      </trkpt>
      <trkpt lat="45.31938" lon="6.68628">
        <ele>1951.8</ele>
        <time>2018-07-01T13:25:22Z</time>
      </trkpt>
      <trkpt lat="45.31941" lon="6.6863">
        <ele>1951.9</ele>
        <time>2018-07-01T13:25:24Z</time>
      </trkpt>
      <trkpt lat="45.31944" lon="6.68631">
        <ele>1952</ele>
        <time>2018-07-01T13:25:26Z</time>
      </trkpt>
      <trkpt lat="45.31948" lon="6.68632">
        <ele>1952</ele>
        <time>2018-07-01T13:25:28Z</time>
      </trkpt>
      <trkpt lat="45.31951" lon="6.68634">
        <ele>1952</ele>
        <time>2018-07-01T13:25:30Z</time>
      </trkpt>
      <trkpt lat="45.31953" lon="6.68636">
        <ele>1951.7</ele>
        <time>2018-07-01T13:25:32Z</time>
      </trkpt>
      <trkpt lat="45.31957" lon="6.68639">
        <ele>1951.1</ele>
        <time>2018-07-01T13:25:35Z</time>
      </trkpt>
      <trkpt lat="45.3196" lon="6.68642">
        <ele>1950</ele>
        <time>2018-07-01T13:25:38Z</time>
      </trkpt>
      <trkpt lat="45.31962" lon="6.68645">
        <ele>1949.7</ele>
        <time>2018-07-01T13:25:40Z</time>
      </trkpt>
      <trkpt lat="45.31964" lon="6.68649">
        <ele>1949.5</ele>
        <time>2018-07-01T13:25:42Z</time>
      </trkpt>
      <trkpt lat="45.31967" lon="6.68652">
        <ele>1949.2</ele>
        <time>2018-07-01T13:25:45Z</time>
      </trkpt>
      <trkpt lat="45.3197" lon="6.68655">
        <ele>1948.9</ele>
        <time>2018-07-01T13:25:48Z</time>
      </trkpt>
      <trkpt lat="45.31972" lon="6.68658">
        <ele>1949</ele>
        <time>2018-07-01T13:25:50Z</time>
      </trkpt>
      <trkpt lat="45.31974" lon="6.68661">
        <ele>1949.1</ele>
        <time>2018-07-01T13:25:52Z</time>
      </trkpt>
      <trkpt lat="45.31976" lon="6.68664">
        <ele>1949.1</ele>
        <time>2018-07-01T13:25:54Z</time>
      </trkpt>
      <trkpt lat="45.31978" lon="6.68667">
        <ele>1949.1</ele>
        <time>2018-07-01T13:25:56Z</time>
      </trkpt>
      <trkpt lat="45.3198" lon="6.68672">
        <ele>1949</ele>
        <time>2018-07-01T13:25:59Z</time>
      </trkpt>
      <trkpt lat="45.31983" lon="6.68675">
        <ele>1949</ele>
        <time>2018-07-01T13:26:01Z</time>
      </trkpt>
      <trkpt lat="45.31985" lon="6.68677">
        <ele>1948.9</ele>
        <time>2018-07-01T13:26:03Z</time>
      </trkpt>
      <trkpt lat="45.31987" lon="6.6868">
        <ele>1948.9</ele>
        <time>2018-07-01T13:26:05Z</time>
      </trkpt>
      <trkpt lat="45.3199" lon="6.68682">
        <ele>1949</ele>
        <time>2018-07-01T13:26:07Z</time>
      </trkpt>
      <trkpt lat="45.31993" lon="6.68684">
        <ele>1949.1</ele>
        <time>2018-07-01T13:26:09Z</time>
      </trkpt>
      <trkpt lat="45.31996" lon="6.68684">
        <ele>1949.1</ele>
        <time>2018-07-01T13:26:11Z</time>
      </trkpt>
      <trkpt lat="45.31999" lon="6.68685">
        <ele>1948.8</ele>
        <time>2018-07-01T13:26:13Z</time>
      </trkpt>
      <trkpt lat="45.32002" lon="6.68686">
        <ele>1948.3</ele>
        <time>2018-07-01T13:26:15Z</time>
      </trkpt>
      <trkpt lat="45.32005" lon="6.68687">
        <ele>1948</ele>
        <time>2018-07-01T13:26:18Z</time>
      </trkpt>
      <trkpt lat="45.32008" lon="6.68689">
        <ele>1947.9</ele>
        <time>2018-07-01T13:26:20Z</time>
      </trkpt>
      <trkpt lat="45.3201" lon="6.68692">
        <ele>1947.9</ele>
        <time>2018-07-01T13:26:22Z</time>
      </trkpt>
      <trkpt lat="45.32012" lon="6.68694">
        <ele>1947.8</ele>
        <time>2018-07-01T13:26:24Z</time>
      </trkpt>
      <trkpt lat="45.32015" lon="6.68697">
        <ele>1947.8</ele>
        <time>2018-07-01T13:26:26Z</time>
      </trkpt>
      <trkpt lat="45.32018" lon="6.68699">
        <ele>1947.6</ele>
        <time>2018-07-01T13:26:28Z</time>
      </trkpt>
      <trkpt lat="45.3202" lon="6.68702">
        <ele>1947.2</ele>
        <time>2018-07-01T13:26:30Z</time>
      </trkpt>
      <trkpt lat="45.32022" lon="6.68705">
        <ele>1947</ele>
        <time>2018-07-01T13:26:32Z</time>
      </trkpt>
      <trkpt lat="45.32024" lon="6.68707">
        <ele>1947</ele>
        <time>2018-07-01T13:26:34Z</time>
      </trkpt>
      <trkpt lat="45.32028" lon="6.6871">
        <ele>1947</ele>
        <time>2018-07-01T13:26:37Z</time>
      </trkpt>
      <trkpt lat="45.3203" lon="6.68712">
        <ele>1946.6</ele>
        <time>2018-07-01T13:26:39Z</time>
      </trkpt>
      <trkpt lat="45.32033" lon="6.68715">
        <ele>1946.3</ele>
        <time>2018-07-01T13:26:41Z</time>
      </trkpt>
      <trkpt lat="45.32036" lon="6.68718">
        <ele>1946.1</ele>
        <time>2018-07-01T13:26:43Z</time>
      </trkpt>
      <trkpt lat="45.32038" lon="6.68721">
        <ele>1946</ele>
        <time>2018-07-01T13:26:45Z</time>
      </trkpt>
      <trkpt lat="45.32041" lon="6.68723">
        <ele>1945.9</ele>
        <time>2018-07-01T13:26:47Z</time>
      </trkpt>
      <trkpt lat="45.32043" lon="6.68726">
        <ele>1945.5</ele>
        <time>2018-07-01T13:26:49Z</time>
      </trkpt>
      <trkpt lat="45.32046" lon="6.68729">
        <ele>1945.2</ele>
        <time>2018-07-01T13:26:52Z</time>
      </trkpt>
      <trkpt lat="45.32048" lon="6.68732">
        <ele>1944.9</ele>
        <time>2018-07-01T13:26:54Z</time>
      </trkpt>
      <trkpt lat="45.32051" lon="6.68734">
        <ele>1945.1</ele>
        <time>2018-07-01T13:26:56Z</time>
      </trkpt>
      <trkpt lat="45.32055" lon="6.68736">
        <ele>1945.2</ele>
        <time>2018-07-01T13:26:58Z</time>
      </trkpt>
      <trkpt lat="45.32058" lon="6.68738">
        <ele>1944.9</ele>
        <time>2018-07-01T13:27:00Z</time>
      </trkpt>
      <trkpt lat="45.3206" lon="6.68739">
        <ele>1944.7</ele>
        <time>2018-07-01T13:27:02Z</time>
      </trkpt>
      <trkpt lat="45.32063" lon="6.68741">
        <ele>1944.7</ele>
        <time>2018-07-01T13:27:04Z</time>
      </trkpt>
      <trkpt lat="45.32067" lon="6.68741">
        <ele>1944.9</ele>
        <time>2018-07-01T13:27:07Z</time>
      </trkpt>
      <trkpt lat="45.32071" lon="6.68742">
        <ele>1944.6</ele>
        <time>2018-07-01T13:27:10Z</time>
      </trkpt>
      <trkpt lat="45.32074" lon="6.68743">
        <ele>1944.3</ele>
        <time>2018-07-01T13:27:12Z</time>
      </trkpt>
      <trkpt lat="45.32076" lon="6.68744">
        <ele>1944</ele>
        <time>2018-07-01T13:27:14Z</time>
      </trkpt>
      <trkpt lat="45.3208" lon="6.68746">
        <ele>1943.7</ele>
        <time>2018-07-01T13:27:16Z</time>
      </trkpt>
      <trkpt lat="45.32083" lon="6.68747">
        <ele>1943.5</ele>
        <time>2018-07-01T13:27:18Z</time>
      </trkpt>
      <trkpt lat="45.32085" lon="6.68749">
        <ele>1943.2</ele>
        <time>2018-07-01T13:27:20Z</time>
      </trkpt>
      <trkpt lat="45.32088" lon="6.68752">
        <ele>1942.9</ele>
        <time>2018-07-01T13:27:23Z</time>
      </trkpt>
      <trkpt lat="45.32091" lon="6.68753">
        <ele>1942.4</ele>
        <time>2018-07-01T13:27:26Z</time>
      </trkpt>
      <trkpt lat="45.32094" lon="6.68755">
        <ele>1941.9</ele>
        <time>2018-07-01T13:27:28Z</time>
      </trkpt>
      <trkpt lat="45.32098" lon="6.68757">
        <ele>1941.2</ele>
        <time>2018-07-01T13:27:31Z</time>
      </trkpt>
      <trkpt lat="45.32101" lon="6.68758">
        <ele>1941.3</ele>
        <time>2018-07-01T13:27:33Z</time>
      </trkpt>
      <trkpt lat="45.32104" lon="6.6876">
        <ele>1941.4</ele>
        <time>2018-07-01T13:27:35Z</time>
      </trkpt>
      <trkpt lat="45.32108" lon="6.6876">
        <ele>1941.2</ele>
        <time>2018-07-01T13:27:38Z</time>
      </trkpt>
      <trkpt lat="45.32111" lon="6.68761">
        <ele>1940.9</ele>
        <time>2018-07-01T13:27:40Z</time>
      </trkpt>
      <trkpt lat="45.32114" lon="6.68761">
        <ele>1940.9</ele>
        <time>2018-07-01T13:27:42Z</time>
      </trkpt>
      <trkpt lat="45.32117" lon="6.68762">
        <ele>1941.1</ele>
        <time>2018-07-01T13:27:44Z</time>
      </trkpt>
      <trkpt lat="45.3212" lon="6.68763">
        <ele>1940.7</ele>
        <time>2018-07-01T13:27:47Z</time>
      </trkpt>
      <trkpt lat="45.32123" lon="6.68767">
        <ele>1940</ele>
        <time>2018-07-01T13:28:08Z</time>
      </trkpt>
      <trkpt lat="45.32125" lon="6.68769">
        <ele>1939.5</ele>
        <time>2018-07-01T13:28:10Z</time>
      </trkpt>
      <trkpt lat="45.32129" lon="6.68772">
        <ele>1939.1</ele>
        <time>2018-07-01T13:28:13Z</time>
      </trkpt>
      <trkpt lat="45.32131" lon="6.68773">
        <ele>1938.8</ele>
        <time>2018-07-01T13:28:15Z</time>
      </trkpt>
      <trkpt lat="45.32134" lon="6.68775">
        <ele>1938.4</ele>
        <time>2018-07-01T13:28:17Z</time>
      </trkpt>
      <trkpt lat="45.32136" lon="6.68777">
        <ele>1937.9</ele>
        <time>2018-07-01T13:28:19Z</time>
      </trkpt>
      <trkpt lat="45.32139" lon="6.68779">
        <ele>1937.5</ele>
        <time>2018-07-01T13:28:21Z</time>
      </trkpt>
      <trkpt lat="45.32142" lon="6.68781">
        <ele>1937.1</ele>
        <time>2018-07-01T13:28:23Z</time>
      </trkpt>
      <trkpt lat="45.32145" lon="6.68784">
        <ele>1936.5</ele>
        <time>2018-07-01T13:28:26Z</time>
      </trkpt>
      <trkpt lat="45.32148" lon="6.68786">
        <ele>1936.2</ele>
        <time>2018-07-01T13:28:28Z</time>
      </trkpt>
      <trkpt lat="45.32151" lon="6.68788">
        <ele>1935.8</ele>
        <time>2018-07-01T13:28:30Z</time>
      </trkpt>
      <trkpt lat="45.32154" lon="6.68791">
        <ele>1935.5</ele>
        <time>2018-07-01T13:28:33Z</time>
      </trkpt>
      <trkpt lat="45.32156" lon="6.68793">
        <ele>1935.4</ele>
        <time>2018-07-01T13:28:35Z</time>
      </trkpt>
      <trkpt lat="45.32159" lon="6.68796">
        <ele>1935.2</ele>
        <time>2018-07-01T13:28:37Z</time>
      </trkpt>
      <trkpt lat="45.32162" lon="6.68797">
        <ele>1934.9</ele>
        <time>2018-07-01T13:28:39Z</time>
      </trkpt>
      <trkpt lat="45.32165" lon="6.68799">
        <ele>1934.6</ele>
        <time>2018-07-01T13:28:41Z</time>
      </trkpt>
      <trkpt lat="45.32168" lon="6.688">
        <ele>1934.2</ele>
        <time>2018-07-01T13:28:43Z</time>
      </trkpt>
      <trkpt lat="45.32171" lon="6.68801">
        <ele>1933.9</ele>
        <time>2018-07-01T13:28:45Z</time>
      </trkpt>
      <trkpt lat="45.32174" lon="6.68804">
        <ele>1933.6</ele>
        <time>2018-07-01T13:28:47Z</time>
      </trkpt>
      <trkpt lat="45.32177" lon="6.68805">
        <ele>1933.6</ele>
        <time>2018-07-01T13:28:49Z</time>
      </trkpt>
      <trkpt lat="45.3218" lon="6.68805">
        <ele>1933.5</ele>
        <time>2018-07-01T13:28:51Z</time>
      </trkpt>
      <trkpt lat="45.32183" lon="6.68806">
        <ele>1933.3</ele>
        <time>2018-07-01T13:28:53Z</time>
      </trkpt>
      <trkpt lat="45.32186" lon="6.68807">
        <ele>1933</ele>
        <time>2018-07-01T13:28:55Z</time>
      </trkpt>
      <trkpt lat="45.32189" lon="6.68807">
        <ele>1932.7</ele>
        <time>2018-07-01T13:28:57Z</time>
      </trkpt>
      <trkpt lat="45.32193" lon="6.68808">
        <ele>1932.3</ele>
        <time>2018-07-01T13:29:00Z</time>
      </trkpt>
      <trkpt lat="45.32196" lon="6.68809">
        <ele>1932.1</ele>
        <time>2018-07-01T13:29:02Z</time>
      </trkpt>
      <trkpt lat="45.32199" lon="6.68809">
        <ele>1931.8</ele>
        <time>2018-07-01T13:29:04Z</time>
      </trkpt>
      <trkpt lat="45.32203" lon="6.6881">
        <ele>1931.4</ele>
        <time>2018-07-01T13:29:07Z</time>
      </trkpt>
      <trkpt lat="45.32206" lon="6.68811">
        <ele>1931.1</ele>
        <time>2018-07-01T13:29:09Z</time>
      </trkpt>
      <trkpt lat="45.32209" lon="6.68813">
        <ele>1931</ele>
        <time>2018-07-01T13:29:11Z</time>
      </trkpt>
      <trkpt lat="45.32212" lon="6.68815">
        <ele>1931.1</ele>
        <time>2018-07-01T13:29:13Z</time>
      </trkpt>
      <trkpt lat="45.32215" lon="6.68815">
        <ele>1931</ele>
        <time>2018-07-01T13:29:15Z</time>
      </trkpt>
      <trkpt lat="45.32219" lon="6.68817">
        <ele>1930.7</ele>
        <time>2018-07-01T13:29:18Z</time>
      </trkpt>
      <trkpt lat="45.32223" lon="6.68819">
        <ele>1930.4</ele>
        <time>2018-07-01T13:29:21Z</time>
      </trkpt>
      <trkpt lat="45.32226" lon="6.6882">
        <ele>1930.2</ele>
        <time>2018-07-01T13:29:23Z</time>
      </trkpt>
      <trkpt lat="45.32228" lon="6.68821">
        <ele>1930.1</ele>
        <time>2018-07-01T13:29:25Z</time>
      </trkpt>
      <trkpt lat="45.32232" lon="6.68823">
        <ele>1929.9</ele>
        <time>2018-07-01T13:29:28Z</time>
      </trkpt>
      <trkpt lat="45.32235" lon="6.68825">
        <ele>1929.7</ele>
        <time>2018-07-01T13:29:30Z</time>
      </trkpt>
      <trkpt lat="45.32239" lon="6.68827">
        <ele>1929.6</ele>
        <time>2018-07-01T13:29:33Z</time>
      </trkpt>
      <trkpt lat="45.32241" lon="6.68829">
        <ele>1929.4</ele>
        <time>2018-07-01T13:29:35Z</time>
      </trkpt>
      <trkpt lat="45.32244" lon="6.68831">
        <ele>1929.3</ele>
        <time>2018-07-01T13:29:37Z</time>
      </trkpt>
      <trkpt lat="45.32246" lon="6.68833">
        <ele>1929.2</ele>
        <time>2018-07-01T13:29:39Z</time>
      </trkpt>
      <trkpt lat="45.32249" lon="6.68835">
        <ele>1929.1</ele>
        <time>2018-07-01T13:29:41Z</time>
      </trkpt>
      <trkpt lat="45.32251" lon="6.68837">
        <ele>1929</ele>
        <time>2018-07-01T13:29:43Z</time>
      </trkpt>
      <trkpt lat="45.32254" lon="6.68839">
        <ele>1928.9</ele>
        <time>2018-07-01T13:29:45Z</time>
      </trkpt>
      <trkpt lat="45.32257" lon="6.68842">
        <ele>1928.8</ele>
        <time>2018-07-01T13:29:47Z</time>
      </trkpt>
      <trkpt lat="45.3226" lon="6.68844">
        <ele>1928.7</ele>
        <time>2018-07-01T13:29:49Z</time>
      </trkpt>
      <trkpt lat="45.32264" lon="6.68846">
        <ele>1928.5</ele>
        <time>2018-07-01T13:29:52Z</time>
      </trkpt>
      <trkpt lat="45.32267" lon="6.68848">
        <ele>1928.5</ele>
        <time>2018-07-01T13:29:54Z</time>
      </trkpt>
      <trkpt lat="45.3227" lon="6.6885">
        <ele>1928.5</ele>
        <time>2018-07-01T13:29:56Z</time>
      </trkpt>
      <trkpt lat="45.32273" lon="6.68851">
        <ele>1928.5</ele>
        <time>2018-07-01T13:29:58Z</time>
      </trkpt>
      <trkpt lat="45.32275" lon="6.68853">
        <ele>1928.6</ele>
        <time>2018-07-01T13:30:00Z</time>
      </trkpt>
      <trkpt lat="45.32279" lon="6.68854">
        <ele>1928.6</ele>
        <time>2018-07-01T13:30:02Z</time>
      </trkpt>
      <trkpt lat="45.32282" lon="6.68856">
        <ele>1928.7</ele>
        <time>2018-07-01T13:30:04Z</time>
      </trkpt>
      <trkpt lat="45.32285" lon="6.68857">
        <ele>1928.7</ele>
        <time>2018-07-01T13:30:07Z</time>
      </trkpt>
      <trkpt lat="45.32289" lon="6.68859">
        <ele>1928.8</ele>
        <time>2018-07-01T13:30:10Z</time>
      </trkpt>
      <trkpt lat="45.32292" lon="6.6886">
        <ele>1928.7</ele>
        <time>2018-07-01T13:30:12Z</time>
      </trkpt>
      <trkpt lat="45.32295" lon="6.68862">
        <ele>1928.7</ele>
        <time>2018-07-01T13:30:14Z</time>
      </trkpt>
      <trkpt lat="45.32298" lon="6.68864">
        <ele>1928.7</ele>
        <time>2018-07-01T13:30:16Z</time>
      </trkpt>
      <trkpt lat="45.32301" lon="6.68867">
        <ele>1928.6</ele>
        <time>2018-07-01T13:30:18Z</time>
      </trkpt>
      <trkpt lat="45.32303" lon="6.68869">
        <ele>1928.5</ele>
        <time>2018-07-01T13:30:20Z</time>
      </trkpt>
      <trkpt lat="45.32306" lon="6.68872">
        <ele>1928.4</ele>
        <time>2018-07-01T13:30:22Z</time>
      </trkpt>
      <trkpt lat="45.32308" lon="6.68874">
        <ele>1928.1</ele>
        <time>2018-07-01T13:30:24Z</time>
      </trkpt>
      <trkpt lat="45.32311" lon="6.68876">
        <ele>1927.8</ele>
        <time>2018-07-01T13:30:26Z</time>
      </trkpt>
      <trkpt lat="45.32313" lon="6.68879">
        <ele>1927.6</ele>
        <time>2018-07-01T13:30:28Z</time>
      </trkpt>
      <trkpt lat="45.32316" lon="6.68882">
        <ele>1927.3</ele>
        <time>2018-07-01T13:30:31Z</time>
      </trkpt>
      <trkpt lat="45.32318" lon="6.68884">
        <ele>1927.1</ele>
        <time>2018-07-01T13:30:33Z</time>
      </trkpt>
      <trkpt lat="45.32321" lon="6.68888">
        <ele>1927</ele>
        <time>2018-07-01T13:30:35Z</time>
      </trkpt>
      <trkpt lat="45.32323" lon="6.68891">
        <ele>1926.9</ele>
        <time>2018-07-01T13:30:37Z</time>
      </trkpt>
      <trkpt lat="45.32326" lon="6.68894">
        <ele>1926.8</ele>
        <time>2018-07-01T13:30:39Z</time>
      </trkpt>
      <trkpt lat="45.32329" lon="6.68896">
        <ele>1926.7</ele>
        <time>2018-07-01T13:30:41Z</time>
      </trkpt>
      <trkpt lat="45.32332" lon="6.68897">
        <ele>1926.6</ele>
        <time>2018-07-01T13:30:43Z</time>
      </trkpt>
      <trkpt lat="45.32335" lon="6.68899">
        <ele>1926.5</ele>
        <time>2018-07-01T13:30:45Z</time>
      </trkpt>
      <trkpt lat="45.32338" lon="6.68898">
        <ele>1926.4</ele>
        <time>2018-07-01T13:30:48Z</time>
      </trkpt>
      <trkpt lat="45.32342" lon="6.68898">
        <ele>1926.3</ele>
        <time>2018-07-01T13:30:50Z</time>
      </trkpt>
      <trkpt lat="45.32345" lon="6.68898">
        <ele>1926.3</ele>
        <time>2018-07-01T13:30:52Z</time>
      </trkpt>
      <trkpt lat="45.32349" lon="6.68896">
        <ele>1926.2</ele>
        <time>2018-07-01T13:30:55Z</time>
      </trkpt>
      <trkpt lat="45.32352" lon="6.68896">
        <ele>1926.1</ele>
        <time>2018-07-01T13:30:57Z</time>
      </trkpt>
      <trkpt lat="45.32356" lon="6.68895">
        <ele>1925.9</ele>
        <time>2018-07-01T13:30:59Z</time>
      </trkpt>
      <trkpt lat="45.3236" lon="6.68894">
        <ele>1925.8</ele>
        <time>2018-07-01T13:31:01Z</time>
      </trkpt>
      <trkpt lat="45.32363" lon="6.68893">
        <ele>1925.7</ele>
        <time>2018-07-01T13:31:03Z</time>
      </trkpt>
      <trkpt lat="45.32366" lon="6.68892">
        <ele>1925.4</ele>
        <time>2018-07-01T13:31:06Z</time>
      </trkpt>
      <trkpt lat="45.3237" lon="6.68891">
        <ele>1925</ele>
        <time>2018-07-01T13:31:09Z</time>
      </trkpt>
      <trkpt lat="45.32373" lon="6.68891">
        <ele>1924.8</ele>
        <time>2018-07-01T13:31:11Z</time>
      </trkpt>
      <trkpt lat="45.32376" lon="6.68891">
        <ele>1924.6</ele>
        <time>2018-07-01T13:31:13Z</time>
      </trkpt>
      <trkpt lat="45.3238" lon="6.68891">
        <ele>1924.4</ele>
        <time>2018-07-01T13:31:15Z</time>
      </trkpt>
      <trkpt lat="45.32383" lon="6.68891">
        <ele>1924.3</ele>
        <time>2018-07-01T13:31:17Z</time>
      </trkpt>
      <trkpt lat="45.32386" lon="6.68892">
        <ele>1924</ele>
        <time>2018-07-01T13:31:19Z</time>
      </trkpt>
      <trkpt lat="45.32389" lon="6.68893">
        <ele>1923.8</ele>
        <time>2018-07-01T13:31:21Z</time>
      </trkpt>
      <trkpt lat="45.32393" lon="6.68894">
        <ele>1923.6</ele>
        <time>2018-07-01T13:31:24Z</time>
      </trkpt>
      <trkpt lat="45.32395" lon="6.68895">
        <ele>1923.4</ele>
        <time>2018-07-01T13:31:26Z</time>
      </trkpt>
      <trkpt lat="45.32398" lon="6.68897">
        <ele>1923.2</ele>
        <time>2018-07-01T13:31:28Z</time>
      </trkpt>
      <trkpt lat="45.324" lon="6.68899">
        <ele>1923</ele>
        <time>2018-07-01T13:31:30Z</time>
      </trkpt>
      <trkpt lat="45.32403" lon="6.68901">
        <ele>1922.8</ele>
        <time>2018-07-01T13:31:32Z</time>
      </trkpt>
      <trkpt lat="45.32405" lon="6.68902">
        <ele>1922.7</ele>
        <time>2018-07-01T13:31:34Z</time>
      </trkpt>
      <trkpt lat="45.32408" lon="6.68904">
        <ele>1922.4</ele>
        <time>2018-07-01T13:31:36Z</time>
      </trkpt>
      <trkpt lat="45.32411" lon="6.68907">
        <ele>1922.2</ele>
        <time>2018-07-01T13:31:38Z</time>
      </trkpt>
      <trkpt lat="45.32415" lon="6.68907">
        <ele>1922</ele>
        <time>2018-07-01T13:31:41Z</time>
      </trkpt>
      <trkpt lat="45.32418" lon="6.68909">
        <ele>1921.8</ele>
        <time>2018-07-01T13:31:44Z</time>
      </trkpt>
      <trkpt lat="45.32422" lon="6.68911">
        <ele>1921.5</ele>
        <time>2018-07-01T13:31:47Z</time>
      </trkpt>
      <trkpt lat="45.32424" lon="6.68912">
        <ele>1921.3</ele>
        <time>2018-07-01T13:31:49Z</time>
      </trkpt>
      <trkpt lat="45.32427" lon="6.68914">
        <ele>1921.1</ele>
        <time>2018-07-01T13:31:51Z</time>
      </trkpt>
      <trkpt lat="45.3243" lon="6.68916">
        <ele>1920.8</ele>
        <time>2018-07-01T13:31:53Z</time>
      </trkpt>
      <trkpt lat="45.32434" lon="6.68917">
        <ele>1920.6</ele>
        <time>2018-07-01T13:31:55Z</time>
      </trkpt>
      <trkpt lat="45.32437" lon="6.68919">
        <ele>1920.4</ele>
        <time>2018-07-01T13:31:57Z</time>
      </trkpt>
      <trkpt lat="45.32439" lon="6.6892">
        <ele>1920.2</ele>
        <time>2018-07-01T13:31:59Z</time>
      </trkpt>
      <trkpt lat="45.32441" lon="6.68922">
        <ele>1920.1</ele>
        <time>2018-07-01T13:32:01Z</time>
      </trkpt>
      <trkpt lat="45.32444" lon="6.68926">
        <ele>1919.9</ele>
        <time>2018-07-01T13:32:04Z</time>
      </trkpt>
      <trkpt lat="45.32447" lon="6.68928">
        <ele>1919.7</ele>
        <time>2018-07-01T13:32:06Z</time>
      </trkpt>
      <trkpt lat="45.32449" lon="6.68931">
        <ele>1919.5</ele>
        <time>2018-07-01T13:32:08Z</time>
      </trkpt>
      <trkpt lat="45.32451" lon="6.68933">
        <ele>1919.4</ele>
        <time>2018-07-01T13:32:10Z</time>
      </trkpt>
      <trkpt lat="45.32453" lon="6.68936">
        <ele>1919.1</ele>
        <time>2018-07-01T13:32:12Z</time>
      </trkpt>
      <trkpt lat="45.32455" lon="6.68939">
        <ele>1918.9</ele>
        <time>2018-07-01T13:32:14Z</time>
      </trkpt>
      <trkpt lat="45.32457" lon="6.68943">
        <ele>1918.6</ele>
        <time>2018-07-01T13:32:17Z</time>
      </trkpt>
      <trkpt lat="45.32458" lon="6.68944">
        <ele>1918.5</ele>
        <time>2018-07-01T13:33:35Z</time>
      </trkpt>
      <trkpt lat="45.3246" lon="6.68948">
        <ele>1918.2</ele>
        <time>2018-07-01T13:33:38Z</time>
      </trkpt>
      <trkpt lat="45.32461" lon="6.68952">
        <ele>1917.9</ele>
        <time>2018-07-01T13:33:40Z</time>
      </trkpt>
      <trkpt lat="45.32464" lon="6.68955">
        <ele>1917.6</ele>
        <time>2018-07-01T13:33:43Z</time>
      </trkpt>
      <trkpt lat="45.32466" lon="6.68958">
        <ele>1917.3</ele>
        <time>2018-07-01T13:33:46Z</time>
      </trkpt>
      <trkpt lat="45.32468" lon="6.68961">
        <ele>1917</ele>
        <time>2018-07-01T13:33:49Z</time>
      </trkpt>
      <trkpt lat="45.32471" lon="6.68963">
        <ele>1916.7</ele>
        <time>2018-07-01T13:33:52Z</time>
      </trkpt>
      <trkpt lat="45.32474" lon="6.68965">
        <ele>1916.6</ele>
        <time>2018-07-01T13:33:55Z</time>
      </trkpt>
      <trkpt lat="45.32476" lon="6.68966">
        <ele>1916.5</ele>
        <time>2018-07-01T13:33:57Z</time>
      </trkpt>
      <trkpt lat="45.3248" lon="6.68966">
        <ele>1916.5</ele>
        <time>2018-07-01T13:34:00Z</time>
      </trkpt>
      <trkpt lat="45.32483" lon="6.68966">
        <ele>1916.5</ele>
        <time>2018-07-01T13:34:03Z</time>
      </trkpt>
      <trkpt lat="45.32486" lon="6.68966">
        <ele>1916.6</ele>
        <time>2018-07-01T13:34:06Z</time>
      </trkpt>
      <trkpt lat="45.3249" lon="6.68964">
        <ele>1916.6</ele>
        <time>2018-07-01T13:34:09Z</time>
      </trkpt>
      <trkpt lat="45.32493" lon="6.68965">
        <ele>1916.6</ele>
        <time>2018-07-01T13:34:11Z</time>
      </trkpt>
      <trkpt lat="45.32497" lon="6.68965">
        <ele>1916.9</ele>
        <time>2018-07-01T13:34:14Z</time>
      </trkpt>
      <trkpt lat="45.32501" lon="6.68965">
        <ele>1917.2</ele>
        <time>2018-07-01T13:34:17Z</time>
      </trkpt>
      <trkpt lat="45.32504" lon="6.68965">
        <ele>1917.4</ele>
        <time>2018-07-01T13:34:19Z</time>
      </trkpt>
      <trkpt lat="45.32508" lon="6.68965">
        <ele>1917.7</ele>
        <time>2018-07-01T13:34:21Z</time>
      </trkpt>
      <trkpt lat="45.3251" lon="6.68966">
        <ele>1917.9</ele>
        <time>2018-07-01T13:34:23Z</time>
      </trkpt>
      <trkpt lat="45.32514" lon="6.68968">
        <ele>1918.2</ele>
        <time>2018-07-01T13:34:26Z</time>
      </trkpt>
      <trkpt lat="45.32518" lon="6.68969">
        <ele>1918.5</ele>
        <time>2018-07-01T13:34:29Z</time>
      </trkpt>
      <trkpt lat="45.3252" lon="6.68971">
        <ele>1918.6</ele>
        <time>2018-07-01T13:34:31Z</time>
      </trkpt>
      <trkpt lat="45.32523" lon="6.68973">
        <ele>1918.8</ele>
        <time>2018-07-01T13:34:33Z</time>
      </trkpt>
      <trkpt lat="45.32526" lon="6.68975">
        <ele>1919.2</ele>
        <time>2018-07-01T13:34:35Z</time>
      </trkpt>
      <trkpt lat="45.32529" lon="6.68976">
        <ele>1919.5</ele>
        <time>2018-07-01T13:34:38Z</time>
      </trkpt>
      <trkpt lat="45.32532" lon="6.68978">
        <ele>1919.8</ele>
        <time>2018-07-01T13:34:41Z</time>
      </trkpt>
      <trkpt lat="45.32535" lon="6.68979">
        <ele>1919.9</ele>
        <time>2018-07-01T13:34:43Z</time>
      </trkpt>
      <trkpt lat="45.32538" lon="6.68982">
        <ele>1920</ele>
        <time>2018-07-01T13:34:45Z</time>
      </trkpt>
      <trkpt lat="45.32541" lon="6.68984">
        <ele>1920.2</ele>
        <time>2018-07-01T13:34:47Z</time>
      </trkpt>
      <trkpt lat="45.32544" lon="6.68987">
        <ele>1920.4</ele>
        <time>2018-07-01T13:34:50Z</time>
      </trkpt>
      <trkpt lat="45.32546" lon="6.68989">
        <ele>1920.6</ele>
        <time>2018-07-01T13:34:52Z</time>
      </trkpt>
      <trkpt lat="45.32549" lon="6.68993">
        <ele>1920.8</ele>
        <time>2018-07-01T13:34:55Z</time>
      </trkpt>
      <trkpt lat="45.32551" lon="6.68996">
        <ele>1920.9</ele>
        <time>2018-07-01T13:34:57Z</time>
      </trkpt>
      <trkpt lat="45.32554" lon="6.69">
        <ele>1921.1</ele>
        <time>2018-07-01T13:34:59Z</time>
      </trkpt>
      <trkpt lat="45.32556" lon="6.69002">
        <ele>1921.2</ele>
        <time>2018-07-01T13:35:01Z</time>
      </trkpt>
      <trkpt lat="45.32559" lon="6.69004">
        <ele>1921.3</ele>
        <time>2018-07-01T13:35:03Z</time>
      </trkpt>
      <trkpt lat="45.32562" lon="6.69006">
        <ele>1921.3</ele>
        <time>2018-07-01T13:35:06Z</time>
      </trkpt>
      <trkpt lat="45.32566" lon="6.69008">
        <ele>1921.4</ele>
        <time>2018-07-01T13:35:09Z</time>
      </trkpt>
      <trkpt lat="45.32569" lon="6.6901">
        <ele>1921.4</ele>
        <time>2018-07-01T13:35:12Z</time>
      </trkpt>
      <trkpt lat="45.32573" lon="6.69013">
        <ele>1921.4</ele>
        <time>2018-07-01T13:35:15Z</time>
      </trkpt>
      <trkpt lat="45.32576" lon="6.69015">
        <ele>1921.5</ele>
        <time>2018-07-01T13:35:17Z</time>
      </trkpt>
      <trkpt lat="45.32579" lon="6.69015">
        <ele>1921.5</ele>
        <time>2018-07-01T13:35:19Z</time>
      </trkpt>
      <trkpt lat="45.32582" lon="6.69016">
        <ele>1921.6</ele>
        <time>2018-07-01T13:35:21Z</time>
      </trkpt>
      <trkpt lat="45.32585" lon="6.69017">
        <ele>1921.8</ele>
        <time>2018-07-01T13:35:23Z</time>
      </trkpt>
      <trkpt lat="45.32589" lon="6.69018">
        <ele>1921.9</ele>
        <time>2018-07-01T13:35:26Z</time>
      </trkpt>
      <trkpt lat="45.32591" lon="6.69019">
        <ele>1921.8</ele>
        <time>2018-07-01T13:35:28Z</time>
      </trkpt>
      <trkpt lat="45.32594" lon="6.6902">
        <ele>1921.7</ele>
        <time>2018-07-01T13:35:30Z</time>
      </trkpt>
      <trkpt lat="45.32597" lon="6.69021">
        <ele>1921.6</ele>
        <time>2018-07-01T13:35:32Z</time>
      </trkpt>
      <trkpt lat="45.326" lon="6.69022">
        <ele>1921.5</ele>
        <time>2018-07-01T13:35:34Z</time>
      </trkpt>
      <trkpt lat="45.32603" lon="6.69024">
        <ele>1921.5</ele>
        <time>2018-07-01T13:35:36Z</time>
      </trkpt>
      <trkpt lat="45.32606" lon="6.69026">
        <ele>1921.5</ele>
        <time>2018-07-01T13:35:38Z</time>
      </trkpt>
      <trkpt lat="45.32609" lon="6.69027">
        <ele>1921.2</ele>
        <time>2018-07-01T13:35:40Z</time>
      </trkpt>
      <trkpt lat="45.32613" lon="6.69028">
        <ele>1920.9</ele>
        <time>2018-07-01T13:35:43Z</time>
      </trkpt>
      <trkpt lat="45.32617" lon="6.69029">
        <ele>1920.6</ele>
        <time>2018-07-01T13:35:46Z</time>
      </trkpt>
      <trkpt lat="45.32621" lon="6.69029">
        <ele>1920.3</ele>
        <time>2018-07-01T13:35:49Z</time>
      </trkpt>
      <trkpt lat="45.32623" lon="6.6903">
        <ele>1920</ele>
        <time>2018-07-01T13:35:51Z</time>
      </trkpt>
      <trkpt lat="45.32627" lon="6.69031">
        <ele>1919.9</ele>
        <time>2018-07-01T13:35:53Z</time>
      </trkpt>
      <trkpt lat="45.3263" lon="6.69032">
        <ele>1919.8</ele>
        <time>2018-07-01T13:35:55Z</time>
      </trkpt>
      <trkpt lat="45.32633" lon="6.69033">
        <ele>1919.6</ele>
        <time>2018-07-01T13:35:57Z</time>
      </trkpt>
      <trkpt lat="45.32637" lon="6.69034">
        <ele>1919.1</ele>
        <time>2018-07-01T13:36:00Z</time>
      </trkpt>
      <trkpt lat="45.32641" lon="6.69035">
        <ele>1918.8</ele>
        <time>2018-07-01T13:36:03Z</time>
      </trkpt>
      <trkpt lat="45.32645" lon="6.69036">
        <ele>1918.5</ele>
        <time>2018-07-01T13:36:06Z</time>
      </trkpt>
      <trkpt lat="45.32647" lon="6.69037">
        <ele>1918.3</ele>
        <time>2018-07-01T13:36:08Z</time>
      </trkpt>
      <trkpt lat="45.32651" lon="6.69037">
        <ele>1917.9</ele>
        <time>2018-07-01T13:36:10Z</time>
      </trkpt>
      <trkpt lat="45.32653" lon="6.69039">
        <ele>1917.6</ele>
        <time>2018-07-01T13:36:12Z</time>
      </trkpt>
      <trkpt lat="45.32657" lon="6.69041">
        <ele>1917.1</ele>
        <time>2018-07-01T13:36:15Z</time>
      </trkpt>
      <trkpt lat="45.32659" lon="6.69043">
        <ele>1916.8</ele>
        <time>2018-07-01T13:36:17Z</time>
      </trkpt>
      <trkpt lat="45.32662" lon="6.69048">
        <ele>1916.2</ele>
        <time>2018-07-01T13:36:20Z</time>
      </trkpt>
      <trkpt lat="45.32664" lon="6.69051">
        <ele>1915.8</ele>
        <time>2018-07-01T13:36:22Z</time>
      </trkpt>
      <trkpt lat="45.32667" lon="6.69053">
        <ele>1915.6</ele>
        <time>2018-07-01T13:36:24Z</time>
      </trkpt>
      <trkpt lat="45.3267" lon="6.69056">
        <ele>1915.4</ele>
        <time>2018-07-01T13:36:27Z</time>
      </trkpt>
      <trkpt lat="45.32673" lon="6.69059">
        <ele>1915.2</ele>
        <time>2018-07-01T13:36:30Z</time>
      </trkpt>
      <trkpt lat="45.32675" lon="6.69061">
        <ele>1915</ele>
        <time>2018-07-01T13:36:32Z</time>
      </trkpt>
      <trkpt lat="45.32678" lon="6.69064">
        <ele>1914.8</ele>
        <time>2018-07-01T13:36:34Z</time>
      </trkpt>
      <trkpt lat="45.32681" lon="6.69066">
        <ele>1914.6</ele>
        <time>2018-07-01T13:36:37Z</time>
      </trkpt>
      <trkpt lat="45.32684" lon="6.69068">
        <ele>1914.5</ele>
        <time>2018-07-01T13:36:39Z</time>
      </trkpt>
      <trkpt lat="45.32687" lon="6.6907">
        <ele>1914.4</ele>
        <time>2018-07-01T13:36:41Z</time>
      </trkpt>
      <trkpt lat="45.32689" lon="6.6907">
        <ele>1914.4</ele>
        <time>2018-07-01T13:36:43Z</time>
      </trkpt>
      <trkpt lat="45.32693" lon="6.69072">
        <ele>1914.4</ele>
        <time>2018-07-01T13:36:46Z</time>
      </trkpt>
      <trkpt lat="45.32697" lon="6.69073">
        <ele>1914.4</ele>
        <time>2018-07-01T13:36:49Z</time>
      </trkpt>
      <trkpt lat="45.32701" lon="6.69074">
        <ele>1914.4</ele>
        <time>2018-07-01T13:36:52Z</time>
      </trkpt>
      <trkpt lat="45.32704" lon="6.69074">
        <ele>1914.4</ele>
        <time>2018-07-01T13:36:55Z</time>
      </trkpt>
      <trkpt lat="45.32708" lon="6.69074">
        <ele>1914.6</ele>
        <time>2018-07-01T13:36:58Z</time>
      </trkpt>
      <trkpt lat="45.32712" lon="6.69074">
        <ele>1914.8</ele>
        <time>2018-07-01T13:37:01Z</time>
      </trkpt>
      <trkpt lat="45.32715" lon="6.69074">
        <ele>1914.9</ele>
        <time>2018-07-01T13:37:04Z</time>
      </trkpt>
      <trkpt lat="45.32719" lon="6.69073">
        <ele>1915</ele>
        <time>2018-07-01T13:37:07Z</time>
      </trkpt>
      <trkpt lat="45.32722" lon="6.69071">
        <ele>1915.2</ele>
        <time>2018-07-01T13:37:10Z</time>
      </trkpt>
      <trkpt lat="45.32725" lon="6.69069">
        <ele>1915.4</ele>
        <time>2018-07-01T13:37:13Z</time>
      </trkpt>
      <trkpt lat="45.32728" lon="6.69067">
        <ele>1915.5</ele>
        <time>2018-07-01T13:37:16Z</time>
      </trkpt>
      <trkpt lat="45.32731" lon="6.69065">
        <ele>1915.7</ele>
        <time>2018-07-01T13:37:19Z</time>
      </trkpt>
      <trkpt lat="45.32735" lon="6.69062">
        <ele>1915.8</ele>
        <time>2018-07-01T13:37:22Z</time>
      </trkpt>
      <trkpt lat="45.32738" lon="6.6906">
        <ele>1915.9</ele>
        <time>2018-07-01T13:37:25Z</time>
      </trkpt>
      <trkpt lat="45.32741" lon="6.69058">
        <ele>1915.9</ele>
        <time>2018-07-01T13:37:27Z</time>
      </trkpt>
      <trkpt lat="45.32744" lon="6.69055">
        <ele>1916</ele>
        <time>2018-07-01T13:37:30Z</time>
      </trkpt>
      <trkpt lat="45.32747" lon="6.6905">
        <ele>1916</ele>
        <time>2018-07-01T13:37:34Z</time>
      </trkpt>
      <trkpt lat="45.32749" lon="6.69047">
        <ele>1916</ele>
        <time>2018-07-01T13:37:36Z</time>
      </trkpt>
      <trkpt lat="45.32753" lon="6.69045">
        <ele>1916.2</ele>
        <time>2018-07-01T13:37:39Z</time>
      </trkpt>
      <trkpt lat="45.32756" lon="6.69041">
        <ele>1916.6</ele>
        <time>2018-07-01T13:37:42Z</time>
      </trkpt>
      <trkpt lat="45.32758" lon="6.69038">
        <ele>1916.9</ele>
        <time>2018-07-01T13:37:44Z</time>
      </trkpt>
      <trkpt lat="45.3276" lon="6.69035">
        <ele>1917.3</ele>
        <time>2018-07-01T13:37:46Z</time>
      </trkpt>
      <trkpt lat="45.32763" lon="6.69032">
        <ele>1917.8</ele>
        <time>2018-07-01T13:37:48Z</time>
      </trkpt>
      <trkpt lat="45.32765" lon="6.69028">
        <ele>1918.4</ele>
        <time>2018-07-01T13:37:51Z</time>
      </trkpt>
      <trkpt lat="45.32767" lon="6.69024">
        <ele>1919.1</ele>
        <time>2018-07-01T13:37:54Z</time>
      </trkpt>
      <trkpt lat="45.3277" lon="6.69021">
        <ele>1919.7</ele>
        <time>2018-07-01T13:37:56Z</time>
      </trkpt>
      <trkpt lat="45.32772" lon="6.69018">
        <ele>1920.3</ele>
        <time>2018-07-01T13:37:58Z</time>
      </trkpt>
      <trkpt lat="45.32773" lon="6.69013">
        <ele>1921.1</ele>
        <time>2018-07-01T13:38:01Z</time>
      </trkpt>
      <trkpt lat="45.32773" lon="6.69009">
        <ele>1921.8</ele>
        <time>2018-07-01T13:38:04Z</time>
      </trkpt>
      <trkpt lat="45.32775" lon="6.69006">
        <ele>1922.3</ele>
        <time>2018-07-01T13:38:06Z</time>
      </trkpt>
      <trkpt lat="45.32778" lon="6.69002">
        <ele>1922.9</ele>
        <time>2018-07-01T13:38:09Z</time>
      </trkpt>
      <trkpt lat="45.3278" lon="6.69">
        <ele>1923.6</ele>
        <time>2018-07-01T13:38:11Z</time>
      </trkpt>
      <trkpt lat="45.32783" lon="6.68998">
        <ele>1924.5</ele>
        <time>2018-07-01T13:38:13Z</time>
      </trkpt>
      <trkpt lat="45.32786" lon="6.68995">
        <ele>1925.4</ele>
        <time>2018-07-01T13:38:15Z</time>
      </trkpt>
      <trkpt lat="45.32788" lon="6.68992">
        <ele>1926.3</ele>
        <time>2018-07-01T13:38:17Z</time>
      </trkpt>
      <trkpt lat="45.32791" lon="6.68988">
        <ele>1927.2</ele>
        <time>2018-07-01T13:38:20Z</time>
      </trkpt>
      <trkpt lat="45.32793" lon="6.68985">
        <ele>1927.6</ele>
        <time>2018-07-01T13:38:23Z</time>
      </trkpt>
      <trkpt lat="45.32795" lon="6.68982">
        <ele>1928.1</ele>
        <time>2018-07-01T13:38:25Z</time>
      </trkpt>
      <trkpt lat="45.32798" lon="6.68979">
        <ele>1928.9</ele>
        <time>2018-07-01T13:38:28Z</time>
      </trkpt>
      <trkpt lat="45.32801" lon="6.68978">
        <ele>1929.5</ele>
        <time>2018-07-01T13:38:30Z</time>
      </trkpt>
      <trkpt lat="45.32805" lon="6.68977">
        <ele>1929.9</ele>
        <time>2018-07-01T13:38:32Z</time>
      </trkpt>
      <trkpt lat="45.32809" lon="6.68977">
        <ele>1930.4</ele>
        <time>2018-07-01T13:38:35Z</time>
      </trkpt>
      <trkpt lat="45.32812" lon="6.68976">
        <ele>1930.6</ele>
        <time>2018-07-01T13:38:38Z</time>
      </trkpt>
      <trkpt lat="45.32815" lon="6.68976">
        <ele>1930.9</ele>
        <time>2018-07-01T13:38:40Z</time>
      </trkpt>
      <trkpt lat="45.32818" lon="6.68977">
        <ele>1931</ele>
        <time>2018-07-01T13:38:42Z</time>
      </trkpt>
      <trkpt lat="45.32821" lon="6.68977">
        <ele>1931.3</ele>
        <time>2018-07-01T13:38:44Z</time>
      </trkpt>
      <trkpt lat="45.32825" lon="6.68977">
        <ele>1931.2</ele>
        <time>2018-07-01T13:38:46Z</time>
      </trkpt>
      <trkpt lat="45.32829" lon="6.68978">
        <ele>1931.1</ele>
        <time>2018-07-01T13:38:48Z</time>
      </trkpt>
      <trkpt lat="45.32832" lon="6.6898">
        <ele>1931.1</ele>
        <time>2018-07-01T13:38:50Z</time>
      </trkpt>
      <trkpt lat="45.32835" lon="6.68983">
        <ele>1931.1</ele>
        <time>2018-07-01T13:38:52Z</time>
      </trkpt>
      <trkpt lat="45.32838" lon="6.68985">
        <ele>1931</ele>
        <time>2018-07-01T13:38:55Z</time>
      </trkpt>
      <trkpt lat="45.32842" lon="6.68988">
        <ele>1930.7</ele>
        <time>2018-07-01T13:38:58Z</time>
      </trkpt>
      <trkpt lat="45.32845" lon="6.6899">
        <ele>1930.5</ele>
        <time>2018-07-01T13:39:01Z</time>
      </trkpt>
      <trkpt lat="45.32848" lon="6.68992">
        <ele>1930.1</ele>
        <time>2018-07-01T13:39:04Z</time>
      </trkpt>
      <trkpt lat="45.32852" lon="6.68994">
        <ele>1929.8</ele>
        <time>2018-07-01T13:39:07Z</time>
      </trkpt>
      <trkpt lat="45.32855" lon="6.68995">
        <ele>1929.6</ele>
        <time>2018-07-01T13:39:10Z</time>
      </trkpt>
      <trkpt lat="45.32859" lon="6.68996">
        <ele>1929.4</ele>
        <time>2018-07-01T13:39:13Z</time>
      </trkpt>
      <trkpt lat="45.32862" lon="6.68997">
        <ele>1929.2</ele>
        <time>2018-07-01T13:39:16Z</time>
      </trkpt>
      <trkpt lat="45.32865" lon="6.68998">
        <ele>1929</ele>
        <time>2018-07-01T13:39:19Z</time>
      </trkpt>
      <trkpt lat="45.32869" lon="6.68998">
        <ele>1928.5</ele>
        <time>2018-07-01T13:39:22Z</time>
      </trkpt>
      <trkpt lat="45.32872" lon="6.68998">
        <ele>1928.2</ele>
        <time>2018-07-01T13:39:24Z</time>
      </trkpt>
      <trkpt lat="45.32876" lon="6.68998">
        <ele>1928</ele>
        <time>2018-07-01T13:39:27Z</time>
      </trkpt>
      <trkpt lat="45.32879" lon="6.68999">
        <ele>1928</ele>
        <time>2018-07-01T13:39:30Z</time>
      </trkpt>
      <trkpt lat="45.32883" lon="6.69">
        <ele>1927.8</ele>
        <time>2018-07-01T13:39:33Z</time>
      </trkpt>
      <trkpt lat="45.32887" lon="6.69002">
        <ele>1927</ele>
        <time>2018-07-01T13:39:35Z</time>
      </trkpt>
      <trkpt lat="45.32891" lon="6.69005">
        <ele>1926.1</ele>
        <time>2018-07-01T13:39:37Z</time>
      </trkpt>
      <trkpt lat="45.32894" lon="6.69005">
        <ele>1925.4</ele>
        <time>2018-07-01T13:39:39Z</time>
      </trkpt>
      <trkpt lat="45.32897" lon="6.69005">
        <ele>1924.7</ele>
        <time>2018-07-01T13:39:42Z</time>
      </trkpt>
      <trkpt lat="45.32901" lon="6.69004">
        <ele>1924</ele>
        <time>2018-07-01T13:39:45Z</time>
      </trkpt>
      <trkpt lat="45.32903" lon="6.69002">
        <ele>1923.5</ele>
        <time>2018-07-01T13:39:47Z</time>
      </trkpt>
      <trkpt lat="45.32906" lon="6.69001">
        <ele>1923</ele>
        <time>2018-07-01T13:39:49Z</time>
      </trkpt>
      <trkpt lat="45.3291" lon="6.69002">
        <ele>1922.3</ele>
        <time>2018-07-01T13:39:52Z</time>
      </trkpt>
      <trkpt lat="45.32913" lon="6.69002">
        <ele>1921.7</ele>
        <time>2018-07-01T13:39:54Z</time>
      </trkpt>
      <trkpt lat="45.32917" lon="6.69001">
        <ele>1921</ele>
        <time>2018-07-01T13:39:56Z</time>
      </trkpt>
      <trkpt lat="45.32921" lon="6.69002">
        <ele>1919.9</ele>
        <time>2018-07-01T13:39:59Z</time>
      </trkpt>
      <trkpt lat="45.32925" lon="6.69002">
        <ele>1918.9</ele>
        <time>2018-07-01T13:40:02Z</time>
      </trkpt>
      <trkpt lat="45.32928" lon="6.69002">
        <ele>1918.3</ele>
        <time>2018-07-01T13:40:05Z</time>
      </trkpt>
      <trkpt lat="45.32932" lon="6.69003">
        <ele>1917.5</ele>
        <time>2018-07-01T13:40:08Z</time>
      </trkpt>
      <trkpt lat="45.32936" lon="6.69004">
        <ele>1916.9</ele>
        <time>2018-07-01T13:40:10Z</time>
      </trkpt>
      <trkpt lat="45.3294" lon="6.69005">
        <ele>1916.1</ele>
        <time>2018-07-01T13:40:13Z</time>
      </trkpt>
      <trkpt lat="45.32943" lon="6.69005">
        <ele>1915.6</ele>
        <time>2018-07-01T13:40:15Z</time>
      </trkpt>
      <trkpt lat="45.32946" lon="6.69005">
        <ele>1915.1</ele>
        <time>2018-07-01T13:40:17Z</time>
      </trkpt>
      <trkpt lat="45.3295" lon="6.69004">
        <ele>1914.4</ele>
        <time>2018-07-01T13:40:20Z</time>
      </trkpt>
      <trkpt lat="45.32953" lon="6.69005">
        <ele>1914</ele>
        <time>2018-07-01T13:40:22Z</time>
      </trkpt>
      <trkpt lat="45.32957" lon="6.69005">
        <ele>1913.5</ele>
        <time>2018-07-01T13:40:25Z</time>
      </trkpt>
      <trkpt lat="45.3296" lon="6.69006">
        <ele>1913.2</ele>
        <time>2018-07-01T13:40:27Z</time>
      </trkpt>
      <trkpt lat="45.32963" lon="6.69007">
        <ele>1912.9</ele>
        <time>2018-07-01T13:40:29Z</time>
      </trkpt>
      <trkpt lat="45.32966" lon="6.69008">
        <ele>1912.5</ele>
        <time>2018-07-01T13:40:31Z</time>
      </trkpt>
      <trkpt lat="45.32969" lon="6.69009">
        <ele>1912</ele>
        <time>2018-07-01T13:40:33Z</time>
      </trkpt>
      <trkpt lat="45.32973" lon="6.69009">
        <ele>1911.4</ele>
        <time>2018-07-01T13:40:35Z</time>
      </trkpt>
      <trkpt lat="45.32976" lon="6.6901">
        <ele>1910.9</ele>
        <time>2018-07-01T13:40:37Z</time>
      </trkpt>
      <trkpt lat="45.32979" lon="6.6901">
        <ele>1910.6</ele>
        <time>2018-07-01T13:40:39Z</time>
      </trkpt>
      <trkpt lat="45.32982" lon="6.69009">
        <ele>1910.3</ele>
        <time>2018-07-01T13:40:41Z</time>
      </trkpt>
      <trkpt lat="45.32985" lon="6.6901">
        <ele>1910</ele>
        <time>2018-07-01T13:40:44Z</time>
      </trkpt>
      <trkpt lat="45.32989" lon="6.69011">
        <ele>1910.1</ele>
        <time>2018-07-01T13:40:47Z</time>
      </trkpt>
      <trkpt lat="45.32992" lon="6.69012">
        <ele>1910.2</ele>
        <time>2018-07-01T13:40:49Z</time>
      </trkpt>
      <trkpt lat="45.32996" lon="6.69013">
        <ele>1910.1</ele>
        <time>2018-07-01T13:40:52Z</time>
      </trkpt>
      <trkpt lat="45.33" lon="6.69012">
        <ele>1909.9</ele>
        <time>2018-07-01T13:40:55Z</time>
      </trkpt>
      <trkpt lat="45.33003" lon="6.69011">
        <ele>1909.8</ele>
        <time>2018-07-01T13:40:58Z</time>
      </trkpt>
      <trkpt lat="45.33007" lon="6.69012">
        <ele>1909.7</ele>
        <time>2018-07-01T13:41:01Z</time>
      </trkpt>
      <trkpt lat="45.33011" lon="6.69013">
        <ele>1909.5</ele>
        <time>2018-07-01T13:41:04Z</time>
      </trkpt>
      <trkpt lat="45.33015" lon="6.69013">
        <ele>1909.3</ele>
        <time>2018-07-01T13:41:07Z</time>
      </trkpt>
      <trkpt lat="45.33017" lon="6.69012">
        <ele>1909.2</ele>
        <time>2018-07-01T13:41:09Z</time>
      </trkpt>
      <trkpt lat="45.33021" lon="6.69012">
        <ele>1909.5</ele>
        <time>2018-07-01T13:41:12Z</time>
      </trkpt>
      <trkpt lat="45.33025" lon="6.69012">
        <ele>1909.6</ele>
        <time>2018-07-01T13:41:15Z</time>
      </trkpt>
      <trkpt lat="45.33029" lon="6.69011">
        <ele>1909.2</ele>
        <time>2018-07-01T13:41:18Z</time>
      </trkpt>
      <trkpt lat="45.33032" lon="6.69011">
        <ele>1908.8</ele>
        <time>2018-07-01T13:41:20Z</time>
      </trkpt>
      <trkpt lat="45.33035" lon="6.69011">
        <ele>1908.5</ele>
        <time>2018-07-01T13:41:22Z</time>
      </trkpt>
      <trkpt lat="45.33038" lon="6.69011">
        <ele>1908.1</ele>
        <time>2018-07-01T13:41:24Z</time>
      </trkpt>
      <trkpt lat="45.33041" lon="6.69012">
        <ele>1907.3</ele>
        <time>2018-07-01T13:41:26Z</time>
      </trkpt>
      <trkpt lat="45.33045" lon="6.69012">
        <ele>1906.1</ele>
        <time>2018-07-01T13:41:29Z</time>
      </trkpt>
      <trkpt lat="45.33049" lon="6.69012">
        <ele>1905.6</ele>
        <time>2018-07-01T13:41:32Z</time>
      </trkpt>
      <trkpt lat="45.33053" lon="6.69014">
        <ele>1904.6</ele>
        <time>2018-07-01T13:41:35Z</time>
      </trkpt>
      <trkpt lat="45.33055" lon="6.69016">
        <ele>1903.6</ele>
        <time>2018-07-01T13:41:37Z</time>
      </trkpt>
      <trkpt lat="45.33058" lon="6.69017">
        <ele>1902.6</ele>
        <time>2018-07-01T13:41:39Z</time>
      </trkpt>
      <trkpt lat="45.33061" lon="6.69018">
        <ele>1902.1</ele>
        <time>2018-07-01T13:41:41Z</time>
      </trkpt>
      <trkpt lat="45.33065" lon="6.69018">
        <ele>1901.6</ele>
        <time>2018-07-01T13:41:43Z</time>
      </trkpt>
      <trkpt lat="45.33068" lon="6.69018">
        <ele>1901</ele>
        <time>2018-07-01T13:41:45Z</time>
      </trkpt>
      <trkpt lat="45.33072" lon="6.69017">
        <ele>1900.4</ele>
        <time>2018-07-01T13:41:48Z</time>
      </trkpt>
      <trkpt lat="45.33075" lon="6.69017">
        <ele>1900.2</ele>
        <time>2018-07-01T13:41:51Z</time>
      </trkpt>
      <trkpt lat="45.33078" lon="6.69017">
        <ele>1900.2</ele>
        <time>2018-07-01T13:41:53Z</time>
      </trkpt>
      <trkpt lat="45.33081" lon="6.69016">
        <ele>1900.1</ele>
        <time>2018-07-01T13:41:55Z</time>
      </trkpt>
      <trkpt lat="45.33084" lon="6.69016">
        <ele>1899.7</ele>
        <time>2018-07-01T13:41:57Z</time>
      </trkpt>
      <trkpt lat="45.33088" lon="6.69015">
        <ele>1899.2</ele>
        <time>2018-07-01T13:42:00Z</time>
      </trkpt>
      <trkpt lat="45.33092" lon="6.69014">
        <ele>1899.1</ele>
        <time>2018-07-01T13:42:03Z</time>
      </trkpt>
      <trkpt lat="45.33095" lon="6.69013">
        <ele>1898.9</ele>
        <time>2018-07-01T13:42:06Z</time>
      </trkpt>
      <trkpt lat="45.33099" lon="6.69011">
        <ele>1897.6</ele>
        <time>2018-07-01T13:42:09Z</time>
      </trkpt>
      <trkpt lat="45.33102" lon="6.69011">
        <ele>1896.6</ele>
        <time>2018-07-01T13:42:11Z</time>
      </trkpt>
      <trkpt lat="45.33105" lon="6.69011">
        <ele>1896.1</ele>
        <time>2018-07-01T13:42:13Z</time>
      </trkpt>
      <trkpt lat="45.33109" lon="6.6901">
        <ele>1895.4</ele>
        <time>2018-07-01T13:42:16Z</time>
      </trkpt>
      <trkpt lat="45.33113" lon="6.6901">
        <ele>1894.6</ele>
        <time>2018-07-01T13:42:19Z</time>
      </trkpt>
      <trkpt lat="45.33116" lon="6.6901">
        <ele>1894.1</ele>
        <time>2018-07-01T13:42:21Z</time>
      </trkpt>
      <trkpt lat="45.3312" lon="6.6901">
        <ele>1893.5</ele>
        <time>2018-07-01T13:42:24Z</time>
      </trkpt>
      <trkpt lat="45.33123" lon="6.69009">
        <ele>1893.2</ele>
        <time>2018-07-01T13:42:26Z</time>
      </trkpt>
      <trkpt lat="45.33126" lon="6.6901">
        <ele>1893</ele>
        <time>2018-07-01T13:42:28Z</time>
      </trkpt>
      <trkpt lat="45.33129" lon="6.6901">
        <ele>1892.6</ele>
        <time>2018-07-01T13:42:31Z</time>
      </trkpt>
      <trkpt lat="45.33133" lon="6.6901">
        <ele>1891.4</ele>
        <time>2018-07-01T13:42:34Z</time>
      </trkpt>
      <trkpt lat="45.33137" lon="6.6901">
        <ele>1890.3</ele>
        <time>2018-07-01T13:42:37Z</time>
      </trkpt>
      <trkpt lat="45.33141" lon="6.6901">
        <ele>1889.2</ele>
        <time>2018-07-01T13:42:40Z</time>
      </trkpt>
      <trkpt lat="45.33144" lon="6.69011">
        <ele>1888.4</ele>
        <time>2018-07-01T13:42:42Z</time>
      </trkpt>
      <trkpt lat="45.33146" lon="6.6901">
        <ele>1887.9</ele>
        <time>2018-07-01T13:42:44Z</time>
      </trkpt>
      <trkpt lat="45.3315" lon="6.6901">
        <ele>1887.2</ele>
        <time>2018-07-01T13:42:47Z</time>
      </trkpt>
      <trkpt lat="45.33153" lon="6.6901">
        <ele>1886.5</ele>
        <time>2018-07-01T13:42:49Z</time>
      </trkpt>
      <trkpt lat="45.33156" lon="6.69009">
        <ele>1885.8</ele>
        <time>2018-07-01T13:42:51Z</time>
      </trkpt>
      <trkpt lat="45.33159" lon="6.69009">
        <ele>1885.1</ele>
        <time>2018-07-01T13:42:53Z</time>
      </trkpt>
      <trkpt lat="45.33161" lon="6.69007">
        <ele>1884.7</ele>
        <time>2018-07-01T13:42:55Z</time>
      </trkpt>
      <trkpt lat="45.33165" lon="6.69005">
        <ele>1884.3</ele>
        <time>2018-07-01T13:42:58Z</time>
      </trkpt>
      <trkpt lat="45.33168" lon="6.69004">
        <ele>1884</ele>
        <time>2018-07-01T13:43:18Z</time>
      </trkpt>
      <trkpt lat="45.33172" lon="6.69004">
        <ele>1884</ele>
        <time>2018-07-01T13:43:21Z</time>
      </trkpt>
      <trkpt lat="45.33175" lon="6.69003">
        <ele>1884</ele>
        <time>2018-07-01T13:43:23Z</time>
      </trkpt>
      <trkpt lat="45.33179" lon="6.69003">
        <ele>1883.1</ele>
        <time>2018-07-01T13:43:26Z</time>
      </trkpt>
      <trkpt lat="45.33182" lon="6.69004">
        <ele>1882.2</ele>
        <time>2018-07-01T13:43:29Z</time>
      </trkpt>
      <trkpt lat="45.33186" lon="6.69006">
        <ele>1881.2</ele>
        <time>2018-07-01T13:43:32Z</time>
      </trkpt>
      <trkpt lat="45.33189" lon="6.69008">
        <ele>1880.3</ele>
        <time>2018-07-01T13:43:35Z</time>
      </trkpt>
      <trkpt lat="45.33192" lon="6.6901">
        <ele>1879.1</ele>
        <time>2018-07-01T13:43:38Z</time>
      </trkpt>
      <trkpt lat="45.33196" lon="6.69013">
        <ele>1876.1</ele>
        <time>2018-07-01T13:43:41Z</time>
      </trkpt>
      <trkpt lat="45.33198" lon="6.69015">
        <ele>1874.1</ele>
        <time>2018-07-01T13:43:43Z</time>
      </trkpt>
      <trkpt lat="45.33201" lon="6.69017">
        <ele>1872.9</ele>
        <time>2018-07-01T13:43:45Z</time>
      </trkpt>
      <trkpt lat="45.33203" lon="6.6902">
        <ele>1871.7</ele>
        <time>2018-07-01T13:43:47Z</time>
      </trkpt>
      <trkpt lat="45.33206" lon="6.69022">
        <ele>1870.5</ele>
        <time>2018-07-01T13:43:49Z</time>
      </trkpt>
      <trkpt lat="45.33208" lon="6.69024">
        <ele>1869.2</ele>
        <time>2018-07-01T13:43:51Z</time>
      </trkpt>
      <trkpt lat="45.33212" lon="6.69027">
        <ele>1867.6</ele>
        <time>2018-07-01T13:43:54Z</time>
      </trkpt>
      <trkpt lat="45.33215" lon="6.69029">
        <ele>1866.1</ele>
        <time>2018-07-01T13:43:57Z</time>
      </trkpt>
      <trkpt lat="45.33218" lon="6.69031">
        <ele>1865</ele>
        <time>2018-07-01T13:43:59Z</time>
      </trkpt>
      <trkpt lat="45.33222" lon="6.69032">
        <ele>1863.1</ele>
        <time>2018-07-01T13:44:02Z</time>
      </trkpt>
      <trkpt lat="45.33226" lon="6.69033">
        <ele>1861.4</ele>
        <time>2018-07-01T13:44:05Z</time>
      </trkpt>
      <trkpt lat="45.3323" lon="6.69033">
        <ele>1860.6</ele>
        <time>2018-07-01T13:44:08Z</time>
      </trkpt>
      <trkpt lat="45.33233" lon="6.69034">
        <ele>1859.8</ele>
        <time>2018-07-01T13:44:11Z</time>
      </trkpt>
      <trkpt lat="45.33237" lon="6.69035">
        <ele>1859.1</ele>
        <time>2018-07-01T13:44:14Z</time>
      </trkpt>
      <trkpt lat="45.3324" lon="6.69035">
        <ele>1858.5</ele>
        <time>2018-07-01T13:44:16Z</time>
      </trkpt>
      <trkpt lat="45.33243" lon="6.69035">
        <ele>1858</ele>
        <time>2018-07-01T13:44:18Z</time>
      </trkpt>
      <trkpt lat="45.33247" lon="6.69034">
        <ele>1857.1</ele>
        <time>2018-07-01T13:44:21Z</time>
      </trkpt>
      <trkpt lat="45.33251" lon="6.69034">
        <ele>1856.3</ele>
        <time>2018-07-01T13:44:24Z</time>
      </trkpt>
      <trkpt lat="45.33255" lon="6.69034">
        <ele>1855.6</ele>
        <time>2018-07-01T13:44:27Z</time>
      </trkpt>
      <trkpt lat="45.33259" lon="6.69034">
        <ele>1854.9</ele>
        <time>2018-07-01T13:44:30Z</time>
      </trkpt>
      <trkpt lat="45.33262" lon="6.69034">
        <ele>1854.9</ele>
        <time>2018-07-01T13:44:32Z</time>
      </trkpt>
      <trkpt lat="45.33266" lon="6.69032">
        <ele>1855.5</ele>
        <time>2018-07-01T13:44:35Z</time>
      </trkpt>
      <trkpt lat="45.33269" lon="6.69029">
        <ele>1856.3</ele>
        <time>2018-07-01T13:44:38Z</time>
      </trkpt>
      <trkpt lat="45.33272" lon="6.69027">
        <ele>1857.4</ele>
        <time>2018-07-01T13:44:40Z</time>
      </trkpt>
      <trkpt lat="45.33274" lon="6.69025">
        <ele>1858.5</ele>
        <time>2018-07-01T13:44:42Z</time>
      </trkpt>
      <trkpt lat="45.33277" lon="6.69023">
        <ele>1859.3</ele>
        <time>2018-07-01T13:44:44Z</time>
      </trkpt>
      <trkpt lat="45.3328" lon="6.69021">
        <ele>1859.7</ele>
        <time>2018-07-01T13:44:46Z</time>
      </trkpt>
      <trkpt lat="45.33282" lon="6.69019">
        <ele>1860.1</ele>
        <time>2018-07-01T13:44:48Z</time>
      </trkpt>
      <trkpt lat="45.33285" lon="6.69017">
        <ele>1860.5</ele>
        <time>2018-07-01T13:44:51Z</time>
      </trkpt>
      <trkpt lat="45.33288" lon="6.69015">
        <ele>1861</ele>
        <time>2018-07-01T13:45:32Z</time>
      </trkpt>
      <trkpt lat="45.33291" lon="6.69015">
        <ele>1861.2</ele>
        <time>2018-07-01T13:45:35Z</time>
      </trkpt>
      <trkpt lat="45.33294" lon="6.69016">
        <ele>1860.9</ele>
        <time>2018-07-01T13:45:38Z</time>
      </trkpt>
      <trkpt lat="45.33296" lon="6.69016">
        <ele>1860.6</ele>
        <time>2018-07-01T13:45:41Z</time>
      </trkpt>
      <trkpt lat="45.333" lon="6.69016">
        <ele>1860.3</ele>
        <time>2018-07-01T13:45:44Z</time>
      </trkpt>
      <trkpt lat="45.33304" lon="6.69016">
        <ele>1859.9</ele>
        <time>2018-07-01T13:45:47Z</time>
      </trkpt>
      <trkpt lat="45.33307" lon="6.69016">
        <ele>1859.6</ele>
        <time>2018-07-01T13:45:49Z</time>
      </trkpt>
      <trkpt lat="45.33311" lon="6.69016">
        <ele>1859.3</ele>
        <time>2018-07-01T13:45:52Z</time>
      </trkpt>
      <trkpt lat="45.33315" lon="6.69016">
        <ele>1859.1</ele>
        <time>2018-07-01T13:45:55Z</time>
      </trkpt>
      <trkpt lat="45.33318" lon="6.69016">
        <ele>1858.4</ele>
        <time>2018-07-01T13:45:57Z</time>
      </trkpt>
      <trkpt lat="45.33321" lon="6.69016">
        <ele>1857.5</ele>
        <time>2018-07-01T13:45:59Z</time>
      </trkpt>
      <trkpt lat="45.33323" lon="6.69017">
        <ele>1856.6</ele>
        <time>2018-07-01T13:46:01Z</time>
      </trkpt>
      <trkpt lat="45.33326" lon="6.69017">
        <ele>1856.4</ele>
        <time>2018-07-01T13:46:03Z</time>
      </trkpt>
      <trkpt lat="45.33329" lon="6.69018">
        <ele>1856.3</ele>
        <time>2018-07-01T13:46:05Z</time>
      </trkpt>
      <trkpt lat="45.33333" lon="6.69018">
        <ele>1855.8</ele>
        <time>2018-07-01T13:46:08Z</time>
      </trkpt>
      <trkpt lat="45.33336" lon="6.69017">
        <ele>1855</ele>
        <time>2018-07-01T13:46:10Z</time>
      </trkpt>
      <trkpt lat="45.33339" lon="6.69017">
        <ele>1854.2</ele>
        <time>2018-07-01T13:46:12Z</time>
      </trkpt>
      <trkpt lat="45.33342" lon="6.69017">
        <ele>1854</ele>
        <time>2018-07-01T13:46:14Z</time>
      </trkpt>
      <trkpt lat="45.33345" lon="6.69017">
        <ele>1854</ele>
        <time>2018-07-01T13:46:16Z</time>
      </trkpt>
      <trkpt lat="45.33348" lon="6.69018">
        <ele>1853.9</ele>
        <time>2018-07-01T13:46:18Z</time>
      </trkpt>
      <trkpt lat="45.33351" lon="6.69018">
        <ele>1853.9</ele>
        <time>2018-07-01T13:46:20Z</time>
      </trkpt>
      <trkpt lat="45.33354" lon="6.69018">
        <ele>1854.2</ele>
        <time>2018-07-01T13:46:22Z</time>
      </trkpt>
      <trkpt lat="45.33357" lon="6.69019">
        <ele>1855</ele>
        <time>2018-07-01T13:46:24Z</time>
      </trkpt>
      <trkpt lat="45.33361" lon="6.69021">
        <ele>1855.3</ele>
        <time>2018-07-01T13:46:27Z</time>
      </trkpt>
      <trkpt lat="45.33364" lon="6.69021">
        <ele>1854.6</ele>
        <time>2018-07-01T13:46:30Z</time>
      </trkpt>
      <trkpt lat="45.33367" lon="6.69023">
        <ele>1854</ele>
        <time>2018-07-01T13:46:32Z</time>
      </trkpt>
      <trkpt lat="45.33369" lon="6.69025">
        <ele>1853.6</ele>
        <time>2018-07-01T13:46:34Z</time>
      </trkpt>
      <trkpt lat="45.33372" lon="6.69028">
        <ele>1853.1</ele>
        <time>2018-07-01T13:46:36Z</time>
      </trkpt>
      <trkpt lat="45.33374" lon="6.6903">
        <ele>1852.6</ele>
        <time>2018-07-01T13:46:38Z</time>
      </trkpt>
      <trkpt lat="45.33377" lon="6.69033">
        <ele>1852.2</ele>
        <time>2018-07-01T13:46:40Z</time>
      </trkpt>
      <trkpt lat="45.3338" lon="6.69036">
        <ele>1851.7</ele>
        <time>2018-07-01T13:46:43Z</time>
      </trkpt>
      <trkpt lat="45.33383" lon="6.69038">
        <ele>1851.5</ele>
        <time>2018-07-01T13:46:46Z</time>
      </trkpt>
      <trkpt lat="45.33387" lon="6.6904">
        <ele>1851.5</ele>
        <time>2018-07-01T13:46:49Z</time>
      </trkpt>
      <trkpt lat="45.3339" lon="6.69041">
        <ele>1851.9</ele>
        <time>2018-07-01T13:46:52Z</time>
      </trkpt>
      <trkpt lat="45.33394" lon="6.69042">
        <ele>1852.4</ele>
        <time>2018-07-01T13:46:55Z</time>
      </trkpt>
      <trkpt lat="45.33398" lon="6.69042">
        <ele>1852.9</ele>
        <time>2018-07-01T13:46:58Z</time>
      </trkpt>
      <trkpt lat="45.33401" lon="6.69042">
        <ele>1853.1</ele>
        <time>2018-07-01T13:47:00Z</time>
      </trkpt>
      <trkpt lat="45.33405" lon="6.69042">
        <ele>1853.5</ele>
        <time>2018-07-01T13:47:03Z</time>
      </trkpt>
      <trkpt lat="45.33409" lon="6.69042">
        <ele>1853.9</ele>
        <time>2018-07-01T13:47:06Z</time>
      </trkpt>
      <trkpt lat="45.33413" lon="6.69041">
        <ele>1854.6</ele>
        <time>2018-07-01T13:47:09Z</time>
      </trkpt>
      <trkpt lat="45.33415" lon="6.6904">
        <ele>1855.7</ele>
        <time>2018-07-01T13:47:11Z</time>
      </trkpt>
      <trkpt lat="45.33418" lon="6.6904">
        <ele>1856.8</ele>
        <time>2018-07-01T13:47:13Z</time>
      </trkpt>
      <trkpt lat="45.33422" lon="6.69039">
        <ele>1856.5</ele>
        <time>2018-07-01T13:47:16Z</time>
      </trkpt>
      <trkpt lat="45.33425" lon="6.6904">
        <ele>1856.2</ele>
        <time>2018-07-01T13:47:19Z</time>
      </trkpt>
      <trkpt lat="45.33429" lon="6.6904">
        <ele>1856.5</ele>
        <time>2018-07-01T13:47:22Z</time>
      </trkpt>
      <trkpt lat="45.33432" lon="6.6904">
        <ele>1856.8</ele>
        <time>2018-07-01T13:47:25Z</time>
      </trkpt>
      <trkpt lat="45.33435" lon="6.69039">
        <ele>1857</ele>
        <time>2018-07-01T13:47:28Z</time>
      </trkpt>
      <trkpt lat="45.33439" lon="6.69039">
        <ele>1857.5</ele>
        <time>2018-07-01T13:47:31Z</time>
      </trkpt>
      <trkpt lat="45.33442" lon="6.69039">
        <ele>1858.3</ele>
        <time>2018-07-01T13:47:34Z</time>
      </trkpt>
      <trkpt lat="45.33446" lon="6.69038">
        <ele>1858.9</ele>
        <time>2018-07-01T13:47:37Z</time>
      </trkpt>
      <trkpt lat="45.33449" lon="6.69036">
        <ele>1859.2</ele>
        <time>2018-07-01T13:47:40Z</time>
      </trkpt>
      <trkpt lat="45.33452" lon="6.69035">
        <ele>1859.4</ele>
        <time>2018-07-01T13:47:43Z</time>
      </trkpt>
      <trkpt lat="45.33456" lon="6.69035">
        <ele>1859.6</ele>
        <time>2018-07-01T13:47:46Z</time>
      </trkpt>
      <trkpt lat="45.33459" lon="6.69035">
        <ele>1859.8</ele>
        <time>2018-07-01T13:47:49Z</time>
      </trkpt>
      <trkpt lat="45.33462" lon="6.69036">
        <ele>1860</ele>
        <time>2018-07-01T13:47:52Z</time>
      </trkpt>
      <trkpt lat="45.33466" lon="6.69038">
        <ele>1860.2</ele>
        <time>2018-07-01T13:47:55Z</time>
      </trkpt>
      <trkpt lat="45.33468" lon="6.69041">
        <ele>1859.7</ele>
        <time>2018-07-01T13:47:58Z</time>
      </trkpt>
      <trkpt lat="45.33471" lon="6.69043">
        <ele>1859.2</ele>
        <time>2018-07-01T13:48:01Z</time>
      </trkpt>
      <trkpt lat="45.33474" lon="6.69045">
        <ele>1858.7</ele>
        <time>2018-07-01T13:48:04Z</time>
      </trkpt>
      <trkpt lat="45.33477" lon="6.69048">
        <ele>1858.1</ele>
        <time>2018-07-01T13:48:07Z</time>
      </trkpt>
      <trkpt lat="45.3348" lon="6.6905">
        <ele>1856.9</ele>
        <time>2018-07-01T13:48:10Z</time>
      </trkpt>
      <trkpt lat="45.33483" lon="6.69053">
        <ele>1855.5</ele>
        <time>2018-07-01T13:48:13Z</time>
      </trkpt>
      <trkpt lat="45.33486" lon="6.69055">
        <ele>1854.7</ele>
        <time>2018-07-01T13:48:16Z</time>
      </trkpt>
      <trkpt lat="45.33488" lon="6.69058">
        <ele>1854.2</ele>
        <time>2018-07-01T13:48:18Z</time>
      </trkpt>
      <trkpt lat="45.33491" lon="6.6906">
        <ele>1853.3</ele>
        <time>2018-07-01T13:48:21Z</time>
      </trkpt>
      <trkpt lat="45.33494" lon="6.69062">
        <ele>1852.5</ele>
        <time>2018-07-01T13:48:24Z</time>
      </trkpt>
      <trkpt lat="45.33498" lon="6.69063">
        <ele>1852.9</ele>
        <time>2018-07-01T13:48:27Z</time>
      </trkpt>
      <trkpt lat="45.33501" lon="6.69065">
        <ele>1851.8</ele>
        <time>2018-07-01T13:48:30Z</time>
      </trkpt>
      <trkpt lat="45.33505" lon="6.69067">
        <ele>1850.6</ele>
        <time>2018-07-01T13:48:33Z</time>
      </trkpt>
      <trkpt lat="45.33508" lon="6.6907">
        <ele>1849.8</ele>
        <time>2018-07-01T13:48:36Z</time>
      </trkpt>
      <trkpt lat="45.3351" lon="6.69072">
        <ele>1849.4</ele>
        <time>2018-07-01T13:48:38Z</time>
      </trkpt>
      <trkpt lat="45.33512" lon="6.69074">
        <ele>1849</ele>
        <time>2018-07-01T13:48:40Z</time>
      </trkpt>
      <trkpt lat="45.33516" lon="6.69077">
        <ele>1847.4</ele>
        <time>2018-07-01T13:48:43Z</time>
      </trkpt>
      <trkpt lat="45.33519" lon="6.69079">
        <ele>1845.4</ele>
        <time>2018-07-01T13:48:46Z</time>
      </trkpt>
      <trkpt lat="45.33522" lon="6.69082">
        <ele>1844</ele>
        <time>2018-07-01T13:48:49Z</time>
      </trkpt>
      <trkpt lat="45.33526" lon="6.69083">
        <ele>1843.3</ele>
        <time>2018-07-01T13:48:52Z</time>
      </trkpt>
      <trkpt lat="45.3353" lon="6.69081">
        <ele>1842.2</ele>
        <time>2018-07-01T13:48:55Z</time>
      </trkpt>
      <trkpt lat="45.33534" lon="6.69084">
        <ele>1841.2</ele>
        <time>2018-07-01T13:48:58Z</time>
      </trkpt>
      <trkpt lat="45.33538" lon="6.69085">
        <ele>1840.2</ele>
        <time>2018-07-01T13:49:01Z</time>
      </trkpt>
      <trkpt lat="45.33541" lon="6.69088">
        <ele>1838.9</ele>
        <time>2018-07-01T13:49:04Z</time>
      </trkpt>
      <trkpt lat="45.33545" lon="6.69091">
        <ele>1837.5</ele>
        <time>2018-07-01T13:49:07Z</time>
      </trkpt>
      <trkpt lat="45.33548" lon="6.69093">
        <ele>1836.3</ele>
        <time>2018-07-01T13:49:10Z</time>
      </trkpt>
      <trkpt lat="45.33551" lon="6.69095">
        <ele>1835.1</ele>
        <time>2018-07-01T13:49:13Z</time>
      </trkpt>
      <trkpt lat="45.33554" lon="6.69097">
        <ele>1833.6</ele>
        <time>2018-07-01T13:49:16Z</time>
      </trkpt>
      <trkpt lat="45.33557" lon="6.69098">
        <ele>1832.6</ele>
        <time>2018-07-01T13:49:18Z</time>
      </trkpt>
      <trkpt lat="45.3356" lon="6.69101">
        <ele>1830.6</ele>
        <time>2018-07-01T13:49:21Z</time>
      </trkpt>
      <trkpt lat="45.33563" lon="6.69104">
        <ele>1828.6</ele>
        <time>2018-07-01T13:49:24Z</time>
      </trkpt>
      <trkpt lat="45.33566" lon="6.69106">
        <ele>1827</ele>
        <time>2018-07-01T13:49:27Z</time>
      </trkpt>
      <trkpt lat="45.33569" lon="6.69109">
        <ele>1825.8</ele>
        <time>2018-07-01T13:49:30Z</time>
      </trkpt>
      <trkpt lat="45.33572" lon="6.69112">
        <ele>1824.6</ele>
        <time>2018-07-01T13:49:33Z</time>
      </trkpt>
      <trkpt lat="45.33574" lon="6.69115">
        <ele>1822.9</ele>
        <time>2018-07-01T13:49:36Z</time>
      </trkpt>
      <trkpt lat="45.33576" lon="6.69119">
        <ele>1821</ele>
        <time>2018-07-01T13:49:39Z</time>
      </trkpt>
      <trkpt lat="45.33578" lon="6.69123">
        <ele>1819.1</ele>
        <time>2018-07-01T13:49:42Z</time>
      </trkpt>
      <trkpt lat="45.3358" lon="6.69127">
        <ele>1817.3</ele>
        <time>2018-07-01T13:49:45Z</time>
      </trkpt>
      <trkpt lat="45.33583" lon="6.6913">
        <ele>1815.9</ele>
        <time>2018-07-01T13:49:48Z</time>
      </trkpt>
      <trkpt lat="45.33585" lon="6.69132">
        <ele>1815.1</ele>
        <time>2018-07-01T13:49:51Z</time>
      </trkpt>
      <trkpt lat="45.33588" lon="6.69134">
        <ele>1814.2</ele>
        <time>2018-07-01T13:49:54Z</time>
      </trkpt>
      <trkpt lat="45.3359" lon="6.69137">
        <ele>1813</ele>
        <time>2018-07-01T13:49:57Z</time>
      </trkpt>
      <trkpt lat="45.33593" lon="6.69138">
        <ele>1811.6</ele>
        <time>2018-07-01T13:50:00Z</time>
      </trkpt>
      <trkpt lat="45.33596" lon="6.6914">
        <ele>1810.2</ele>
        <time>2018-07-01T13:50:03Z</time>
      </trkpt>
      <trkpt lat="45.33599" lon="6.69141">
        <ele>1809.3</ele>
        <time>2018-07-01T13:50:06Z</time>
      </trkpt>
      <trkpt lat="45.33603" lon="6.69143">
        <ele>1808.5</ele>
        <time>2018-07-01T13:50:09Z</time>
      </trkpt>
      <trkpt lat="45.33605" lon="6.69144">
        <ele>1807.9</ele>
        <time>2018-07-01T13:50:11Z</time>
      </trkpt>
      <trkpt lat="45.33608" lon="6.69145">
        <ele>1807.4</ele>
        <time>2018-07-01T13:50:13Z</time>
      </trkpt>
      <trkpt lat="45.33612" lon="6.69147">
        <ele>1806.6</ele>
        <time>2018-07-01T13:50:16Z</time>
      </trkpt>
      <trkpt lat="45.33614" lon="6.69149">
        <ele>1806.1</ele>
        <time>2018-07-01T13:50:18Z</time>
      </trkpt>
      <trkpt lat="45.33618" lon="6.6915">
        <ele>1805.3</ele>
        <time>2018-07-01T13:50:21Z</time>
      </trkpt>
      <trkpt lat="45.3362" lon="6.69152">
        <ele>1804.7</ele>
        <time>2018-07-01T13:50:23Z</time>
      </trkpt>
      <trkpt lat="45.33623" lon="6.69153">
        <ele>1804.2</ele>
        <time>2018-07-01T13:50:25Z</time>
      </trkpt>
      <trkpt lat="45.33625" lon="6.69154">
        <ele>1803.6</ele>
        <time>2018-07-01T13:50:27Z</time>
      </trkpt>
      <trkpt lat="45.33628" lon="6.69157">
        <ele>1803.3</ele>
        <time>2018-07-01T13:50:30Z</time>
      </trkpt>
      <trkpt lat="45.33631" lon="6.6916">
        <ele>1803.1</ele>
        <time>2018-07-01T13:50:33Z</time>
      </trkpt>
      <trkpt lat="45.33634" lon="6.69162">
        <ele>1802.4</ele>
        <time>2018-07-01T13:50:36Z</time>
      </trkpt>
      <trkpt lat="45.33637" lon="6.69165">
        <ele>1801.6</ele>
        <time>2018-07-01T13:50:39Z</time>
      </trkpt>
      <trkpt lat="45.3364" lon="6.69169">
        <ele>1800.5</ele>
        <time>2018-07-01T13:50:42Z</time>
      </trkpt>
      <trkpt lat="45.33643" lon="6.69172">
        <ele>1799.4</ele>
        <time>2018-07-01T13:50:45Z</time>
      </trkpt>
      <trkpt lat="45.33646" lon="6.69175">
        <ele>1798.4</ele>
        <time>2018-07-01T13:50:48Z</time>
      </trkpt>
      <trkpt lat="45.33648" lon="6.69178">
        <ele>1797.4</ele>
        <time>2018-07-01T13:50:51Z</time>
      </trkpt>
      <trkpt lat="45.33651" lon="6.69182">
        <ele>1796.4</ele>
        <time>2018-07-01T13:50:54Z</time>
      </trkpt>
      <trkpt lat="45.33654" lon="6.69184">
        <ele>1795.8</ele>
        <time>2018-07-01T13:50:57Z</time>
      </trkpt>
      <trkpt lat="45.33657" lon="6.69187">
        <ele>1795.2</ele>
        <time>2018-07-01T13:51:00Z</time>
      </trkpt>
      <trkpt lat="45.33659" lon="6.6919">
        <ele>1794.6</ele>
        <time>2018-07-01T13:51:02Z</time>
      </trkpt>
      <trkpt lat="45.33661" lon="6.69194">
        <ele>1793.7</ele>
        <time>2018-07-01T13:51:05Z</time>
      </trkpt>
      <trkpt lat="45.33664" lon="6.69198">
        <ele>1792.8</ele>
        <time>2018-07-01T13:51:08Z</time>
      </trkpt>
      <trkpt lat="45.33667" lon="6.69202">
        <ele>1792.1</ele>
        <time>2018-07-01T13:51:11Z</time>
      </trkpt>
      <trkpt lat="45.33669" lon="6.69206">
        <ele>1791.4</ele>
        <time>2018-07-01T13:51:14Z</time>
      </trkpt>
      <trkpt lat="45.33672" lon="6.69209">
        <ele>1790.8</ele>
        <time>2018-07-01T13:51:17Z</time>
      </trkpt>
      <trkpt lat="45.33674" lon="6.69213">
        <ele>1790.1</ele>
        <time>2018-07-01T13:51:20Z</time>
      </trkpt>
      <trkpt lat="45.33676" lon="6.69216">
        <ele>1789.5</ele>
        <time>2018-07-01T13:51:23Z</time>
      </trkpt>
      <trkpt lat="45.33679" lon="6.69219">
        <ele>1788.8</ele>
        <time>2018-07-01T13:51:26Z</time>
      </trkpt>
      <trkpt lat="45.33681" lon="6.69223">
        <ele>1787.8</ele>
        <time>2018-07-01T13:51:29Z</time>
      </trkpt>
      <trkpt lat="45.33682" lon="6.69227">
        <ele>1787.1</ele>
        <time>2018-07-01T13:51:31Z</time>
      </trkpt>
      <trkpt lat="45.33684" lon="6.69231">
        <ele>1786.3</ele>
        <time>2018-07-01T13:51:34Z</time>
      </trkpt>
      <trkpt lat="45.33686" lon="6.69235">
        <ele>1785.7</ele>
        <time>2018-07-01T13:51:37Z</time>
      </trkpt>
      <trkpt lat="45.33689" lon="6.69237">
        <ele>1785.2</ele>
        <time>2018-07-01T13:51:40Z</time>
      </trkpt>
      <trkpt lat="45.33692" lon="6.69239">
        <ele>1784.7</ele>
        <time>2018-07-01T13:51:43Z</time>
      </trkpt>
      <trkpt lat="45.33695" lon="6.69241">
        <ele>1784</ele>
        <time>2018-07-01T13:51:46Z</time>
      </trkpt>
      <trkpt lat="45.33699" lon="6.69242">
        <ele>1783.3</ele>
        <time>2018-07-01T13:51:49Z</time>
      </trkpt>
      <trkpt lat="45.33702" lon="6.69242">
        <ele>1783.5</ele>
        <time>2018-07-01T13:51:52Z</time>
      </trkpt>
      <trkpt lat="45.33705" lon="6.69243">
        <ele>1783.7</ele>
        <time>2018-07-01T13:51:55Z</time>
      </trkpt>
      <trkpt lat="45.33709" lon="6.69244">
        <ele>1783.5</ele>
        <time>2018-07-01T13:51:58Z</time>
      </trkpt>
      <trkpt lat="45.33712" lon="6.69245">
        <ele>1783.6</ele>
        <time>2018-07-01T13:52:01Z</time>
      </trkpt>
      <trkpt lat="45.33715" lon="6.69246">
        <ele>1783.9</ele>
        <time>2018-07-01T13:52:03Z</time>
      </trkpt>
      <trkpt lat="45.33717" lon="6.6925">
        <ele>1784.1</ele>
        <time>2018-07-01T13:52:06Z</time>
      </trkpt>
      <trkpt lat="45.33718" lon="6.69254">
        <ele>1784</ele>
        <time>2018-07-01T13:52:09Z</time>
      </trkpt>
      <trkpt lat="45.33716" lon="6.69258">
        <ele>1783.7</ele>
        <time>2018-07-01T13:52:12Z</time>
      </trkpt>
      <trkpt lat="45.33713" lon="6.6926">
        <ele>1783.1</ele>
        <time>2018-07-01T13:52:15Z</time>
      </trkpt>
      <trkpt lat="45.33709" lon="6.69261">
        <ele>1782.4</ele>
        <time>2018-07-01T13:52:18Z</time>
      </trkpt>
      <trkpt lat="45.33706" lon="6.6926">
        <ele>1781.7</ele>
        <time>2018-07-01T13:52:21Z</time>
      </trkpt>
      <trkpt lat="45.33702" lon="6.69261">
        <ele>1780.9</ele>
        <time>2018-07-01T13:52:24Z</time>
      </trkpt>
      <trkpt lat="45.33698" lon="6.69261">
        <ele>1780.2</ele>
        <time>2018-07-01T13:52:27Z</time>
      </trkpt>
      <trkpt lat="45.33695" lon="6.69261">
        <ele>1779.5</ele>
        <time>2018-07-01T13:52:30Z</time>
      </trkpt>
      <trkpt lat="45.33692" lon="6.69261">
        <ele>1779.1</ele>
        <time>2018-07-01T13:52:32Z</time>
      </trkpt>
      <trkpt lat="45.33688" lon="6.69261">
        <ele>1778.4</ele>
        <time>2018-07-01T13:52:35Z</time>
      </trkpt>
      <trkpt lat="45.33685" lon="6.69261">
        <ele>1778</ele>
        <time>2018-07-01T13:52:37Z</time>
      </trkpt>
      <trkpt lat="45.33681" lon="6.69261">
        <ele>1777.6</ele>
        <time>2018-07-01T13:52:40Z</time>
      </trkpt>
      <trkpt lat="45.33677" lon="6.6926">
        <ele>1777.7</ele>
        <time>2018-07-01T13:52:43Z</time>
      </trkpt>
      <trkpt lat="45.33674" lon="6.6926">
        <ele>1777.9</ele>
        <time>2018-07-01T13:52:46Z</time>
      </trkpt>
      <trkpt lat="45.33671" lon="6.69262">
        <ele>1777.7</ele>
        <time>2018-07-01T13:52:49Z</time>
      </trkpt>
      <trkpt lat="45.33669" lon="6.69265">
        <ele>1777.5</ele>
        <time>2018-07-01T13:52:52Z</time>
      </trkpt>
      <trkpt lat="45.33667" lon="6.69268">
        <ele>1777</ele>
        <time>2018-07-01T13:52:55Z</time>
      </trkpt>
      <trkpt lat="45.33665" lon="6.69272">
        <ele>1776.2</ele>
        <time>2018-07-01T13:52:57Z</time>
      </trkpt>
      <trkpt lat="45.33663" lon="6.69281">
        <ele>1775.6</ele>
        <time>2018-07-01T13:53:00Z</time>
      </trkpt>
      <trkpt lat="45.33663" lon="6.69285">
        <ele>1775.4</ele>
        <time>2018-07-01T13:53:02Z</time>
      </trkpt>
      <trkpt lat="45.33666" lon="6.69287">
        <ele>1775.3</ele>
        <time>2018-07-01T13:53:05Z</time>
      </trkpt>
      <trkpt lat="45.33668" lon="6.6929">
        <ele>1775.2</ele>
        <time>2018-07-01T13:53:07Z</time>
      </trkpt>
      <trkpt lat="45.33671" lon="6.69293">
        <ele>1775.2</ele>
        <time>2018-07-01T13:53:10Z</time>
      </trkpt>
      <trkpt lat="45.33674" lon="6.69296">
        <ele>1775.3</ele>
        <time>2018-07-01T13:53:12Z</time>
      </trkpt>
      <trkpt lat="45.33676" lon="6.69298">
        <ele>1775.4</ele>
        <time>2018-07-01T13:53:14Z</time>
      </trkpt>
      <trkpt lat="45.33679" lon="6.69301">
        <ele>1775.4</ele>
        <time>2018-07-01T13:53:16Z</time>
      </trkpt>
      <trkpt lat="45.33682" lon="6.69304">
        <ele>1775.5</ele>
        <time>2018-07-01T13:53:18Z</time>
      </trkpt>
      <trkpt lat="45.33684" lon="6.69307">
        <ele>1775.5</ele>
        <time>2018-07-01T13:53:20Z</time>
      </trkpt>
      <trkpt lat="45.33687" lon="6.6931">
        <ele>1775.7</ele>
        <time>2018-07-01T13:53:23Z</time>
      </trkpt>
      <trkpt lat="45.33688" lon="6.69313">
        <ele>1775.8</ele>
        <time>2018-07-01T13:53:25Z</time>
      </trkpt>
      <trkpt lat="45.3369" lon="6.69316">
        <ele>1775.9</ele>
        <time>2018-07-01T13:53:27Z</time>
      </trkpt>
      <trkpt lat="45.33693" lon="6.69321">
        <ele>1776.2</ele>
        <time>2018-07-01T13:53:30Z</time>
      </trkpt>
      <trkpt lat="45.33693" lon="6.69327">
        <ele>1776.5</ele>
        <time>2018-07-01T13:53:33Z</time>
      </trkpt>
      <trkpt lat="45.33693" lon="6.69333">
        <ele>1776.7</ele>
        <time>2018-07-01T13:53:36Z</time>
      </trkpt>
      <trkpt lat="45.33696" lon="6.69337">
        <ele>1777</ele>
        <time>2018-07-01T13:53:39Z</time>
      </trkpt>
      <trkpt lat="45.33698" lon="6.69341">
        <ele>1777.4</ele>
        <time>2018-07-01T13:53:42Z</time>
      </trkpt>
      <trkpt lat="45.337" lon="6.69343">
        <ele>1777.7</ele>
        <time>2018-07-01T13:53:44Z</time>
      </trkpt>
      <trkpt lat="45.33703" lon="6.69346">
        <ele>1778</ele>
        <time>2018-07-01T13:53:46Z</time>
      </trkpt>
      <trkpt lat="45.33705" lon="6.6935">
        <ele>1778.5</ele>
        <time>2018-07-01T13:53:49Z</time>
      </trkpt>
      <trkpt lat="45.33707" lon="6.69353">
        <ele>1778.8</ele>
        <time>2018-07-01T13:53:51Z</time>
      </trkpt>
      <trkpt lat="45.33709" lon="6.69357">
        <ele>1779</ele>
        <time>2018-07-01T13:53:53Z</time>
      </trkpt>
      <trkpt lat="45.33711" lon="6.69359">
        <ele>1779.2</ele>
        <time>2018-07-01T13:53:55Z</time>
      </trkpt>
      <trkpt lat="45.33714" lon="6.69362">
        <ele>1779.4</ele>
        <time>2018-07-01T13:53:58Z</time>
      </trkpt>
      <trkpt lat="45.33718" lon="6.69366">
        <ele>1779.5</ele>
        <time>2018-07-01T13:54:01Z</time>
      </trkpt>
      <trkpt lat="45.33721" lon="6.69369">
        <ele>1779.5</ele>
        <time>2018-07-01T13:54:04Z</time>
      </trkpt>
      <trkpt lat="45.33723" lon="6.69371">
        <ele>1779.5</ele>
        <time>2018-07-01T13:54:06Z</time>
      </trkpt>
      <trkpt lat="45.33726" lon="6.69372">
        <ele>1779.4</ele>
        <time>2018-07-01T13:54:08Z</time>
      </trkpt>
      <trkpt lat="45.33729" lon="6.69375">
        <ele>1779.2</ele>
        <time>2018-07-01T13:54:10Z</time>
      </trkpt>
      <trkpt lat="45.33731" lon="6.69378">
        <ele>1778.9</ele>
        <time>2018-07-01T13:54:12Z</time>
      </trkpt>
      <trkpt lat="45.33734" lon="6.6938">
        <ele>1778.6</ele>
        <time>2018-07-01T13:54:14Z</time>
      </trkpt>
      <trkpt lat="45.33737" lon="6.69382">
        <ele>1778.4</ele>
        <time>2018-07-01T13:54:17Z</time>
      </trkpt>
      <trkpt lat="45.33739" lon="6.69384">
        <ele>1778.3</ele>
        <time>2018-07-01T13:54:21Z</time>
      </trkpt>
      <trkpt lat="45.33742" lon="6.69385">
        <ele>1778.1</ele>
        <time>2018-07-01T13:54:23Z</time>
      </trkpt>
      <trkpt lat="45.33745" lon="6.69387">
        <ele>1777.9</ele>
        <time>2018-07-01T13:54:26Z</time>
      </trkpt>
      <trkpt lat="45.33747" lon="6.6939">
        <ele>1777.7</ele>
        <time>2018-07-01T13:54:30Z</time>
      </trkpt>
      <trkpt lat="45.3375" lon="6.69392">
        <ele>1777.5</ele>
        <time>2018-07-01T13:54:33Z</time>
      </trkpt>
      <trkpt lat="45.33754" lon="6.69394">
        <ele>1777</ele>
        <time>2018-07-01T13:54:36Z</time>
      </trkpt>
      <trkpt lat="45.33756" lon="6.69396">
        <ele>1776.7</ele>
        <time>2018-07-01T13:54:38Z</time>
      </trkpt>
      <trkpt lat="45.3376" lon="6.69399">
        <ele>1776.5</ele>
        <time>2018-07-01T13:54:41Z</time>
      </trkpt>
      <trkpt lat="45.33763" lon="6.69401">
        <ele>1776.3</ele>
        <time>2018-07-01T13:54:43Z</time>
      </trkpt>
      <trkpt lat="45.33766" lon="6.69403">
        <ele>1776</ele>
        <time>2018-07-01T13:54:46Z</time>
      </trkpt>
      <trkpt lat="45.33769" lon="6.69405">
        <ele>1775.7</ele>
        <time>2018-07-01T13:54:50Z</time>
      </trkpt>
      <trkpt lat="45.33772" lon="6.69408">
        <ele>1775.4</ele>
        <time>2018-07-01T13:54:55Z</time>
      </trkpt>
      <trkpt lat="45.33774" lon="6.69411">
        <ele>1775.2</ele>
        <time>2018-07-01T13:54:58Z</time>
      </trkpt>
      <trkpt lat="45.33776" lon="6.69414">
        <ele>1775</ele>
        <time>2018-07-01T13:55:01Z</time>
      </trkpt>
      <trkpt lat="45.33779" lon="6.69417">
        <ele>1774.8</ele>
        <time>2018-07-01T13:55:04Z</time>
      </trkpt>
      <trkpt lat="45.33781" lon="6.69419">
        <ele>1774.5</ele>
        <time>2018-07-01T13:55:11Z</time>
      </trkpt>
      <trkpt lat="45.33784" lon="6.69422">
        <ele>1774.1</ele>
        <time>2018-07-01T13:55:15Z</time>
      </trkpt>
      <trkpt lat="45.33787" lon="6.69425">
        <ele>1773.8</ele>
        <time>2018-07-01T13:55:18Z</time>
      </trkpt>
      <trkpt lat="45.3379" lon="6.69427">
        <ele>1773.6</ele>
        <time>2018-07-01T13:55:21Z</time>
      </trkpt>
      <trkpt lat="45.33792" lon="6.69431">
        <ele>1773.4</ele>
        <time>2018-07-01T13:55:24Z</time>
      </trkpt>
      <trkpt lat="45.33794" lon="6.69434">
        <ele>1773.3</ele>
        <time>2018-07-01T13:55:27Z</time>
      </trkpt>
      <trkpt lat="45.33797" lon="6.69437">
        <ele>1773.1</ele>
        <time>2018-07-01T13:55:30Z</time>
      </trkpt>
      <trkpt lat="45.338" lon="6.6944">
        <ele>1772.9</ele>
        <time>2018-07-01T13:55:34Z</time>
      </trkpt>
      <trkpt lat="45.33802" lon="6.69444">
        <ele>1772.6</ele>
        <time>2018-07-01T13:55:38Z</time>
      </trkpt>
      <trkpt lat="45.33803" lon="6.69448">
        <ele>1772.4</ele>
        <time>2018-07-01T13:55:41Z</time>
      </trkpt>
      <trkpt lat="45.33805" lon="6.69451">
        <ele>1772.2</ele>
        <time>2018-07-01T13:55:44Z</time>
      </trkpt>
      <trkpt lat="45.33807" lon="6.69455">
        <ele>1772</ele>
        <time>2018-07-01T13:55:47Z</time>
      </trkpt>
      <trkpt lat="45.33809" lon="6.69458">
        <ele>1771.8</ele>
        <time>2018-07-01T13:55:50Z</time>
      </trkpt>
      <trkpt lat="45.33812" lon="6.69461">
        <ele>1771.6</ele>
        <time>2018-07-01T13:55:53Z</time>
      </trkpt>
      <trkpt lat="45.33815" lon="6.69465">
        <ele>1771.4</ele>
        <time>2018-07-01T13:55:56Z</time>
      </trkpt>
      <trkpt lat="45.33817" lon="6.69467">
        <ele>1771.3</ele>
        <time>2018-07-01T13:55:58Z</time>
      </trkpt>
      <trkpt lat="45.33819" lon="6.6947">
        <ele>1771.1</ele>
        <time>2018-07-01T13:56:00Z</time>
      </trkpt>
      <trkpt lat="45.33822" lon="6.69472">
        <ele>1770.5</ele>
        <time>2018-07-01T13:56:02Z</time>
      </trkpt>
      <trkpt lat="45.33824" lon="6.69475">
        <ele>1769.1</ele>
        <time>2018-07-01T13:56:04Z</time>
      </trkpt>
      <trkpt lat="45.33827" lon="6.69478">
        <ele>1767.2</ele>
        <time>2018-07-01T13:56:06Z</time>
      </trkpt>
      <trkpt lat="45.33829" lon="6.69482">
        <ele>1765.8</ele>
        <time>2018-07-01T13:56:08Z</time>
      </trkpt>
      <trkpt lat="45.33832" lon="6.6948">
        <ele>1764.3</ele>
        <time>2018-07-01T13:56:11Z</time>
      </trkpt>
      <trkpt lat="45.33833" lon="6.69484">
        <ele>1762.8</ele>
        <time>2018-07-01T13:56:17Z</time>
      </trkpt>
      <trkpt lat="45.33832" lon="6.69489">
        <ele>1760.9</ele>
        <time>2018-07-01T13:56:20Z</time>
      </trkpt>
      <trkpt lat="45.33829" lon="6.69509">
        <ele>1759</ele>
        <time>2018-07-01T13:59:42Z</time>
      </trkpt>
      <trkpt lat="45.33833" lon="6.6951">
        <ele>1760.3</ele>
        <time>2018-07-01T13:59:45Z</time>
      </trkpt>
      <trkpt lat="45.33837" lon="6.69511">
        <ele>1761.4</ele>
        <time>2018-07-01T13:59:47Z</time>
      </trkpt>
      <trkpt lat="45.3384" lon="6.69512">
        <ele>1762.4</ele>
        <time>2018-07-01T13:59:49Z</time>
      </trkpt>
      <trkpt lat="45.33843" lon="6.69513">
        <ele>1763.3</ele>
        <time>2018-07-01T13:59:53Z</time>
      </trkpt>
      <trkpt lat="45.33847" lon="6.69514">
        <ele>1764.5</ele>
        <time>2018-07-01T13:59:56Z</time>
      </trkpt>
      <trkpt lat="45.3385" lon="6.69515">
        <ele>1765.5</ele>
        <time>2018-07-01T13:59:58Z</time>
      </trkpt>
      <trkpt lat="45.33854" lon="6.69516">
        <ele>1766.5</ele>
        <time>2018-07-01T14:00:00Z</time>
      </trkpt>
      <trkpt lat="45.33857" lon="6.69517">
        <ele>1767.5</ele>
        <time>2018-07-01T14:00:02Z</time>
      </trkpt>
      <trkpt lat="45.3386" lon="6.69517">
        <ele>1768.4</ele>
        <time>2018-07-01T14:00:04Z</time>
      </trkpt>
      <trkpt lat="45.33863" lon="6.69517">
        <ele>1769.3</ele>
        <time>2018-07-01T14:00:06Z</time>
      </trkpt>
      <trkpt lat="45.33866" lon="6.69518">
        <ele>1770.1</ele>
        <time>2018-07-01T14:00:08Z</time>
      </trkpt>
      <trkpt lat="45.33868" lon="6.69518">
        <ele>1771</ele>
        <time>2018-07-01T14:00:10Z</time>
      </trkpt>
      <trkpt lat="45.33871" lon="6.69519">
        <ele>1771</ele>
        <time>2018-07-01T14:00:12Z</time>
      </trkpt>
      <trkpt lat="45.33874" lon="6.6952">
        <ele>1771</ele>
        <time>2018-07-01T14:00:14Z</time>
      </trkpt>
      <trkpt lat="45.33877" lon="6.6952">
        <ele>1771</ele>
        <time>2018-07-01T14:00:16Z</time>
      </trkpt>
      <trkpt lat="45.3388" lon="6.69521">
        <ele>1771</ele>
        <time>2018-07-01T14:00:18Z</time>
      </trkpt>
      <trkpt lat="45.33883" lon="6.69521">
        <ele>1771</ele>
        <time>2018-07-01T14:00:20Z</time>
      </trkpt>
      <trkpt lat="45.33886" lon="6.69521">
        <ele>1771</ele>
        <time>2018-07-01T14:00:22Z</time>
      </trkpt>
      <trkpt lat="45.3389" lon="6.69522">
        <ele>1771</ele>
        <time>2018-07-01T14:00:25Z</time>
      </trkpt>
      <trkpt lat="45.33894" lon="6.69522">
        <ele>1771</ele>
        <time>2018-07-01T14:00:28Z</time>
      </trkpt>
      <trkpt lat="45.33898" lon="6.69523">
        <ele>1771</ele>
        <time>2018-07-01T14:00:31Z</time>
      </trkpt>
      <trkpt lat="45.33902" lon="6.69523">
        <ele>1771</ele>
        <time>2018-07-01T14:00:34Z</time>
      </trkpt>
      <trkpt lat="45.33905" lon="6.69524">
        <ele>1770.8</ele>
        <time>2018-07-01T14:00:38Z</time>
      </trkpt>
      <trkpt lat="45.33908" lon="6.69524">
        <ele>1770.3</ele>
        <time>2018-07-01T14:00:42Z</time>
      </trkpt>
      <trkpt lat="45.33912" lon="6.69525">
        <ele>1769.7</ele>
        <time>2018-07-01T14:00:45Z</time>
      </trkpt>
      <trkpt lat="45.33916" lon="6.69527">
        <ele>1769.2</ele>
        <time>2018-07-01T14:00:48Z</time>
      </trkpt>
      <trkpt lat="45.33921" lon="6.69529">
        <ele>1768.7</ele>
        <time>2018-07-01T14:00:51Z</time>
      </trkpt>
      <trkpt lat="45.33924" lon="6.69529">
        <ele>1768.3</ele>
        <time>2018-07-01T14:00:53Z</time>
      </trkpt>
      <trkpt lat="45.33928" lon="6.69531">
        <ele>1767.9</ele>
        <time>2018-07-01T14:00:56Z</time>
      </trkpt>
      <trkpt lat="45.33931" lon="6.69532">
        <ele>1767.7</ele>
        <time>2018-07-01T14:00:58Z</time>
      </trkpt>
      <trkpt lat="45.33934" lon="6.69534">
        <ele>1767.4</ele>
        <time>2018-07-01T14:01:01Z</time>
      </trkpt>
      <trkpt lat="45.33938" lon="6.69535">
        <ele>1767.1</ele>
        <time>2018-07-01T14:01:04Z</time>
      </trkpt>
      <trkpt lat="45.33941" lon="6.69536">
        <ele>1766.9</ele>
        <time>2018-07-01T14:01:06Z</time>
      </trkpt>
      <trkpt lat="45.33944" lon="6.69537">
        <ele>1766.6</ele>
        <time>2018-07-01T14:01:08Z</time>
      </trkpt>
      <trkpt lat="45.33948" lon="6.69539">
        <ele>1766.3</ele>
        <time>2018-07-01T14:01:10Z</time>
      </trkpt>
      <trkpt lat="45.3395" lon="6.69542">
        <ele>1766</ele>
        <time>2018-07-01T14:01:13Z</time>
      </trkpt>
      <trkpt lat="45.33953" lon="6.69543">
        <ele>1765.8</ele>
        <time>2018-07-01T14:01:16Z</time>
      </trkpt>
      <trkpt lat="45.33957" lon="6.69545">
        <ele>1765.5</ele>
        <time>2018-07-01T14:01:19Z</time>
      </trkpt>
      <trkpt lat="45.33959" lon="6.69547">
        <ele>1765.3</ele>
        <time>2018-07-01T14:01:22Z</time>
      </trkpt>
      <trkpt lat="45.33962" lon="6.69549">
        <ele>1765</ele>
        <time>2018-07-01T14:01:24Z</time>
      </trkpt>
      <trkpt lat="45.33966" lon="6.69551">
        <ele>1764.8</ele>
        <time>2018-07-01T14:01:27Z</time>
      </trkpt>
      <trkpt lat="45.33968" lon="6.69554">
        <ele>1764.6</ele>
        <time>2018-07-01T14:01:29Z</time>
      </trkpt>
      <trkpt lat="45.33971" lon="6.69554">
        <ele>1764.5</ele>
        <time>2018-07-01T14:01:30Z</time>
      </trkpt>
      <trkpt lat="45.33974" lon="6.69556">
        <ele>1764.4</ele>
        <time>2018-07-01T14:01:33Z</time>
      </trkpt>
      <trkpt lat="45.33976" lon="6.69558">
        <ele>1764.2</ele>
        <time>2018-07-01T14:01:35Z</time>
      </trkpt>
      <trkpt lat="45.3398" lon="6.69559">
        <ele>1764.1</ele>
        <time>2018-07-01T14:01:37Z</time>
      </trkpt>
      <trkpt lat="45.33983" lon="6.69562">
        <ele>1763.8</ele>
        <time>2018-07-01T14:01:40Z</time>
      </trkpt>
      <trkpt lat="45.33986" lon="6.69565">
        <ele>1763.5</ele>
        <time>2018-07-01T14:01:42Z</time>
      </trkpt>
      <trkpt lat="45.33988" lon="6.69567">
        <ele>1763.3</ele>
        <time>2018-07-01T14:01:44Z</time>
      </trkpt>
      <trkpt lat="45.33991" lon="6.6957">
        <ele>1762.9</ele>
        <time>2018-07-01T14:01:47Z</time>
      </trkpt>
      <trkpt lat="45.33994" lon="6.69572">
        <ele>1762.6</ele>
        <time>2018-07-01T14:01:50Z</time>
      </trkpt>
      <trkpt lat="45.33997" lon="6.69575">
        <ele>1762.2</ele>
        <time>2018-07-01T14:01:53Z</time>
      </trkpt>
      <trkpt lat="45.34" lon="6.69577">
        <ele>1761.8</ele>
        <time>2018-07-01T14:01:56Z</time>
      </trkpt>
      <trkpt lat="45.34003" lon="6.6958">
        <ele>1761.5</ele>
        <time>2018-07-01T14:02:00Z</time>
      </trkpt>
      <trkpt lat="45.34005" lon="6.69583">
        <ele>1761.2</ele>
        <time>2018-07-01T14:02:03Z</time>
      </trkpt>
      <trkpt lat="45.34007" lon="6.69584">
        <ele>1761</ele>
        <time>2018-07-01T14:02:05Z</time>
      </trkpt>
      <trkpt lat="45.34011" lon="6.69587">
        <ele>1760.6</ele>
        <time>2018-07-01T14:02:08Z</time>
      </trkpt>
      <trkpt lat="45.34013" lon="6.69589">
        <ele>1760.3</ele>
        <time>2018-07-01T14:02:10Z</time>
      </trkpt>
      <trkpt lat="45.34016" lon="6.69591">
        <ele>1760</ele>
        <time>2018-07-01T14:02:12Z</time>
      </trkpt>
      <trkpt lat="45.34019" lon="6.69594">
        <ele>1759.6</ele>
        <time>2018-07-01T14:02:15Z</time>
      </trkpt>
      <trkpt lat="45.34023" lon="6.69596">
        <ele>1759.3</ele>
        <time>2018-07-01T14:02:18Z</time>
      </trkpt>
      <trkpt lat="45.34026" lon="6.69599">
        <ele>1758.9</ele>
        <time>2018-07-01T14:02:21Z</time>
      </trkpt>
      <trkpt lat="45.34029" lon="6.69601">
        <ele>1758.6</ele>
        <time>2018-07-01T14:02:24Z</time>
      </trkpt>
      <trkpt lat="45.34033" lon="6.69602">
        <ele>1758.3</ele>
        <time>2018-07-01T14:02:27Z</time>
      </trkpt>
      <trkpt lat="45.34036" lon="6.69603">
        <ele>1758</ele>
        <time>2018-07-01T14:02:29Z</time>
      </trkpt>
      <trkpt lat="45.34039" lon="6.69603">
        <ele>1757.8</ele>
        <time>2018-07-01T14:02:32Z</time>
      </trkpt>
      <trkpt lat="45.34042" lon="6.69603">
        <ele>1757.4</ele>
        <time>2018-07-01T14:02:35Z</time>
      </trkpt>
      <trkpt lat="45.34046" lon="6.69602">
        <ele>1757.1</ele>
        <time>2018-07-01T14:02:38Z</time>
      </trkpt>
      <trkpt lat="45.34049" lon="6.69602">
        <ele>1756.9</ele>
        <time>2018-07-01T14:02:40Z</time>
      </trkpt>
      <trkpt lat="45.34052" lon="6.69602">
        <ele>1756.6</ele>
        <time>2018-07-01T14:02:44Z</time>
      </trkpt>
      <trkpt lat="45.34055" lon="6.69602">
        <ele>1756.4</ele>
        <time>2018-07-01T14:02:46Z</time>
      </trkpt>
      <trkpt lat="45.34059" lon="6.69602">
        <ele>1756.1</ele>
        <time>2018-07-01T14:02:49Z</time>
      </trkpt>
      <trkpt lat="45.34063" lon="6.69601">
        <ele>1755.9</ele>
        <time>2018-07-01T14:02:52Z</time>
      </trkpt>
      <trkpt lat="45.34066" lon="6.69601">
        <ele>1755.7</ele>
        <time>2018-07-01T14:02:54Z</time>
      </trkpt>
      <trkpt lat="45.34068" lon="6.696">
        <ele>1755.5</ele>
        <time>2018-07-01T14:02:56Z</time>
      </trkpt>
      <trkpt lat="45.34071" lon="6.69599">
        <ele>1755.3</ele>
        <time>2018-07-01T14:02:58Z</time>
      </trkpt>
      <trkpt lat="45.34074" lon="6.69598">
        <ele>1755.1</ele>
        <time>2018-07-01T14:03:01Z</time>
      </trkpt>
      <trkpt lat="45.34078" lon="6.69599">
        <ele>1755</ele>
        <time>2018-07-01T14:03:04Z</time>
      </trkpt>
      <trkpt lat="45.34081" lon="6.696">
        <ele>1754.8</ele>
        <time>2018-07-01T14:03:07Z</time>
      </trkpt>
      <trkpt lat="45.34084" lon="6.69601">
        <ele>1754.7</ele>
        <time>2018-07-01T14:03:10Z</time>
      </trkpt>
    </trkseg>
  </trk>
</gpx>